<?xml version='1.0' encoding='UTF-8'?><gpx version="1.1" creator="JPX - https://github.com/jenetics/jpx" xmlns="http://www.topografix.com/GPX/1/1"><trk><trkseg><trkpt lat="44.16180098914825" lon="11.035827647883565"><ele>532.0</ele><time>2026-05-02T05:59:35.976Z</time></trkpt><trkpt lat="44.16173635021301" lon="11.035785602726918"><ele>532.0</ele><time>2026-05-02T05:59:43.986Z</time></trkpt><trkpt lat="44.16179560078019" lon="11.035839807572298"><ele>532.0</ele><time>2026-05-02T05:59:55.994Z</time></trkpt><trkpt lat="44.16165240994461" lon="11.03577382819646"><ele>532.0</ele><time>2026-05-02T05:59:58.995Z</time></trkpt><trkpt lat="44.161731325350516" lon="11.035819403796003"><ele>532.0</ele><time>2026-05-02T06:00:00.996Z</time></trkpt><trkpt lat="44.16182863892288" lon="11.035860818338758"><ele>532.0</ele><time>2026-05-02T06:00:38Z</time></trkpt><trkpt lat="44.16188563827248" lon="11.035915827278417"><ele>532.0</ele><time>2026-05-02T06:00:56.001Z</time></trkpt><trkpt lat="44.162006232765115" lon="11.036107783566894"><ele>532.0</ele><time>2026-05-02T06:01:05.001Z</time></trkpt><trkpt lat="44.16195422741349" lon="11.036024406427716"><ele>532.0</ele><time>2026-05-02T06:01:06.001Z</time></trkpt><trkpt lat="44.16191899961457" lon="11.035893902511527"><ele>532.0</ele><time>2026-05-02T06:01:59Z</time></trkpt><trkpt lat="44.16200300224087" lon="11.035810566702281"><ele>532.0</ele><time>2026-05-02T06:02:01Z</time></trkpt><trkpt lat="44.16208431990154" lon="11.035793404654111"><ele>532.0</ele><time>2026-05-02T06:02:04Z</time></trkpt><trkpt lat="44.16217565595406" lon="11.035893587410445"><ele>532.0</ele><time>2026-05-02T06:02:06Z</time></trkpt><trkpt lat="44.162264041022304" lon="11.036024002255573"><ele>532.0</ele><time>2026-05-02T06:02:07Z</time></trkpt><trkpt lat="44.162365078844104" lon="11.036182458527621"><ele>533.3333333333334</ele><time>2026-05-02T06:02:08Z</time></trkpt><trkpt lat="44.162406550285326" lon="11.03640566844399"><ele>534.6666666666666</ele><time>2026-05-02T06:02:09Z</time></trkpt><trkpt lat="44.16252225720631" lon="11.036569535411639"><ele>536.0</ele><time>2026-05-02T06:02:10Z</time></trkpt><trkpt lat="44.16266115548299" lon="11.036630370615095"><ele>536.0</ele><time>2026-05-02T06:02:11Z</time></trkpt><trkpt lat="44.16281129811838" lon="11.0366662070405"><ele>536.0</ele><time>2026-05-02T06:02:12Z</time></trkpt><trkpt lat="44.16295277702664" lon="11.03666515275318"><ele>536.0</ele><time>2026-05-02T06:02:13Z</time></trkpt><trkpt lat="44.1630688565376" lon="11.036671358304247"><ele>536.0</ele><time>2026-05-02T06:02:14Z</time></trkpt><trkpt lat="44.16317900624017" lon="11.036626463092347"><ele>536.25</ele><time>2026-05-02T06:02:15Z</time></trkpt><trkpt lat="44.16328026626391" lon="11.036526589912633"><ele>536.5</ele><time>2026-05-02T06:02:16Z</time></trkpt><trkpt lat="44.163345271587254" lon="11.036370728860108"><ele>536.75</ele><time>2026-05-02T06:02:17Z</time></trkpt><trkpt lat="44.16345794113752" lon="11.036177444445652"><ele>537.0</ele><time>2026-05-02T06:02:18Z</time></trkpt><trkpt lat="44.16354499725101" lon="11.036019209712613"><ele>537.0</ele><time>2026-05-02T06:02:19Z</time></trkpt><trkpt lat="44.16362085910201" lon="11.0359100577022"><ele>537.0</ele><time>2026-05-02T06:02:20Z</time></trkpt><trkpt lat="44.163697322869396" lon="11.035877156783302"><ele>537.0</ele><time>2026-05-02T06:02:22Z</time></trkpt><trkpt lat="44.16384012397775" lon="11.036184790958819"><ele>537.0</ele><time>2026-05-02T06:02:23Z</time></trkpt><trkpt lat="44.16397266948795" lon="11.036290326164021"><ele>537.0</ele><time>2026-05-02T06:02:24Z</time></trkpt><trkpt lat="44.16409214525071" lon="11.036386613270237"><ele>537.0</ele><time>2026-05-02T06:02:25Z</time></trkpt><trkpt lat="44.16419670675181" lon="11.036448289897805"><ele>537.0</ele><time>2026-05-02T06:02:26Z</time></trkpt><trkpt lat="44.16428327573245" lon="11.036546111722467"><ele>534.8000000000001</ele><time>2026-05-02T06:02:27Z</time></trkpt><trkpt lat="44.164338387430725" lon="11.036696541488375"><ele>532.6</ele><time>2026-05-02T06:02:28Z</time></trkpt><trkpt lat="44.16437256994092" lon="11.036852198761853"><ele>530.4000000000001</ele><time>2026-05-02T06:02:29Z</time></trkpt><trkpt lat="44.1643756412612" lon="11.036994923887967"><ele>528.2</ele><time>2026-05-02T06:02:30Z</time></trkpt><trkpt lat="44.164365845628616" lon="11.037123147146069"><ele>526.0</ele><time>2026-05-02T06:02:31Z</time></trkpt><trkpt lat="44.16435942745206" lon="11.037244246088894"><ele>526.0</ele><time>2026-05-02T06:02:32Z</time></trkpt><trkpt lat="44.164354228328065" lon="11.037342343850423"><ele>526.0</ele><time>2026-05-02T06:02:34Z</time></trkpt><trkpt lat="44.16450267835942" lon="11.037363002646213"><ele>526.0</ele><time>2026-05-02T06:02:35Z</time></trkpt><trkpt lat="44.16457091793793" lon="11.037275248286003"><ele>526.0</ele><time>2026-05-02T06:02:36Z</time></trkpt><trkpt lat="44.16462918880285" lon="11.037175899530823"><ele>526.0</ele><time>2026-05-02T06:02:37Z</time></trkpt><trkpt lat="44.16469718837516" lon="11.037084154150604"><ele>526.0</ele><time>2026-05-02T06:02:38Z</time></trkpt><trkpt lat="44.16476008087281" lon="11.036961862422544"><ele>526.0</ele><time>2026-05-02T06:02:39Z</time></trkpt><trkpt lat="44.16480922788577" lon="11.036786836730498"><ele>526.0</ele><time>2026-05-02T06:02:40Z</time></trkpt><trkpt lat="44.16485206188422" lon="11.036657091729493"><ele>526.0</ele><time>2026-05-02T06:02:41Z</time></trkpt><trkpt lat="44.164924421523324" lon="11.036593403282717"><ele>526.0</ele><time>2026-05-02T06:02:42Z</time></trkpt><trkpt lat="44.16500111920756" lon="11.036533676122309"><ele>525.25</ele><time>2026-05-02T06:02:43Z</time></trkpt><trkpt lat="44.165046337131706" lon="11.036771925461242"><ele>524.5</ele><time>2026-05-02T06:02:44Z</time></trkpt><trkpt lat="44.16510437080404" lon="11.036875210130411"><ele>523.75</ele><time>2026-05-02T06:02:45Z</time></trkpt><trkpt lat="44.16520323256561" lon="11.037048606619114"><ele>523.0</ele><time>2026-05-02T06:02:46Z</time></trkpt><trkpt lat="44.16532483485314" lon="11.037252742599037"><ele>523.0</ele><time>2026-05-02T06:02:47Z</time></trkpt><trkpt lat="44.16547737464453" lon="11.037387417753186"><ele>523.0</ele><time>2026-05-02T06:02:48Z</time></trkpt><trkpt lat="44.16558344478215" lon="11.037495023279613"><ele>523.0</ele><time>2026-05-02T06:02:49Z</time></trkpt><trkpt lat="44.16565174213793" lon="11.037586426761093"><ele>523.0</ele><time>2026-05-02T06:02:50Z</time></trkpt><trkpt lat="44.165674962815764" lon="11.037682013177482"><ele>522.0</ele><time>2026-05-02T06:02:51Z</time></trkpt><trkpt lat="44.165722357906205" lon="11.037813612644547"><ele>521.0</ele><time>2026-05-02T06:02:52Z</time></trkpt><trkpt lat="44.16579209393943" lon="11.037963263837664"><ele>520.0</ele><time>2026-05-02T06:02:53Z</time></trkpt><trkpt lat="44.16586821785949" lon="11.038102428403723"><ele>519.0</ele><time>2026-05-02T06:02:54Z</time></trkpt><trkpt lat="44.16594019972055" lon="11.038205858656639"><ele>519.0</ele><time>2026-05-02T06:02:55Z</time></trkpt><trkpt lat="44.16604782057492" lon="11.03825284625377"><ele>519.0</ele><time>2026-05-02T06:02:56Z</time></trkpt><trkpt lat="44.1661646721515" lon="11.038278652231469"><ele>519.0</ele><time>2026-05-02T06:02:57Z</time></trkpt><trkpt lat="44.166282623382436" lon="11.038261850549688"><ele>519.0</ele><time>2026-05-02T06:02:58Z</time></trkpt><trkpt lat="44.166385929976975" lon="11.038281720306518"><ele>517.75</ele><time>2026-05-02T06:02:59Z</time></trkpt><trkpt lat="44.16645077665318" lon="11.038401464854331"><ele>516.5</ele><time>2026-05-02T06:03:00Z</time></trkpt><trkpt lat="44.16651197797392" lon="11.038535093398139"><ele>515.25</ele><time>2026-05-02T06:03:01Z</time></trkpt><trkpt lat="44.166592378545175" lon="11.038658516524706"><ele>514.0</ele><time>2026-05-02T06:03:02Z</time></trkpt><trkpt lat="44.166684637867334" lon="11.038763169120571"><ele>515.75</ele><time>2026-05-02T06:03:03Z</time></trkpt><trkpt lat="44.16677878496743" lon="11.038860319692462"><ele>517.5</ele><time>2026-05-02T06:03:04Z</time></trkpt><trkpt lat="44.16687584776717" lon="11.038961540403733"><ele>519.25</ele><time>2026-05-02T06:03:05Z</time></trkpt><trkpt lat="44.16697959613317" lon="11.0390477752801"><ele>521.0</ele><time>2026-05-02T06:03:06Z</time></trkpt><trkpt lat="44.167077377980256" lon="11.039149221978255"><ele>521.0</ele><time>2026-05-02T06:03:07Z</time></trkpt><trkpt lat="44.167162084352626" lon="11.03926650984014"><ele>521.0</ele><time>2026-05-02T06:03:08Z</time></trkpt><trkpt lat="44.167263955438735" lon="11.039350911794573"><ele>521.0</ele><time>2026-05-02T06:03:09Z</time></trkpt><trkpt lat="44.16733307286397" lon="11.039420086592179"><ele>521.0</ele><time>2026-05-02T06:03:10Z</time></trkpt><trkpt lat="44.167397195958436" lon="11.039495102401212"><ele>521.0</ele><time>2026-05-02T06:03:11Z</time></trkpt><trkpt lat="44.1674846618087" lon="11.039531224783659"><ele>523.0</ele><time>2026-05-02T06:03:12Z</time></trkpt><trkpt lat="44.1675893040803" lon="11.039475076462425"><ele>525.0</ele><time>2026-05-02T06:03:13Z</time></trkpt><trkpt lat="44.16768936322262" lon="11.039428554379683"><ele>527.0</ele><time>2026-05-02T06:03:14Z</time></trkpt><trkpt lat="44.16779328696104" lon="11.039408097714974"><ele>529.0</ele><time>2026-05-02T06:03:15Z</time></trkpt><trkpt lat="44.16790061952722" lon="11.039375102072025"><ele>531.0</ele><time>2026-05-02T06:03:16Z</time></trkpt><trkpt lat="44.16798955709658" lon="11.039370801007658"><ele>531.0</ele><time>2026-05-02T06:03:17Z</time></trkpt><trkpt lat="44.16807520906036" lon="11.039394993055469"><ele>531.0</ele><time>2026-05-02T06:03:18Z</time></trkpt><trkpt lat="44.16815260840842" lon="11.039452941620448"><ele>531.0</ele><time>2026-05-02T06:03:19Z</time></trkpt><trkpt lat="44.168230284660126" lon="11.039511256436525"><ele>531.0</ele><time>2026-05-02T06:03:20Z</time></trkpt><trkpt lat="44.16825873254155" lon="11.039624460218405"><ele>531.0</ele><time>2026-05-02T06:03:21Z</time></trkpt><trkpt lat="44.16822235205284" lon="11.039741136898932"><ele>531.0</ele><time>2026-05-02T06:03:22Z</time></trkpt><trkpt lat="44.16826821440447" lon="11.039871976759363"><ele>532.6</ele><time>2026-05-02T06:03:23Z</time></trkpt><trkpt lat="44.16829491331971" lon="11.040007015763996"><ele>534.2</ele><time>2026-05-02T06:03:24Z</time></trkpt><trkpt lat="44.16833901969108" lon="11.040145573719814"><ele>535.8</ele><time>2026-05-02T06:03:25Z</time></trkpt><trkpt lat="44.16838474986179" lon="11.040288039082684"><ele>537.4</ele><time>2026-05-02T06:03:26Z</time></trkpt><trkpt lat="44.16842436588014" lon="11.040440029939628"><ele>539.0</ele><time>2026-05-02T06:03:27Z</time></trkpt><trkpt lat="44.16846036290216" lon="11.040599340893142"><ele>539.0</ele><time>2026-05-02T06:03:28Z</time></trkpt><trkpt lat="44.16850048645831" lon="11.040755738609038"><ele>539.0</ele><time>2026-05-02T06:03:29Z</time></trkpt><trkpt lat="44.168540278692326" lon="11.040912612514312"><ele>539.0</ele><time>2026-05-02T06:03:30Z</time></trkpt><trkpt lat="44.1685635106541" lon="11.041060482527747"><ele>539.0</ele><time>2026-05-02T06:03:31Z</time></trkpt><trkpt lat="44.168593861689295" lon="11.041172990868734"><ele>539.0</ele><time>2026-05-02T06:03:32Z</time></trkpt><trkpt lat="44.16864335438051" lon="11.041254730970461"><ele>539.0</ele><time>2026-05-02T06:03:33Z</time></trkpt><trkpt lat="44.16867719010721" lon="11.04134537572544"><ele>539.0</ele><time>2026-05-02T06:03:34Z</time></trkpt><trkpt lat="44.16876157654889" lon="11.041348199262"><ele>539.0</ele><time>2026-05-02T06:03:35Z</time></trkpt><trkpt lat="44.16884261293258" lon="11.041362376096156"><ele>539.0</ele><time>2026-05-02T06:03:36Z</time></trkpt><trkpt lat="44.168936539747065" lon="11.041366184436177"><ele>539.0</ele><time>2026-05-02T06:03:37Z</time></trkpt><trkpt lat="44.16904177774208" lon="11.041364210043326"><ele>539.0</ele><time>2026-05-02T06:03:38Z</time></trkpt><trkpt lat="44.16916258801624" lon="11.04138161738037"><ele>542.0</ele><time>2026-05-02T06:03:39Z</time></trkpt><trkpt lat="44.1692763260762" lon="11.041289439332788"><ele>545.0</ele><time>2026-05-02T06:03:40Z</time></trkpt><trkpt lat="44.16942414566969" lon="11.041207955956766"><ele>548.0</ele><time>2026-05-02T06:03:41Z</time></trkpt><trkpt lat="44.16959770646928" lon="11.041131188193129"><ele>548.0</ele><time>2026-05-02T06:03:42Z</time></trkpt><trkpt lat="44.1697664038849" lon="11.041083919506603"><ele>548.0</ele><time>2026-05-02T06:03:43Z</time></trkpt><trkpt lat="44.16991479227094" lon="11.041087284258335"><ele>548.0</ele><time>2026-05-02T06:03:44Z</time></trkpt><trkpt lat="44.170059156449156" lon="11.041113817055013"><ele>547.0</ele><time>2026-05-02T06:03:45Z</time></trkpt><trkpt lat="44.17017712642292" lon="11.041195831869073"><ele>546.0</ele><time>2026-05-02T06:03:46Z</time></trkpt><trkpt lat="44.17027884356729" lon="11.04133138080461"><ele>545.0</ele><time>2026-05-02T06:03:47Z</time></trkpt><trkpt lat="44.170405230477186" lon="11.041435780928142"><ele>544.0</ele><time>2026-05-02T06:03:48Z</time></trkpt><trkpt lat="44.17054132043171" lon="11.04154789979732"><ele>539.3333333333334</ele><time>2026-05-02T06:03:49Z</time></trkpt><trkpt lat="44.17068751348985" lon="11.041638315511229"><ele>534.6666666666666</ele><time>2026-05-02T06:03:50Z</time></trkpt><trkpt lat="44.17083636856956" lon="11.04172632911634"><ele>530.0</ele><time>2026-05-02T06:03:51Z</time></trkpt><trkpt lat="44.17097403961282" lon="11.041813018756233"><ele>529.6666666666666</ele><time>2026-05-02T06:03:52Z</time></trkpt><trkpt lat="44.17107813993328" lon="11.041982194302031"><ele>529.3333333333334</ele><time>2026-05-02T06:03:53Z</time></trkpt><trkpt lat="44.17118881849321" lon="11.042136411634205"><ele>529.0</ele><time>2026-05-02T06:03:54Z</time></trkpt><trkpt lat="44.171324959515694" lon="11.042289235980759"><ele>529.0</ele><time>2026-05-02T06:03:55Z</time></trkpt><trkpt lat="44.171465240569006" lon="11.042458106197335"><ele>529.0</ele><time>2026-05-02T06:03:56Z</time></trkpt><trkpt lat="44.17159816971959" lon="11.04260669555305"><ele>529.0</ele><time>2026-05-02T06:03:57Z</time></trkpt><trkpt lat="44.1717236973664" lon="11.04272005954952"><ele>529.0</ele><time>2026-05-02T06:03:58Z</time></trkpt><trkpt lat="44.171870652256885" lon="11.042801836068106"><ele>529.0</ele><time>2026-05-02T06:03:59Z</time></trkpt><trkpt lat="44.172009284469205" lon="11.042915219515631"><ele>529.0</ele><time>2026-05-02T06:04:00Z</time></trkpt><trkpt lat="44.172159174016855" lon="11.042980631408877"><ele>529.0</ele><time>2026-05-02T06:04:01Z</time></trkpt><trkpt lat="44.172320310434095" lon="11.043067862475322"><ele>529.0</ele><time>2026-05-02T06:04:02Z</time></trkpt><trkpt lat="44.17248332386018" lon="11.043112473713665"><ele>529.0</ele><time>2026-05-02T06:04:03Z</time></trkpt><trkpt lat="44.172647179308285" lon="11.043163164935805"><ele>528.0</ele><time>2026-05-02T06:04:04Z</time></trkpt><trkpt lat="44.17279528861578" lon="11.043254034498153"><ele>527.0</ele><time>2026-05-02T06:04:05Z</time></trkpt><trkpt lat="44.1729533434955" lon="11.04333838750038"><ele>526.0</ele><time>2026-05-02T06:04:06Z</time></trkpt><trkpt lat="44.173095710374" lon="11.043424535955888"><ele>526.75</ele><time>2026-05-02T06:04:07Z</time></trkpt><trkpt lat="44.17324638378904" lon="11.043519402149103"><ele>527.5</ele><time>2026-05-02T06:04:08Z</time></trkpt><trkpt lat="44.17337155989821" lon="11.043579640850341"><ele>528.25</ele><time>2026-05-02T06:04:09Z</time></trkpt><trkpt lat="44.17350574492818" lon="11.043580267354503"><ele>529.0</ele><time>2026-05-02T06:04:10Z</time></trkpt><trkpt lat="44.17364636563645" lon="11.043571767663769"><ele>529.0</ele><time>2026-05-02T06:04:11Z</time></trkpt><trkpt lat="44.173792064550895" lon="11.043554024290579"><ele>529.0</ele><time>2026-05-02T06:04:12Z</time></trkpt><trkpt lat="44.17393625542333" lon="11.04355228104845"><ele>529.0</ele><time>2026-05-02T06:04:13Z</time></trkpt><trkpt lat="44.174036574006585" lon="11.04364771196825"><ele>529.0</ele><time>2026-05-02T06:04:14Z</time></trkpt><trkpt lat="44.17412912383655" lon="11.043761067905608"><ele>530.0</ele><time>2026-05-02T06:04:15Z</time></trkpt><trkpt lat="44.17422169489572" lon="11.043905269687441"><ele>531.0</ele><time>2026-05-02T06:04:16Z</time></trkpt><trkpt lat="44.174278213322836" lon="11.04406451583067"><ele>532.0</ele><time>2026-05-02T06:04:17Z</time></trkpt><trkpt lat="44.174335632769356" lon="11.044208843553397"><ele>533.0</ele><time>2026-05-02T06:04:18Z</time></trkpt><trkpt lat="44.17436956962126" lon="11.044319982576647"><ele>532.4</ele><time>2026-05-02T06:04:19Z</time></trkpt><trkpt lat="44.174426422988304" lon="11.044379290029475"><ele>531.8</ele><time>2026-05-02T06:04:20Z</time></trkpt><trkpt lat="44.17450808866484" lon="11.04442450184359"><ele>531.2</ele><time>2026-05-02T06:04:21Z</time></trkpt><trkpt lat="44.17462099322521" lon="11.044391406565788"><ele>530.6</ele><time>2026-05-02T06:04:22Z</time></trkpt><trkpt lat="44.174751692113" lon="11.04434967073673"><ele>530.0</ele><time>2026-05-02T06:04:23Z</time></trkpt><trkpt lat="44.17488418455277" lon="11.0443396049835"><ele>530.0</ele><time>2026-05-02T06:04:24Z</time></trkpt><trkpt lat="44.17501578296474" lon="11.04438577863135"><ele>530.0</ele><time>2026-05-02T06:04:25Z</time></trkpt><trkpt lat="44.17516888671529" lon="11.044433395950774"><ele>530.0</ele><time>2026-05-02T06:04:26Z</time></trkpt><trkpt lat="44.17531596757728" lon="11.044480286737972"><ele>530.0</ele><time>2026-05-02T06:04:27Z</time></trkpt><trkpt lat="44.175459693611174" lon="11.044520809806786"><ele>530.0</ele><time>2026-05-02T06:04:28Z</time></trkpt><trkpt lat="44.175587932135" lon="11.044562635520535"><ele>530.0</ele><time>2026-05-02T06:04:29Z</time></trkpt><trkpt lat="44.175725446519614" lon="11.04466371330782"><ele>530.0</ele><time>2026-05-02T06:04:30Z</time></trkpt><trkpt lat="44.175849940295016" lon="11.044750826811761"><ele>530.0</ele><time>2026-05-02T06:04:31Z</time></trkpt><trkpt lat="44.17596018577783" lon="11.044830371683625"><ele>531.75</ele><time>2026-05-02T06:04:32Z</time></trkpt><trkpt lat="44.17606936080594" lon="11.044898616167753"><ele>533.5</ele><time>2026-05-02T06:04:33Z</time></trkpt><trkpt lat="44.17616725473382" lon="11.04495258677135"><ele>535.25</ele><time>2026-05-02T06:04:34Z</time></trkpt><trkpt lat="44.176289025485765" lon="11.04497039537667"><ele>537.0</ele><time>2026-05-02T06:04:35Z</time></trkpt><trkpt lat="44.176415066839596" lon="11.044938942153024"><ele>537.0</ele><time>2026-05-02T06:04:36Z</time></trkpt><trkpt lat="44.17655012744489" lon="11.044866010316463"><ele>537.0</ele><time>2026-05-02T06:04:37Z</time></trkpt><trkpt lat="44.176683921246806" lon="11.044789448283261"><ele>537.0</ele><time>2026-05-02T06:04:38Z</time></trkpt><trkpt lat="44.17681843466959" lon="11.044716412818271"><ele>537.0</ele><time>2026-05-02T06:04:39Z</time></trkpt><trkpt lat="44.17695538708722" lon="11.044697012493057"><ele>537.0</ele><time>2026-05-02T06:04:40Z</time></trkpt><trkpt lat="44.17709769397088" lon="11.04469513148749"><ele>537.0</ele><time>2026-05-02T06:04:41Z</time></trkpt><trkpt lat="44.177230563243086" lon="11.044676908252049"><ele>537.0</ele><time>2026-05-02T06:04:42Z</time></trkpt><trkpt lat="44.177359120583304" lon="11.044683434158353"><ele>537.0</ele><time>2026-05-02T06:04:43Z</time></trkpt><trkpt lat="44.177473220237175" lon="11.044657372113074"><ele>531.5</ele><time>2026-05-02T06:04:44Z</time></trkpt><trkpt lat="44.17757627539215" lon="11.044570211010695"><ele>526.0</ele><time>2026-05-02T06:04:45Z</time></trkpt><trkpt lat="44.177670561666204" lon="11.044454348545191"><ele>520.5</ele><time>2026-05-02T06:04:46Z</time></trkpt><trkpt lat="44.177775053578536" lon="11.044340565690602"><ele>515.0</ele><time>2026-05-02T06:04:47Z</time></trkpt><trkpt lat="44.17787821567865" lon="11.044246171315761"><ele>515.0</ele><time>2026-05-02T06:04:48Z</time></trkpt><trkpt lat="44.17799408770405" lon="11.044186429087151"><ele>515.0</ele><time>2026-05-02T06:04:49Z</time></trkpt><trkpt lat="44.17811891568027" lon="11.044174926044496"><ele>515.0</ele><time>2026-05-02T06:04:50Z</time></trkpt><trkpt lat="44.17824015107748" lon="11.044170360752505"><ele>515.0</ele><time>2026-05-02T06:04:51Z</time></trkpt><trkpt lat="44.178352098789915" lon="11.044183197591652"><ele>512.0</ele><time>2026-05-02T06:04:52Z</time></trkpt><trkpt lat="44.17845951932626" lon="11.04420475430756"><ele>509.0</ele><time>2026-05-02T06:04:53Z</time></trkpt><trkpt lat="44.178550084494525" lon="11.0442268158518"><ele>506.0</ele><time>2026-05-02T06:04:54Z</time></trkpt><trkpt lat="44.1786574289861" lon="11.044258063672844"><ele>503.0</ele><time>2026-05-02T06:04:55Z</time></trkpt><trkpt lat="44.178759843440375" lon="11.044294671325023"><ele>500.0</ele><time>2026-05-02T06:04:56Z</time></trkpt><trkpt lat="44.17884246548" lon="11.044340863993959"><ele>500.0</ele><time>2026-05-02T06:04:57Z</time></trkpt><trkpt lat="44.17891952820305" lon="11.044418699171619"><ele>500.0</ele><time>2026-05-02T06:04:58Z</time></trkpt><trkpt lat="44.178957105513255" lon="11.04450505605755"><ele>500.0</ele><time>2026-05-02T06:04:59Z</time></trkpt><trkpt lat="44.17891468524158" lon="11.04459168781177"><ele>500.0</ele><time>2026-05-02T06:05:00Z</time></trkpt><trkpt lat="44.178787685692704" lon="11.044702185300974"><ele>500.0</ele><time>2026-05-02T06:05:02Z</time></trkpt><trkpt lat="44.178618634905405" lon="11.044750578957078"><ele>500.0</ele><time>2026-05-02T06:05:03Z</time></trkpt><trkpt lat="44.1785068944914" lon="11.0448445766836"><ele>500.0</ele><time>2026-05-02T06:05:04Z</time></trkpt><trkpt lat="44.17840956756782" lon="11.044954475086588"><ele>500.0</ele><time>2026-05-02T06:05:05Z</time></trkpt><trkpt lat="44.178329785093354" lon="11.045115550137389"><ele>500.0</ele><time>2026-05-02T06:05:06Z</time></trkpt><trkpt lat="44.17824756063954" lon="11.045299017671342"><ele>498.66666666666663</ele><time>2026-05-02T06:05:07Z</time></trkpt><trkpt lat="44.178173685190465" lon="11.045507161681028"><ele>497.33333333333337</ele><time>2026-05-02T06:05:08Z</time></trkpt><trkpt lat="44.178115590619576" lon="11.04569319800303"><ele>496.0</ele><time>2026-05-02T06:05:09Z</time></trkpt><trkpt lat="44.17808218002712" lon="11.045892142169814"><ele>496.0</ele><time>2026-05-02T06:05:10Z</time></trkpt><trkpt lat="44.17809047179903" lon="11.046109069939709"><ele>496.0</ele><time>2026-05-02T06:05:11Z</time></trkpt><trkpt lat="44.178104586632294" lon="11.046310113622217"><ele>496.0</ele><time>2026-05-02T06:05:12Z</time></trkpt><trkpt lat="44.17809412561513" lon="11.046473314382371"><ele>496.0</ele><time>2026-05-02T06:05:13Z</time></trkpt><trkpt lat="44.1780299977545" lon="11.04662865492529"><ele>492.33333333333337</ele><time>2026-05-02T06:05:14Z</time></trkpt><trkpt lat="44.17795313591919" lon="11.046811499230326"><ele>488.66666666666663</ele><time>2026-05-02T06:05:15Z</time></trkpt><trkpt lat="44.17786634085619" lon="11.047022426464665"><ele>485.0</ele><time>2026-05-02T06:05:16Z</time></trkpt><trkpt lat="44.17779123575071" lon="11.047222918476972"><ele>485.0</ele><time>2026-05-02T06:05:17Z</time></trkpt><trkpt lat="44.177738358627096" lon="11.047412564270854"><ele>485.0</ele><time>2026-05-02T06:05:18Z</time></trkpt><trkpt lat="44.17770483497631" lon="11.047604596116022"><ele>485.0</ele><time>2026-05-02T06:05:19Z</time></trkpt><trkpt lat="44.17767730653746" lon="11.047769335301945"><ele>485.0</ele><time>2026-05-02T06:05:20Z</time></trkpt><trkpt lat="44.177620508920505" lon="11.04792889890949"><ele>481.5</ele><time>2026-05-02T06:05:21Z</time></trkpt><trkpt lat="44.17753579175247" lon="11.04802174174414"><ele>478.0</ele><time>2026-05-02T06:05:22Z</time></trkpt><trkpt lat="44.17742782106608" lon="11.048108948993363"><ele>474.5</ele><time>2026-05-02T06:05:23Z</time></trkpt><trkpt lat="44.17728918920991" lon="11.048189139015397"><ele>471.0</ele><time>2026-05-02T06:05:24Z</time></trkpt><trkpt lat="44.177136707576395" lon="11.04825821139081"><ele>467.33333333333337</ele><time>2026-05-02T06:05:25Z</time></trkpt><trkpt lat="44.17697053735794" lon="11.048311572334958"><ele>463.6666666666667</ele><time>2026-05-02T06:05:26Z</time></trkpt><trkpt lat="44.17680919722634" lon="11.04837335577558"><ele>460.0</ele><time>2026-05-02T06:05:27Z</time></trkpt><trkpt lat="44.17665217648208" lon="11.048437219760576"><ele>458.0</ele><time>2026-05-02T06:05:28Z</time></trkpt><trkpt lat="44.176510478940266" lon="11.048478872306672"><ele>456.0</ele><time>2026-05-02T06:05:29Z</time></trkpt><trkpt lat="44.17637209181672" lon="11.048495427867195"><ele>454.0</ele><time>2026-05-02T06:05:30Z</time></trkpt><trkpt lat="44.17623795894871" lon="11.048509602481012"><ele>452.0</ele><time>2026-05-02T06:05:31Z</time></trkpt><trkpt lat="44.176112405083046" lon="11.048534235936781"><ele>452.0</ele><time>2026-05-02T06:05:32Z</time></trkpt><trkpt lat="44.1759967105409" lon="11.048507376410914"><ele>452.00000000000006</ele><time>2026-05-02T06:05:33Z</time></trkpt><trkpt lat="44.17590865898957" lon="11.048426496551699"><ele>452.00000000000006</ele><time>2026-05-02T06:05:34Z</time></trkpt><trkpt lat="44.17586226137717" lon="11.048285710546294"><ele>452.0</ele><time>2026-05-02T06:05:35Z</time></trkpt><trkpt lat="44.1757847824589" lon="11.048201126616473"><ele>452.0</ele><time>2026-05-02T06:05:36Z</time></trkpt><trkpt lat="44.175727489895706" lon="11.048140090857384"><ele>452.0</ele><time>2026-05-02T06:05:37Z</time></trkpt><trkpt lat="44.175641563133915" lon="11.048106467155764"><ele>452.0</ele><time>2026-05-02T06:05:39Z</time></trkpt><trkpt lat="44.17558237872741" lon="11.048298431511268"><ele>452.0</ele><time>2026-05-02T06:05:40Z</time></trkpt><trkpt lat="44.17564812939325" lon="11.048434789400513"><ele>452.0</ele><time>2026-05-02T06:05:41Z</time></trkpt><trkpt lat="44.17570215140382" lon="11.048570819777773"><ele>452.0</ele><time>2026-05-02T06:05:42Z</time></trkpt><trkpt lat="44.17573136930547" lon="11.048726506107215"><ele>452.0</ele><time>2026-05-02T06:05:43Z</time></trkpt><trkpt lat="44.17573764776846" lon="11.048889199172262"><ele>452.0</ele><time>2026-05-02T06:05:44Z</time></trkpt><trkpt lat="44.17574034301478" lon="11.049087087092596"><ele>452.0</ele><time>2026-05-02T06:05:45Z</time></trkpt><trkpt lat="44.17573388254933" lon="11.049280804109701"><ele>450.0</ele><time>2026-05-02T06:05:46Z</time></trkpt><trkpt lat="44.17570731616919" lon="11.049463358934746"><ele>448.0</ele><time>2026-05-02T06:05:47Z</time></trkpt><trkpt lat="44.17566231047869" lon="11.04966485329939"><ele>446.0</ele><time>2026-05-02T06:05:48Z</time></trkpt><trkpt lat="44.17560938673492" lon="11.049837519258109"><ele>444.0</ele><time>2026-05-02T06:05:49Z</time></trkpt><trkpt lat="44.1755483114216" lon="11.05002439612634"><ele>438.0</ele><time>2026-05-02T06:05:50Z</time></trkpt><trkpt lat="44.175475571616566" lon="11.05018976473768"><ele>432.0</ele><time>2026-05-02T06:05:51Z</time></trkpt><trkpt lat="44.1753838066764" lon="11.050350137884333"><ele>426.0</ele><time>2026-05-02T06:05:52Z</time></trkpt><trkpt lat="44.175280991500316" lon="11.050493609282583"><ele>420.0</ele><time>2026-05-02T06:05:53Z</time></trkpt><trkpt lat="44.1751636441204" lon="11.050599654871716"><ele>420.0</ele><time>2026-05-02T06:05:54Z</time></trkpt><trkpt lat="44.17503181145807" lon="11.050698440946505"><ele>420.0</ele><time>2026-05-02T06:05:55Z</time></trkpt><trkpt lat="44.17489847570048" lon="11.050779091985408"><ele>420.0</ele><time>2026-05-02T06:05:56Z</time></trkpt><trkpt lat="44.17476069287178" lon="11.050866922670604"><ele>420.0</ele><time>2026-05-02T06:05:57Z</time></trkpt><trkpt lat="44.17463276363078" lon="11.050950703660959"><ele>415.5</ele><time>2026-05-02T06:05:58Z</time></trkpt><trkpt lat="44.17452182588206" lon="11.051092439015594"><ele>411.0</ele><time>2026-05-02T06:05:59Z</time></trkpt><trkpt lat="44.174404700810584" lon="11.051210440190465"><ele>406.5</ele><time>2026-05-02T06:06:00Z</time></trkpt><trkpt lat="44.17430793755939" lon="11.051352948904523"><ele>402.0</ele><time>2026-05-02T06:06:01Z</time></trkpt><trkpt lat="44.174199869974714" lon="11.051471142424704"><ele>402.0</ele><time>2026-05-02T06:06:02Z</time></trkpt><trkpt lat="44.174092808261925" lon="11.051572001907198"><ele>402.0</ele><time>2026-05-02T06:06:03Z</time></trkpt><trkpt lat="44.17398033591625" lon="11.051667094071423"><ele>402.0</ele><time>2026-05-02T06:06:04Z</time></trkpt><trkpt lat="44.173863295924576" lon="11.051752688487197"><ele>402.0</ele><time>2026-05-02T06:06:05Z</time></trkpt><trkpt lat="44.173739432225105" lon="11.051835842222857"><ele>397.0</ele><time>2026-05-02T06:06:06Z</time></trkpt><trkpt lat="44.17360319681738" lon="11.051915809210575"><ele>392.0</ele><time>2026-05-02T06:06:07Z</time></trkpt><trkpt lat="44.17344904967403" lon="11.051984461415717"><ele>387.0</ele><time>2026-05-02T06:06:08Z</time></trkpt><trkpt lat="44.173296690224554" lon="11.052023433117558"><ele>384.20000000000005</ele><time>2026-05-02T06:06:09Z</time></trkpt><trkpt lat="44.17316572242737" lon="11.052041022500159"><ele>381.4</ele><time>2026-05-02T06:06:10Z</time></trkpt><trkpt lat="44.173059923286445" lon="11.052068517566914"><ele>378.6</ele><time>2026-05-02T06:06:11Z</time></trkpt><trkpt lat="44.17296401188692" lon="11.052072067073636"><ele>375.79999999999995</ele><time>2026-05-02T06:06:12Z</time></trkpt><trkpt lat="44.17288941868551" lon="11.052066467328375"><ele>373.0</ele><time>2026-05-02T06:06:13Z</time></trkpt><trkpt lat="44.17283099763483" lon="11.05210288968293"><ele>373.0</ele><time>2026-05-02T06:06:14Z</time></trkpt><trkpt lat="44.17278080197272" lon="11.05216295036959"><ele>373.0</ele><time>2026-05-02T06:06:16Z</time></trkpt><trkpt lat="44.17280389740208" lon="11.052312442398229"><ele>373.0</ele><time>2026-05-02T06:06:18Z</time></trkpt><trkpt lat="44.17286986684711" lon="11.052399564049804"><ele>373.0</ele><time>2026-05-02T06:06:19Z</time></trkpt><trkpt lat="44.17298116215083" lon="11.052452000732975"><ele>373.0</ele><time>2026-05-02T06:06:20Z</time></trkpt><trkpt lat="44.173134790753956" lon="11.052486497571822"><ele>374.3333333333333</ele><time>2026-05-02T06:06:21Z</time></trkpt><trkpt lat="44.17329894142357" lon="11.052499619215869"><ele>375.6666666666667</ele><time>2026-05-02T06:06:22Z</time></trkpt><trkpt lat="44.173464358559755" lon="11.052492070693054"><ele>377.0</ele><time>2026-05-02T06:06:23Z</time></trkpt><trkpt lat="44.17365587473119" lon="11.052491553610457"><ele>377.0</ele><time>2026-05-02T06:06:24Z</time></trkpt><trkpt lat="44.17387250968037" lon="11.052521027569384"><ele>377.0</ele><time>2026-05-02T06:06:25Z</time></trkpt><trkpt lat="44.17405463834104" lon="11.05247546372868"><ele>377.0</ele><time>2026-05-02T06:06:26Z</time></trkpt><trkpt lat="44.174224206541" lon="11.052451834299955"><ele>376.6666666666667</ele><time>2026-05-02T06:06:27Z</time></trkpt><trkpt lat="44.17437018213259" lon="11.05247315402772"><ele>376.3333333333333</ele><time>2026-05-02T06:06:28Z</time></trkpt><trkpt lat="44.17449569993776" lon="11.052612639394482"><ele>376.0</ele><time>2026-05-02T06:06:29Z</time></trkpt><trkpt lat="44.17465610583825" lon="11.052738397172739"><ele>376.0</ele><time>2026-05-02T06:06:30Z</time></trkpt><trkpt lat="44.17480075163111" lon="11.052861950788326"><ele>376.0</ele><time>2026-05-02T06:06:31Z</time></trkpt><trkpt lat="44.17497084053959" lon="11.052917574937716"><ele>376.0</ele><time>2026-05-02T06:06:32Z</time></trkpt><trkpt lat="44.175150572390855" lon="11.052924841394695"><ele>377.66666666666663</ele><time>2026-05-02T06:06:33Z</time></trkpt><trkpt lat="44.17533029114545" lon="11.052931064807725"><ele>379.3333333333333</ele><time>2026-05-02T06:06:34Z</time></trkpt><trkpt lat="44.17550116797082" lon="11.052968723657262"><ele>381.0</ele><time>2026-05-02T06:06:35Z</time></trkpt><trkpt lat="44.17565302511242" lon="11.053070422229323"><ele>383.33333333333337</ele><time>2026-05-02T06:06:36Z</time></trkpt><trkpt lat="44.175797649985036" lon="11.053148808867666"><ele>385.6666666666667</ele><time>2026-05-02T06:06:37Z</time></trkpt><trkpt lat="44.17594451364228" lon="11.053192156552848"><ele>388.0</ele><time>2026-05-02T06:06:38Z</time></trkpt><trkpt lat="44.17611067871274" lon="11.053171684011424"><ele>388.0</ele><time>2026-05-02T06:06:39Z</time></trkpt><trkpt lat="44.176262823216874" lon="11.053200478759655"><ele>388.0</ele><time>2026-05-02T06:06:40Z</time></trkpt><trkpt lat="44.17640529542611" lon="11.053362330976602"><ele>388.0</ele><time>2026-05-02T06:06:41Z</time></trkpt><trkpt lat="44.17656610819803" lon="11.053457170744704"><ele>380.33333333333337</ele><time>2026-05-02T06:06:42Z</time></trkpt><trkpt lat="44.176725888949754" lon="11.05354065849201"><ele>372.6666666666667</ele><time>2026-05-02T06:06:43Z</time></trkpt><trkpt lat="44.17688968081465" lon="11.053582607435363"><ele>365.0</ele><time>2026-05-02T06:06:44Z</time></trkpt><trkpt lat="44.17704143976622" lon="11.053671414898398"><ele>365.0</ele><time>2026-05-02T06:06:45Z</time></trkpt><trkpt lat="44.17717901944253" lon="11.053697888451765"><ele>365.0</ele><time>2026-05-02T06:06:46Z</time></trkpt><trkpt lat="44.17730440062774" lon="11.053673080283028"><ele>365.0</ele><time>2026-05-02T06:06:47Z</time></trkpt><trkpt lat="44.17745454185148" lon="11.053588460050186"><ele>365.0</ele><time>2026-05-02T06:06:48Z</time></trkpt><trkpt lat="44.1775963395979" lon="11.053525375846508"><ele>365.75</ele><time>2026-05-02T06:06:49Z</time></trkpt><trkpt lat="44.177733790025435" lon="11.053557062505362"><ele>366.5</ele><time>2026-05-02T06:06:50Z</time></trkpt><trkpt lat="44.17783431705332" lon="11.053642999326224"><ele>367.25</ele><time>2026-05-02T06:06:51Z</time></trkpt><trkpt lat="44.177908570836685" lon="11.053752604124599"><ele>368.0</ele><time>2026-05-02T06:06:52Z</time></trkpt><trkpt lat="44.1779825260706" lon="11.053864086059813"><ele>368.0</ele><time>2026-05-02T06:06:53Z</time></trkpt><trkpt lat="44.178040271539686" lon="11.05397733421086"><ele>368.0</ele><time>2026-05-02T06:06:54Z</time></trkpt><trkpt lat="44.178039926237005" lon="11.054129173841233"><ele>368.0</ele><time>2026-05-02T06:06:55Z</time></trkpt><trkpt lat="44.17796567616785" lon="11.05428600699262"><ele>368.0</ele><time>2026-05-02T06:06:56Z</time></trkpt><trkpt lat="44.1779184690101" lon="11.054444317480245"><ele>364.5</ele><time>2026-05-02T06:06:57Z</time></trkpt><trkpt lat="44.177918620326494" lon="11.054608462009176"><ele>361.0</ele><time>2026-05-02T06:06:58Z</time></trkpt><trkpt lat="44.177989529154544" lon="11.05478761858477"><ele>357.5</ele><time>2026-05-02T06:06:59Z</time></trkpt><trkpt lat="44.17810034201961" lon="11.054939190204944"><ele>354.0</ele><time>2026-05-02T06:07:00Z</time></trkpt><trkpt lat="44.17821238366425" lon="11.055060834224266"><ele>354.0</ele><time>2026-05-02T06:07:01Z</time></trkpt><trkpt lat="44.17832106464547" lon="11.055205165846516"><ele>354.0</ele><time>2026-05-02T06:07:02Z</time></trkpt><trkpt lat="44.17842275270396" lon="11.055354475380986"><ele>354.0</ele><time>2026-05-02T06:07:03Z</time></trkpt><trkpt lat="44.17853367542431" lon="11.055521700946292"><ele>354.0</ele><time>2026-05-02T06:07:04Z</time></trkpt><trkpt lat="44.17865146673125" lon="11.055681661560282"><ele>354.0</ele><time>2026-05-02T06:07:05Z</time></trkpt><trkpt lat="44.17875596394151" lon="11.055849834900215"><ele>354.0</ele><time>2026-05-02T06:07:06Z</time></trkpt><trkpt lat="44.17887117174099" lon="11.055990524084589"><ele>351.6666666666667</ele><time>2026-05-02T06:07:07Z</time></trkpt><trkpt lat="44.178947282170284" lon="11.056179781149208"><ele>349.33333333333337</ele><time>2026-05-02T06:07:08Z</time></trkpt><trkpt lat="44.17894930827078" lon="11.056383112428612"><ele>347.0</ele><time>2026-05-02T06:07:09Z</time></trkpt><trkpt lat="44.1789764168485" lon="11.056590266390389"><ele>348.6666666666667</ele><time>2026-05-02T06:07:10Z</time></trkpt><trkpt lat="44.17905544417653" lon="11.056774236725476"><ele>350.3333333333333</ele><time>2026-05-02T06:07:11Z</time></trkpt><trkpt lat="44.17916592326876" lon="11.056959292533934"><ele>352.0</ele><time>2026-05-02T06:07:12Z</time></trkpt><trkpt lat="44.17929267806834" lon="11.057125190415134"><ele>352.0</ele><time>2026-05-02T06:07:13Z</time></trkpt><trkpt lat="44.17942366379469" lon="11.057311506656095"><ele>352.0</ele><time>2026-05-02T06:07:14Z</time></trkpt><trkpt lat="44.1795397534426" lon="11.057476415906475"><ele>352.0</ele><time>2026-05-02T06:07:15Z</time></trkpt><trkpt lat="44.179660078445686" lon="11.057602889470786"><ele>350.3333333333333</ele><time>2026-05-02T06:07:16Z</time></trkpt><trkpt lat="44.17980545340742" lon="11.057692769989366"><ele>348.6666666666667</ele><time>2026-05-02T06:07:17Z</time></trkpt><trkpt lat="44.1799647641113" lon="11.057716987330899"><ele>347.0</ele><time>2026-05-02T06:07:18Z</time></trkpt><trkpt lat="44.180116920393566" lon="11.057684066954762"><ele>347.0</ele><time>2026-05-02T06:07:19Z</time></trkpt><trkpt lat="44.180266137149616" lon="11.057607645705096"><ele>347.0</ele><time>2026-05-02T06:07:20Z</time></trkpt><trkpt lat="44.18040710235671" lon="11.057491526321293"><ele>347.0</ele><time>2026-05-02T06:07:21Z</time></trkpt><trkpt lat="44.18054672317386" lon="11.057363272737867"><ele>348.6666666666667</ele><time>2026-05-02T06:07:22Z</time></trkpt><trkpt lat="44.18069252790289" lon="11.057262217758264"><ele>350.3333333333333</ele><time>2026-05-02T06:07:23Z</time></trkpt><trkpt lat="44.18084748793591" lon="11.057178995469178"><ele>352.0</ele><time>2026-05-02T06:07:24Z</time></trkpt><trkpt lat="44.18099195290852" lon="11.057114947626857"><ele>352.0</ele><time>2026-05-02T06:07:25Z</time></trkpt><trkpt lat="44.18114531847454" lon="11.057119450135946"><ele>352.0</ele><time>2026-05-02T06:07:26Z</time></trkpt><trkpt lat="44.18130824100456" lon="11.057118914017112"><ele>352.0</ele><time>2026-05-02T06:07:27Z</time></trkpt><trkpt lat="44.18147641509976" lon="11.057109598785276"><ele>349.66666666666663</ele><time>2026-05-02T06:07:28Z</time></trkpt><trkpt lat="44.18163852713497" lon="11.057131373341917"><ele>347.3333333333333</ele><time>2026-05-02T06:07:29Z</time></trkpt><trkpt lat="44.18178883104186" lon="11.057132351457575"><ele>345.0</ele><time>2026-05-02T06:07:30Z</time></trkpt><trkpt lat="44.18192025707223" lon="11.057067021167661"><ele>345.0</ele><time>2026-05-02T06:07:31Z</time></trkpt><trkpt lat="44.182039982006756" lon="11.05693303569142"><ele>345.0</ele><time>2026-05-02T06:07:32Z</time></trkpt><trkpt lat="44.18214515310224" lon="11.056767874863146"><ele>345.0</ele><time>2026-05-02T06:07:33Z</time></trkpt><trkpt lat="44.182260576321184" lon="11.056594330935209"><ele>343.75</ele><time>2026-05-02T06:07:34Z</time></trkpt><trkpt lat="44.18240528415047" lon="11.056501316689102"><ele>342.5</ele><time>2026-05-02T06:07:35Z</time></trkpt><trkpt lat="44.182518023213404" lon="11.056379142125905"><ele>341.25</ele><time>2026-05-02T06:07:36Z</time></trkpt><trkpt lat="44.182611439005235" lon="11.05624368458209"><ele>340.0</ele><time>2026-05-02T06:07:37Z</time></trkpt><trkpt lat="44.18265438971146" lon="11.056062495979146"><ele>340.0</ele><time>2026-05-02T06:07:38Z</time></trkpt><trkpt lat="44.18267018625336" lon="11.055875598387136"><ele>340.0</ele><time>2026-05-02T06:07:39Z</time></trkpt><trkpt lat="44.18274541331195" lon="11.055756310382419"><ele>340.0</ele><time>2026-05-02T06:07:40Z</time></trkpt><trkpt lat="44.182854429933414" lon="11.055709678537575"><ele>340.0</ele><time>2026-05-02T06:07:41Z</time></trkpt><trkpt lat="44.18296315284621" lon="11.055721115683243"><ele>340.0</ele><time>2026-05-02T06:07:42Z</time></trkpt><trkpt lat="44.18306105755918" lon="11.055806129286978"><ele>340.0</ele><time>2026-05-02T06:07:43Z</time></trkpt><trkpt lat="44.18318580994759" lon="11.055895444140898"><ele>340.0</ele><time>2026-05-02T06:07:44Z</time></trkpt><trkpt lat="44.1833152778015" lon="11.055930833228006"><ele>340.0</ele><time>2026-05-02T06:07:45Z</time></trkpt><trkpt lat="44.183482315314095" lon="11.055931592760851"><ele>339.0</ele><time>2026-05-02T06:07:46Z</time></trkpt><trkpt lat="44.183634456063196" lon="11.055902515829018"><ele>338.0</ele><time>2026-05-02T06:07:47Z</time></trkpt><trkpt lat="44.18376168461128" lon="11.055971411528997"><ele>337.0</ele><time>2026-05-02T06:07:48Z</time></trkpt><trkpt lat="44.183865093644755" lon="11.056099833819811"><ele>336.0</ele><time>2026-05-02T06:07:49Z</time></trkpt><trkpt lat="44.183973821462985" lon="11.05616102946998"><ele>335.5</ele><time>2026-05-02T06:07:50Z</time></trkpt><trkpt lat="44.18408699615551" lon="11.056180530811664"><ele>335.0</ele><time>2026-05-02T06:07:51Z</time></trkpt><trkpt lat="44.18420424547778" lon="11.056109133998755"><ele>334.5</ele><time>2026-05-02T06:07:52Z</time></trkpt><trkpt lat="44.18431135625292" lon="11.055982740806323"><ele>334.0</ele><time>2026-05-02T06:07:53Z</time></trkpt><trkpt lat="44.18440715158816" lon="11.055851283627781"><ele>334.0</ele><time>2026-05-02T06:07:54Z</time></trkpt><trkpt lat="44.18451820589505" lon="11.055778497914472"><ele>334.0</ele><time>2026-05-02T06:07:55Z</time></trkpt><trkpt lat="44.18463474720077" lon="11.055836949731242"><ele>334.0</ele><time>2026-05-02T06:07:56Z</time></trkpt><trkpt lat="44.18472841538704" lon="11.055949750523805"><ele>334.0</ele><time>2026-05-02T06:07:57Z</time></trkpt><trkpt lat="44.18482564918798" lon="11.056108645201734"><ele>334.0</ele><time>2026-05-02T06:07:58Z</time></trkpt><trkpt lat="44.18492969389752" lon="11.056240816922127"><ele>334.0</ele><time>2026-05-02T06:07:59Z</time></trkpt><trkpt lat="44.185049509360056" lon="11.056306806324756"><ele>334.0</ele><time>2026-05-02T06:08:00Z</time></trkpt><trkpt lat="44.18519409282966" lon="11.056306095408349"><ele>334.0</ele><time>2026-05-02T06:08:01Z</time></trkpt><trkpt lat="44.18534127858301" lon="11.056246466036272"><ele>334.0</ele><time>2026-05-02T06:08:02Z</time></trkpt><trkpt lat="44.18549056708398" lon="11.05615394092784"><ele>334.0</ele><time>2026-05-02T06:08:03Z</time></trkpt><trkpt lat="44.18567495788529" lon="11.056057026318397"><ele>334.0</ele><time>2026-05-02T06:08:04Z</time></trkpt><trkpt lat="44.18585079775274" lon="11.056007743507822"><ele>332.66666666666663</ele><time>2026-05-02T06:08:05Z</time></trkpt><trkpt lat="44.1860109960597" lon="11.05605727943553"><ele>331.3333333333333</ele><time>2026-05-02T06:08:06Z</time></trkpt><trkpt lat="44.18616636826085" lon="11.056099630191602"><ele>330.0</ele><time>2026-05-02T06:08:07Z</time></trkpt><trkpt lat="44.18632608977517" lon="11.05614524437377"><ele>330.0</ele><time>2026-05-02T06:08:08Z</time></trkpt><trkpt lat="44.18648680475265" lon="11.056188059424738"><ele>330.0</ele><time>2026-05-02T06:08:09Z</time></trkpt><trkpt lat="44.18664703510106" lon="11.056219849021812"><ele>330.0</ele><time>2026-05-02T06:08:10Z</time></trkpt><trkpt lat="44.18680663084326" lon="11.056265981203163"><ele>328.6666666666667</ele><time>2026-05-02T06:08:11Z</time></trkpt><trkpt lat="44.18697255403782" lon="11.056299197472724"><ele>327.33333333333337</ele><time>2026-05-02T06:08:12Z</time></trkpt><trkpt lat="44.187130224089074" lon="11.056273442582203"><ele>326.0</ele><time>2026-05-02T06:08:13Z</time></trkpt><trkpt lat="44.18728716766855" lon="11.056183033197406"><ele>323.0</ele><time>2026-05-02T06:08:14Z</time></trkpt><trkpt lat="44.187424229112125" lon="11.056051721588148"><ele>320.0</ele><time>2026-05-02T06:08:15Z</time></trkpt><trkpt lat="44.18756531727805" lon="11.055910670786862"><ele>317.0</ele><time>2026-05-02T06:08:16Z</time></trkpt><trkpt lat="44.18770610517593" lon="11.05579090815638"><ele>319.6666666666667</ele><time>2026-05-02T06:08:17Z</time></trkpt><trkpt lat="44.1878766636937" lon="11.055742432943577"><ele>322.3333333333333</ele><time>2026-05-02T06:08:18Z</time></trkpt><trkpt lat="44.188047028488285" lon="11.055689052347171"><ele>325.0</ele><time>2026-05-02T06:08:19Z</time></trkpt><trkpt lat="44.18821643477291" lon="11.055622745813846"><ele>325.0</ele><time>2026-05-02T06:08:20Z</time></trkpt><trkpt lat="44.188386368343615" lon="11.05556806525221"><ele>325.0</ele><time>2026-05-02T06:08:21Z</time></trkpt><trkpt lat="44.188554239931314" lon="11.055509983494145"><ele>325.0</ele><time>2026-05-02T06:08:22Z</time></trkpt><trkpt lat="44.18872015198408" lon="11.055508437872032"><ele>325.0</ele><time>2026-05-02T06:08:23Z</time></trkpt><trkpt lat="44.18885880987163" lon="11.055565717434767"><ele>325.0</ele><time>2026-05-02T06:08:24Z</time></trkpt><trkpt lat="44.18900882134379" lon="11.055653744086232"><ele>325.0</ele><time>2026-05-02T06:08:25Z</time></trkpt><trkpt lat="44.18916486340605" lon="11.055724976758736"><ele>319.66666666666663</ele><time>2026-05-02T06:08:26Z</time></trkpt><trkpt lat="44.18929684977692" lon="11.055810318299987"><ele>314.3333333333333</ele><time>2026-05-02T06:08:27Z</time></trkpt><trkpt lat="44.18943990791008" lon="11.055902059286755"><ele>309.0</ele><time>2026-05-02T06:08:28Z</time></trkpt><trkpt lat="44.18958508000597" lon="11.055981290578266"><ele>309.0</ele><time>2026-05-02T06:08:29Z</time></trkpt><trkpt lat="44.189753155902764" lon="11.056014785321693"><ele>309.0</ele><time>2026-05-02T06:08:30Z</time></trkpt><trkpt lat="44.18992895495523" lon="11.055988813515107"><ele>309.0</ele><time>2026-05-02T06:08:31Z</time></trkpt><trkpt lat="44.19010988949465" lon="11.055938684329666"><ele>309.6666666666667</ele><time>2026-05-02T06:08:32Z</time></trkpt><trkpt lat="44.19029910883911" lon="11.055881350788633"><ele>310.33333333333337</ele><time>2026-05-02T06:08:33Z</time></trkpt><trkpt lat="44.19047466357065" lon="11.055790834769276"><ele>311.0</ele><time>2026-05-02T06:08:34Z</time></trkpt><trkpt lat="44.19063292725521" lon="11.05566540465387"><ele>311.33333333333337</ele><time>2026-05-02T06:08:35Z</time></trkpt><trkpt lat="44.19075972788378" lon="11.055509080653627"><ele>311.6666666666667</ele><time>2026-05-02T06:08:36Z</time></trkpt><trkpt lat="44.19087063273858" lon="11.055301060149528"><ele>312.0</ele><time>2026-05-02T06:08:37Z</time></trkpt><trkpt lat="44.19096321422864" lon="11.055068933663405"><ele>315.0</ele><time>2026-05-02T06:08:38Z</time></trkpt><trkpt lat="44.19106450872372" lon="11.054853298229833"><ele>318.0</ele><time>2026-05-02T06:08:39Z</time></trkpt><trkpt lat="44.19115507121881" lon="11.054660992259508"><ele>321.0</ele><time>2026-05-02T06:08:40Z</time></trkpt><trkpt lat="44.19125814699659" lon="11.054500025723442"><ele>321.0</ele><time>2026-05-02T06:08:41Z</time></trkpt><trkpt lat="44.19138833657428" lon="11.05437310109036"><ele>321.0</ele><time>2026-05-02T06:08:42Z</time></trkpt><trkpt lat="44.19153745855407" lon="11.054318452197876"><ele>321.0</ele><time>2026-05-02T06:08:43Z</time></trkpt><trkpt lat="44.191695667837905" lon="11.05428950567119"><ele>318.0</ele><time>2026-05-02T06:08:44Z</time></trkpt><trkpt lat="44.19185838182466" lon="11.054360428599468"><ele>315.0</ele><time>2026-05-02T06:08:45Z</time></trkpt><trkpt lat="44.19200761488683" lon="11.054435331436283"><ele>312.0</ele><time>2026-05-02T06:08:46Z</time></trkpt><trkpt lat="44.19216143535574" lon="11.054441595221682"><ele>312.0</ele><time>2026-05-02T06:08:47Z</time></trkpt><trkpt lat="44.192315858007404" lon="11.054352258548262"><ele>312.0</ele><time>2026-05-02T06:08:48Z</time></trkpt><trkpt lat="44.192462646531254" lon="11.054190403861993"><ele>312.0</ele><time>2026-05-02T06:08:49Z</time></trkpt><trkpt lat="44.1926349449939" lon="11.054042317611177"><ele>310.6666666666667</ele><time>2026-05-02T06:08:50Z</time></trkpt><trkpt lat="44.192825203311614" lon="11.053926089537505"><ele>309.33333333333337</ele><time>2026-05-02T06:08:51Z</time></trkpt><trkpt lat="44.19304265359248" lon="11.053816327707503"><ele>308.0</ele><time>2026-05-02T06:08:52Z</time></trkpt><trkpt lat="44.193259420621175" lon="11.053689000347012"><ele>308.0</ele><time>2026-05-02T06:08:53Z</time></trkpt><trkpt lat="44.19347555151084" lon="11.053554905075027"><ele>308.0</ele><time>2026-05-02T06:08:54Z</time></trkpt><trkpt lat="44.19368454133236" lon="11.053412595594725"><ele>309.5</ele><time>2026-05-02T06:08:55Z</time></trkpt><trkpt lat="44.19389146994839" lon="11.053284323545107"><ele>311.0</ele><time>2026-05-02T06:08:56Z</time></trkpt><trkpt lat="44.194124333303805" lon="11.05321622923445"><ele>311.0</ele><time>2026-05-02T06:08:57Z</time></trkpt><trkpt lat="44.19435405593594" lon="11.053132216738769"><ele>311.0</ele><time>2026-05-02T06:08:58Z</time></trkpt><trkpt lat="44.19455389788956" lon="11.053079010496829"><ele>311.0</ele><time>2026-05-02T06:08:59Z</time></trkpt><trkpt lat="44.194754270887906" lon="11.05307884921121"><ele>309.33333333333337</ele><time>2026-05-02T06:09:00Z</time></trkpt><trkpt lat="44.19494699632284" lon="11.053099994066468"><ele>307.6666666666667</ele><time>2026-05-02T06:09:01Z</time></trkpt><trkpt lat="44.19513049121672" lon="11.053122438295466"><ele>306.0</ele><time>2026-05-02T06:09:02Z</time></trkpt><trkpt lat="44.19531065713758" lon="11.053149224556066"><ele>306.0</ele><time>2026-05-02T06:09:03Z</time></trkpt><trkpt lat="44.19548989777101" lon="11.053171733849986"><ele>306.0</ele><time>2026-05-02T06:09:04Z</time></trkpt><trkpt lat="44.1956695165194" lon="11.053168794047577"><ele>306.0</ele><time>2026-05-02T06:09:05Z</time></trkpt><trkpt lat="44.195816302272064" lon="11.05314908571617"><ele>307.0</ele><time>2026-05-02T06:09:06Z</time></trkpt><trkpt lat="44.19597799431583" lon="11.053045054570724"><ele>308.0</ele><time>2026-05-02T06:09:07Z</time></trkpt><trkpt lat="44.19613776426525" lon="11.052922848446748"><ele>309.0</ele><time>2026-05-02T06:09:08Z</time></trkpt><trkpt lat="44.19632651782525" lon="11.052911583519068"><ele>308.0</ele><time>2026-05-02T06:09:09Z</time></trkpt><trkpt lat="44.19653140706046" lon="11.052908028839186"><ele>307.0</ele><time>2026-05-02T06:09:10Z</time></trkpt><trkpt lat="44.19673470590888" lon="11.052891557261756"><ele>306.0</ele><time>2026-05-02T06:09:11Z</time></trkpt><trkpt lat="44.19692635441128" lon="11.052791286201115"><ele>306.0</ele><time>2026-05-02T06:09:12Z</time></trkpt><trkpt lat="44.19709603632765" lon="11.052710791348163"><ele>306.0</ele><time>2026-05-02T06:09:13Z</time></trkpt><trkpt lat="44.1972663667268" lon="11.052713239818054"><ele>306.0</ele><time>2026-05-02T06:09:14Z</time></trkpt><trkpt lat="44.19745359833326" lon="11.05271588704103"><ele>302.3333333333333</ele><time>2026-05-02T06:09:15Z</time></trkpt><trkpt lat="44.19763661820897" lon="11.052721570918157"><ele>298.66666666666663</ele><time>2026-05-02T06:09:16Z</time></trkpt><trkpt lat="44.19782274174965" lon="11.052715332607448"><ele>295.0</ele><time>2026-05-02T06:09:17Z</time></trkpt><trkpt lat="44.19801286061683" lon="11.05270877744576"><ele>295.66666666666663</ele><time>2026-05-02T06:09:18Z</time></trkpt><trkpt lat="44.19822126170202" lon="11.052724538885405"><ele>296.3333333333333</ele><time>2026-05-02T06:09:19Z</time></trkpt><trkpt lat="44.198426541000245" lon="11.052720204601268"><ele>297.0</ele><time>2026-05-02T06:09:20Z</time></trkpt><trkpt lat="44.198623989190544" lon="11.052716035656823"><ele>297.0</ele><time>2026-05-02T06:09:21Z</time></trkpt><trkpt lat="44.1988265745673" lon="11.052690293654264"><ele>297.0</ele><time>2026-05-02T06:09:22Z</time></trkpt><trkpt lat="44.19902480437572" lon="11.05269767158168"><ele>297.0</ele><time>2026-05-02T06:09:23Z</time></trkpt><trkpt lat="44.19921565500087" lon="11.052760889484082"><ele>296.3333333333333</ele><time>2026-05-02T06:09:24Z</time></trkpt><trkpt lat="44.199395289702714" lon="11.052851118104162"><ele>295.66666666666663</ele><time>2026-05-02T06:09:25Z</time></trkpt><trkpt lat="44.199576629362205" lon="11.052959652569946"><ele>295.0</ele><time>2026-05-02T06:09:26Z</time></trkpt><trkpt lat="44.19976132699087" lon="11.053058582302713"><ele>293.66666666666663</ele><time>2026-05-02T06:09:27Z</time></trkpt><trkpt lat="44.19994049602272" lon="11.05314941573416"><ele>292.3333333333333</ele><time>2026-05-02T06:09:28Z</time></trkpt><trkpt lat="44.20012576527785" lon="11.053210882933843"><ele>291.0</ele><time>2026-05-02T06:09:29Z</time></trkpt><trkpt lat="44.20030933216161" lon="11.053253124859511"><ele>289.0</ele><time>2026-05-02T06:09:30Z</time></trkpt><trkpt lat="44.20050956743726" lon="11.053289162806172"><ele>287.0</ele><time>2026-05-02T06:09:31Z</time></trkpt><trkpt lat="44.200710995839756" lon="11.053322029757418"><ele>285.0</ele><time>2026-05-02T06:09:32Z</time></trkpt><trkpt lat="44.200901535923926" lon="11.053380310866828"><ele>285.0</ele><time>2026-05-02T06:09:33Z</time></trkpt><trkpt lat="44.20108842522938" lon="11.053421706946523"><ele>285.0</ele><time>2026-05-02T06:09:34Z</time></trkpt><trkpt lat="44.201292393638916" lon="11.053470742890788"><ele>285.0</ele><time>2026-05-02T06:09:35Z</time></trkpt><trkpt lat="44.20149481020015" lon="11.053549755810145"><ele>287.6666666666667</ele><time>2026-05-02T06:09:36Z</time></trkpt><trkpt lat="44.201680348807685" lon="11.053688699757558"><ele>290.33333333333337</ele><time>2026-05-02T06:09:37Z</time></trkpt><trkpt lat="44.201862964449695" lon="11.053845873252852"><ele>293.0</ele><time>2026-05-02T06:09:38Z</time></trkpt><trkpt lat="44.20205028605975" lon="11.053954283533395"><ele>293.0</ele><time>2026-05-02T06:09:39Z</time></trkpt><trkpt lat="44.20224221032288" lon="11.054066737923906"><ele>293.0</ele><time>2026-05-02T06:09:40Z</time></trkpt><trkpt lat="44.20241840723135" lon="11.054184391676646"><ele>293.0</ele><time>2026-05-02T06:09:41Z</time></trkpt><trkpt lat="44.202597624123726" lon="11.054289922338215"><ele>291.0</ele><time>2026-05-02T06:09:42Z</time></trkpt><trkpt lat="44.20277027449557" lon="11.054407494304922"><ele>289.0</ele><time>2026-05-02T06:09:43Z</time></trkpt><trkpt lat="44.202924120477924" lon="11.054545844718065"><ele>287.0</ele><time>2026-05-02T06:09:44Z</time></trkpt><trkpt lat="44.203069686316056" lon="11.054717995261468"><ele>287.33333333333337</ele><time>2026-05-02T06:09:45Z</time></trkpt><trkpt lat="44.20321992470743" lon="11.054884107097914"><ele>287.6666666666667</ele><time>2026-05-02T06:09:46Z</time></trkpt><trkpt lat="44.20336766220547" lon="11.05502393665905"><ele>288.0</ele><time>2026-05-02T06:09:47Z</time></trkpt><trkpt lat="44.2035020186334" lon="11.055196971882992"><ele>285.6666666666667</ele><time>2026-05-02T06:09:48Z</time></trkpt><trkpt lat="44.20363967986335" lon="11.055392138111944"><ele>283.33333333333337</ele><time>2026-05-02T06:09:49Z</time></trkpt><trkpt lat="44.203745111004594" lon="11.055590680253793"><ele>281.0</ele><time>2026-05-02T06:09:50Z</time></trkpt><trkpt lat="44.20382558406024" lon="11.055835878732742"><ele>280.0</ele><time>2026-05-02T06:09:51Z</time></trkpt><trkpt lat="44.203932133751806" lon="11.056039987344063"><ele>279.0</ele><time>2026-05-02T06:09:52Z</time></trkpt><trkpt lat="44.20399476444381" lon="11.05628272797993"><ele>278.0</ele><time>2026-05-02T06:09:53Z</time></trkpt><trkpt lat="44.20405016955157" lon="11.056503446624518"><ele>279.33333333333337</ele><time>2026-05-02T06:09:54Z</time></trkpt><trkpt lat="44.20413291999228" lon="11.056714465077967"><ele>280.6666666666667</ele><time>2026-05-02T06:09:55Z</time></trkpt><trkpt lat="44.204201831949504" lon="11.05690657045718"><ele>282.0</ele><time>2026-05-02T06:09:56Z</time></trkpt><trkpt lat="44.204262243653034" lon="11.057084104997339"><ele>282.0</ele><time>2026-05-02T06:09:57Z</time></trkpt><trkpt lat="44.204306518490334" lon="11.05722082015513"><ele>282.0</ele><time>2026-05-02T06:09:58Z</time></trkpt><trkpt lat="44.20434534385565" lon="11.057328361611614"><ele>282.0</ele><time>2026-05-02T06:09:59Z</time></trkpt><trkpt lat="44.20437495136747" lon="11.05740833460523"><ele>282.0</ele><time>2026-05-02T06:10:00Z</time></trkpt><trkpt lat="44.20441762493641" lon="11.057510678364954"><ele>282.0</ele><time>2026-05-02T06:10:02Z</time></trkpt><trkpt lat="44.204471127556744" lon="11.057577145337522"><ele>282.0</ele><time>2026-05-02T06:10:04Z</time></trkpt><trkpt lat="44.2045526002795" lon="11.057657764336302"><ele>282.6</ele><time>2026-05-02T06:10:06Z</time></trkpt><trkpt lat="44.204642099599525" lon="11.057589090632916"><ele>283.2</ele><time>2026-05-02T06:10:07Z</time></trkpt><trkpt lat="44.20472451678069" lon="11.057559339371393"><ele>283.8</ele><time>2026-05-02T06:10:08Z</time></trkpt><trkpt lat="44.20482330103563" lon="11.057537237149948"><ele>284.4</ele><time>2026-05-02T06:10:09Z</time></trkpt><trkpt lat="44.20493103691122" lon="11.05752048018023"><ele>285.0</ele><time>2026-05-02T06:10:10Z</time></trkpt><trkpt lat="44.20506590792732" lon="11.057521761575677"><ele>285.0</ele><time>2026-05-02T06:10:11Z</time></trkpt><trkpt lat="44.205242994525335" lon="11.057498352557799"><ele>285.0</ele><time>2026-05-02T06:10:12Z</time></trkpt><trkpt lat="44.205446956275914" lon="11.057473241065347"><ele>285.0</ele><time>2026-05-02T06:10:13Z</time></trkpt><trkpt lat="44.205659768965" lon="11.057439902079482"><ele>287.6666666666667</ele><time>2026-05-02T06:10:14Z</time></trkpt><trkpt lat="44.205873112665095" lon="11.057395826705084"><ele>290.33333333333337</ele><time>2026-05-02T06:10:15Z</time></trkpt><trkpt lat="44.20609041136215" lon="11.057338361410698"><ele>293.0</ele><time>2026-05-02T06:10:16Z</time></trkpt><trkpt lat="44.20629942851021" lon="11.057264713968527"><ele>292.6666666666667</ele><time>2026-05-02T06:10:17Z</time></trkpt><trkpt lat="44.20650362581115" lon="11.057187787571817"><ele>292.3333333333333</ele><time>2026-05-02T06:10:18Z</time></trkpt><trkpt lat="44.20668779460812" lon="11.057143411491685"><ele>292.0</ele><time>2026-05-02T06:10:19Z</time></trkpt><trkpt lat="44.20688970096682" lon="11.057107283644356"><ele>292.0</ele><time>2026-05-02T06:10:20Z</time></trkpt><trkpt lat="44.20708724133603" lon="11.057075300563351"><ele>292.0</ele><time>2026-05-02T06:10:21Z</time></trkpt><trkpt lat="44.20727731288798" lon="11.05705192860502"><ele>292.0</ele><time>2026-05-02T06:10:22Z</time></trkpt><trkpt lat="44.2074557609102" lon="11.057034920896005"><ele>291.0</ele><time>2026-05-02T06:10:23Z</time></trkpt><trkpt lat="44.207623849883284" lon="11.057015660998808"><ele>290.0</ele><time>2026-05-02T06:10:24Z</time></trkpt><trkpt lat="44.207776044939315" lon="11.057041819344052"><ele>289.0</ele><time>2026-05-02T06:10:25Z</time></trkpt><trkpt lat="44.20789592821806" lon="11.057132108330755"><ele>289.0</ele><time>2026-05-02T06:10:26Z</time></trkpt><trkpt lat="44.20798205629853" lon="11.05727082623883"><ele>289.0</ele><time>2026-05-02T06:10:27Z</time></trkpt><trkpt lat="44.20807101826696" lon="11.057466231811864"><ele>289.0</ele><time>2026-05-02T06:10:28Z</time></trkpt><trkpt lat="44.2081693897508" lon="11.057613014698973"><ele>289.0</ele><time>2026-05-02T06:10:29Z</time></trkpt><trkpt lat="44.208302516850104" lon="11.057710269679943"><ele>288.3333333333333</ele><time>2026-05-02T06:10:30Z</time></trkpt><trkpt lat="44.2084557997569" lon="11.057748629642878"><ele>287.6666666666667</ele><time>2026-05-02T06:10:31Z</time></trkpt><trkpt lat="44.20860625812605" lon="11.05772248367871"><ele>287.0</ele><time>2026-05-02T06:10:32Z</time></trkpt><trkpt lat="44.20874760146899" lon="11.057632796261942"><ele>287.0</ele><time>2026-05-02T06:10:33Z</time></trkpt><trkpt lat="44.208880977670205" lon="11.057501741139331"><ele>287.0</ele><time>2026-05-02T06:10:34Z</time></trkpt><trkpt lat="44.209031018399564" lon="11.057421060078386"><ele>287.0</ele><time>2026-05-02T06:10:35Z</time></trkpt><trkpt lat="44.20917070165178" lon="11.057397906065713"><ele>285.33333333333337</ele><time>2026-05-02T06:10:36Z</time></trkpt><trkpt lat="44.20933035608878" lon="11.057411143400383"><ele>283.6666666666667</ele><time>2026-05-02T06:10:37Z</time></trkpt><trkpt lat="44.20947562918412" lon="11.05744806791541"><ele>282.0</ele><time>2026-05-02T06:10:38Z</time></trkpt><trkpt lat="44.209622734067814" lon="11.057500059672495"><ele>282.0</ele><time>2026-05-02T06:10:39Z</time></trkpt><trkpt lat="44.209785588644586" lon="11.05756033396529"><ele>282.0</ele><time>2026-05-02T06:10:40Z</time></trkpt><trkpt lat="44.20994930154014" lon="11.057599635057056"><ele>282.0</ele><time>2026-05-02T06:10:41Z</time></trkpt><trkpt lat="44.210106982040124" lon="11.057663234490972"><ele>283.0</ele><time>2026-05-02T06:10:42Z</time></trkpt><trkpt lat="44.210267227131354" lon="11.057693168178691"><ele>284.0</ele><time>2026-05-02T06:10:43Z</time></trkpt><trkpt lat="44.21042452519358" lon="11.057673051957847"><ele>285.0</ele><time>2026-05-02T06:10:44Z</time></trkpt><trkpt lat="44.21059184549137" lon="11.05762069352555"><ele>285.6666666666667</ele><time>2026-05-02T06:10:45Z</time></trkpt><trkpt lat="44.210747788373276" lon="11.057530870426575"><ele>286.33333333333337</ele><time>2026-05-02T06:10:46Z</time></trkpt><trkpt lat="44.21090986540834" lon="11.057422499967366"><ele>287.0</ele><time>2026-05-02T06:10:47Z</time></trkpt><trkpt lat="44.211077239886286" lon="11.057332520129757"><ele>290.6666666666667</ele><time>2026-05-02T06:10:48Z</time></trkpt><trkpt lat="44.21124109897918" lon="11.057265054188692"><ele>294.3333333333333</ele><time>2026-05-02T06:10:49Z</time></trkpt><trkpt lat="44.21141718141561" lon="11.057239063734672"><ele>298.0</ele><time>2026-05-02T06:10:50Z</time></trkpt><trkpt lat="44.21156526967446" lon="11.057164245115272"><ele>298.0</ele><time>2026-05-02T06:10:51Z</time></trkpt><trkpt lat="44.211709322440356" lon="11.057073887957719"><ele>298.0</ele><time>2026-05-02T06:10:52Z</time></trkpt><trkpt lat="44.21186081956288" lon="11.05704666960375"><ele>298.0</ele><time>2026-05-02T06:10:53Z</time></trkpt><trkpt lat="44.212003100792415" lon="11.057022823772794"><ele>298.0</ele><time>2026-05-02T06:10:54Z</time></trkpt><trkpt lat="44.21212675643583" lon="11.057041066249635"><ele>298.0</ele><time>2026-05-02T06:10:55Z</time></trkpt><trkpt lat="44.2122545695275" lon="11.057073010142705"><ele>298.0</ele><time>2026-05-02T06:10:56Z</time></trkpt><trkpt lat="44.21239016869552" lon="11.057142637941064"><ele>298.0</ele><time>2026-05-02T06:10:57Z</time></trkpt><trkpt lat="44.21253648682208" lon="11.057237442316998"><ele>299.66666666666663</ele><time>2026-05-02T06:10:58Z</time></trkpt><trkpt lat="44.21269893446565" lon="11.05735534156862"><ele>301.3333333333333</ele><time>2026-05-02T06:10:59Z</time></trkpt><trkpt lat="44.21286725043258" lon="11.057471946805531"><ele>303.0</ele><time>2026-05-02T06:11:00Z</time></trkpt><trkpt lat="44.21303297102396" lon="11.057588735816875"><ele>300.3333333333333</ele><time>2026-05-02T06:11:01Z</time></trkpt><trkpt lat="44.213205569096694" lon="11.05771096568872"><ele>297.66666666666663</ele><time>2026-05-02T06:11:02Z</time></trkpt><trkpt lat="44.21333575349795" lon="11.057915978723225"><ele>295.0</ele><time>2026-05-02T06:11:03Z</time></trkpt><trkpt lat="44.213456515324275" lon="11.058120334352024"><ele>291.0</ele><time>2026-05-02T06:11:04Z</time></trkpt><trkpt lat="44.213586420796105" lon="11.058297887397535"><ele>287.0</ele><time>2026-05-02T06:11:05Z</time></trkpt><trkpt lat="44.21371188368451" lon="11.058459649181643"><ele>283.0</ele><time>2026-05-02T06:11:06Z</time></trkpt><trkpt lat="44.2138679417941" lon="11.05855724416532"><ele>286.0</ele><time>2026-05-02T06:11:07Z</time></trkpt><trkpt lat="44.214045084120585" lon="11.058605370360437"><ele>289.0</ele><time>2026-05-02T06:11:08Z</time></trkpt><trkpt lat="44.21422205064469" lon="11.058619164466462"><ele>292.0</ele><time>2026-05-02T06:11:09Z</time></trkpt><trkpt lat="44.21440283523731" lon="11.058667109943322"><ele>292.0</ele><time>2026-05-02T06:11:10Z</time></trkpt><trkpt lat="44.21457998703977" lon="11.05869533998874"><ele>292.0</ele><time>2026-05-02T06:11:11Z</time></trkpt><trkpt lat="44.21474140813858" lon="11.05867290948031"><ele>292.0</ele><time>2026-05-02T06:11:12Z</time></trkpt><trkpt lat="44.21492266124516" lon="11.058612903418208"><ele>292.0</ele><time>2026-05-02T06:11:13Z</time></trkpt><trkpt lat="44.21507377456543" lon="11.058495553919174"><ele>292.0</ele><time>2026-05-02T06:11:14Z</time></trkpt><trkpt lat="44.21522349790585" lon="11.058348242873121"><ele>292.0</ele><time>2026-05-02T06:11:15Z</time></trkpt><trkpt lat="44.21538356657499" lon="11.058264427163426"><ele>293.66666666666663</ele><time>2026-05-02T06:11:16Z</time></trkpt><trkpt lat="44.21555603404061" lon="11.058202749655674"><ele>295.3333333333333</ele><time>2026-05-02T06:11:17Z</time></trkpt><trkpt lat="44.2157243198894" lon="11.058180900705615"><ele>297.0</ele><time>2026-05-02T06:11:18Z</time></trkpt><trkpt lat="44.21589523566287" lon="11.058167345346869"><ele>297.0</ele><time>2026-05-02T06:11:19Z</time></trkpt><trkpt lat="44.2160667057412" lon="11.058138444251743"><ele>297.0</ele><time>2026-05-02T06:11:20Z</time></trkpt><trkpt lat="44.21623722583654" lon="11.05812984863557"><ele>297.0</ele><time>2026-05-02T06:11:21Z</time></trkpt><trkpt lat="44.21638141043492" lon="11.05808556185404"><ele>294.3333333333333</ele><time>2026-05-02T06:11:22Z</time></trkpt><trkpt lat="44.21651490477905" lon="11.057983009366419"><ele>291.66666666666663</ele><time>2026-05-02T06:11:23Z</time></trkpt><trkpt lat="44.21661863360346" lon="11.05782962370022"><ele>289.0</ele><time>2026-05-02T06:11:24Z</time></trkpt><trkpt lat="44.216706356326355" lon="11.057640693968834"><ele>289.0</ele><time>2026-05-02T06:11:25Z</time></trkpt><trkpt lat="44.21678951706773" lon="11.057466945466834"><ele>289.0</ele><time>2026-05-02T06:11:26Z</time></trkpt><trkpt lat="44.21690153502628" lon="11.057314073008303"><ele>289.0</ele><time>2026-05-02T06:11:27Z</time></trkpt><trkpt lat="44.217028247593895" lon="11.05719392197768"><ele>290.66666666666663</ele><time>2026-05-02T06:11:28Z</time></trkpt><trkpt lat="44.21718494682205" lon="11.057147514958073"><ele>292.3333333333333</ele><time>2026-05-02T06:11:29Z</time></trkpt><trkpt lat="44.21732830390437" lon="11.057094345564405"><ele>294.0</ele><time>2026-05-02T06:11:30Z</time></trkpt><trkpt lat="44.21747632862489" lon="11.057044161184896"><ele>294.0</ele><time>2026-05-02T06:11:31Z</time></trkpt><trkpt lat="44.2176253702882" lon="11.056972863380727"><ele>294.0</ele><time>2026-05-02T06:11:32Z</time></trkpt><trkpt lat="44.21777165578008" lon="11.056923374427937"><ele>294.0</ele><time>2026-05-02T06:11:33Z</time></trkpt><trkpt lat="44.217930019074046" lon="11.056906507266785"><ele>294.0</ele><time>2026-05-02T06:11:34Z</time></trkpt><trkpt lat="44.21807380979755" lon="11.056878618205506"><ele>294.0</ele><time>2026-05-02T06:11:35Z</time></trkpt><trkpt lat="44.21821927199163" lon="11.056855032758426"><ele>294.0</ele><time>2026-05-02T06:11:36Z</time></trkpt><trkpt lat="44.21837305147098" lon="11.056832818233564"><ele>294.0</ele><time>2026-05-02T06:11:37Z</time></trkpt><trkpt lat="44.21851118517346" lon="11.056801720535784"><ele>292.0</ele><time>2026-05-02T06:11:38Z</time></trkpt><trkpt lat="44.21867053651996" lon="11.056786152953462"><ele>290.0</ele><time>2026-05-02T06:11:39Z</time></trkpt><trkpt lat="44.21882514573318" lon="11.056764157919645"><ele>288.0</ele><time>2026-05-02T06:11:40Z</time></trkpt><trkpt lat="44.218981731444195" lon="11.056745095868807"><ele>289.0</ele><time>2026-05-02T06:11:41Z</time></trkpt><trkpt lat="44.2191333383817" lon="11.056727591231326"><ele>290.0</ele><time>2026-05-02T06:11:42Z</time></trkpt><trkpt lat="44.219286558683066" lon="11.056712052287482"><ele>291.0</ele><time>2026-05-02T06:11:43Z</time></trkpt><trkpt lat="44.219448824620926" lon="11.056695685318472"><ele>291.0</ele><time>2026-05-02T06:11:44Z</time></trkpt><trkpt lat="44.21961818145596" lon="11.056691790809435"><ele>291.0</ele><time>2026-05-02T06:11:45Z</time></trkpt><trkpt lat="44.21977275397178" lon="11.056724677925637"><ele>291.0</ele><time>2026-05-02T06:11:46Z</time></trkpt><trkpt lat="44.219931906445275" lon="11.056768857294992"><ele>294.0</ele><time>2026-05-02T06:11:47Z</time></trkpt><trkpt lat="44.220102828063894" lon="11.05681667709596"><ele>297.0</ele><time>2026-05-02T06:11:48Z</time></trkpt><trkpt lat="44.22024779618726" lon="11.056886826881195"><ele>300.0</ele><time>2026-05-02T06:11:49Z</time></trkpt><trkpt lat="44.220420038429" lon="11.056948369606488"><ele>300.0</ele><time>2026-05-02T06:11:50Z</time></trkpt><trkpt lat="44.22056811340845" lon="11.057033304194832"><ele>300.0</ele><time>2026-05-02T06:11:51Z</time></trkpt><trkpt lat="44.220713780998395" lon="11.057126665527306"><ele>300.0</ele><time>2026-05-02T06:11:52Z</time></trkpt><trkpt lat="44.22086023153886" lon="11.057216011871361"><ele>297.3333333333333</ele><time>2026-05-02T06:11:53Z</time></trkpt><trkpt lat="44.22101213364001" lon="11.057304126256955"><ele>294.66666666666663</ele><time>2026-05-02T06:11:54Z</time></trkpt><trkpt lat="44.221156020899976" lon="11.057395586902018"><ele>292.0</ele><time>2026-05-02T06:11:55Z</time></trkpt><trkpt lat="44.22128144435149" lon="11.05750792207052"><ele>292.0</ele><time>2026-05-02T06:11:56Z</time></trkpt><trkpt lat="44.221413380974504" lon="11.057654368747027"><ele>292.0</ele><time>2026-05-02T06:11:57Z</time></trkpt><trkpt lat="44.2215535892475" lon="11.057772986081654"><ele>292.0</ele><time>2026-05-02T06:11:58Z</time></trkpt><trkpt lat="44.22168971518409" lon="11.057895085537002"><ele>297.0</ele><time>2026-05-02T06:11:59Z</time></trkpt><trkpt lat="44.22184081766669" lon="11.0579913089378"><ele>302.0</ele><time>2026-05-02T06:12:00Z</time></trkpt><trkpt lat="44.22200893647904" lon="11.058056503004632"><ele>307.0</ele><time>2026-05-02T06:12:01Z</time></trkpt><trkpt lat="44.22216127129156" lon="11.058083471410603"><ele>307.3333333333333</ele><time>2026-05-02T06:12:02Z</time></trkpt><trkpt lat="44.22233078635601" lon="11.058085442862318"><ele>307.6666666666667</ele><time>2026-05-02T06:12:03Z</time></trkpt><trkpt lat="44.22249570022573" lon="11.058064144500392"><ele>308.0</ele><time>2026-05-02T06:12:04Z</time></trkpt><trkpt lat="44.22265573924495" lon="11.058037104701507"><ele>308.0</ele><time>2026-05-02T06:12:04.999Z</time></trkpt><trkpt lat="44.22280761898466" lon="11.05805775499369"><ele>308.0</ele><time>2026-05-02T06:12:05.999Z</time></trkpt><trkpt lat="44.22294871448375" lon="11.058099173561713"><ele>308.0</ele><time>2026-05-02T06:12:06.999Z</time></trkpt><trkpt lat="44.22308725342868" lon="11.058165314336005"><ele>308.0</ele><time>2026-05-02T06:12:07.999Z</time></trkpt><trkpt lat="44.2232141578048" lon="11.05824339027762"><ele>307.25</ele><time>2026-05-02T06:12:08.999Z</time></trkpt><trkpt lat="44.223297028115645" lon="11.0583633306953"><ele>306.5</ele><time>2026-05-02T06:12:10Z</time></trkpt><trkpt lat="44.223335281348504" lon="11.058518285448528"><ele>305.75</ele><time>2026-05-02T06:12:11Z</time></trkpt><trkpt lat="44.2233168662534" lon="11.058684206622644"><ele>305.0</ele><time>2026-05-02T06:12:12Z</time></trkpt><trkpt lat="44.22326025468166" lon="11.058854875689713"><ele>305.0</ele><time>2026-05-02T06:12:13Z</time></trkpt><trkpt lat="44.22317169183908" lon="11.05903960563841"><ele>305.0</ele><time>2026-05-02T06:12:14Z</time></trkpt><trkpt lat="44.22307604667446" lon="11.059212160081637"><ele>305.0</ele><time>2026-05-02T06:12:15Z</time></trkpt><trkpt lat="44.22300649795486" lon="11.059389819776008"><ele>299.75</ele><time>2026-05-02T06:12:16Z</time></trkpt><trkpt lat="44.222976513229355" lon="11.059581707163433"><ele>294.5</ele><time>2026-05-02T06:12:17Z</time></trkpt><trkpt lat="44.222984005411554" lon="11.05976136942268"><ele>289.25</ele><time>2026-05-02T06:12:18Z</time></trkpt><trkpt lat="44.22303723329281" lon="11.05993806582641"><ele>284.0</ele><time>2026-05-02T06:12:19Z</time></trkpt><trkpt lat="44.22313876249165" lon="11.060120758977442"><ele>291.6666666666667</ele><time>2026-05-02T06:12:20Z</time></trkpt><trkpt lat="44.22324640410506" lon="11.060296736496335"><ele>299.3333333333333</ele><time>2026-05-02T06:12:21Z</time></trkpt><trkpt lat="44.22330751789018" lon="11.060488266747935"><ele>307.0</ele><time>2026-05-02T06:12:22Z</time></trkpt><trkpt lat="44.22337043548512" lon="11.060664400659528"><ele>301.75</ele><time>2026-05-02T06:12:23Z</time></trkpt><trkpt lat="44.22343076466622" lon="11.060829651981596"><ele>296.5</ele><time>2026-05-02T06:12:24Z</time></trkpt><trkpt lat="44.22353247869692" lon="11.06094245347275"><ele>291.25</ele><time>2026-05-02T06:12:25Z</time></trkpt><trkpt lat="44.22367299908763" lon="11.060999226397751"><ele>286.0</ele><time>2026-05-02T06:12:26Z</time></trkpt><trkpt lat="44.22381435114425" lon="11.060974682259918"><ele>286.0</ele><time>2026-05-02T06:12:27Z</time></trkpt><trkpt lat="44.223963266790655" lon="11.060865951514398"><ele>286.0</ele><time>2026-05-02T06:12:28Z</time></trkpt><trkpt lat="44.22410535543182" lon="11.060705077707787"><ele>286.0</ele><time>2026-05-02T06:12:29Z</time></trkpt><trkpt lat="44.22424894854261" lon="11.060586686562576"><ele>293.66666666666663</ele><time>2026-05-02T06:12:30Z</time></trkpt><trkpt lat="44.22439440426692" lon="11.060460410691185"><ele>301.3333333333333</ele><time>2026-05-02T06:12:31Z</time></trkpt><trkpt lat="44.224524368868245" lon="11.060346388036104"><ele>309.0</ele><time>2026-05-02T06:12:32Z</time></trkpt><trkpt lat="44.22466190608968" lon="11.060216001496933"><ele>309.0</ele><time>2026-05-02T06:12:33Z</time></trkpt><trkpt lat="44.22477291171859" lon="11.060046533247117"><ele>309.0</ele><time>2026-05-02T06:12:34Z</time></trkpt><trkpt lat="44.22490060456703" lon="11.059868042716259"><ele>309.0</ele><time>2026-05-02T06:12:35Z</time></trkpt><trkpt lat="44.225028788568046" lon="11.059699141458168"><ele>303.3333333333333</ele><time>2026-05-02T06:12:36Z</time></trkpt><trkpt lat="44.225150504319316" lon="11.05947389455752"><ele>297.66666666666663</ele><time>2026-05-02T06:12:37Z</time></trkpt><trkpt lat="44.22529215277874" lon="11.059291337731633"><ele>292.0</ele><time>2026-05-02T06:12:38Z</time></trkpt><trkpt lat="44.22542910889224" lon="11.059130057767934"><ele>291.0</ele><time>2026-05-02T06:12:39Z</time></trkpt><trkpt lat="44.22557271709894" lon="11.059044965648273"><ele>290.0</ele><time>2026-05-02T06:12:40Z</time></trkpt><trkpt lat="44.22574370804118" lon="11.059029251832651"><ele>289.0</ele><time>2026-05-02T06:12:41Z</time></trkpt><trkpt lat="44.22591031764413" lon="11.059055720030853"><ele>289.0</ele><time>2026-05-02T06:12:42Z</time></trkpt><trkpt lat="44.22608288532907" lon="11.059085814807814"><ele>289.0</ele><time>2026-05-02T06:12:43Z</time></trkpt><trkpt lat="44.226254966236546" lon="11.059095826915557"><ele>289.0</ele><time>2026-05-02T06:12:44Z</time></trkpt><trkpt lat="44.226421404688004" lon="11.059118751379557"><ele>285.66666666666663</ele><time>2026-05-02T06:12:45Z</time></trkpt><trkpt lat="44.22659333898903" lon="11.059142422908689"><ele>282.3333333333333</ele><time>2026-05-02T06:12:46Z</time></trkpt><trkpt lat="44.22675974861935" lon="11.059089251255797"><ele>279.0</ele><time>2026-05-02T06:12:47Z</time></trkpt><trkpt lat="44.22690918422508" lon="11.059028094513538"><ele>279.0</ele><time>2026-05-02T06:12:48Z</time></trkpt><trkpt lat="44.22705724503409" lon="11.05892145893742"><ele>279.0</ele><time>2026-05-02T06:12:49Z</time></trkpt><trkpt lat="44.22718851982957" lon="11.05878227663162"><ele>279.0</ele><time>2026-05-02T06:12:50Z</time></trkpt><trkpt lat="44.22730753164276" lon="11.058604564549508"><ele>275.6666666666667</ele><time>2026-05-02T06:12:51Z</time></trkpt><trkpt lat="44.22741339618163" lon="11.058390958150609"><ele>272.33333333333337</ele><time>2026-05-02T06:12:52Z</time></trkpt><trkpt lat="44.22751056467172" lon="11.058133328377007"><ele>269.0</ele><time>2026-05-02T06:12:53Z</time></trkpt><trkpt lat="44.227613728089445" lon="11.057910916988272"><ele>269.0</ele><time>2026-05-02T06:12:54Z</time></trkpt><trkpt lat="44.22770868772451" lon="11.05768093925271"><ele>269.0</ele><time>2026-05-02T06:12:55Z</time></trkpt><trkpt lat="44.22779952631143" lon="11.057459776100389"><ele>269.0</ele><time>2026-05-02T06:12:56Z</time></trkpt><trkpt lat="44.22788425615378" lon="11.05727019983043"><ele>272.6666666666667</ele><time>2026-05-02T06:12:57Z</time></trkpt><trkpt lat="44.22798668689884" lon="11.057109792304908"><ele>276.3333333333333</ele><time>2026-05-02T06:12:58Z</time></trkpt><trkpt lat="44.22811088305678" lon="11.056969283112894"><ele>280.0</ele><time>2026-05-02T06:12:59Z</time></trkpt><trkpt lat="44.22823381879897" lon="11.056835259095926"><ele>277.0</ele><time>2026-05-02T06:13:00Z</time></trkpt><trkpt lat="44.22833736466877" lon="11.056674407297033"><ele>274.0</ele><time>2026-05-02T06:13:01Z</time></trkpt><trkpt lat="44.22847037270893" lon="11.056539911702242"><ele>271.0</ele><time>2026-05-02T06:13:02Z</time></trkpt><trkpt lat="44.22860358147091" lon="11.056417814724341"><ele>271.0</ele><time>2026-05-02T06:13:03Z</time></trkpt><trkpt lat="44.228738712571555" lon="11.056342821054859"><ele>271.0</ele><time>2026-05-02T06:13:04Z</time></trkpt><trkpt lat="44.228887368456604" lon="11.056370037445829"><ele>271.0</ele><time>2026-05-02T06:13:05Z</time></trkpt><trkpt lat="44.22900342778868" lon="11.056298862971326"><ele>271.0</ele><time>2026-05-02T06:13:06Z</time></trkpt><trkpt lat="44.22909355706718" lon="11.056244082054404"><ele>268.3333333333333</ele><time>2026-05-02T06:13:07Z</time></trkpt><trkpt lat="44.22914130165309" lon="11.05613753845998"><ele>265.66666666666663</ele><time>2026-05-02T06:13:08Z</time></trkpt><trkpt lat="44.2291665431974" lon="11.056002851945216"><ele>263.0</ele><time>2026-05-02T06:13:09Z</time></trkpt><trkpt lat="44.22916763139184" lon="11.055890839276984"><ele>260.3333333333333</ele><time>2026-05-02T06:13:10Z</time></trkpt><trkpt lat="44.229189478580935" lon="11.055798466287632"><ele>257.6666666666667</ele><time>2026-05-02T06:13:11Z</time></trkpt><trkpt lat="44.22924562486319" lon="11.05572762623199"><ele>255.0</ele><time>2026-05-02T06:13:13Z</time></trkpt><trkpt lat="44.22934205281791" lon="11.055635733957711"><ele>255.0</ele><time>2026-05-02T06:13:15Z</time></trkpt><trkpt lat="44.22938132361946" lon="11.05555191074015"><ele>255.0</ele><time>2026-05-02T06:13:16Z</time></trkpt><trkpt lat="44.22945926451551" lon="11.055675871875927"><ele>255.0</ele><time>2026-05-02T06:13:18Z</time></trkpt><trkpt lat="44.2295345409674" lon="11.055477246080644"><ele>255.0</ele><time>2026-05-02T06:13:20Z</time></trkpt><trkpt lat="44.22952422435781" lon="11.055729750122275"><ele>255.0</ele><time>2026-05-02T06:13:25Z</time></trkpt><trkpt lat="44.22947481628008" lon="11.055489544772408"><ele>255.0</ele><time>2026-05-02T06:14:02.999Z</time></trkpt><trkpt lat="44.229410511290446" lon="11.05549525759126"><ele>255.0</ele><time>2026-05-02T06:14:08.999Z</time></trkpt><trkpt lat="44.229368894987935" lon="11.055566246866512"><ele>255.0</ele><time>2026-05-02T06:14:50Z</time></trkpt><trkpt lat="44.229306398832534" lon="11.055519086866779"><ele>255.0</ele><time>2026-05-02T06:14:58Z</time></trkpt><trkpt lat="44.22925210889009" lon="11.055454086790947"><ele>255.0</ele><time>2026-05-02T06:15:10Z</time></trkpt><trkpt lat="44.22934893844287" lon="11.055468455160483"><ele>255.0</ele><time>2026-05-02T06:19:56.999Z</time></trkpt><trkpt lat="44.22945619040394" lon="11.05550877591277"><ele>255.0</ele><time>2026-05-02T06:20:59Z</time></trkpt><trkpt lat="44.22953005204035" lon="11.0554896940855"><ele>255.0</ele><time>2026-05-02T06:21:04Z</time></trkpt><trkpt lat="44.22949602043523" lon="11.05561686699718"><ele>255.0</ele><time>2026-05-02T06:26:15.999Z</time></trkpt><trkpt lat="44.22956475168376" lon="11.055741680116153"><ele>255.0</ele><time>2026-05-02T06:26:21.999Z</time></trkpt><trkpt lat="44.2296567742101" lon="11.055771581790989"><ele>255.0</ele><time>2026-05-02T06:26:22.999Z</time></trkpt><trkpt lat="44.22978615549303" lon="11.055788095195162"><ele>255.0</ele><time>2026-05-02T06:26:23.999Z</time></trkpt><trkpt lat="44.229931766838845" lon="11.055810216266924"><ele>255.0</ele><time>2026-05-02T06:26:24.999Z</time></trkpt><trkpt lat="44.23006635123564" lon="11.055834751040095"><ele>253.16666666666666</ele><time>2026-05-02T06:26:25.999Z</time></trkpt><trkpt lat="44.2301728720444" lon="11.055852889843091"><ele>251.33333333333331</ele><time>2026-05-02T06:26:26.999Z</time></trkpt><trkpt lat="44.23026186223994" lon="11.055870658843201"><ele>249.5</ele><time>2026-05-02T06:26:27.999Z</time></trkpt><trkpt lat="44.230345004955254" lon="11.055885317205263"><ele>247.66666666666666</ele><time>2026-05-02T06:26:28.999Z</time></trkpt><trkpt lat="44.230431025882574" lon="11.055900281188753"><ele>245.83333333333331</ele><time>2026-05-02T06:26:29.999Z</time></trkpt><trkpt lat="44.23050642859214" lon="11.055917380670707"><ele>244.0</ele><time>2026-05-02T06:26:30.999Z</time></trkpt><trkpt lat="44.2305687779927" lon="11.055958612634468"><ele>244.0</ele><time>2026-05-02T06:26:31.999Z</time></trkpt><trkpt lat="44.23059852100699" lon="11.056038153771903"><ele>244.0</ele><time>2026-05-02T06:26:32.999Z</time></trkpt><trkpt lat="44.23053077128423" lon="11.056280440541064"><ele>244.0</ele><time>2026-05-02T06:26:34.999Z</time></trkpt><trkpt lat="44.230415108318255" lon="11.05640018480096"><ele>244.0</ele><time>2026-05-02T06:26:35.999Z</time></trkpt><trkpt lat="44.23030408812035" lon="11.05657186351377"><ele>244.75</ele><time>2026-05-02T06:26:36.999Z</time></trkpt><trkpt lat="44.23020377794372" lon="11.05672127275092"><ele>245.5</ele><time>2026-05-02T06:26:37.999Z</time></trkpt><trkpt lat="44.230135778596626" lon="11.056913777680537"><ele>246.25</ele><time>2026-05-02T06:26:38.999Z</time></trkpt><trkpt lat="44.2301001418711" lon="11.057084777713065"><ele>247.0</ele><time>2026-05-02T06:26:39.999Z</time></trkpt><trkpt lat="44.23007948880942" lon="11.057251985979702"><ele>247.0</ele><time>2026-05-02T06:26:40.999Z</time></trkpt><trkpt lat="44.23005458886737" lon="11.057414586895561"><ele>247.0</ele><time>2026-05-02T06:26:41.999Z</time></trkpt><trkpt lat="44.23003108724712" lon="11.057580019474209"><ele>247.0</ele><time>2026-05-02T06:26:42.999Z</time></trkpt><trkpt lat="44.23000904380159" lon="11.057748895752663"><ele>247.0</ele><time>2026-05-02T06:26:43.999Z</time></trkpt><trkpt lat="44.229990828925104" lon="11.057913379003365"><ele>247.75</ele><time>2026-05-02T06:26:44.999Z</time></trkpt><trkpt lat="44.2299800677443" lon="11.05807862187526"><ele>248.5</ele><time>2026-05-02T06:26:45.999Z</time></trkpt><trkpt lat="44.22997736028716" lon="11.058239922777757"><ele>249.25</ele><time>2026-05-02T06:26:46.999Z</time></trkpt><trkpt lat="44.22998018900237" lon="11.058395224091267"><ele>250.0</ele><time>2026-05-02T06:26:47.999Z</time></trkpt><trkpt lat="44.229994060874546" lon="11.058545931569007"><ele>250.8</ele><time>2026-05-02T06:26:48.999Z</time></trkpt><trkpt lat="44.22999976011949" lon="11.058694378914696"><ele>251.6</ele><time>2026-05-02T06:26:49.999Z</time></trkpt><trkpt lat="44.2300059410391" lon="11.05882849494056"><ele>252.39999999999998</ele><time>2026-05-02T06:26:50.999Z</time></trkpt><trkpt lat="44.230014382899206" lon="11.058933533016353"><ele>253.2</ele><time>2026-05-02T06:26:52Z</time></trkpt><trkpt lat="44.230032370291745" lon="11.059052232167469"><ele>254.0</ele><time>2026-05-02T06:26:54Z</time></trkpt><trkpt lat="44.23016074561283" lon="11.059000822336726"><ele>254.00000000000003</ele><time>2026-05-02T06:26:57Z</time></trkpt><trkpt lat="44.23016781251524" lon="11.058870169494238"><ele>254.0</ele><time>2026-05-02T06:26:58Z</time></trkpt><trkpt lat="44.23016628345427" lon="11.058749539800871"><ele>254.0</ele><time>2026-05-02T06:26:59Z</time></trkpt><trkpt lat="44.230178777252085" lon="11.058624659162687"><ele>254.0</ele><time>2026-05-02T06:27:00Z</time></trkpt><trkpt lat="44.23019231548018" lon="11.058505266877916"><ele>254.00000000000003</ele><time>2026-05-02T06:27:01Z</time></trkpt><trkpt lat="44.23021244825725" lon="11.058383322399957"><ele>254.0</ele><time>2026-05-02T06:27:02Z</time></trkpt><trkpt lat="44.23023982628809" lon="11.058255659828621"><ele>253.2</ele><time>2026-05-02T06:27:03Z</time></trkpt><trkpt lat="44.23027042946364" lon="11.058117812156238"><ele>252.39999999999998</ele><time>2026-05-02T06:27:04Z</time></trkpt><trkpt lat="44.230317471025934" lon="11.057984084453834"><ele>251.6</ele><time>2026-05-02T06:27:05Z</time></trkpt><trkpt lat="44.23033757401976" lon="11.05783280899786"><ele>250.8</ele><time>2026-05-02T06:27:06Z</time></trkpt><trkpt lat="44.23037211074737" lon="11.057702488353067"><ele>250.0</ele><time>2026-05-02T06:27:07Z</time></trkpt><trkpt lat="44.230408380680664" lon="11.057565162093994"><ele>249.4</ele><time>2026-05-02T06:27:08Z</time></trkpt><trkpt lat="44.23044810549037" lon="11.057428506574"><ele>248.8</ele><time>2026-05-02T06:27:09Z</time></trkpt><trkpt lat="44.2304856787488" lon="11.057294454362122"><ele>248.2</ele><time>2026-05-02T06:27:10Z</time></trkpt><trkpt lat="44.23052943079982" lon="11.057178002568326"><ele>247.6</ele><time>2026-05-02T06:27:11Z</time></trkpt><trkpt lat="44.23055053194745" lon="11.057069312022392"><ele>247.0</ele><time>2026-05-02T06:27:12Z</time></trkpt><trkpt lat="44.230595579203566" lon="11.056992923672379"><ele>250.0</ele><time>2026-05-02T06:27:13Z</time></trkpt><trkpt lat="44.23066663952248" lon="11.056937767353416"><ele>253.0</ele><time>2026-05-02T06:27:14Z</time></trkpt><trkpt lat="44.23073234573055" lon="11.056860297970092"><ele>256.0</ele><time>2026-05-02T06:27:15Z</time></trkpt><trkpt lat="44.23082482721416" lon="11.056812068744964"><ele>259.0</ele><time>2026-05-02T06:27:16Z</time></trkpt><trkpt lat="44.23091292446943" lon="11.056783888288264"><ele>262.0</ele><time>2026-05-02T06:27:17Z</time></trkpt><trkpt lat="44.23100897525334" lon="11.05678733932942"><ele>262.0</ele><time>2026-05-02T06:27:19Z</time></trkpt><trkpt lat="44.23102604963115" lon="11.057008958836777"><ele>262.0</ele><time>2026-05-02T06:27:22Z</time></trkpt><trkpt lat="44.2309583021421" lon="11.057110443907215"><ele>262.0</ele><time>2026-05-02T06:27:23Z</time></trkpt><trkpt lat="44.23092654189155" lon="11.057205927973486"><ele>262.0</ele><time>2026-05-02T06:27:24Z</time></trkpt><trkpt lat="44.23090500874331" lon="11.057323840932451"><ele>262.0</ele><time>2026-05-02T06:27:25Z</time></trkpt><trkpt lat="44.23089785459078" lon="11.057448321429133"><ele>264.0</ele><time>2026-05-02T06:27:26Z</time></trkpt><trkpt lat="44.230902187276506" lon="11.057570503531027"><ele>266.0</ele><time>2026-05-02T06:27:27Z</time></trkpt><trkpt lat="44.23090711563071" lon="11.057682650236186"><ele>268.0</ele><time>2026-05-02T06:27:28Z</time></trkpt><trkpt lat="44.23091633435176" lon="11.05779648337273"><ele>270.0</ele><time>2026-05-02T06:27:29Z</time></trkpt><trkpt lat="44.2309326517916" lon="11.057918005118674"><ele>272.0</ele><time>2026-05-02T06:27:30Z</time></trkpt><trkpt lat="44.23094976707972" lon="11.058044256724509"><ele>274.0</ele><time>2026-05-02T06:27:31Z</time></trkpt><trkpt lat="44.23096288822652" lon="11.058159541157568"><ele>274.0</ele><time>2026-05-02T06:27:32Z</time></trkpt><trkpt lat="44.23096148439673" lon="11.05825608940788"><ele>274.0</ele><time>2026-05-02T06:27:33Z</time></trkpt><trkpt lat="44.23096459240464" lon="11.058371004915069"><ele>274.0</ele><time>2026-05-02T06:27:34Z</time></trkpt><trkpt lat="44.230962294933065" lon="11.0585062152528"><ele>274.0</ele><time>2026-05-02T06:27:35Z</time></trkpt><trkpt lat="44.23095645801206" lon="11.05865503567226"><ele>274.0</ele><time>2026-05-02T06:27:36Z</time></trkpt><trkpt lat="44.23095106407576" lon="11.058794299628373"><ele>275.0</ele><time>2026-05-02T06:27:37Z</time></trkpt><trkpt lat="44.23094556852346" lon="11.058936961980827"><ele>276.0</ele><time>2026-05-02T06:27:38Z</time></trkpt><trkpt lat="44.23093245784086" lon="11.059074399393893"><ele>277.0</ele><time>2026-05-02T06:27:39Z</time></trkpt><trkpt lat="44.230903243778506" lon="11.059216899125243"><ele>278.0</ele><time>2026-05-02T06:27:40Z</time></trkpt><trkpt lat="44.230865396096775" lon="11.059346322757767"><ele>279.0</ele><time>2026-05-02T06:27:41Z</time></trkpt><trkpt lat="44.23082188719813" lon="11.059466869499895"><ele>279.5</ele><time>2026-05-02T06:27:42Z</time></trkpt><trkpt lat="44.230786655833384" lon="11.059571252340934"><ele>280.0</ele><time>2026-05-02T06:27:43Z</time></trkpt><trkpt lat="44.23075924076917" lon="11.05967145533877"><ele>280.5</ele><time>2026-05-02T06:27:45Z</time></trkpt><trkpt lat="44.23074113509212" lon="11.059779918817918"><ele>281.0</ele><time>2026-05-02T06:27:47Z</time></trkpt><trkpt lat="44.23072706719564" lon="11.059878542669631"><ele>281.5</ele><time>2026-05-02T06:27:48Z</time></trkpt><trkpt lat="44.230702195794265" lon="11.060016195111409"><ele>282.0</ele><time>2026-05-02T06:27:49Z</time></trkpt><trkpt lat="44.23065925786871" lon="11.060196649489528"><ele>274.3333333333333</ele><time>2026-05-02T06:27:50Z</time></trkpt><trkpt lat="44.23059477826275" lon="11.060380000325695"><ele>266.66666666666663</ele><time>2026-05-02T06:27:51Z</time></trkpt><trkpt lat="44.23051119900361" lon="11.060548575973018"><ele>259.0</ele><time>2026-05-02T06:27:52Z</time></trkpt><trkpt lat="44.230401819602896" lon="11.060733488910039"><ele>261.75</ele><time>2026-05-02T06:27:53Z</time></trkpt><trkpt lat="44.23027937375168" lon="11.060903884679535"><ele>264.5</ele><time>2026-05-02T06:27:54Z</time></trkpt><trkpt lat="44.23017941035568" lon="11.061035572775381"><ele>267.25</ele><time>2026-05-02T06:27:55Z</time></trkpt><trkpt lat="44.23011187710102" lon="11.061150887349717"><ele>270.0</ele><time>2026-05-02T06:27:56Z</time></trkpt><trkpt lat="44.230071362176844" lon="11.06126436415393"><ele>270.0</ele><time>2026-05-02T06:27:57Z</time></trkpt><trkpt lat="44.230040945223" lon="11.061391011512416"><ele>270.0</ele><time>2026-05-02T06:27:58Z</time></trkpt><trkpt lat="44.23002789872924" lon="11.061532691604615"><ele>270.0</ele><time>2026-05-02T06:27:59Z</time></trkpt><trkpt lat="44.23002072223172" lon="11.061670274302791"><ele>270.0</ele><time>2026-05-02T06:28:00Z</time></trkpt><trkpt lat="44.23001518054399" lon="11.061815864942204"><ele>270.0</ele><time>2026-05-02T06:28:01Z</time></trkpt><trkpt lat="44.2300227001415" lon="11.06192922913663"><ele>271.6</ele><time>2026-05-02T06:28:02Z</time></trkpt><trkpt lat="44.23003202089494" lon="11.062043631749102"><ele>273.2</ele><time>2026-05-02T06:28:03Z</time></trkpt><trkpt lat="44.23005107452596" lon="11.062181858540685"><ele>274.8</ele><time>2026-05-02T06:28:04Z</time></trkpt><trkpt lat="44.23007902074506" lon="11.062325637917425"><ele>276.4</ele><time>2026-05-02T06:28:05Z</time></trkpt><trkpt lat="44.23011258708605" lon="11.062460134727546"><ele>278.0</ele><time>2026-05-02T06:28:06Z</time></trkpt><trkpt lat="44.230162773825114" lon="11.062595513984116"><ele>278.0</ele><time>2026-05-02T06:28:07Z</time></trkpt><trkpt lat="44.23022484303492" lon="11.062702756547983"><ele>278.0</ele><time>2026-05-02T06:28:08Z</time></trkpt><trkpt lat="44.23030891253039" lon="11.062760328343089"><ele>278.0</ele><time>2026-05-02T06:28:09Z</time></trkpt><trkpt lat="44.230385850527156" lon="11.062856169141623"><ele>278.0</ele><time>2026-05-02T06:28:10Z</time></trkpt><trkpt lat="44.23048096908614" lon="11.062947429606682"><ele>278.0</ele><time>2026-05-02T06:28:11Z</time></trkpt><trkpt lat="44.230591408508666" lon="11.063052592089186"><ele>282.75</ele><time>2026-05-02T06:28:12Z</time></trkpt><trkpt lat="44.23072509502903" lon="11.063147025700722"><ele>287.5</ele><time>2026-05-02T06:28:13Z</time></trkpt><trkpt lat="44.230839393711186" lon="11.063232647630375"><ele>292.25</ele><time>2026-05-02T06:28:13.999Z</time></trkpt><trkpt lat="44.230951760258506" lon="11.063271702497747"><ele>297.0</ele><time>2026-05-02T06:28:14.999Z</time></trkpt><trkpt lat="44.23103150655054" lon="11.063258245900373"><ele>297.0</ele><time>2026-05-02T06:28:15.999Z</time></trkpt><trkpt lat="44.23115748125724" lon="11.063190571987791"><ele>297.0</ele><time>2026-05-02T06:28:17.999Z</time></trkpt><trkpt lat="44.2312732293807" lon="11.06313006748028"><ele>297.0</ele><time>2026-05-02T06:28:18.999Z</time></trkpt><trkpt lat="44.23139137310864" lon="11.063069726973941"><ele>297.0</ele><time>2026-05-02T06:28:19.999Z</time></trkpt><trkpt lat="44.23150177216303" lon="11.063032660334017"><ele>297.2</ele><time>2026-05-02T06:28:20.999Z</time></trkpt><trkpt lat="44.23157342378888" lon="11.062984210441783"><ele>297.4</ele><time>2026-05-02T06:28:21.999Z</time></trkpt><trkpt lat="44.231654190732776" lon="11.062962507728153"><ele>297.6</ele><time>2026-05-02T06:28:22.999Z</time></trkpt><trkpt lat="44.23176255804385" lon="11.062992882647876"><ele>297.8</ele><time>2026-05-02T06:28:23.999Z</time></trkpt><trkpt lat="44.23188219586739" lon="11.06304376018622"><ele>298.0</ele><time>2026-05-02T06:28:24.999Z</time></trkpt><trkpt lat="44.23201945723746" lon="11.063082495406235"><ele>298.0</ele><time>2026-05-02T06:28:25.999Z</time></trkpt><trkpt lat="44.23216651626726" lon="11.063120030165994"><ele>298.0</ele><time>2026-05-02T06:28:26.999Z</time></trkpt><trkpt lat="44.23231878247057" lon="11.063174480491279"><ele>298.0</ele><time>2026-05-02T06:28:27.999Z</time></trkpt><trkpt lat="44.23246881172107" lon="11.063251470682497"><ele>294.66666666666663</ele><time>2026-05-02T06:28:28.999Z</time></trkpt><trkpt lat="44.23262555171609" lon="11.063344780687443"><ele>291.3333333333333</ele><time>2026-05-02T06:28:29.999Z</time></trkpt><trkpt lat="44.232770708885035" lon="11.063433272249064"><ele>288.0</ele><time>2026-05-02T06:28:30.999Z</time></trkpt><trkpt lat="44.23292347524886" lon="11.063484924130224"><ele>288.0</ele><time>2026-05-02T06:28:31.999Z</time></trkpt><trkpt lat="44.23307229667578" lon="11.063566566366141"><ele>288.0</ele><time>2026-05-02T06:28:32.999Z</time></trkpt><trkpt lat="44.23320829060699" lon="11.063626584991214"><ele>288.0</ele><time>2026-05-02T06:28:33.999Z</time></trkpt><trkpt lat="44.23332505028572" lon="11.063694738242058"><ele>288.0</ele><time>2026-05-02T06:28:34.999Z</time></trkpt><trkpt lat="44.233417126638265" lon="11.063762529302425"><ele>289.8333333333333</ele><time>2026-05-02T06:28:35.999Z</time></trkpt><trkpt lat="44.233448092808494" lon="11.063879590399777"><ele>291.6666666666667</ele><time>2026-05-02T06:28:36.999Z</time></trkpt><trkpt lat="44.23343669620391" lon="11.064004317079302"><ele>293.5</ele><time>2026-05-02T06:28:37.999Z</time></trkpt><trkpt lat="44.233436945914825" lon="11.064106638666752"><ele>295.33333333333337</ele><time>2026-05-02T06:28:38.999Z</time></trkpt><trkpt lat="44.233489683482674" lon="11.06417063060228"><ele>297.1666666666667</ele><time>2026-05-02T06:28:39.999Z</time></trkpt><trkpt lat="44.233581285576996" lon="11.06422966718547"><ele>299.0</ele><time>2026-05-02T06:28:40.999Z</time></trkpt><trkpt lat="44.23366766861862" lon="11.064303176517148"><ele>299.0</ele><time>2026-05-02T06:28:41.999Z</time></trkpt><trkpt lat="44.233746566613355" lon="11.064414513172249"><ele>299.0</ele><time>2026-05-02T06:28:42.999Z</time></trkpt><trkpt lat="44.23381479712446" lon="11.064560836445084"><ele>299.0</ele><time>2026-05-02T06:28:43.999Z</time></trkpt><trkpt lat="44.23388424606742" lon="11.06470787030839"><ele>299.0</ele><time>2026-05-02T06:28:44.999Z</time></trkpt><trkpt lat="44.233966557221734" lon="11.064843806210943"><ele>302.75</ele><time>2026-05-02T06:28:45.999Z</time></trkpt><trkpt lat="44.23403413206215" lon="11.064953271153277"><ele>306.5</ele><time>2026-05-02T06:28:46.999Z</time></trkpt><trkpt lat="44.234081656243525" lon="11.065039483153125"><ele>310.25</ele><time>2026-05-02T06:28:47.999Z</time></trkpt><trkpt lat="44.23417828516268" lon="11.06510015947961"><ele>314.0</ele><time>2026-05-02T06:28:49.999Z</time></trkpt><trkpt lat="44.23427016600266" lon="11.064894530227775"><ele>314.83333333333337</ele><time>2026-05-02T06:28:51.999Z</time></trkpt><trkpt lat="44.234205250878446" lon="11.06474980745369"><ele>315.6666666666667</ele><time>2026-05-02T06:28:52.999Z</time></trkpt><trkpt lat="44.23415345564428" lon="11.064639421574565"><ele>316.5</ele><time>2026-05-02T06:28:53.999Z</time></trkpt><trkpt lat="44.23412016627364" lon="11.06452704592884"><ele>317.3333333333333</ele><time>2026-05-02T06:28:54.999Z</time></trkpt><trkpt lat="44.23413824917457" lon="11.064441852749493"><ele>318.16666666666663</ele><time>2026-05-02T06:28:55.999Z</time></trkpt><trkpt lat="44.23418588603008" lon="11.064380005393998"><ele>319.0</ele><time>2026-05-02T06:28:56.999Z</time></trkpt><trkpt lat="44.23422918582005" lon="11.06429569133148"><ele>319.0</ele><time>2026-05-02T06:28:58Z</time></trkpt><trkpt lat="44.23423940799091" lon="11.064169125883419"><ele>319.0</ele><time>2026-05-02T06:28:59Z</time></trkpt><trkpt lat="44.23422654830544" lon="11.064042202330343"><ele>319.0</ele><time>2026-05-02T06:29:00Z</time></trkpt><trkpt lat="44.23427050243666" lon="11.063906000831565"><ele>319.0</ele><time>2026-05-02T06:29:02Z</time></trkpt><trkpt lat="44.23438046411392" lon="11.063981269380681"><ele>319.0</ele><time>2026-05-02T06:29:04Z</time></trkpt><trkpt lat="44.234387439216036" lon="11.064089994282686"><ele>319.0</ele><time>2026-05-02T06:29:05Z</time></trkpt><trkpt lat="44.23439132147705" lon="11.064204100041357"><ele>319.0</ele><time>2026-05-02T06:29:06Z</time></trkpt><trkpt lat="44.234423259291326" lon="11.064335386650102"><ele>319.0</ele><time>2026-05-02T06:29:07Z</time></trkpt><trkpt lat="44.23447032636939" lon="11.064466089426176"><ele>319.0</ele><time>2026-05-02T06:29:08Z</time></trkpt><trkpt lat="44.234517709761214" lon="11.06458813449348"><ele>319.0</ele><time>2026-05-02T06:29:09Z</time></trkpt><trkpt lat="44.23456950598056" lon="11.064684834689288"><ele>319.0</ele><time>2026-05-02T06:29:10Z</time></trkpt><trkpt lat="44.23462016327309" lon="11.06473994502581"><ele>319.0</ele><time>2026-05-02T06:29:11Z</time></trkpt><trkpt lat="44.234689658951474" lon="11.064781267696867"><ele>319.0</ele><time>2026-05-02T06:29:12Z</time></trkpt><trkpt lat="44.23477934940993" lon="11.064822690986132"><ele>319.0</ele><time>2026-05-02T06:29:13Z</time></trkpt><trkpt lat="44.23487312954712" lon="11.064884419281052"><ele>319.0</ele><time>2026-05-02T06:29:14Z</time></trkpt><trkpt lat="44.23494668149119" lon="11.064975741508437"><ele>319.0</ele><time>2026-05-02T06:29:15Z</time></trkpt><trkpt lat="44.23496610456394" lon="11.06510476628609"><ele>322.79999999999995</ele><time>2026-05-02T06:29:16Z</time></trkpt><trkpt lat="44.234953978817245" lon="11.065241615851662"><ele>326.59999999999997</ele><time>2026-05-02T06:29:17Z</time></trkpt><trkpt lat="44.23495775701587" lon="11.065391832316466"><ele>330.4</ele><time>2026-05-02T06:29:18Z</time></trkpt><trkpt lat="44.23497672035788" lon="11.065544338854242"><ele>334.2</ele><time>2026-05-02T06:29:19Z</time></trkpt><trkpt lat="44.23498827899329" lon="11.065703024852661"><ele>338.0</ele><time>2026-05-02T06:29:20Z</time></trkpt><trkpt lat="44.23499619023723" lon="11.065840955615036"><ele>338.0</ele><time>2026-05-02T06:29:21Z</time></trkpt><trkpt lat="44.23501219847294" lon="11.065950104736398"><ele>338.0</ele><time>2026-05-02T06:29:22Z</time></trkpt><trkpt lat="44.235047905885146" lon="11.066044355711417"><ele>338.0</ele><time>2026-05-02T06:29:23Z</time></trkpt><trkpt lat="44.235118913737544" lon="11.066120880085844"><ele>338.0</ele><time>2026-05-02T06:29:24Z</time></trkpt><trkpt lat="44.23521510124106" lon="11.066169804098374"><ele>338.0</ele><time>2026-05-02T06:29:25Z</time></trkpt><trkpt lat="44.235315139662305" lon="11.066213454686176"><ele>338.0</ele><time>2026-05-02T06:29:26Z</time></trkpt><trkpt lat="44.235434185439495" lon="11.06618944537191"><ele>338.0</ele><time>2026-05-02T06:29:27Z</time></trkpt><trkpt lat="44.23556459960964" lon="11.06618490367373"><ele>338.0</ele><time>2026-05-02T06:29:28Z</time></trkpt><trkpt lat="44.23566011391813" lon="11.066173038871709"><ele>338.0</ele><time>2026-05-02T06:29:29Z</time></trkpt><trkpt lat="44.23574566340368" lon="11.066168963859676"><ele>338.0</ele><time>2026-05-02T06:29:30Z</time></trkpt><trkpt lat="44.23585357072914" lon="11.066169894532669"><ele>342.0</ele><time>2026-05-02T06:29:31Z</time></trkpt><trkpt lat="44.23597489498915" lon="11.066186792195772"><ele>346.0</ele><time>2026-05-02T06:29:32Z</time></trkpt><trkpt lat="44.23608776868975" lon="11.066200788334154"><ele>350.0</ele><time>2026-05-02T06:29:33Z</time></trkpt><trkpt lat="44.23618931470546" lon="11.066201374947063"><ele>354.0</ele><time>2026-05-02T06:29:34Z</time></trkpt><trkpt lat="44.23629314205434" lon="11.066159536140402"><ele>358.0</ele><time>2026-05-02T06:29:35Z</time></trkpt><trkpt lat="44.23639134374193" lon="11.066101770088002"><ele>360.3333333333333</ele><time>2026-05-02T06:29:36Z</time></trkpt><trkpt lat="44.23660580239105" lon="11.066003338434674"><ele>362.6666666666667</ele><time>2026-05-02T06:29:37Z</time></trkpt><trkpt lat="44.23677736313787" lon="11.065936941870406"><ele>365.0</ele><time>2026-05-02T06:29:38Z</time></trkpt><trkpt lat="44.23692924401558" lon="11.065935472932347"><ele>365.0</ele><time>2026-05-02T06:29:39Z</time></trkpt><trkpt lat="44.23707162759531" lon="11.065942891518386"><ele>365.0</ele><time>2026-05-02T06:29:40Z</time></trkpt><trkpt lat="44.237216412273874" lon="11.06597063528503"><ele>365.0</ele><time>2026-05-02T06:29:41Z</time></trkpt><trkpt lat="44.2373295295066" lon="11.066002066461731"><ele>365.0</ele><time>2026-05-02T06:29:42Z</time></trkpt><trkpt lat="44.2374518498494" lon="11.06605094597359"><ele>367.5</ele><time>2026-05-02T06:29:43Z</time></trkpt><trkpt lat="44.23756151744412" lon="11.066132276187703"><ele>370.0</ele><time>2026-05-02T06:29:44Z</time></trkpt><trkpt lat="44.23765830559345" lon="11.06621976788898"><ele>372.5</ele><time>2026-05-02T06:29:45Z</time></trkpt><trkpt lat="44.23777378854441" lon="11.066264198953014"><ele>375.0</ele><time>2026-05-02T06:29:46Z</time></trkpt><trkpt lat="44.23786950919076" lon="11.06630075240435"><ele>375.0</ele><time>2026-05-02T06:29:47Z</time></trkpt><trkpt lat="44.23796234568638" lon="11.066347506260595"><ele>375.0</ele><time>2026-05-02T06:29:48Z</time></trkpt><trkpt lat="44.238044559429106" lon="11.066363201403135"><ele>375.0</ele><time>2026-05-02T06:29:49Z</time></trkpt><trkpt lat="44.23812637790118" lon="11.06634139225663"><ele>375.0</ele><time>2026-05-02T06:29:50Z</time></trkpt><trkpt lat="44.23820413692641" lon="11.066313981441983"><ele>375.0</ele><time>2026-05-02T06:29:52Z</time></trkpt><trkpt lat="44.2382791435948" lon="11.066341931099158"><ele>375.0</ele><time>2026-05-02T06:29:54Z</time></trkpt><trkpt lat="44.238359171135286" lon="11.066257499744472"><ele>374.5</ele><time>2026-05-02T06:29:57Z</time></trkpt><trkpt lat="44.238414622315375" lon="11.066192831004011"><ele>374.0</ele><time>2026-05-02T06:29:58Z</time></trkpt><trkpt lat="44.23848096949631" lon="11.066121694862993"><ele>373.5</ele><time>2026-05-02T06:29:59Z</time></trkpt><trkpt lat="44.23858276959291" lon="11.066039053861276"><ele>373.0</ele><time>2026-05-02T06:30:00Z</time></trkpt><trkpt lat="44.238654081712475" lon="11.065986822333178"><ele>372.5</ele><time>2026-05-02T06:30:01Z</time></trkpt><trkpt lat="44.23872587972143" lon="11.065946122115426"><ele>372.0</ele><time>2026-05-02T06:30:02Z</time></trkpt><trkpt lat="44.2387994065273" lon="11.065945519277156"><ele>372.0</ele><time>2026-05-02T06:30:03Z</time></trkpt><trkpt lat="44.238889913034505" lon="11.065977384164562"><ele>372.0</ele><time>2026-05-02T06:30:05Z</time></trkpt><trkpt lat="44.238977684681416" lon="11.065967115854825"><ele>372.0</ele><time>2026-05-02T06:30:07Z</time></trkpt><trkpt lat="44.23908384842328" lon="11.065988448793627"><ele>372.0</ele><time>2026-05-02T06:30:09Z</time></trkpt><trkpt lat="44.23915121187965" lon="11.066026819242316"><ele>372.0</ele><time>2026-05-02T06:30:10Z</time></trkpt><trkpt lat="44.23923282409859" lon="11.066083006791207"><ele>369.8</ele><time>2026-05-02T06:30:11Z</time></trkpt><trkpt lat="44.239304370386265" lon="11.066138221901136"><ele>367.6</ele><time>2026-05-02T06:30:12Z</time></trkpt><trkpt lat="44.23940734340892" lon="11.066125069243409"><ele>365.40000000000003</ele><time>2026-05-02T06:30:13Z</time></trkpt><trkpt lat="44.23940477765632" lon="11.065991410024498"><ele>363.20000000000005</ele><time>2026-05-02T06:30:14Z</time></trkpt><trkpt lat="44.23954469259286" lon="11.06589339713638"><ele>361.0</ele><time>2026-05-02T06:30:16Z</time></trkpt><trkpt lat="44.23966561480085" lon="11.065860851590218"><ele>361.0</ele><time>2026-05-02T06:30:17Z</time></trkpt><trkpt lat="44.23978220301547" lon="11.065903582104616"><ele>361.0</ele><time>2026-05-02T06:30:18Z</time></trkpt><trkpt lat="44.23990432514171" lon="11.065923101581278"><ele>361.0</ele><time>2026-05-02T06:30:19Z</time></trkpt><trkpt lat="44.24000623497982" lon="11.065912784409745"><ele>361.0</ele><time>2026-05-02T06:30:20Z</time></trkpt><trkpt lat="44.240073510333296" lon="11.06588204929756"><ele>361.0</ele><time>2026-05-02T06:30:21Z</time></trkpt><trkpt lat="44.24005708165265" lon="11.065691801738984"><ele>361.0</ele><time>2026-05-02T06:30:22.999Z</time></trkpt><trkpt lat="44.24003783094041" lon="11.065604614864286"><ele>361.0</ele><time>2026-05-02T06:30:23.999Z</time></trkpt><trkpt lat="44.24005044916809" lon="11.065464121021616"><ele>361.0</ele><time>2026-05-02T06:30:25.999Z</time></trkpt><trkpt lat="44.24007212260605" lon="11.065380432092905"><ele>361.0</ele><time>2026-05-02T06:30:26.999Z</time></trkpt><trkpt lat="44.24018352506023" lon="11.065355575841032"><ele>361.0</ele><time>2026-05-02T06:30:28.999Z</time></trkpt><trkpt lat="44.24025601630342" lon="11.065371718020186"><ele>361.0</ele><time>2026-05-02T06:30:29.999Z</time></trkpt><trkpt lat="44.24039036529136" lon="11.06538623568662"><ele>361.0</ele><time>2026-05-02T06:30:30.999Z</time></trkpt><trkpt lat="44.24055179195217" lon="11.065405753468601"><ele>361.0</ele><time>2026-05-02T06:30:31.999Z</time></trkpt><trkpt lat="44.2406756493984" lon="11.065394570203157"><ele>361.0</ele><time>2026-05-02T06:30:32.999Z</time></trkpt><trkpt lat="44.24078142649778" lon="11.065399293452344"><ele>361.0</ele><time>2026-05-02T06:30:33.999Z</time></trkpt><trkpt lat="44.24086212861069" lon="11.06537428765805"><ele>359.8</ele><time>2026-05-02T06:30:34.999Z</time></trkpt><trkpt lat="44.240955934123576" lon="11.065340784987706"><ele>358.6</ele><time>2026-05-02T06:30:35.999Z</time></trkpt><trkpt lat="44.24105420370214" lon="11.06531242472851"><ele>357.4</ele><time>2026-05-02T06:30:36.999Z</time></trkpt><trkpt lat="44.24114064068327" lon="11.065308925199522"><ele>356.2</ele><time>2026-05-02T06:30:37.999Z</time></trkpt><trkpt lat="44.24121947214271" lon="11.065296110020602"><ele>355.0</ele><time>2026-05-02T06:30:38.999Z</time></trkpt><trkpt lat="44.241322169268614" lon="11.065282275963977"><ele>355.0</ele><time>2026-05-02T06:30:39.999Z</time></trkpt><trkpt lat="44.24146294693714" lon="11.065265281183704"><ele>355.0</ele><time>2026-05-02T06:30:40.999Z</time></trkpt><trkpt lat="44.241598078461365" lon="11.065242196950532"><ele>355.0</ele><time>2026-05-02T06:30:41.999Z</time></trkpt><trkpt lat="44.24172041686626" lon="11.065222772699755"><ele>355.0</ele><time>2026-05-02T06:30:42.999Z</time></trkpt><trkpt lat="44.241817050563114" lon="11.065218141078054"><ele>355.0</ele><time>2026-05-02T06:30:43.999Z</time></trkpt><trkpt lat="44.241909221458556" lon="11.065222721333189"><ele>355.0</ele><time>2026-05-02T06:30:44.999Z</time></trkpt><trkpt lat="44.24199502274245" lon="11.065216447016002"><ele>355.0</ele><time>2026-05-02T06:30:45.999Z</time></trkpt><trkpt lat="44.24209921185386" lon="11.065193976352116"><ele>355.0</ele><time>2026-05-02T06:30:46.999Z</time></trkpt><trkpt lat="44.242197963318844" lon="11.06515722888096"><ele>355.0</ele><time>2026-05-02T06:30:47.999Z</time></trkpt><trkpt lat="44.242273742324926" lon="11.065099523270776"><ele>355.16666666666663</ele><time>2026-05-02T06:30:48.999Z</time></trkpt><trkpt lat="44.242333271895845" lon="11.06502868772"><ele>355.3333333333333</ele><time>2026-05-02T06:30:49.999Z</time></trkpt><trkpt lat="44.24237929711311" lon="11.06490832808673"><ele>355.5</ele><time>2026-05-02T06:30:50.999Z</time></trkpt><trkpt lat="44.24242744171457" lon="11.064765445799068"><ele>355.6666666666667</ele><time>2026-05-02T06:30:51.999Z</time></trkpt><trkpt lat="44.242455124301046" lon="11.064669890207893"><ele>355.83333333333337</ele><time>2026-05-02T06:30:52.999Z</time></trkpt><trkpt lat="44.242479149513144" lon="11.064587758139046"><ele>356.0</ele><time>2026-05-02T06:30:53.999Z</time></trkpt><trkpt lat="44.242541855423724" lon="11.064471599697464"><ele>359.20000000000005</ele><time>2026-05-02T06:30:55.999Z</time></trkpt><trkpt lat="44.24260996384713" lon="11.064383828353582"><ele>362.40000000000003</ele><time>2026-05-02T06:30:57.999Z</time></trkpt><trkpt lat="44.24269071804505" lon="11.06438565259844"><ele>365.6</ele><time>2026-05-02T06:30:58.999Z</time></trkpt><trkpt lat="44.242759329131644" lon="11.064420950637118"><ele>368.8</ele><time>2026-05-02T06:30:59.999Z</time></trkpt><trkpt lat="44.24284619703235" lon="11.064515789658252"><ele>372.0</ele><time>2026-05-02T06:31:00.999Z</time></trkpt><trkpt lat="44.24294613051476" lon="11.064615859867551"><ele>372.0</ele><time>2026-05-02T06:31:01.999Z</time></trkpt><trkpt lat="44.2430563361192" lon="11.064726460693603"><ele>372.0</ele><time>2026-05-02T06:31:02.999Z</time></trkpt><trkpt lat="44.243171718647616" lon="11.064839705649485"><ele>372.0</ele><time>2026-05-02T06:31:04Z</time></trkpt><trkpt lat="44.24328305138359" lon="11.064932888225892"><ele>372.0</ele><time>2026-05-02T06:31:05Z</time></trkpt><trkpt lat="44.243392471795836" lon="11.065022027226124"><ele>374.75</ele><time>2026-05-02T06:31:06Z</time></trkpt><trkpt lat="44.24350023176622" lon="11.065117896556943"><ele>377.5</ele><time>2026-05-02T06:31:07Z</time></trkpt><trkpt lat="44.24362221640308" lon="11.065214614641956"><ele>380.25</ele><time>2026-05-02T06:31:08Z</time></trkpt><trkpt lat="44.243754418529875" lon="11.065325956776501"><ele>383.0</ele><time>2026-05-02T06:31:09Z</time></trkpt><trkpt lat="44.24389380466025" lon="11.065441980544778"><ele>388.75</ele><time>2026-05-02T06:31:10Z</time></trkpt><trkpt lat="44.24403984997898" lon="11.065526488764108"><ele>394.5</ele><time>2026-05-02T06:31:11Z</time></trkpt><trkpt lat="44.24419250368268" lon="11.065605986611748"><ele>400.25</ele><time>2026-05-02T06:31:12Z</time></trkpt><trkpt lat="44.24431031191728" lon="11.06566818450485"><ele>406.0</ele><time>2026-05-02T06:31:13Z</time></trkpt><trkpt lat="44.24437273085612" lon="11.065701636860933"><ele>402.0</ele><time>2026-05-02T06:31:14Z</time></trkpt><trkpt lat="44.24439749446572" lon="11.065868744315841"><ele>398.0</ele><time>2026-05-02T06:31:16Z</time></trkpt><trkpt lat="44.24442492344072" lon="11.065997892227097"><ele>394.0</ele><time>2026-05-02T06:31:17Z</time></trkpt><trkpt lat="44.24449136710312" lon="11.066104294431428"><ele>390.0</ele><time>2026-05-02T06:31:18Z</time></trkpt><trkpt lat="44.2445666293746" lon="11.066212689112838"><ele>386.0</ele><time>2026-05-02T06:31:19Z</time></trkpt><trkpt lat="44.24463363479039" lon="11.06628658061352"><ele>386.0</ele><time>2026-05-02T06:31:20Z</time></trkpt><trkpt lat="44.244710576416885" lon="11.0663365772809"><ele>386.0</ele><time>2026-05-02T06:31:21Z</time></trkpt><trkpt lat="44.24481159310357" lon="11.066366828969617"><ele>386.0</ele><time>2026-05-02T06:31:22Z</time></trkpt><trkpt lat="44.24495496547293" lon="11.06643253948106"><ele>386.0</ele><time>2026-05-02T06:31:23Z</time></trkpt><trkpt lat="44.245082696617274" lon="11.0664606683077"><ele>388.4</ele><time>2026-05-02T06:31:24Z</time></trkpt><trkpt lat="44.24520218633767" lon="11.066498501075047"><ele>390.8</ele><time>2026-05-02T06:31:25Z</time></trkpt><trkpt lat="44.245303042576005" lon="11.066521209676804"><ele>393.2</ele><time>2026-05-02T06:31:26Z</time></trkpt><trkpt lat="44.245395226561634" lon="11.066537561198055"><ele>395.59999999999997</ele><time>2026-05-02T06:31:27Z</time></trkpt><trkpt lat="44.24546872750686" lon="11.066532378641472"><ele>398.0</ele><time>2026-05-02T06:31:28Z</time></trkpt><trkpt lat="44.24554228681893" lon="11.06652337896569"><ele>397.99999999999994</ele><time>2026-05-02T06:31:29Z</time></trkpt><trkpt lat="44.2456073203575" lon="11.066514659419337"><ele>398.0</ele><time>2026-05-02T06:31:31Z</time></trkpt><trkpt lat="44.24567620888543" lon="11.066504298598382"><ele>398.0</ele><time>2026-05-02T06:31:32Z</time></trkpt><trkpt lat="44.245768940032484" lon="11.066466732829017"><ele>398.0</ele><time>2026-05-02T06:31:33Z</time></trkpt><trkpt lat="44.24586588922678" lon="11.066447528327606"><ele>397.99999999999994</ele><time>2026-05-02T06:31:34Z</time></trkpt><trkpt lat="44.24594156275451" lon="11.066429337336968"><ele>398.0</ele><time>2026-05-02T06:31:35Z</time></trkpt><trkpt lat="44.24605328732053" lon="11.066349266655198"><ele>401.4</ele><time>2026-05-02T06:31:37Z</time></trkpt><trkpt lat="44.246067889748126" lon="11.066215614540113"><ele>404.79999999999995</ele><time>2026-05-02T06:31:38Z</time></trkpt><trkpt lat="44.24607944946432" lon="11.066107621030211"><ele>408.2</ele><time>2026-05-02T06:31:39Z</time></trkpt><trkpt lat="44.24610158241748" lon="11.066005568381211"><ele>411.6</ele><time>2026-05-02T06:31:40Z</time></trkpt><trkpt lat="44.24620167490398" lon="11.065883173437756"><ele>415.0</ele><time>2026-05-02T06:31:42Z</time></trkpt><trkpt lat="44.24626263822389" lon="11.065845693946546"><ele>415.0</ele><time>2026-05-02T06:31:43Z</time></trkpt><trkpt lat="44.246315589641" lon="11.06579340909744"><ele>415.0</ele><time>2026-05-02T06:31:45Z</time></trkpt><trkpt lat="44.24630778335129" lon="11.065634096044379"><ele>415.0</ele><time>2026-05-02T06:31:47Z</time></trkpt><trkpt lat="44.246239067520904" lon="11.065554792077112"><ele>415.0</ele><time>2026-05-02T06:31:48Z</time></trkpt><trkpt lat="44.246158308739616" lon="11.065465899603359"><ele>415.0</ele><time>2026-05-02T06:31:49Z</time></trkpt><trkpt lat="44.24605881711351" lon="11.065374093206344"><ele>420.25</ele><time>2026-05-02T06:31:50Z</time></trkpt><trkpt lat="44.24597899663582" lon="11.065274864785762"><ele>425.5</ele><time>2026-05-02T06:31:51Z</time></trkpt><trkpt lat="44.24591736245576" lon="11.065137196433295"><ele>430.75</ele><time>2026-05-02T06:31:52Z</time></trkpt><trkpt lat="44.24584017963173" lon="11.064991595396478"><ele>436.0</ele><time>2026-05-02T06:31:53Z</time></trkpt><trkpt lat="44.24572141412803" lon="11.064871703773692"><ele>436.5</ele><time>2026-05-02T06:31:54Z</time></trkpt><trkpt lat="44.24560130519335" lon="11.064800326810529"><ele>437.0</ele><time>2026-05-02T06:31:55Z</time></trkpt><trkpt lat="44.2454947034471" lon="11.064706309401549"><ele>437.5</ele><time>2026-05-02T06:31:56Z</time></trkpt><trkpt lat="44.245389757912754" lon="11.064609319167316"><ele>438.0</ele><time>2026-05-02T06:31:57Z</time></trkpt><trkpt lat="44.245296865149925" lon="11.064518532312007"><ele>438.0</ele><time>2026-05-02T06:31:58Z</time></trkpt><trkpt lat="44.24520558719618" lon="11.064429576944221"><ele>437.99999999999994</ele><time>2026-05-02T06:31:59Z</time></trkpt><trkpt lat="44.24512083599649" lon="11.064337859099732"><ele>437.99999999999994</ele><time>2026-05-02T06:32:00Z</time></trkpt><trkpt lat="44.24505178710177" lon="11.064231180906981"><ele>438.0</ele><time>2026-05-02T06:32:01Z</time></trkpt><trkpt lat="44.24498687610662" lon="11.064101512341894"><ele>438.0</ele><time>2026-05-02T06:32:02Z</time></trkpt><trkpt lat="44.24491658260764" lon="11.063954235035125"><ele>434.25</ele><time>2026-05-02T06:32:03Z</time></trkpt><trkpt lat="44.2448446030988" lon="11.063807803440094"><ele>430.5</ele><time>2026-05-02T06:32:04Z</time></trkpt><trkpt lat="44.244759508776006" lon="11.063653893425816"><ele>426.75</ele><time>2026-05-02T06:32:05Z</time></trkpt><trkpt lat="44.24467568461076" lon="11.063513621587578"><ele>423.0</ele><time>2026-05-02T06:32:06Z</time></trkpt><trkpt lat="44.24460980118859" lon="11.063362635024905"><ele>426.75</ele><time>2026-05-02T06:32:07Z</time></trkpt><trkpt lat="44.24455712866017" lon="11.063193647311676"><ele>430.5</ele><time>2026-05-02T06:32:08Z</time></trkpt><trkpt lat="44.244508065000524" lon="11.06301834180268"><ele>434.25</ele><time>2026-05-02T06:32:09Z</time></trkpt><trkpt lat="44.244458302681956" lon="11.062859689579417"><ele>438.0</ele><time>2026-05-02T06:32:10Z</time></trkpt><trkpt lat="44.24439972746238" lon="11.062724213231846"><ele>438.0</ele><time>2026-05-02T06:32:11Z</time></trkpt><trkpt lat="44.24431879610091" lon="11.062612472890466"><ele>437.99999999999994</ele><time>2026-05-02T06:32:12Z</time></trkpt><trkpt lat="44.24418828180564" lon="11.062564660672269"><ele>437.99999999999994</ele><time>2026-05-02T06:32:13Z</time></trkpt><trkpt lat="44.244091196158635" lon="11.062514385740071"><ele>438.0</ele><time>2026-05-02T06:32:14Z</time></trkpt><trkpt lat="44.24401426638846" lon="11.062438833685224"><ele>438.0</ele><time>2026-05-02T06:32:15Z</time></trkpt><trkpt lat="44.24399050792034" lon="11.06233127752207"><ele>438.79999999999995</ele><time>2026-05-02T06:32:16Z</time></trkpt><trkpt lat="44.243984684675524" lon="11.062228164698695"><ele>439.59999999999997</ele><time>2026-05-02T06:32:17Z</time></trkpt><trkpt lat="44.24401774478729" lon="11.062113900949068"><ele>440.40000000000003</ele><time>2026-05-02T06:32:18Z</time></trkpt><trkpt lat="44.24403887746809" lon="11.061959141205195"><ele>441.20000000000005</ele><time>2026-05-02T06:32:19Z</time></trkpt><trkpt lat="44.24405392289227" lon="11.061808360275583"><ele>442.0</ele><time>2026-05-02T06:32:20Z</time></trkpt><trkpt lat="44.244056666659645" lon="11.061666155252205"><ele>439.8</ele><time>2026-05-02T06:32:21Z</time></trkpt><trkpt lat="44.244041054365304" lon="11.061536341618709"><ele>437.6</ele><time>2026-05-02T06:32:22Z</time></trkpt><trkpt lat="44.24400434483293" lon="11.06141604711576"><ele>435.40000000000003</ele><time>2026-05-02T06:32:23Z</time></trkpt><trkpt lat="44.24397806971099" lon="11.06130507072842"><ele>433.20000000000005</ele><time>2026-05-02T06:32:24Z</time></trkpt><trkpt lat="44.24397896330773" lon="11.061193387215154"><ele>431.0</ele><time>2026-05-02T06:32:25Z</time></trkpt><trkpt lat="44.244040488453145" lon="11.061080739197598"><ele>431.0</ele><time>2026-05-02T06:32:26Z</time></trkpt><trkpt lat="44.24411026373926" lon="11.060951914394181"><ele>431.0</ele><time>2026-05-02T06:32:27Z</time></trkpt><trkpt lat="44.24416185590072" lon="11.060810344802844"><ele>431.0</ele><time>2026-05-02T06:32:28Z</time></trkpt><trkpt lat="44.24422751593507" lon="11.060675283969163"><ele>431.0</ele><time>2026-05-02T06:32:28.999Z</time></trkpt><trkpt lat="44.24428200121703" lon="11.060540121984547"><ele>431.4</ele><time>2026-05-02T06:32:29.999Z</time></trkpt><trkpt lat="44.244342489742515" lon="11.060413822612642"><ele>431.8</ele><time>2026-05-02T06:32:30.999Z</time></trkpt><trkpt lat="44.244392846835794" lon="11.060309759063896"><ele>432.19999999999993</ele><time>2026-05-02T06:32:31.999Z</time></trkpt><trkpt lat="44.24445473303157" lon="11.060213267761023"><ele>432.59999999999997</ele><time>2026-05-02T06:32:32.999Z</time></trkpt><trkpt lat="44.2444961120022" lon="11.060107204224527"><ele>433.0</ele><time>2026-05-02T06:32:33.999Z</time></trkpt><trkpt lat="44.244533455216704" lon="11.059994919228293"><ele>438.0</ele><time>2026-05-02T06:32:34.999Z</time></trkpt><trkpt lat="44.244561627077815" lon="11.059862964399858"><ele>442.99999999999994</ele><time>2026-05-02T06:32:35.999Z</time></trkpt><trkpt lat="44.24456443324838" lon="11.059742232960884"><ele>447.99999999999994</ele><time>2026-05-02T06:32:36.999Z</time></trkpt><trkpt lat="44.24453756450924" lon="11.059574984586305"><ele>453.0</ele><time>2026-05-02T06:32:38.999Z</time></trkpt><trkpt lat="44.244444891457434" lon="11.05951683895453"><ele>458.0</ele><time>2026-05-02T06:32:39.999Z</time></trkpt><trkpt lat="44.24432255718205" lon="11.059529542231045"><ele>458.0</ele><time>2026-05-02T06:32:40.999Z</time></trkpt><trkpt lat="44.24422031136322" lon="11.059641608578394"><ele>457.99999999999994</ele><time>2026-05-02T06:32:41.999Z</time></trkpt><trkpt lat="44.24413699561623" lon="11.059733240862206"><ele>457.99999999999994</ele><time>2026-05-02T06:32:42.999Z</time></trkpt><trkpt lat="44.244058605479495" lon="11.059803593986317"><ele>458.0</ele><time>2026-05-02T06:32:43.999Z</time></trkpt><trkpt lat="44.243984356450355" lon="11.059872291714202"><ele>458.0</ele><time>2026-05-02T06:32:44.999Z</time></trkpt><trkpt lat="44.24389642918738" lon="11.059991398166954"><ele>455.2</ele><time>2026-05-02T06:32:45.999Z</time></trkpt><trkpt lat="44.2438469209026" lon="11.060073723848035"><ele>452.4</ele><time>2026-05-02T06:32:46.999Z</time></trkpt><trkpt lat="44.24378004091387" lon="11.060152435807888"><ele>449.59999999999997</ele><time>2026-05-02T06:32:47.999Z</time></trkpt><trkpt lat="44.24369516644297" lon="11.060206480706519"><ele>446.79999999999995</ele><time>2026-05-02T06:32:48.999Z</time></trkpt><trkpt lat="44.243589489676296" lon="11.060280849206757"><ele>444.0</ele><time>2026-05-02T06:32:49.999Z</time></trkpt><trkpt lat="44.24348027712405" lon="11.060365353473566"><ele>444.0</ele><time>2026-05-02T06:32:50.999Z</time></trkpt><trkpt lat="44.24337719346394" lon="11.060460928078058"><ele>444.0</ele><time>2026-05-02T06:32:51.999Z</time></trkpt><trkpt lat="44.24327378304746" lon="11.060546809876966"><ele>444.0</ele><time>2026-05-02T06:32:52.999Z</time></trkpt><trkpt lat="44.24317678084284" lon="11.060605724848834"><ele>444.0</ele><time>2026-05-02T06:32:53.999Z</time></trkpt><trkpt lat="44.24307646183135" lon="11.060637053640548"><ele>443.1666666666667</ele><time>2026-05-02T06:32:54.999Z</time></trkpt><trkpt lat="44.24301182222156" lon="11.060640770754157"><ele>442.33333333333337</ele><time>2026-05-02T06:32:55.999Z</time></trkpt><trkpt lat="44.242895658818874" lon="11.060571916505873"><ele>441.5</ele><time>2026-05-02T06:32:57.999Z</time></trkpt><trkpt lat="44.24282755603336" lon="11.060559146572022"><ele>440.6666666666667</ele><time>2026-05-02T06:32:58.999Z</time></trkpt><trkpt lat="44.24273652362446" lon="11.06060099507246"><ele>439.83333333333337</ele><time>2026-05-02T06:32:59.999Z</time></trkpt><trkpt lat="44.24264678214427" lon="11.060597686333574"><ele>439.0</ele><time>2026-05-02T06:33:00.999Z</time></trkpt><trkpt lat="44.24256399361521" lon="11.060540749430524"><ele>439.0</ele><time>2026-05-02T06:33:01.999Z</time></trkpt><trkpt lat="44.24245727371373" lon="11.06049993241657"><ele>439.0</ele><time>2026-05-02T06:33:02.999Z</time></trkpt><trkpt lat="44.24234459967437" lon="11.060445143781646"><ele>439.0</ele><time>2026-05-02T06:33:03.999Z</time></trkpt><trkpt lat="44.24224475331579" lon="11.060354500948248"><ele>439.0</ele><time>2026-05-02T06:33:04.999Z</time></trkpt><trkpt lat="44.242140142644004" lon="11.060270434811535"><ele>435.0</ele><time>2026-05-02T06:33:05.999Z</time></trkpt><trkpt lat="44.24203551295576" lon="11.060193040019254"><ele>431.0</ele><time>2026-05-02T06:33:06.999Z</time></trkpt><trkpt lat="44.24193916288839" lon="11.060125306272798"><ele>427.0</ele><time>2026-05-02T06:33:07.999Z</time></trkpt><trkpt lat="44.24185460079456" lon="11.060072350517734"><ele>423.0</ele><time>2026-05-02T06:33:08.999Z</time></trkpt><trkpt lat="44.241780980745276" lon="11.060033038365615"><ele>419.0</ele><time>2026-05-02T06:33:10Z</time></trkpt><trkpt lat="44.24168897762915" lon="11.059984648607335"><ele>421.2</ele><time>2026-05-02T06:33:12Z</time></trkpt><trkpt lat="44.24169784705493" lon="11.059820507213491"><ele>423.4</ele><time>2026-05-02T06:33:14Z</time></trkpt><trkpt lat="44.24172668977922" lon="11.059719329552056"><ele>425.6</ele><time>2026-05-02T06:33:15Z</time></trkpt><trkpt lat="44.2417508090572" lon="11.059606854325875"><ele>427.8</ele><time>2026-05-02T06:33:16Z</time></trkpt><trkpt lat="44.24176238374164" lon="11.059469361378675"><ele>430.0</ele><time>2026-05-02T06:33:17Z</time></trkpt><trkpt lat="44.24175758555699" lon="11.059310629299201"><ele>430.0</ele><time>2026-05-02T06:33:18Z</time></trkpt><trkpt lat="44.24173882027822" lon="11.059152039050554"><ele>430.0</ele><time>2026-05-02T06:33:19Z</time></trkpt><trkpt lat="44.24171269513119" lon="11.059005921958244"><ele>430.0</ele><time>2026-05-02T06:33:20Z</time></trkpt><trkpt lat="44.241693860749876" lon="11.058876207603072"><ele>430.0</ele><time>2026-05-02T06:33:21Z</time></trkpt><trkpt lat="44.24168982995664" lon="11.058775683149511"><ele>430.0</ele><time>2026-05-02T06:33:22Z</time></trkpt><trkpt lat="44.24164280912725" lon="11.058691912112183"><ele>430.0</ele><time>2026-05-02T06:33:23Z</time></trkpt><trkpt lat="44.24156580551106" lon="11.058646598999262"><ele>430.0</ele><time>2026-05-02T06:33:24Z</time></trkpt><trkpt lat="44.24145164780838" lon="11.058684111504743"><ele>430.0</ele><time>2026-05-02T06:33:25Z</time></trkpt><trkpt lat="44.24135910881822" lon="11.05876805297639"><ele>430.0</ele><time>2026-05-02T06:33:26Z</time></trkpt><trkpt lat="44.24126963965738" lon="11.05877891597804"><ele>430.0</ele><time>2026-05-02T06:33:27Z</time></trkpt><trkpt lat="44.241201113862175" lon="11.058737278702782"><ele>430.0</ele><time>2026-05-02T06:33:28Z</time></trkpt><trkpt lat="44.24119027318218" lon="11.05853471948413"><ele>430.0</ele><time>2026-05-02T06:33:30Z</time></trkpt><trkpt lat="44.24118210155816" lon="11.05840802312947"><ele>430.0</ele><time>2026-05-02T06:33:31Z</time></trkpt><trkpt lat="44.2411690603947" lon="11.058292176964429"><ele>430.0</ele><time>2026-05-02T06:33:32Z</time></trkpt><trkpt lat="44.24112494559402" lon="11.058145467164026"><ele>430.0</ele><time>2026-05-02T06:33:33Z</time></trkpt><trkpt lat="44.241081250711495" lon="11.058018703041709"><ele>434.75</ele><time>2026-05-02T06:33:34Z</time></trkpt><trkpt lat="44.24105195395056" lon="11.057868485607493"><ele>439.5</ele><time>2026-05-02T06:33:35Z</time></trkpt><trkpt lat="44.241032875299716" lon="11.057716750993826"><ele>444.25</ele><time>2026-05-02T06:33:36Z</time></trkpt><trkpt lat="44.24101434561313" lon="11.05755557084329"><ele>449.0</ele><time>2026-05-02T06:33:37Z</time></trkpt><trkpt lat="44.24099662519459" lon="11.057401430182592"><ele>452.6</ele><time>2026-05-02T06:33:38Z</time></trkpt><trkpt lat="44.24097616192675" lon="11.057266828959419"><ele>456.2</ele><time>2026-05-02T06:33:39Z</time></trkpt><trkpt lat="44.24092446983237" lon="11.057163145757793"><ele>459.80000000000007</ele><time>2026-05-02T06:33:40Z</time></trkpt><trkpt lat="44.24084041822816" lon="11.057074445961636"><ele>463.40000000000003</ele><time>2026-05-02T06:33:41Z</time></trkpt><trkpt lat="44.24073943601763" lon="11.057014100470413"><ele>467.0</ele><time>2026-05-02T06:33:42Z</time></trkpt><trkpt lat="44.240661397609095" lon="11.056953453103972"><ele>467.8333333333333</ele><time>2026-05-02T06:33:43Z</time></trkpt><trkpt lat="44.24057463723254" lon="11.056877683566167"><ele>468.66666666666663</ele><time>2026-05-02T06:33:44Z</time></trkpt><trkpt lat="44.240513348512586" lon="11.0568205720004"><ele>469.5</ele><time>2026-05-02T06:33:45Z</time></trkpt><trkpt lat="44.24044665622901" lon="11.056750826434085"><ele>470.33333333333337</ele><time>2026-05-02T06:33:46Z</time></trkpt><trkpt lat="44.24038683282435" lon="11.056670610828393"><ele>471.1666666666667</ele><time>2026-05-02T06:33:47Z</time></trkpt><trkpt lat="44.240318728956524" lon="11.056599844260631"><ele>472.0</ele><time>2026-05-02T06:33:48Z</time></trkpt><trkpt lat="44.24025691231566" lon="11.056556122613436"><ele>472.0</ele><time>2026-05-02T06:33:49Z</time></trkpt><trkpt lat="44.2400973194386" lon="11.056485400457086"><ele>472.0</ele><time>2026-05-02T06:33:50Z</time></trkpt><trkpt lat="44.23998210922442" lon="11.056453357368163"><ele>472.0</ele><time>2026-05-02T06:33:51Z</time></trkpt><trkpt lat="44.239890962194885" lon="11.056438717164538"><ele>472.0</ele><time>2026-05-02T06:33:52Z</time></trkpt><trkpt lat="44.23977444231887" lon="11.056422146782467"><ele>466.5</ele><time>2026-05-02T06:33:53Z</time></trkpt><trkpt lat="44.23961138139818" lon="11.056437151732526"><ele>461.0</ele><time>2026-05-02T06:33:54Z</time></trkpt><trkpt lat="44.23947473892168" lon="11.056432569561407"><ele>455.5</ele><time>2026-05-02T06:33:55Z</time></trkpt><trkpt lat="44.23935603619768" lon="11.056423856526987"><ele>450.0</ele><time>2026-05-02T06:33:56Z</time></trkpt><trkpt lat="44.23923390986585" lon="11.05639436320987"><ele>450.0</ele><time>2026-05-02T06:33:57Z</time></trkpt><trkpt lat="44.23912651762994" lon="11.056348347080245"><ele>450.0</ele><time>2026-05-02T06:33:58Z</time></trkpt><trkpt lat="44.239032379848325" lon="11.056278474548561"><ele>450.0</ele><time>2026-05-02T06:33:59Z</time></trkpt><trkpt lat="44.238932756879485" lon="11.056209687799011"><ele>450.0</ele><time>2026-05-02T06:34:00Z</time></trkpt><trkpt lat="44.23883291600122" lon="11.056135997594291"><ele>450.0</ele><time>2026-05-02T06:34:01Z</time></trkpt><trkpt lat="44.238771062336696" lon="11.056011615920822"><ele>449.6</ele><time>2026-05-02T06:34:02Z</time></trkpt><trkpt lat="44.238706860797926" lon="11.05588989101195"><ele>449.2</ele><time>2026-05-02T06:34:03Z</time></trkpt><trkpt lat="44.23864587967982" lon="11.055762481453176"><ele>448.79999999999995</ele><time>2026-05-02T06:34:04Z</time></trkpt><trkpt lat="44.238591706708284" lon="11.055634976692875"><ele>448.4</ele><time>2026-05-02T06:34:05Z</time></trkpt><trkpt lat="44.238537208940265" lon="11.055480442196881"><ele>448.0</ele><time>2026-05-02T06:34:06Z</time></trkpt><trkpt lat="44.23849206683539" lon="11.055324381175188"><ele>446.0</ele><time>2026-05-02T06:34:07Z</time></trkpt><trkpt lat="44.238443711126074" lon="11.055157227131485"><ele>444.0</ele><time>2026-05-02T06:34:08Z</time></trkpt><trkpt lat="44.23839231263794" lon="11.054979815293285"><ele>442.0</ele><time>2026-05-02T06:34:09Z</time></trkpt><trkpt lat="44.23834005892384" lon="11.054802854099362"><ele>440.0</ele><time>2026-05-02T06:34:10Z</time></trkpt><trkpt lat="44.23826899204699" lon="11.054609100725221"><ele>439.0</ele><time>2026-05-02T06:34:11Z</time></trkpt><trkpt lat="44.23821043965769" lon="11.054404348681752"><ele>438.0</ele><time>2026-05-02T06:34:12Z</time></trkpt><trkpt lat="44.238162699449234" lon="11.054196268238115"><ele>437.0</ele><time>2026-05-02T06:34:13Z</time></trkpt><trkpt lat="44.238106467901225" lon="11.054002514342134"><ele>433.5</ele><time>2026-05-02T06:34:14Z</time></trkpt><trkpt lat="44.23803587680392" lon="11.053811606810484"><ele>430.0</ele><time>2026-05-02T06:34:15Z</time></trkpt><trkpt lat="44.237986124997484" lon="11.053633393453692"><ele>426.5</ele><time>2026-05-02T06:34:16Z</time></trkpt><trkpt lat="44.23794919959693" lon="11.05347633281475"><ele>423.0</ele><time>2026-05-02T06:34:17Z</time></trkpt><trkpt lat="44.23791710369639" lon="11.053363940261228"><ele>421.59999999999997</ele><time>2026-05-02T06:34:18Z</time></trkpt><trkpt lat="44.23788961868331" lon="11.053245482674644"><ele>420.2</ele><time>2026-05-02T06:34:20Z</time></trkpt><trkpt lat="44.23789273275647" lon="11.05314746435823"><ele>418.8</ele><time>2026-05-02T06:34:22Z</time></trkpt><trkpt lat="44.238069931814856" lon="11.053210718314297"><ele>417.4</ele><time>2026-05-02T06:34:24Z</time></trkpt><trkpt lat="44.23816449720376" lon="11.053267592337162"><ele>416.0</ele><time>2026-05-02T06:34:25Z</time></trkpt><trkpt lat="44.238292831304896" lon="11.053301242291825"><ele>419.4</ele><time>2026-05-02T06:34:26Z</time></trkpt><trkpt lat="44.238406880935436" lon="11.053314871805672"><ele>422.8</ele><time>2026-05-02T06:34:27Z</time></trkpt><trkpt lat="44.23852633217143" lon="11.05332129755609"><ele>426.19999999999993</ele><time>2026-05-02T06:34:28Z</time></trkpt><trkpt lat="44.23861059671692" lon="11.05331547843377"><ele>429.59999999999997</ele><time>2026-05-02T06:34:29Z</time></trkpt><trkpt lat="44.23870868496316" lon="11.053335943017746"><ele>433.0</ele><time>2026-05-02T06:34:31Z</time></trkpt><trkpt lat="44.23879683324263" lon="11.053348021874973"><ele>438.0</ele><time>2026-05-02T06:34:34Z</time></trkpt><trkpt lat="44.23895143655783" lon="11.052906149564052"><ele>443.0</ele><time>2026-05-02T06:34:39Z</time></trkpt><trkpt lat="44.23897451472693" lon="11.052794211630419"><ele>448.0</ele><time>2026-05-02T06:34:40Z</time></trkpt><trkpt lat="44.23901239785713" lon="11.052695853374267"><ele>448.00000000000006</ele><time>2026-05-02T06:34:40.999Z</time></trkpt><trkpt lat="44.23903760618381" lon="11.052599089584653"><ele>448.0</ele><time>2026-05-02T06:34:41.999Z</time></trkpt><trkpt lat="44.23908442597173" lon="11.052495071335105"><ele>448.0</ele><time>2026-05-02T06:34:42.999Z</time></trkpt><trkpt lat="44.23912513629593" lon="11.05238215356054"><ele>448.0</ele><time>2026-05-02T06:34:43.999Z</time></trkpt><trkpt lat="44.23916751812667" lon="11.052310406838032"><ele>448.00000000000006</ele><time>2026-05-02T06:34:44.999Z</time></trkpt><trkpt lat="44.23922840254461" lon="11.052245653658087"><ele>448.0</ele><time>2026-05-02T06:34:46.999Z</time></trkpt><trkpt lat="44.23933941975528" lon="11.052164877998786"><ele>448.0</ele><time>2026-05-02T06:34:48.999Z</time></trkpt><trkpt lat="44.23945339494" lon="11.052159463194895"><ele>447.99999999999994</ele><time>2026-05-02T06:34:51.999Z</time></trkpt><trkpt lat="44.239540371453586" lon="11.052285276153299"><ele>447.99999999999994</ele><time>2026-05-02T06:34:54.999Z</time></trkpt><trkpt lat="44.239592392823496" lon="11.052349860604377"><ele>448.0</ele><time>2026-05-02T06:34:55.999Z</time></trkpt><trkpt lat="44.2396512265993" lon="11.05241610460296"><ele>448.0</ele><time>2026-05-02T06:34:56.999Z</time></trkpt><trkpt lat="44.23971633448024" lon="11.052511620077809"><ele>448.0</ele><time>2026-05-02T06:34:58.999Z</time></trkpt><trkpt lat="44.239751826882454" lon="11.052595401943726"><ele>447.99999999999994</ele><time>2026-05-02T06:34:59.999Z</time></trkpt><trkpt lat="44.239820069129884" lon="11.052642775608238"><ele>447.99999999999994</ele><time>2026-05-02T06:35:01.999Z</time></trkpt><trkpt lat="44.2399163807934" lon="11.052632542519072"><ele>448.0</ele><time>2026-05-02T06:35:03.999Z</time></trkpt><trkpt lat="44.24001869760672" lon="11.052626764183092"><ele>448.0</ele><time>2026-05-02T06:35:05.999Z</time></trkpt><trkpt lat="44.24012652829678" lon="11.052592635757941"><ele>449.2</ele><time>2026-05-02T06:35:07.999Z</time></trkpt><trkpt lat="44.24026558074985" lon="11.05261481070316"><ele>450.4</ele><time>2026-05-02T06:35:09.999Z</time></trkpt><trkpt lat="44.240340679815446" lon="11.05260182540035"><ele>451.59999999999997</ele><time>2026-05-02T06:35:10.999Z</time></trkpt><trkpt lat="44.240445473878104" lon="11.052561684981278"><ele>452.79999999999995</ele><time>2026-05-02T06:35:12.999Z</time></trkpt><trkpt lat="44.240468123319616" lon="11.052469950400404"><ele>454.0</ele><time>2026-05-02T06:35:13.999Z</time></trkpt><trkpt lat="44.24050095971267" lon="11.05235583514127"><ele>452.50000000000006</ele><time>2026-05-02T06:35:14.999Z</time></trkpt><trkpt lat="44.24051430739968" lon="11.052244086362194"><ele>451.0</ele><time>2026-05-02T06:35:16Z</time></trkpt><trkpt lat="44.24054942846445" lon="11.052140215898255"><ele>449.5</ele><time>2026-05-02T06:35:18Z</time></trkpt><trkpt lat="44.24061102259321" lon="11.052104636855333"><ele>448.0</ele><time>2026-05-02T06:35:19Z</time></trkpt><trkpt lat="44.240690401092934" lon="11.052046787910195"><ele>446.50000000000006</ele><time>2026-05-02T06:35:20Z</time></trkpt><trkpt lat="44.24076967885381" lon="11.051977533905644"><ele>445.0</ele><time>2026-05-02T06:35:21Z</time></trkpt><trkpt lat="44.24083179213898" lon="11.051907845049353"><ele>445.0</ele><time>2026-05-02T06:35:22Z</time></trkpt><trkpt lat="44.24088572534596" lon="11.051809821711648"><ele>445.0</ele><time>2026-05-02T06:35:23Z</time></trkpt><trkpt lat="44.24093366571448" lon="11.05165266240057"><ele>445.0</ele><time>2026-05-02T06:35:24Z</time></trkpt><trkpt lat="44.24098031839736" lon="11.051445668617497"><ele>445.0</ele><time>2026-05-02T06:35:25Z</time></trkpt><trkpt lat="44.241028404697225" lon="11.051285568733196"><ele>442.2</ele><time>2026-05-02T06:35:26Z</time></trkpt><trkpt lat="44.24105808352138" lon="11.051165487774098"><ele>439.4</ele><time>2026-05-02T06:35:27Z</time></trkpt><trkpt lat="44.24107755790471" lon="11.051005171831516"><ele>436.6</ele><time>2026-05-02T06:35:28Z</time></trkpt><trkpt lat="44.24109644427622" lon="11.050840892146262"><ele>433.8</ele><time>2026-05-02T06:35:29Z</time></trkpt><trkpt lat="44.241116473355696" lon="11.050692396801072"><ele>431.0</ele><time>2026-05-02T06:35:30Z</time></trkpt><trkpt lat="44.24112380036331" lon="11.050571956451996"><ele>431.0</ele><time>2026-05-02T06:35:31Z</time></trkpt><trkpt lat="44.24113722009722" lon="11.050455030156138"><ele>431.0</ele><time>2026-05-02T06:35:33Z</time></trkpt><trkpt lat="44.24128070581229" lon="11.050592463352165"><ele>431.0</ele><time>2026-05-02T06:35:39Z</time></trkpt><trkpt lat="44.24127140467083" lon="11.050722979452866"><ele>431.0</ele><time>2026-05-02T06:35:41Z</time></trkpt><trkpt lat="44.24126183060847" lon="11.050815206422802"><ele>431.0</ele><time>2026-05-02T06:35:42Z</time></trkpt><trkpt lat="44.24126250959378" lon="11.050908563724146"><ele>431.0</ele><time>2026-05-02T06:35:43Z</time></trkpt><trkpt lat="44.24126194214015" lon="11.051018199433914"><ele>431.0</ele><time>2026-05-02T06:35:44Z</time></trkpt><trkpt lat="44.24126390766199" lon="11.051128195464287"><ele>431.0</ele><time>2026-05-02T06:35:45Z</time></trkpt><trkpt lat="44.24128425495389" lon="11.051226241977687"><ele>431.0</ele><time>2026-05-02T06:35:46Z</time></trkpt><trkpt lat="44.24133073437211" lon="11.051419513416018"><ele>431.0</ele><time>2026-05-02T06:35:48Z</time></trkpt><trkpt lat="44.241348531821906" lon="11.051523878553096"><ele>430.99999999999994</ele><time>2026-05-02T06:35:49Z</time></trkpt><trkpt lat="44.241370708820085" lon="11.051618028710703"><ele>431.0</ele><time>2026-05-02T06:35:50Z</time></trkpt><trkpt lat="44.24140178595193" lon="11.051696709798764"><ele>431.0</ele><time>2026-05-02T06:35:51Z</time></trkpt><trkpt lat="44.241464339455696" lon="11.051783779978829"><ele>431.0</ele><time>2026-05-02T06:35:52Z</time></trkpt><trkpt lat="44.24152220994041" lon="11.05184608887943"><ele>430.99999999999994</ele><time>2026-05-02T06:35:53Z</time></trkpt><trkpt lat="44.241585238443704" lon="11.051865776660629"><ele>431.0</ele><time>2026-05-02T06:35:54Z</time></trkpt><trkpt lat="44.24172342478065" lon="11.05186192277949"><ele>436.4</ele><time>2026-05-02T06:35:56Z</time></trkpt><trkpt lat="44.241789475759134" lon="11.051861067947561"><ele>441.8</ele><time>2026-05-02T06:35:57Z</time></trkpt><trkpt lat="44.24191985993621" lon="11.05188016169887"><ele>447.19999999999993</ele><time>2026-05-02T06:35:59Z</time></trkpt><trkpt lat="44.24200423531273" lon="11.051887640726317"><ele>452.59999999999997</ele><time>2026-05-02T06:36:00Z</time></trkpt><trkpt lat="44.242097030787164" lon="11.051896619490233"><ele>458.0</ele><time>2026-05-02T06:36:01Z</time></trkpt><trkpt lat="44.242188453701026" lon="11.051893251782511"><ele>457.75</ele><time>2026-05-02T06:36:02Z</time></trkpt><trkpt lat="44.2423020280634" lon="11.051773620558864"><ele>457.5</ele><time>2026-05-02T06:36:04Z</time></trkpt><trkpt lat="44.24237576584531" lon="11.051719058899197"><ele>457.25</ele><time>2026-05-02T06:36:05Z</time></trkpt><trkpt lat="44.24245186416824" lon="11.051668551381093"><ele>457.0</ele><time>2026-05-02T06:36:06Z</time></trkpt><trkpt lat="44.242646002937576" lon="11.051535532367776"><ele>452.40000000000003</ele><time>2026-05-02T06:36:07Z</time></trkpt><trkpt lat="44.24272872040015" lon="11.05144072339623"><ele>447.80000000000007</ele><time>2026-05-02T06:36:08Z</time></trkpt><trkpt lat="44.24279807974689" lon="11.051320082796284"><ele>443.2</ele><time>2026-05-02T06:36:09Z</time></trkpt><trkpt lat="44.242852891422004" lon="11.051240259117709"><ele>438.6</ele><time>2026-05-02T06:36:10Z</time></trkpt><trkpt lat="44.242918425272045" lon="11.051183011910181"><ele>434.0</ele><time>2026-05-02T06:36:11Z</time></trkpt><trkpt lat="44.24300402282085" lon="11.051125736359253"><ele>433.99999999999994</ele><time>2026-05-02T06:36:12Z</time></trkpt><trkpt lat="44.24308360605704" lon="11.051072164337064"><ele>434.0</ele><time>2026-05-02T06:36:13Z</time></trkpt><trkpt lat="44.24314828924136" lon="11.051035777314329"><ele>434.0</ele><time>2026-05-02T06:36:14Z</time></trkpt><trkpt lat="44.24322081889396" lon="11.050941355472176"><ele>434.0</ele><time>2026-05-02T06:36:16Z</time></trkpt><trkpt lat="44.24328197134722" lon="11.050857796086035"><ele>433.99999999999994</ele><time>2026-05-02T06:36:17Z</time></trkpt><trkpt lat="44.24333514233312" lon="11.050754459480341"><ele>434.0</ele><time>2026-05-02T06:36:18Z</time></trkpt><trkpt lat="44.24337453383474" lon="11.050629466747084"><ele>434.99999999999994</ele><time>2026-05-02T06:36:19Z</time></trkpt><trkpt lat="44.243406352343186" lon="11.050529502924595"><ele>436.0</ele><time>2026-05-02T06:36:20Z</time></trkpt><trkpt lat="44.2434394212054" lon="11.050408394770624"><ele>437.0</ele><time>2026-05-02T06:36:21Z</time></trkpt><trkpt lat="44.24346407780525" lon="11.050277383025888"><ele>438.0</ele><time>2026-05-02T06:36:22Z</time></trkpt><trkpt lat="44.24349718209162" lon="11.050158742018755"><ele>438.99999999999994</ele><time>2026-05-02T06:36:23Z</time></trkpt><trkpt lat="44.24353944283486" lon="11.050084912753166"><ele>440.0</ele><time>2026-05-02T06:36:25Z</time></trkpt><trkpt lat="44.24366443849952" lon="11.05005411774771"><ele>440.0</ele><time>2026-05-02T06:36:27Z</time></trkpt><trkpt lat="44.24376594756165" lon="11.050039761648378"><ele>440.0</ele><time>2026-05-02T06:36:28Z</time></trkpt><trkpt lat="44.243848084457774" lon="11.050040813584"><ele>440.0</ele><time>2026-05-02T06:36:29Z</time></trkpt><trkpt lat="44.24396693225256" lon="11.050024636781355"><ele>440.0</ele><time>2026-05-02T06:36:31Z</time></trkpt><trkpt lat="44.244040833436976" lon="11.050044873230656"><ele>440.0</ele><time>2026-05-02T06:36:32Z</time></trkpt><trkpt lat="44.24411271782672" lon="11.050065015004503"><ele>443.8</ele><time>2026-05-02T06:36:33Z</time></trkpt><trkpt lat="44.244249728284224" lon="11.050164697052145"><ele>447.6</ele><time>2026-05-02T06:36:35Z</time></trkpt><trkpt lat="44.24431385815133" lon="11.050208681608384"><ele>451.4</ele><time>2026-05-02T06:36:36Z</time></trkpt><trkpt lat="44.24438093779117" lon="11.050231524718793"><ele>455.2</ele><time>2026-05-02T06:36:37Z</time></trkpt><trkpt lat="44.244478692759714" lon="11.0502098511315"><ele>459.0</ele><time>2026-05-02T06:36:39Z</time></trkpt><trkpt lat="44.24453540503635" lon="11.050145342169696"><ele>459.0</ele><time>2026-05-02T06:36:40Z</time></trkpt><trkpt lat="44.24459450247232" lon="11.050108026156504"><ele>459.0</ele><time>2026-05-02T06:36:41Z</time></trkpt><trkpt lat="44.24469063566302" lon="11.050086305473158"><ele>459.0</ele><time>2026-05-02T06:36:43Z</time></trkpt><trkpt lat="44.244788001753065" lon="11.050083920931872"><ele>459.0</ele><time>2026-05-02T06:36:44Z</time></trkpt><trkpt lat="44.244887005648025" lon="11.05008165856257"><ele>459.0</ele><time>2026-05-02T06:36:44.999Z</time></trkpt><trkpt lat="44.2449993353319" lon="11.050073039630098"><ele>460.0</ele><time>2026-05-02T06:36:45.999Z</time></trkpt><trkpt lat="44.245067688190844" lon="11.050058275624664"><ele>461.0</ele><time>2026-05-02T06:36:47.999Z</time></trkpt><trkpt lat="44.24515012396533" lon="11.049914442271655"><ele>462.0</ele><time>2026-05-02T06:36:49.999Z</time></trkpt><trkpt lat="44.24518843317664" lon="11.04983829398499"><ele>463.0</ele><time>2026-05-02T06:36:50.999Z</time></trkpt><trkpt lat="44.245231265857306" lon="11.049749523322795"><ele>464.0</ele><time>2026-05-02T06:36:51.999Z</time></trkpt><trkpt lat="44.24526870717596" lon="11.049670358823446"><ele>465.0</ele><time>2026-05-02T06:36:52.999Z</time></trkpt><trkpt lat="44.24531467127564" lon="11.049582479776872"><ele>462.0</ele><time>2026-05-02T06:36:54.999Z</time></trkpt><trkpt lat="44.24536029018284" lon="11.049517479772925"><ele>459.0</ele><time>2026-05-02T06:36:56.999Z</time></trkpt><trkpt lat="44.24531204293259" lon="11.049407928461653"><ele>456.0</ele><time>2026-05-02T06:36:59.999Z</time></trkpt><trkpt lat="44.24520570322563" lon="11.049355920306201"><ele>453.0</ele><time>2026-05-02T06:37:01.999Z</time></trkpt><trkpt lat="44.24515197251673" lon="11.04926572573414"><ele>450.0</ele><time>2026-05-02T06:37:03.999Z</time></trkpt><trkpt lat="44.24510251192702" lon="11.04911065899945"><ele>449.4</ele><time>2026-05-02T06:37:05.999Z</time></trkpt><trkpt lat="44.24508149923702" lon="11.049001134282795"><ele>448.8</ele><time>2026-05-02T06:37:07.999Z</time></trkpt><trkpt lat="44.245136857337975" lon="11.04885456182252"><ele>448.20000000000005</ele><time>2026-05-02T06:37:09.999Z</time></trkpt><trkpt lat="44.2451638899705" lon="11.04874687312645"><ele>447.6</ele><time>2026-05-02T06:37:10.999Z</time></trkpt><trkpt lat="44.24514933847137" lon="11.048594767984413"><ele>447.0</ele><time>2026-05-02T06:37:12.999Z</time></trkpt><trkpt lat="44.245163369383846" lon="11.048440558559069"><ele>447.0</ele><time>2026-05-02T06:37:14.999Z</time></trkpt><trkpt lat="44.24516877383571" lon="11.048241030459389"><ele>447.0</ele><time>2026-05-02T06:37:16.999Z</time></trkpt><trkpt lat="44.245165383356586" lon="11.048152568684918"><ele>447.0</ele><time>2026-05-02T06:37:17.999Z</time></trkpt><trkpt lat="44.24517015473806" lon="11.048045915563291"><ele>447.0</ele><time>2026-05-02T06:37:18.999Z</time></trkpt><trkpt lat="44.24517227385617" lon="11.047920108227085"><ele>447.0</ele><time>2026-05-02T06:37:19.999Z</time></trkpt><trkpt lat="44.245182828469545" lon="11.047822715606594"><ele>447.0</ele><time>2026-05-02T06:37:22Z</time></trkpt><trkpt lat="44.2451701944418" lon="11.047717711301386"><ele>447.0</ele><time>2026-05-02T06:37:25Z</time></trkpt><trkpt lat="44.2451760590267" lon="11.047595706687563"><ele>447.00000000000006</ele><time>2026-05-02T06:37:27Z</time></trkpt><trkpt lat="44.245176816547904" lon="11.047479113760852"><ele>447.00000000000006</ele><time>2026-05-02T06:37:29Z</time></trkpt><trkpt lat="44.24515995183664" lon="11.047371425140938"><ele>447.0</ele><time>2026-05-02T06:37:31Z</time></trkpt><trkpt lat="44.245210785928535" lon="11.047274512710084"><ele>447.0</ele><time>2026-05-02T06:37:32Z</time></trkpt><trkpt lat="44.2451781616279" lon="11.047085407041635"><ele>450.3333333333333</ele><time>2026-05-02T06:37:34Z</time></trkpt><trkpt lat="44.24515948920671" lon="11.046982846107209"><ele>453.66666666666663</ele><time>2026-05-02T06:37:35Z</time></trkpt><trkpt lat="44.24513188499456" lon="11.0468620191531"><ele>457.0</ele><time>2026-05-02T06:37:36Z</time></trkpt><trkpt lat="44.245099444639685" lon="11.046765622610533"><ele>460.3333333333333</ele><time>2026-05-02T06:37:37Z</time></trkpt><trkpt lat="44.24505673597726" lon="11.046658810561748"><ele>463.66666666666663</ele><time>2026-05-02T06:37:38Z</time></trkpt><trkpt lat="44.24501443470602" lon="11.046562542906278"><ele>467.0</ele><time>2026-05-02T06:37:39Z</time></trkpt><trkpt lat="44.244960831929404" lon="11.046452413721573"><ele>464.99999999999994</ele><time>2026-05-02T06:37:40Z</time></trkpt><trkpt lat="44.244904404415834" lon="11.04636244429945"><ele>463.0</ele><time>2026-05-02T06:37:41Z</time></trkpt><trkpt lat="44.24484602654339" lon="11.04628349952924"><ele>461.0</ele><time>2026-05-02T06:37:42Z</time></trkpt><trkpt lat="44.24479234870738" lon="11.046141707089655"><ele>459.0</ele><time>2026-05-02T06:37:44Z</time></trkpt><trkpt lat="44.24477801393341" lon="11.04605266835138"><ele>456.99999999999994</ele><time>2026-05-02T06:37:45Z</time></trkpt><trkpt lat="44.24478315086357" lon="11.045944380699082"><ele>455.0</ele><time>2026-05-02T06:37:46Z</time></trkpt><trkpt lat="44.24478524789112" lon="11.045828273178408"><ele>456.0</ele><time>2026-05-02T06:37:47Z</time></trkpt><trkpt lat="44.244776175505834" lon="11.045697494383276"><ele>457.0</ele><time>2026-05-02T06:37:48Z</time></trkpt><trkpt lat="44.24471614751493" lon="11.045573939279173"><ele>458.0</ele><time>2026-05-02T06:37:49Z</time></trkpt><trkpt lat="44.244631020307644" lon="11.045493444361636"><ele>459.0</ele><time>2026-05-02T06:37:50Z</time></trkpt><trkpt lat="44.24457617208746" lon="11.0454173301015"><ele>460.0</ele><time>2026-05-02T06:37:51Z</time></trkpt><trkpt lat="44.24451937761068" lon="11.045307791034762"><ele>460.0</ele><time>2026-05-02T06:37:53Z</time></trkpt><trkpt lat="44.24455815975162" lon="11.045222468114948"><ele>460.0</ele><time>2026-05-02T06:37:55Z</time></trkpt><trkpt lat="44.24464827437964" lon="11.045098400980391"><ele>460.0</ele><time>2026-05-02T06:37:57Z</time></trkpt><trkpt lat="44.24470848766006" lon="11.045012299368814"><ele>460.0</ele><time>2026-05-02T06:37:58Z</time></trkpt><trkpt lat="44.24476366196263" lon="11.044905044919346"><ele>460.0</ele><time>2026-05-02T06:37:59Z</time></trkpt><trkpt lat="44.24484669721284" lon="11.044801463521587"><ele>461.0</ele><time>2026-05-02T06:38:00Z</time></trkpt><trkpt lat="44.24493823716142" lon="11.044684404920474"><ele>462.0</ele><time>2026-05-02T06:38:01Z</time></trkpt><trkpt lat="44.245036069324165" lon="11.04457004078001"><ele>463.0</ele><time>2026-05-02T06:38:02Z</time></trkpt><trkpt lat="44.24513655538215" lon="11.044511983123327"><ele>464.0</ele><time>2026-05-02T06:38:03Z</time></trkpt><trkpt lat="44.24521325382893" lon="11.044436583532564"><ele>464.0</ele><time>2026-05-02T06:38:04Z</time></trkpt><trkpt lat="44.24529407648639" lon="11.044380759348286"><ele>464.0</ele><time>2026-05-02T06:38:05Z</time></trkpt><trkpt lat="44.24536693576477" lon="11.044337821466494"><ele>464.0</ele><time>2026-05-02T06:38:06Z</time></trkpt><trkpt lat="44.245465476595065" lon="11.044342895750207"><ele>464.0</ele><time>2026-05-02T06:38:07Z</time></trkpt><trkpt lat="44.24555593119216" lon="11.044339245021474"><ele>464.0</ele><time>2026-05-02T06:38:08Z</time></trkpt><trkpt lat="44.24566476428947" lon="11.044344735515505"><ele>465.5</ele><time>2026-05-02T06:38:09Z</time></trkpt><trkpt lat="44.24578911907152" lon="11.044329784585088"><ele>467.0</ele><time>2026-05-02T06:38:10Z</time></trkpt><trkpt lat="44.245880353346614" lon="11.044309146399037"><ele>468.5</ele><time>2026-05-02T06:38:11Z</time></trkpt><trkpt lat="44.24598258526893" lon="11.044296586890574"><ele>470.0</ele><time>2026-05-02T06:38:13Z</time></trkpt><trkpt lat="44.24599831666652" lon="11.04410944084695"><ele>470.0</ele><time>2026-05-02T06:38:15Z</time></trkpt><trkpt lat="44.2458690658951" lon="11.044067972374338"><ele>470.0</ele><time>2026-05-02T06:38:16Z</time></trkpt><trkpt lat="44.24577022370052" lon="11.043981125683928"><ele>470.0</ele><time>2026-05-02T06:38:17Z</time></trkpt><trkpt lat="44.2456840015188" lon="11.043896228453951"><ele>470.0</ele><time>2026-05-02T06:38:18Z</time></trkpt><trkpt lat="44.245609183268904" lon="11.04379902630641"><ele>467.16666666666663</ele><time>2026-05-02T06:38:19Z</time></trkpt><trkpt lat="44.245535312463275" lon="11.043734030184021"><ele>464.3333333333333</ele><time>2026-05-02T06:38:20Z</time></trkpt><trkpt lat="44.245452453348754" lon="11.043703969716912"><ele>461.5</ele><time>2026-05-02T06:38:21Z</time></trkpt><trkpt lat="44.24539176824519" lon="11.043677365815935"><ele>458.66666666666663</ele><time>2026-05-02T06:38:22Z</time></trkpt><trkpt lat="44.24533900730998" lon="11.043624906295983"><ele>455.8333333333333</ele><time>2026-05-02T06:38:24Z</time></trkpt><trkpt lat="44.245395969526164" lon="11.043493657906708"><ele>453.0</ele><time>2026-05-02T06:38:26Z</time></trkpt><trkpt lat="44.24545203893652" lon="11.043409856261139"><ele>453.0</ele><time>2026-05-02T06:38:27Z</time></trkpt><trkpt lat="44.245514990616876" lon="11.043360941921389"><ele>452.99999999999994</ele><time>2026-05-02T06:38:28Z</time></trkpt><trkpt lat="44.24558775780019" lon="11.043360408868628"><ele>452.99999999999994</ele><time>2026-05-02T06:38:29Z</time></trkpt><trkpt lat="44.24567643150516" lon="11.043339179574145"><ele>453.0</ele><time>2026-05-02T06:38:30Z</time></trkpt><trkpt lat="44.24578851899809" lon="11.043340413339523"><ele>453.0</ele><time>2026-05-02T06:38:31Z</time></trkpt><trkpt lat="44.24589098494551" lon="11.04328702529471"><ele>454.59999999999997</ele><time>2026-05-02T06:38:32Z</time></trkpt><trkpt lat="44.24599504820496" lon="11.043238773629463"><ele>456.19999999999993</ele><time>2026-05-02T06:38:33Z</time></trkpt><trkpt lat="44.24608448175645" lon="11.043174277625269"><ele>457.8</ele><time>2026-05-02T06:38:34Z</time></trkpt><trkpt lat="44.246169604933286" lon="11.04313363248166"><ele>459.4</ele><time>2026-05-02T06:38:35Z</time></trkpt><trkpt lat="44.24625400316033" lon="11.043017609298797"><ele>461.0</ele><time>2026-05-02T06:38:37Z</time></trkpt><trkpt lat="44.24627203873626" lon="11.042921461446296"><ele>461.0</ele><time>2026-05-02T06:38:38Z</time></trkpt><trkpt lat="44.24625044413514" lon="11.042810556867828"><ele>461.0</ele><time>2026-05-02T06:38:39Z</time></trkpt><trkpt lat="44.246211621998185" lon="11.042740738873686"><ele>461.0</ele><time>2026-05-02T06:38:42Z</time></trkpt><trkpt lat="44.24628000497839" lon="11.042804342274259"><ele>461.0</ele><time>2026-05-02T06:38:45Z</time></trkpt><trkpt lat="44.24634611393983" lon="11.04288791738009"><ele>461.0</ele><time>2026-05-02T06:38:47Z</time></trkpt><trkpt lat="44.246495227439794" lon="11.042799671734725"><ele>463.20000000000005</ele><time>2026-05-02T06:38:50.999Z</time></trkpt><trkpt lat="44.246559489924614" lon="11.042726373682612"><ele>465.40000000000003</ele><time>2026-05-02T06:38:51.999Z</time></trkpt><trkpt lat="44.24663995644374" lon="11.042639031028683"><ele>467.6</ele><time>2026-05-02T06:38:52.999Z</time></trkpt><trkpt lat="44.246732202500716" lon="11.042529122628535"><ele>469.8</ele><time>2026-05-02T06:38:53.999Z</time></trkpt><trkpt lat="44.24682622486463" lon="11.04242369692742"><ele>472.0</ele><time>2026-05-02T06:38:54.999Z</time></trkpt><trkpt lat="44.24689297356041" lon="11.042364566774998"><ele>472.00000000000006</ele><time>2026-05-02T06:38:55.999Z</time></trkpt><trkpt lat="44.24694570078743" lon="11.042307194906092"><ele>472.0</ele><time>2026-05-02T06:38:56.999Z</time></trkpt><trkpt lat="44.24699827082606" lon="11.042224384010812"><ele>472.0</ele><time>2026-05-02T06:38:57.999Z</time></trkpt><trkpt lat="44.24705806256481" lon="11.042137619399853"><ele>472.0</ele><time>2026-05-02T06:38:58.999Z</time></trkpt><trkpt lat="44.24712286625165" lon="11.042045289185047"><ele>472.00000000000006</ele><time>2026-05-02T06:38:59.999Z</time></trkpt><trkpt lat="44.24719672222019" lon="11.041930432631947"><ele>472.0</ele><time>2026-05-02T06:39:00.999Z</time></trkpt><trkpt lat="44.24727061161448" lon="11.04181007446284"><ele>476.25</ele><time>2026-05-02T06:39:01.999Z</time></trkpt><trkpt lat="44.24735800725807" lon="11.04167899724345"><ele>480.5</ele><time>2026-05-02T06:39:02.999Z</time></trkpt><trkpt lat="44.247445682199555" lon="11.041562129581624"><ele>484.75</ele><time>2026-05-02T06:39:03.999Z</time></trkpt><trkpt lat="44.24752945391666" lon="11.041438045942579"><ele>489.0</ele><time>2026-05-02T06:39:05.999Z</time></trkpt><trkpt lat="44.247628134706105" lon="11.041345710224045"><ele>489.0</ele><time>2026-05-02T06:39:07.999Z</time></trkpt><trkpt lat="44.24774826131714" lon="11.0412763131856"><ele>489.0</ele><time>2026-05-02T06:39:09.999Z</time></trkpt><trkpt lat="44.24782293394258" lon="11.041258301063817"><ele>489.0</ele><time>2026-05-02T06:39:10.999Z</time></trkpt><trkpt lat="44.24789788317424" lon="11.041219998188824"><ele>489.0</ele><time>2026-05-02T06:39:11.999Z</time></trkpt><trkpt lat="44.247963168689225" lon="11.041087543183526"><ele>489.0</ele><time>2026-05-02T06:39:13.999Z</time></trkpt><trkpt lat="44.24801118036569" lon="11.040986341832824"><ele>489.0</ele><time>2026-05-02T06:39:14.999Z</time></trkpt><trkpt lat="44.24806881408379" lon="11.040874265540053"><ele>489.0</ele><time>2026-05-02T06:39:15.999Z</time></trkpt><trkpt lat="44.248101675512956" lon="11.040786845696365"><ele>489.0</ele><time>2026-05-02T06:39:16.999Z</time></trkpt><trkpt lat="44.24816948794734" lon="11.04068836532897"><ele>489.0</ele><time>2026-05-02T06:39:18.999Z</time></trkpt><trkpt lat="44.248288224931215" lon="11.040596186288589"><ele>489.0</ele><time>2026-05-02T06:39:20.999Z</time></trkpt><trkpt lat="44.24835756051685" lon="11.040569513039122"><ele>492.2</ele><time>2026-05-02T06:39:21.999Z</time></trkpt><trkpt lat="44.24842088042278" lon="11.040543233055269"><ele>495.4</ele><time>2026-05-02T06:39:22.999Z</time></trkpt><trkpt lat="44.24850629768404" lon="11.040464177789332"><ele>498.6</ele><time>2026-05-02T06:39:24.999Z</time></trkpt><trkpt lat="44.24854252908732" lon="11.04032203875562"><ele>501.8</ele><time>2026-05-02T06:39:26.999Z</time></trkpt><trkpt lat="44.248566364450895" lon="11.040170096913164"><ele>505.0</ele><time>2026-05-02T06:39:29Z</time></trkpt><trkpt lat="44.24853431297409" lon="11.040030792818913"><ele>505.83333333333337</ele><time>2026-05-02T06:39:30Z</time></trkpt><trkpt lat="44.24850677601501" lon="11.039928383230675"><ele>506.6666666666667</ele><time>2026-05-02T06:39:31Z</time></trkpt><trkpt lat="44.24848075444416" lon="11.039826427153189"><ele>507.5</ele><time>2026-05-02T06:39:32Z</time></trkpt><trkpt lat="44.24844972696205" lon="11.039709537648577"><ele>508.33333333333337</ele><time>2026-05-02T06:39:33Z</time></trkpt><trkpt lat="44.248416162388956" lon="11.039586165398635"><ele>509.1666666666667</ele><time>2026-05-02T06:39:34Z</time></trkpt><trkpt lat="44.24838849635795" lon="11.039480203289633"><ele>510.0</ele><time>2026-05-02T06:39:35Z</time></trkpt><trkpt lat="44.24836911910901" lon="11.039352536685405"><ele>510.0</ele><time>2026-05-02T06:39:36Z</time></trkpt><trkpt lat="44.24833764889873" lon="11.039202783476911"><ele>510.0</ele><time>2026-05-02T06:39:37Z</time></trkpt><trkpt lat="44.24829620811075" lon="11.03904794160929"><ele>510.0</ele><time>2026-05-02T06:39:38Z</time></trkpt><trkpt lat="44.24826092388084" lon="11.038914408390088"><ele>510.0</ele><time>2026-05-02T06:39:39Z</time></trkpt><trkpt lat="44.24822959229563" lon="11.038808909292595"><ele>510.0</ele><time>2026-05-02T06:39:40Z</time></trkpt><trkpt lat="44.24820740185472" lon="11.038722482480983"><ele>511.0</ele><time>2026-05-02T06:39:41Z</time></trkpt><trkpt lat="44.248175194693026" lon="11.03858700503256"><ele>512.0</ele><time>2026-05-02T06:39:43Z</time></trkpt><trkpt lat="44.248189724315274" lon="11.03845811468467"><ele>513.0</ele><time>2026-05-02T06:39:45Z</time></trkpt><trkpt lat="44.2481845477574" lon="11.038251986907104"><ele>514.0</ele><time>2026-05-02T06:39:47Z</time></trkpt><trkpt lat="44.24818460268962" lon="11.038106379176808"><ele>515.0</ele><time>2026-05-02T06:39:48Z</time></trkpt><trkpt lat="44.24818502860996" lon="11.03794925724727"><ele>516.0</ele><time>2026-05-02T06:39:49Z</time></trkpt><trkpt lat="44.24818549376334" lon="11.037777661941696"><ele>517.0</ele><time>2026-05-02T06:39:50Z</time></trkpt><trkpt lat="44.24818656017815" lon="11.037600948638886"><ele>518.0</ele><time>2026-05-02T06:39:51Z</time></trkpt><trkpt lat="44.248171331346875" lon="11.037419045444379"><ele>519.0</ele><time>2026-05-02T06:39:52Z</time></trkpt><trkpt lat="44.24817343333947" lon="11.03727601669722"><ele>520.3333333333334</ele><time>2026-05-02T06:39:53Z</time></trkpt><trkpt lat="44.24816981478336" lon="11.037163667376419"><ele>521.6666666666666</ele><time>2026-05-02T06:39:54Z</time></trkpt><trkpt lat="44.24814238323609" lon="11.037068581499003"><ele>523.0</ele><time>2026-05-02T06:39:55Z</time></trkpt><trkpt lat="44.24812462908186" lon="11.036966475644814"><ele>524.3333333333333</ele><time>2026-05-02T06:39:56Z</time></trkpt><trkpt lat="44.24807784777284" lon="11.036864066395612"><ele>525.6666666666666</ele><time>2026-05-02T06:39:57Z</time></trkpt><trkpt lat="44.248028401979596" lon="11.036784590686977"><ele>527.0</ele><time>2026-05-02T06:39:58Z</time></trkpt><trkpt lat="44.24797005973136" lon="11.03668197274792"><ele>526.3333333333333</ele><time>2026-05-02T06:40:00Z</time></trkpt><trkpt lat="44.24792893152662" lon="11.036610778993944"><ele>525.6666666666666</ele><time>2026-05-02T06:40:02Z</time></trkpt><trkpt lat="44.24788636039832" lon="11.036537087540125"><ele>525.0</ele><time>2026-05-02T06:40:05Z</time></trkpt><trkpt lat="44.248023043676376" lon="11.036493431197684"><ele>524.3333333333334</ele><time>2026-05-02T06:40:07Z</time></trkpt><trkpt lat="44.24809014519431" lon="11.036467360564217"><ele>523.6666666666667</ele><time>2026-05-02T06:40:08Z</time></trkpt><trkpt lat="44.24816970707266" lon="11.036480026910311"><ele>523.0</ele><time>2026-05-02T06:40:09Z</time></trkpt><trkpt lat="44.24826413260571" lon="11.036537816532759"><ele>523.0</ele><time>2026-05-02T06:40:10Z</time></trkpt><trkpt lat="44.248350785643325" lon="11.036624392593032"><ele>523.0</ele><time>2026-05-02T06:40:11Z</time></trkpt><trkpt lat="44.24843043406684" lon="11.036722992055516"><ele>523.0</ele><time>2026-05-02T06:40:12Z</time></trkpt><trkpt lat="44.24851629557831" lon="11.036827724545683"><ele>523.0</ele><time>2026-05-02T06:40:13Z</time></trkpt><trkpt lat="44.24861105451745" lon="11.036936875269483"><ele>523.8</ele><time>2026-05-02T06:40:14Z</time></trkpt><trkpt lat="44.248694093317816" lon="11.037033543220776"><ele>524.5999999999999</ele><time>2026-05-02T06:40:15Z</time></trkpt><trkpt lat="44.24878016746318" lon="11.03711391293515"><ele>525.4000000000001</ele><time>2026-05-02T06:40:16Z</time></trkpt><trkpt lat="44.24887823771511" lon="11.037159061438242"><ele>526.2</ele><time>2026-05-02T06:40:17Z</time></trkpt><trkpt lat="44.24898511055025" lon="11.037157464871916"><ele>527.0</ele><time>2026-05-02T06:40:18Z</time></trkpt><trkpt lat="44.24909386240631" lon="11.037152448371264"><ele>531.6</ele><time>2026-05-02T06:40:19Z</time></trkpt><trkpt lat="44.24919819386274" lon="11.037179650019604"><ele>536.2</ele><time>2026-05-02T06:40:20Z</time></trkpt><trkpt lat="44.24929353271271" lon="11.037190528723627"><ele>540.8</ele><time>2026-05-02T06:40:21Z</time></trkpt><trkpt lat="44.24937803630362" lon="11.03722409532572"><ele>545.4</ele><time>2026-05-02T06:40:22Z</time></trkpt><trkpt lat="44.24944697818442" lon="11.037303844180734"><ele>550.0</ele><time>2026-05-02T06:40:23Z</time></trkpt><trkpt lat="44.24951225154983" lon="11.037386922305146"><ele>550.0</ele><time>2026-05-02T06:40:24Z</time></trkpt><trkpt lat="44.24958533118952" lon="11.037459996215558"><ele>550.0</ele><time>2026-05-02T06:40:25Z</time></trkpt><trkpt lat="44.24966901402007" lon="11.03753554317881"><ele>550.0</ele><time>2026-05-02T06:40:26Z</time></trkpt><trkpt lat="44.249763407073104" lon="11.037621849782111"><ele>550.0</ele><time>2026-05-02T06:40:27Z</time></trkpt><trkpt lat="44.249848518455636" lon="11.037721424927184"><ele>550.0</ele><time>2026-05-02T06:40:28Z</time></trkpt><trkpt lat="44.24992126726168" lon="11.037836548295713"><ele>553.75</ele><time>2026-05-02T06:40:29Z</time></trkpt><trkpt lat="44.24997965517243" lon="11.03797527750001"><ele>557.5</ele><time>2026-05-02T06:40:30Z</time></trkpt><trkpt lat="44.250024430856136" lon="11.038124155942686"><ele>561.25</ele><time>2026-05-02T06:40:31Z</time></trkpt><trkpt lat="44.25004957332365" lon="11.038270457084534"><ele>565.0</ele><time>2026-05-02T06:40:32Z</time></trkpt><trkpt lat="44.2499862706166" lon="11.03842876954619"><ele>565.0</ele><time>2026-05-02T06:40:33Z</time></trkpt><trkpt lat="44.24999765525138" lon="11.038516079477628"><ele>565.0</ele><time>2026-05-02T06:40:34Z</time></trkpt><trkpt lat="44.24999273792474" lon="11.03863160223913"><ele>565.0</ele><time>2026-05-02T06:40:35Z</time></trkpt><trkpt lat="44.250028195508634" lon="11.038733576486932"><ele>565.0</ele><time>2026-05-02T06:40:36Z</time></trkpt><trkpt lat="44.25008243045811" lon="11.038842580936334"><ele>565.0</ele><time>2026-05-02T06:40:37Z</time></trkpt><trkpt lat="44.25010761750685" lon="11.038959212548347"><ele>565.0</ele><time>2026-05-02T06:40:38Z</time></trkpt><trkpt lat="44.25006973103975" lon="11.039051049725042"><ele>565.1666666666667</ele><time>2026-05-02T06:40:39Z</time></trkpt><trkpt lat="44.250047954215404" lon="11.039147539665503"><ele>565.3333333333334</ele><time>2026-05-02T06:40:41Z</time></trkpt><trkpt lat="44.250063908752104" lon="11.039257592648081"><ele>565.5</ele><time>2026-05-02T06:40:44Z</time></trkpt><trkpt lat="44.25010838869823" lon="11.039332708351447"><ele>565.6666666666666</ele><time>2026-05-02T06:40:46Z</time></trkpt><trkpt lat="44.25017685005315" lon="11.039335034795677"><ele>565.8333333333333</ele><time>2026-05-02T06:40:49Z</time></trkpt><trkpt lat="44.25022925279688" lon="11.039284741760518"><ele>566.0</ele><time>2026-05-02T06:40:52.999Z</time></trkpt><trkpt lat="44.250252201512815" lon="11.039146207171573"><ele>565.8333333333333</ele><time>2026-05-02T06:40:55.999Z</time></trkpt><trkpt lat="44.250278882425114" lon="11.039036194266213"><ele>565.6666666666666</ele><time>2026-05-02T06:40:59.999Z</time></trkpt><trkpt lat="44.25030195591863" lon="11.038945301124919"><ele>565.5</ele><time>2026-05-02T06:41:02.999Z</time></trkpt><trkpt lat="44.25032690534289" lon="11.038847018567592"><ele>565.3333333333334</ele><time>2026-05-02T06:41:05.999Z</time></trkpt><trkpt lat="44.250355289061666" lon="11.038738494377402"><ele>565.1666666666667</ele><time>2026-05-02T06:41:08.999Z</time></trkpt><trkpt lat="44.2503834242256" lon="11.038639821401192"><ele>565.0</ele><time>2026-05-02T06:41:11.999Z</time></trkpt><trkpt lat="44.25041732607749" lon="11.03854324232718"><ele>564.9999999999999</ele><time>2026-05-02T06:41:14.999Z</time></trkpt><trkpt lat="44.25049044888977" lon="11.038479872176051"><ele>565.0</ele><time>2026-05-02T06:41:18.999Z</time></trkpt><trkpt lat="44.25055327812009" lon="11.038446766379833"><ele>565.0</ele><time>2026-05-02T06:41:21.999Z</time></trkpt><trkpt lat="44.250600769955284" lon="11.038384424579068"><ele>565.0</ele><time>2026-05-02T06:41:23.999Z</time></trkpt><trkpt lat="44.250643450356726" lon="11.038315715770809"><ele>565.0</ele><time>2026-05-02T06:41:25.999Z</time></trkpt><trkpt lat="44.25066929446707" lon="11.038211687411254"><ele>564.9999999999999</ele><time>2026-05-02T06:41:27.999Z</time></trkpt><trkpt lat="44.25066521009824" lon="11.038096480184375"><ele>565.0</ele><time>2026-05-02T06:41:28.999Z</time></trkpt><trkpt lat="44.25065114331924" lon="11.037981993836146"><ele>577.0</ele><time>2026-05-02T06:41:29.999Z</time></trkpt><trkpt lat="44.25063660349403" lon="11.037825105532193"><ele>589.0</ele><time>2026-05-02T06:41:30.999Z</time></trkpt><trkpt lat="44.25063590972014" lon="11.037655446735513"><ele>601.0</ele><time>2026-05-02T06:41:31.999Z</time></trkpt><trkpt lat="44.2506393605735" lon="11.037463565168943"><ele>613.0</ele><time>2026-05-02T06:41:32.999Z</time></trkpt><trkpt lat="44.25062754413228" lon="11.03726037972572"><ele>606.5</ele><time>2026-05-02T06:41:34Z</time></trkpt><trkpt lat="44.25060298544399" lon="11.037103224873626"><ele>600.0</ele><time>2026-05-02T06:41:35Z</time></trkpt><trkpt lat="44.25056205518331" lon="11.036897302129114"><ele>593.5</ele><time>2026-05-02T06:41:36Z</time></trkpt><trkpt lat="44.25050518727585" lon="11.036707774635765"><ele>587.0</ele><time>2026-05-02T06:41:37Z</time></trkpt><trkpt lat="44.25048118776227" lon="11.036569166648155"><ele>587.0</ele><time>2026-05-02T06:41:38Z</time></trkpt><trkpt lat="44.25049810934838" lon="11.036432402314235"><ele>587.0</ele><time>2026-05-02T06:41:39Z</time></trkpt><trkpt lat="44.250538089762685" lon="11.036232693762551"><ele>587.0</ele><time>2026-05-02T06:41:40Z</time></trkpt><trkpt lat="44.25056453537636" lon="11.036079729046284"><ele>587.0</ele><time>2026-05-02T06:41:41Z</time></trkpt><trkpt lat="44.25057807664701" lon="11.03597348240771"><ele>587.0</ele><time>2026-05-02T06:41:42Z</time></trkpt><trkpt lat="44.250678752952666" lon="11.035962458838505"><ele>595.5</ele><time>2026-05-02T06:41:46Z</time></trkpt><trkpt lat="44.25068199934992" lon="11.036176577914729"><ele>604.0</ele><time>2026-05-02T06:41:48Z</time></trkpt><trkpt lat="44.25065554587678" lon="11.036308733565654"><ele>612.5</ele><time>2026-05-02T06:41:49Z</time></trkpt><trkpt lat="44.250648665044935" lon="11.03644431073896"><ele>621.0</ele><time>2026-05-02T06:41:50Z</time></trkpt><trkpt lat="44.2506578874277" lon="11.036611932314866"><ele>621.5</ele><time>2026-05-02T06:41:51Z</time></trkpt><trkpt lat="44.25066470248326" lon="11.036798211293718"><ele>622.0</ele><time>2026-05-02T06:41:52Z</time></trkpt><trkpt lat="44.25068776749613" lon="11.036966893051654"><ele>622.5</ele><time>2026-05-02T06:41:53Z</time></trkpt><trkpt lat="44.25072180745254" lon="11.037134917652963"><ele>623.0</ele><time>2026-05-02T06:41:54Z</time></trkpt><trkpt lat="44.25075117014459" lon="11.037302422490741"><ele>619.6666666666666</ele><time>2026-05-02T06:41:55Z</time></trkpt><trkpt lat="44.25081237501465" lon="11.037493518553038"><ele>616.3333333333334</ele><time>2026-05-02T06:41:56Z</time></trkpt><trkpt lat="44.25088321594039" lon="11.037689839834156"><ele>613.0</ele><time>2026-05-02T06:41:57Z</time></trkpt><trkpt lat="44.250966024298506" lon="11.037869378071381"><ele>613.0</ele><time>2026-05-02T06:41:58Z</time></trkpt><trkpt lat="44.25103592755507" lon="11.038023809233184"><ele>613.0</ele><time>2026-05-02T06:41:59Z</time></trkpt><trkpt lat="44.25110065179106" lon="11.038162814480167"><ele>613.0</ele><time>2026-05-02T06:42:00Z</time></trkpt><trkpt lat="44.25108749888943" lon="11.038304627920118"><ele>613.0</ele><time>2026-05-02T06:42:01Z</time></trkpt><trkpt lat="44.25108567981478" lon="11.038404271058981"><ele>613.0</ele><time>2026-05-02T06:42:02Z</time></trkpt><trkpt lat="44.251032300604685" lon="11.038469837018578"><ele>612.1999999999999</ele><time>2026-05-02T06:42:03Z</time></trkpt><trkpt lat="44.25098682210486" lon="11.038595778719706"><ele>611.4</ele><time>2026-05-02T06:42:04Z</time></trkpt><trkpt lat="44.25094228523212" lon="11.038684169708498"><ele>610.5999999999999</ele><time>2026-05-02T06:42:05Z</time></trkpt><trkpt lat="44.250910396671166" lon="11.03878587297879"><ele>609.8</ele><time>2026-05-02T06:42:06Z</time></trkpt><trkpt lat="44.250882188525864" lon="11.038906733902207"><ele>609.0</ele><time>2026-05-02T06:42:07Z</time></trkpt><trkpt lat="44.250924551380315" lon="11.039042175958201"><ele>609.75</ele><time>2026-05-02T06:42:08Z</time></trkpt><trkpt lat="44.250979330638025" lon="11.039179886206165"><ele>610.5</ele><time>2026-05-02T06:42:09Z</time></trkpt><trkpt lat="44.25103193600586" lon="11.039324248712061"><ele>611.25</ele><time>2026-05-02T06:42:10Z</time></trkpt><trkpt lat="44.25106470372105" lon="11.039495271310265"><ele>612.0</ele><time>2026-05-02T06:42:11Z</time></trkpt><trkpt lat="44.251078376837384" lon="11.039667900352848"><ele>612.0</ele><time>2026-05-02T06:42:12Z</time></trkpt><trkpt lat="44.25105740358877" lon="11.0398235824686"><ele>612.0</ele><time>2026-05-02T06:42:13Z</time></trkpt><trkpt lat="44.25100453831415" lon="11.03998053662914"><ele>612.0</ele><time>2026-05-02T06:42:14Z</time></trkpt><trkpt lat="44.25094710337939" lon="11.040111300359813"><ele>612.0</ele><time>2026-05-02T06:42:15Z</time></trkpt><trkpt lat="44.25093191769735" lon="11.040267464436976"><ele>612.0</ele><time>2026-05-02T06:42:16Z</time></trkpt><trkpt lat="44.25095032591833" lon="11.040419481782267"><ele>612.0</ele><time>2026-05-02T06:42:17Z</time></trkpt><trkpt lat="44.250982019335915" lon="11.040626804074593"><ele>612.0</ele><time>2026-05-02T06:42:18Z</time></trkpt><trkpt lat="44.250975335400575" lon="11.040787985397618"><ele>612.0</ele><time>2026-05-02T06:42:19Z</time></trkpt><trkpt lat="44.25090533891998" lon="11.040889627109443"><ele>614.8000000000001</ele><time>2026-05-02T06:42:20Z</time></trkpt><trkpt lat="44.25086184785799" lon="11.041013245960793"><ele>617.6</ele><time>2026-05-02T06:42:21Z</time></trkpt><trkpt lat="44.25083404262224" lon="11.04113380807051"><ele>620.4000000000001</ele><time>2026-05-02T06:42:22Z</time></trkpt><trkpt lat="44.25080729944164" lon="11.041247769402483"><ele>623.2</ele><time>2026-05-02T06:42:23Z</time></trkpt><trkpt lat="44.25080459857043" lon="11.041381295981823"><ele>626.0</ele><time>2026-05-02T06:42:24Z</time></trkpt><trkpt lat="44.25081884102092" lon="11.041521126433569"><ele>627.4</ele><time>2026-05-02T06:42:25Z</time></trkpt><trkpt lat="44.25083523866535" lon="11.041667016763554"><ele>628.8</ele><time>2026-05-02T06:42:26Z</time></trkpt><trkpt lat="44.25078996500694" lon="11.041791270754523"><ele>630.1999999999999</ele><time>2026-05-02T06:42:27Z</time></trkpt><trkpt lat="44.250780081238425" lon="11.04188203978383"><ele>631.6</ele><time>2026-05-02T06:42:28Z</time></trkpt><trkpt lat="44.25078212254599" lon="11.042005659323006"><ele>633.0</ele><time>2026-05-02T06:42:30Z</time></trkpt><trkpt lat="44.250896686269044" lon="11.042019227229904"><ele>633.0</ele><time>2026-05-02T06:42:32Z</time></trkpt><trkpt lat="44.2509473941095" lon="11.041966007053627"><ele>633.0</ele><time>2026-05-02T06:42:33Z</time></trkpt><trkpt lat="44.25102344320108" lon="11.041978967598501"><ele>633.0</ele><time>2026-05-02T06:42:35Z</time></trkpt><trkpt lat="44.2511205947296" lon="11.041971545023827"><ele>633.0</ele><time>2026-05-02T06:42:38Z</time></trkpt><trkpt lat="44.251121909245384" lon="11.042257108895257"><ele>633.0</ele><time>2026-05-02T06:42:39Z</time></trkpt><trkpt lat="44.25118669124054" lon="11.041883960330711"><ele>633.0</ele><time>2026-05-02T06:42:40Z</time></trkpt><trkpt lat="44.251120937915076" lon="11.041770750692558"><ele>633.0</ele><time>2026-05-02T06:42:41Z</time></trkpt><trkpt lat="44.25107409607257" lon="11.04165349357619"><ele>633.0</ele><time>2026-05-02T06:42:43Z</time></trkpt><trkpt lat="44.25128261804798" lon="11.04124723815052"><ele>645.0</ele><time>2026-05-02T06:42:44Z</time></trkpt><trkpt lat="44.25147228297245" lon="11.041595118082563"><ele>657.0</ele><time>2026-05-02T06:42:46Z</time></trkpt><trkpt lat="44.25174282537586" lon="11.041630719327125"><ele>654.25</ele><time>2026-05-02T06:42:48Z</time></trkpt><trkpt lat="44.251892825774796" lon="11.041785691543414"><ele>651.5</ele><time>2026-05-02T06:42:49Z</time></trkpt><trkpt lat="44.25199676949472" lon="11.041747608497948"><ele>648.75</ele><time>2026-05-02T06:42:50Z</time></trkpt><trkpt lat="44.25207420225189" lon="11.04170552327675"><ele>646.0</ele><time>2026-05-02T06:42:51Z</time></trkpt><trkpt lat="44.25215075997189" lon="11.041668735983626"><ele>647.8333333333334</ele><time>2026-05-02T06:42:52Z</time></trkpt><trkpt lat="44.25215804534997" lon="11.041525726185176"><ele>649.6666666666667</ele><time>2026-05-02T06:42:53Z</time></trkpt><trkpt lat="44.25218949817821" lon="11.041415506887478"><ele>651.5</ele><time>2026-05-02T06:42:54Z</time></trkpt><trkpt lat="44.25219899947291" lon="11.041314082518983"><ele>653.3333333333334</ele><time>2026-05-02T06:42:55Z</time></trkpt><trkpt lat="44.252182557688585" lon="11.041218207830658"><ele>655.1666666666666</ele><time>2026-05-02T06:42:56Z</time></trkpt><trkpt lat="44.25216419375313" lon="11.041080741553237"><ele>657.0</ele><time>2026-05-02T06:42:57.999Z</time></trkpt><trkpt lat="44.2521997200587" lon="11.040941328268154"><ele>657.0</ele><time>2026-05-02T06:42:59.999Z</time></trkpt><trkpt lat="44.25226456482632" lon="11.040899293934444"><ele>657.0</ele><time>2026-05-02T06:43:00.999Z</time></trkpt><trkpt lat="44.25233904635641" lon="11.040856500657602"><ele>657.0</ele><time>2026-05-02T06:43:01.999Z</time></trkpt><trkpt lat="44.25240464106399" lon="11.04080817353661"><ele>657.0</ele><time>2026-05-02T06:43:02.999Z</time></trkpt><trkpt lat="44.252439478145426" lon="11.040722741267235"><ele>657.0</ele><time>2026-05-02T06:43:03.999Z</time></trkpt><trkpt lat="44.25248587217018" lon="11.040659186230782"><ele>657.0</ele><time>2026-05-02T06:43:04.999Z</time></trkpt><trkpt lat="44.25257520029824" lon="11.040583260369338"><ele>658.0</ele><time>2026-05-02T06:43:06.999Z</time></trkpt><trkpt lat="44.25264969706901" lon="11.040540983677351"><ele>659.0</ele><time>2026-05-02T06:43:07.999Z</time></trkpt><trkpt lat="44.252728335718096" lon="11.040503102097528"><ele>660.0</ele><time>2026-05-02T06:43:08.999Z</time></trkpt><trkpt lat="44.25280657402992" lon="11.040490752035987"><ele>661.0</ele><time>2026-05-02T06:43:09.999Z</time></trkpt><trkpt lat="44.25288402707337" lon="11.040489463556316"><ele>662.0</ele><time>2026-05-02T06:43:10.999Z</time></trkpt><trkpt lat="44.25296336749282" lon="11.0405031789916"><ele>663.0</ele><time>2026-05-02T06:43:11.999Z</time></trkpt><trkpt lat="44.253044640999676" lon="11.040511335463973"><ele>663.0</ele><time>2026-05-02T06:43:12.999Z</time></trkpt><trkpt lat="44.25311197257414" lon="11.040497180698555"><ele>663.0</ele><time>2026-05-02T06:43:13.999Z</time></trkpt><trkpt lat="44.2532169541085" lon="11.040430974016868"><ele>663.0</ele><time>2026-05-02T06:43:15.999Z</time></trkpt><trkpt lat="44.253276019062795" lon="11.040394978325068"><ele>663.0</ele><time>2026-05-02T06:43:16.999Z</time></trkpt><trkpt lat="44.25334505541222" lon="11.040351596315912"><ele>663.0</ele><time>2026-05-02T06:43:17.999Z</time></trkpt><trkpt lat="44.25342252190036" lon="11.040313219872434"><ele>663.0</ele><time>2026-05-02T06:43:18.999Z</time></trkpt><trkpt lat="44.253492919391554" lon="11.040276227864647"><ele>659.3333333333334</ele><time>2026-05-02T06:43:19.999Z</time></trkpt><trkpt lat="44.25355177840739" lon="11.040232766474302"><ele>655.6666666666666</ele><time>2026-05-02T06:43:20.999Z</time></trkpt><trkpt lat="44.253574221490815" lon="11.040133209040537"><ele>652.0</ele><time>2026-05-02T06:43:22.999Z</time></trkpt><trkpt lat="44.25356119514886" lon="11.040013346075156"><ele>648.3333333333333</ele><time>2026-05-02T06:43:24.999Z</time></trkpt><trkpt lat="44.25352417913032" lon="11.03987628922992"><ele>644.6666666666666</ele><time>2026-05-02T06:43:26.999Z</time></trkpt><trkpt lat="44.25352996952169" lon="11.039714407222261"><ele>641.0</ele><time>2026-05-02T06:43:28.999Z</time></trkpt><trkpt lat="44.25361491214017" lon="11.039590050631316"><ele>641.0</ele><time>2026-05-02T06:43:30.999Z</time></trkpt><trkpt lat="44.25369007341953" lon="11.039548902073685"><ele>641.0</ele><time>2026-05-02T06:43:31.999Z</time></trkpt><trkpt lat="44.253782529335645" lon="11.039511963645184"><ele>641.0</ele><time>2026-05-02T06:43:32.999Z</time></trkpt><trkpt lat="44.25385480104432" lon="11.03949379991026"><ele>641.0</ele><time>2026-05-02T06:43:33.999Z</time></trkpt><trkpt lat="44.25392339615136" lon="11.039465559015726"><ele>641.0</ele><time>2026-05-02T06:43:34.999Z</time></trkpt><trkpt lat="44.2540088178109" lon="11.039351014469567"><ele>641.0</ele><time>2026-05-02T06:43:36.999Z</time></trkpt><trkpt lat="44.25406227785002" lon="11.039257453418756"><ele>639.0</ele><time>2026-05-02T06:43:37.999Z</time></trkpt><trkpt lat="44.254127255570495" lon="11.039195494883169"><ele>637.0</ele><time>2026-05-02T06:43:38.999Z</time></trkpt><trkpt lat="44.254212600528106" lon="11.03910467266347"><ele>635.0</ele><time>2026-05-02T06:43:41Z</time></trkpt><trkpt lat="44.25432068369895" lon="11.039048781298023"><ele>633.0</ele><time>2026-05-02T06:43:43Z</time></trkpt><trkpt lat="44.25438952742369" lon="11.03904382641365"><ele>631.0</ele><time>2026-05-02T06:43:44Z</time></trkpt><trkpt lat="44.25447919283473" lon="11.039047772016499"><ele>631.0</ele><time>2026-05-02T06:43:45Z</time></trkpt><trkpt lat="44.25454646955302" lon="11.039056830290098"><ele>631.0</ele><time>2026-05-02T06:43:46Z</time></trkpt><trkpt lat="44.254617770605904" lon="11.039069148259012"><ele>631.0</ele><time>2026-05-02T06:43:47Z</time></trkpt><trkpt lat="44.25468567825429" lon="11.039054851488064"><ele>631.0</ele><time>2026-05-02T06:43:48Z</time></trkpt><trkpt lat="44.25477406342808" lon="11.03896592782781"><ele>631.0</ele><time>2026-05-02T06:43:50Z</time></trkpt><trkpt lat="44.25482070073085" lon="11.038854735487352"><ele>631.0</ele><time>2026-05-02T06:43:52Z</time></trkpt><trkpt lat="44.25483367913591" lon="11.038762724007547"><ele>624.2</ele><time>2026-05-02T06:43:54Z</time></trkpt><trkpt lat="44.25482886337259" lon="11.038636437710695"><ele>617.4000000000001</ele><time>2026-05-02T06:43:56Z</time></trkpt><trkpt lat="44.25482220856713" lon="11.03851445956652"><ele>610.6</ele><time>2026-05-02T06:43:57Z</time></trkpt><trkpt lat="44.25481220685807" lon="11.03841584879733"><ele>603.8000000000001</ele><time>2026-05-02T06:43:58Z</time></trkpt><trkpt lat="44.254844744244124" lon="11.038231632296236"><ele>597.0</ele><time>2026-05-02T06:43:59Z</time></trkpt><trkpt lat="44.254840107666396" lon="11.038070258057795"><ele>596.6</ele><time>2026-05-02T06:44:00Z</time></trkpt><trkpt lat="44.25482885237667" lon="11.037930058208751"><ele>596.2</ele><time>2026-05-02T06:44:01Z</time></trkpt><trkpt lat="44.25481442820301" lon="11.037796011318878"><ele>595.8</ele><time>2026-05-02T06:44:02Z</time></trkpt><trkpt lat="44.2548284331943" lon="11.037662011230434"><ele>595.4</ele><time>2026-05-02T06:44:03Z</time></trkpt><trkpt lat="44.254852494041906" lon="11.037525108076542"><ele>595.0</ele><time>2026-05-02T06:44:04Z</time></trkpt><trkpt lat="44.25486727846678" lon="11.037394521000618"><ele>594.2</ele><time>2026-05-02T06:44:05Z</time></trkpt><trkpt lat="44.25484268685644" lon="11.037218711862447"><ele>593.4</ele><time>2026-05-02T06:44:07Z</time></trkpt><trkpt lat="44.25484091156936" lon="11.037093944571062"><ele>592.6</ele><time>2026-05-02T06:44:09Z</time></trkpt><trkpt lat="44.25485404568816" lon="11.036937035971848"><ele>591.8</ele><time>2026-05-02T06:44:11Z</time></trkpt><trkpt lat="44.254878108244824" lon="11.03680988594959"><ele>591.0</ele><time>2026-05-02T06:44:13Z</time></trkpt><trkpt lat="44.25485693407387" lon="11.036717093208024"><ele>591.1666666666666</ele><time>2026-05-02T06:44:15Z</time></trkpt><trkpt lat="44.25483946249469" lon="11.036629265056641"><ele>591.3333333333334</ele><time>2026-05-02T06:44:16Z</time></trkpt><trkpt lat="44.254822640373916" lon="11.036537894817602"><ele>591.5</ele><time>2026-05-02T06:44:17Z</time></trkpt><trkpt lat="44.254780072154844" lon="11.036440459646279"><ele>591.6666666666667</ele><time>2026-05-02T06:44:18Z</time></trkpt><trkpt lat="44.25480837301987" lon="11.036342795762296"><ele>591.8333333333334</ele><time>2026-05-02T06:44:19Z</time></trkpt><trkpt lat="44.25482644158221" lon="11.03621720547654"><ele>592.0</ele><time>2026-05-02T06:44:20Z</time></trkpt><trkpt lat="44.2548468086152" lon="11.036089199748723"><ele>592.0</ele><time>2026-05-02T06:44:21Z</time></trkpt><trkpt lat="44.25487245755036" lon="11.035975694346972"><ele>592.0</ele><time>2026-05-02T06:44:22Z</time></trkpt><trkpt lat="44.24937803630362" lon="11.03722409532572"><ele>583.6</ele><time>2026-05-02T06:40:22Z</time></trkpt><trkpt lat="44.24944697818442" lon="11.037303844180734"><ele>575.2</ele><time>2026-05-02T06:40:23Z</time></trkpt><trkpt lat="44.24951225154983" lon="11.037386922305146"><ele>566.8</ele><time>2026-05-02T06:40:24Z</time></trkpt><trkpt lat="44.24958533118952" lon="11.037459996215558"><ele>558.4</ele><time>2026-05-02T06:40:25Z</time></trkpt><trkpt lat="44.24966901402007" lon="11.03753554317881"><ele>550.0</ele><time>2026-05-02T06:40:26Z</time></trkpt><trkpt lat="44.249763407073104" lon="11.037621849782111"><ele>554.25</ele><time>2026-05-02T06:40:27Z</time></trkpt><trkpt lat="44.249848518455636" lon="11.037721424927184"><ele>558.5</ele><time>2026-05-02T06:40:28Z</time></trkpt><trkpt lat="44.24992126726168" lon="11.037836548295713"><ele>562.75</ele><time>2026-05-02T06:40:29Z</time></trkpt><trkpt lat="44.24997965517243" lon="11.03797527750001"><ele>567.0</ele><time>2026-05-02T06:40:30Z</time></trkpt><trkpt lat="44.250024430856136" lon="11.038124155942686"><ele>567.0</ele><time>2026-05-02T06:40:31Z</time></trkpt><trkpt lat="44.25004957332365" lon="11.038270457084534"><ele>567.0</ele><time>2026-05-02T06:40:32Z</time></trkpt><trkpt lat="44.2499862706166" lon="11.03842876954619"><ele>567.0</ele><time>2026-05-02T06:40:33Z</time></trkpt><trkpt lat="44.24999765525138" lon="11.038516079477628"><ele>567.0</ele><time>2026-05-02T06:40:34Z</time></trkpt><trkpt lat="44.24999273792474" lon="11.03863160223913"><ele>567.0</ele><time>2026-05-02T06:40:35Z</time></trkpt><trkpt lat="44.250028195508634" lon="11.038733576486932"><ele>566.8333333333334</ele><time>2026-05-02T06:40:36Z</time></trkpt><trkpt lat="44.25008243045811" lon="11.038842580936334"><ele>566.6666666666666</ele><time>2026-05-02T06:40:37Z</time></trkpt><trkpt lat="44.25010761750685" lon="11.038959212548347"><ele>566.5</ele><time>2026-05-02T06:40:38Z</time></trkpt><trkpt lat="44.25006973103975" lon="11.039051049725042"><ele>566.3333333333333</ele><time>2026-05-02T06:40:39Z</time></trkpt><trkpt lat="44.250047954215404" lon="11.039147539665503"><ele>566.1666666666666</ele><time>2026-05-02T06:40:41Z</time></trkpt><trkpt lat="44.250063908752104" lon="11.039257592648081"><ele>566.0</ele><time>2026-05-02T06:40:44Z</time></trkpt><trkpt lat="44.25010838869823" lon="11.039332708351447"><ele>566.0</ele><time>2026-05-02T06:40:46Z</time></trkpt><trkpt lat="44.25017685005315" lon="11.039335034795677"><ele>566.0</ele><time>2026-05-02T06:40:49Z</time></trkpt><trkpt lat="44.25022925279688" lon="11.039284741760518"><ele>566.0</ele><time>2026-05-02T06:40:52.999Z</time></trkpt><trkpt lat="44.250252201512815" lon="11.039146207171573"><ele>566.0</ele><time>2026-05-02T06:40:55.999Z</time></trkpt><trkpt lat="44.250278882425114" lon="11.039036194266213"><ele>566.0</ele><time>2026-05-02T06:40:59.999Z</time></trkpt><trkpt lat="44.25030195591863" lon="11.038945301124919"><ele>566.0</ele><time>2026-05-02T06:41:02.999Z</time></trkpt><trkpt lat="44.25032690534289" lon="11.038847018567592"><ele>565.8333333333333</ele><time>2026-05-02T06:41:05.999Z</time></trkpt><trkpt lat="44.250355289061666" lon="11.038738494377402"><ele>565.6666666666666</ele><time>2026-05-02T06:41:08.999Z</time></trkpt><trkpt lat="44.2503834242256" lon="11.038639821401192"><ele>565.5</ele><time>2026-05-02T06:41:11.999Z</time></trkpt><trkpt lat="44.25041732607749" lon="11.03854324232718"><ele>565.3333333333334</ele><time>2026-05-02T06:41:14.999Z</time></trkpt><trkpt lat="44.25049044888977" lon="11.038479872176051"><ele>565.1666666666667</ele><time>2026-05-02T06:41:18.999Z</time></trkpt><trkpt lat="44.25055327812009" lon="11.038446766379833"><ele>565.0</ele><time>2026-05-02T06:41:21.999Z</time></trkpt><trkpt lat="44.250600769955284" lon="11.038384424579068"><ele>572.3333333333334</ele><time>2026-05-02T06:41:23.999Z</time></trkpt><trkpt lat="44.250643450356726" lon="11.038315715770809"><ele>579.6666666666667</ele><time>2026-05-02T06:41:25.999Z</time></trkpt><trkpt lat="44.25066929446707" lon="11.038211687411254"><ele>587.0</ele><time>2026-05-02T06:41:27.999Z</time></trkpt><trkpt lat="44.25066521009824" lon="11.038096480184375"><ele>594.3333333333334</ele><time>2026-05-02T06:41:28.999Z</time></trkpt><trkpt lat="44.25065114331924" lon="11.037981993836146"><ele>601.6666666666666</ele><time>2026-05-02T06:41:29.999Z</time></trkpt><trkpt lat="44.25063660349403" lon="11.037825105532193"><ele>609.0</ele><time>2026-05-02T06:41:30.999Z</time></trkpt><trkpt lat="44.25063590972014" lon="11.037655446735513"><ele>612.5</ele><time>2026-05-02T06:41:31.999Z</time></trkpt><trkpt lat="44.2506393605735" lon="11.037463565168943"><ele>616.0</ele><time>2026-05-02T06:41:32.999Z</time></trkpt><trkpt lat="44.25062754413228" lon="11.03726037972572"><ele>619.5</ele><time>2026-05-02T06:41:34Z</time></trkpt><trkpt lat="44.25060298544399" lon="11.037103224873626"><ele>623.0</ele><time>2026-05-02T06:41:35Z</time></trkpt><trkpt lat="44.25056205518331" lon="11.036897302129114"><ele>614.0</ele><time>2026-05-02T06:41:36Z</time></trkpt><trkpt lat="44.25050518727585" lon="11.036707774635765"><ele>605.0</ele><time>2026-05-02T06:41:37Z</time></trkpt><trkpt lat="44.25048118776227" lon="11.036569166648155"><ele>596.0</ele><time>2026-05-02T06:41:38Z</time></trkpt><trkpt lat="44.25049810934838" lon="11.036432402314235"><ele>587.0</ele><time>2026-05-02T06:41:39Z</time></trkpt><trkpt lat="44.250538089762685" lon="11.036232693762551"><ele>587.0</ele><time>2026-05-02T06:41:40Z</time></trkpt><trkpt lat="44.25056453537636" lon="11.036079729046284"><ele>587.0</ele><time>2026-05-02T06:41:41Z</time></trkpt><trkpt lat="44.25057807664701" lon="11.03597348240771"><ele>587.0</ele><time>2026-05-02T06:41:42Z</time></trkpt><trkpt lat="44.250678752952666" lon="11.035962458838505"><ele>587.0</ele><time>2026-05-02T06:41:46Z</time></trkpt><trkpt lat="44.25068199934992" lon="11.036176577914729"><ele>587.0</ele><time>2026-05-02T06:41:48Z</time></trkpt><trkpt lat="44.25065554587678" lon="11.036308733565654"><ele>595.5</ele><time>2026-05-02T06:41:49Z</time></trkpt><trkpt lat="44.250648665044935" lon="11.03644431073896"><ele>604.0</ele><time>2026-05-02T06:41:50Z</time></trkpt><trkpt lat="44.2506578874277" lon="11.036611932314866"><ele>612.5</ele><time>2026-05-02T06:41:51Z</time></trkpt><trkpt lat="44.25066470248326" lon="11.036798211293718"><ele>621.0</ele><time>2026-05-02T06:41:52Z</time></trkpt><trkpt lat="44.25068776749613" lon="11.036966893051654"><ele>621.5</ele><time>2026-05-02T06:41:53Z</time></trkpt><trkpt lat="44.25072180745254" lon="11.037134917652963"><ele>622.0</ele><time>2026-05-02T06:41:54Z</time></trkpt><trkpt lat="44.25075117014459" lon="11.037302422490741"><ele>622.5</ele><time>2026-05-02T06:41:55Z</time></trkpt><trkpt lat="44.25081237501465" lon="11.037493518553038"><ele>623.0</ele><time>2026-05-02T06:41:56Z</time></trkpt><trkpt lat="44.25088321594039" lon="11.037689839834156"><ele>620.5</ele><time>2026-05-02T06:41:57Z</time></trkpt><trkpt lat="44.250966024298506" lon="11.037869378071381"><ele>618.0</ele><time>2026-05-02T06:41:58Z</time></trkpt><trkpt lat="44.25103592755507" lon="11.038023809233184"><ele>615.5</ele><time>2026-05-02T06:41:59Z</time></trkpt><trkpt lat="44.25110065179106" lon="11.038162814480167"><ele>613.0</ele><time>2026-05-02T06:42:00Z</time></trkpt><trkpt lat="44.25108749888943" lon="11.038304627920118"><ele>612.3333333333334</ele><time>2026-05-02T06:42:01Z</time></trkpt><trkpt lat="44.25108567981478" lon="11.038404271058981"><ele>611.6666666666667</ele><time>2026-05-02T06:42:02Z</time></trkpt><trkpt lat="44.251032300604685" lon="11.038469837018578"><ele>611.0</ele><time>2026-05-02T06:42:03Z</time></trkpt><trkpt lat="44.25098682210486" lon="11.038595778719706"><ele>610.3333333333334</ele><time>2026-05-02T06:42:04Z</time></trkpt><trkpt lat="44.25094228523212" lon="11.038684169708498"><ele>609.6666666666666</ele><time>2026-05-02T06:42:05Z</time></trkpt><trkpt lat="44.250910396671166" lon="11.03878587297879"><ele>609.0</ele><time>2026-05-02T06:42:06Z</time></trkpt><trkpt lat="44.250882188525864" lon="11.038906733902207"><ele>609.0</ele><time>2026-05-02T06:42:07Z</time></trkpt><trkpt lat="44.250924551380315" lon="11.039042175958201"><ele>609.0</ele><time>2026-05-02T06:42:08Z</time></trkpt><trkpt lat="44.250979330638025" lon="11.039179886206165"><ele>609.0</ele><time>2026-05-02T06:42:09Z</time></trkpt><trkpt lat="44.25103193600586" lon="11.039324248712061"><ele>609.0</ele><time>2026-05-02T06:42:10Z</time></trkpt><trkpt lat="44.25106470372105" lon="11.039495271310265"><ele>609.75</ele><time>2026-05-02T06:42:11Z</time></trkpt><trkpt lat="44.251078376837384" lon="11.039667900352848"><ele>610.5</ele><time>2026-05-02T06:42:12Z</time></trkpt><trkpt lat="44.25105740358877" lon="11.0398235824686"><ele>611.25</ele><time>2026-05-02T06:42:13Z</time></trkpt><trkpt lat="44.25100453831415" lon="11.03998053662914"><ele>612.0</ele><time>2026-05-02T06:42:14Z</time></trkpt><trkpt lat="44.25094710337939" lon="11.040111300359813"><ele>612.0</ele><time>2026-05-02T06:42:15Z</time></trkpt><trkpt lat="44.25093191769735" lon="11.040267464436976"><ele>612.0</ele><time>2026-05-02T06:42:16Z</time></trkpt><trkpt lat="44.25095032591833" lon="11.040419481782267"><ele>612.0</ele><time>2026-05-02T06:42:17Z</time></trkpt><trkpt lat="44.250982019335915" lon="11.040626804074593"><ele>612.0</ele><time>2026-05-02T06:42:18Z</time></trkpt><trkpt lat="44.250975335400575" lon="11.040787985397618"><ele>614.8000000000001</ele><time>2026-05-02T06:42:19Z</time></trkpt><trkpt lat="44.25090533891998" lon="11.040889627109443"><ele>617.6</ele><time>2026-05-02T06:42:20Z</time></trkpt><trkpt lat="44.25086184785799" lon="11.041013245960793"><ele>620.4000000000001</ele><time>2026-05-02T06:42:21Z</time></trkpt><trkpt lat="44.25083404262224" lon="11.04113380807051"><ele>623.2</ele><time>2026-05-02T06:42:22Z</time></trkpt><trkpt lat="44.25080729944164" lon="11.041247769402483"><ele>626.0</ele><time>2026-05-02T06:42:23Z</time></trkpt><trkpt lat="44.25080459857043" lon="11.041381295981823"><ele>626.0</ele><time>2026-05-02T06:42:24Z</time></trkpt><trkpt lat="44.25081884102092" lon="11.041521126433569"><ele>626.0</ele><time>2026-05-02T06:42:25Z</time></trkpt><trkpt lat="44.25083523866535" lon="11.041667016763554"><ele>626.0</ele><time>2026-05-02T06:42:26Z</time></trkpt><trkpt lat="44.25078996500694" lon="11.041791270754523"><ele>626.0</ele><time>2026-05-02T06:42:27Z</time></trkpt><trkpt lat="44.250780081238425" lon="11.04188203978383"><ele>626.0</ele><time>2026-05-02T06:42:28Z</time></trkpt><trkpt lat="44.25078212254599" lon="11.042005659323006"><ele>627.4</ele><time>2026-05-02T06:42:30Z</time></trkpt><trkpt lat="44.250896686269044" lon="11.042019227229904"><ele>628.8</ele><time>2026-05-02T06:42:32Z</time></trkpt><trkpt lat="44.2509473941095" lon="11.041966007053627"><ele>630.1999999999999</ele><time>2026-05-02T06:42:33Z</time></trkpt><trkpt lat="44.25102344320108" lon="11.041978967598501"><ele>631.6</ele><time>2026-05-02T06:42:35Z</time></trkpt><trkpt lat="44.2511205947296" lon="11.041971545023827"><ele>633.0</ele><time>2026-05-02T06:42:38Z</time></trkpt><trkpt lat="44.251121909245384" lon="11.042257108895257"><ele>633.0</ele><time>2026-05-02T06:42:39Z</time></trkpt><trkpt lat="44.25118669124054" lon="11.041883960330711"><ele>633.0</ele><time>2026-05-02T06:42:40Z</time></trkpt><trkpt lat="44.251120937915076" lon="11.041770750692558"><ele>633.0</ele><time>2026-05-02T06:42:41Z</time></trkpt><trkpt lat="44.25107409607257" lon="11.04165349357619"><ele>629.5</ele><time>2026-05-02T06:42:43Z</time></trkpt><trkpt lat="44.25128261804798" lon="11.04124723815052"><ele>626.0</ele><time>2026-05-02T06:42:44Z</time></trkpt><trkpt lat="44.25147228297245" lon="11.041595118082563"><ele>636.0</ele><time>2026-05-02T06:42:46Z</time></trkpt><trkpt lat="44.25174282537586" lon="11.041630719327125"><ele>646.0</ele><time>2026-05-02T06:42:48Z</time></trkpt><trkpt lat="44.251892825774796" lon="11.041785691543414"><ele>646.0</ele><time>2026-05-02T06:42:49Z</time></trkpt><trkpt lat="44.25199676949472" lon="11.041747608497948"><ele>646.0</ele><time>2026-05-02T06:42:50Z</time></trkpt><trkpt lat="44.25207420225189" lon="11.04170552327675"><ele>646.0</ele><time>2026-05-02T06:42:51Z</time></trkpt><trkpt lat="44.25215075997189" lon="11.041668735983626"><ele>646.0</ele><time>2026-05-02T06:42:52Z</time></trkpt><trkpt lat="44.25215804534997" lon="11.041525726185176"><ele>646.0</ele><time>2026-05-02T06:42:53Z</time></trkpt><trkpt lat="44.25218949817821" lon="11.041415506887478"><ele>644.6666666666667</ele><time>2026-05-02T06:42:54Z</time></trkpt><trkpt lat="44.25219899947291" lon="11.041314082518983"><ele>643.3333333333334</ele><time>2026-05-02T06:42:55Z</time></trkpt><trkpt lat="44.252182557688585" lon="11.041218207830658"><ele>642.0</ele><time>2026-05-02T06:42:56Z</time></trkpt><trkpt lat="44.25216419375313" lon="11.041080741553237"><ele>640.6666666666666</ele><time>2026-05-02T06:42:57.999Z</time></trkpt><trkpt lat="44.2521997200587" lon="11.040941328268154"><ele>639.3333333333333</ele><time>2026-05-02T06:42:59.999Z</time></trkpt><trkpt lat="44.25226456482632" lon="11.040899293934444"><ele>638.0</ele><time>2026-05-02T06:43:00.999Z</time></trkpt><trkpt lat="44.25233904635641" lon="11.040856500657602"><ele>638.0</ele><time>2026-05-02T06:43:01.999Z</time></trkpt><trkpt lat="44.25240464106399" lon="11.04080817353661"><ele>638.0</ele><time>2026-05-02T06:43:02.999Z</time></trkpt><trkpt lat="44.252439478145426" lon="11.040722741267235"><ele>638.0</ele><time>2026-05-02T06:43:03.999Z</time></trkpt><trkpt lat="44.25248587217018" lon="11.040659186230782"><ele>638.0</ele><time>2026-05-02T06:43:04.999Z</time></trkpt><trkpt lat="44.25257520029824" lon="11.040583260369338"><ele>638.0</ele><time>2026-05-02T06:43:06.999Z</time></trkpt><trkpt lat="44.25264969706901" lon="11.040540983677351"><ele>638.0</ele><time>2026-05-02T06:43:07.999Z</time></trkpt><trkpt lat="44.252728335718096" lon="11.040503102097528"><ele>637.0</ele><time>2026-05-02T06:43:08.999Z</time></trkpt><trkpt lat="44.25280657402992" lon="11.040490752035987"><ele>636.0</ele><time>2026-05-02T06:43:09.999Z</time></trkpt><trkpt lat="44.25288402707337" lon="11.040489463556316"><ele>635.0</ele><time>2026-05-02T06:43:10.999Z</time></trkpt><trkpt lat="44.25296336749282" lon="11.0405031789916"><ele>634.0</ele><time>2026-05-02T06:43:11.999Z</time></trkpt><trkpt lat="44.253044640999676" lon="11.040511335463973"><ele>633.0</ele><time>2026-05-02T06:43:12.999Z</time></trkpt><trkpt lat="44.25311197257414" lon="11.040497180698555"><ele>632.0</ele><time>2026-05-02T06:43:13.999Z</time></trkpt><trkpt lat="44.2532169541085" lon="11.040430974016868"><ele>632.0000000000001</ele><time>2026-05-02T06:43:15.999Z</time></trkpt><trkpt lat="44.253276019062795" lon="11.040394978325068"><ele>632.0</ele><time>2026-05-02T06:43:16.999Z</time></trkpt><trkpt lat="44.25334505541222" lon="11.040351596315912"><ele>632.0</ele><time>2026-05-02T06:43:17.999Z</time></trkpt><trkpt lat="44.25342252190036" lon="11.040313219872434"><ele>632.0</ele><time>2026-05-02T06:43:18.999Z</time></trkpt><trkpt lat="44.253492919391554" lon="11.040276227864647"><ele>632.0</ele><time>2026-05-02T06:43:19.999Z</time></trkpt><trkpt lat="44.25355177840739" lon="11.040232766474302"><ele>632.0000000000001</ele><time>2026-05-02T06:43:20.999Z</time></trkpt><trkpt lat="44.253574221490815" lon="11.040133209040537"><ele>632.0</ele><time>2026-05-02T06:43:22.999Z</time></trkpt><trkpt lat="44.25356119514886" lon="11.040013346075156"><ele>633.8</ele><time>2026-05-02T06:43:24.999Z</time></trkpt><trkpt lat="44.25352417913032" lon="11.03987628922992"><ele>635.6</ele><time>2026-05-02T06:43:26.999Z</time></trkpt><trkpt lat="44.25352996952169" lon="11.039714407222261"><ele>637.4</ele><time>2026-05-02T06:43:28.999Z</time></trkpt><trkpt lat="44.25361491214017" lon="11.039590050631316"><ele>639.1999999999999</ele><time>2026-05-02T06:43:30.999Z</time></trkpt><trkpt lat="44.25369007341953" lon="11.039548902073685"><ele>641.0</ele><time>2026-05-02T06:43:31.999Z</time></trkpt><trkpt lat="44.253782529335645" lon="11.039511963645184"><ele>641.0</ele><time>2026-05-02T06:43:32.999Z</time></trkpt><trkpt lat="44.25385480104432" lon="11.03949379991026"><ele>641.0</ele><time>2026-05-02T06:43:33.999Z</time></trkpt><trkpt lat="44.25392339615136" lon="11.039465559015726"><ele>641.0</ele><time>2026-05-02T06:43:34.999Z</time></trkpt><trkpt lat="44.2540088178109" lon="11.039351014469567"><ele>641.0</ele><time>2026-05-02T06:43:36.999Z</time></trkpt><trkpt lat="44.25406227785002" lon="11.039257453418756"><ele>641.0</ele><time>2026-05-02T06:43:37.999Z</time></trkpt><trkpt lat="44.254127255570495" lon="11.039195494883169"><ele>641.0</ele><time>2026-05-02T06:43:38.999Z</time></trkpt><trkpt lat="44.254212600528106" lon="11.03910467266347"><ele>639.3333333333333</ele><time>2026-05-02T06:43:41Z</time></trkpt><trkpt lat="44.25432068369895" lon="11.039048781298023"><ele>637.6666666666666</ele><time>2026-05-02T06:43:43Z</time></trkpt><trkpt lat="44.25438952742369" lon="11.03904382641365"><ele>636.0</ele><time>2026-05-02T06:43:44Z</time></trkpt><trkpt lat="44.25447919283473" lon="11.039047772016499"><ele>634.3333333333334</ele><time>2026-05-02T06:43:45Z</time></trkpt><trkpt lat="44.25454646955302" lon="11.039056830290098"><ele>632.6666666666667</ele><time>2026-05-02T06:43:46Z</time></trkpt><trkpt lat="44.254617770605904" lon="11.039069148259012"><ele>631.0</ele><time>2026-05-02T06:43:47Z</time></trkpt><trkpt lat="44.25468567825429" lon="11.039054851488064"><ele>631.0</ele><time>2026-05-02T06:43:48Z</time></trkpt><trkpt lat="44.25477406342808" lon="11.03896592782781"><ele>631.0</ele><time>2026-05-02T06:43:50Z</time></trkpt><trkpt lat="44.25482070073085" lon="11.038854735487352"><ele>631.0</ele><time>2026-05-02T06:43:52Z</time></trkpt><trkpt lat="44.25483367913591" lon="11.038762724007547"><ele>631.0</ele><time>2026-05-02T06:43:54Z</time></trkpt><trkpt lat="44.25482886337259" lon="11.038636437710695"><ele>631.0</ele><time>2026-05-02T06:43:56Z</time></trkpt><trkpt lat="44.25482220856713" lon="11.03851445956652"><ele>631.0</ele><time>2026-05-02T06:43:57Z</time></trkpt><trkpt lat="44.25481220685807" lon="11.03841584879733"><ele>622.0</ele><time>2026-05-02T06:43:58Z</time></trkpt><trkpt lat="44.254844744244124" lon="11.038231632296236"><ele>613.0</ele><time>2026-05-02T06:43:59Z</time></trkpt><trkpt lat="44.254840107666396" lon="11.038070258057795"><ele>604.0</ele><time>2026-05-02T06:44:00Z</time></trkpt><trkpt lat="44.25482885237667" lon="11.037930058208751"><ele>595.0</ele><time>2026-05-02T06:44:01Z</time></trkpt><trkpt lat="44.25481442820301" lon="11.037796011318878"><ele>595.0</ele><time>2026-05-02T06:44:02Z</time></trkpt><trkpt lat="44.2548284331943" lon="11.037662011230434"><ele>595.0</ele><time>2026-05-02T06:44:03Z</time></trkpt><trkpt lat="44.254852494041906" lon="11.037525108076542"><ele>595.0</ele><time>2026-05-02T06:44:04Z</time></trkpt><trkpt lat="44.25486727846678" lon="11.037394521000618"><ele>595.0</ele><time>2026-05-02T06:44:05Z</time></trkpt><trkpt lat="44.25484268685644" lon="11.037218711862447"><ele>595.0</ele><time>2026-05-02T06:44:07Z</time></trkpt><trkpt lat="44.25484091156936" lon="11.037093944571062"><ele>594.5</ele><time>2026-05-02T06:44:09Z</time></trkpt><trkpt lat="44.25485404568816" lon="11.036937035971848"><ele>594.0</ele><time>2026-05-02T06:44:11Z</time></trkpt><trkpt lat="44.254878108244824" lon="11.03680988594959"><ele>593.5</ele><time>2026-05-02T06:44:13Z</time></trkpt><trkpt lat="44.25485693407387" lon="11.036717093208024"><ele>593.0</ele><time>2026-05-02T06:44:15Z</time></trkpt><trkpt lat="44.25483946249469" lon="11.036629265056641"><ele>592.5</ele><time>2026-05-02T06:44:16Z</time></trkpt><trkpt lat="44.254822640373916" lon="11.036537894817602"><ele>592.0</ele><time>2026-05-02T06:44:17Z</time></trkpt><trkpt lat="44.254780072154844" lon="11.036440459646279"><ele>592.0</ele><time>2026-05-02T06:44:18Z</time></trkpt><trkpt lat="44.25480837301987" lon="11.036342795762296"><ele>592.0</ele><time>2026-05-02T06:44:19Z</time></trkpt><trkpt lat="44.25482644158221" lon="11.03621720547654"><ele>592.0</ele><time>2026-05-02T06:44:20Z</time></trkpt><trkpt lat="44.2548468086152" lon="11.036089199748723"><ele>592.0</ele><time>2026-05-02T06:44:21Z</time></trkpt><trkpt lat="44.25487245755036" lon="11.035975694346972"><ele>592.0</ele><time>2026-05-02T06:44:22Z</time></trkpt><trkpt lat="44.25489762095313" lon="11.035891773560726"><ele>592.0</ele><time>2026-05-02T06:44:23Z</time></trkpt><trkpt lat="44.25496617267459" lon="11.035828405688083"><ele>592.0</ele><time>2026-05-02T06:44:25Z</time></trkpt><trkpt lat="44.25503700631" lon="11.035882407964104"><ele>592.0</ele><time>2026-05-02T06:44:27Z</time></trkpt><trkpt lat="44.25508756858046" lon="11.03594029690309"><ele>592.0</ele><time>2026-05-02T06:44:28Z</time></trkpt><trkpt lat="44.255188025127744" lon="11.035966094050439"><ele>592.0</ele><time>2026-05-02T06:44:30Z</time></trkpt><trkpt lat="44.25528817414249" lon="11.035898857854939"><ele>592.0</ele><time>2026-05-02T06:44:32Z</time></trkpt><trkpt lat="44.25534904436497" lon="11.035864065981167"><ele>592.0</ele><time>2026-05-02T06:44:33Z</time></trkpt><trkpt lat="44.255432615529074" lon="11.035825740382661"><ele>592.3333333333334</ele><time>2026-05-02T06:44:34Z</time></trkpt><trkpt lat="44.255499518332435" lon="11.0357851269888"><ele>592.6666666666667</ele><time>2026-05-02T06:44:35Z</time></trkpt><trkpt lat="44.25556448949985" lon="11.035685406000571"><ele>593.0</ele><time>2026-05-02T06:44:37Z</time></trkpt><trkpt lat="44.25563876551813" lon="11.035671168211717"><ele>593.3333333333334</ele><time>2026-05-02T06:44:39Z</time></trkpt><trkpt lat="44.25571325100463" lon="11.035633258621235"><ele>593.6666666666666</ele><time>2026-05-02T06:44:42Z</time></trkpt><trkpt lat="44.25577609475292" lon="11.035578348694711"><ele>594.0</ele><time>2026-05-02T06:44:46Z</time></trkpt><trkpt lat="44.25572522235491" lon="11.035516748582449"><ele>590.8333333333334</ele><time>2026-05-02T06:44:49Z</time></trkpt><trkpt lat="44.25565270288157" lon="11.035507904598015"><ele>587.6666666666666</ele><time>2026-05-02T06:44:51Z</time></trkpt><trkpt lat="44.25562661676246" lon="11.035403521771924"><ele>584.5</ele><time>2026-05-02T06:44:53Z</time></trkpt><trkpt lat="44.25567324152568" lon="11.035243052509038"><ele>581.3333333333333</ele><time>2026-05-02T06:44:55Z</time></trkpt><trkpt lat="44.25568406082691" lon="11.035137837243996"><ele>578.1666666666666</ele><time>2026-05-02T06:44:56Z</time></trkpt><trkpt lat="44.25569633771149" lon="11.035042074033779"><ele>575.0</ele><time>2026-05-02T06:44:57Z</time></trkpt><trkpt lat="44.25572331385939" lon="11.034956793909798"><ele>575.0</ele><time>2026-05-02T06:44:58Z</time></trkpt><trkpt lat="44.25575127103865" lon="11.034870383505325"><ele>575.0</ele><time>2026-05-02T06:44:59Z</time></trkpt><trkpt lat="44.25579078479755" lon="11.034764016485024"><ele>575.0</ele><time>2026-05-02T06:45:00Z</time></trkpt><trkpt lat="44.255827980938584" lon="11.034689251670414"><ele>575.0</ele><time>2026-05-02T06:45:01Z</time></trkpt><trkpt lat="44.25587146531433" lon="11.03460430970146"><ele>575.0</ele><time>2026-05-02T06:45:02Z</time></trkpt><trkpt lat="44.25594335108827" lon="11.03448836155784"><ele>575.0</ele><time>2026-05-02T06:45:03.999Z</time></trkpt><trkpt lat="44.255979210190105" lon="11.034376257216495"><ele>575.0</ele><time>2026-05-02T06:45:05.999Z</time></trkpt><trkpt lat="44.25594208816815" lon="11.034273562391006"><ele>575.0</ele><time>2026-05-02T06:45:08.999Z</time></trkpt><trkpt lat="44.25586930913243" lon="11.034249127722202"><ele>575.0</ele><time>2026-05-02T06:45:10.999Z</time></trkpt><trkpt lat="44.255775328881974" lon="11.034254590686796"><ele>575.0</ele><time>2026-05-02T06:45:12.999Z</time></trkpt><trkpt lat="44.25571258654089" lon="11.034125689018126"><ele>575.0</ele><time>2026-05-02T06:45:14.999Z</time></trkpt><trkpt lat="44.255690710426535" lon="11.034017190428482"><ele>575.0</ele><time>2026-05-02T06:45:16.999Z</time></trkpt><trkpt lat="44.25570459378072" lon="11.033819558229252"><ele>573.5</ele><time>2026-05-02T06:45:18.999Z</time></trkpt><trkpt lat="44.25569396287865" lon="11.033711681960181"><ele>572.0</ele><time>2026-05-02T06:45:19.999Z</time></trkpt><trkpt lat="44.2556853314302" lon="11.033605030213096"><ele>570.5</ele><time>2026-05-02T06:45:20.999Z</time></trkpt><trkpt lat="44.25565553470883" lon="11.033491478764857"><ele>569.0</ele><time>2026-05-02T06:45:21.999Z</time></trkpt><trkpt lat="44.255638431304504" lon="11.033381350398237"><ele>567.5</ele><time>2026-05-02T06:45:22.999Z</time></trkpt><trkpt lat="44.25559551330993" lon="11.033248897535207"><ele>566.0</ele><time>2026-05-02T06:45:24.999Z</time></trkpt><trkpt lat="44.25554761334708" lon="11.033169010780371"><ele>569.3333333333333</ele><time>2026-05-02T06:45:25.999Z</time></trkpt><trkpt lat="44.25548422962484" lon="11.033072721102322"><ele>572.6666666666666</ele><time>2026-05-02T06:45:27.999Z</time></trkpt><trkpt lat="44.25540108361291" lon="11.032959489081042"><ele>576.0</ele><time>2026-05-02T06:45:29.999Z</time></trkpt><trkpt lat="44.255362913694974" lon="11.032888332301862"><ele>579.3333333333334</ele><time>2026-05-02T06:45:31.999Z</time></trkpt><trkpt lat="44.255308507184935" lon="11.032779977527344"><ele>582.6666666666667</ele><time>2026-05-02T06:45:33.999Z</time></trkpt><trkpt lat="44.255340857179085" lon="11.032689439651945"><ele>586.0</ele><time>2026-05-02T06:45:35.999Z</time></trkpt><trkpt lat="44.25542239594734" lon="11.032676081648464"><ele>586.0</ele><time>2026-05-02T06:45:38.999Z</time></trkpt><trkpt lat="44.255486828115615" lon="11.03262919744407"><ele>586.0</ele><time>2026-05-02T06:45:40.999Z</time></trkpt><trkpt lat="44.255523424574996" lon="11.03253285427582"><ele>586.0</ele><time>2026-05-02T06:45:42.999Z</time></trkpt><trkpt lat="44.25555635414004" lon="11.032400991240232"><ele>586.0</ele><time>2026-05-02T06:45:44.999Z</time></trkpt><trkpt lat="44.255596270344235" lon="11.032261727049955"><ele>586.0</ele><time>2026-05-02T06:45:47Z</time></trkpt><trkpt lat="44.255583737631234" lon="11.03212205817498"><ele>585.0</ele><time>2026-05-02T06:45:49Z</time></trkpt><trkpt lat="44.25561332508523" lon="11.031961381720972"><ele>584.0</ele><time>2026-05-02T06:45:51Z</time></trkpt><trkpt lat="44.2556093841921" lon="11.03186042563301"><ele>583.0</ele><time>2026-05-02T06:45:53Z</time></trkpt><trkpt lat="44.25564219039893" lon="11.031774857449362"><ele>582.0</ele><time>2026-05-02T06:45:56Z</time></trkpt><trkpt lat="44.25564826928323" lon="11.031681958779268"><ele>581.0</ele><time>2026-05-02T06:45:59Z</time></trkpt><trkpt lat="44.255654837707134" lon="11.03157286859961"><ele>580.0</ele><time>2026-05-02T06:47:00Z</time></trkpt><trkpt lat="44.255720067452366" lon="11.031624697931704"><ele>573.8333333333334</ele><time>2026-05-02T06:47:14.999Z</time></trkpt><trkpt lat="44.25573325514497" lon="11.031736633390478"><ele>567.6666666666667</ele><time>2026-05-02T06:47:16.999Z</time></trkpt><trkpt lat="44.25578944873935" lon="11.031817868405945"><ele>561.5</ele><time>2026-05-02T06:47:18.999Z</time></trkpt><trkpt lat="44.255815937007334" lon="11.031938974010545"><ele>555.3333333333334</ele><time>2026-05-02T06:47:23.999Z</time></trkpt><trkpt lat="44.255871846994374" lon="11.03203289903161"><ele>549.1666666666666</ele><time>2026-05-02T06:47:28.999Z</time></trkpt><trkpt lat="44.25586471316698" lon="11.03214276974587"><ele>543.0</ele><time>2026-05-02T06:47:31.999Z</time></trkpt><trkpt lat="44.255927607905036" lon="11.032253060480205"><ele>543.0</ele><time>2026-05-02T06:50:16Z</time></trkpt><trkpt lat="44.255975126060335" lon="11.03232255699384"><ele>543.0</ele><time>2026-05-02T06:51:08Z</time></trkpt><trkpt lat="44.25605252142439" lon="11.03231079138359"><ele>543.0</ele><time>2026-05-02T06:51:24.999Z</time></trkpt><trkpt lat="44.256108643870256" lon="11.032263500371538"><ele>543.0</ele><time>2026-05-02T06:51:28.999Z</time></trkpt><trkpt lat="44.256130619069474" lon="11.03216442897655"><ele>543.0</ele><time>2026-05-02T06:52:07Z</time></trkpt><trkpt lat="44.25615060419542" lon="11.032079149399037"><ele>543.0</ele><time>2026-05-02T06:57:03Z</time></trkpt><trkpt lat="44.25623930111992" lon="11.032093177290102"><ele>543.0</ele><time>2026-05-02T06:57:32.999Z</time></trkpt><trkpt lat="44.25626856618787" lon="11.032178731548763"><ele>543.0</ele><time>2026-05-02T06:57:42.999Z</time></trkpt><trkpt lat="44.25629639795433" lon="11.03227185855143"><ele>543.0</ele><time>2026-05-02T06:57:45.999Z</time></trkpt><trkpt lat="44.25636594172821" lon="11.032326418609202"><ele>543.0</ele><time>2026-05-02T06:57:48.999Z</time></trkpt><trkpt lat="44.25643792816629" lon="11.032343287485812"><ele>543.0</ele><time>2026-05-02T06:57:51.999Z</time></trkpt><trkpt lat="44.256518885050404" lon="11.032335588909286"><ele>543.0</ele><time>2026-05-02T06:57:53.999Z</time></trkpt><trkpt lat="44.2566414383847" lon="11.032301540140564"><ele>543.0</ele><time>2026-05-02T06:57:55.999Z</time></trkpt><trkpt lat="44.25671112947938" lon="11.03227070064139"><ele>542.8</ele><time>2026-05-02T06:57:56.999Z</time></trkpt><trkpt lat="44.2567973912228" lon="11.032202189057454"><ele>542.5999999999999</ele><time>2026-05-02T06:57:58.999Z</time></trkpt><trkpt lat="44.256915421553806" lon="11.03226701715996"><ele>542.4000000000001</ele><time>2026-05-02T06:58:00.999Z</time></trkpt><trkpt lat="44.25697969711211" lon="11.032327936705048"><ele>542.2</ele><time>2026-05-02T06:58:01.999Z</time></trkpt><trkpt lat="44.25704838591626" lon="11.032381702552263"><ele>542.0</ele><time>2026-05-02T06:58:02.999Z</time></trkpt><trkpt lat="44.25710732828325" lon="11.032443128186964"><ele>539.6666666666666</ele><time>2026-05-02T06:58:03.999Z</time></trkpt><trkpt lat="44.25716886310113" lon="11.032511920900555"><ele>537.3333333333333</ele><time>2026-05-02T06:58:04.999Z</time></trkpt><trkpt lat="44.25722256452608" lon="11.032601527594263"><ele>535.0</ele><time>2026-05-02T06:58:05.999Z</time></trkpt><trkpt lat="44.257270040225556" lon="11.032708408167702"><ele>532.6666666666666</ele><time>2026-05-02T06:58:06.999Z</time></trkpt><trkpt lat="44.25730957053457" lon="11.032800661495223"><ele>530.3333333333334</ele><time>2026-05-02T06:58:07.999Z</time></trkpt><trkpt lat="44.25733961027822" lon="11.032886214253338"><ele>528.0</ele><time>2026-05-02T06:58:08.999Z</time></trkpt><trkpt lat="44.257372749734884" lon="11.032965008186773"><ele>530.5</ele><time>2026-05-02T06:58:09.999Z</time></trkpt><trkpt lat="44.257402578997244" lon="11.0330734028296"><ele>533.0</ele><time>2026-05-02T06:58:10.999Z</time></trkpt><trkpt lat="44.257417209524085" lon="11.033179442281812"><ele>535.5</ele><time>2026-05-02T06:58:11.999Z</time></trkpt><trkpt lat="44.25741910163149" lon="11.033279241133318"><ele>538.0</ele><time>2026-05-02T06:58:12.999Z</time></trkpt><trkpt lat="44.257430213290185" lon="11.033376104752781"><ele>540.5</ele><time>2026-05-02T06:58:13.999Z</time></trkpt><trkpt lat="44.25749760118503" lon="11.033485881020344"><ele>543.0</ele><time>2026-05-02T06:58:15.999Z</time></trkpt><trkpt lat="44.257553123194626" lon="11.033533824342292"><ele>543.0</ele><time>2026-05-02T06:58:16.999Z</time></trkpt><trkpt lat="44.25759591304721" lon="11.033634895224269"><ele>543.0</ele><time>2026-05-02T06:58:17.999Z</time></trkpt><trkpt lat="44.257635245799946" lon="11.033741696279256"><ele>543.0</ele><time>2026-05-02T06:58:18.999Z</time></trkpt><trkpt lat="44.25767100520185" lon="11.03381854425857"><ele>543.0</ele><time>2026-05-02T06:58:19.999Z</time></trkpt><trkpt lat="44.25774236408385" lon="11.033885688657291"><ele>543.0</ele><time>2026-05-02T06:58:20.999Z</time></trkpt><trkpt lat="44.25780863485895" lon="11.033973412948454"><ele>543.0</ele><time>2026-05-02T06:58:22Z</time></trkpt><trkpt lat="44.25787290187255" lon="11.034061630251584"><ele>543.0</ele><time>2026-05-02T06:58:23Z</time></trkpt><trkpt lat="44.25794643783742" lon="11.034131688925497"><ele>543.0</ele><time>2026-05-02T06:58:24Z</time></trkpt><trkpt lat="44.25801810756733" lon="11.034200548978667"><ele>543.0</ele><time>2026-05-02T06:58:25Z</time></trkpt><trkpt lat="44.25808899551458" lon="11.034266709415496"><ele>543.0</ele><time>2026-05-02T06:58:26Z</time></trkpt><trkpt lat="44.258153966292916" lon="11.034329096684207"><ele>543.0</ele><time>2026-05-02T06:58:27Z</time></trkpt><trkpt lat="44.2582125031743" lon="11.034364815734866"><ele>543.0</ele><time>2026-05-02T06:58:28Z</time></trkpt><trkpt lat="44.258281208658985" lon="11.0343891539645"><ele>547.8333333333334</ele><time>2026-05-02T06:58:29Z</time></trkpt><trkpt lat="44.25835500701269" lon="11.03440032268896"><ele>552.6666666666666</ele><time>2026-05-02T06:58:30Z</time></trkpt><trkpt lat="44.258467426772064" lon="11.034473643306876"><ele>557.5</ele><time>2026-05-02T06:58:32Z</time></trkpt><trkpt lat="44.258513653997234" lon="11.034551572587"><ele>562.3333333333333</ele><time>2026-05-02T06:58:33Z</time></trkpt><trkpt lat="44.25854663016792" lon="11.034642377087188"><ele>567.1666666666666</ele><time>2026-05-02T06:58:34Z</time></trkpt><trkpt lat="44.258604377362055" lon="11.034732291418676"><ele>572.0</ele><time>2026-05-02T06:58:35Z</time></trkpt><trkpt lat="44.258613143425514" lon="11.03482211520557"><ele>572.0</ele><time>2026-05-02T06:58:36Z</time></trkpt><trkpt lat="44.25860975532958" lon="11.034919726748486"><ele>572.0</ele><time>2026-05-02T06:58:37Z</time></trkpt><trkpt lat="44.25858708280568" lon="11.035018203216328"><ele>572.0</ele><time>2026-05-02T06:58:38Z</time></trkpt><trkpt lat="44.25858189759578" lon="11.035138530344692"><ele>572.0</ele><time>2026-05-02T06:58:39Z</time></trkpt><trkpt lat="44.2585973281467" lon="11.035284296134037"><ele>572.0</ele><time>2026-05-02T06:58:40Z</time></trkpt><trkpt lat="44.25861068098209" lon="11.035411737139578"><ele>572.0</ele><time>2026-05-02T06:58:41Z</time></trkpt><trkpt lat="44.25863613218063" lon="11.035502480296499"><ele>572.8333333333333</ele><time>2026-05-02T06:58:42Z</time></trkpt><trkpt lat="44.258677752549374" lon="11.035577930267285"><ele>573.6666666666666</ele><time>2026-05-02T06:58:43Z</time></trkpt><trkpt lat="44.25877495015704" lon="11.035699330584908"><ele>574.5</ele><time>2026-05-02T06:58:45Z</time></trkpt><trkpt lat="44.25883802749293" lon="11.035765306245068"><ele>575.3333333333334</ele><time>2026-05-02T06:58:46Z</time></trkpt><trkpt lat="44.2589091776732" lon="11.035814954437113"><ele>576.1666666666667</ele><time>2026-05-02T06:58:47Z</time></trkpt><trkpt lat="44.25898941639053" lon="11.035828132093675"><ele>577.0</ele><time>2026-05-02T06:58:48Z</time></trkpt><trkpt lat="44.25906797661649" lon="11.03584212273072"><ele>577.0</ele><time>2026-05-02T06:58:49Z</time></trkpt><trkpt lat="44.25914449111466" lon="11.035886448273354"><ele>577.0</ele><time>2026-05-02T06:58:50Z</time></trkpt><trkpt lat="44.259210643690174" lon="11.035967861607432"><ele>577.0</ele><time>2026-05-02T06:58:51Z</time></trkpt><trkpt lat="44.25926545172858" lon="11.036078770491637"><ele>577.0</ele><time>2026-05-02T06:58:52Z</time></trkpt><trkpt lat="44.259323858654916" lon="11.036203608085025"><ele>577.0</ele><time>2026-05-02T06:58:53Z</time></trkpt><trkpt lat="44.25940526888975" lon="11.036319692774706"><ele>577.0</ele><time>2026-05-02T06:58:54Z</time></trkpt><trkpt lat="44.25945503934274" lon="11.036392426723971"><ele>577.0</ele><time>2026-05-02T06:58:55Z</time></trkpt><trkpt lat="44.25952616394208" lon="11.036400416596956"><ele>577.0</ele><time>2026-05-02T06:58:58Z</time></trkpt><trkpt lat="44.25955964711305" lon="11.036523283925318"><ele>577.0</ele><time>2026-05-02T06:59:01Z</time></trkpt><trkpt lat="44.25960107318775" lon="11.036630347001338"><ele>577.0</ele><time>2026-05-02T06:59:04Z</time></trkpt><trkpt lat="44.259600861532455" lon="11.03680004008631"><ele>577.0</ele><time>2026-05-02T06:59:06Z</time></trkpt><trkpt lat="44.25963437085724" lon="11.036890155391497"><ele>576.0</ele><time>2026-05-02T06:59:09Z</time></trkpt><trkpt lat="44.25957351350254" lon="11.03701385146241"><ele>575.0</ele><time>2026-05-02T06:59:11Z</time></trkpt><trkpt lat="44.2595479071132" lon="11.037115096250131"><ele>574.0</ele><time>2026-05-02T06:59:13Z</time></trkpt><trkpt lat="44.25945237973783" lon="11.037165405212308"><ele>573.0</ele><time>2026-05-02T06:59:15Z</time></trkpt><trkpt lat="44.25938049637757" lon="11.037226037175788"><ele>572.0</ele><time>2026-05-02T06:59:16Z</time></trkpt><trkpt lat="44.25932001782391" lon="11.037287492198509"><ele>571.0</ele><time>2026-05-02T06:59:17Z</time></trkpt><trkpt lat="44.25926375002285" lon="11.03735063364999"><ele>571.0</ele><time>2026-05-02T06:59:18Z</time></trkpt><trkpt lat="44.25921489262188" lon="11.03743547076636"><ele>571.0</ele><time>2026-05-02T06:59:21Z</time></trkpt><trkpt lat="44.25913205931543" lon="11.037519100133125"><ele>571.0</ele><time>2026-05-02T06:59:23Z</time></trkpt><trkpt lat="44.259107055498184" lon="11.03762920951587"><ele>571.0</ele><time>2026-05-02T06:59:25Z</time></trkpt><trkpt lat="44.25907317831926" lon="11.037779825045604"><ele>571.0</ele><time>2026-05-02T06:59:27Z</time></trkpt><trkpt lat="44.25900398728955" lon="11.037941916061168"><ele>573.4</ele><time>2026-05-02T06:59:29Z</time></trkpt><trkpt lat="44.25895935282526" lon="11.038046963739854"><ele>575.8</ele><time>2026-05-02T06:59:31Z</time></trkpt><trkpt lat="44.25890186025111" lon="11.038163025773752"><ele>578.1999999999999</ele><time>2026-05-02T06:59:33Z</time></trkpt><trkpt lat="44.258856305448084" lon="11.038361198017926"><ele>580.6</ele><time>2026-05-02T06:59:35Z</time></trkpt><trkpt lat="44.25883540986341" lon="11.038486712826112"><ele>583.0</ele><time>2026-05-02T06:59:35.999Z</time></trkpt><trkpt lat="44.25880850612282" lon="11.038618649639425"><ele>578.6666666666667</ele><time>2026-05-02T06:59:37.999Z</time></trkpt><trkpt lat="44.258782478539985" lon="11.03872279191709"><ele>574.3333333333334</ele><time>2026-05-02T06:59:39.999Z</time></trkpt><trkpt lat="44.2587698664486" lon="11.038817270951359"><ele>570.0</ele><time>2026-05-02T06:59:41.999Z</time></trkpt><trkpt lat="44.25871497159897" lon="11.038975551596279"><ele>565.6666666666666</ele><time>2026-05-02T06:59:43.999Z</time></trkpt><trkpt lat="44.25868249346306" lon="11.03907585450302"><ele>561.3333333333333</ele><time>2026-05-02T06:59:44.999Z</time></trkpt><trkpt lat="44.25864500259296" lon="11.039164167599209"><ele>557.0</ele><time>2026-05-02T06:59:45.999Z</time></trkpt><trkpt lat="44.258585662081934" lon="11.039300920649021"><ele>557.0</ele><time>2026-05-02T06:59:47.999Z</time></trkpt><trkpt lat="44.25859714901356" lon="11.039418244267791"><ele>557.0</ele><time>2026-05-02T06:59:49.999Z</time></trkpt><trkpt lat="44.25861071892371" lon="11.039513825788283"><ele>557.0</ele><time>2026-05-02T06:59:50.999Z</time></trkpt><trkpt lat="44.25861169014771" lon="11.03960628516979"><ele>557.0</ele><time>2026-05-02T06:59:51.999Z</time></trkpt><trkpt lat="44.258611263357636" lon="11.039737996621607"><ele>557.0</ele><time>2026-05-02T06:59:52.999Z</time></trkpt><trkpt lat="44.25862108692763" lon="11.039854133150392"><ele>557.0</ele><time>2026-05-02T06:59:53.999Z</time></trkpt><trkpt lat="44.25863108847283" lon="11.039945516103373"><ele>559.5</ele><time>2026-05-02T06:59:54.999Z</time></trkpt><trkpt lat="44.25864017946229" lon="11.040131937771488"><ele>562.0</ele><time>2026-05-02T06:59:56.999Z</time></trkpt><trkpt lat="44.25868821710178" lon="11.040255592942096"><ele>564.5</ele><time>2026-05-02T06:59:57.999Z</time></trkpt><trkpt lat="44.258738916332426" lon="11.040388221595169"><ele>567.0</ele><time>2026-05-02T06:59:58.999Z</time></trkpt><trkpt lat="44.25877470339618" lon="11.040534743613188"><ele>567.0</ele><time>2026-05-02T06:59:59.999Z</time></trkpt><trkpt lat="44.258809457233234" lon="11.040642305233865"><ele>567.0</ele><time>2026-05-02T07:00:00.999Z</time></trkpt><trkpt lat="44.258846009301024" lon="11.040716418226147"><ele>567.0</ele><time>2026-05-02T07:00:01.999Z</time></trkpt><trkpt lat="44.25891941312525" lon="11.040826015640011"><ele>567.0</ele><time>2026-05-02T07:00:03.999Z</time></trkpt><trkpt lat="44.25895834515806" lon="11.040898935011409"><ele>567.0</ele><time>2026-05-02T07:00:04.999Z</time></trkpt><trkpt lat="44.25899301731136" lon="11.041078380428598"><ele>572.8000000000001</ele><time>2026-05-02T07:00:06.999Z</time></trkpt><trkpt lat="44.25901026604726" lon="11.041176373603243"><ele>578.6</ele><time>2026-05-02T07:00:07.999Z</time></trkpt><trkpt lat="44.25903729697297" lon="11.041283057128295"><ele>584.4000000000001</ele><time>2026-05-02T07:00:08.999Z</time></trkpt><trkpt lat="44.25907133974733" lon="11.041403884459069"><ele>590.2</ele><time>2026-05-02T07:00:09.999Z</time></trkpt><trkpt lat="44.259116336309646" lon="11.041530740668174"><ele>596.0</ele><time>2026-05-02T07:00:10.999Z</time></trkpt><trkpt lat="44.25916350539391" lon="11.041675007235451"><ele>596.0</ele><time>2026-05-02T07:00:11.999Z</time></trkpt><trkpt lat="44.25922745489393" lon="11.041806340257077"><ele>596.0</ele><time>2026-05-02T07:00:12.999Z</time></trkpt><trkpt lat="44.259298634993854" lon="11.041944373250153"><ele>596.0</ele><time>2026-05-02T07:00:13.999Z</time></trkpt><trkpt lat="44.25936940318399" lon="11.042066476038011"><ele>596.0</ele><time>2026-05-02T07:00:14.999Z</time></trkpt><trkpt lat="44.25944825255377" lon="11.04219161987619"><ele>596.0</ele><time>2026-05-02T07:00:15.999Z</time></trkpt><trkpt lat="44.25953370280048" lon="11.042303063180572"><ele>596.0</ele><time>2026-05-02T07:00:16.999Z</time></trkpt><trkpt lat="44.25963317289357" lon="11.042385820916286"><ele>596.0</ele><time>2026-05-02T07:00:17.999Z</time></trkpt><trkpt lat="44.259733211223576" lon="11.042400098571308"><ele>596.0</ele><time>2026-05-02T07:00:18.999Z</time></trkpt><trkpt lat="44.25982751196072" lon="11.04236179491933"><ele>596.0</ele><time>2026-05-02T07:00:19.999Z</time></trkpt><trkpt lat="44.25991697394611" lon="11.042238710753962"><ele>597.6</ele><time>2026-05-02T07:00:20.999Z</time></trkpt><trkpt lat="44.26002022890356" lon="11.042172622188566"><ele>599.2</ele><time>2026-05-02T07:00:21.999Z</time></trkpt><trkpt lat="44.260111579246185" lon="11.042138782703066"><ele>600.8</ele><time>2026-05-02T07:00:22.999Z</time></trkpt><trkpt lat="44.26022346614146" lon="11.042117123156244"><ele>602.4</ele><time>2026-05-02T07:00:23.999Z</time></trkpt><trkpt lat="44.2603307069449" lon="11.04212323552985"><ele>604.0</ele><time>2026-05-02T07:00:24.999Z</time></trkpt><trkpt lat="44.26042919729507" lon="11.042191301537828"><ele>604.0</ele><time>2026-05-02T07:00:25.999Z</time></trkpt><trkpt lat="44.260515290716896" lon="11.042302524555216"><ele>604.0</ele><time>2026-05-02T07:00:26.999Z</time></trkpt><trkpt lat="44.26059575835698" lon="11.04243586304884"><ele>604.0</ele><time>2026-05-02T07:00:28Z</time></trkpt><trkpt lat="44.26064215701659" lon="11.042606574290838"><ele>604.0</ele><time>2026-05-02T07:00:29Z</time></trkpt><trkpt lat="44.2606663328211" lon="11.042792306087806"><ele>600.0</ele><time>2026-05-02T07:00:30Z</time></trkpt><trkpt lat="44.26066796847152" lon="11.042982757962417"><ele>596.0</ele><time>2026-05-02T07:00:31Z</time></trkpt><trkpt lat="44.26067507428532" lon="11.043177178209863"><ele>592.0</ele><time>2026-05-02T07:00:32Z</time></trkpt><trkpt lat="44.26069437005805" lon="11.04336204768413"><ele>588.0</ele><time>2026-05-02T07:00:33Z</time></trkpt><trkpt lat="44.26069769952848" lon="11.043555166103028"><ele>586.25</ele><time>2026-05-02T07:00:34Z</time></trkpt><trkpt lat="44.2606820663764" lon="11.043720545331828"><ele>584.5</ele><time>2026-05-02T07:00:35Z</time></trkpt><trkpt lat="44.26065823998571" lon="11.04391427944685"><ele>582.75</ele><time>2026-05-02T07:00:36Z</time></trkpt><trkpt lat="44.2606236248272" lon="11.044075865169269"><ele>581.0</ele><time>2026-05-02T07:00:37Z</time></trkpt><trkpt lat="44.26058752398508" lon="11.044239582897415"><ele>580.0</ele><time>2026-05-02T07:00:38Z</time></trkpt><trkpt lat="44.26057167128997" lon="11.044385890172311"><ele>579.0</ele><time>2026-05-02T07:00:39Z</time></trkpt><trkpt lat="44.260585139769795" lon="11.044532468009905"><ele>578.0</ele><time>2026-05-02T07:00:40Z</time></trkpt><trkpt lat="44.260638802220775" lon="11.044658470797383"><ele>577.0</ele><time>2026-05-02T07:00:41Z</time></trkpt><trkpt lat="44.26071534713948" lon="11.044768796405553"><ele>576.0</ele><time>2026-05-02T07:00:42Z</time></trkpt><trkpt lat="44.26079278217427" lon="11.044870570444619"><ele>572.8</ele><time>2026-05-02T07:00:43Z</time></trkpt><trkpt lat="44.2608664399735" lon="11.044993171293726"><ele>569.6</ele><time>2026-05-02T07:00:44Z</time></trkpt><trkpt lat="44.260930006006426" lon="11.045112676763917"><ele>566.4</ele><time>2026-05-02T07:00:45Z</time></trkpt><trkpt lat="44.260995878525165" lon="11.045221318837822"><ele>563.2</ele><time>2026-05-02T07:00:46Z</time></trkpt><trkpt lat="44.26107500502116" lon="11.045291343042566"><ele>560.0</ele><time>2026-05-02T07:00:47Z</time></trkpt><trkpt lat="44.26118374321942" lon="11.045330795739071"><ele>560.0</ele><time>2026-05-02T07:00:48Z</time></trkpt><trkpt lat="44.26130037427736" lon="11.04535576519896"><ele>560.0</ele><time>2026-05-02T07:00:49Z</time></trkpt><trkpt lat="44.26142232211361" lon="11.045351829436468"><ele>560.0</ele><time>2026-05-02T07:00:50Z</time></trkpt><trkpt lat="44.261534572461784" lon="11.04532195160174"><ele>560.0</ele><time>2026-05-02T07:00:51Z</time></trkpt><trkpt lat="44.26162904568052" lon="11.045292378862698"><ele>561.2</ele><time>2026-05-02T07:00:52Z</time></trkpt><trkpt lat="44.26172173815546" lon="11.045287490659478"><ele>562.4</ele><time>2026-05-02T07:00:53Z</time></trkpt><trkpt lat="44.261790541107196" lon="11.045330709551243"><ele>563.6</ele><time>2026-05-02T07:00:54Z</time></trkpt><trkpt lat="44.26182114036719" lon="11.045441608232109"><ele>564.8</ele><time>2026-05-02T07:00:55Z</time></trkpt><trkpt lat="44.26180080943174" lon="11.045569016553682"><ele>566.0</ele><time>2026-05-02T07:00:56Z</time></trkpt><trkpt lat="44.261709389219355" lon="11.04565200611075"><ele>566.0</ele><time>2026-05-02T07:00:57Z</time></trkpt><trkpt lat="44.26160881043042" lon="11.045671142935133"><ele>566.0</ele><time>2026-05-02T07:00:58Z</time></trkpt><trkpt lat="44.2615089338077" lon="11.045747870067975"><ele>566.0</ele><time>2026-05-02T07:00:59Z</time></trkpt><trkpt lat="44.261403857424725" lon="11.045801673735074"><ele>566.0</ele><time>2026-05-02T07:01:00Z</time></trkpt><trkpt lat="44.26129607990903" lon="11.045887744245999"><ele>563.25</ele><time>2026-05-02T07:01:01Z</time></trkpt><trkpt lat="44.26117816583192" lon="11.045981645373693"><ele>560.5</ele><time>2026-05-02T07:01:02Z</time></trkpt><trkpt lat="44.26105362971226" lon="11.046062231057899"><ele>557.75</ele><time>2026-05-02T07:01:03Z</time></trkpt><trkpt lat="44.26090541898628" lon="11.04609912467611"><ele>555.0</ele><time>2026-05-02T07:01:04Z</time></trkpt><trkpt lat="44.260776751080556" lon="11.046151189169226"><ele>555.0</ele><time>2026-05-02T07:01:05Z</time></trkpt><trkpt lat="44.26065486429316" lon="11.046175351510295"><ele>555.0</ele><time>2026-05-02T07:01:06Z</time></trkpt><trkpt lat="44.260559892446395" lon="11.046215336041868"><ele>555.0</ele><time>2026-05-02T07:01:07Z</time></trkpt><trkpt lat="44.26045786816061" lon="11.046243317426411"><ele>555.0</ele><time>2026-05-02T07:01:08Z</time></trkpt><trkpt lat="44.26036760805659" lon="11.046308667529816"><ele>555.0</ele><time>2026-05-02T07:01:09Z</time></trkpt><trkpt lat="44.260288116079494" lon="11.046409073815353"><ele>554.25</ele><time>2026-05-02T07:01:10Z</time></trkpt><trkpt lat="44.26019859989564" lon="11.046524478649829"><ele>553.5</ele><time>2026-05-02T07:01:11Z</time></trkpt><trkpt lat="44.26009773955463" lon="11.04663908068791"><ele>552.75</ele><time>2026-05-02T07:01:12Z</time></trkpt><trkpt lat="44.25999719400142" lon="11.04675274211173"><ele>552.0</ele><time>2026-05-02T07:01:13Z</time></trkpt><trkpt lat="44.25989415784497" lon="11.046852583693102"><ele>552.0</ele><time>2026-05-02T07:01:14Z</time></trkpt><trkpt lat="44.259790905410036" lon="11.046969420790335"><ele>552.0</ele><time>2026-05-02T07:01:15Z</time></trkpt><trkpt lat="44.259666574808485" lon="11.047087712365505"><ele>552.0</ele><time>2026-05-02T07:01:16Z</time></trkpt><trkpt lat="44.259568265500945" lon="11.047213377752549"><ele>552.0</ele><time>2026-05-02T07:01:17Z</time></trkpt><trkpt lat="44.25945501318779" lon="11.047350762008339"><ele>548.25</ele><time>2026-05-02T07:01:18Z</time></trkpt><trkpt lat="44.25933855612893" lon="11.047473543355114"><ele>544.5</ele><time>2026-05-02T07:01:19Z</time></trkpt><trkpt lat="44.259219091801434" lon="11.047607035198677"><ele>540.75</ele><time>2026-05-02T07:01:20Z</time></trkpt><trkpt lat="44.25910688077889" lon="11.04771970031637"><ele>537.0</ele><time>2026-05-02T07:01:21Z</time></trkpt><trkpt lat="44.25899746176051" lon="11.047828600465118"><ele>531.0</ele><time>2026-05-02T07:01:22Z</time></trkpt><trkpt lat="44.25890073562019" lon="11.047955587273531"><ele>525.0</ele><time>2026-05-02T07:01:23Z</time></trkpt><trkpt lat="44.25881599447894" lon="11.048087735176622"><ele>519.0</ele><time>2026-05-02T07:01:24Z</time></trkpt><trkpt lat="44.258757132281744" lon="11.048226237838875"><ele>513.0</ele><time>2026-05-02T07:01:25Z</time></trkpt><trkpt lat="44.25870749073244" lon="11.048401902490948"><ele>513.0</ele><time>2026-05-02T07:01:26Z</time></trkpt><trkpt lat="44.25868164062476" lon="11.048590229756444"><ele>513.0</ele><time>2026-05-02T07:01:27Z</time></trkpt><trkpt lat="44.258627514882996" lon="11.048768022550341"><ele>513.0</ele><time>2026-05-02T07:01:28Z</time></trkpt><trkpt lat="44.25859116935168" lon="11.048945863934906"><ele>513.0</ele><time>2026-05-02T07:01:29Z</time></trkpt><trkpt lat="44.25856809653317" lon="11.049128541989308"><ele>514.5</ele><time>2026-05-02T07:01:30Z</time></trkpt><trkpt lat="44.25856983640822" lon="11.049322044106065"><ele>516.0</ele><time>2026-05-02T07:01:31Z</time></trkpt><trkpt lat="44.258568545491855" lon="11.049497629724732"><ele>517.5</ele><time>2026-05-02T07:01:32Z</time></trkpt><trkpt lat="44.258531686610425" lon="11.049649084671097"><ele>519.0</ele><time>2026-05-02T07:01:33Z</time></trkpt><trkpt lat="44.25847321719545" lon="11.04978150323141"><ele>519.0</ele><time>2026-05-02T07:01:34Z</time></trkpt><trkpt lat="44.258433229464394" lon="11.049895725622209"><ele>519.0</ele><time>2026-05-02T07:01:35Z</time></trkpt><trkpt lat="44.25844958763764" lon="11.050030349733563"><ele>519.0</ele><time>2026-05-02T07:01:36Z</time></trkpt><trkpt lat="44.258486815839454" lon="11.050152640079734"><ele>519.0</ele><time>2026-05-02T07:01:37Z</time></trkpt><trkpt lat="44.25851261117007" lon="11.050260914247701"><ele>519.0</ele><time>2026-05-02T07:01:37.999Z</time></trkpt><trkpt lat="44.25852592460006" lon="11.050362452118094"><ele>519.0</ele><time>2026-05-02T07:01:38.999Z</time></trkpt><trkpt lat="44.258503425674455" lon="11.0504675748071"><ele>519.0</ele><time>2026-05-02T07:01:40.999Z</time></trkpt><trkpt lat="44.258450612279184" lon="11.05053890502711"><ele>519.0</ele><time>2026-05-02T07:01:43.999Z</time></trkpt><trkpt lat="44.258455788998155" lon="11.050422117999647"><ele>519.0</ele><time>2026-05-02T07:01:45.999Z</time></trkpt><trkpt lat="44.25842785714946" lon="11.050243360219126"><ele>519.0</ele><time>2026-05-02T07:01:47.999Z</time></trkpt><trkpt lat="44.25839902366168" lon="11.050115398006037"><ele>519.0</ele><time>2026-05-02T07:01:48.999Z</time></trkpt><trkpt lat="44.25837265085881" lon="11.049998510378389"><ele>519.0</ele><time>2026-05-02T07:01:49.999Z</time></trkpt><trkpt lat="44.258349155356775" lon="11.049886514556801"><ele>519.0</ele><time>2026-05-02T07:01:50.999Z</time></trkpt><trkpt lat="44.25833186672325" lon="11.049777657591601"><ele>519.0</ele><time>2026-05-02T07:01:51.999Z</time></trkpt><trkpt lat="44.25830995758086" lon="11.049656285020287"><ele>519.0</ele><time>2026-05-02T07:01:52.999Z</time></trkpt><trkpt lat="44.25826828790339" lon="11.049525312022306"><ele>519.0</ele><time>2026-05-02T07:01:53.999Z</time></trkpt><trkpt lat="44.25821007688789" lon="11.049433000668717"><ele>519.0</ele><time>2026-05-02T07:01:54.999Z</time></trkpt><trkpt lat="44.25815882576011" lon="11.04931728258133"><ele>512.4</ele><time>2026-05-02T07:01:55.999Z</time></trkpt><trkpt lat="44.25807763633716" lon="11.049221502222162"><ele>505.79999999999995</ele><time>2026-05-02T07:01:56.999Z</time></trkpt><trkpt lat="44.258020550557596" lon="11.049139443955186"><ele>499.20000000000005</ele><time>2026-05-02T07:01:57.999Z</time></trkpt><trkpt lat="44.25796616595785" lon="11.049057126446819"><ele>492.6</ele><time>2026-05-02T07:01:58.999Z</time></trkpt><trkpt lat="44.25791865915017" lon="11.048979019716581"><ele>486.0</ele><time>2026-05-02T07:01:59.999Z</time></trkpt><trkpt lat="44.25786913188501" lon="11.048821444915907"><ele>485.6666666666667</ele><time>2026-05-02T07:02:01.999Z</time></trkpt><trkpt lat="44.25789159595356" lon="11.048721074770784"><ele>485.33333333333337</ele><time>2026-05-02T07:02:02.999Z</time></trkpt><trkpt lat="44.25793274023085" lon="11.048598276550855"><ele>485.0</ele><time>2026-05-02T07:02:03.999Z</time></trkpt><trkpt lat="44.25799473762991" lon="11.048518647027683"><ele>484.6666666666667</ele><time>2026-05-02T07:02:04.999Z</time></trkpt><trkpt lat="44.25802827900674" lon="11.048411800705034"><ele>484.33333333333337</ele><time>2026-05-02T07:02:05.999Z</time></trkpt><trkpt lat="44.25803947312527" lon="11.048287495504473"><ele>484.0</ele><time>2026-05-02T07:02:06.999Z</time></trkpt><trkpt lat="44.258010517014604" lon="11.048179897443282"><ele>484.0</ele><time>2026-05-02T07:02:07.999Z</time></trkpt><trkpt lat="44.25801509812595" lon="11.04805097567171"><ele>484.0</ele><time>2026-05-02T07:02:08.999Z</time></trkpt><trkpt lat="44.25802484526923" lon="11.04791759714149"><ele>484.0</ele><time>2026-05-02T07:02:09.999Z</time></trkpt><trkpt lat="44.25804903982765" lon="11.047777390119476"><ele>484.0</ele><time>2026-05-02T07:02:10.999Z</time></trkpt><trkpt lat="44.258065275396135" lon="11.047625729927162"><ele>484.0</ele><time>2026-05-02T07:02:11.999Z</time></trkpt><trkpt lat="44.25808069054388" lon="11.047457099787295"><ele>484.83333333333337</ele><time>2026-05-02T07:02:12.999Z</time></trkpt><trkpt lat="44.25807443493387" lon="11.047308139684414"><ele>485.6666666666667</ele><time>2026-05-02T07:02:13.999Z</time></trkpt><trkpt lat="44.25808517197584" lon="11.047192868228565"><ele>486.5</ele><time>2026-05-02T07:02:14.999Z</time></trkpt><trkpt lat="44.258102955186246" lon="11.047100154051407"><ele>487.33333333333337</ele><time>2026-05-02T07:02:15.999Z</time></trkpt><trkpt lat="44.25812874779526" lon="11.046952294966074"><ele>488.1666666666667</ele><time>2026-05-02T07:02:17.999Z</time></trkpt><trkpt lat="44.25809760437101" lon="11.046874993048382"><ele>489.0</ele><time>2026-05-02T07:02:18.999Z</time></trkpt><trkpt lat="44.258019353012706" lon="11.046841367389883"><ele>489.0</ele><time>2026-05-02T07:02:19.999Z</time></trkpt><trkpt lat="44.25792129693801" lon="11.046904467871885"><ele>489.0</ele><time>2026-05-02T07:02:20.999Z</time></trkpt><trkpt lat="44.257870081397314" lon="11.04696343387113"><ele>489.0</ele><time>2026-05-02T07:02:21.999Z</time></trkpt><trkpt lat="44.257813656227476" lon="11.047020733090914"><ele>489.0</ele><time>2026-05-02T07:02:22.999Z</time></trkpt><trkpt lat="44.25768755818233" lon="11.047070343919563"><ele>489.0</ele><time>2026-05-02T07:02:24.999Z</time></trkpt><trkpt lat="44.25759332692541" lon="11.047077518055707"><ele>489.0</ele><time>2026-05-02T07:02:25.999Z</time></trkpt><trkpt lat="44.25749733633004" lon="11.047076793602491"><ele>489.0</ele><time>2026-05-02T07:02:26.999Z</time></trkpt><trkpt lat="44.25740965774069" lon="11.047077513546153"><ele>489.0</ele><time>2026-05-02T07:02:27.999Z</time></trkpt><trkpt lat="44.25733663594858" lon="11.047095666512178"><ele>489.0</ele><time>2026-05-02T07:02:28.999Z</time></trkpt><trkpt lat="44.25723787803887" lon="11.047116855140928"><ele>489.0</ele><time>2026-05-02T07:02:30.999Z</time></trkpt><trkpt lat="44.25717058803359" lon="11.047129318068622"><ele>489.0</ele><time>2026-05-02T07:02:31.999Z</time></trkpt><trkpt lat="44.25710742875601" lon="11.047140886490958"><ele>488.3333333333333</ele><time>2026-05-02T07:02:32.999Z</time></trkpt><trkpt lat="44.25704475061194" lon="11.047152366784257"><ele>487.66666666666663</ele><time>2026-05-02T07:02:34Z</time></trkpt><trkpt lat="44.25697567728945" lon="11.047166493085525"><ele>487.0</ele><time>2026-05-02T07:02:35Z</time></trkpt><trkpt lat="44.25690030667972" lon="11.047182891983688"><ele>486.3333333333333</ele><time>2026-05-02T07:02:36Z</time></trkpt><trkpt lat="44.25681693747474" lon="11.047230015315039"><ele>485.66666666666663</ele><time>2026-05-02T07:02:37Z</time></trkpt><trkpt lat="44.25673111847661" lon="11.04726006139803"><ele>485.0</ele><time>2026-05-02T07:02:38Z</time></trkpt><trkpt lat="44.25664850972803" lon="11.04729289424645"><ele>484.99999999999994</ele><time>2026-05-02T07:02:39Z</time></trkpt><trkpt lat="44.25657629507418" lon="11.047292413801115"><ele>485.0</ele><time>2026-05-02T07:02:40Z</time></trkpt><trkpt lat="44.25650713222468" lon="11.047311625239246"><ele>485.0</ele><time>2026-05-02T07:02:41Z</time></trkpt><trkpt lat="44.256433303608944" lon="11.047327226973783"><ele>485.0</ele><time>2026-05-02T07:02:42Z</time></trkpt><trkpt lat="44.25632818559743" lon="11.047341845112756"><ele>484.99999999999994</ele><time>2026-05-02T07:02:44Z</time></trkpt><trkpt lat="44.256285691198634" lon="11.047242509983189"><ele>485.0</ele><time>2026-05-02T07:02:46Z</time></trkpt><trkpt lat="44.25625948201986" lon="11.047160593761415"><ele>483.3333333333333</ele><time>2026-05-02T07:02:47Z</time></trkpt><trkpt lat="44.2562194411489" lon="11.047071425923825"><ele>481.66666666666663</ele><time>2026-05-02T07:02:48Z</time></trkpt><trkpt lat="44.256177004513376" lon="11.046973674427745"><ele>480.0</ele><time>2026-05-02T07:02:49Z</time></trkpt><trkpt lat="44.256119484465344" lon="11.046893443854486"><ele>478.33333333333337</ele><time>2026-05-02T07:02:50Z</time></trkpt><trkpt lat="44.25605122184098" lon="11.046842483487165"><ele>476.6666666666667</ele><time>2026-05-02T07:02:51Z</time></trkpt><trkpt lat="44.2559464984822" lon="11.04683588015481"><ele>475.0</ele><time>2026-05-02T07:02:52Z</time></trkpt><trkpt lat="44.255840528150884" lon="11.04677269250884"><ele>475.00000000000006</ele><time>2026-05-02T07:02:54Z</time></trkpt><trkpt lat="44.25577048732577" lon="11.046719382649908"><ele>475.0</ele><time>2026-05-02T07:02:56Z</time></trkpt><trkpt lat="44.255763250185" lon="11.046628390274964"><ele>475.0</ele><time>2026-05-02T07:02:58Z</time></trkpt><trkpt lat="44.25578322525803" lon="11.046484031828635"><ele>475.0</ele><time>2026-05-02T07:03:00Z</time></trkpt><trkpt lat="44.25580297279584" lon="11.046383523319879"><ele>475.00000000000006</ele><time>2026-05-02T07:03:01Z</time></trkpt><trkpt lat="44.25584336336306" lon="11.046265467674889"><ele>475.0</ele><time>2026-05-02T07:03:02Z</time></trkpt><trkpt lat="44.255881213954076" lon="11.04615403953306"><ele>476.2</ele><time>2026-05-02T07:03:03Z</time></trkpt><trkpt lat="44.25592827878682" lon="11.04601979306195"><ele>477.4</ele><time>2026-05-02T07:03:04Z</time></trkpt><trkpt lat="44.25597229242415" lon="11.045910180745715"><ele>478.6</ele><time>2026-05-02T07:03:05Z</time></trkpt><trkpt lat="44.25600808522134" lon="11.045788627470696"><ele>479.8</ele><time>2026-05-02T07:03:06Z</time></trkpt><trkpt lat="44.256029495021956" lon="11.04567735175963"><ele>481.0</ele><time>2026-05-02T07:03:07Z</time></trkpt><trkpt lat="44.25605203626468" lon="11.045539605647278"><ele>480.8571428571428</ele><time>2026-05-02T07:03:08Z</time></trkpt><trkpt lat="44.25606601148147" lon="11.045427825570535"><ele>480.71428571428567</ele><time>2026-05-02T07:03:09Z</time></trkpt><trkpt lat="44.25607696328795" lon="11.045316958356262"><ele>480.57142857142856</ele><time>2026-05-02T07:03:10Z</time></trkpt><trkpt lat="44.25607635214849" lon="11.045216821508232"><ele>480.4285714285714</ele><time>2026-05-02T07:03:11Z</time></trkpt><trkpt lat="44.25608135446177" lon="11.04511931170436"><ele>480.2857142857142</ele><time>2026-05-02T07:03:12Z</time></trkpt><trkpt lat="44.256078238963454" lon="11.04501905605073"><ele>480.14285714285717</ele><time>2026-05-02T07:03:13Z</time></trkpt><trkpt lat="44.256070850745544" lon="11.044924397828257"><ele>480.0</ele><time>2026-05-02T07:03:14Z</time></trkpt><trkpt lat="44.25603686257991" lon="11.044756504315497"><ele>480.0</ele><time>2026-05-02T07:03:16Z</time></trkpt><trkpt lat="44.25595955284355" lon="11.04460895220851"><ele>480.0</ele><time>2026-05-02T07:03:18Z</time></trkpt><trkpt lat="44.25589527544852" lon="11.044537354335148"><ele>480.0</ele><time>2026-05-02T07:03:19Z</time></trkpt><trkpt lat="44.25582245377846" lon="11.044482102886315"><ele>480.0</ele><time>2026-05-02T07:03:20Z</time></trkpt><trkpt lat="44.25573776415875" lon="11.044415390355013"><ele>480.0</ele><time>2026-05-02T07:03:21Z</time></trkpt><trkpt lat="44.25566196769954" lon="11.0443635738785"><ele>482.2</ele><time>2026-05-02T07:03:22Z</time></trkpt><trkpt lat="44.25557061516277" lon="11.044321113369701"><ele>484.4</ele><time>2026-05-02T07:03:23Z</time></trkpt><trkpt lat="44.255475733515404" lon="11.044289191142212"><ele>486.6</ele><time>2026-05-02T07:03:24Z</time></trkpt><trkpt lat="44.255380136555544" lon="11.04427582970592"><ele>488.8</ele><time>2026-05-02T07:03:25Z</time></trkpt><trkpt lat="44.25528743056019" lon="11.04426695646043"><ele>491.0</ele><time>2026-05-02T07:03:26Z</time></trkpt><trkpt lat="44.25518604928092" lon="11.044254847670294"><ele>490.99999999999994</ele><time>2026-05-02T07:03:27Z</time></trkpt><trkpt lat="44.255091332385625" lon="11.044231091467578"><ele>491.0</ele><time>2026-05-02T07:03:28Z</time></trkpt><trkpt lat="44.25502063872021" lon="11.044181833903536"><ele>491.0</ele><time>2026-05-02T07:03:29Z</time></trkpt><trkpt lat="44.254968313761275" lon="11.044120112159163"><ele>491.0</ele><time>2026-05-02T07:03:30Z</time></trkpt><trkpt lat="44.25492727991505" lon="11.044044769430487"><ele>490.99999999999994</ele><time>2026-05-02T07:03:31Z</time></trkpt><trkpt lat="44.25490006479806" lon="11.0439622675411"><ele>491.0</ele><time>2026-05-02T07:03:32Z</time></trkpt><trkpt lat="44.25487444046172" lon="11.043839058645585"><ele>491.3333333333333</ele><time>2026-05-02T07:03:34Z</time></trkpt><trkpt lat="44.254877658836996" lon="11.043749467889272"><ele>491.66666666666663</ele><time>2026-05-02T07:03:36Z</time></trkpt><trkpt lat="44.254903471816455" lon="11.043615728005266"><ele>492.0</ele><time>2026-05-02T07:03:39Z</time></trkpt><trkpt lat="44.25493498850015" lon="11.043528577353108"><ele>492.33333333333337</ele><time>2026-05-02T07:03:51.999Z</time></trkpt><trkpt lat="44.25500840748575" lon="11.043395879216202"><ele>492.6666666666667</ele><time>2026-05-02T07:03:53.999Z</time></trkpt><trkpt lat="44.255054461382315" lon="11.043300476236274"><ele>493.0</ele><time>2026-05-02T07:03:54.999Z</time></trkpt><trkpt lat="44.255109709941046" lon="11.043176298366493"><ele>493.0</ele><time>2026-05-02T07:03:55.999Z</time></trkpt><trkpt lat="44.25516778072122" lon="11.0430431694916"><ele>492.99999999999994</ele><time>2026-05-02T07:03:56.999Z</time></trkpt><trkpt lat="44.25522421093345" lon="11.042916239611632"><ele>492.99999999999994</ele><time>2026-05-02T07:03:57.999Z</time></trkpt><trkpt lat="44.255296954094085" lon="11.042765659729215"><ele>493.0</ele><time>2026-05-02T07:03:58.999Z</time></trkpt><trkpt lat="44.25535567854319" lon="11.042651597183864"><ele>493.0</ele><time>2026-05-02T07:03:59.999Z</time></trkpt><trkpt lat="44.25540859597244" lon="11.042550687539292"><ele>496.0</ele><time>2026-05-02T07:04:00.999Z</time></trkpt><trkpt lat="44.255463798288744" lon="11.042445634153257"><ele>498.99999999999994</ele><time>2026-05-02T07:04:01.999Z</time></trkpt><trkpt lat="44.25551742056916" lon="11.04234927954538"><ele>501.99999999999994</ele><time>2026-05-02T07:04:02.999Z</time></trkpt><trkpt lat="44.25560873371363" lon="11.04221998653719"><ele>505.0</ele><time>2026-05-02T07:04:04.999Z</time></trkpt><trkpt lat="44.25569280293891" lon="11.042147871041063"><ele>508.0</ele><time>2026-05-02T07:04:06.999Z</time></trkpt><trkpt lat="44.25580678596192" lon="11.042156192832591"><ele>508.00000000000006</ele><time>2026-05-02T07:04:08.999Z</time></trkpt><trkpt lat="44.255915429259844" lon="11.042132322315409"><ele>508.0</ele><time>2026-05-02T07:04:10.999Z</time></trkpt><trkpt lat="44.25600752344985" lon="11.042130873543021"><ele>508.0</ele><time>2026-05-02T07:04:12.999Z</time></trkpt><trkpt lat="44.25607342856626" lon="11.042143599958335"><ele>508.0</ele><time>2026-05-02T07:04:15.999Z</time></trkpt><trkpt lat="44.25599504631782" lon="11.042118483569718"><ele>508.00000000000006</ele><time>2026-05-02T07:04:24.999Z</time></trkpt><trkpt lat="44.25591591385649" lon="11.04211226714501"><ele>508.0</ele><time>2026-05-02T07:04:26.999Z</time></trkpt><trkpt lat="44.255819391643215" lon="11.042121214820487"><ele>508.0</ele><time>2026-05-02T07:04:28.999Z</time></trkpt><trkpt lat="44.255684176618445" lon="11.042160890739938"><ele>507.99999999999994</ele><time>2026-05-02T07:04:30.999Z</time></trkpt><trkpt lat="44.255591358327315" lon="11.04217388778188"><ele>507.99999999999994</ele><time>2026-05-02T07:04:31.999Z</time></trkpt><trkpt lat="44.255520673996145" lon="11.042251310625646"><ele>508.0</ele><time>2026-05-02T07:04:32.999Z</time></trkpt><trkpt lat="44.25547006635043" lon="11.042341941765327"><ele>508.0</ele><time>2026-05-02T07:04:33.999Z</time></trkpt><trkpt lat="44.255417091261386" lon="11.042441383970374"><ele>505.0</ele><time>2026-05-02T07:04:34.999Z</time></trkpt><trkpt lat="44.255362407169265" lon="11.042548805241335"><ele>501.99999999999994</ele><time>2026-05-02T07:04:35.999Z</time></trkpt><trkpt lat="44.25529836733302" lon="11.042665180111353"><ele>498.99999999999994</ele><time>2026-05-02T07:04:36.999Z</time></trkpt><trkpt lat="44.25523953778874" lon="11.042783344832705"><ele>496.0</ele><time>2026-05-02T07:04:37.999Z</time></trkpt><trkpt lat="44.25517797182004" lon="11.04291295334964"><ele>493.0</ele><time>2026-05-02T07:04:38.999Z</time></trkpt><trkpt lat="44.25511036303527" lon="11.043061038165622"><ele>493.0</ele><time>2026-05-02T07:04:40Z</time></trkpt><trkpt lat="44.25504835003543" lon="11.043213239230846"><ele>492.99999999999994</ele><time>2026-05-02T07:04:41Z</time></trkpt><trkpt lat="44.25498563904972" lon="11.043357250896442"><ele>492.99999999999994</ele><time>2026-05-02T07:04:42Z</time></trkpt><trkpt lat="44.25493045502002" lon="11.043461077125396"><ele>493.0</ele><time>2026-05-02T07:04:43Z</time></trkpt><trkpt lat="44.254883938704126" lon="11.043558251870563"><ele>493.0</ele><time>2026-05-02T07:04:44Z</time></trkpt><trkpt lat="44.25484686112761" lon="11.043659882135827"><ele>492.6666666666667</ele><time>2026-05-02T07:04:45Z</time></trkpt><trkpt lat="44.254835829571924" lon="11.043761575503195"><ele>492.33333333333337</ele><time>2026-05-02T07:04:46Z</time></trkpt><trkpt lat="44.25484531191494" lon="11.043874570316868"><ele>492.0</ele><time>2026-05-02T07:04:47Z</time></trkpt><trkpt lat="44.25486184321774" lon="11.043972035924972"><ele>491.66666666666663</ele><time>2026-05-02T07:04:48Z</time></trkpt><trkpt lat="44.25489408494809" lon="11.044068071464615"><ele>491.3333333333333</ele><time>2026-05-02T07:04:49Z</time></trkpt><trkpt lat="44.2549532408498" lon="11.044159872253159"><ele>491.0</ele><time>2026-05-02T07:04:50Z</time></trkpt><trkpt lat="44.25502881975077" lon="11.044216782131272"><ele>491.0</ele><time>2026-05-02T07:04:51Z</time></trkpt><trkpt lat="44.255115425432955" lon="11.044262986231498"><ele>491.0</ele><time>2026-05-02T07:04:52Z</time></trkpt><trkpt lat="44.25521397833996" lon="11.044285012743943"><ele>491.0</ele><time>2026-05-02T07:04:53Z</time></trkpt><trkpt lat="44.25531417011525" lon="11.044315971721893"><ele>491.0</ele><time>2026-05-02T07:04:54Z</time></trkpt><trkpt lat="44.25541611722543" lon="11.04432727486886"><ele>491.0</ele><time>2026-05-02T07:04:55Z</time></trkpt><trkpt lat="44.255513335913776" lon="11.044347928948001"><ele>491.0</ele><time>2026-05-02T07:04:56Z</time></trkpt><trkpt lat="44.25561391446639" lon="11.044387890720044"><ele>491.0</ele><time>2026-05-02T07:04:57Z</time></trkpt><trkpt lat="44.25570759028668" lon="11.044442856329415"><ele>491.0</ele><time>2026-05-02T07:04:58Z</time></trkpt><trkpt lat="44.25579694586192" lon="11.044514947293749"><ele>491.0</ele><time>2026-05-02T07:04:59Z</time></trkpt><trkpt lat="44.25587903009263" lon="11.044583396322928"><ele>491.0</ele><time>2026-05-02T07:05:00Z</time></trkpt><trkpt lat="44.255943155627385" lon="11.044651356214347"><ele>489.8333333333333</ele><time>2026-05-02T07:05:01Z</time></trkpt><trkpt lat="44.255988630714064" lon="11.044731356572047"><ele>488.66666666666663</ele><time>2026-05-02T07:05:02Z</time></trkpt><trkpt lat="44.25601992036952" lon="11.04483231478879"><ele>487.5</ele><time>2026-05-02T07:05:03Z</time></trkpt><trkpt lat="44.256046942427524" lon="11.044951996124395"><ele>486.33333333333337</ele><time>2026-05-02T07:05:04Z</time></trkpt><trkpt lat="44.25604736238737" lon="11.045073528837259"><ele>485.1666666666667</ele><time>2026-05-02T07:05:05Z</time></trkpt><trkpt lat="44.25605086057062" lon="11.045211143444664"><ele>484.0</ele><time>2026-05-02T07:05:06Z</time></trkpt><trkpt lat="44.256049310994406" lon="11.04535268113106"><ele>484.0</ele><time>2026-05-02T07:05:07Z</time></trkpt><trkpt lat="44.25602358192037" lon="11.045498343182993"><ele>484.0</ele><time>2026-05-02T07:05:08Z</time></trkpt><trkpt lat="44.256009999649066" lon="11.045642173422848"><ele>484.0</ele><time>2026-05-02T07:05:09Z</time></trkpt><trkpt lat="44.25597633612113" lon="11.04579268866041"><ele>484.0</ele><time>2026-05-02T07:05:10Z</time></trkpt><trkpt lat="44.255947446162715" lon="11.045929496826847"><ele>484.0</ele><time>2026-05-02T07:05:11Z</time></trkpt><trkpt lat="44.2558903697615" lon="11.046022171178777"><ele>483.4</ele><time>2026-05-02T07:05:12Z</time></trkpt><trkpt lat="44.255866435213136" lon="11.046130435946832"><ele>482.79999999999995</ele><time>2026-05-02T07:05:13Z</time></trkpt><trkpt lat="44.255818731919696" lon="11.046246853630452"><ele>482.20000000000005</ele><time>2026-05-02T07:05:14Z</time></trkpt><trkpt lat="44.25577795459728" lon="11.046386209600094"><ele>481.6</ele><time>2026-05-02T07:05:15Z</time></trkpt><trkpt lat="44.25574825091101" lon="11.046517419179969"><ele>481.0</ele><time>2026-05-02T07:05:16Z</time></trkpt><trkpt lat="44.255734251388965" lon="11.046625669876093"><ele>480.00000000000006</ele><time>2026-05-02T07:05:17Z</time></trkpt><trkpt lat="44.25575222061982" lon="11.046732504569357"><ele>479.0</ele><time>2026-05-02T07:05:19Z</time></trkpt><trkpt lat="44.255837912257114" lon="11.046828623147997"><ele>478.0</ele><time>2026-05-02T07:05:22Z</time></trkpt><trkpt lat="44.25590962696585" lon="11.04685166950611"><ele>477.0</ele><time>2026-05-02T07:05:23Z</time></trkpt><trkpt lat="44.25598560860314" lon="11.046871107778085"><ele>476.00000000000006</ele><time>2026-05-02T07:05:24Z</time></trkpt><trkpt lat="44.25606505040416" lon="11.046908156570531"><ele>475.0</ele><time>2026-05-02T07:05:25Z</time></trkpt><trkpt lat="44.25613439988332" lon="11.046973623766199"><ele>475.00000000000006</ele><time>2026-05-02T07:05:26Z</time></trkpt><trkpt lat="44.25618833832927" lon="11.047063293830055"><ele>475.0</ele><time>2026-05-02T07:05:27Z</time></trkpt><trkpt lat="44.25622102783417" lon="11.047147005627721"><ele>475.0</ele><time>2026-05-02T07:05:28Z</time></trkpt><trkpt lat="44.256258684386594" lon="11.047237224437813"><ele>475.0</ele><time>2026-05-02T07:05:29Z</time></trkpt><trkpt lat="44.256295879212416" lon="11.047315967511016"><ele>475.00000000000006</ele><time>2026-05-02T07:05:30Z</time></trkpt><trkpt lat="44.25638758408941" lon="11.047395072404088"><ele>475.0</ele><time>2026-05-02T07:05:32Z</time></trkpt><trkpt lat="44.25647505070317" lon="11.047371933022866"><ele>476.6666666666667</ele><time>2026-05-02T07:05:33Z</time></trkpt><trkpt lat="44.256553757154975" lon="11.04734673157551"><ele>478.33333333333337</ele><time>2026-05-02T07:05:34Z</time></trkpt><trkpt lat="44.25663149089531" lon="11.047322849780475"><ele>480.0</ele><time>2026-05-02T07:05:35Z</time></trkpt><trkpt lat="44.2567184368631" lon="11.047291902153756"><ele>481.66666666666663</ele><time>2026-05-02T07:05:36Z</time></trkpt><trkpt lat="44.25680831773015" lon="11.047258232495512"><ele>483.3333333333333</ele><time>2026-05-02T07:05:37Z</time></trkpt><trkpt lat="44.25690045452365" lon="11.047230266455932"><ele>485.0</ele><time>2026-05-02T07:05:38Z</time></trkpt><trkpt lat="44.25698713307332" lon="11.04721089321674"><ele>484.99999999999994</ele><time>2026-05-02T07:05:39Z</time></trkpt><trkpt lat="44.25707818730724" lon="11.047192971768398"><ele>485.0</ele><time>2026-05-02T07:05:40Z</time></trkpt><trkpt lat="44.257155222487846" lon="11.047178861796827"><ele>485.0</ele><time>2026-05-02T07:05:41Z</time></trkpt><trkpt lat="44.25724256823188" lon="11.047162724421003"><ele>485.0</ele><time>2026-05-02T07:05:43Z</time></trkpt><trkpt lat="44.25730488694563" lon="11.047150152799865"><ele>484.99999999999994</ele><time>2026-05-02T07:05:47.999Z</time></trkpt><trkpt lat="44.25736728103233" lon="11.047135424081961"><ele>485.0</ele><time>2026-05-02T07:05:58.999Z</time></trkpt><trkpt lat="44.2574377502863" lon="11.047122306510861"><ele>484.8</ele><time>2026-05-02T07:06:10.999Z</time></trkpt><trkpt lat="44.25738676474877" lon="11.047299836243107"><ele>484.6</ele><time>2026-05-02T07:06:16.999Z</time></trkpt><trkpt lat="44.257327235769395" lon="11.047363823638936"><ele>484.4</ele><time>2026-05-02T07:06:18.999Z</time></trkpt><trkpt lat="44.2572958553721" lon="11.047467821905837"><ele>484.2</ele><time>2026-05-02T07:06:20.999Z</time></trkpt><trkpt lat="44.25731306425517" lon="11.047615491465306"><ele>484.0</ele><time>2026-05-02T07:06:22.999Z</time></trkpt><trkpt lat="44.257308525051116" lon="11.047765264030796"><ele>484.00000000000006</ele><time>2026-05-02T07:06:24.999Z</time></trkpt><trkpt lat="44.25731248791969" lon="11.047933109688012"><ele>484.0</ele><time>2026-05-02T07:06:26.999Z</time></trkpt><trkpt lat="44.25728679259736" lon="11.04805746963736"><ele>484.0</ele><time>2026-05-02T07:06:28.999Z</time></trkpt><trkpt lat="44.25724288447752" lon="11.048127550215858"><ele>484.0</ele><time>2026-05-02T07:06:29.999Z</time></trkpt><trkpt lat="44.2572071902556" lon="11.048205256449956"><ele>484.00000000000006</ele><time>2026-05-02T07:06:30.999Z</time></trkpt><trkpt lat="44.25715170551818" lon="11.04827843790875"><ele>484.0</ele><time>2026-05-02T07:06:31.999Z</time></trkpt><trkpt lat="44.257114472047725" lon="11.04837682769079"><ele>481.83333333333337</ele><time>2026-05-02T07:06:32.999Z</time></trkpt><trkpt lat="44.257071195347805" lon="11.04847810464629"><ele>479.6666666666667</ele><time>2026-05-02T07:06:33.999Z</time></trkpt><trkpt lat="44.25701584430965" lon="11.04857280087905"><ele>477.5</ele><time>2026-05-02T07:06:34.999Z</time></trkpt><trkpt lat="44.256965193179205" lon="11.048652387644376"><ele>475.33333333333337</ele><time>2026-05-02T07:06:35.999Z</time></trkpt><trkpt lat="44.25693005497074" lon="11.048773239847664"><ele>473.1666666666667</ele><time>2026-05-02T07:06:38.999Z</time></trkpt><trkpt lat="44.25693117903115" lon="11.048916928815833"><ele>471.0</ele><time>2026-05-02T07:06:40.999Z</time></trkpt><trkpt lat="44.256900238213895" lon="11.049011628856823"><ele>471.0</ele><time>2026-05-02T07:06:42.999Z</time></trkpt><trkpt lat="44.25688546103533" lon="11.049109823340512"><ele>471.0</ele><time>2026-05-02T07:06:45Z</time></trkpt><trkpt lat="44.256882778010606" lon="11.049232123560557"><ele>471.0</ele><time>2026-05-02T07:06:47Z</time></trkpt><trkpt lat="44.25686712364877" lon="11.04939939863917"><ele>471.0</ele><time>2026-05-02T07:06:49Z</time></trkpt><trkpt lat="44.256857700177214" lon="11.049548880993914"><ele>471.0</ele><time>2026-05-02T07:06:51Z</time></trkpt><trkpt lat="44.25683514494855" lon="11.049646651685512"><ele>470.1666666666667</ele><time>2026-05-02T07:06:52Z</time></trkpt><trkpt lat="44.256774868119045" lon="11.049752724785794"><ele>469.33333333333337</ele><time>2026-05-02T07:06:53Z</time></trkpt><trkpt lat="44.25671918316828" lon="11.049856517491563"><ele>468.5</ele><time>2026-05-02T07:06:54Z</time></trkpt><trkpt lat="44.25667436299301" lon="11.049972778209591"><ele>467.6666666666667</ele><time>2026-05-02T07:06:55Z</time></trkpt><trkpt lat="44.25663638308471" lon="11.05006970910589"><ele>466.83333333333337</ele><time>2026-05-02T07:06:56Z</time></trkpt><trkpt lat="44.25660335919865" lon="11.050151420866955"><ele>466.0</ele><time>2026-05-02T07:06:57Z</time></trkpt><trkpt lat="44.25653920764204" lon="11.050337108196931"><ele>466.0</ele><time>2026-05-02T07:06:59Z</time></trkpt><trkpt lat="44.256509279061056" lon="11.050428311034388"><ele>466.0</ele><time>2026-05-02T07:07:00Z</time></trkpt><trkpt lat="44.256487055084264" lon="11.050526158419347"><ele>466.0</ele><time>2026-05-02T07:07:02Z</time></trkpt><trkpt lat="44.256501370140775" lon="11.050622375784874"><ele>466.0</ele><time>2026-05-02T07:07:04Z</time></trkpt><trkpt lat="44.25662362871565" lon="11.050725850198269"><ele>466.0</ele><time>2026-05-02T07:07:06Z</time></trkpt><trkpt lat="44.25667402545657" lon="11.0508369449881"><ele>465.83333333333337</ele><time>2026-05-02T07:07:07Z</time></trkpt><trkpt lat="44.25670282680625" lon="11.050947585294496"><ele>465.6666666666667</ele><time>2026-05-02T07:07:08Z</time></trkpt><trkpt lat="44.25672397700896" lon="11.051032057229497"><ele>465.5</ele><time>2026-05-02T07:07:09Z</time></trkpt><trkpt lat="44.25676800641591" lon="11.051105867886028"><ele>465.33333333333337</ele><time>2026-05-02T07:07:10Z</time></trkpt><trkpt lat="44.25681843105881" lon="11.051204998511215"><ele>465.1666666666667</ele><time>2026-05-02T07:07:11Z</time></trkpt><trkpt lat="44.25687802527194" lon="11.05130822183987"><ele>465.0</ele><time>2026-05-02T07:07:12Z</time></trkpt><trkpt lat="44.25695377715697" lon="11.051424743275904"><ele>465.0</ele><time>2026-05-02T07:07:13Z</time></trkpt><trkpt lat="44.25704918749961" lon="11.051555118705943"><ele>465.0</ele><time>2026-05-02T07:07:14Z</time></trkpt><trkpt lat="44.25713711120995" lon="11.051682222172005"><ele>465.0</ele><time>2026-05-02T07:07:15Z</time></trkpt><trkpt lat="44.25720964032227" lon="11.051777281905729"><ele>465.0</ele><time>2026-05-02T07:07:16Z</time></trkpt><trkpt lat="44.257265648707076" lon="11.051869041326674"><ele>465.0</ele><time>2026-05-02T07:07:17Z</time></trkpt><trkpt lat="44.25731077786862" lon="11.051991353702748"><ele>467.6</ele><time>2026-05-02T07:07:18Z</time></trkpt><trkpt lat="44.257333849383436" lon="11.05212508614179"><ele>470.2</ele><time>2026-05-02T07:07:19Z</time></trkpt><trkpt lat="44.25737882282555" lon="11.052264943395322"><ele>472.79999999999995</ele><time>2026-05-02T07:07:20Z</time></trkpt><trkpt lat="44.257430621381125" lon="11.052393301760826"><ele>475.4</ele><time>2026-05-02T07:07:21Z</time></trkpt><trkpt lat="44.257465363867944" lon="11.052486138387458"><ele>478.0</ele><time>2026-05-02T07:07:22Z</time></trkpt><trkpt lat="44.25749277111903" lon="11.052600842877352"><ele>478.0</ele><time>2026-05-02T07:07:23Z</time></trkpt><trkpt lat="44.25751033186642" lon="11.052715670317065"><ele>477.99999999999994</ele><time>2026-05-02T07:07:24Z</time></trkpt><trkpt lat="44.25754396540257" lon="11.052849520896944"><ele>477.99999999999994</ele><time>2026-05-02T07:07:26Z</time></trkpt><trkpt lat="44.257610660991894" lon="11.0529585632884"><ele>478.0</ele><time>2026-05-02T07:07:28Z</time></trkpt><trkpt lat="44.257667245498936" lon="11.053048274602075"><ele>478.0</ele><time>2026-05-02T07:07:29Z</time></trkpt><trkpt lat="44.257742220497164" lon="11.053177910418404"><ele>475.6666666666667</ele><time>2026-05-02T07:07:30Z</time></trkpt><trkpt lat="44.25779434624321" lon="11.0532976531419"><ele>473.33333333333337</ele><time>2026-05-02T07:07:31Z</time></trkpt><trkpt lat="44.257814805449875" lon="11.053416136675546"><ele>471.0</ele><time>2026-05-02T07:07:32Z</time></trkpt><trkpt lat="44.25782036362634" lon="11.053511705230665"><ele>468.66666666666663</ele><time>2026-05-02T07:07:33Z</time></trkpt><trkpt lat="44.257865813925896" lon="11.053615263867007"><ele>466.3333333333333</ele><time>2026-05-02T07:07:35Z</time></trkpt><trkpt lat="44.25792774402126" lon="11.05367947808976"><ele>464.0</ele><time>2026-05-02T07:07:37Z</time></trkpt><trkpt lat="44.25786597555102" lon="11.053736414560372"><ele>464.0</ele><time>2026-05-02T07:07:42Z</time></trkpt><trkpt lat="44.25775322703846" lon="11.053694438703731"><ele>464.0</ele><time>2026-05-02T07:07:44Z</time></trkpt><trkpt lat="44.257641884091214" lon="11.053716707581055"><ele>464.0</ele><time>2026-05-02T07:07:46Z</time></trkpt><trkpt lat="44.25755929604089" lon="11.053823274387188"><ele>464.0</ele><time>2026-05-02T07:07:48Z</time></trkpt><trkpt lat="44.257546494066425" lon="11.053914449376244"><ele>464.0</ele><time>2026-05-02T07:07:49Z</time></trkpt><trkpt lat="44.25755941598698" lon="11.05401926457571"><ele>463.99999999999994</ele><time>2026-05-02T07:07:50Z</time></trkpt><trkpt lat="44.257577827453844" lon="11.054119442996454"><ele>464.0</ele><time>2026-05-02T07:07:50.999Z</time></trkpt><trkpt lat="44.257617402756274" lon="11.05422704021893"><ele>464.0</ele><time>2026-05-02T07:07:51.999Z</time></trkpt><trkpt lat="44.25768397511533" lon="11.054310752725167"><ele>464.0</ele><time>2026-05-02T07:07:52.999Z</time></trkpt><trkpt lat="44.257751177676795" lon="11.05438008781026"><ele>463.99999999999994</ele><time>2026-05-02T07:07:53.999Z</time></trkpt><trkpt lat="44.25780613917278" lon="11.05446962163097"><ele>464.0</ele><time>2026-05-02T07:07:54.999Z</time></trkpt><trkpt lat="44.2578338217744" lon="11.054590925078587"><ele>461.75</ele><time>2026-05-02T07:07:55.999Z</time></trkpt><trkpt lat="44.25782876022917" lon="11.054737852693624"><ele>459.5</ele><time>2026-05-02T07:07:56.999Z</time></trkpt><trkpt lat="44.25780333806231" lon="11.054902326712405"><ele>457.25</ele><time>2026-05-02T07:07:57.999Z</time></trkpt><trkpt lat="44.257766358757635" lon="11.055085872939227"><ele>455.0</ele><time>2026-05-02T07:07:58.999Z</time></trkpt><trkpt lat="44.25771701014073" lon="11.055256862534064"><ele>453.2</ele><time>2026-05-02T07:07:59.999Z</time></trkpt><trkpt lat="44.257637357154756" lon="11.055385975983176"><ele>451.4</ele><time>2026-05-02T07:08:00.999Z</time></trkpt><trkpt lat="44.257587265700096" lon="11.055526415219706"><ele>449.6</ele><time>2026-05-02T07:08:01.999Z</time></trkpt><trkpt lat="44.25754403587366" lon="11.055647927219319"><ele>447.8</ele><time>2026-05-02T07:08:02.999Z</time></trkpt><trkpt lat="44.25750790456898" lon="11.055753391562256"><ele>446.0</ele><time>2026-05-02T07:08:03.999Z</time></trkpt><trkpt lat="44.257470822430435" lon="11.055861743260538"><ele>445.0</ele><time>2026-05-02T07:08:04.999Z</time></trkpt><trkpt lat="44.25744711349899" lon="11.055994695616725"><ele>444.0</ele><time>2026-05-02T07:08:05.999Z</time></trkpt><trkpt lat="44.257425933266184" lon="11.05611381022969"><ele>443.0</ele><time>2026-05-02T07:08:06.999Z</time></trkpt><trkpt lat="44.25738914161081" lon="11.056239883742494"><ele>442.0</ele><time>2026-05-02T07:08:07.999Z</time></trkpt><trkpt lat="44.25738296803896" lon="11.056379945152958"><ele>441.0</ele><time>2026-05-02T07:08:08.999Z</time></trkpt><trkpt lat="44.25737595727428" lon="11.056514436811488"><ele>440.6666666666667</ele><time>2026-05-02T07:08:09.999Z</time></trkpt><trkpt lat="44.257367691004255" lon="11.056634177927547"><ele>440.33333333333337</ele><time>2026-05-02T07:08:10.999Z</time></trkpt><trkpt lat="44.257325736186246" lon="11.056754626166233"><ele>440.0</ele><time>2026-05-02T07:08:11.999Z</time></trkpt><trkpt lat="44.25727352933328" lon="11.056835487796365"><ele>439.6666666666667</ele><time>2026-05-02T07:08:12.999Z</time></trkpt><trkpt lat="44.25722141163521" lon="11.056925077491346"><ele>439.33333333333337</ele><time>2026-05-02T07:08:13.999Z</time></trkpt><trkpt lat="44.25716440218928" lon="11.057017357171622"><ele>439.0</ele><time>2026-05-02T07:08:14.999Z</time></trkpt><trkpt lat="44.257107270630705" lon="11.05709728335109"><ele>439.6666666666667</ele><time>2026-05-02T07:08:15.999Z</time></trkpt><trkpt lat="44.25703620671989" lon="11.057177030846171"><ele>440.33333333333337</ele><time>2026-05-02T07:08:16.999Z</time></trkpt><trkpt lat="44.25697615646391" lon="11.057261136301557"><ele>441.0</ele><time>2026-05-02T07:08:17.999Z</time></trkpt><trkpt lat="44.25693130759348" lon="11.057381446373693"><ele>441.66666666666663</ele><time>2026-05-02T07:08:18.999Z</time></trkpt><trkpt lat="44.2569045845392" lon="11.057465734100608"><ele>442.3333333333333</ele><time>2026-05-02T07:08:19.999Z</time></trkpt><trkpt lat="44.25688111178841" lon="11.057594488120268"><ele>443.0</ele><time>2026-05-02T07:08:20.999Z</time></trkpt><trkpt lat="44.25689873001232" lon="11.057723095637998"><ele>443.25</ele><time>2026-05-02T07:08:21.999Z</time></trkpt><trkpt lat="44.25691091484686" lon="11.057879121147622"><ele>443.5</ele><time>2026-05-02T07:08:22.999Z</time></trkpt><trkpt lat="44.2569087668874" lon="11.058032685418103"><ele>443.75</ele><time>2026-05-02T07:08:23.999Z</time></trkpt><trkpt lat="44.25691221679055" lon="11.058194959721957"><ele>444.0</ele><time>2026-05-02T07:08:24.999Z</time></trkpt><trkpt lat="44.256927199845165" lon="11.058370778244813"><ele>445.0</ele><time>2026-05-02T07:08:25.999Z</time></trkpt><trkpt lat="44.2569117499453" lon="11.058551071114783"><ele>446.0</ele><time>2026-05-02T07:08:26.999Z</time></trkpt><trkpt lat="44.25691741213674" lon="11.058709847608336"><ele>447.0</ele><time>2026-05-02T07:08:27.999Z</time></trkpt><trkpt lat="44.256940507746926" lon="11.058825760101417"><ele>448.0</ele><time>2026-05-02T07:08:28.999Z</time></trkpt><trkpt lat="44.25696362668522" lon="11.058994105411534"><ele>448.00000000000006</ele><time>2026-05-02T07:08:29.999Z</time></trkpt><trkpt lat="44.25699023438555" lon="11.059114472421241"><ele>448.0</ele><time>2026-05-02T07:08:30.999Z</time></trkpt><trkpt lat="44.25702553316937" lon="11.059232715532012"><ele>448.0</ele><time>2026-05-02T07:08:31.999Z</time></trkpt><trkpt lat="44.25705642281399" lon="11.059335415045762"><ele>448.0</ele><time>2026-05-02T07:08:32.999Z</time></trkpt><trkpt lat="44.257100470099424" lon="11.05945486366136"><ele>448.00000000000006</ele><time>2026-05-02T07:08:33.999Z</time></trkpt><trkpt lat="44.257155131709986" lon="11.059555030271506"><ele>448.0</ele><time>2026-05-02T07:08:34.999Z</time></trkpt><trkpt lat="44.25725630755457" lon="11.059697593482055"><ele>448.2</ele><time>2026-05-02T07:08:35.999Z</time></trkpt><trkpt lat="44.25733118519871" lon="11.059828705902124"><ele>448.4</ele><time>2026-05-02T07:08:36.999Z</time></trkpt><trkpt lat="44.25738857941036" lon="11.059951143566643"><ele>448.59999999999997</ele><time>2026-05-02T07:08:37.999Z</time></trkpt><trkpt lat="44.25742288879899" lon="11.060047322502164"><ele>448.79999999999995</ele><time>2026-05-02T07:08:38.999Z</time></trkpt><trkpt lat="44.257424537741244" lon="11.060138211502455"><ele>449.0</ele><time>2026-05-02T07:08:39.999Z</time></trkpt><trkpt lat="44.2573810724496" lon="11.060259044534416"><ele>449.0</ele><time>2026-05-02T07:08:40.999Z</time></trkpt><trkpt lat="44.257395324350334" lon="11.060379616056803"><ele>449.0</ele><time>2026-05-02T07:08:41.999Z</time></trkpt><trkpt lat="44.257422143851116" lon="11.060495586556996"><ele>449.0</ele><time>2026-05-02T07:08:42.999Z</time></trkpt><trkpt lat="44.25747815184825" lon="11.060597656765907"><ele>449.0</ele><time>2026-05-02T07:08:43.999Z</time></trkpt><trkpt lat="44.25754736482095" lon="11.06069940684599"><ele>449.0</ele><time>2026-05-02T07:08:44.999Z</time></trkpt><trkpt lat="44.257598141859916" lon="11.060839041058344"><ele>451.4</ele><time>2026-05-02T07:08:45.999Z</time></trkpt><trkpt lat="44.25764141561212" lon="11.060959306859953"><ele>453.79999999999995</ele><time>2026-05-02T07:08:46.999Z</time></trkpt><trkpt lat="44.25765875089317" lon="11.061076133996181"><ele>456.20000000000005</ele><time>2026-05-02T07:08:47.999Z</time></trkpt><trkpt lat="44.25764281368674" lon="11.06120382134885"><ele>458.6</ele><time>2026-05-02T07:08:48.999Z</time></trkpt><trkpt lat="44.25763657623349" lon="11.061312702765717"><ele>461.0</ele><time>2026-05-02T07:08:49.999Z</time></trkpt><trkpt lat="44.257619337252024" lon="11.061450064958999"><ele>461.0</ele><time>2026-05-02T07:08:51Z</time></trkpt><trkpt lat="44.25759815983613" lon="11.061614853544176"><ele>461.0</ele><time>2026-05-02T07:08:52Z</time></trkpt><trkpt lat="44.257588551045416" lon="11.061780907251581"><ele>461.0</ele><time>2026-05-02T07:08:53Z</time></trkpt><trkpt lat="44.25760367397076" lon="11.061923655130286"><ele>461.0</ele><time>2026-05-02T07:08:54Z</time></trkpt><trkpt lat="44.257644609439275" lon="11.062046086173398"><ele>461.0</ele><time>2026-05-02T07:08:55Z</time></trkpt><trkpt lat="44.257704008443675" lon="11.062140557951086"><ele>460.20000000000005</ele><time>2026-05-02T07:08:56Z</time></trkpt><trkpt lat="44.25776826137406" lon="11.06221099070998"><ele>459.40000000000003</ele><time>2026-05-02T07:08:57Z</time></trkpt><trkpt lat="44.257846853636636" lon="11.062268609303194"><ele>458.6</ele><time>2026-05-02T07:08:58Z</time></trkpt><trkpt lat="44.257942794182576" lon="11.062309046679346"><ele>457.8</ele><time>2026-05-02T07:08:59Z</time></trkpt><trkpt lat="44.2580414233998" lon="11.062349838370766"><ele>457.0</ele><time>2026-05-02T07:09:00Z</time></trkpt><trkpt lat="44.25815620806373" lon="11.062438054637978"><ele>458.8</ele><time>2026-05-02T07:09:01Z</time></trkpt><trkpt lat="44.25824632042772" lon="11.062529917761326"><ele>460.6</ele><time>2026-05-02T07:09:02Z</time></trkpt><trkpt lat="44.25834295043214" lon="11.062611741339197"><ele>462.40000000000003</ele><time>2026-05-02T07:09:03Z</time></trkpt><trkpt lat="44.25843303069881" lon="11.062685070200596"><ele>464.20000000000005</ele><time>2026-05-02T07:09:04Z</time></trkpt><trkpt lat="44.25847100685876" lon="11.062787561624402"><ele>466.0</ele><time>2026-05-02T07:09:05Z</time></trkpt><trkpt lat="44.25851487503458" lon="11.062906387841311"><ele>466.0</ele><time>2026-05-02T07:09:06Z</time></trkpt><trkpt lat="44.25859490511185" lon="11.06303439955624"><ele>466.0</ele><time>2026-05-02T07:09:07Z</time></trkpt><trkpt lat="44.25865225015277" lon="11.063125153298117"><ele>466.0</ele><time>2026-05-02T07:09:08Z</time></trkpt><trkpt lat="44.25871775356385" lon="11.063169363701608"><ele>466.0</ele><time>2026-05-02T07:09:09Z</time></trkpt><trkpt lat="44.25880433794997" lon="11.063209961343077"><ele>466.0</ele><time>2026-05-02T07:09:10Z</time></trkpt><trkpt lat="44.2588950696271" lon="11.063254277877823"><ele>467.6666666666667</ele><time>2026-05-02T07:09:11Z</time></trkpt><trkpt lat="44.25897716722127" lon="11.063293981497264"><ele>469.33333333333337</ele><time>2026-05-02T07:09:12Z</time></trkpt><trkpt lat="44.25905266384857" lon="11.063319644632356"><ele>471.0</ele><time>2026-05-02T07:09:13Z</time></trkpt><trkpt lat="44.259114839408525" lon="11.063354582820079"><ele>472.66666666666663</ele><time>2026-05-02T07:09:14Z</time></trkpt><trkpt lat="44.259183391682406" lon="11.063382352106238"><ele>474.3333333333333</ele><time>2026-05-02T07:09:15Z</time></trkpt><trkpt lat="44.25926489332957" lon="11.06348266081327"><ele>476.0</ele><time>2026-05-02T07:09:17Z</time></trkpt><trkpt lat="44.259331160179656" lon="11.06359693177562"><ele>476.0</ele><time>2026-05-02T07:09:18Z</time></trkpt><trkpt lat="44.259434696342595" lon="11.063706059899424"><ele>476.0</ele><time>2026-05-02T07:09:19Z</time></trkpt><trkpt lat="44.259530520221574" lon="11.063852108735267"><ele>476.0</ele><time>2026-05-02T07:09:20Z</time></trkpt><trkpt lat="44.25962416695063" lon="11.063990448627715"><ele>476.0</ele><time>2026-05-02T07:09:21Z</time></trkpt><trkpt lat="44.25969088653521" lon="11.064106663421587"><ele>475.4</ele><time>2026-05-02T07:09:22Z</time></trkpt><trkpt lat="44.259754546976325" lon="11.064210594726132"><ele>474.8</ele><time>2026-05-02T07:09:23Z</time></trkpt><trkpt lat="44.25980918044301" lon="11.0643299353275"><ele>474.19999999999993</ele><time>2026-05-02T07:09:24Z</time></trkpt><trkpt lat="44.25986902159573" lon="11.064460543758145"><ele>473.59999999999997</ele><time>2026-05-02T07:09:25Z</time></trkpt><trkpt lat="44.25993574592527" lon="11.06457650458585"><ele>473.0</ele><time>2026-05-02T07:09:26Z</time></trkpt><trkpt lat="44.26001614039793" lon="11.064675301009043"><ele>473.0</ele><time>2026-05-02T07:09:27Z</time></trkpt><trkpt lat="44.26009861448662" lon="11.064762704363421"><ele>472.99999999999994</ele><time>2026-05-02T07:09:28Z</time></trkpt><trkpt lat="44.26018160312841" lon="11.064856004978367"><ele>472.99999999999994</ele><time>2026-05-02T07:09:29Z</time></trkpt><trkpt lat="44.26026124164493" lon="11.064954069974315"><ele>473.0</ele><time>2026-05-02T07:09:30Z</time></trkpt><trkpt lat="44.260355490120595" lon="11.065032001947335"><ele>473.0</ele><time>2026-05-02T07:09:31Z</time></trkpt><trkpt lat="44.260453801167735" lon="11.065093525318373"><ele>473.0</ele><time>2026-05-02T07:09:32Z</time></trkpt><trkpt lat="44.26052469501901" lon="11.065176259639234"><ele>472.99999999999994</ele><time>2026-05-02T07:09:33Z</time></trkpt><trkpt lat="44.26056798734731" lon="11.06527724219174"><ele>472.99999999999994</ele><time>2026-05-02T07:09:34Z</time></trkpt><trkpt lat="44.26061563597203" lon="11.06537366986267"><ele>473.0</ele><time>2026-05-02T07:09:35Z</time></trkpt><trkpt lat="44.26067793681256" lon="11.065505964571411"><ele>473.0</ele><time>2026-05-02T07:09:36Z</time></trkpt><trkpt lat="44.260762554748155" lon="11.065632844860668"><ele>473.0</ele><time>2026-05-02T07:09:37Z</time></trkpt><trkpt lat="44.26086794803249" lon="11.06571936919862"><ele>472.99999999999994</ele><time>2026-05-02T07:09:38Z</time></trkpt><trkpt lat="44.260945773079406" lon="11.065835568313146"><ele>472.99999999999994</ele><time>2026-05-02T07:09:39Z</time></trkpt><trkpt lat="44.26100512650088" lon="11.06593404331036"><ele>473.0</ele><time>2026-05-02T07:09:40Z</time></trkpt><trkpt lat="44.261048409462795" lon="11.066010027146211"><ele>473.0</ele><time>2026-05-02T07:09:41Z</time></trkpt><trkpt lat="44.261018039920764" lon="11.066105847810173"><ele>477.4</ele><time>2026-05-02T07:09:44Z</time></trkpt><trkpt lat="44.260914197108484" lon="11.066204806653865"><ele>481.79999999999995</ele><time>2026-05-02T07:09:46Z</time></trkpt><trkpt lat="44.260856316842755" lon="11.066247771718706"><ele>486.2</ele><time>2026-05-02T07:09:47Z</time></trkpt><trkpt lat="44.260783029043914" lon="11.066301271918071"><ele>490.6</ele><time>2026-05-02T07:09:48Z</time></trkpt><trkpt lat="44.26068589745482" lon="11.06635540962638"><ele>495.0</ele><time>2026-05-02T07:09:49Z</time></trkpt><trkpt lat="44.26062596540558" lon="11.066504216773788"><ele>503.25</ele><time>2026-05-02T07:09:50Z</time></trkpt><trkpt lat="44.26059380572701" lon="11.066662194069796"><ele>511.5</ele><time>2026-05-02T07:09:51Z</time></trkpt><trkpt lat="44.26055129341845" lon="11.066817939284896"><ele>519.75</ele><time>2026-05-02T07:09:52Z</time></trkpt><trkpt lat="44.26048066771504" lon="11.066978343770888"><ele>528.0</ele><time>2026-05-02T07:09:52.999Z</time></trkpt><trkpt lat="44.26043843479525" lon="11.067106327340683"><ele>528.0</ele><time>2026-05-02T07:09:53.999Z</time></trkpt><trkpt lat="44.260405959664105" lon="11.067243047025205"><ele>528.0</ele><time>2026-05-02T07:09:54.999Z</time></trkpt><trkpt lat="44.2604016764912" lon="11.067371486801349"><ele>528.0</ele><time>2026-05-02T07:09:55.999Z</time></trkpt><trkpt lat="44.260377211779165" lon="11.067464725655512"><ele>528.0</ele><time>2026-05-02T07:09:56.999Z</time></trkpt><trkpt lat="44.26033303297591" lon="11.06755150231056"><ele>528.0</ele><time>2026-05-02T07:09:57.999Z</time></trkpt><trkpt lat="44.26027891201252" lon="11.067656062693883"><ele>528.0</ele><time>2026-05-02T07:09:58.999Z</time></trkpt><trkpt lat="44.260223531145826" lon="11.067779517837467"><ele>528.1999999999999</ele><time>2026-05-02T07:09:59.999Z</time></trkpt><trkpt lat="44.260147004104965" lon="11.067883944825894"><ele>528.4</ele><time>2026-05-02T07:10:00.999Z</time></trkpt><trkpt lat="44.26009118299212" lon="11.068016419992825"><ele>528.5999999999999</ele><time>2026-05-02T07:10:01.999Z</time></trkpt><trkpt lat="44.260073870208736" lon="11.068177127102954"><ele>528.8</ele><time>2026-05-02T07:10:02.999Z</time></trkpt><trkpt lat="44.26004981460701" lon="11.068321675431955"><ele>529.0</ele><time>2026-05-02T07:10:03.999Z</time></trkpt><trkpt lat="44.2600116471262" lon="11.068420085132054"><ele>526.6666666666667</ele><time>2026-05-02T07:10:04.999Z</time></trkpt><trkpt lat="44.25997566053243" lon="11.068542241998005"><ele>524.3333333333334</ele><time>2026-05-02T07:10:05.999Z</time></trkpt><trkpt lat="44.25991997603932" lon="11.068636019013868"><ele>522.0</ele><time>2026-05-02T07:10:06.999Z</time></trkpt><trkpt lat="44.259890308950055" lon="11.068742232397225"><ele>519.6666666666666</ele><time>2026-05-02T07:10:07.999Z</time></trkpt><trkpt lat="44.25985230012664" lon="11.068864012333204"><ele>517.3333333333333</ele><time>2026-05-02T07:10:08.999Z</time></trkpt><trkpt lat="44.259849635669816" lon="11.068958346003061"><ele>515.0</ele><time>2026-05-02T07:10:09.999Z</time></trkpt><trkpt lat="44.25988431277664" lon="11.069062805445448"><ele>514.6</ele><time>2026-05-02T07:10:10.999Z</time></trkpt><trkpt lat="44.25994998424001" lon="11.069160493952408"><ele>514.2</ele><time>2026-05-02T07:10:11.999Z</time></trkpt><trkpt lat="44.26005448098876" lon="11.069236254116884"><ele>513.8</ele><time>2026-05-02T07:10:12.999Z</time></trkpt><trkpt lat="44.26017065716529" lon="11.069289530098679"><ele>513.4</ele><time>2026-05-02T07:10:13.999Z</time></trkpt><trkpt lat="44.26028068736855" lon="11.069316904522411"><ele>513.0</ele><time>2026-05-02T07:10:14.999Z</time></trkpt><trkpt lat="44.26035918442455" lon="11.06930693379443"><ele>513.0</ele><time>2026-05-02T07:10:15.999Z</time></trkpt><trkpt lat="44.26045084274845" lon="11.069365123527366"><ele>513.0</ele><time>2026-05-02T07:10:17.999Z</time></trkpt><trkpt lat="44.26046168904893" lon="11.069602079340365"><ele>513.0</ele><time>2026-05-02T07:10:19.999Z</time></trkpt><trkpt lat="44.2605058495022" lon="11.069741110982473"><ele>513.0</ele><time>2026-05-02T07:10:20.999Z</time></trkpt><trkpt lat="44.260586961645224" lon="11.06986475373051"><ele>511.25</ele><time>2026-05-02T07:10:21.999Z</time></trkpt><trkpt lat="44.260647265090725" lon="11.069997720432506"><ele>509.5</ele><time>2026-05-02T07:10:22.999Z</time></trkpt><trkpt lat="44.26074322689635" lon="11.070111921022056"><ele>507.75</ele><time>2026-05-02T07:10:23.999Z</time></trkpt><trkpt lat="44.26086015642549" lon="11.070181262762448"><ele>506.0</ele><time>2026-05-02T07:10:24.999Z</time></trkpt><trkpt lat="44.260956295377134" lon="11.070270889348278"><ele>506.0</ele><time>2026-05-02T07:10:25.999Z</time></trkpt><trkpt lat="44.26106349196892" lon="11.070338554746124"><ele>506.0</ele><time>2026-05-02T07:10:26.999Z</time></trkpt><trkpt lat="44.2611769058704" lon="11.070387505247137"><ele>506.0</ele><time>2026-05-02T07:10:27.999Z</time></trkpt><trkpt lat="44.26128991176349" lon="11.070418491411294"><ele>506.0</ele><time>2026-05-02T07:10:28.999Z</time></trkpt><trkpt lat="44.26140508061712" lon="11.070451275851006"><ele>506.8</ele><time>2026-05-02T07:10:29.999Z</time></trkpt><trkpt lat="44.26148699674482" lon="11.070484087807586"><ele>507.6</ele><time>2026-05-02T07:10:30.999Z</time></trkpt><trkpt lat="44.26155929288594" lon="11.07063543974253"><ele>508.4</ele><time>2026-05-02T07:10:32.999Z</time></trkpt><trkpt lat="44.26159783999813" lon="11.070755878588344"><ele>509.2</ele><time>2026-05-02T07:10:33.999Z</time></trkpt><trkpt lat="44.26165435896753" lon="11.070908087572445"><ele>510.0</ele><time>2026-05-02T07:10:34.999Z</time></trkpt><trkpt lat="44.26171734898379" lon="11.071050107977127"><ele>510.0</ele><time>2026-05-02T07:10:35.999Z</time></trkpt><trkpt lat="44.26181641001548" lon="11.071155648198696"><ele>510.0</ele><time>2026-05-02T07:10:36.999Z</time></trkpt><trkpt lat="44.261931037194095" lon="11.071193617564372"><ele>510.0</ele><time>2026-05-02T07:10:37.999Z</time></trkpt><trkpt lat="44.26201449560937" lon="11.071261329706097"><ele>510.0</ele><time>2026-05-02T07:10:38.999Z</time></trkpt><trkpt lat="44.26207362005996" lon="11.071364269820917"><ele>510.0</ele><time>2026-05-02T07:10:39.999Z</time></trkpt><trkpt lat="44.26214162367584" lon="11.071474598786748"><ele>510.0</ele><time>2026-05-02T07:10:40.999Z</time></trkpt><trkpt lat="44.26221474550849" lon="11.071590329260276"><ele>510.0</ele><time>2026-05-02T07:10:41.999Z</time></trkpt><trkpt lat="44.26228956462949" lon="11.07170575785173"><ele>510.0</ele><time>2026-05-02T07:10:42.999Z</time></trkpt><trkpt lat="44.26236851338186" lon="11.071785527169297"><ele>510.0</ele><time>2026-05-02T07:10:43.999Z</time></trkpt><trkpt lat="44.26244914271817" lon="11.071853454225307"><ele>510.0</ele><time>2026-05-02T07:10:44.999Z</time></trkpt><trkpt lat="44.26254777311269" lon="11.071903291143741"><ele>508.0</ele><time>2026-05-02T07:10:45.999Z</time></trkpt><trkpt lat="44.26266893002763" lon="11.071938938469572"><ele>506.0</ele><time>2026-05-02T07:10:46.999Z</time></trkpt><trkpt lat="44.26280599026194" lon="11.07193195601176"><ele>504.0</ele><time>2026-05-02T07:10:47.999Z</time></trkpt><trkpt lat="44.26291790936851" lon="11.071915191646756"><ele>502.0</ele><time>2026-05-02T07:10:48.999Z</time></trkpt><trkpt lat="44.26304075318651" lon="11.071895840781385"><ele>500.75</ele><time>2026-05-02T07:10:49.999Z</time></trkpt><trkpt lat="44.26316463401591" lon="11.071876306906665"><ele>499.5</ele><time>2026-05-02T07:10:50.999Z</time></trkpt><trkpt lat="44.26327605168532" lon="11.07185925015064"><ele>498.25</ele><time>2026-05-02T07:10:51.999Z</time></trkpt><trkpt lat="44.26339510636051" lon="11.071842403328825"><ele>497.0</ele><time>2026-05-02T07:10:52.999Z</time></trkpt><trkpt lat="44.263504951808905" lon="11.071828684464606"><ele>497.0</ele><time>2026-05-02T07:10:53.999Z</time></trkpt><trkpt lat="44.26359120362818" lon="11.071821520451508"><ele>497.00000000000006</ele><time>2026-05-02T07:10:54.999Z</time></trkpt><trkpt lat="44.26372260296723" lon="11.071839000267762"><ele>497.00000000000006</ele><time>2026-05-02T07:10:57Z</time></trkpt><trkpt lat="44.263790098005835" lon="11.071914724238928"><ele>497.0</ele><time>2026-05-02T07:10:58Z</time></trkpt><trkpt lat="44.263852428008576" lon="11.071995021577296"><ele>497.0</ele><time>2026-05-02T07:10:59Z</time></trkpt><trkpt lat="44.263954691974284" lon="11.072084447110884"><ele>496.25</ele><time>2026-05-02T07:11:00Z</time></trkpt><trkpt lat="44.264045163666104" lon="11.072163872807508"><ele>495.5</ele><time>2026-05-02T07:11:01Z</time></trkpt><trkpt lat="44.26415211723349" lon="11.072260971386966"><ele>494.75</ele><time>2026-05-02T07:11:02Z</time></trkpt><trkpt lat="44.26425544497723" lon="11.072342308272532"><ele>494.0</ele><time>2026-05-02T07:11:03Z</time></trkpt><trkpt lat="44.26437011745664" lon="11.072404344925264"><ele>495.25</ele><time>2026-05-02T07:11:04Z</time></trkpt><trkpt lat="44.26449399288174" lon="11.072446047060442"><ele>496.5</ele><time>2026-05-02T07:11:05Z</time></trkpt><trkpt lat="44.26460293395872" lon="11.072475232277492"><ele>497.75</ele><time>2026-05-02T07:11:06Z</time></trkpt><trkpt lat="44.264702549075196" lon="11.072514484887066"><ele>499.0</ele><time>2026-05-02T07:11:07Z</time></trkpt><trkpt lat="44.264820688038014" lon="11.072619765032394"><ele>499.0</ele><time>2026-05-02T07:11:09Z</time></trkpt><trkpt lat="44.264900075023554" lon="11.07268739288503"><ele>499.0</ele><time>2026-05-02T07:11:10Z</time></trkpt><trkpt lat="44.26499079753455" lon="11.072785676065243"><ele>499.0</ele><time>2026-05-02T07:11:11Z</time></trkpt><trkpt lat="44.26508671708864" lon="11.072900744810106"><ele>499.0</ele><time>2026-05-02T07:11:12Z</time></trkpt><trkpt lat="44.26519080496806" lon="11.072993174016652"><ele>499.0</ele><time>2026-05-02T07:11:13Z</time></trkpt><trkpt lat="44.26529567815794" lon="11.073051857086968"><ele>499.0</ele><time>2026-05-02T07:11:14Z</time></trkpt><trkpt lat="44.26540248676456" lon="11.073117923888624"><ele>499.0</ele><time>2026-05-02T07:11:15Z</time></trkpt><trkpt lat="44.265499590495125" lon="11.07316227972466"><ele>499.0</ele><time>2026-05-02T07:11:16Z</time></trkpt><trkpt lat="44.26559972913883" lon="11.073199198320518"><ele>499.0</ele><time>2026-05-02T07:11:17Z</time></trkpt><trkpt lat="44.265678788688" lon="11.073250409204334"><ele>497.33333333333337</ele><time>2026-05-02T07:11:18Z</time></trkpt><trkpt lat="44.26575326125685" lon="11.073323040049207"><ele>495.6666666666667</ele><time>2026-05-02T07:11:19Z</time></trkpt><trkpt lat="44.2658147173615" lon="11.07341265600037"><ele>494.0</ele><time>2026-05-02T07:11:20Z</time></trkpt><trkpt lat="44.26585443355817" lon="11.073528088643572"><ele>492.33333333333337</ele><time>2026-05-02T07:11:21Z</time></trkpt><trkpt lat="44.26589193967939" lon="11.073632992450895"><ele>490.6666666666667</ele><time>2026-05-02T07:11:22Z</time></trkpt><trkpt lat="44.265916620426744" lon="11.07374680246895"><ele>489.0</ele><time>2026-05-02T07:11:23Z</time></trkpt><trkpt lat="44.26588654024613" lon="11.073880846509153"><ele>489.0</ele><time>2026-05-02T07:11:24Z</time></trkpt><trkpt lat="44.2658649366811" lon="11.074033758417047"><ele>489.0</ele><time>2026-05-02T07:11:25Z</time></trkpt><trkpt lat="44.26585986368632" lon="11.074209606427143"><ele>489.0</ele><time>2026-05-02T07:11:26Z</time></trkpt><trkpt lat="44.26582594780746" lon="11.07439125024951"><ele>489.0</ele><time>2026-05-02T07:11:27Z</time></trkpt><trkpt lat="44.26580369613793" lon="11.074602937422725"><ele>488.0</ele><time>2026-05-02T07:11:28Z</time></trkpt><trkpt lat="44.2658086761083" lon="11.074809174562386"><ele>487.0</ele><time>2026-05-02T07:11:29Z</time></trkpt><trkpt lat="44.26581272308094" lon="11.074986175819012"><ele>486.0</ele><time>2026-05-02T07:11:30Z</time></trkpt><trkpt lat="44.26586364780017" lon="11.075146037205963"><ele>485.0</ele><time>2026-05-02T07:11:31Z</time></trkpt><trkpt lat="44.26595452495291" lon="11.075272341509622"><ele>483.75</ele><time>2026-05-02T07:11:32Z</time></trkpt><trkpt lat="44.26605212426621" lon="11.075428767400068"><ele>482.5</ele><time>2026-05-02T07:11:33Z</time></trkpt><trkpt lat="44.266147517638736" lon="11.075555378598192"><ele>481.25</ele><time>2026-05-02T07:11:34Z</time></trkpt><trkpt lat="44.26622691911096" lon="11.07567029361648"><ele>480.0</ele><time>2026-05-02T07:11:35Z</time></trkpt><trkpt lat="44.26627297474048" lon="11.075765837218398"><ele>481.8</ele><time>2026-05-02T07:11:36Z</time></trkpt><trkpt lat="44.26622014334111" lon="11.075875130654838"><ele>483.6</ele><time>2026-05-02T07:11:41Z</time></trkpt><trkpt lat="44.26614786637826" lon="11.076012550648253"><ele>485.4</ele><time>2026-05-02T07:11:43Z</time></trkpt><trkpt lat="44.266086998673025" lon="11.07610632552791"><ele>487.2</ele><time>2026-05-02T07:11:44Z</time></trkpt><trkpt lat="44.26603692607007" lon="11.076227845676943"><ele>489.0</ele><time>2026-05-02T07:11:45Z</time></trkpt><trkpt lat="44.26601363264987" lon="11.076380955439781"><ele>489.0</ele><time>2026-05-02T07:11:46Z</time></trkpt><trkpt lat="44.265984330276154" lon="11.076498456300811"><ele>489.0</ele><time>2026-05-02T07:11:47Z</time></trkpt><trkpt lat="44.2659561677106" lon="11.076609715992273"><ele>489.0</ele><time>2026-05-02T07:11:48Z</time></trkpt><trkpt lat="44.26594362352788" lon="11.0767215261311"><ele>489.0</ele><time>2026-05-02T07:11:49Z</time></trkpt><trkpt lat="44.26589359012837" lon="11.07681839581765"><ele>489.0</ele><time>2026-05-02T07:11:50Z</time></trkpt><trkpt lat="44.26581718999454" lon="11.076909570239115"><ele>489.0</ele><time>2026-05-02T07:11:51Z</time></trkpt><trkpt lat="44.26571201577138" lon="11.076984784503194"><ele>489.4</ele><time>2026-05-02T07:11:52Z</time></trkpt><trkpt lat="44.265615593203464" lon="11.077066670967788"><ele>489.79999999999995</ele><time>2026-05-02T07:11:53Z</time></trkpt><trkpt lat="44.265531100927184" lon="11.077171848866254"><ele>490.20000000000005</ele><time>2026-05-02T07:11:54Z</time></trkpt><trkpt lat="44.26544108360661" lon="11.077263470320903"><ele>490.6</ele><time>2026-05-02T07:11:55Z</time></trkpt><trkpt lat="44.265370727515766" lon="11.077369273861208"><ele>491.0</ele><time>2026-05-02T07:11:56Z</time></trkpt><trkpt lat="44.26532162146672" lon="11.077486597697455"><ele>491.0</ele><time>2026-05-02T07:11:57Z</time></trkpt><trkpt lat="44.26527927371983" lon="11.077622127902515"><ele>491.0</ele><time>2026-05-02T07:11:58Z</time></trkpt><trkpt lat="44.265210674026285" lon="11.077751552172844"><ele>491.0</ele><time>2026-05-02T07:11:58.999Z</time></trkpt><trkpt lat="44.26515759212097" lon="11.077893484656768"><ele>491.0</ele><time>2026-05-02T07:11:59.999Z</time></trkpt><trkpt lat="44.26510241191718" lon="11.078045956370403"><ele>491.0</ele><time>2026-05-02T07:12:00.999Z</time></trkpt><trkpt lat="44.26505372902213" lon="11.078186423255753"><ele>491.0</ele><time>2026-05-02T07:12:01.999Z</time></trkpt><trkpt lat="44.26500372691255" lon="11.078326218045682"><ele>491.0</ele><time>2026-05-02T07:12:02.999Z</time></trkpt><trkpt lat="44.26494895054725" lon="11.078435351132198"><ele>491.0</ele><time>2026-05-02T07:12:03.999Z</time></trkpt><trkpt lat="44.2648685977013" lon="11.07852152487959"><ele>491.0</ele><time>2026-05-02T07:12:04.999Z</time></trkpt><trkpt lat="44.264782925506175" lon="11.078612473703172"><ele>491.6</ele><time>2026-05-02T07:12:05.999Z</time></trkpt><trkpt lat="44.264717918819144" lon="11.0787439833857"><ele>492.20000000000005</ele><time>2026-05-02T07:12:06.999Z</time></trkpt><trkpt lat="44.26467180376737" lon="11.078887158135592"><ele>492.79999999999995</ele><time>2026-05-02T07:12:07.999Z</time></trkpt><trkpt lat="44.26466807592443" lon="11.079022648205632"><ele>493.4</ele><time>2026-05-02T07:12:08.999Z</time></trkpt><trkpt lat="44.26468716679198" lon="11.079176278518519"><ele>494.0</ele><time>2026-05-02T07:12:09.999Z</time></trkpt><trkpt lat="44.264720636534996" lon="11.0793179053876"><ele>494.0</ele><time>2026-05-02T07:12:10.999Z</time></trkpt><trkpt lat="44.264763943811225" lon="11.079465201825014"><ele>494.0</ele><time>2026-05-02T07:12:11.999Z</time></trkpt><trkpt lat="44.26482347850011" lon="11.07961662863032"><ele>494.0</ele><time>2026-05-02T07:12:12.999Z</time></trkpt><trkpt lat="44.264879723746624" lon="11.079733457103876"><ele>494.0</ele><time>2026-05-02T07:12:13.999Z</time></trkpt><trkpt lat="44.26492537739603" lon="11.079853567816981"><ele>494.0</ele><time>2026-05-02T07:12:14.999Z</time></trkpt><trkpt lat="44.2649287221876" lon="11.080016447526654"><ele>491.6</ele><time>2026-05-02T07:12:15.999Z</time></trkpt><trkpt lat="44.264973935916146" lon="11.080153826491172"><ele>489.2</ele><time>2026-05-02T07:12:16.999Z</time></trkpt><trkpt lat="44.26501659007587" lon="11.080297878481918"><ele>486.80000000000007</ele><time>2026-05-02T07:12:17.999Z</time></trkpt><trkpt lat="44.265067183793924" lon="11.080424686510502"><ele>484.40000000000003</ele><time>2026-05-02T07:12:18.999Z</time></trkpt><trkpt lat="44.26509061545767" lon="11.08057379231534"><ele>482.0</ele><time>2026-05-02T07:12:19.999Z</time></trkpt><trkpt lat="44.26509659606485" lon="11.080720770928593"><ele>484.25</ele><time>2026-05-02T07:12:20.999Z</time></trkpt><trkpt lat="44.26512690102482" lon="11.0808760766141"><ele>486.5</ele><time>2026-05-02T07:12:21.999Z</time></trkpt><trkpt lat="44.265139011442066" lon="11.081044318774401"><ele>488.75</ele><time>2026-05-02T07:12:22.999Z</time></trkpt><trkpt lat="44.265174844339185" lon="11.081193350935175"><ele>491.0</ele><time>2026-05-02T07:12:23.999Z</time></trkpt><trkpt lat="44.26521641977915" lon="11.081339232704874"><ele>491.0</ele><time>2026-05-02T07:12:24.999Z</time></trkpt><trkpt lat="44.26525250933176" lon="11.08151889917479"><ele>491.0</ele><time>2026-05-02T07:12:25.999Z</time></trkpt><trkpt lat="44.265292327123724" lon="11.081677800238502"><ele>491.0</ele><time>2026-05-02T07:12:26.999Z</time></trkpt><trkpt lat="44.26533976010172" lon="11.081849402566046"><ele>491.0</ele><time>2026-05-02T07:12:27.999Z</time></trkpt><trkpt lat="44.265392809459115" lon="11.08201082473943"><ele>493.0</ele><time>2026-05-02T07:12:28.999Z</time></trkpt><trkpt lat="44.26544255643158" lon="11.082179567490567"><ele>495.0</ele><time>2026-05-02T07:12:29.999Z</time></trkpt><trkpt lat="44.26547789418558" lon="11.082344652312386"><ele>497.0</ele><time>2026-05-02T07:12:30.999Z</time></trkpt><trkpt lat="44.26548586891941" lon="11.082503280334468"><ele>499.0</ele><time>2026-05-02T07:12:31.999Z</time></trkpt><trkpt lat="44.265517449824124" lon="11.082627313128299"><ele>499.6</ele><time>2026-05-02T07:12:32.999Z</time></trkpt><trkpt lat="44.26558256628857" lon="11.082716612998471"><ele>500.2</ele><time>2026-05-02T07:12:33.999Z</time></trkpt><trkpt lat="44.2656422986558" lon="11.082836992183246"><ele>500.80000000000007</ele><time>2026-05-02T07:12:34.999Z</time></trkpt><trkpt lat="44.265699487716326" lon="11.082960412453122"><ele>501.40000000000003</ele><time>2026-05-02T07:12:35.999Z</time></trkpt><trkpt lat="44.26572961410014" lon="11.083099758033176"><ele>502.0</ele><time>2026-05-02T07:12:36.999Z</time></trkpt><trkpt lat="44.265763783657135" lon="11.083253350346267"><ele>498.5</ele><time>2026-05-02T07:12:37.999Z</time></trkpt><trkpt lat="44.26581177031458" lon="11.083404655988488"><ele>495.0</ele><time>2026-05-02T07:12:38.999Z</time></trkpt><trkpt lat="44.265847781725135" lon="11.083561630477961"><ele>491.5</ele><time>2026-05-02T07:12:39.999Z</time></trkpt><trkpt lat="44.26587285662848" lon="11.083727949206992"><ele>488.0</ele><time>2026-05-02T07:12:40.999Z</time></trkpt><trkpt lat="44.26591953675216" lon="11.083897346996746"><ele>487.99999999999994</ele><time>2026-05-02T07:12:41.999Z</time></trkpt><trkpt lat="44.26598737118873" lon="11.08402102656079"><ele>488.0</ele><time>2026-05-02T07:12:42.999Z</time></trkpt><trkpt lat="44.266035717373654" lon="11.084126853163486"><ele>488.0</ele><time>2026-05-02T07:12:43.999Z</time></trkpt><trkpt lat="44.26607065800421" lon="11.084209233589013"><ele>488.0</ele><time>2026-05-02T07:12:44.999Z</time></trkpt><trkpt lat="44.26606672351992" lon="11.084300256712092"><ele>487.99999999999994</ele><time>2026-05-02T07:12:45.999Z</time></trkpt><trkpt lat="44.26600446037242" lon="11.084410542196437"><ele>488.0</ele><time>2026-05-02T07:12:47.999Z</time></trkpt><trkpt lat="44.265961992802374" lon="11.084485447850428"><ele>490.16666666666663</ele><time>2026-05-02T07:12:48.999Z</time></trkpt><trkpt lat="44.265885567935534" lon="11.084525836378972"><ele>492.3333333333333</ele><time>2026-05-02T07:12:49.999Z</time></trkpt><trkpt lat="44.26582500474426" lon="11.084593765218575"><ele>494.5</ele><time>2026-05-02T07:12:50.999Z</time></trkpt><trkpt lat="44.265756883775964" lon="11.084640531689834"><ele>496.66666666666663</ele><time>2026-05-02T07:12:51.999Z</time></trkpt><trkpt lat="44.265677684662236" lon="11.084704917940654"><ele>498.8333333333333</ele><time>2026-05-02T07:12:52.999Z</time></trkpt><trkpt lat="44.26559878334074" lon="11.084759419749407"><ele>501.0</ele><time>2026-05-02T07:12:53.999Z</time></trkpt><trkpt lat="44.26552737664622" lon="11.084819499863762"><ele>501.8</ele><time>2026-05-02T07:12:54.999Z</time></trkpt><trkpt lat="44.2654649207643" lon="11.08491431582917"><ele>502.6</ele><time>2026-05-02T07:12:55.999Z</time></trkpt><trkpt lat="44.265423844002974" lon="11.085046549973262"><ele>503.4</ele><time>2026-05-02T07:12:56.999Z</time></trkpt><trkpt lat="44.26539938955251" lon="11.085199989939337"><ele>504.2</ele><time>2026-05-02T07:12:57.999Z</time></trkpt><trkpt lat="44.26538897663164" lon="11.085359802666762"><ele>505.0</ele><time>2026-05-02T07:12:58.999Z</time></trkpt><trkpt lat="44.265350136988324" lon="11.085536732793067"><ele>505.0</ele><time>2026-05-02T07:12:59.999Z</time></trkpt><trkpt lat="44.26532303327153" lon="11.085742817964283"><ele>505.0</ele><time>2026-05-02T07:13:00.999Z</time></trkpt><trkpt lat="44.265281652457034" lon="11.0859225430689"><ele>505.0</ele><time>2026-05-02T07:13:01.999Z</time></trkpt><trkpt lat="44.26525699585866" lon="11.08610378215483"><ele>505.0</ele><time>2026-05-02T07:13:03Z</time></trkpt><trkpt lat="44.26525768934653" lon="11.086257687957094"><ele>504.8</ele><time>2026-05-02T07:13:04Z</time></trkpt><trkpt lat="44.265300097377306" lon="11.086394213807498"><ele>504.6</ele><time>2026-05-02T07:13:05Z</time></trkpt><trkpt lat="44.2653499841463" lon="11.086508493802816"><ele>504.4</ele><time>2026-05-02T07:13:06Z</time></trkpt><trkpt lat="44.26539506454834" lon="11.086643561752856"><ele>504.2</ele><time>2026-05-02T07:13:07Z</time></trkpt><trkpt lat="44.26543379661479" lon="11.086798527558082"><ele>504.0</ele><time>2026-05-02T07:13:08Z</time></trkpt><trkpt lat="44.26546362265622" lon="11.086951897307943"><ele>504.0</ele><time>2026-05-02T07:13:09Z</time></trkpt><trkpt lat="44.26546635721214" lon="11.087114363942055"><ele>504.0</ele><time>2026-05-02T07:13:10Z</time></trkpt><trkpt lat="44.26548400058469" lon="11.087282874764297"><ele>504.0</ele><time>2026-05-02T07:13:11Z</time></trkpt><trkpt lat="44.2654758941961" lon="11.087437477122123"><ele>504.0</ele><time>2026-05-02T07:13:12Z</time></trkpt><trkpt lat="44.26546240001519" lon="11.087587865841524"><ele>504.25</ele><time>2026-05-02T07:13:13Z</time></trkpt><trkpt lat="44.26543809413561" lon="11.087778870682428"><ele>504.5</ele><time>2026-05-02T07:13:14Z</time></trkpt><trkpt lat="44.26539138393418" lon="11.087952956165532"><ele>504.75</ele><time>2026-05-02T07:13:15Z</time></trkpt><trkpt lat="44.26536655687537" lon="11.088134767393717"><ele>505.0</ele><time>2026-05-02T07:13:16Z</time></trkpt><trkpt lat="44.26533683460775" lon="11.088332111680405"><ele>503.6</ele><time>2026-05-02T07:13:17Z</time></trkpt><trkpt lat="44.26529310135547" lon="11.088504624744143"><ele>502.2</ele><time>2026-05-02T07:13:18Z</time></trkpt><trkpt lat="44.26526344389501" lon="11.088667483270884"><ele>500.79999999999995</ele><time>2026-05-02T07:13:19Z</time></trkpt><trkpt lat="44.26523928582233" lon="11.088800142771937"><ele>499.4</ele><time>2026-05-02T07:13:20Z</time></trkpt><trkpt lat="44.265224398080846" lon="11.088910043537341"><ele>498.0</ele><time>2026-05-02T07:13:22Z</time></trkpt><trkpt lat="44.2651340322469" lon="11.088782223796263"><ele>498.0</ele><time>2026-05-02T07:13:25Z</time></trkpt><trkpt lat="44.265084761913116" lon="11.088698542238804"><ele>497.99999999999994</ele><time>2026-05-02T07:13:26Z</time></trkpt><trkpt lat="44.26504600108842" lon="11.088591458818257"><ele>497.99999999999994</ele><time>2026-05-02T07:13:27Z</time></trkpt><trkpt lat="44.2650216355467" lon="11.088469314952519"><ele>498.0</ele><time>2026-05-02T07:13:28Z</time></trkpt><trkpt lat="44.264997805063935" lon="11.088331751253289"><ele>498.0</ele><time>2026-05-02T07:13:29Z</time></trkpt><trkpt lat="44.26497193847857" lon="11.088173020257521"><ele>499.75</ele><time>2026-05-02T07:13:30Z</time></trkpt><trkpt lat="44.264943297231994" lon="11.087997262395278"><ele>501.5</ele><time>2026-05-02T07:13:31Z</time></trkpt><trkpt lat="44.26491481448244" lon="11.087820065337676"><ele>503.25</ele><time>2026-05-02T07:13:32Z</time></trkpt><trkpt lat="44.26488581389552" lon="11.087636038519237"><ele>505.0</ele><time>2026-05-02T07:13:33Z</time></trkpt><trkpt lat="44.26485638383896" lon="11.087454867514419"><ele>504.75</ele><time>2026-05-02T07:13:34Z</time></trkpt><trkpt lat="44.264815445912454" lon="11.087271353281075"><ele>504.5</ele><time>2026-05-02T07:13:35Z</time></trkpt><trkpt lat="44.26475448833142" lon="11.087118505862149"><ele>504.25</ele><time>2026-05-02T07:13:36Z</time></trkpt><trkpt lat="44.26467099131829" lon="11.087000525102978"><ele>504.0</ele><time>2026-05-02T07:13:37Z</time></trkpt><trkpt lat="44.26458415357408" lon="11.086892647256553"><ele>506.1666666666667</ele><time>2026-05-02T07:13:38Z</time></trkpt><trkpt lat="44.2645124028067" lon="11.086811061685188"><ele>508.33333333333337</ele><time>2026-05-02T07:13:39Z</time></trkpt><trkpt lat="44.264444066351345" lon="11.086743237029784"><ele>510.5</ele><time>2026-05-02T07:13:40Z</time></trkpt><trkpt lat="44.26438256516074" lon="11.086693800137207"><ele>512.6666666666667</ele><time>2026-05-02T07:13:41Z</time></trkpt><trkpt lat="44.264304190889405" lon="11.08665660226585"><ele>514.8333333333334</ele><time>2026-05-02T07:13:42Z</time></trkpt><trkpt lat="44.26421523381651" lon="11.086624580967689"><ele>517.0</ele><time>2026-05-02T07:13:43Z</time></trkpt><trkpt lat="44.26412015802913" lon="11.086601333375798"><ele>517.0</ele><time>2026-05-02T07:13:44Z</time></trkpt><trkpt lat="44.264010613295405" lon="11.086597449512336"><ele>517.0</ele><time>2026-05-02T07:13:45Z</time></trkpt><trkpt lat="44.263897974574014" lon="11.086594019146329"><ele>517.0</ele><time>2026-05-02T07:13:46Z</time></trkpt><trkpt lat="44.26378259026003" lon="11.086580840757902"><ele>517.0</ele><time>2026-05-02T07:13:47Z</time></trkpt><trkpt lat="44.263691214509656" lon="11.086534340915636"><ele>517.0</ele><time>2026-05-02T07:13:48Z</time></trkpt><trkpt lat="44.263622476698494" lon="11.086462960219407"><ele>520.2</ele><time>2026-05-02T07:13:49Z</time></trkpt><trkpt lat="44.26361583650875" lon="11.086336279919214"><ele>523.4000000000001</ele><time>2026-05-02T07:13:50Z</time></trkpt><trkpt lat="44.26364824765439" lon="11.086198838191404"><ele>526.5999999999999</ele><time>2026-05-02T07:13:51Z</time></trkpt><trkpt lat="44.26364672769709" lon="11.086048050137055"><ele>529.8</ele><time>2026-05-02T07:13:52Z</time></trkpt><trkpt lat="44.263615963171546" lon="11.085892052101423"><ele>533.0</ele><time>2026-05-02T07:13:53Z</time></trkpt><trkpt lat="44.26360354177146" lon="11.085745229797002"><ele>533.0</ele><time>2026-05-02T07:13:54Z</time></trkpt><trkpt lat="44.26355636186366" lon="11.085642338293429"><ele>533.0</ele><time>2026-05-02T07:13:55Z</time></trkpt><trkpt lat="44.26345419910105" lon="11.085571589418588"><ele>533.0</ele><time>2026-05-02T07:13:57Z</time></trkpt><trkpt lat="44.263395500624874" lon="11.085633027540208"><ele>533.0</ele><time>2026-05-02T07:13:58Z</time></trkpt><trkpt lat="44.263343507482176" lon="11.085732507931567"><ele>533.0</ele><time>2026-05-02T07:13:59Z</time></trkpt><trkpt lat="44.26330499409838" lon="11.085833360344163"><ele>533.0</ele><time>2026-05-02T07:14:00Z</time></trkpt><trkpt lat="44.26325545985851" lon="11.085904355420137"><ele>533.0</ele><time>2026-05-02T07:14:01Z</time></trkpt><trkpt lat="44.263186959640365" lon="11.085945522243629"><ele>533.0</ele><time>2026-05-02T07:14:01.999Z</time></trkpt><trkpt lat="44.26309155947274" lon="11.085906689946764"><ele>533.0</ele><time>2026-05-02T07:14:02.999Z</time></trkpt><trkpt lat="44.26300587541717" lon="11.085869057612346"><ele>533.0</ele><time>2026-05-02T07:14:03.999Z</time></trkpt><trkpt lat="44.262919994787275" lon="11.085810953650958"><ele>533.0</ele><time>2026-05-02T07:14:04.999Z</time></trkpt><trkpt lat="44.26287657211708" lon="11.085735450859728"><ele>533.0</ele><time>2026-05-02T07:14:05.999Z</time></trkpt><trkpt lat="44.262903713793804" lon="11.085560206085901"><ele>539.25</ele><time>2026-05-02T07:14:07.999Z</time></trkpt><trkpt lat="44.26282642348744" lon="11.085394451123642"><ele>545.5</ele><time>2026-05-02T07:14:09.999Z</time></trkpt><trkpt lat="44.262725828957876" lon="11.085354565720191"><ele>551.75</ele><time>2026-05-02T07:14:10.999Z</time></trkpt><trkpt lat="44.26261578243698" lon="11.085393672360647"><ele>558.0</ele><time>2026-05-02T07:14:11.999Z</time></trkpt><trkpt lat="44.262523222499276" lon="11.085448800046109"><ele>558.0</ele><time>2026-05-02T07:14:12.999Z</time></trkpt><trkpt lat="44.26243404808451" lon="11.085482061076704"><ele>558.0</ele><time>2026-05-02T07:14:13.999Z</time></trkpt><trkpt lat="44.26235420579346" lon="11.08546142584175"><ele>558.0</ele><time>2026-05-02T07:14:14.999Z</time></trkpt><trkpt lat="44.262302762779" lon="11.085341859738069"><ele>558.0</ele><time>2026-05-02T07:14:16.999Z</time></trkpt><trkpt lat="44.26232603827558" lon="11.085243827140472"><ele>558.0</ele><time>2026-05-02T07:14:17.999Z</time></trkpt><trkpt lat="44.2623661398132" lon="11.085172720881129"><ele>558.0</ele><time>2026-05-02T07:14:18.999Z</time></trkpt><trkpt lat="44.262446355384796" lon="11.085095587288738"><ele>558.0</ele><time>2026-05-02T07:14:19.999Z</time></trkpt><trkpt lat="44.26252449709023" lon="11.085017300426498"><ele>558.0</ele><time>2026-05-02T07:14:20.999Z</time></trkpt><trkpt lat="44.26261024465541" lon="11.084926369358575"><ele>558.0</ele><time>2026-05-02T07:14:21.999Z</time></trkpt><trkpt lat="44.26269423389706" lon="11.084834727649444"><ele>558.0</ele><time>2026-05-02T07:14:22.999Z</time></trkpt><trkpt lat="44.26276288158221" lon="11.084742383888864"><ele>558.0</ele><time>2026-05-02T07:14:23.999Z</time></trkpt><trkpt lat="44.26280416654345" lon="11.08464834303147"><ele>558.6</ele><time>2026-05-02T07:14:24.999Z</time></trkpt><trkpt lat="44.26283129812002" lon="11.084554714694994"><ele>559.1999999999999</ele><time>2026-05-02T07:14:25.999Z</time></trkpt><trkpt lat="44.26280802749149" lon="11.08440905571618"><ele>559.8</ele><time>2026-05-02T07:14:26.999Z</time></trkpt><trkpt lat="44.262736650527835" lon="11.084326086506097"><ele>560.4</ele><time>2026-05-02T07:14:27.999Z</time></trkpt><trkpt lat="44.26264772881344" lon="11.084280432678407"><ele>561.0</ele><time>2026-05-02T07:14:28.999Z</time></trkpt><trkpt lat="44.262539560953904" lon="11.084320172665908"><ele>561.0</ele><time>2026-05-02T07:14:29.999Z</time></trkpt><trkpt lat="44.262439111032236" lon="11.084364218080648"><ele>561.0</ele><time>2026-05-02T07:14:30.999Z</time></trkpt><trkpt lat="44.26234237620599" lon="11.084422072093231"><ele>561.0</ele><time>2026-05-02T07:14:31.999Z</time></trkpt><trkpt lat="44.262226973853615" lon="11.084446251478509"><ele>561.0</ele><time>2026-05-02T07:14:32.999Z</time></trkpt><trkpt lat="44.26211900826039" lon="11.084485171684873"><ele>561.0</ele><time>2026-05-02T07:14:33.999Z</time></trkpt><trkpt lat="44.26200950878594" lon="11.084512319732415"><ele>563.5</ele><time>2026-05-02T07:14:34.999Z</time></trkpt><trkpt lat="44.26189877042953" lon="11.084527827255737"><ele>566.0</ele><time>2026-05-02T07:14:35.999Z</time></trkpt><trkpt lat="44.261775118994876" lon="11.084542742641824"><ele>568.5</ele><time>2026-05-02T07:14:36.999Z</time></trkpt><trkpt lat="44.26165360964486" lon="11.084559342325072"><ele>571.0</ele><time>2026-05-02T07:14:37.999Z</time></trkpt><trkpt lat="44.26154457151563" lon="11.084569398330316"><ele>570.4</ele><time>2026-05-02T07:14:38.999Z</time></trkpt><trkpt lat="44.26143369976469" lon="11.084555501001601"><ele>569.8</ele><time>2026-05-02T07:14:39.999Z</time></trkpt><trkpt lat="44.26134258582149" lon="11.084513093195266"><ele>569.1999999999999</ele><time>2026-05-02T07:14:40.999Z</time></trkpt><trkpt lat="44.26125887716371" lon="11.084435262994973"><ele>568.6</ele><time>2026-05-02T07:14:41.999Z</time></trkpt><trkpt lat="44.261166030288926" lon="11.084361655702317"><ele>568.0</ele><time>2026-05-02T07:14:42.999Z</time></trkpt><trkpt lat="44.261072267044774" lon="11.084259449134416"><ele>568.0</ele><time>2026-05-02T07:14:43.999Z</time></trkpt><trkpt lat="44.26097941183803" lon="11.084146991135153"><ele>568.0</ele><time>2026-05-02T07:14:44.999Z</time></trkpt><trkpt lat="44.26087091285278" lon="11.084029989776294"><ele>568.0</ele><time>2026-05-02T07:14:45.999Z</time></trkpt><trkpt lat="44.2607511927528" lon="11.083946152807492"><ele>568.0</ele><time>2026-05-02T07:14:46.999Z</time></trkpt><trkpt lat="44.260607749080826" lon="11.08391580525261"><ele>567.75</ele><time>2026-05-02T07:14:47.999Z</time></trkpt><trkpt lat="44.260481318649" lon="11.083935006114428"><ele>567.5</ele><time>2026-05-02T07:14:48.999Z</time></trkpt><trkpt lat="44.26035286677886" lon="11.083909720350048"><ele>567.25</ele><time>2026-05-02T07:14:49.999Z</time></trkpt><trkpt lat="44.26025018662481" lon="11.083889771751027"><ele>567.0</ele><time>2026-05-02T07:14:50.999Z</time></trkpt><trkpt lat="44.260170591390306" lon="11.083814305704955"><ele>567.0</ele><time>2026-05-02T07:14:51.999Z</time></trkpt><trkpt lat="44.26011802596748" lon="11.083713326543856"><ele>567.0</ele><time>2026-05-02T07:14:52.999Z</time></trkpt><trkpt lat="44.26004497287135" lon="11.083618737890342"><ele>567.0</ele><time>2026-05-02T07:14:53.999Z</time></trkpt><trkpt lat="44.259986407346155" lon="11.083566208393952"><ele>567.0</ele><time>2026-05-02T07:14:54.999Z</time></trkpt><trkpt lat="44.25991188007755" lon="11.083526352131173"><ele>567.0</ele><time>2026-05-02T07:14:56.999Z</time></trkpt><trkpt lat="44.25982436195434" lon="11.083503329265112"><ele>567.0</ele><time>2026-05-02T07:14:59.999Z</time></trkpt><trkpt lat="44.25966824316477" lon="11.083771373607245"><ele>563.4</ele><time>2026-05-02T07:15:00.999Z</time></trkpt><trkpt lat="44.25958773791491" lon="11.083799608110535"><ele>559.8000000000001</ele><time>2026-05-02T07:15:01.999Z</time></trkpt><trkpt lat="44.2595245262009" lon="11.083811925242703"><ele>556.2</ele><time>2026-05-02T07:15:02.999Z</time></trkpt><trkpt lat="44.2594145398702" lon="11.083851273040448"><ele>552.6</ele><time>2026-05-02T07:15:04.999Z</time></trkpt><trkpt lat="44.25934482086304" lon="11.083874544391831"><ele>549.0</ele><time>2026-05-02T07:15:05.999Z</time></trkpt><trkpt lat="44.259234419081" lon="11.083950176125331"><ele>549.0</ele><time>2026-05-02T07:15:07.999Z</time></trkpt><trkpt lat="44.25917583898711" lon="11.083995980717988"><ele>549.0</ele><time>2026-05-02T07:15:09Z</time></trkpt><trkpt lat="44.25911613231458" lon="11.084034789541088"><ele>549.0</ele><time>2026-05-02T07:15:10Z</time></trkpt><trkpt lat="44.259039103832116" lon="11.084095698869316"><ele>549.0</ele><time>2026-05-02T07:15:11Z</time></trkpt><trkpt lat="44.25897067806303" lon="11.084157580514473"><ele>549.0</ele><time>2026-05-02T07:15:12Z</time></trkpt><trkpt lat="44.25890866138048" lon="11.084187779521615"><ele>549.0</ele><time>2026-05-02T07:15:13Z</time></trkpt><trkpt lat="44.25882936159234" lon="11.084213577554834"><ele>546.8333333333334</ele><time>2026-05-02T07:15:14Z</time></trkpt><trkpt lat="44.25874292416971" lon="11.084254207299768"><ele>544.6666666666666</ele><time>2026-05-02T07:15:15Z</time></trkpt><trkpt lat="44.25865876945215" lon="11.084311041486767"><ele>542.5</ele><time>2026-05-02T07:15:16Z</time></trkpt><trkpt lat="44.25858310104868" lon="11.084338000678592"><ele>540.3333333333333</ele><time>2026-05-02T07:15:17Z</time></trkpt><trkpt lat="44.25852678175888" lon="11.08437742051223"><ele>538.1666666666666</ele><time>2026-05-02T07:15:18Z</time></trkpt><trkpt lat="44.258437972690245" lon="11.084440060950218"><ele>536.0</ele><time>2026-05-02T07:15:20Z</time></trkpt><trkpt lat="44.25832479653729" lon="11.084467131173032"><ele>536.0</ele><time>2026-05-02T07:15:22Z</time></trkpt><trkpt lat="44.258250363964166" lon="11.084468365859355"><ele>536.0</ele><time>2026-05-02T07:15:23Z</time></trkpt><trkpt lat="44.25813800170521" lon="11.084480643508801"><ele>536.0</ele><time>2026-05-02T07:15:25Z</time></trkpt><trkpt lat="44.25803491642151" lon="11.084499630802098"><ele>536.0</ele><time>2026-05-02T07:15:27Z</time></trkpt><trkpt lat="44.25790404166887" lon="11.084567395654272"><ele>536.0</ele><time>2026-05-02T07:15:29Z</time></trkpt><trkpt lat="44.257817093187796" lon="11.08460122927839"><ele>534.0</ele><time>2026-05-02T07:15:30Z</time></trkpt><trkpt lat="44.257735702585144" lon="11.08461821492786"><ele>532.0</ele><time>2026-05-02T07:15:31Z</time></trkpt><trkpt lat="44.2576622023775" lon="11.084642602968508"><ele>530.0</ele><time>2026-05-02T07:15:32Z</time></trkpt><trkpt lat="44.2575778940235" lon="11.084664409888397"><ele>528.0</ele><time>2026-05-02T07:15:33Z</time></trkpt><trkpt lat="44.25751400792848" lon="11.084670124641717"><ele>526.0</ele><time>2026-05-02T07:15:34Z</time></trkpt><trkpt lat="44.2574152691" lon="11.0846399468204"><ele>524.0</ele><time>2026-05-02T07:15:36Z</time></trkpt><trkpt lat="44.25728953623105" lon="11.084657589935029"><ele>521.3333333333333</ele><time>2026-05-02T07:15:38Z</time></trkpt><trkpt lat="44.257224161586805" lon="11.08466435071768"><ele>518.6666666666666</ele><time>2026-05-02T07:15:39Z</time></trkpt><trkpt lat="44.25711497363925" lon="11.08469630417327"><ele>516.0</ele><time>2026-05-02T07:15:41Z</time></trkpt><trkpt lat="44.25702397770586" lon="11.084757916362372"><ele>513.3333333333334</ele><time>2026-05-02T07:15:43Z</time></trkpt><trkpt lat="44.25696372781552" lon="11.084723643247223"><ele>510.6666666666667</ele><time>2026-05-02T07:15:45Z</time></trkpt><trkpt lat="44.256927693728706" lon="11.084605536114774"><ele>508.0</ele><time>2026-05-02T07:15:47Z</time></trkpt><trkpt lat="44.25691346785702" lon="11.084494523409075"><ele>508.00000000000006</ele><time>2026-05-02T07:15:48Z</time></trkpt><trkpt lat="44.25690874878596" lon="11.084376421606333"><ele>508.0</ele><time>2026-05-02T07:15:49Z</time></trkpt><trkpt lat="44.25690368590878" lon="11.084264963901816"><ele>508.0</ele><time>2026-05-02T07:15:50Z</time></trkpt><trkpt lat="44.25689885367251" lon="11.084142529028021"><ele>508.0</ele><time>2026-05-02T07:15:51Z</time></trkpt><trkpt lat="44.25688886228841" lon="11.084050588267594"><ele>508.00000000000006</ele><time>2026-05-02T07:15:52Z</time></trkpt><trkpt lat="44.25688125177188" lon="11.083945617723332"><ele>508.0</ele><time>2026-05-02T07:15:54Z</time></trkpt><trkpt lat="44.25687945093088" lon="11.083792052373362"><ele>506.4</ele><time>2026-05-02T07:15:56Z</time></trkpt><trkpt lat="44.2568709273687" lon="11.083608077469307"><ele>504.79999999999995</ele><time>2026-05-02T07:15:58Z</time></trkpt><trkpt lat="44.256866991943006" lon="11.08351998389658"><ele>503.2</ele><time>2026-05-02T07:15:59Z</time></trkpt><trkpt lat="44.25686351000479" lon="11.08341398188517"><ele>501.6</ele><time>2026-05-02T07:16:00Z</time></trkpt><trkpt lat="44.25686006521817" lon="11.083311451125855"><ele>500.0</ele><time>2026-05-02T07:16:01Z</time></trkpt><trkpt lat="44.256849341061034" lon="11.083155496041588"><ele>498.49999999999994</ele><time>2026-05-02T07:16:03Z</time></trkpt><trkpt lat="44.25680494166024" lon="11.083088567732553"><ele>497.0</ele><time>2026-05-02T07:16:05Z</time></trkpt><trkpt lat="44.256737424142564" lon="11.08306427345757"><ele>495.5</ele><time>2026-05-02T07:16:06.999Z</time></trkpt><trkpt lat="44.256638759132436" lon="11.083120322204504"><ele>494.0</ele><time>2026-05-02T07:16:08.999Z</time></trkpt><trkpt lat="44.25658166222951" lon="11.08316542292886"><ele>492.49999999999994</ele><time>2026-05-02T07:16:09.999Z</time></trkpt><trkpt lat="44.25651178004719" lon="11.083202685810594"><ele>491.0</ele><time>2026-05-02T07:16:10.999Z</time></trkpt><trkpt lat="44.25644867469755" lon="11.083238019259326"><ele>489.5</ele><time>2026-05-02T07:16:11.999Z</time></trkpt><trkpt lat="44.256366601783526" lon="11.083268684598732"><ele>488.0</ele><time>2026-05-02T07:16:12.999Z</time></trkpt><trkpt lat="44.25625095147366" lon="11.083319593953943"><ele>486.5</ele><time>2026-05-02T07:16:14.999Z</time></trkpt><trkpt lat="44.2560963901556" lon="11.083354716187339"><ele>485.0</ele><time>2026-05-02T07:16:16.999Z</time></trkpt><trkpt lat="44.25600002705086" lon="11.083386377033491"><ele>484.99999999999994</ele><time>2026-05-02T07:16:17.999Z</time></trkpt><trkpt lat="44.25591914181122" lon="11.08341696071357"><ele>485.0</ele><time>2026-05-02T07:16:18.999Z</time></trkpt><trkpt lat="44.255842725830476" lon="11.08345398686084"><ele>485.0</ele><time>2026-05-02T07:16:19.999Z</time></trkpt><trkpt lat="44.255781596597394" lon="11.083499485941116"><ele>485.0</ele><time>2026-05-02T07:16:20.999Z</time></trkpt><trkpt lat="44.25572267704339" lon="11.083580070755184"><ele>484.99999999999994</ele><time>2026-05-02T07:16:21.999Z</time></trkpt><trkpt lat="44.255676655775154" lon="11.083678442126306"><ele>485.0</ele><time>2026-05-02T07:16:22.999Z</time></trkpt><trkpt lat="44.25562482927269" lon="11.08377470635325"><ele>482.3333333333333</ele><time>2026-05-02T07:16:23.999Z</time></trkpt><trkpt lat="44.25556978618999" lon="11.083876945498856"><ele>479.66666666666663</ele><time>2026-05-02T07:16:24.999Z</time></trkpt><trkpt lat="44.25550716932865" lon="11.083993252199575"><ele>477.0</ele><time>2026-05-02T07:16:25.999Z</time></trkpt><trkpt lat="44.25545387106234" lon="11.084092233628153"><ele>474.33333333333337</ele><time>2026-05-02T07:16:26.999Z</time></trkpt><trkpt lat="44.255410617926564" lon="11.084209638927934"><ele>471.6666666666667</ele><time>2026-05-02T07:16:27.999Z</time></trkpt><trkpt lat="44.25537044077544" lon="11.08428608519687"><ele>469.0</ele><time>2026-05-02T07:16:28.999Z</time></trkpt><trkpt lat="44.25527089408823" lon="11.0843564335953"><ele>469.00000000000006</ele><time>2026-05-02T07:16:30.999Z</time></trkpt><trkpt lat="44.255204537978734" lon="11.084351250732453"><ele>469.0</ele><time>2026-05-02T07:16:31.999Z</time></trkpt><trkpt lat="44.255125783330875" lon="11.084331616272753"><ele>469.0</ele><time>2026-05-02T07:16:32.999Z</time></trkpt><trkpt lat="44.255033680823175" lon="11.084297407553098"><ele>469.0</ele><time>2026-05-02T07:16:33.999Z</time></trkpt><trkpt lat="44.25493783697437" lon="11.084268464067922"><ele>469.00000000000006</ele><time>2026-05-02T07:16:34.999Z</time></trkpt><trkpt lat="44.25486118661722" lon="11.084245184947319"><ele>469.0</ele><time>2026-05-02T07:16:35.999Z</time></trkpt><trkpt lat="44.25477578195138" lon="11.0842192472763"><ele>465.0</ele><time>2026-05-02T07:16:36.999Z</time></trkpt><trkpt lat="44.2546720261595" lon="11.08418686986606"><ele>461.0</ele><time>2026-05-02T07:16:37.999Z</time></trkpt><trkpt lat="44.254569970527626" lon="11.084150324322016"><ele>457.0</ele><time>2026-05-02T07:16:38.999Z</time></trkpt><trkpt lat="44.25447551916004" lon="11.084105196435678"><ele>453.0</ele><time>2026-05-02T07:16:39.999Z</time></trkpt><trkpt lat="44.25436694021381" lon="11.084043471463954"><ele>449.0</ele><time>2026-05-02T07:16:40.999Z</time></trkpt><trkpt lat="44.2542618645905" lon="11.083983722610514"><ele>448.0</ele><time>2026-05-02T07:16:41.999Z</time></trkpt><trkpt lat="44.25415677691579" lon="11.083923966953448"><ele>447.0</ele><time>2026-05-02T07:16:42.999Z</time></trkpt><trkpt lat="44.25404939301874" lon="11.083862378133626"><ele>446.0</ele><time>2026-05-02T07:16:43.999Z</time></trkpt><trkpt lat="44.25393910851101" lon="11.083798935358447"><ele>445.0</ele><time>2026-05-02T07:16:44.999Z</time></trkpt><trkpt lat="44.25382439200348" lon="11.083732942812196"><ele>441.8</ele><time>2026-05-02T07:16:45.999Z</time></trkpt><trkpt lat="44.253708758271124" lon="11.083666422719146"><ele>438.6</ele><time>2026-05-02T07:16:46.999Z</time></trkpt><trkpt lat="44.25360372152202" lon="11.0836294894845"><ele>435.4</ele><time>2026-05-02T07:16:47.999Z</time></trkpt><trkpt lat="44.25351227315481" lon="11.08355799061608"><ele>432.2</ele><time>2026-05-02T07:16:48.999Z</time></trkpt><trkpt lat="44.253412323378726" lon="11.083503869599616"><ele>429.0</ele><time>2026-05-02T07:16:49.999Z</time></trkpt><trkpt lat="44.25332275827728" lon="11.083454447674267"><ele>429.0</ele><time>2026-05-02T07:16:50.999Z</time></trkpt><trkpt lat="44.253221908141384" lon="11.083393663926032"><ele>429.0</ele><time>2026-05-02T07:16:51.999Z</time></trkpt><trkpt lat="44.25311541720908" lon="11.083321355634496"><ele>429.0</ele><time>2026-05-02T07:16:52.999Z</time></trkpt><trkpt lat="44.253030183163176" lon="11.08323355807039"><ele>429.0</ele><time>2026-05-02T07:16:53.999Z</time></trkpt><trkpt lat="44.252952072038866" lon="11.08312446588082"><ele>429.0</ele><time>2026-05-02T07:16:54.999Z</time></trkpt><trkpt lat="44.25288797603464" lon="11.083019504675079"><ele>425.0</ele><time>2026-05-02T07:16:55.999Z</time></trkpt><trkpt lat="44.25282204593474" lon="11.082912161798378"><ele>421.0</ele><time>2026-05-02T07:16:56.999Z</time></trkpt><trkpt lat="44.25275705785908" lon="11.082807995861117"><ele>417.0</ele><time>2026-05-02T07:16:57.999Z</time></trkpt><trkpt lat="44.25269063500376" lon="11.082732441337438"><ele>413.0</ele><time>2026-05-02T07:16:58.999Z</time></trkpt><trkpt lat="44.25264463191571" lon="11.082669958382898"><ele>409.0</ele><time>2026-05-02T07:16:59.999Z</time></trkpt><trkpt lat="44.25251124794455" lon="11.082571753981219"><ele>409.0</ele><time>2026-05-02T07:17:01.999Z</time></trkpt><trkpt lat="44.25240258126887" lon="11.082487130594894"><ele>409.0</ele><time>2026-05-02T07:17:03.999Z</time></trkpt><trkpt lat="44.252340532612834" lon="11.082417201548838"><ele>409.0</ele><time>2026-05-02T07:17:04.999Z</time></trkpt><trkpt lat="44.252268816599795" lon="11.082338392234163"><ele>409.0</ele><time>2026-05-02T07:17:05.999Z</time></trkpt><trkpt lat="44.252193625550845" lon="11.082235215736306"><ele>409.0</ele><time>2026-05-02T07:17:06.999Z</time></trkpt><trkpt lat="44.2521272356077" lon="11.082097649994836"><ele>403.75</ele><time>2026-05-02T07:17:07.999Z</time></trkpt><trkpt lat="44.252053941827015" lon="11.08196926577683"><ele>398.5</ele><time>2026-05-02T07:17:08.999Z</time></trkpt><trkpt lat="44.251978798234305" lon="11.081841930771176"><ele>393.25</ele><time>2026-05-02T07:17:09.999Z</time></trkpt><trkpt lat="44.25188768946766" lon="11.081744134164959"><ele>388.0</ele><time>2026-05-02T07:17:10.999Z</time></trkpt><trkpt lat="44.25182257125839" lon="11.081627970525322"><ele>386.79999999999995</ele><time>2026-05-02T07:17:11.999Z</time></trkpt><trkpt lat="44.251748685018796" lon="11.081541810182399"><ele>385.6</ele><time>2026-05-02T07:17:12.999Z</time></trkpt><trkpt lat="44.25164346450034" lon="11.081488033502636"><ele>384.4</ele><time>2026-05-02T07:17:13.999Z</time></trkpt><trkpt lat="44.25157027317315" lon="11.081412227050082"><ele>383.20000000000005</ele><time>2026-05-02T07:17:15Z</time></trkpt><trkpt lat="44.25151007040153" lon="11.0813266327387"><ele>382.0</ele><time>2026-05-02T07:17:16Z</time></trkpt><trkpt lat="44.251461451156494" lon="11.081267245515248"><ele>379.20000000000005</ele><time>2026-05-02T07:17:17Z</time></trkpt><trkpt lat="44.2513514387857" lon="11.081205112725893"><ele>376.4</ele><time>2026-05-02T07:17:19Z</time></trkpt><trkpt lat="44.25127877815375" lon="11.081192655906664"><ele>373.6</ele><time>2026-05-02T07:17:20Z</time></trkpt><trkpt lat="44.25119679213286" lon="11.08116294522127"><ele>370.79999999999995</ele><time>2026-05-02T07:17:21Z</time></trkpt><trkpt lat="44.251102042261955" lon="11.081110771181212"><ele>368.0</ele><time>2026-05-02T07:17:22Z</time></trkpt><trkpt lat="44.25101797662754" lon="11.081041823385116"><ele>368.0</ele><time>2026-05-02T07:17:23Z</time></trkpt><trkpt lat="44.25096217772717" lon="11.080964598447428"><ele>368.0</ele><time>2026-05-02T07:17:24Z</time></trkpt><trkpt lat="44.25094306062674" lon="11.080854696120882"><ele>368.0</ele><time>2026-05-02T07:17:25Z</time></trkpt><trkpt lat="44.250934847569596" lon="11.080723958897241"><ele>368.0</ele><time>2026-05-02T07:17:26Z</time></trkpt><trkpt lat="44.25090698401238" lon="11.080593712988918"><ele>368.0</ele><time>2026-05-02T07:17:27Z</time></trkpt><trkpt lat="44.25088925289431" lon="11.080482430116247"><ele>368.0</ele><time>2026-05-02T07:17:28Z</time></trkpt><trkpt lat="44.25085742251044" lon="11.08038898317628"><ele>368.2</ele><time>2026-05-02T07:17:29Z</time></trkpt><trkpt lat="44.250746923317955" lon="11.080319272581109"><ele>368.4</ele><time>2026-05-02T07:17:31Z</time></trkpt><trkpt lat="44.25066058782459" lon="11.080372408032575"><ele>368.59999999999997</ele><time>2026-05-02T07:17:32Z</time></trkpt><trkpt lat="44.250568833832766" lon="11.08043230673477"><ele>368.79999999999995</ele><time>2026-05-02T07:17:33Z</time></trkpt><trkpt lat="44.250474994469315" lon="11.080492539992848"><ele>369.0</ele><time>2026-05-02T07:17:34Z</time></trkpt><trkpt lat="44.25039034141569" lon="11.080536649881582"><ele>366.79999999999995</ele><time>2026-05-02T07:17:35Z</time></trkpt><trkpt lat="44.25029884811477" lon="11.080561183444082"><ele>364.59999999999997</ele><time>2026-05-02T07:17:36Z</time></trkpt><trkpt lat="44.250210094085574" lon="11.080556523456409"><ele>362.4</ele><time>2026-05-02T07:17:37Z</time></trkpt><trkpt lat="44.25012166379219" lon="11.08053143023977"><ele>360.2</ele><time>2026-05-02T07:17:38Z</time></trkpt><trkpt lat="44.25002729879158" lon="11.080492522532214"><ele>358.0</ele><time>2026-05-02T07:17:39Z</time></trkpt><trkpt lat="44.24992952333751" lon="11.080440531399656"><ele>358.0</ele><time>2026-05-02T07:17:40Z</time></trkpt><trkpt lat="44.24983433683271" lon="11.080374640359665"><ele>358.0</ele><time>2026-05-02T07:17:41Z</time></trkpt><trkpt lat="44.249765838619425" lon="11.080289508580917"><ele>358.0</ele><time>2026-05-02T07:17:42Z</time></trkpt><trkpt lat="44.24970651039346" lon="11.08019190756545"><ele>358.0</ele><time>2026-05-02T07:17:43Z</time></trkpt><trkpt lat="44.249633844731214" lon="11.080098747383987"><ele>358.0</ele><time>2026-05-02T07:17:44Z</time></trkpt><trkpt lat="44.24955532521426" lon="11.080018521512116"><ele>356.66666666666663</ele><time>2026-05-02T07:17:45Z</time></trkpt><trkpt lat="44.2494957967291" lon="11.079933574711518"><ele>355.3333333333333</ele><time>2026-05-02T07:17:46Z</time></trkpt><trkpt lat="44.24946202077768" lon="11.079839402720422"><ele>354.0</ele><time>2026-05-02T07:17:47Z</time></trkpt><trkpt lat="44.24948221511831" lon="11.079723855339877"><ele>352.6666666666667</ele><time>2026-05-02T07:17:48Z</time></trkpt><trkpt lat="44.24945933416958" lon="11.0796323285335"><ele>351.33333333333337</ele><time>2026-05-02T07:17:49Z</time></trkpt><trkpt lat="44.249409881708935" lon="11.079544021683219"><ele>350.0</ele><time>2026-05-02T07:17:50Z</time></trkpt><trkpt lat="44.249358361738075" lon="11.079463176490725"><ele>350.0</ele><time>2026-05-02T07:17:51Z</time></trkpt><trkpt lat="44.249283252345094" lon="11.079365043885575"><ele>350.0</ele><time>2026-05-02T07:17:53Z</time></trkpt><trkpt lat="44.249160007259064" lon="11.079313866112303"><ele>350.0</ele><time>2026-05-02T07:17:55Z</time></trkpt><trkpt lat="44.24905965695137" lon="11.079393367630503"><ele>350.0</ele><time>2026-05-02T07:17:56Z</time></trkpt><trkpt lat="44.24898439585909" lon="11.079408960837135"><ele>350.0</ele><time>2026-05-02T07:17:57Z</time></trkpt><trkpt lat="44.248907234215274" lon="11.079425542991904"><ele>347.4</ele><time>2026-05-02T07:17:58Z</time></trkpt><trkpt lat="44.24882290617392" lon="11.07944318143132"><ele>344.8</ele><time>2026-05-02T07:17:59Z</time></trkpt><trkpt lat="44.24872733482006" lon="11.07944988090381"><ele>342.20000000000005</ele><time>2026-05-02T07:18:00Z</time></trkpt><trkpt lat="44.24863828149411" lon="11.079466772656895"><ele>339.6</ele><time>2026-05-02T07:18:01Z</time></trkpt><trkpt lat="44.248548556105284" lon="11.07949381649476"><ele>337.0</ele><time>2026-05-02T07:18:02Z</time></trkpt><trkpt lat="44.24844417945034" lon="11.079532246095033"><ele>337.0</ele><time>2026-05-02T07:18:03Z</time></trkpt><trkpt lat="44.24833739499715" lon="11.079574884518765"><ele>337.0</ele><time>2026-05-02T07:18:04Z</time></trkpt><trkpt lat="44.24823602247107" lon="11.079619961255343"><ele>337.0</ele><time>2026-05-02T07:18:05Z</time></trkpt><trkpt lat="44.24812222523471" lon="11.079675736597997"><ele>337.0</ele><time>2026-05-02T07:18:05.999Z</time></trkpt><trkpt lat="44.248019149615956" lon="11.079733968248245"><ele>337.0</ele><time>2026-05-02T07:18:06.999Z</time></trkpt><trkpt lat="44.24791700869883" lon="11.079794041570361"><ele>334.0</ele><time>2026-05-02T07:18:07.999Z</time></trkpt><trkpt lat="44.24780658026396" lon="11.07984847124246"><ele>331.0</ele><time>2026-05-02T07:18:08.999Z</time></trkpt><trkpt lat="44.24771024379704" lon="11.0798875347513"><ele>328.0</ele><time>2026-05-02T07:18:09.999Z</time></trkpt><trkpt lat="44.24760026528086" lon="11.07993056540392"><ele>325.0</ele><time>2026-05-02T07:18:10.999Z</time></trkpt><trkpt lat="44.24749003449293" lon="11.079975733407181"><ele>322.0</ele><time>2026-05-02T07:18:11.999Z</time></trkpt><trkpt lat="44.247375848836185" lon="11.080026367209552"><ele>319.40000000000003</ele><time>2026-05-02T07:18:12.999Z</time></trkpt><trkpt lat="44.247263900441354" lon="11.080093168642048"><ele>316.8</ele><time>2026-05-02T07:18:13.999Z</time></trkpt><trkpt lat="44.247165622106756" lon="11.080145250515521"><ele>314.2</ele><time>2026-05-02T07:18:14.999Z</time></trkpt><trkpt lat="44.24707438065839" lon="11.080156402248942"><ele>311.6</ele><time>2026-05-02T07:18:15.999Z</time></trkpt><trkpt lat="44.24696317719761" lon="11.080148163042328"><ele>309.0</ele><time>2026-05-02T07:18:16.999Z</time></trkpt><trkpt lat="44.246850196549424" lon="11.080157260649065"><ele>309.0</ele><time>2026-05-02T07:18:17.999Z</time></trkpt><trkpt lat="44.24672971278598" lon="11.08016878551183"><ele>309.0</ele><time>2026-05-02T07:18:18.999Z</time></trkpt><trkpt lat="44.24659774642616" lon="11.080181408710494"><ele>309.0</ele><time>2026-05-02T07:18:19.999Z</time></trkpt><trkpt lat="44.24647467074533" lon="11.080197248277464"><ele>309.0</ele><time>2026-05-02T07:18:20.999Z</time></trkpt><trkpt lat="44.246354985208896" lon="11.080196884321053"><ele>306.25</ele><time>2026-05-02T07:18:21.999Z</time></trkpt><trkpt lat="44.2462299463701" lon="11.080177763244977"><ele>303.5</ele><time>2026-05-02T07:18:22.999Z</time></trkpt><trkpt lat="44.24610806839721" lon="11.080165990623772"><ele>300.75</ele><time>2026-05-02T07:18:23.999Z</time></trkpt><trkpt lat="44.245982922776456" lon="11.08016420731665"><ele>298.0</ele><time>2026-05-02T07:18:24.999Z</time></trkpt><trkpt lat="44.24585675566575" lon="11.080181580146608"><ele>298.0</ele><time>2026-05-02T07:18:25.999Z</time></trkpt><trkpt lat="44.245744331351574" lon="11.080218406661317"><ele>298.0</ele><time>2026-05-02T07:18:26.999Z</time></trkpt><trkpt lat="44.24561562854978" lon="11.08029969639577"><ele>298.0</ele><time>2026-05-02T07:18:27.999Z</time></trkpt><trkpt lat="44.24551091183893" lon="11.080388779501787"><ele>298.0</ele><time>2026-05-02T07:18:28.999Z</time></trkpt><trkpt lat="44.24541619585397" lon="11.080457654209804"><ele>296.6</ele><time>2026-05-02T07:18:29.999Z</time></trkpt><trkpt lat="44.245341201543845" lon="11.08048127808964"><ele>295.20000000000005</ele><time>2026-05-02T07:18:30.999Z</time></trkpt><trkpt lat="44.24526528973584" lon="11.080490673575552"><ele>293.8</ele><time>2026-05-02T07:18:31.999Z</time></trkpt><trkpt lat="44.245142012089225" lon="11.080494860940616"><ele>292.40000000000003</ele><time>2026-05-02T07:18:32.999Z</time></trkpt><trkpt lat="44.24504669772375" lon="11.080500451196142"><ele>291.0</ele><time>2026-05-02T07:18:33.999Z</time></trkpt><trkpt lat="44.244957770422126" lon="11.080520074710142"><ele>291.0</ele><time>2026-05-02T07:18:34.999Z</time></trkpt><trkpt lat="44.244860331812085" lon="11.080593209135275"><ele>291.0</ele><time>2026-05-02T07:18:35.999Z</time></trkpt><trkpt lat="44.244761428566036" lon="11.080629004929119"><ele>291.0</ele><time>2026-05-02T07:18:36.999Z</time></trkpt><trkpt lat="44.244662559497044" lon="11.080685090596573"><ele>291.0</ele><time>2026-05-02T07:18:37.999Z</time></trkpt><trkpt lat="44.24456984023844" lon="11.080742948303694"><ele>291.0</ele><time>2026-05-02T07:18:38.999Z</time></trkpt><trkpt lat="44.2444688696646" lon="11.080809492144551"><ele>287.5</ele><time>2026-05-02T07:18:39.999Z</time></trkpt><trkpt lat="44.244351348293186" lon="11.080895167695088"><ele>284.0</ele><time>2026-05-02T07:18:40.999Z</time></trkpt><trkpt lat="44.24423246268777" lon="11.081015540043778"><ele>280.5</ele><time>2026-05-02T07:18:41.999Z</time></trkpt><trkpt lat="44.24413558364725" lon="11.081096484138445"><ele>277.0</ele><time>2026-05-02T07:18:42.999Z</time></trkpt><trkpt lat="44.24404137343203" lon="11.0811937968807"><ele>273.8</ele><time>2026-05-02T07:18:43.999Z</time></trkpt><trkpt lat="44.243962851913956" lon="11.081267117466648"><ele>270.6</ele><time>2026-05-02T07:18:44.999Z</time></trkpt><trkpt lat="44.243859328837985" lon="11.081355028401651"><ele>267.40000000000003</ele><time>2026-05-02T07:18:45.999Z</time></trkpt><trkpt lat="44.24378024236513" lon="11.081445634283165"><ele>264.2</ele><time>2026-05-02T07:18:46.999Z</time></trkpt><trkpt lat="44.24369351260914" lon="11.081545528308354"><ele>261.0</ele><time>2026-05-02T07:18:47.999Z</time></trkpt><trkpt lat="44.24360530024933" lon="11.081635780800102"><ele>261.0</ele><time>2026-05-02T07:18:48.999Z</time></trkpt><trkpt lat="44.24350911031621" lon="11.081738660483982"><ele>261.0</ele><time>2026-05-02T07:18:49.999Z</time></trkpt><trkpt lat="44.24341924457412" lon="11.081838961175269"><ele>261.0</ele><time>2026-05-02T07:18:50.999Z</time></trkpt><trkpt lat="44.24332484520816" lon="11.081933290561757"><ele>261.0</ele><time>2026-05-02T07:18:51.999Z</time></trkpt><trkpt lat="44.243233456909984" lon="11.082035084179347"><ele>261.0</ele><time>2026-05-02T07:18:52.999Z</time></trkpt><trkpt lat="44.24314230626465" lon="11.082136727778675"><ele>261.0</ele><time>2026-05-02T07:18:53.999Z</time></trkpt><trkpt lat="44.24302816546285" lon="11.082261579322868"><ele>261.0</ele><time>2026-05-02T07:18:54.999Z</time></trkpt><trkpt lat="44.24293430254826" lon="11.082377510146989"><ele>261.0</ele><time>2026-05-02T07:18:55.999Z</time></trkpt><trkpt lat="44.24283826271554" lon="11.082483831610928"><ele>257.6</ele><time>2026-05-02T07:18:56.999Z</time></trkpt><trkpt lat="44.242757492505476" lon="11.08257651892505"><ele>254.20000000000002</ele><time>2026-05-02T07:18:57.999Z</time></trkpt><trkpt lat="44.24267866004041" lon="11.082665312015793"><ele>250.79999999999998</ele><time>2026-05-02T07:18:58.999Z</time></trkpt><trkpt lat="44.242622677701895" lon="11.08273303665846"><ele>247.39999999999998</ele><time>2026-05-02T07:18:59.999Z</time></trkpt><trkpt lat="44.242543454728995" lon="11.082769874408337"><ele>244.0</ele><time>2026-05-02T07:19:01.999Z</time></trkpt><trkpt lat="44.24247152983391" lon="11.082641076503798"><ele>243.99999999999997</ele><time>2026-05-02T07:19:03.999Z</time></trkpt><trkpt lat="44.24245487824578" lon="11.082553020335112"><ele>244.0</ele><time>2026-05-02T07:19:04.999Z</time></trkpt><trkpt lat="44.2424390751467" lon="11.082448733672665"><ele>244.0</ele><time>2026-05-02T07:19:05.999Z</time></trkpt><trkpt lat="44.242425618430126" lon="11.082317131299348"><ele>244.0</ele><time>2026-05-02T07:19:06.999Z</time></trkpt><trkpt lat="44.24241770049525" lon="11.082193331026783"><ele>243.99999999999997</ele><time>2026-05-02T07:19:07.999Z</time></trkpt><trkpt lat="44.24240941099987" lon="11.082084205112789"><ele>244.0</ele><time>2026-05-02T07:19:08.999Z</time></trkpt><trkpt lat="44.242396817512315" lon="11.081992593409089"><ele>243.2</ele><time>2026-05-02T07:19:09.999Z</time></trkpt><trkpt lat="44.242375670024835" lon="11.081855294852389"><ele>242.39999999999998</ele><time>2026-05-02T07:19:11.999Z</time></trkpt><trkpt lat="44.242358288803466" lon="11.081741626408006"><ele>241.6</ele><time>2026-05-02T07:19:13.999Z</time></trkpt><trkpt lat="44.24233798968873" lon="11.08165155759874"><ele>240.8</ele><time>2026-05-02T07:19:14.999Z</time></trkpt><trkpt lat="44.242386257146336" lon="11.081532871453858"><ele>240.0</ele><time>2026-05-02T07:19:15.999Z</time></trkpt><trkpt lat="44.24241821515329" lon="11.081377904902798"><ele>238.5</ele><time>2026-05-02T07:19:16.999Z</time></trkpt><trkpt lat="44.242464815875124" lon="11.08119998529029"><ele>237.0</ele><time>2026-05-02T07:19:17.999Z</time></trkpt><trkpt lat="44.24250441898571" lon="11.08101637708392"><ele>235.5</ele><time>2026-05-02T07:19:18.999Z</time></trkpt><trkpt lat="44.24256748600098" lon="11.080831932740882"><ele>234.0</ele><time>2026-05-02T07:19:19.999Z</time></trkpt><trkpt lat="44.2426304534784" lon="11.080630520680419"><ele>232.0</ele><time>2026-05-02T07:19:21Z</time></trkpt><trkpt lat="44.24266752076604" lon="11.08039972575273"><ele>230.0</ele><time>2026-05-02T07:19:22Z</time></trkpt><trkpt lat="44.24268648304422" lon="11.080163681369267"><ele>228.0</ele><time>2026-05-02T07:19:23Z</time></trkpt><trkpt lat="44.242705806982485" lon="11.079924088423555"><ele>227.33333333333331</ele><time>2026-05-02T07:19:24Z</time></trkpt><trkpt lat="44.24273534154028" lon="11.07968861405399"><ele>226.66666666666666</ele><time>2026-05-02T07:19:25Z</time></trkpt><trkpt lat="44.24278257693994" lon="11.079448179030432"><ele>226.0</ele><time>2026-05-02T07:19:26Z</time></trkpt><trkpt lat="44.242865882933316" lon="11.079261806750427"><ele>226.0</ele><time>2026-05-02T07:19:27Z</time></trkpt><trkpt lat="44.24295404519147" lon="11.079072185240243"><ele>226.0</ele><time>2026-05-02T07:19:28Z</time></trkpt><trkpt lat="44.24302808321147" lon="11.078899180280805"><ele>226.0</ele><time>2026-05-02T07:19:29Z</time></trkpt><trkpt lat="44.243088123052175" lon="11.078739106255238"><ele>226.0</ele><time>2026-05-02T07:19:30Z</time></trkpt><trkpt lat="44.24312180832772" lon="11.078543440502186"><ele>226.0</ele><time>2026-05-02T07:19:31Z</time></trkpt><trkpt lat="44.24312160251342" lon="11.078344191925092"><ele>226.0</ele><time>2026-05-02T07:19:32Z</time></trkpt><trkpt lat="44.24310249179232" lon="11.078174195616302"><ele>226.0</ele><time>2026-05-02T07:19:33Z</time></trkpt><trkpt lat="44.243103771730915" lon="11.07798558160081"><ele>226.0</ele><time>2026-05-02T07:19:34Z</time></trkpt><trkpt lat="44.243085589166974" lon="11.07779417810421"><ele>226.5</ele><time>2026-05-02T07:19:35Z</time></trkpt><trkpt lat="44.2430513329709" lon="11.077599939013943"><ele>227.0</ele><time>2026-05-02T07:19:36Z</time></trkpt><trkpt lat="44.2430350845469" lon="11.07740357087559"><ele>227.5</ele><time>2026-05-02T07:19:37Z</time></trkpt><trkpt lat="44.24300661533484" lon="11.07722795438702"><ele>228.0</ele><time>2026-05-02T07:19:38Z</time></trkpt><trkpt lat="44.24296830965776" lon="11.077075998767762"><ele>229.0</ele><time>2026-05-02T07:19:39Z</time></trkpt><trkpt lat="44.24289984567802" lon="11.076936415075368"><ele>230.0</ele><time>2026-05-02T07:19:40Z</time></trkpt><trkpt lat="44.24283975027851" lon="11.076773678165754"><ele>231.0</ele><time>2026-05-02T07:19:41Z</time></trkpt><trkpt lat="44.24276681963318" lon="11.07661371380955"><ele>232.0</ele><time>2026-05-02T07:19:42Z</time></trkpt><trkpt lat="44.242682577462276" lon="11.07644939755524"><ele>232.75</ele><time>2026-05-02T07:19:43Z</time></trkpt><trkpt lat="44.242610648714646" lon="11.076275600064662"><ele>233.5</ele><time>2026-05-02T07:19:44Z</time></trkpt><trkpt lat="44.242591315561995" lon="11.076090579910264"><ele>234.25</ele><time>2026-05-02T07:19:45Z</time></trkpt><trkpt lat="44.24259504564555" lon="11.075904052685573"><ele>235.0</ele><time>2026-05-02T07:19:46Z</time></trkpt><trkpt lat="44.24260341167608" lon="11.075712815376965"><ele>235.5</ele><time>2026-05-02T07:19:47Z</time></trkpt><trkpt lat="44.24263644901051" lon="11.075495483475578"><ele>236.0</ele><time>2026-05-02T07:19:48Z</time></trkpt><trkpt lat="44.24265090646149" lon="11.075295524896612"><ele>236.5</ele><time>2026-05-02T07:19:49Z</time></trkpt><trkpt lat="44.24263596940501" lon="11.075104440639295"><ele>237.0</ele><time>2026-05-02T07:19:50Z</time></trkpt><trkpt lat="44.24260833058059" lon="11.074909172016485"><ele>239.66666666666669</ele><time>2026-05-02T07:19:51Z</time></trkpt><trkpt lat="44.2425305569248" lon="11.074724709693633"><ele>242.33333333333334</ele><time>2026-05-02T07:19:52Z</time></trkpt><trkpt lat="44.24241730854907" lon="11.074569016281314"><ele>245.0</ele><time>2026-05-02T07:19:53Z</time></trkpt><trkpt lat="44.24230651658914" lon="11.07442554803735"><ele>241.66666666666669</ele><time>2026-05-02T07:19:54Z</time></trkpt><trkpt lat="44.24219742137616" lon="11.074287748602186"><ele>238.33333333333331</ele><time>2026-05-02T07:19:55Z</time></trkpt><trkpt lat="44.24208663945733" lon="11.074150250702504"><ele>235.0</ele><time>2026-05-02T07:19:56Z</time></trkpt><trkpt lat="44.24196695972753" lon="11.07400396851318"><ele>235.0</ele><time>2026-05-02T07:19:57Z</time></trkpt><trkpt lat="44.24185216587431" lon="11.073855047420118"><ele>235.0</ele><time>2026-05-02T07:19:58Z</time></trkpt><trkpt lat="44.24174117658485" lon="11.073708075589337"><ele>235.0</ele><time>2026-05-02T07:19:59Z</time></trkpt><trkpt lat="44.24160379829583" lon="11.073575482962394"><ele>235.0</ele><time>2026-05-02T07:20:00Z</time></trkpt><trkpt lat="44.241471834686465" lon="11.073443378061455"><ele>235.0</ele><time>2026-05-02T07:20:01Z</time></trkpt><trkpt lat="44.241339310419335" lon="11.073321596399257"><ele>235.0</ele><time>2026-05-02T07:20:02Z</time></trkpt><trkpt lat="44.241189969371256" lon="11.073192280864008"><ele>234.66666666666666</ele><time>2026-05-02T07:20:03Z</time></trkpt><trkpt lat="44.241067961478166" lon="11.073025927102304"><ele>234.33333333333331</ele><time>2026-05-02T07:20:04Z</time></trkpt><trkpt lat="44.24092253652953" lon="11.072876548952193"><ele>234.0</ele><time>2026-05-02T07:20:05Z</time></trkpt><trkpt lat="44.240801868228324" lon="11.072687343567637"><ele>234.0</ele><time>2026-05-02T07:20:06Z</time></trkpt><trkpt lat="44.24072139532848" lon="11.07249501725767"><ele>234.0</ele><time>2026-05-02T07:20:07Z</time></trkpt><trkpt lat="44.2406434843704" lon="11.072294327542005"><ele>234.0</ele><time>2026-05-02T07:20:08Z</time></trkpt><trkpt lat="44.24057134494171" lon="11.072104882172853"><ele>234.66666666666669</ele><time>2026-05-02T07:20:09Z</time></trkpt><trkpt lat="44.240482083789416" lon="11.071930222326811"><ele>235.33333333333334</ele><time>2026-05-02T07:20:09.999Z</time></trkpt><trkpt lat="44.24035882123059" lon="11.071777667366664"><ele>236.0</ele><time>2026-05-02T07:20:10.999Z</time></trkpt><trkpt lat="44.240220486982125" lon="11.071668303324875"><ele>236.0</ele><time>2026-05-02T07:20:11.999Z</time></trkpt><trkpt lat="44.240066621384045" lon="11.071595733887373"><ele>236.0</ele><time>2026-05-02T07:20:12.999Z</time></trkpt><trkpt lat="44.239896955962365" lon="11.071562822981644"><ele>236.0</ele><time>2026-05-02T07:20:13.999Z</time></trkpt><trkpt lat="44.23971374844794" lon="11.071627589245328"><ele>236.0</ele><time>2026-05-02T07:20:14.999Z</time></trkpt><trkpt lat="44.239511001003486" lon="11.071672636449982"><ele>236.0</ele><time>2026-05-02T07:20:15.999Z</time></trkpt><trkpt lat="44.2393147002523" lon="11.071738581641206"><ele>236.0</ele><time>2026-05-02T07:20:16.999Z</time></trkpt><trkpt lat="44.2391237368611" lon="11.071794185796353"><ele>236.0</ele><time>2026-05-02T07:20:17.999Z</time></trkpt><trkpt lat="44.238968888072456" lon="11.071813627751496"><ele>236.0</ele><time>2026-05-02T07:20:18.999Z</time></trkpt><trkpt lat="44.23884773330354" lon="11.071757927688006"><ele>236.0</ele><time>2026-05-02T07:20:19.999Z</time></trkpt><trkpt lat="44.23873006104118" lon="11.071666729387529"><ele>236.0</ele><time>2026-05-02T07:20:20.999Z</time></trkpt><trkpt lat="44.2386165774357" lon="11.071520130605595"><ele>238.0</ele><time>2026-05-02T07:20:21.999Z</time></trkpt><trkpt lat="44.23853443534826" lon="11.071324842889474"><ele>240.0</ele><time>2026-05-02T07:20:22.999Z</time></trkpt><trkpt lat="44.238448659465774" lon="11.071124356786337"><ele>242.0</ele><time>2026-05-02T07:20:23.999Z</time></trkpt><trkpt lat="44.2383533958492" lon="11.070934528082711"><ele>243.33333333333334</ele><time>2026-05-02T07:20:24.999Z</time></trkpt><trkpt lat="44.23826774128049" lon="11.070694683931942"><ele>244.66666666666669</ele><time>2026-05-02T07:20:25.999Z</time></trkpt><trkpt lat="44.23817065349831" lon="11.070463872685846"><ele>246.0</ele><time>2026-05-02T07:20:26.999Z</time></trkpt><trkpt lat="44.23808437976454" lon="11.070259260190259"><ele>247.0</ele><time>2026-05-02T07:20:27.999Z</time></trkpt><trkpt lat="44.238002752099085" lon="11.070120971536284"><ele>248.0</ele><time>2026-05-02T07:20:28.999Z</time></trkpt><trkpt lat="44.23790303815567" lon="11.070041484487142"><ele>249.0</ele><time>2026-05-02T07:20:29.999Z</time></trkpt><trkpt lat="44.23776728894247" lon="11.07004968932401"><ele>250.0</ele><time>2026-05-02T07:20:30.999Z</time></trkpt><trkpt lat="44.23763229367154" lon="11.070095362663313"><ele>250.0</ele><time>2026-05-02T07:20:31.999Z</time></trkpt><trkpt lat="44.23749609704614" lon="11.070164564895412"><ele>250.0</ele><time>2026-05-02T07:20:32.999Z</time></trkpt><trkpt lat="44.23735193246641" lon="11.070163742867486"><ele>250.0</ele><time>2026-05-02T07:20:33.999Z</time></trkpt><trkpt lat="44.2371921667449" lon="11.070103480972458"><ele>251.0</ele><time>2026-05-02T07:20:34.999Z</time></trkpt><trkpt lat="44.237029094566374" lon="11.070034988197492"><ele>252.0</ele><time>2026-05-02T07:20:35.999Z</time></trkpt><trkpt lat="44.23685313623019" lon="11.0699480872567"><ele>253.0</ele><time>2026-05-02T07:20:36.999Z</time></trkpt><trkpt lat="44.236674142254294" lon="11.069853520285506"><ele>259.3333333333333</ele><time>2026-05-02T07:20:37.999Z</time></trkpt><trkpt lat="44.236494789859215" lon="11.06975876395696"><ele>265.6666666666667</ele><time>2026-05-02T07:20:38.999Z</time></trkpt><trkpt lat="44.23629162986787" lon="11.069693241267776"><ele>272.0</ele><time>2026-05-02T07:20:39.999Z</time></trkpt><trkpt lat="44.236086472604356" lon="11.069651059746034"><ele>272.0</ele><time>2026-05-02T07:20:40.999Z</time></trkpt><trkpt lat="44.235859040435784" lon="11.069635503501573"><ele>272.0</ele><time>2026-05-02T07:20:41.999Z</time></trkpt><trkpt lat="44.23563650915623" lon="11.06959638903043"><ele>271.0</ele><time>2026-05-02T07:20:42.999Z</time></trkpt><trkpt lat="44.23541671662848" lon="11.06956138043521"><ele>270.0</ele><time>2026-05-02T07:20:43.999Z</time></trkpt><trkpt lat="44.235194388050054" lon="11.069556158597603"><ele>269.0</ele><time>2026-05-02T07:20:44.999Z</time></trkpt><trkpt lat="44.23497332708285" lon="11.069518857076815"><ele>267.0</ele><time>2026-05-02T07:20:45.999Z</time></trkpt><trkpt lat="44.23476550599033" lon="11.06947944922487"><ele>265.0</ele><time>2026-05-02T07:20:46.999Z</time></trkpt><trkpt lat="44.234586728844505" lon="11.069421110106735"><ele>263.0</ele><time>2026-05-02T07:20:47.999Z</time></trkpt><trkpt lat="44.23442599644725" lon="11.069349076449058"><ele>263.0</ele><time>2026-05-02T07:20:48.999Z</time></trkpt><trkpt lat="44.23426183609699" lon="11.069296428247005"><ele>263.0</ele><time>2026-05-02T07:20:49.999Z</time></trkpt><trkpt lat="44.23412259595242" lon="11.069222189290155"><ele>263.0</ele><time>2026-05-02T07:20:50.999Z</time></trkpt><trkpt lat="44.23400959336547" lon="11.069148811023672"><ele>263.0</ele><time>2026-05-02T07:20:51.999Z</time></trkpt><trkpt lat="44.233928368693206" lon="11.069047881517205"><ele>264.2</ele><time>2026-05-02T07:20:52.999Z</time></trkpt><trkpt lat="44.23387150315832" lon="11.068934368194551"><ele>265.4</ele><time>2026-05-02T07:20:53.999Z</time></trkpt><trkpt lat="44.23384660252411" lon="11.068801539840138"><ele>266.59999999999997</ele><time>2026-05-02T07:20:54.999Z</time></trkpt><trkpt lat="44.233848276215056" lon="11.06865478816432"><ele>267.8</ele><time>2026-05-02T07:20:55.999Z</time></trkpt><trkpt lat="44.23383080071808" lon="11.068487344224787"><ele>269.0</ele><time>2026-05-02T07:20:56.999Z</time></trkpt><trkpt lat="44.233758970950404" lon="11.068337830074276"><ele>274.25</ele><time>2026-05-02T07:20:57.999Z</time></trkpt><trkpt lat="44.23364807134589" lon="11.068240496895555"><ele>279.5</ele><time>2026-05-02T07:20:58.999Z</time></trkpt><trkpt lat="44.233507548346246" lon="11.068171181877485"><ele>284.75</ele><time>2026-05-02T07:20:59.999Z</time></trkpt><trkpt lat="44.233360392499954" lon="11.068102027984017"><ele>290.0</ele><time>2026-05-02T07:21:00.999Z</time></trkpt><trkpt lat="44.23319631988404" lon="11.068103789562755"><ele>283.75</ele><time>2026-05-02T07:21:01.999Z</time></trkpt><trkpt lat="44.23306231542224" lon="11.068065984872126"><ele>277.5</ele><time>2026-05-02T07:21:02.999Z</time></trkpt><trkpt lat="44.232961865796696" lon="11.068000443068891"><ele>271.25</ele><time>2026-05-02T07:21:03.999Z</time></trkpt><trkpt lat="44.232896795109845" lon="11.06789229068605"><ele>265.0</ele><time>2026-05-02T07:21:04.999Z</time></trkpt><trkpt lat="44.23278961481785" lon="11.067775872925907"><ele>265.0</ele><time>2026-05-02T07:21:05.999Z</time></trkpt><trkpt lat="44.23271825509937" lon="11.067598778872808"><ele>265.0</ele><time>2026-05-02T07:21:06.999Z</time></trkpt><trkpt lat="44.23263574281765" lon="11.067413674660251"><ele>265.0</ele><time>2026-05-02T07:21:07.999Z</time></trkpt><trkpt lat="44.232542957462215" lon="11.067223341648248"><ele>263.0</ele><time>2026-05-02T07:21:08.999Z</time></trkpt><trkpt lat="44.232447050446645" lon="11.067036604513453"><ele>261.0</ele><time>2026-05-02T07:21:09.999Z</time></trkpt><trkpt lat="44.232360899955644" lon="11.066852548322425"><ele>259.0</ele><time>2026-05-02T07:21:10.999Z</time></trkpt><trkpt lat="44.23228388462016" lon="11.066692278739184"><ele>259.5</ele><time>2026-05-02T07:21:11.999Z</time></trkpt><trkpt lat="44.232221439136644" lon="11.066557238628072"><ele>260.0</ele><time>2026-05-02T07:21:12.999Z</time></trkpt><trkpt lat="44.23215858016202" lon="11.066412882139424"><ele>260.5</ele><time>2026-05-02T07:21:13.999Z</time></trkpt><trkpt lat="44.232091437748664" lon="11.066246053555533"><ele>261.0</ele><time>2026-05-02T07:21:14.999Z</time></trkpt><trkpt lat="44.232022231961004" lon="11.066075722156555"><ele>261.0</ele><time>2026-05-02T07:21:15.999Z</time></trkpt><trkpt lat="44.231945719625294" lon="11.065896930286753"><ele>261.0</ele><time>2026-05-02T07:21:16.999Z</time></trkpt><trkpt lat="44.23186663634745" lon="11.06572044676357"><ele>261.0</ele><time>2026-05-02T07:21:17.999Z</time></trkpt><trkpt lat="44.23178638242681" lon="11.065542824434806"><ele>261.0</ele><time>2026-05-02T07:21:18.999Z</time></trkpt><trkpt lat="44.231706301971705" lon="11.06535586730993"><ele>262.0</ele><time>2026-05-02T07:21:19.999Z</time></trkpt><trkpt lat="44.231625345317276" lon="11.065157002169036"><ele>263.0</ele><time>2026-05-02T07:21:20.999Z</time></trkpt><trkpt lat="44.231545573109194" lon="11.064980881034039"><ele>264.0</ele><time>2026-05-02T07:21:21.999Z</time></trkpt><trkpt lat="44.23146352977763" lon="11.064799543882128"><ele>264.0</ele><time>2026-05-02T07:21:22.999Z</time></trkpt><trkpt lat="44.23138889429272" lon="11.064626100489448"><ele>264.0</ele><time>2026-05-02T07:21:23.999Z</time></trkpt><trkpt lat="44.231307104049016" lon="11.064460935196845"><ele>264.0</ele><time>2026-05-02T07:21:24.999Z</time></trkpt><trkpt lat="44.23120204100643" lon="11.06429108063541"><ele>264.0</ele><time>2026-05-02T07:21:25.999Z</time></trkpt><trkpt lat="44.231087657241986" lon="11.064158788316293"><ele>264.0</ele><time>2026-05-02T07:21:27Z</time></trkpt><trkpt lat="44.23095385532999" lon="11.064042085812197"><ele>264.0</ele><time>2026-05-02T07:21:28Z</time></trkpt><trkpt lat="44.230812350615544" lon="11.063939784143981"><ele>264.3333333333333</ele><time>2026-05-02T07:21:29Z</time></trkpt><trkpt lat="44.23067187641123" lon="11.063850191561917"><ele>264.66666666666663</ele><time>2026-05-02T07:21:30Z</time></trkpt><trkpt lat="44.230524222698484" lon="11.063758369173724"><ele>265.0</ele><time>2026-05-02T07:21:31Z</time></trkpt><trkpt lat="44.230371842042814" lon="11.063703728192069"><ele>265.0</ele><time>2026-05-02T07:21:32Z</time></trkpt><trkpt lat="44.230247621768385" lon="11.063623438623022"><ele>265.0</ele><time>2026-05-02T07:21:33Z</time></trkpt><trkpt lat="44.230146720774215" lon="11.063519269785393"><ele>265.0</ele><time>2026-05-02T07:21:34Z</time></trkpt><trkpt lat="44.23007413930712" lon="11.063377708130837"><ele>265.0</ele><time>2026-05-02T07:21:35Z</time></trkpt><trkpt lat="44.230029313468094" lon="11.063210924452411"><ele>268.25</ele><time>2026-05-02T07:21:36Z</time></trkpt><trkpt lat="44.22998205436332" lon="11.0630442988598"><ele>271.5</ele><time>2026-05-02T07:21:37Z</time></trkpt><trkpt lat="44.22991402201025" lon="11.062847747241124"><ele>274.75</ele><time>2026-05-02T07:21:38Z</time></trkpt><trkpt lat="44.22980083168523" lon="11.062683025004853"><ele>278.0</ele><time>2026-05-02T07:21:39Z</time></trkpt><trkpt lat="44.229703704810326" lon="11.062491613871854"><ele>271.5</ele><time>2026-05-02T07:21:40Z</time></trkpt><trkpt lat="44.229637459463135" lon="11.062302688295999"><ele>265.0</ele><time>2026-05-02T07:21:41Z</time></trkpt><trkpt lat="44.22958067376649" lon="11.062119426543727"><ele>258.5</ele><time>2026-05-02T07:21:42Z</time></trkpt><trkpt lat="44.229538711335664" lon="11.061966203595723"><ele>252.0</ele><time>2026-05-02T07:21:43Z</time></trkpt><trkpt lat="44.22950884773354" lon="11.061828016837724"><ele>252.0</ele><time>2026-05-02T07:21:44Z</time></trkpt><trkpt lat="44.22950147652032" lon="11.061696572787971"><ele>252.0</ele><time>2026-05-02T07:21:45Z</time></trkpt><trkpt lat="44.229554232213076" lon="11.061562220211652"><ele>252.0</ele><time>2026-05-02T07:21:46Z</time></trkpt><trkpt lat="44.229636876333075" lon="11.061448149032948"><ele>252.0</ele><time>2026-05-02T07:21:47Z</time></trkpt><trkpt lat="44.22974192083335" lon="11.061335888921953"><ele>253.75</ele><time>2026-05-02T07:21:48Z</time></trkpt><trkpt lat="44.22984643387504" lon="11.061211170714655"><ele>255.5</ele><time>2026-05-02T07:21:49Z</time></trkpt><trkpt lat="44.22993235616189" lon="11.061076809275992"><ele>257.25</ele><time>2026-05-02T07:21:50Z</time></trkpt><trkpt lat="44.2300148815893" lon="11.060928450008285"><ele>259.0</ele><time>2026-05-02T07:21:51Z</time></trkpt><trkpt lat="44.23007799385405" lon="11.060767295224146"><ele>259.0</ele><time>2026-05-02T07:21:52Z</time></trkpt><trkpt lat="44.23010355095931" lon="11.060570801491284"><ele>259.0</ele><time>2026-05-02T07:21:53Z</time></trkpt><trkpt lat="44.23010325430254" lon="11.06036172960117"><ele>259.0</ele><time>2026-05-02T07:21:54Z</time></trkpt><trkpt lat="44.23008454216999" lon="11.060185341996428"><ele>259.0</ele><time>2026-05-02T07:21:55Z</time></trkpt><trkpt lat="44.23008708271141" lon="11.060022289553126"><ele>258.16666666666663</ele><time>2026-05-02T07:21:56Z</time></trkpt><trkpt lat="44.23006737644444" lon="11.059888057071769"><ele>257.3333333333333</ele><time>2026-05-02T07:21:57Z</time></trkpt><trkpt lat="44.230064394561765" lon="11.059752354891268"><ele>256.5</ele><time>2026-05-02T07:21:58Z</time></trkpt><trkpt lat="44.23005878726269" lon="11.059633638687384"><ele>255.66666666666669</ele><time>2026-05-02T07:21:59Z</time></trkpt><trkpt lat="44.23006732838093" lon="11.059525562287632"><ele>254.83333333333334</ele><time>2026-05-02T07:22:00Z</time></trkpt><trkpt lat="44.23006514964093" lon="11.059427246369154"><ele>254.0</ele><time>2026-05-02T07:22:01Z</time></trkpt><trkpt lat="44.23006241122836" lon="11.0593030448387"><ele>254.0</ele><time>2026-05-02T07:22:03Z</time></trkpt><trkpt lat="44.230057076265" lon="11.059211339411236"><ele>253.99999999999997</ele><time>2026-05-02T07:22:06Z</time></trkpt><trkpt lat="44.23005043613228" lon="11.059056627217048"><ele>253.99999999999997</ele><time>2026-05-02T07:22:21.999Z</time></trkpt><trkpt lat="44.230040427808405" lon="11.058940676118704"><ele>254.0</ele><time>2026-05-02T07:22:22.999Z</time></trkpt><trkpt lat="44.23002638687803" lon="11.05879152227806"><ele>254.0</ele><time>2026-05-02T07:22:23.999Z</time></trkpt><trkpt lat="44.23001442531129" lon="11.058626335318369"><ele>254.0</ele><time>2026-05-02T07:22:24.999Z</time></trkpt><trkpt lat="44.23001859413921" lon="11.058445245272189"><ele>254.0</ele><time>2026-05-02T07:22:25.999Z</time></trkpt><trkpt lat="44.230012065925415" lon="11.058310072951285"><ele>254.0</ele><time>2026-05-02T07:22:26.999Z</time></trkpt><trkpt lat="44.23000836998276" lon="11.058088810957145"><ele>254.0</ele><time>2026-05-02T07:22:27.999Z</time></trkpt><trkpt lat="44.23003127751037" lon="11.057864496473211"><ele>252.66666666666669</ele><time>2026-05-02T07:22:28.999Z</time></trkpt><trkpt lat="44.230061901876965" lon="11.0576355050125"><ele>251.33333333333331</ele><time>2026-05-02T07:22:29.999Z</time></trkpt><trkpt lat="44.23009345172411" lon="11.057411566875942"><ele>250.0</ele><time>2026-05-02T07:22:30.999Z</time></trkpt><trkpt lat="44.230125840414786" lon="11.05719873400244"><ele>249.25</ele><time>2026-05-02T07:22:31.999Z</time></trkpt><trkpt lat="44.23016130305381" lon="11.056994627726656"><ele>248.5</ele><time>2026-05-02T07:22:32.999Z</time></trkpt><trkpt lat="44.23021263947676" lon="11.056813687922949"><ele>247.75</ele><time>2026-05-02T07:22:33.999Z</time></trkpt><trkpt lat="44.23028220839871" lon="11.056658090375453"><ele>247.0</ele><time>2026-05-02T07:22:34.999Z</time></trkpt><trkpt lat="44.230372739539" lon="11.056520928371086"><ele>246.25</ele><time>2026-05-02T07:22:35.999Z</time></trkpt><trkpt lat="44.23047756323553" lon="11.056383218721843"><ele>245.5</ele><time>2026-05-02T07:22:36.999Z</time></trkpt><trkpt lat="44.230570193278346" lon="11.056252770183733"><ele>244.75</ele><time>2026-05-02T07:22:37.999Z</time></trkpt><trkpt lat="44.23063127799033" lon="11.056142601677198"><ele>244.0</ele><time>2026-05-02T07:22:38.999Z</time></trkpt><trkpt lat="44.230664797101014" lon="11.05604072542228"><ele>244.0</ele><time>2026-05-02T07:22:39.999Z</time></trkpt><trkpt lat="44.23069654288059" lon="11.0559453319542"><ele>243.99999999999997</ele><time>2026-05-02T07:22:41.999Z</time></trkpt><trkpt lat="44.230535550401065" lon="11.05586826575358"><ele>243.99999999999997</ele><time>2026-05-02T07:22:42.999Z</time></trkpt><trkpt lat="44.23045659698758" lon="11.055870335238255"><ele>244.0</ele><time>2026-05-02T07:22:43.999Z</time></trkpt><trkpt lat="44.2303741305882" lon="11.05587081643806"><ele>244.0</ele><time>2026-05-02T07:22:44.999Z</time></trkpt><trkpt lat="44.230277509447646" lon="11.055835599150598"><ele>243.99999999999997</ele><time>2026-05-02T07:22:45.999Z</time></trkpt><trkpt lat="44.23018045952049" lon="11.055815147524351"><ele>244.0</ele><time>2026-05-02T07:22:46.999Z</time></trkpt><trkpt lat="44.230108928486125" lon="11.055800785832965"><ele>244.0</ele><time>2026-05-02T07:22:47.999Z</time></trkpt><trkpt lat="44.23004601549603" lon="11.055788216316927"><ele>244.0</ele><time>2026-05-02T07:22:48.999Z</time></trkpt><trkpt lat="44.22998130289627" lon="11.055775287250643"><ele>243.99999999999997</ele><time>2026-05-02T07:22:49.999Z</time></trkpt><trkpt lat="44.22989376062264" lon="11.055757796975653"><ele>244.0</ele><time>2026-05-02T07:22:50.999Z</time></trkpt><trkpt lat="44.229774654898385" lon="11.055734000556225"><ele>245.83333333333331</ele><time>2026-05-02T07:22:51.999Z</time></trkpt><trkpt lat="44.22968962602513" lon="11.055717012459933"><ele>247.66666666666666</ele><time>2026-05-02T07:22:52.999Z</time></trkpt><trkpt lat="44.22958537797873" lon="11.055696019762607"><ele>249.5</ele><time>2026-05-02T07:22:54.999Z</time></trkpt><trkpt lat="44.22948928090701" lon="11.055675391069704"><ele>251.33333333333331</ele><time>2026-05-02T07:22:56.999Z</time></trkpt><trkpt lat="44.22942266823132" lon="11.055658480728326"><ele>253.16666666666666</ele><time>2026-05-02T07:22:58.999Z</time></trkpt><trkpt lat="44.22934040841357" lon="11.055665541405565"><ele>255.0</ele><time>2026-05-02T07:23:00.999Z</time></trkpt><trkpt lat="44.22926938347476" lon="11.055628863886433"><ele>255.0</ele><time>2026-05-02T07:23:03.999Z</time></trkpt><trkpt lat="44.22936117386038" lon="11.055719377455372"><ele>255.0</ele><time>2026-05-02T07:26:40.999Z</time></trkpt><trkpt lat="44.2294821079895" lon="11.055737051956195"><ele>255.0</ele><time>2026-05-02T07:26:42.999Z</time></trkpt><trkpt lat="44.22959561553682" lon="11.055746754000154"><ele>255.0</ele><time>2026-05-02T07:26:43.999Z</time></trkpt><trkpt lat="44.229753162750626" lon="11.055752225629526"><ele>251.33333333333331</ele><time>2026-05-02T07:26:44.999Z</time></trkpt><trkpt lat="44.22994274503778" lon="11.055814369443446"><ele>247.66666666666666</ele><time>2026-05-02T07:26:45.999Z</time></trkpt><trkpt lat="44.230149412940776" lon="11.055847776023855"><ele>244.0</ele><time>2026-05-02T07:26:46.999Z</time></trkpt><trkpt lat="44.23031217467091" lon="11.055889669308318"><ele>244.0</ele><time>2026-05-02T07:26:47.999Z</time></trkpt><trkpt lat="44.23043096064699" lon="11.055912138590301"><ele>243.99999999999997</ele><time>2026-05-02T07:26:48.999Z</time></trkpt><trkpt lat="44.2305206866493" lon="11.055932151110667"><ele>243.99999999999997</ele><time>2026-05-02T07:26:49.999Z</time></trkpt><trkpt lat="44.230603249823346" lon="11.056005532356476"><ele>244.0</ele><time>2026-05-02T07:26:51.999Z</time></trkpt><trkpt lat="44.23059521049273" lon="11.056112933405355"><ele>244.0</ele><time>2026-05-02T07:26:53.999Z</time></trkpt><trkpt lat="44.230508461755555" lon="11.05630791645202"><ele>243.99999999999997</ele><time>2026-05-02T07:26:55.999Z</time></trkpt><trkpt lat="44.230445770074795" lon="11.056371651475798"><ele>244.0</ele><time>2026-05-02T07:26:56.999Z</time></trkpt><trkpt lat="44.23039175988977" lon="11.056448455576382"><ele>244.0</ele><time>2026-05-02T07:26:57.999Z</time></trkpt><trkpt lat="44.230331700722516" lon="11.0565270445455"><ele>244.0</ele><time>2026-05-02T07:26:58.999Z</time></trkpt><trkpt lat="44.230268375761895" lon="11.056626633718432"><ele>243.99999999999997</ele><time>2026-05-02T07:26:59.999Z</time></trkpt><trkpt lat="44.2302268371633" lon="11.056707281553082"><ele>244.0</ele><time>2026-05-02T07:27:00.999Z</time></trkpt><trkpt lat="44.230194627868904" lon="11.056784768395046"><ele>244.75</ele><time>2026-05-02T07:27:01.999Z</time></trkpt><trkpt lat="44.230165239648876" lon="11.056873256785945"><ele>245.5</ele><time>2026-05-02T07:27:02.999Z</time></trkpt><trkpt lat="44.230120225002885" lon="11.057016549661718"><ele>246.25</ele><time>2026-05-02T07:27:03.999Z</time></trkpt><trkpt lat="44.23008664714781" lon="11.057193957255862"><ele>247.0</ele><time>2026-05-02T07:27:04.999Z</time></trkpt><trkpt lat="44.230062179000974" lon="11.057392704567462"><ele>248.0</ele><time>2026-05-02T07:27:05.999Z</time></trkpt><trkpt lat="44.230027377653705" lon="11.057639721658918"><ele>249.0</ele><time>2026-05-02T07:27:06.999Z</time></trkpt><trkpt lat="44.23000984792099" lon="11.057864158328753"><ele>250.0</ele><time>2026-05-02T07:27:07.999Z</time></trkpt><trkpt lat="44.2299906604694" lon="11.058030183497088"><ele>250.0</ele><time>2026-05-02T07:27:08.999Z</time></trkpt><trkpt lat="44.22998324729733" lon="11.05819955112791"><ele>250.0</ele><time>2026-05-02T07:27:09.999Z</time></trkpt><trkpt lat="44.229985833597695" lon="11.05837093454228"><ele>250.0</ele><time>2026-05-02T07:27:10.999Z</time></trkpt><trkpt lat="44.229993980607304" lon="11.058516900078027"><ele>250.0</ele><time>2026-05-02T07:27:11.999Z</time></trkpt><trkpt lat="44.23000527324719" lon="11.058666240383678"><ele>250.8</ele><time>2026-05-02T07:27:12.999Z</time></trkpt><trkpt lat="44.23001118943357" lon="11.058793444399802"><ele>251.6</ele><time>2026-05-02T07:27:13.999Z</time></trkpt><trkpt lat="44.230015842751754" lon="11.058913863057226"><ele>252.39999999999998</ele><time>2026-05-02T07:27:14.999Z</time></trkpt><trkpt lat="44.23002330816695" lon="11.059012610620268"><ele>253.2</ele><time>2026-05-02T07:27:15.999Z</time></trkpt><trkpt lat="44.230169202257805" lon="11.058965283166463"><ele>254.0</ele><time>2026-05-02T07:27:19.999Z</time></trkpt><trkpt lat="44.230170924394336" lon="11.058851396932303"><ele>254.00000000000003</ele><time>2026-05-02T07:27:20.999Z</time></trkpt><trkpt lat="44.2301686370214" lon="11.058761821596427"><ele>254.0</ele><time>2026-05-02T07:27:21.999Z</time></trkpt><trkpt lat="44.23017385167612" lon="11.058662919522819"><ele>254.0</ele><time>2026-05-02T07:27:22.999Z</time></trkpt><trkpt lat="44.23019047978213" lon="11.058520030170573"><ele>254.0</ele><time>2026-05-02T07:27:23.999Z</time></trkpt><trkpt lat="44.23020969635691" lon="11.058387361681998"><ele>254.00000000000003</ele><time>2026-05-02T07:27:24.999Z</time></trkpt><trkpt lat="44.23023362119851" lon="11.05829519375648"><ele>254.0</ele><time>2026-05-02T07:27:25.999Z</time></trkpt><trkpt lat="44.23025631696105" lon="11.058187608891037"><ele>253.2</ele><time>2026-05-02T07:27:26.999Z</time></trkpt><trkpt lat="44.23028163971627" lon="11.058065399016298"><ele>252.39999999999998</ele><time>2026-05-02T07:27:27.999Z</time></trkpt><trkpt lat="44.23031782399124" lon="11.057914599864617"><ele>251.6</ele><time>2026-05-02T07:27:28.999Z</time></trkpt><trkpt lat="44.23035620212594" lon="11.057767632832052"><ele>250.8</ele><time>2026-05-02T07:27:29.999Z</time></trkpt><trkpt lat="44.23038783656057" lon="11.057651977571515"><ele>250.0</ele><time>2026-05-02T07:27:30.999Z</time></trkpt><trkpt lat="44.23041612080344" lon="11.057546372564676"><ele>249.4</ele><time>2026-05-02T07:27:31.999Z</time></trkpt><trkpt lat="44.23045796433478" lon="11.057436284736518"><ele>248.8</ele><time>2026-05-02T07:27:32.999Z</time></trkpt><trkpt lat="44.230479133147206" lon="11.057293403467488"><ele>248.2</ele><time>2026-05-02T07:27:33.999Z</time></trkpt><trkpt lat="44.23051522737625" lon="11.057180608074813"><ele>247.6</ele><time>2026-05-02T07:27:34.999Z</time></trkpt><trkpt lat="44.23055851835634" lon="11.05706870552633"><ele>247.0</ele><time>2026-05-02T07:27:35.999Z</time></trkpt><trkpt lat="44.230617606106755" lon="11.05698454969826"><ele>249.49999999999997</ele><time>2026-05-02T07:27:36.999Z</time></trkpt><trkpt lat="44.23068724307022" lon="11.05691028408931"><ele>252.0</ele><time>2026-05-02T07:27:37.999Z</time></trkpt><trkpt lat="44.230769082434314" lon="11.056857188719484"><ele>254.5</ele><time>2026-05-02T07:27:38.999Z</time></trkpt><trkpt lat="44.230845960752376" lon="11.056827002851715"><ele>257.0</ele><time>2026-05-02T07:27:39.999Z</time></trkpt><trkpt lat="44.23092866392014" lon="11.056810493332142"><ele>259.5</ele><time>2026-05-02T07:27:40.999Z</time></trkpt><trkpt lat="44.23099828725864" lon="11.056805628966174"><ele>262.0</ele><time>2026-05-02T07:27:41.999Z</time></trkpt><trkpt lat="44.23104603281021" lon="11.056874707203358"><ele>262.0</ele><time>2026-05-02T07:27:42.999Z</time></trkpt><trkpt lat="44.23101464757525" lon="11.057005620700041"><ele>262.0</ele><time>2026-05-02T07:27:45Z</time></trkpt><trkpt lat="44.23097302026097" lon="11.057087651678515"><ele>262.0</ele><time>2026-05-02T07:27:46Z</time></trkpt><trkpt lat="44.23093495872625" lon="11.057186261677693"><ele>262.0</ele><time>2026-05-02T07:27:47Z</time></trkpt><trkpt lat="44.23090832829007" lon="11.057299161034083"><ele>262.0</ele><time>2026-05-02T07:27:48Z</time></trkpt><trkpt lat="44.23090099347784" lon="11.057428651301585"><ele>262.0</ele><time>2026-05-02T07:27:49Z</time></trkpt><trkpt lat="44.23090737119027" lon="11.057559887370536"><ele>264.0</ele><time>2026-05-02T07:27:50Z</time></trkpt><trkpt lat="44.23091919243145" lon="11.057697936615215"><ele>266.0</ele><time>2026-05-02T07:27:51Z</time></trkpt><trkpt lat="44.230931912160216" lon="11.057831835324253"><ele>268.0</ele><time>2026-05-02T07:27:52Z</time></trkpt><trkpt lat="44.23094465642421" lon="11.057935524145226"><ele>270.0</ele><time>2026-05-02T07:27:53Z</time></trkpt><trkpt lat="44.23095862031219" lon="11.058034739048546"><ele>272.0</ele><time>2026-05-02T07:27:54Z</time></trkpt><trkpt lat="44.230951739004375" lon="11.058141015793785"><ele>274.0</ele><time>2026-05-02T07:27:55Z</time></trkpt><trkpt lat="44.2309556024065" lon="11.058230273156626"><ele>275.0</ele><time>2026-05-02T07:27:56Z</time></trkpt><trkpt lat="44.2309561689437" lon="11.058433296538448"><ele>276.0</ele><time>2026-05-02T07:27:58Z</time></trkpt><trkpt lat="44.23095164453331" lon="11.058562200226433"><ele>277.0</ele><time>2026-05-02T07:27:59Z</time></trkpt><trkpt lat="44.23095794992758" lon="11.058704165354301"><ele>278.0</ele><time>2026-05-02T07:28:00Z</time></trkpt><trkpt lat="44.23095106014311" lon="11.05884216469478"><ele>279.0</ele><time>2026-05-02T07:28:01Z</time></trkpt><trkpt lat="44.23094574835841" lon="11.058968111778237"><ele>279.0</ele><time>2026-05-02T07:28:02Z</time></trkpt><trkpt lat="44.23092213756801" lon="11.059087214906771"><ele>279.0</ele><time>2026-05-02T07:28:03Z</time></trkpt><trkpt lat="44.23091405019672" lon="11.05921185296384"><ele>279.0</ele><time>2026-05-02T07:28:04Z</time></trkpt><trkpt lat="44.23086759661582" lon="11.059359153220102"><ele>279.0</ele><time>2026-05-02T07:28:06Z</time></trkpt><trkpt lat="44.23081460164552" lon="11.059504213962395"><ele>279.0</ele><time>2026-05-02T07:28:08Z</time></trkpt><trkpt lat="44.230784835838904" lon="11.059595553911487"><ele>279.5</ele><time>2026-05-02T07:28:09Z</time></trkpt><trkpt lat="44.23075358020626" lon="11.059686754940262"><ele>280.0</ele><time>2026-05-02T07:28:10Z</time></trkpt><trkpt lat="44.23073658065773" lon="11.059784264169688"><ele>280.5</ele><time>2026-05-02T07:28:11Z</time></trkpt><trkpt lat="44.23072063317306" lon="11.059892232591258"><ele>281.0</ele><time>2026-05-02T07:28:12Z</time></trkpt><trkpt lat="44.2306869880631" lon="11.060009596347381"><ele>281.5</ele><time>2026-05-02T07:28:12.999Z</time></trkpt><trkpt lat="44.230664907180184" lon="11.060161292322697"><ele>282.0</ele><time>2026-05-02T07:28:13.999Z</time></trkpt><trkpt lat="44.23063134020605" lon="11.060284143685035"><ele>280.0</ele><time>2026-05-02T07:28:14.999Z</time></trkpt><trkpt lat="44.23059814315131" lon="11.0603862431436"><ele>278.0</ele><time>2026-05-02T07:28:15.999Z</time></trkpt><trkpt lat="44.230560646539104" lon="11.060472236049392"><ele>276.0</ele><time>2026-05-02T07:28:16.999Z</time></trkpt><trkpt lat="44.23050290151502" lon="11.060573294176967"><ele>274.0</ele><time>2026-05-02T07:28:17.999Z</time></trkpt><trkpt lat="44.2304603980295" lon="11.060648396221021"><ele>272.0</ele><time>2026-05-02T07:28:18.999Z</time></trkpt><trkpt lat="44.230407337681335" lon="11.060725769737147"><ele>270.0</ele><time>2026-05-02T07:28:19.999Z</time></trkpt><trkpt lat="44.230359240391095" lon="11.060795935781108"><ele>270.0</ele><time>2026-05-02T07:28:20.999Z</time></trkpt><trkpt lat="44.23030256179895" lon="11.060874269903602"><ele>270.0</ele><time>2026-05-02T07:28:21.999Z</time></trkpt><trkpt lat="44.23024242986025" lon="11.060961554623736"><ele>270.0</ele><time>2026-05-02T07:28:22.999Z</time></trkpt><trkpt lat="44.23017920917564" lon="11.061046790387568"><ele>270.0</ele><time>2026-05-02T07:28:23.999Z</time></trkpt><trkpt lat="44.230128270472825" lon="11.06113993635065"><ele>270.0</ele><time>2026-05-02T07:28:24.999Z</time></trkpt><trkpt lat="44.23009533809516" lon="11.061242249402872"><ele>270.0</ele><time>2026-05-02T07:28:25.999Z</time></trkpt><trkpt lat="44.23004693590553" lon="11.061404395738986"><ele>270.0</ele><time>2026-05-02T07:28:27.999Z</time></trkpt><trkpt lat="44.23001169678946" lon="11.061553569350053"><ele>270.0</ele><time>2026-05-02T07:28:29.999Z</time></trkpt><trkpt lat="44.230011751615336" lon="11.061641796574527"><ele>270.0</ele><time>2026-05-02T07:28:30.999Z</time></trkpt><trkpt lat="44.230011751616175" lon="11.061735911423542"><ele>270.0</ele><time>2026-05-02T07:28:31.999Z</time></trkpt><trkpt lat="44.230020854112645" lon="11.061899796788621"><ele>270.0</ele><time>2026-05-02T07:28:33.999Z</time></trkpt><trkpt lat="44.23002848762943" lon="11.062005398445633"><ele>270.0</ele><time>2026-05-02T07:28:34.999Z</time></trkpt><trkpt lat="44.23004271030507" lon="11.062132460097835"><ele>271.6</ele><time>2026-05-02T07:28:35.999Z</time></trkpt><trkpt lat="44.230059516164374" lon="11.06223171426203"><ele>273.2</ele><time>2026-05-02T07:28:36.999Z</time></trkpt><trkpt lat="44.230078848961575" lon="11.062324809750235"><ele>274.8</ele><time>2026-05-02T07:28:37.999Z</time></trkpt><trkpt lat="44.23012011240254" lon="11.062481758130149"><ele>276.4</ele><time>2026-05-02T07:28:39.999Z</time></trkpt><trkpt lat="44.230150174321125" lon="11.06256745538732"><ele>278.0</ele><time>2026-05-02T07:28:40.999Z</time></trkpt><trkpt lat="44.230226185859394" lon="11.062704950187033"><ele>278.0</ele><time>2026-05-02T07:28:42.999Z</time></trkpt><trkpt lat="44.23028477058836" lon="11.062757936931474"><ele>278.0</ele><time>2026-05-02T07:28:43.999Z</time></trkpt><trkpt lat="44.230372118149894" lon="11.062842994895894"><ele>278.0</ele><time>2026-05-02T07:28:45.999Z</time></trkpt><trkpt lat="44.23042812863775" lon="11.062896733602999"><ele>278.0</ele><time>2026-05-02T07:28:46.999Z</time></trkpt><trkpt lat="44.23049281814636" lon="11.062958799169072"><ele>278.0</ele><time>2026-05-02T07:28:47.999Z</time></trkpt><trkpt lat="44.230562735906695" lon="11.063025879845073"><ele>278.0</ele><time>2026-05-02T07:28:48.999Z</time></trkpt><trkpt lat="44.23065861582958" lon="11.063053786477555"><ele>281.1666666666667</ele><time>2026-05-02T07:28:49.999Z</time></trkpt><trkpt lat="44.23073728138646" lon="11.063140309920604"><ele>284.33333333333337</ele><time>2026-05-02T07:28:50.999Z</time></trkpt><trkpt lat="44.230802125723436" lon="11.063198259992397"><ele>287.5</ele><time>2026-05-02T07:28:51.999Z</time></trkpt><trkpt lat="44.230875410478625" lon="11.063237441481885"><ele>290.6666666666667</ele><time>2026-05-02T07:28:52.999Z</time></trkpt><trkpt lat="44.23094319942329" lon="11.063250070302672"><ele>293.8333333333333</ele><time>2026-05-02T07:28:53.999Z</time></trkpt><trkpt lat="44.23102601388911" lon="11.063264955043389"><ele>297.0</ele><time>2026-05-02T07:28:55.999Z</time></trkpt><trkpt lat="44.23109797060557" lon="11.063201290345857"><ele>297.0</ele><time>2026-05-02T07:31:39.999Z</time></trkpt><trkpt lat="44.23121177310281" lon="11.063166528914024"><ele>297.0</ele><time>2026-05-02T07:31:41.999Z</time></trkpt><trkpt lat="44.23128189827827" lon="11.063141015422623"><ele>297.0</ele><time>2026-05-02T07:31:42.999Z</time></trkpt><trkpt lat="44.231341575576856" lon="11.063104608616475"><ele>297.0</ele><time>2026-05-02T07:31:43.999Z</time></trkpt><trkpt lat="44.231414275705475" lon="11.063064351977584"><ele>297.0</ele><time>2026-05-02T07:31:44.999Z</time></trkpt><trkpt lat="44.23148195367702" lon="11.063024213828077"><ele>297.0</ele><time>2026-05-02T07:31:45.999Z</time></trkpt><trkpt lat="44.23154328832189" lon="11.062988987810694"><ele>297.2</ele><time>2026-05-02T07:31:46.999Z</time></trkpt><trkpt lat="44.23162215703915" lon="11.06297566155033"><ele>297.4</ele><time>2026-05-02T07:31:47.999Z</time></trkpt><trkpt lat="44.23170756963144" lon="11.062987516930509"><ele>297.6</ele><time>2026-05-02T07:31:48.999Z</time></trkpt><trkpt lat="44.23180205321581" lon="11.063027320019158"><ele>297.8</ele><time>2026-05-02T07:31:49.999Z</time></trkpt><trkpt lat="44.23190181878466" lon="11.063061129004913"><ele>298.0</ele><time>2026-05-02T07:31:50.999Z</time></trkpt><trkpt lat="44.23201889187311" lon="11.063097920316585"><ele>298.0</ele><time>2026-05-02T07:31:51.999Z</time></trkpt><trkpt lat="44.232128488440466" lon="11.063126117762838"><ele>298.0</ele><time>2026-05-02T07:31:52.999Z</time></trkpt><trkpt lat="44.23221966769354" lon="11.063143621025544"><ele>298.0</ele><time>2026-05-02T07:31:53.999Z</time></trkpt><trkpt lat="44.23232374066762" lon="11.063182163262626"><ele>298.0</ele><time>2026-05-02T07:31:54.999Z</time></trkpt><trkpt lat="44.232433692720754" lon="11.063241352963434"><ele>298.0</ele><time>2026-05-02T07:31:56Z</time></trkpt><trkpt lat="44.23254189412048" lon="11.063305316871661"><ele>295.5</ele><time>2026-05-02T07:31:57Z</time></trkpt><trkpt lat="44.23265534184398" lon="11.063367737042105"><ele>293.0</ele><time>2026-05-02T07:31:58Z</time></trkpt><trkpt lat="44.23277748438526" lon="11.063427574096368"><ele>290.5</ele><time>2026-05-02T07:31:59Z</time></trkpt><trkpt lat="44.23289569545413" lon="11.06348102356418"><ele>288.0</ele><time>2026-05-02T07:32:00Z</time></trkpt><trkpt lat="44.233017054735065" lon="11.063532885906257"><ele>288.0</ele><time>2026-05-02T07:32:01Z</time></trkpt><trkpt lat="44.23312111178766" lon="11.063575176203452"><ele>288.0</ele><time>2026-05-02T07:32:02Z</time></trkpt><trkpt lat="44.233214749225034" lon="11.063609338172903"><ele>288.0</ele><time>2026-05-02T07:32:03Z</time></trkpt><trkpt lat="44.23329573404705" lon="11.063673940470867"><ele>288.0</ele><time>2026-05-02T07:32:04Z</time></trkpt><trkpt lat="44.23337574501499" lon="11.063739452520167"><ele>288.0</ele><time>2026-05-02T07:32:05Z</time></trkpt><trkpt lat="44.2334380036777" lon="11.063802725049523"><ele>290.2</ele><time>2026-05-02T07:32:06Z</time></trkpt><trkpt lat="44.23340736231094" lon="11.063966527652267"><ele>292.4</ele><time>2026-05-02T07:32:07Z</time></trkpt><trkpt lat="44.23344261596468" lon="11.064077291498819"><ele>294.59999999999997</ele><time>2026-05-02T07:32:08Z</time></trkpt><trkpt lat="44.233465050977" lon="11.06418496165718"><ele>296.8</ele><time>2026-05-02T07:32:09Z</time></trkpt><trkpt lat="44.23355563998768" lon="11.064255236361381"><ele>299.0</ele><time>2026-05-02T07:32:10Z</time></trkpt><trkpt lat="44.23367361574023" lon="11.064320395358983"><ele>299.0</ele><time>2026-05-02T07:32:11Z</time></trkpt><trkpt lat="44.23375549195252" lon="11.064454082180468"><ele>299.0</ele><time>2026-05-02T07:32:12Z</time></trkpt><trkpt lat="44.23383830499907" lon="11.064625042381211"><ele>299.0</ele><time>2026-05-02T07:32:13Z</time></trkpt><trkpt lat="44.233940720546286" lon="11.064792819466977"><ele>299.0</ele><time>2026-05-02T07:32:14Z</time></trkpt><trkpt lat="44.234025910630955" lon="11.064942633847604"><ele>302.0</ele><time>2026-05-02T07:32:15Z</time></trkpt><trkpt lat="44.23410142984468" lon="11.065062153975031"><ele>305.0</ele><time>2026-05-02T07:32:16Z</time></trkpt><trkpt lat="44.23415990798895" lon="11.06511188195716"><ele>308.0</ele><time>2026-05-02T07:32:17Z</time></trkpt><trkpt lat="44.23426833967182" lon="11.064993068845292"><ele>311.0</ele><time>2026-05-02T07:32:19Z</time></trkpt><trkpt lat="44.23427268772374" lon="11.064875818080331"><ele>314.0</ele><time>2026-05-02T07:32:19.999Z</time></trkpt><trkpt lat="44.23418364437782" lon="11.064705403564899"><ele>315.0</ele><time>2026-05-02T07:32:20.999Z</time></trkpt><trkpt lat="44.234127399884194" lon="11.064562552540979"><ele>316.0</ele><time>2026-05-02T07:32:21.999Z</time></trkpt><trkpt lat="44.23411706373369" lon="11.0644716557714"><ele>317.0</ele><time>2026-05-02T07:32:22.999Z</time></trkpt><trkpt lat="44.23415668679982" lon="11.064390455841437"><ele>318.0</ele><time>2026-05-02T07:32:23.999Z</time></trkpt><trkpt lat="44.23423124269608" lon="11.064274438118915"><ele>319.0</ele><time>2026-05-02T07:32:24.999Z</time></trkpt><trkpt lat="44.23421365522114" lon="11.064104810164432"><ele>319.0</ele><time>2026-05-02T07:32:25.999Z</time></trkpt><trkpt lat="44.23423177678608" lon="11.063989892327276"><ele>319.0</ele><time>2026-05-02T07:32:26.999Z</time></trkpt><trkpt lat="44.234307147777706" lon="11.063884991461697"><ele>319.0</ele><time>2026-05-02T07:32:28.999Z</time></trkpt><trkpt lat="44.23437605155577" lon="11.063937927205142"><ele>319.0</ele><time>2026-05-02T07:32:29.999Z</time></trkpt><trkpt lat="44.23439518013575" lon="11.064183021512024"><ele>319.0</ele><time>2026-05-02T07:32:31.999Z</time></trkpt><trkpt lat="44.2343914560871" lon="11.06431782546685"><ele>319.0</ele><time>2026-05-02T07:32:32.999Z</time></trkpt><trkpt lat="44.23442696046467" lon="11.064464001465671"><ele>319.0</ele><time>2026-05-02T07:32:33.999Z</time></trkpt><trkpt lat="44.23447903015626" lon="11.064578560224442"><ele>319.0</ele><time>2026-05-02T07:32:34.999Z</time></trkpt><trkpt lat="44.23454293629715" lon="11.064698757518752"><ele>319.0</ele><time>2026-05-02T07:32:35.999Z</time></trkpt><trkpt lat="44.23461649389101" lon="11.064769200016572"><ele>319.0</ele><time>2026-05-02T07:32:36.999Z</time></trkpt><trkpt lat="44.23469145478603" lon="11.064832696864372"><ele>325.25</ele><time>2026-05-02T07:32:37.999Z</time></trkpt><trkpt lat="44.234847335469226" lon="11.064884189561951"><ele>331.5</ele><time>2026-05-02T07:32:38.999Z</time></trkpt><trkpt lat="44.23492702518646" lon="11.064954404733204"><ele>337.75</ele><time>2026-05-02T07:32:39.999Z</time></trkpt><trkpt lat="44.23496339440448" lon="11.065036456184272"><ele>344.0</ele><time>2026-05-02T07:32:40.999Z</time></trkpt><trkpt lat="44.23494095989247" lon="11.065251866477515"><ele>344.0</ele><time>2026-05-02T07:32:42.999Z</time></trkpt><trkpt lat="44.23496158461257" lon="11.065400367328932"><ele>344.0</ele><time>2026-05-02T07:32:43.999Z</time></trkpt><trkpt lat="44.23497922834016" lon="11.06556745702989"><ele>344.0</ele><time>2026-05-02T07:32:44.999Z</time></trkpt><trkpt lat="44.23498852469467" lon="11.065740844418556"><ele>344.0</ele><time>2026-05-02T07:32:45.999Z</time></trkpt><trkpt lat="44.235008108028026" lon="11.065907853026939"><ele>342.79999999999995</ele><time>2026-05-02T07:32:46.999Z</time></trkpt><trkpt lat="44.23504802909871" lon="11.066044905302876"><ele>341.59999999999997</ele><time>2026-05-02T07:32:47.999Z</time></trkpt><trkpt lat="44.235113231145554" lon="11.066122185152862"><ele>340.4</ele><time>2026-05-02T07:32:48.999Z</time></trkpt><trkpt lat="44.235194866950685" lon="11.066175329086702"><ele>339.2</ele><time>2026-05-02T07:32:49.999Z</time></trkpt><trkpt lat="44.23530265239633" lon="11.066197012076904"><ele>338.0</ele><time>2026-05-02T07:32:50.999Z</time></trkpt><trkpt lat="44.23542554645988" lon="11.066205145107562"><ele>338.0</ele><time>2026-05-02T07:32:51.999Z</time></trkpt><trkpt lat="44.235542558727516" lon="11.066182455867791"><ele>338.0</ele><time>2026-05-02T07:32:52.999Z</time></trkpt><trkpt lat="44.235665398601064" lon="11.06615891915461"><ele>338.0</ele><time>2026-05-02T07:32:53.999Z</time></trkpt><trkpt lat="44.23579975723561" lon="11.066152842846195"><ele>338.0</ele><time>2026-05-02T07:32:54.999Z</time></trkpt><trkpt lat="44.23592727790715" lon="11.066169498804454"><ele>343.0</ele><time>2026-05-02T07:32:55.999Z</time></trkpt><trkpt lat="44.23603930771951" lon="11.06619729639688"><ele>348.0</ele><time>2026-05-02T07:32:56.999Z</time></trkpt><trkpt lat="44.2361546046211" lon="11.066211829212815"><ele>353.0</ele><time>2026-05-02T07:32:57.999Z</time></trkpt><trkpt lat="44.23626584752665" lon="11.066192887092674"><ele>358.0</ele><time>2026-05-02T07:32:58.999Z</time></trkpt><trkpt lat="44.236376473509644" lon="11.066106181980084"><ele>359.4</ele><time>2026-05-02T07:32:59.999Z</time></trkpt><trkpt lat="44.23648546818858" lon="11.066041694785476"><ele>360.79999999999995</ele><time>2026-05-02T07:33:00.999Z</time></trkpt><trkpt lat="44.23657375840416" lon="11.066010825759683"><ele>362.2</ele><time>2026-05-02T07:33:01.999Z</time></trkpt><trkpt lat="44.23668820096229" lon="11.065986905200694"><ele>363.6</ele><time>2026-05-02T07:33:02.999Z</time></trkpt><trkpt lat="44.23680671661472" lon="11.06596249509363"><ele>365.0</ele><time>2026-05-02T07:33:03.999Z</time></trkpt><trkpt lat="44.236948897048" lon="11.065934466418174"><ele>365.0</ele><time>2026-05-02T07:33:04.999Z</time></trkpt><trkpt lat="44.2370697852129" lon="11.065955147715597"><ele>365.0</ele><time>2026-05-02T07:33:05.999Z</time></trkpt><trkpt lat="44.23720035049188" lon="11.065976265063615"><ele>365.0</ele><time>2026-05-02T07:33:06.999Z</time></trkpt><trkpt lat="44.2373139067234" lon="11.066005080831705"><ele>365.0</ele><time>2026-05-02T07:33:07.999Z</time></trkpt><trkpt lat="44.23742134262808" lon="11.06604826933562"><ele>367.5</ele><time>2026-05-02T07:33:08.999Z</time></trkpt><trkpt lat="44.23753073800422" lon="11.066097163011134"><ele>370.0</ele><time>2026-05-02T07:33:09.999Z</time></trkpt><trkpt lat="44.237631361585116" lon="11.066239368661417"><ele>372.5</ele><time>2026-05-02T07:33:10.999Z</time></trkpt><trkpt lat="44.237741393156384" lon="11.066290132311638"><ele>375.0</ele><time>2026-05-02T07:33:11.999Z</time></trkpt><trkpt lat="44.23783680548294" lon="11.06633106750529"><ele>375.0</ele><time>2026-05-02T07:33:12.999Z</time></trkpt><trkpt lat="44.23793675647772" lon="11.066373967763655"><ele>375.0</ele><time>2026-05-02T07:33:13.999Z</time></trkpt><trkpt lat="44.23802476890445" lon="11.06639470682335"><ele>375.0</ele><time>2026-05-02T07:33:14.999Z</time></trkpt><trkpt lat="44.238092503995375" lon="11.066383016708135"><ele>375.0</ele><time>2026-05-02T07:33:15.999Z</time></trkpt><trkpt lat="44.23816422266673" lon="11.066366472390216"><ele>375.0</ele><time>2026-05-02T07:33:17.999Z</time></trkpt><trkpt lat="44.23824461800485" lon="11.066332437881677"><ele>375.0</ele><time>2026-05-02T07:33:21.999Z</time></trkpt><trkpt lat="44.23832773547371" lon="11.066318745150149"><ele>374.4</ele><time>2026-05-02T07:33:23.999Z</time></trkpt><trkpt lat="44.238418186566165" lon="11.066263346164018"><ele>373.8</ele><time>2026-05-02T07:33:25.999Z</time></trkpt><trkpt lat="44.23849138436871" lon="11.066153865054025"><ele>373.20000000000005</ele><time>2026-05-02T07:33:27.999Z</time></trkpt><trkpt lat="44.23856679079277" lon="11.066099225002304"><ele>372.6</ele><time>2026-05-02T07:33:29.999Z</time></trkpt><trkpt lat="44.238651844221735" lon="11.066022514983723"><ele>372.0</ele><time>2026-05-02T07:33:31.999Z</time></trkpt><trkpt lat="44.238731636523646" lon="11.065981650911409"><ele>372.0</ele><time>2026-05-02T07:33:33.999Z</time></trkpt><trkpt lat="44.23883181373717" lon="11.065987114867562"><ele>372.0</ele><time>2026-05-02T07:33:35.999Z</time></trkpt><trkpt lat="44.23893572995889" lon="11.066019984553892"><ele>372.0</ele><time>2026-05-02T07:33:37.999Z</time></trkpt><trkpt lat="44.239005240480196" lon="11.065997625568654"><ele>372.0</ele><time>2026-05-02T07:33:39.999Z</time></trkpt><trkpt lat="44.239100526621584" lon="11.065996627519075"><ele>372.0</ele><time>2026-05-02T07:33:41.999Z</time></trkpt><trkpt lat="44.239192990805854" lon="11.066040957539753"><ele>369.8</ele><time>2026-05-02T07:33:43.999Z</time></trkpt><trkpt lat="44.23925361042358" lon="11.066111601561541"><ele>367.6</ele><time>2026-05-02T07:33:45.999Z</time></trkpt><trkpt lat="44.23937926264203" lon="11.066094690778264"><ele>365.40000000000003</ele><time>2026-05-02T07:33:50.999Z</time></trkpt><trkpt lat="44.239437488546464" lon="11.065972368744774"><ele>363.20000000000005</ele><time>2026-05-02T07:33:52.999Z</time></trkpt><trkpt lat="44.239510892013215" lon="11.065915696014281"><ele>361.0</ele><time>2026-05-02T07:33:54.999Z</time></trkpt><trkpt lat="44.239592014541735" lon="11.065882997008266"><ele>361.0</ele><time>2026-05-02T07:33:56.999Z</time></trkpt><trkpt lat="44.239700703923845" lon="11.065877794197077"><ele>361.0</ele><time>2026-05-02T07:33:58.999Z</time></trkpt><trkpt lat="44.239787743547495" lon="11.065888019272718"><ele>361.0</ele><time>2026-05-02T07:34:00.999Z</time></trkpt><trkpt lat="44.23985269980348" lon="11.065895861986695"><ele>361.0</ele><time>2026-05-02T07:34:03Z</time></trkpt><trkpt lat="44.239925669870544" lon="11.065924843843353"><ele>361.0</ele><time>2026-05-02T07:34:05Z</time></trkpt><trkpt lat="44.24001675751544" lon="11.065886485136847"><ele>361.0</ele><time>2026-05-02T07:34:08Z</time></trkpt><trkpt lat="44.240054651248826" lon="11.065770349745653"><ele>361.0</ele><time>2026-05-02T07:34:11Z</time></trkpt><trkpt lat="44.24004855963445" lon="11.065648517800616"><ele>361.0</ele><time>2026-05-02T07:34:13Z</time></trkpt><trkpt lat="44.24004609728661" lon="11.065558599712944"><ele>361.0</ele><time>2026-05-02T07:34:15Z</time></trkpt><trkpt lat="44.240058009213236" lon="11.065429553817854"><ele>361.0</ele><time>2026-05-02T07:34:19Z</time></trkpt><trkpt lat="44.24009916000105" lon="11.065357238113373"><ele>361.0</ele><time>2026-05-02T07:34:21Z</time></trkpt><trkpt lat="44.240174756461904" lon="11.06536560486483"><ele>361.0</ele><time>2026-05-02T07:34:23.999Z</time></trkpt><trkpt lat="44.24024549294966" lon="11.065366953836712"><ele>361.0</ele><time>2026-05-02T07:34:26.999Z</time></trkpt><trkpt lat="44.240309000605926" lon="11.06537370453621"><ele>361.0</ele><time>2026-05-02T07:34:28.999Z</time></trkpt><trkpt lat="44.24040366232125" lon="11.065382202329976"><ele>361.0</ele><time>2026-05-02T07:34:30.999Z</time></trkpt><trkpt lat="44.24050210193764" lon="11.065392491486287"><ele>361.0</ele><time>2026-05-02T07:34:32.999Z</time></trkpt><trkpt lat="44.240588960550824" lon="11.065404372671512"><ele>361.0</ele><time>2026-05-02T07:34:34.999Z</time></trkpt><trkpt lat="44.240676429416936" lon="11.065400970675498"><ele>361.0</ele><time>2026-05-02T07:34:36.999Z</time></trkpt><trkpt lat="44.240799930160655" lon="11.065402375907802"><ele>360.0</ele><time>2026-05-02T07:34:38.999Z</time></trkpt><trkpt lat="44.240862258826176" lon="11.06535394981425"><ele>359.0</ele><time>2026-05-02T07:34:39.999Z</time></trkpt><trkpt lat="44.24093512888938" lon="11.065353625540611"><ele>358.0</ele><time>2026-05-02T07:34:40.999Z</time></trkpt><trkpt lat="44.24102502461145" lon="11.06533192902278"><ele>357.0</ele><time>2026-05-02T07:34:41.999Z</time></trkpt><trkpt lat="44.241095428343506" lon="11.065316616799784"><ele>356.0</ele><time>2026-05-02T07:34:42.999Z</time></trkpt><trkpt lat="44.24116754258385" lon="11.06528216944504"><ele>355.0</ele><time>2026-05-02T07:34:43.999Z</time></trkpt><trkpt lat="44.24124372671696" lon="11.06527152987576"><ele>355.0</ele><time>2026-05-02T07:34:44.999Z</time></trkpt><trkpt lat="44.24131915013108" lon="11.065262167669408"><ele>355.0</ele><time>2026-05-02T07:34:45.999Z</time></trkpt><trkpt lat="44.2413950479691" lon="11.065251420975725"><ele>355.0</ele><time>2026-05-02T07:34:46.999Z</time></trkpt><trkpt lat="44.2414866590511" lon="11.065240616834911"><ele>355.0</ele><time>2026-05-02T07:34:47.999Z</time></trkpt><trkpt lat="44.241572074076714" lon="11.065226497388647"><ele>355.0</ele><time>2026-05-02T07:34:48.999Z</time></trkpt><trkpt lat="44.24166669101704" lon="11.065210184573417"><ele>355.0</ele><time>2026-05-02T07:34:49.999Z</time></trkpt><trkpt lat="44.24176727513267" lon="11.065198880811815"><ele>355.0</ele><time>2026-05-02T07:34:50.999Z</time></trkpt><trkpt lat="44.241871575182984" lon="11.06520489272491"><ele>355.0</ele><time>2026-05-02T07:34:51.999Z</time></trkpt><trkpt lat="44.24197905456771" lon="11.065208241038343"><ele>355.0</ele><time>2026-05-02T07:34:52.999Z</time></trkpt><trkpt lat="44.24209131518108" lon="11.06518192426296"><ele>355.0</ele><time>2026-05-02T07:34:53.999Z</time></trkpt><trkpt lat="44.24219247259374" lon="11.065140879950928"><ele>355.0</ele><time>2026-05-02T07:34:54.999Z</time></trkpt><trkpt lat="44.24226694059946" lon="11.065080625932138"><ele>355.2</ele><time>2026-05-02T07:34:55.999Z</time></trkpt><trkpt lat="44.242335168042956" lon="11.065008099191946"><ele>355.4</ele><time>2026-05-02T07:34:56.999Z</time></trkpt><trkpt lat="44.242383252772015" lon="11.064910707488908"><ele>355.6</ele><time>2026-05-02T07:34:57.999Z</time></trkpt><trkpt lat="44.242427496704806" lon="11.064791506831867"><ele>355.8</ele><time>2026-05-02T07:34:58.999Z</time></trkpt><trkpt lat="44.242466435385985" lon="11.064660214592358"><ele>356.0</ele><time>2026-05-02T07:34:59.999Z</time></trkpt><trkpt lat="44.24250870711832" lon="11.064535910781375"><ele>359.20000000000005</ele><time>2026-05-02T07:35:00.999Z</time></trkpt><trkpt lat="44.242549247994305" lon="11.06445791800577"><ele>362.40000000000003</ele><time>2026-05-02T07:35:01.999Z</time></trkpt><trkpt lat="44.24263103464482" lon="11.064407230532593"><ele>365.6</ele><time>2026-05-02T07:35:03.999Z</time></trkpt><trkpt lat="44.242752418314275" lon="11.064457990280358"><ele>368.8</ele><time>2026-05-02T07:35:05.999Z</time></trkpt><trkpt lat="44.242866750732034" lon="11.064548075037994"><ele>372.0</ele><time>2026-05-02T07:35:07.999Z</time></trkpt><trkpt lat="44.242922202280525" lon="11.064602163916046"><ele>372.0</ele><time>2026-05-02T07:35:08.999Z</time></trkpt><trkpt lat="44.24303175906399" lon="11.064706548092751"><ele>372.0</ele><time>2026-05-02T07:35:10.999Z</time></trkpt><trkpt lat="44.24309353154829" lon="11.064765892410616"><ele>372.0</ele><time>2026-05-02T07:35:11.999Z</time></trkpt><trkpt lat="44.243165654779375" lon="11.064832459324938"><ele>372.0</ele><time>2026-05-02T07:35:12.999Z</time></trkpt><trkpt lat="44.24323092000754" lon="11.064890682309821"><ele>372.0</ele><time>2026-05-02T07:35:13.999Z</time></trkpt><trkpt lat="44.243311470112175" lon="11.064955239762787"><ele>373.8333333333333</ele><time>2026-05-02T07:35:14.999Z</time></trkpt><trkpt lat="44.24338825170316" lon="11.065014655418713"><ele>375.6666666666667</ele><time>2026-05-02T07:35:15.999Z</time></trkpt><trkpt lat="44.243461192254486" lon="11.065074562825398"><ele>377.5</ele><time>2026-05-02T07:35:16.999Z</time></trkpt><trkpt lat="44.243540392578545" lon="11.065149608610303"><ele>379.33333333333337</ele><time>2026-05-02T07:35:17.999Z</time></trkpt><trkpt lat="44.24359870966915" lon="11.065207575022677"><ele>381.1666666666667</ele><time>2026-05-02T07:35:18.999Z</time></trkpt><trkpt lat="44.243656046736604" lon="11.06525251814672"><ele>383.0</ele><time>2026-05-02T07:35:19.999Z</time></trkpt><trkpt lat="44.243755508819135" lon="11.06531870810564"><ele>383.0</ele><time>2026-05-02T07:35:21.999Z</time></trkpt><trkpt lat="44.243810505975354" lon="11.065366298304891"><ele>383.0</ele><time>2026-05-02T07:35:22.999Z</time></trkpt><trkpt lat="44.243912809340955" lon="11.06545313835734"><ele>383.0</ele><time>2026-05-02T07:35:24.999Z</time></trkpt><trkpt lat="44.24397416899593" lon="11.065492026438752"><ele>383.0</ele><time>2026-05-02T07:35:25.999Z</time></trkpt><trkpt lat="44.24404444477562" lon="11.065532002845883"><ele>383.0</ele><time>2026-05-02T07:35:26.999Z</time></trkpt><trkpt lat="44.244125842362585" lon="11.06557347920841"><ele>383.0</ele><time>2026-05-02T07:35:27.999Z</time></trkpt><trkpt lat="44.24420707516607" lon="11.065612728085664"><ele>383.59999999999997</ele><time>2026-05-02T07:35:28.999Z</time></trkpt><trkpt lat="44.244276389827846" lon="11.065647418528611"><ele>384.2</ele><time>2026-05-02T07:35:29.999Z</time></trkpt><trkpt lat="44.24437848040764" lon="11.065736254827954"><ele>384.8</ele><time>2026-05-02T07:35:31.999Z</time></trkpt><trkpt lat="44.24440134084248" lon="11.065832632296397"><ele>385.4</ele><time>2026-05-02T07:35:32.999Z</time></trkpt><trkpt lat="44.24442508414172" lon="11.065963455229552"><ele>386.0</ele><time>2026-05-02T07:35:33.999Z</time></trkpt><trkpt lat="44.24448285263292" lon="11.066091090961505"><ele>386.0</ele><time>2026-05-02T07:35:34.999Z</time></trkpt><trkpt lat="44.24456273214809" lon="11.066195826043618"><ele>386.0</ele><time>2026-05-02T07:35:35.999Z</time></trkpt><trkpt lat="44.24465191646128" lon="11.066299071700907"><ele>386.0</ele><time>2026-05-02T07:35:36.999Z</time></trkpt><trkpt lat="44.24473088184253" lon="11.066357167442959"><ele>386.0</ele><time>2026-05-02T07:35:37.999Z</time></trkpt><trkpt lat="44.24483693773689" lon="11.066389675784915"><ele>386.0</ele><time>2026-05-02T07:35:38.999Z</time></trkpt><trkpt lat="44.24497263482575" lon="11.066432376634513"><ele>388.4</ele><time>2026-05-02T07:35:39.999Z</time></trkpt><trkpt lat="44.245100738035134" lon="11.066477506277094"><ele>390.8</ele><time>2026-05-02T07:35:40.999Z</time></trkpt><trkpt lat="44.24521201503461" lon="11.066506715773123"><ele>393.2</ele><time>2026-05-02T07:35:41.999Z</time></trkpt><trkpt lat="44.24530762098488" lon="11.06652606345531"><ele>395.59999999999997</ele><time>2026-05-02T07:35:42.999Z</time></trkpt><trkpt lat="44.24538659757367" lon="11.066536252237741"><ele>398.0</ele><time>2026-05-02T07:35:43.999Z</time></trkpt><trkpt lat="44.24546940818051" lon="11.066532294679217"><ele>397.99999999999994</ele><time>2026-05-02T07:35:44.999Z</time></trkpt><trkpt lat="44.245556209798096" lon="11.066521674903527"><ele>398.0</ele><time>2026-05-02T07:35:46.999Z</time></trkpt><trkpt lat="44.24563788648153" lon="11.066531695115854"><ele>398.0</ele><time>2026-05-02T07:35:58.999Z</time></trkpt><trkpt lat="44.24573581471682" lon="11.066497908821077"><ele>398.0</ele><time>2026-05-02T07:36:00.999Z</time></trkpt><trkpt lat="44.245805393270295" lon="11.066490276987768"><ele>397.99999999999994</ele><time>2026-05-02T07:36:01.999Z</time></trkpt><trkpt lat="44.24588255882456" lon="11.066476615262278"><ele>398.0</ele><time>2026-05-02T07:36:02.999Z</time></trkpt><trkpt lat="44.245973807803246" lon="11.06642748702873"><ele>401.4</ele><time>2026-05-02T07:36:03.999Z</time></trkpt><trkpt lat="44.24602534887303" lon="11.066369599934006"><ele>404.79999999999995</ele><time>2026-05-02T07:36:04.999Z</time></trkpt><trkpt lat="44.24607099541201" lon="11.066163819158918"><ele>408.2</ele><time>2026-05-02T07:36:06.999Z</time></trkpt><trkpt lat="44.24610381095316" lon="11.065983369660788"><ele>411.6</ele><time>2026-05-02T07:36:08.999Z</time></trkpt><trkpt lat="44.24616440872226" lon="11.065933667652821"><ele>415.0</ele><time>2026-05-02T07:36:09.999Z</time></trkpt><trkpt lat="44.24623157047242" lon="11.065892033403115"><ele>415.0</ele><time>2026-05-02T07:36:10.999Z</time></trkpt><trkpt lat="44.24633572376031" lon="11.065791374692964"><ele>415.0</ele><time>2026-05-02T07:36:12.999Z</time></trkpt><trkpt lat="44.24629406751684" lon="11.065620044569442"><ele>415.0</ele><time>2026-05-02T07:36:14.999Z</time></trkpt><trkpt lat="44.24620280381027" lon="11.065534902137886"><ele>415.0</ele><time>2026-05-02T07:36:15.999Z</time></trkpt><trkpt lat="44.24610111454063" lon="11.065413986426652"><ele>420.25</ele><time>2026-05-02T07:36:16.999Z</time></trkpt><trkpt lat="44.24598835870363" lon="11.065287262910077"><ele>425.5</ele><time>2026-05-02T07:36:17.999Z</time></trkpt><trkpt lat="44.24592360569548" lon="11.065150220682234"><ele>430.75</ele><time>2026-05-02T07:36:18.999Z</time></trkpt><trkpt lat="44.245846339354685" lon="11.065001848186883"><ele>436.0</ele><time>2026-05-02T07:36:19.999Z</time></trkpt><trkpt lat="44.24571327108309" lon="11.064864762496768"><ele>436.5</ele><time>2026-05-02T07:36:20.999Z</time></trkpt><trkpt lat="44.24558154193887" lon="11.064783290295708"><ele>437.0</ele><time>2026-05-02T07:36:21.999Z</time></trkpt><trkpt lat="44.245466603394526" lon="11.064680338551831"><ele>437.5</ele><time>2026-05-02T07:36:22.999Z</time></trkpt><trkpt lat="44.2453535920347" lon="11.064573708188828"><ele>438.0</ele><time>2026-05-02T07:36:23.999Z</time></trkpt><trkpt lat="44.245245467279986" lon="11.064468538061409"><ele>438.0</ele><time>2026-05-02T07:36:24.999Z</time></trkpt><trkpt lat="44.24514081667307" lon="11.06436085684788"><ele>438.0</ele><time>2026-05-02T07:36:25.999Z</time></trkpt><trkpt lat="44.24505144783132" lon="11.064230616802467"><ele>438.0</ele><time>2026-05-02T07:36:26.999Z</time></trkpt><trkpt lat="44.2449790843769" lon="11.064085125746788"><ele>438.0</ele><time>2026-05-02T07:36:27.999Z</time></trkpt><trkpt lat="44.2449049882997" lon="11.06393064783838"><ele>434.25</ele><time>2026-05-02T07:36:28.999Z</time></trkpt><trkpt lat="44.24482843349547" lon="11.063774907816622"><ele>430.5</ele><time>2026-05-02T07:36:29.999Z</time></trkpt><trkpt lat="44.244735133967694" lon="11.063614904216308"><ele>426.75</ele><time>2026-05-02T07:36:30.999Z</time></trkpt><trkpt lat="44.244646442660645" lon="11.063457420325525"><ele>423.0</ele><time>2026-05-02T07:36:31.999Z</time></trkpt><trkpt lat="44.24458862593555" lon="11.063305252967693"><ele>428.0</ele><time>2026-05-02T07:36:32.999Z</time></trkpt><trkpt lat="44.244532760666026" lon="11.063110427554669"><ele>433.0</ele><time>2026-05-02T07:36:33.999Z</time></trkpt><trkpt lat="44.24446968188617" lon="11.06289247810471"><ele>438.0</ele><time>2026-05-02T07:36:34.999Z</time></trkpt><trkpt lat="44.24439155175158" lon="11.062707289686331"><ele>438.0</ele><time>2026-05-02T07:36:35.999Z</time></trkpt><trkpt lat="44.244278113671214" lon="11.06255346692101"><ele>438.0</ele><time>2026-05-02T07:36:36.999Z</time></trkpt><trkpt lat="44.244159066605604" lon="11.062544699787951"><ele>438.0</ele><time>2026-05-02T07:36:37.999Z</time></trkpt><trkpt lat="44.24406516802479" lon="11.062491035719356"><ele>438.0</ele><time>2026-05-02T07:36:38.999Z</time></trkpt><trkpt lat="44.24398901654043" lon="11.062377086705379"><ele>439.0</ele><time>2026-05-02T07:36:39.999Z</time></trkpt><trkpt lat="44.243968060906155" lon="11.06223779237453"><ele>440.0</ele><time>2026-05-02T07:36:40.999Z</time></trkpt><trkpt lat="44.244021316306856" lon="11.062088282548396"><ele>441.0</ele><time>2026-05-02T07:36:41.999Z</time></trkpt><trkpt lat="44.24404206759232" lon="11.06193547173622"><ele>442.0</ele><time>2026-05-02T07:36:42.999Z</time></trkpt><trkpt lat="44.24406735623302" lon="11.06175441288783"><ele>439.8</ele><time>2026-05-02T07:36:43.999Z</time></trkpt><trkpt lat="44.244056383802445" lon="11.06158008442988"><ele>437.6</ele><time>2026-05-02T07:36:44.999Z</time></trkpt><trkpt lat="44.244012481074044" lon="11.0614343947665"><ele>435.40000000000003</ele><time>2026-05-02T07:36:45.999Z</time></trkpt><trkpt lat="44.24396928125331" lon="11.061293573279087"><ele>433.20000000000005</ele><time>2026-05-02T07:36:46.999Z</time></trkpt><trkpt lat="44.24396737923621" lon="11.061166437359875"><ele>431.0</ele><time>2026-05-02T07:36:47.999Z</time></trkpt><trkpt lat="44.24404049027435" lon="11.061080735032036"><ele>431.0</ele><time>2026-05-02T07:36:48.999Z</time></trkpt><trkpt lat="44.2440964559918" lon="11.060960518717431"><ele>431.0</ele><time>2026-05-02T07:36:49.999Z</time></trkpt><trkpt lat="44.24417063469786" lon="11.060822452030603"><ele>431.0</ele><time>2026-05-02T07:36:50.999Z</time></trkpt><trkpt lat="44.244243870987084" lon="11.060661127621119"><ele>431.0</ele><time>2026-05-02T07:36:51.999Z</time></trkpt><trkpt lat="44.24431139650315" lon="11.060506316838348"><ele>431.5</ele><time>2026-05-02T07:36:52.999Z</time></trkpt><trkpt lat="44.24438200210751" lon="11.060343225012812"><ele>432.0</ele><time>2026-05-02T07:36:53.999Z</time></trkpt><trkpt lat="44.24445171908041" lon="11.060194195944593"><ele>432.5</ele><time>2026-05-02T07:36:54.999Z</time></trkpt><trkpt lat="44.24451052411478" lon="11.060061468087387"><ele>433.0</ele><time>2026-05-02T07:36:55.999Z</time></trkpt><trkpt lat="44.24455486725312" lon="11.05991187267302"><ele>437.1666666666667</ele><time>2026-05-02T07:36:56.999Z</time></trkpt><trkpt lat="44.24458544846791" lon="11.059777221376839"><ele>441.33333333333337</ele><time>2026-05-02T07:36:57.999Z</time></trkpt><trkpt lat="44.244572267496224" lon="11.0596093861288"><ele>445.5</ele><time>2026-05-02T07:36:59.999Z</time></trkpt><trkpt lat="44.24451838100321" lon="11.059556420298316"><ele>449.66666666666663</ele><time>2026-05-02T07:37:00.999Z</time></trkpt><trkpt lat="44.24444320572232" lon="11.059515799727217"><ele>453.8333333333333</ele><time>2026-05-02T07:37:01.999Z</time></trkpt><trkpt lat="44.24437516130281" lon="11.059516221781724"><ele>458.0</ele><time>2026-05-02T07:37:02.999Z</time></trkpt><trkpt lat="44.2442690642241" lon="11.059577415117818"><ele>458.0</ele><time>2026-05-02T07:37:03.999Z</time></trkpt><trkpt lat="44.24416972810906" lon="11.059698786121404"><ele>458.0</ele><time>2026-05-02T07:37:04.999Z</time></trkpt><trkpt lat="44.244055314225456" lon="11.05980654803209"><ele>458.0</ele><time>2026-05-02T07:37:05.999Z</time></trkpt><trkpt lat="44.24394574007386" lon="11.059913498948434"><ele>458.0</ele><time>2026-05-02T07:37:06.999Z</time></trkpt><trkpt lat="44.24386784422243" lon="11.06006657401305"><ele>454.5</ele><time>2026-05-02T07:37:07.999Z</time></trkpt><trkpt lat="44.243753600502565" lon="11.060169105597224"><ele>451.0</ele><time>2026-05-02T07:37:08.999Z</time></trkpt><trkpt lat="44.2436333217014" lon="11.060248635357153"><ele>447.5</ele><time>2026-05-02T07:37:09.999Z</time></trkpt><trkpt lat="44.243501064960356" lon="11.060346966623941"><ele>444.0</ele><time>2026-05-02T07:37:10.999Z</time></trkpt><trkpt lat="44.24337500805684" lon="11.060462988141929"><ele>444.0</ele><time>2026-05-02T07:37:11.999Z</time></trkpt><trkpt lat="44.243255101469686" lon="11.060558039201814"><ele>444.0</ele><time>2026-05-02T07:37:12.999Z</time></trkpt><trkpt lat="44.243123826606826" lon="11.060629492521056"><ele>444.0</ele><time>2026-05-02T07:37:13.999Z</time></trkpt><trkpt lat="44.24300139474771" lon="11.060641863949996"><ele>444.0</ele><time>2026-05-02T07:37:14.999Z</time></trkpt><trkpt lat="44.242911563827796" lon="11.060571636450337"><ele>442.75</ele><time>2026-05-02T07:37:15.999Z</time></trkpt><trkpt lat="44.242798044903346" lon="11.06058255682538"><ele>441.5</ele><time>2026-05-02T07:37:16.999Z</time></trkpt><trkpt lat="44.24268160416417" lon="11.060612682397455"><ele>440.25</ele><time>2026-05-02T07:37:17.999Z</time></trkpt><trkpt lat="44.242570019625816" lon="11.060542985630082"><ele>439.0</ele><time>2026-05-02T07:37:18.999Z</time></trkpt><trkpt lat="44.242443659847666" lon="11.060494196870774"><ele>439.0</ele><time>2026-05-02T07:37:19.999Z</time></trkpt><trkpt lat="44.24232581646196" lon="11.060425641228674"><ele>439.0</ele><time>2026-05-02T07:37:20.999Z</time></trkpt><trkpt lat="44.24220486320997" lon="11.060319559022274"><ele>439.0</ele><time>2026-05-02T07:37:21.999Z</time></trkpt><trkpt lat="44.24207572328734" lon="11.060221726445032"><ele>439.0</ele><time>2026-05-02T07:37:22.999Z</time></trkpt><trkpt lat="44.24195066115995" lon="11.060133389743708"><ele>437.2</ele><time>2026-05-02T07:37:23.999Z</time></trkpt><trkpt lat="44.24183622023653" lon="11.060061107009467"><ele>435.4</ele><time>2026-05-02T07:37:24.999Z</time></trkpt><trkpt lat="44.24171758400955" lon="11.060006090048937"><ele>433.6</ele><time>2026-05-02T07:37:25.999Z</time></trkpt><trkpt lat="44.24163914357804" lon="11.060011865882727"><ele>431.8</ele><time>2026-05-02T07:37:26.999Z</time></trkpt><trkpt lat="44.24162811194301" lon="11.059872985039153"><ele>430.0</ele><time>2026-05-02T07:37:28.999Z</time></trkpt><trkpt lat="44.2417829064801" lon="11.05966549030526"><ele>430.0</ele><time>2026-05-02T07:37:30.999Z</time></trkpt><trkpt lat="44.24175457698507" lon="11.059498060183712"><ele>430.0</ele><time>2026-05-02T07:37:31.999Z</time></trkpt><trkpt lat="44.24174540795134" lon="11.0593536710128"><ele>430.0</ele><time>2026-05-02T07:37:32.999Z</time></trkpt><trkpt lat="44.241724723998445" lon="11.05917307270198"><ele>430.0</ele><time>2026-05-02T07:37:33.999Z</time></trkpt><trkpt lat="44.24170299670859" lon="11.058976899606279"><ele>430.0</ele><time>2026-05-02T07:37:34.999Z</time></trkpt><trkpt lat="44.24168114317134" lon="11.058782831776522"><ele>430.0</ele><time>2026-05-02T07:37:35.999Z</time></trkpt><trkpt lat="44.241663491052535" lon="11.058688662592097"><ele>430.0</ele><time>2026-05-02T07:37:36.999Z</time></trkpt><trkpt lat="44.24158563065826" lon="11.058641677952057"><ele>430.0</ele><time>2026-05-02T07:37:37.999Z</time></trkpt><trkpt lat="44.241479030648115" lon="11.058681639502202"><ele>430.0</ele><time>2026-05-02T07:37:38.999Z</time></trkpt><trkpt lat="44.241385485124255" lon="11.058752269656926"><ele>430.0</ele><time>2026-05-02T07:37:39.999Z</time></trkpt><trkpt lat="44.24129398793144" lon="11.058777789253453"><ele>430.0</ele><time>2026-05-02T07:37:40.999Z</time></trkpt><trkpt lat="44.24122237544542" lon="11.058775552795002"><ele>430.0</ele><time>2026-05-02T07:37:41.999Z</time></trkpt><trkpt lat="44.24117360055064" lon="11.058665162947596"><ele>430.0</ele><time>2026-05-02T07:37:42.999Z</time></trkpt><trkpt lat="44.241189160736404" lon="11.058525296966325"><ele>430.0</ele><time>2026-05-02T07:37:43.999Z</time></trkpt><trkpt lat="44.24117957652755" lon="11.058379854396382"><ele>434.75</ele><time>2026-05-02T07:37:44.999Z</time></trkpt><trkpt lat="44.241157893672984" lon="11.058227345250705"><ele>439.5</ele><time>2026-05-02T07:37:45.999Z</time></trkpt><trkpt lat="44.24109397711522" lon="11.058086648739186"><ele>444.25</ele><time>2026-05-02T07:37:46.999Z</time></trkpt><trkpt lat="44.241047852123934" lon="11.057942618062"><ele>449.0</ele><time>2026-05-02T07:37:47.999Z</time></trkpt><trkpt lat="44.24103960949261" lon="11.057776004208952"><ele>449.0</ele><time>2026-05-02T07:37:48.999Z</time></trkpt><trkpt lat="44.24101907251164" lon="11.057596687953824"><ele>449.0</ele><time>2026-05-02T07:37:49.999Z</time></trkpt><trkpt lat="44.240998805700855" lon="11.057420397351535"><ele>449.0</ele><time>2026-05-02T07:37:50.999Z</time></trkpt><trkpt lat="44.24096626091209" lon="11.057257421288138"><ele>449.0</ele><time>2026-05-02T07:37:51.999Z</time></trkpt><trkpt lat="44.24090047158815" lon="11.057131423182199"><ele>449.75</ele><time>2026-05-02T07:37:52.999Z</time></trkpt><trkpt lat="44.24078288148612" lon="11.057047864224886"><ele>450.5</ele><time>2026-05-02T07:37:53.999Z</time></trkpt><trkpt lat="44.24067075387405" lon="11.056960297123407"><ele>451.25</ele><time>2026-05-02T07:37:54.999Z</time></trkpt><trkpt lat="44.24056661738535" lon="11.056870210491859"><ele>452.0</ele><time>2026-05-02T07:37:55.999Z</time></trkpt><trkpt lat="44.24046969755003" lon="11.056775798431495"><ele>452.0</ele><time>2026-05-02T07:37:56.999Z</time></trkpt><trkpt lat="44.24038567547551" lon="11.056675355675614"><ele>452.0</ele><time>2026-05-02T07:37:57.999Z</time></trkpt><trkpt lat="44.240280377664256" lon="11.056569599622039"><ele>452.0</ele><time>2026-05-02T07:37:58.999Z</time></trkpt><trkpt lat="44.2401520473299" lon="11.056507680772876"><ele>452.0</ele><time>2026-05-02T07:37:59.999Z</time></trkpt><trkpt lat="44.240031596291026" lon="11.056466514407887"><ele>451.5</ele><time>2026-05-02T07:38:00.999Z</time></trkpt><trkpt lat="44.23991553129727" lon="11.056440357619538"><ele>451.0</ele><time>2026-05-02T07:38:01.999Z</time></trkpt><trkpt lat="44.239782800710415" lon="11.056424722357995"><ele>450.5</ele><time>2026-05-02T07:38:02.999Z</time></trkpt><trkpt lat="44.23965502302209" lon="11.056416043647332"><ele>450.0</ele><time>2026-05-02T07:38:03.999Z</time></trkpt><trkpt lat="44.239520763340515" lon="11.056411150542694"><ele>450.0</ele><time>2026-05-02T07:38:04.999Z</time></trkpt><trkpt lat="44.2393914742823" lon="11.056409186102199"><ele>450.0</ele><time>2026-05-02T07:38:05.999Z</time></trkpt><trkpt lat="44.23927545798137" lon="11.056400961931711"><ele>450.0</ele><time>2026-05-02T07:38:06.999Z</time></trkpt><trkpt lat="44.23916396880067" lon="11.056370449230275"><ele>450.0</ele><time>2026-05-02T07:38:07.999Z</time></trkpt><trkpt lat="44.23906949849539" lon="11.056302577308346"><ele>449.5</ele><time>2026-05-02T07:38:08.999Z</time></trkpt><trkpt lat="44.23895826742424" lon="11.056228516947552"><ele>449.0</ele><time>2026-05-02T07:38:09.999Z</time></trkpt><trkpt lat="44.23885200659702" lon="11.056150084223093"><ele>448.5</ele><time>2026-05-02T07:38:10.999Z</time></trkpt><trkpt lat="44.238785945905605" lon="11.056034715507295"><ele>448.0</ele><time>2026-05-02T07:38:11.999Z</time></trkpt><trkpt lat="44.23871072395054" lon="11.055897645477787"><ele>446.0</ele><time>2026-05-02T07:38:12.999Z</time></trkpt><trkpt lat="44.23864238684864" lon="11.055754889255141"><ele>444.0</ele><time>2026-05-02T07:38:13.999Z</time></trkpt><trkpt lat="44.23857918038883" lon="11.055604798461477"><ele>442.0</ele><time>2026-05-02T07:38:14.999Z</time></trkpt><trkpt lat="44.23852934358435" lon="11.05545358385991"><ele>440.0</ele><time>2026-05-02T07:38:15.999Z</time></trkpt><trkpt lat="44.23848078604678" lon="11.055285386089043"><ele>440.0</ele><time>2026-05-02T07:38:16.999Z</time></trkpt><trkpt lat="44.23843313111584" lon="11.055120654303868"><ele>440.0</ele><time>2026-05-02T07:38:17.999Z</time></trkpt><trkpt lat="44.238384544805555" lon="11.054953508584846"><ele>440.0</ele><time>2026-05-02T07:38:18.999Z</time></trkpt><trkpt lat="44.23833662223584" lon="11.05479121526731"><ele>440.0</ele><time>2026-05-02T07:38:19.999Z</time></trkpt><trkpt lat="44.238286215935425" lon="11.054620509222048"><ele>439.25</ele><time>2026-05-02T07:38:20.999Z</time></trkpt><trkpt lat="44.23823825836986" lon="11.054456617043954"><ele>438.5</ele><time>2026-05-02T07:38:21.999Z</time></trkpt><trkpt lat="44.23819369378084" lon="11.054303063590217"><ele>437.75</ele><time>2026-05-02T07:38:23Z</time></trkpt><trkpt lat="44.238148709489444" lon="11.054148063825194"><ele>437.0</ele><time>2026-05-02T07:38:24Z</time></trkpt><trkpt lat="44.2381076331487" lon="11.054006529889078"><ele>433.5</ele><time>2026-05-02T07:38:25Z</time></trkpt><trkpt lat="44.23806076796519" lon="11.053846041745219"><ele>430.0</ele><time>2026-05-02T07:38:26Z</time></trkpt><trkpt lat="44.238006836834295" lon="11.053667327752907"><ele>426.5</ele><time>2026-05-02T07:38:27Z</time></trkpt><trkpt lat="44.2379576264508" lon="11.053504257589854"><ele>423.0</ele><time>2026-05-02T07:38:28Z</time></trkpt><trkpt lat="44.23792122994231" lon="11.053378596778959"><ele>423.0</ele><time>2026-05-02T07:38:29Z</time></trkpt><trkpt lat="44.237899478883115" lon="11.053292317487456"><ele>423.0</ele><time>2026-05-02T07:38:30Z</time></trkpt><trkpt lat="44.23790749264411" lon="11.053178057068932"><ele>423.0</ele><time>2026-05-02T07:38:32Z</time></trkpt><trkpt lat="44.238033052428406" lon="11.053181855159403"><ele>423.0</ele><time>2026-05-02T07:38:34Z</time></trkpt><trkpt lat="44.23811423532601" lon="11.05322914291274"><ele>423.0</ele><time>2026-05-02T07:38:35Z</time></trkpt><trkpt lat="44.23820595042899" lon="11.053279576756474"><ele>425.5</ele><time>2026-05-02T07:38:36Z</time></trkpt><trkpt lat="44.23831091465026" lon="11.05332119848453"><ele>428.0</ele><time>2026-05-02T07:38:37Z</time></trkpt><trkpt lat="44.2384304510911" lon="11.053330614907845"><ele>430.5</ele><time>2026-05-02T07:38:38Z</time></trkpt><trkpt lat="44.23855472408092" lon="11.053340730180613"><ele>433.0</ele><time>2026-05-02T07:38:39Z</time></trkpt><trkpt lat="44.23866285980364" lon="11.053334792831919"><ele>433.0</ele><time>2026-05-02T07:38:40Z</time></trkpt><trkpt lat="44.23873883031428" lon="11.053327407880138"><ele>433.0</ele><time>2026-05-02T07:38:41Z</time></trkpt><trkpt lat="44.238806130391396" lon="11.053349108520527"><ele>433.0</ele><time>2026-05-02T07:38:43Z</time></trkpt><trkpt lat="44.238939074271144" lon="11.052954472425736"><ele>431.25</ele><time>2026-05-02T07:38:46Z</time></trkpt><trkpt lat="44.238989672691744" lon="11.052771461231625"><ele>429.5</ele><time>2026-05-02T07:38:47Z</time></trkpt><trkpt lat="44.239037098135505" lon="11.052621156097059"><ele>427.75</ele><time>2026-05-02T07:38:48Z</time></trkpt><trkpt lat="44.23908992985817" lon="11.052476444823293"><ele>426.0</ele><time>2026-05-02T07:38:49Z</time></trkpt><trkpt lat="44.23914941794192" lon="11.052346285546522"><ele>426.0</ele><time>2026-05-02T07:38:50Z</time></trkpt><trkpt lat="44.23920001622386" lon="11.052264170534714"><ele>426.0</ele><time>2026-05-02T07:38:51Z</time></trkpt><trkpt lat="44.23927383950256" lon="11.052242863665654"><ele>426.0</ele><time>2026-05-02T07:38:55Z</time></trkpt><trkpt lat="44.239387499650945" lon="11.052136623840724"><ele>426.0</ele><time>2026-05-02T07:38:57Z</time></trkpt><trkpt lat="44.239453492446295" lon="11.052249161166413"><ele>426.0</ele><time>2026-05-02T07:38:59Z</time></trkpt><trkpt lat="44.23953218155534" lon="11.052326198868611"><ele>430.4</ele><time>2026-05-02T07:39:00Z</time></trkpt><trkpt lat="44.23962011764955" lon="11.052469813312245"><ele>434.8</ele><time>2026-05-02T07:39:01Z</time></trkpt><trkpt lat="44.239677882391234" lon="11.052529046467434"><ele>439.19999999999993</ele><time>2026-05-02T07:39:02Z</time></trkpt><trkpt lat="44.23972312769617" lon="11.052638773397337"><ele>443.59999999999997</ele><time>2026-05-02T07:39:03Z</time></trkpt><trkpt lat="44.239820791495355" lon="11.052671706310578"><ele>448.0</ele><time>2026-05-02T07:39:05Z</time></trkpt><trkpt lat="44.239908092815696" lon="11.052685063411921"><ele>449.2</ele><time>2026-05-02T07:39:06Z</time></trkpt><trkpt lat="44.23998165580684" lon="11.052680686887848"><ele>450.4</ele><time>2026-05-02T07:39:07Z</time></trkpt><trkpt lat="44.24007488456129" lon="11.052639249808792"><ele>451.59999999999997</ele><time>2026-05-02T07:39:08Z</time></trkpt><trkpt lat="44.240153377979254" lon="11.05261456110236"><ele>452.79999999999995</ele><time>2026-05-02T07:39:09Z</time></trkpt><trkpt lat="44.24029720864484" lon="11.052639523486159"><ele>454.0</ele><time>2026-05-02T07:39:10Z</time></trkpt><trkpt lat="44.240373738365214" lon="11.05264497727615"><ele>454.0</ele><time>2026-05-02T07:39:11Z</time></trkpt><trkpt lat="44.24044673863424" lon="11.052626753846596"><ele>454.0</ele><time>2026-05-02T07:39:12Z</time></trkpt><trkpt lat="44.24052606493852" lon="11.05250190420507"><ele>454.0</ele><time>2026-05-02T07:39:14Z</time></trkpt><trkpt lat="44.2405333533271" lon="11.052396924240988"><ele>454.0</ele><time>2026-05-02T07:39:15Z</time></trkpt><trkpt lat="44.24054823793978" lon="11.052255947006236"><ele>454.0</ele><time>2026-05-02T07:39:16Z</time></trkpt><trkpt lat="44.240560707136765" lon="11.052137482796919"><ele>451.75</ele><time>2026-05-02T07:39:17Z</time></trkpt><trkpt lat="44.24067998594864" lon="11.052075174733291"><ele>449.5</ele><time>2026-05-02T07:39:19Z</time></trkpt><trkpt lat="44.24079272436727" lon="11.052020710210199"><ele>447.25</ele><time>2026-05-02T07:39:20Z</time></trkpt><trkpt lat="44.24090818866597" lon="11.051924259047334"><ele>445.0</ele><time>2026-05-02T07:39:21Z</time></trkpt><trkpt lat="44.240958345360795" lon="11.051803922352633"><ele>445.0</ele><time>2026-05-02T07:39:22Z</time></trkpt><trkpt lat="44.24098965339995" lon="11.051648532117364"><ele>445.0</ele><time>2026-05-02T07:39:23Z</time></trkpt><trkpt lat="44.241031961796764" lon="11.051417885202408"><ele>445.0</ele><time>2026-05-02T07:39:24Z</time></trkpt><trkpt lat="44.241079015763844" lon="11.051223066076851"><ele>445.0</ele><time>2026-05-02T07:39:25Z</time></trkpt><trkpt lat="44.241119114799545" lon="11.051062347228045"><ele>442.2</ele><time>2026-05-02T07:39:26Z</time></trkpt><trkpt lat="44.24114172989446" lon="11.050910808601236"><ele>439.4</ele><time>2026-05-02T07:39:27Z</time></trkpt><trkpt lat="44.241162117108196" lon="11.05076782507303"><ele>436.6</ele><time>2026-05-02T07:39:28Z</time></trkpt><trkpt lat="44.241174879816924" lon="11.05061595461155"><ele>433.8</ele><time>2026-05-02T07:39:29Z</time></trkpt><trkpt lat="44.241169621807416" lon="11.050474986970011"><ele>431.0</ele><time>2026-05-02T07:39:30Z</time></trkpt><trkpt lat="44.241209749520195" lon="11.050340168772255"><ele>431.0</ele><time>2026-05-02T07:39:32Z</time></trkpt><trkpt lat="44.24128426086903" lon="11.050431056486202"><ele>431.0</ele><time>2026-05-02T07:39:34Z</time></trkpt><trkpt lat="44.24131571525749" lon="11.050575227759563"><ele>431.0</ele><time>2026-05-02T07:39:36Z</time></trkpt><trkpt lat="44.241285299336504" lon="11.050720624878462"><ele>431.0</ele><time>2026-05-02T07:39:38Z</time></trkpt><trkpt lat="44.24127577998033" lon="11.050810506126991"><ele>431.0</ele><time>2026-05-02T07:39:39Z</time></trkpt><trkpt lat="44.241276914931326" lon="11.050929150768818"><ele>431.0</ele><time>2026-05-02T07:39:40Z</time></trkpt><trkpt lat="44.24126700727538" lon="11.05111748124398"><ele>431.0</ele><time>2026-05-02T07:39:41Z</time></trkpt><trkpt lat="44.241287631977734" lon="11.051271180310858"><ele>431.0</ele><time>2026-05-02T07:39:42Z</time></trkpt><trkpt lat="44.24132061797324" lon="11.051391716397951"><ele>431.0</ele><time>2026-05-02T07:39:43Z</time></trkpt><trkpt lat="44.241338345202465" lon="11.051515776206116"><ele>431.0</ele><time>2026-05-02T07:39:44Z</time></trkpt><trkpt lat="44.24136595868573" lon="11.051655663278082"><ele>433.3333333333333</ele><time>2026-05-02T07:39:45Z</time></trkpt><trkpt lat="44.24140228314493" lon="11.051753403980175"><ele>435.66666666666663</ele><time>2026-05-02T07:39:46Z</time></trkpt><trkpt lat="44.24147366546494" lon="11.051829999065614"><ele>438.0</ele><time>2026-05-02T07:39:47Z</time></trkpt><trkpt lat="44.241546257489794" lon="11.051883883097785"><ele>440.33333333333337</ele><time>2026-05-02T07:39:48Z</time></trkpt><trkpt lat="44.241623565165405" lon="11.051916532939105"><ele>442.6666666666667</ele><time>2026-05-02T07:39:49Z</time></trkpt><trkpt lat="44.24170515210692" lon="11.051921942727006"><ele>445.0</ele><time>2026-05-02T07:39:50Z</time></trkpt><trkpt lat="44.24182455390976" lon="11.051932992366638"><ele>448.0</ele><time>2026-05-02T07:39:51Z</time></trkpt><trkpt lat="44.2419578188444" lon="11.051933700288126"><ele>451.0</ele><time>2026-05-02T07:39:52Z</time></trkpt><trkpt lat="44.24207069814033" lon="11.051942454820802"><ele>454.0</ele><time>2026-05-02T07:39:53Z</time></trkpt><trkpt lat="44.24217586552025" lon="11.05194412939688"><ele>457.0</ele><time>2026-05-02T07:39:54Z</time></trkpt><trkpt lat="44.242302546865346" lon="11.051770892360631"><ele>457.0</ele><time>2026-05-02T07:39:56Z</time></trkpt><trkpt lat="44.24242908788868" lon="11.05167158493745"><ele>457.0</ele><time>2026-05-02T07:39:57Z</time></trkpt><trkpt lat="44.24257330856741" lon="11.051555645138594"><ele>457.0</ele><time>2026-05-02T07:39:58Z</time></trkpt><trkpt lat="44.24268988580799" lon="11.051463457714298"><ele>457.0</ele><time>2026-05-02T07:39:59Z</time></trkpt><trkpt lat="44.242771015007946" lon="11.05135893824056"><ele>458.0</ele><time>2026-05-02T07:40:00Z</time></trkpt><trkpt lat="44.24284743032493" lon="11.05126618450404"><ele>459.00000000000006</ele><time>2026-05-02T07:40:01Z</time></trkpt><trkpt lat="44.24292572816709" lon="11.051215645676313"><ele>460.00000000000006</ele><time>2026-05-02T07:40:02Z</time></trkpt><trkpt lat="44.24306322636971" lon="11.05112628017076"><ele>461.0</ele><time>2026-05-02T07:40:03Z</time></trkpt><trkpt lat="44.243151629542055" lon="11.051089485208442"><ele>462.0</ele><time>2026-05-02T07:40:04Z</time></trkpt><trkpt lat="44.24322688436706" lon="11.051007833585809"><ele>462.0</ele><time>2026-05-02T07:40:06Z</time></trkpt><trkpt lat="44.243302399925945" lon="11.05088010900382"><ele>462.00000000000006</ele><time>2026-05-02T07:40:07Z</time></trkpt><trkpt lat="44.24334630326516" lon="11.050772965373827"><ele>462.00000000000006</ele><time>2026-05-02T07:40:08Z</time></trkpt><trkpt lat="44.24338263015203" lon="11.050636239323756"><ele>462.0</ele><time>2026-05-02T07:40:09Z</time></trkpt><trkpt lat="44.24341954389135" lon="11.050497605834735"><ele>462.0</ele><time>2026-05-02T07:40:10Z</time></trkpt><trkpt lat="44.2434548097709" lon="11.050326593452304"><ele>457.6</ele><time>2026-05-02T07:40:11Z</time></trkpt><trkpt lat="44.24349631721368" lon="11.050185067281344"><ele>453.20000000000005</ele><time>2026-05-02T07:40:12Z</time></trkpt><trkpt lat="44.24360302118829" lon="11.050134366158106"><ele>448.8</ele><time>2026-05-02T07:40:15Z</time></trkpt><trkpt lat="44.24369119455534" lon="11.050101306000562"><ele>444.4</ele><time>2026-05-02T07:40:16Z</time></trkpt><trkpt lat="44.24380684416087" lon="11.05006826416011"><ele>440.0</ele><time>2026-05-02T07:40:17Z</time></trkpt><trkpt lat="44.243904008654184" lon="11.050044032482978"><ele>443.8</ele><time>2026-05-02T07:40:18Z</time></trkpt><trkpt lat="44.244043992726674" lon="11.05007482973421"><ele>447.6</ele><time>2026-05-02T07:40:20Z</time></trkpt><trkpt lat="44.24414623052042" lon="11.050123313975764"><ele>451.4</ele><time>2026-05-02T07:40:21Z</time></trkpt><trkpt lat="44.24425433823268" lon="11.050195926713537"><ele>455.2</ele><time>2026-05-02T07:40:22Z</time></trkpt><trkpt lat="44.24432748563504" lon="11.050238818218578"><ele>459.0</ele><time>2026-05-02T07:40:23Z</time></trkpt><trkpt lat="44.24439014401676" lon="11.050252973841161"><ele>459.0</ele><time>2026-05-02T07:40:24Z</time></trkpt><trkpt lat="44.24452248081114" lon="11.050151667242258"><ele>459.0</ele><time>2026-05-02T07:40:26Z</time></trkpt><trkpt lat="44.24459644761469" lon="11.050070969649008"><ele>459.0</ele><time>2026-05-02T07:40:27Z</time></trkpt><trkpt lat="44.24465983509337" lon="11.050062021526495"><ele>459.0</ele><time>2026-05-02T07:40:28Z</time></trkpt><trkpt lat="44.244761748916346" lon="11.050052388832695"><ele>459.0</ele><time>2026-05-02T07:40:29Z</time></trkpt><trkpt lat="44.2449019096105" lon="11.050046090372694"><ele>460.2</ele><time>2026-05-02T07:40:30Z</time></trkpt><trkpt lat="44.245031057047825" lon="11.050057512631287"><ele>461.4</ele><time>2026-05-02T07:40:31Z</time></trkpt><trkpt lat="44.245096665215144" lon="11.050058565565271"><ele>462.6</ele><time>2026-05-02T07:40:32Z</time></trkpt><trkpt lat="44.245176842040244" lon="11.049937145998777"><ele>463.8</ele><time>2026-05-02T07:40:34Z</time></trkpt><trkpt lat="44.24523794488691" lon="11.049789469067468"><ele>465.0</ele><time>2026-05-02T07:40:35Z</time></trkpt><trkpt lat="44.24528667406206" lon="11.049678928447356"><ele>462.5</ele><time>2026-05-02T07:40:36Z</time></trkpt><trkpt lat="44.245343109241944" lon="11.04958645841823"><ele>460.0</ele><time>2026-05-02T07:40:37Z</time></trkpt><trkpt lat="44.245392196877546" lon="11.049500704841016"><ele>457.5</ele><time>2026-05-02T07:40:38Z</time></trkpt><trkpt lat="44.24535023560222" lon="11.049433799449266"><ele>455.0</ele><time>2026-05-02T07:40:40Z</time></trkpt><trkpt lat="44.245287199483265" lon="11.049392861566181"><ele>452.5</ele><time>2026-05-02T07:40:41Z</time></trkpt><trkpt lat="44.245203143381204" lon="11.049349117877096"><ele>450.0</ele><time>2026-05-02T07:40:42Z</time></trkpt><trkpt lat="44.24513558624491" lon="11.04922162882194"><ele>449.5</ele><time>2026-05-02T07:40:44Z</time></trkpt><trkpt lat="44.245090817943215" lon="11.049093639636244"><ele>449.0</ele><time>2026-05-02T07:40:45Z</time></trkpt><trkpt lat="44.24506733921236" lon="11.048998053645436"><ele>448.5</ele><time>2026-05-02T07:40:46Z</time></trkpt><trkpt lat="44.24509614228723" lon="11.048874793239703"><ele>448.0</ele><time>2026-05-02T07:40:48Z</time></trkpt><trkpt lat="44.24512852248695" lon="11.048779217229562"><ele>447.5</ele><time>2026-05-02T07:40:49Z</time></trkpt><trkpt lat="44.2451392469861" lon="11.04866186945023"><ele>447.0</ele><time>2026-05-02T07:40:50Z</time></trkpt><trkpt lat="44.24513096273975" lon="11.048563080154592"><ele>447.0</ele><time>2026-05-02T07:40:51Z</time></trkpt><trkpt lat="44.245145111389704" lon="11.048409989702348"><ele>447.00000000000006</ele><time>2026-05-02T07:40:53Z</time></trkpt><trkpt lat="44.24515371207439" lon="11.048301537952488"><ele>447.00000000000006</ele><time>2026-05-02T07:40:54Z</time></trkpt><trkpt lat="44.24516870293169" lon="11.048148615205138"><ele>447.0</ele><time>2026-05-02T07:40:55Z</time></trkpt><trkpt lat="44.24518175620227" lon="11.048005310337755"><ele>447.0</ele><time>2026-05-02T07:40:56Z</time></trkpt><trkpt lat="44.24519230957455" lon="11.047882619821907"><ele>447.0</ele><time>2026-05-02T07:40:58Z</time></trkpt><trkpt lat="44.245197712327894" lon="11.047793306160731"><ele>447.00000000000006</ele><time>2026-05-02T07:41:00Z</time></trkpt><trkpt lat="44.24519266580534" lon="11.047673470249315"><ele>447.00000000000006</ele><time>2026-05-02T07:41:02Z</time></trkpt><trkpt lat="44.245181409764875" lon="11.047519089818175"><ele>447.0</ele><time>2026-05-02T07:41:04Z</time></trkpt><trkpt lat="44.24522610738079" lon="11.047316339951516"><ele>447.0</ele><time>2026-05-02T07:41:06Z</time></trkpt><trkpt lat="44.245207048825016" lon="11.047228351524224"><ele>451.0</ele><time>2026-05-02T07:41:07Z</time></trkpt><trkpt lat="44.245184792819614" lon="11.047125598828964"><ele>455.00000000000006</ele><time>2026-05-02T07:41:08Z</time></trkpt><trkpt lat="44.24516545577682" lon="11.047014459280632"><ele>459.00000000000006</ele><time>2026-05-02T07:41:09Z</time></trkpt><trkpt lat="44.245138919613765" lon="11.046889199217253"><ele>463.0</ele><time>2026-05-02T07:41:10Z</time></trkpt><trkpt lat="44.24509278534798" lon="11.046746546803679"><ele>467.0</ele><time>2026-05-02T07:41:11Z</time></trkpt><trkpt lat="44.245027083462496" lon="11.046590826245772"><ele>464.6</ele><time>2026-05-02T07:41:12Z</time></trkpt><trkpt lat="44.24495336648079" lon="11.04644261173286"><ele>462.20000000000005</ele><time>2026-05-02T07:41:13Z</time></trkpt><trkpt lat="44.244871704914935" lon="11.046321837937976"><ele>459.8</ele><time>2026-05-02T07:41:14Z</time></trkpt><trkpt lat="44.24481590880255" lon="11.046238532594046"><ele>457.4</ele><time>2026-05-02T07:41:15Z</time></trkpt><trkpt lat="44.24478858004948" lon="11.046158270230896"><ele>455.0</ele><time>2026-05-02T07:41:16Z</time></trkpt><trkpt lat="44.24478153799052" lon="11.045981671371912"><ele>455.0</ele><time>2026-05-02T07:41:18Z</time></trkpt><trkpt lat="44.24478524788427" lon="11.045837432909376"><ele>455.0</ele><time>2026-05-02T07:41:19Z</time></trkpt><trkpt lat="44.244777143214826" lon="11.04570536175073"><ele>455.0</ele><time>2026-05-02T07:41:20Z</time></trkpt><trkpt lat="44.24468572551756" lon="11.045565026770122"><ele>455.0</ele><time>2026-05-02T07:41:21Z</time></trkpt><trkpt lat="44.24461049156558" lon="11.045468104362188"><ele>455.0</ele><time>2026-05-02T07:41:22Z</time></trkpt><trkpt lat="44.244557596156405" lon="11.045389846824559"><ele>456.0</ele><time>2026-05-02T07:41:23Z</time></trkpt><trkpt lat="44.24455256868692" lon="11.0452541339045"><ele>457.0</ele><time>2026-05-02T07:41:26Z</time></trkpt><trkpt lat="44.24462343829779" lon="11.045134267433925"><ele>458.0</ele><time>2026-05-02T07:41:28Z</time></trkpt><trkpt lat="44.244675941084566" lon="11.045058689838921"><ele>459.0</ele><time>2026-05-02T07:41:29Z</time></trkpt><trkpt lat="44.24472351004822" lon="11.044964562773124"><ele>460.0</ele><time>2026-05-02T07:41:30Z</time></trkpt><trkpt lat="44.24479713503126" lon="11.044879752298549"><ele>461.0</ele><time>2026-05-02T07:41:31Z</time></trkpt><trkpt lat="44.244876264411495" lon="11.044767438448948"><ele>462.0</ele><time>2026-05-02T07:41:32Z</time></trkpt><trkpt lat="44.24497513072076" lon="11.044642555370984"><ele>463.0</ele><time>2026-05-02T07:41:33Z</time></trkpt><trkpt lat="44.245074390292075" lon="11.044547658322532"><ele>464.0</ele><time>2026-05-02T07:41:34Z</time></trkpt><trkpt lat="44.24517520550705" lon="11.044478347488194"><ele>464.0</ele><time>2026-05-02T07:41:35Z</time></trkpt><trkpt lat="44.245263959952354" lon="11.0444108458781"><ele>464.0</ele><time>2026-05-02T07:41:36Z</time></trkpt><trkpt lat="44.24535112900204" lon="11.04437162517387"><ele>464.0</ele><time>2026-05-02T07:41:37Z</time></trkpt><trkpt lat="44.24542802999276" lon="11.04434547714014"><ele>464.0</ele><time>2026-05-02T07:41:38Z</time></trkpt><trkpt lat="44.24553718062264" lon="11.04434912253325"><ele>464.0</ele><time>2026-05-02T07:41:39Z</time></trkpt><trkpt lat="44.24565794005056" lon="11.04436733004085"><ele>465.2</ele><time>2026-05-02T07:41:40Z</time></trkpt><trkpt lat="44.24581155481781" lon="11.044348655690978"><ele>466.4</ele><time>2026-05-02T07:41:41Z</time></trkpt><trkpt lat="44.24590727078369" lon="11.04433112721378"><ele>467.6</ele><time>2026-05-02T07:41:42Z</time></trkpt><trkpt lat="44.24598954839765" lon="11.044296327778103"><ele>468.8</ele><time>2026-05-02T07:41:44Z</time></trkpt><trkpt lat="44.246020950131054" lon="11.044166689675006"><ele>470.0</ele><time>2026-05-02T07:41:45Z</time></trkpt><trkpt lat="44.245881300397166" lon="11.044059325564193"><ele>470.0</ele><time>2026-05-02T07:41:46Z</time></trkpt><trkpt lat="44.24577937549692" lon="11.04398833863298"><ele>470.0</ele><time>2026-05-02T07:41:47Z</time></trkpt><trkpt lat="44.245673013449625" lon="11.043884353627972"><ele>470.0</ele><time>2026-05-02T07:41:48Z</time></trkpt><trkpt lat="44.245581878859554" lon="11.043774862062088"><ele>470.0</ele><time>2026-05-02T07:41:49Z</time></trkpt><trkpt lat="44.245479482301405" lon="11.043711508180143"><ele>466.6</ele><time>2026-05-02T07:41:50Z</time></trkpt><trkpt lat="44.245391397610994" lon="11.043677186862547"><ele>463.2</ele><time>2026-05-02T07:41:51Z</time></trkpt><trkpt lat="44.24530575163845" lon="11.043615234082239"><ele>459.79999999999995</ele><time>2026-05-02T07:41:53Z</time></trkpt><trkpt lat="44.24538123570539" lon="11.04353037018562"><ele>456.4</ele><time>2026-05-02T07:41:55Z</time></trkpt><trkpt lat="44.245437984989884" lon="11.043431180175773"><ele>453.0</ele><time>2026-05-02T07:41:56Z</time></trkpt><trkpt lat="44.2455024089616" lon="11.043372213044645"><ele>455.0</ele><time>2026-05-02T07:41:57Z</time></trkpt><trkpt lat="44.24563474937332" lon="11.043346708254868"><ele>457.0</ele><time>2026-05-02T07:41:59Z</time></trkpt><trkpt lat="44.245759747012684" lon="11.043334765267446"><ele>459.0</ele><time>2026-05-02T07:42:00Z</time></trkpt><trkpt lat="44.245898053727466" lon="11.043308469649055"><ele>461.0</ele><time>2026-05-02T07:42:01Z</time></trkpt><trkpt lat="44.24599710885731" lon="11.043253408608916"><ele>460.99999999999994</ele><time>2026-05-02T07:42:02Z</time></trkpt><trkpt lat="44.24607932447928" lon="11.043191589887206"><ele>461.0</ele><time>2026-05-02T07:42:03Z</time></trkpt><trkpt lat="44.24616258614897" lon="11.043123393218822"><ele>461.0</ele><time>2026-05-02T07:42:04Z</time></trkpt><trkpt lat="44.24623641518733" lon="11.043060481586656"><ele>461.0</ele><time>2026-05-02T07:42:05Z</time></trkpt><trkpt lat="44.24627097530019" lon="11.042955647701397"><ele>460.99999999999994</ele><time>2026-05-02T07:42:06Z</time></trkpt><trkpt lat="44.24625995741093" lon="11.042834977250335"><ele>461.0</ele><time>2026-05-02T07:42:07Z</time></trkpt><trkpt lat="44.246228676258184" lon="11.042750468194058"><ele>461.0</ele><time>2026-05-02T07:42:08Z</time></trkpt><trkpt lat="44.24628501129954" lon="11.042818864732967"><ele>461.0</ele><time>2026-05-02T07:42:11Z</time></trkpt><trkpt lat="44.24634718642884" lon="11.042911714644948"><ele>461.0</ele><time>2026-05-02T07:42:12Z</time></trkpt><trkpt lat="44.246428100491016" lon="11.042902580337945"><ele>461.0</ele><time>2026-05-02T07:42:14Z</time></trkpt><trkpt lat="44.24651629306479" lon="11.042798054271843"><ele>461.0</ele><time>2026-05-02T07:42:16Z</time></trkpt><trkpt lat="44.24657970671027" lon="11.042710418493721"><ele>463.75</ele><time>2026-05-02T07:42:17Z</time></trkpt><trkpt lat="44.246685727920024" lon="11.042595371688526"><ele>466.5</ele><time>2026-05-02T07:42:18Z</time></trkpt><trkpt lat="44.246800029272144" lon="11.04246928477971"><ele>469.25</ele><time>2026-05-02T07:42:19Z</time></trkpt><trkpt lat="44.24690322551982" lon="11.042338965235256"><ele>472.0</ele><time>2026-05-02T07:42:20Z</time></trkpt><trkpt lat="44.2469973663444" lon="11.042227815122319"><ele>472.0</ele><time>2026-05-02T07:42:21Z</time></trkpt><trkpt lat="44.247095093991454" lon="11.042072361627035"><ele>472.0</ele><time>2026-05-02T07:42:22Z</time></trkpt><trkpt lat="44.2471963704975" lon="11.041923831009417"><ele>472.0</ele><time>2026-05-02T07:42:23Z</time></trkpt><trkpt lat="44.2472854275841" lon="11.04178595886438"><ele>472.0</ele><time>2026-05-02T07:42:24Z</time></trkpt><trkpt lat="44.247378341469876" lon="11.041652789974036"><ele>476.25</ele><time>2026-05-02T07:42:25Z</time></trkpt><trkpt lat="44.24746275643638" lon="11.041526698712534"><ele>480.5</ele><time>2026-05-02T07:42:26Z</time></trkpt><trkpt lat="44.247541645549376" lon="11.041431181046676"><ele>484.75</ele><time>2026-05-02T07:42:27Z</time></trkpt><trkpt lat="44.247625442738205" lon="11.041367251711176"><ele>489.0</ele><time>2026-05-02T07:42:28Z</time></trkpt><trkpt lat="44.24774220730225" lon="11.041301041394227"><ele>489.0</ele><time>2026-05-02T07:42:29Z</time></trkpt><trkpt lat="44.24782994286762" lon="11.041264620049835"><ele>489.0</ele><time>2026-05-02T07:42:30Z</time></trkpt><trkpt lat="44.24790784512511" lon="11.041216946917764"><ele>489.0</ele><time>2026-05-02T07:42:31Z</time></trkpt><trkpt lat="44.24795447395756" lon="11.04110814592757"><ele>489.0</ele><time>2026-05-02T07:42:33Z</time></trkpt><trkpt lat="44.24800532795337" lon="11.040985256170122"><ele>489.0</ele><time>2026-05-02T07:42:34Z</time></trkpt><trkpt lat="44.248063927572744" lon="11.040875034053007"><ele>489.0</ele><time>2026-05-02T07:42:35Z</time></trkpt><trkpt lat="44.24812437309297" lon="11.040734540315762"><ele>489.0</ele><time>2026-05-02T07:42:36Z</time></trkpt><trkpt lat="44.24819071215161" lon="11.040666238862459"><ele>489.0</ele><time>2026-05-02T07:42:37Z</time></trkpt><trkpt lat="44.24826562961932" lon="11.040620716796225"><ele>489.0</ele><time>2026-05-02T07:42:38Z</time></trkpt><trkpt lat="44.24833238564145" lon="11.040619316777109"><ele>489.0</ele><time>2026-05-02T07:42:39Z</time></trkpt><trkpt lat="44.2484219269872" lon="11.040579598304376"><ele>489.0</ele><time>2026-05-02T07:42:40Z</time></trkpt><trkpt lat="44.248503517227235" lon="11.040530007818127"><ele>491.6666666666667</ele><time>2026-05-02T07:42:41Z</time></trkpt><trkpt lat="44.24851322721497" lon="11.040437486499334"><ele>494.33333333333337</ele><time>2026-05-02T07:42:43Z</time></trkpt><trkpt lat="44.24853193333508" lon="11.040338805238608"><ele>497.0</ele><time>2026-05-02T07:42:45Z</time></trkpt><trkpt lat="44.248562364789905" lon="11.040249439190791"><ele>499.6666666666667</ele><time>2026-05-02T07:42:46Z</time></trkpt><trkpt lat="44.24855284406894" lon="11.040114222820376"><ele>502.33333333333337</ele><time>2026-05-02T07:42:47Z</time></trkpt><trkpt lat="44.248506370266966" lon="11.039937603407981"><ele>505.0</ele><time>2026-05-02T07:42:48Z</time></trkpt><trkpt lat="44.24844714046" lon="11.039755946103375"><ele>506.6666666666667</ele><time>2026-05-02T07:42:49Z</time></trkpt><trkpt lat="44.248392620317226" lon="11.039561191548966"><ele>508.33333333333337</ele><time>2026-05-02T07:42:50Z</time></trkpt><trkpt lat="44.24835443796332" lon="11.039365547202854"><ele>510.0</ele><time>2026-05-02T07:42:51Z</time></trkpt><trkpt lat="44.24831132906328" lon="11.039153409999484"><ele>511.25</ele><time>2026-05-02T07:42:52Z</time></trkpt><trkpt lat="44.2482572224558" lon="11.038971414437576"><ele>512.5</ele><time>2026-05-02T07:42:53Z</time></trkpt><trkpt lat="44.2482088293014" lon="11.0387932916573"><ele>513.75</ele><time>2026-05-02T07:42:54Z</time></trkpt><trkpt lat="44.24816954638112" lon="11.038637068678348"><ele>515.0</ele><time>2026-05-02T07:42:55Z</time></trkpt><trkpt lat="44.248138825316076" lon="11.038533696888416"><ele>515.0</ele><time>2026-05-02T07:42:56Z</time></trkpt><trkpt lat="44.248185109531505" lon="11.038333032285184"><ele>515.0</ele><time>2026-05-02T07:42:58Z</time></trkpt><trkpt lat="44.24818454776388" lon="11.038184671655594"><ele>515.0</ele><time>2026-05-02T07:42:59Z</time></trkpt><trkpt lat="44.24818487110582" lon="11.03800736314414"><ele>515.0</ele><time>2026-05-02T07:43:00Z</time></trkpt><trkpt lat="44.248185357494805" lon="11.03782793336802"><ele>516.0</ele><time>2026-05-02T07:43:01Z</time></trkpt><trkpt lat="44.2481862204942" lon="11.037653577032069"><ele>517.0</ele><time>2026-05-02T07:43:02Z</time></trkpt><trkpt lat="44.248187337144614" lon="11.037480573339474"><ele>518.0</ele><time>2026-05-02T07:43:03Z</time></trkpt><trkpt lat="44.24818832133226" lon="11.037328092088588"><ele>519.0</ele><time>2026-05-02T07:43:04Z</time></trkpt><trkpt lat="44.24818101377592" lon="11.037177407154493"><ele>520.6</ele><time>2026-05-02T07:43:05Z</time></trkpt><trkpt lat="44.24815210508991" lon="11.037040760933843"><ele>522.2</ele><time>2026-05-02T07:43:06Z</time></trkpt><trkpt lat="44.24810047859653" lon="11.036903423418144"><ele>523.8000000000001</ele><time>2026-05-02T07:43:07Z</time></trkpt><trkpt lat="44.24803309528947" lon="11.036792864560606"><ele>525.4</ele><time>2026-05-02T07:43:08Z</time></trkpt><trkpt lat="44.247984642940395" lon="11.036707452873973"><ele>527.0</ele><time>2026-05-02T07:43:09Z</time></trkpt><trkpt lat="44.24792334125902" lon="11.036601102593645"><ele>526.0</ele><time>2026-05-02T07:43:11Z</time></trkpt><trkpt lat="44.24804518722669" lon="11.036472707594484"><ele>525.0</ele><time>2026-05-02T07:43:16Z</time></trkpt><trkpt lat="44.24812698176919" lon="11.036465362289185"><ele>524.0</ele><time>2026-05-02T07:43:17Z</time></trkpt><trkpt lat="44.248223118129175" lon="11.036517226856216"><ele>523.0</ele><time>2026-05-02T07:43:18Z</time></trkpt><trkpt lat="44.24833635526033" lon="11.036608072507068"><ele>524.3333333333334</ele><time>2026-05-02T07:43:19Z</time></trkpt><trkpt lat="44.24843736291998" lon="11.036741035035055"><ele>525.6666666666666</ele><time>2026-05-02T07:43:20Z</time></trkpt><trkpt lat="44.24856140283047" lon="11.036901550999028"><ele>527.0</ele><time>2026-05-02T07:43:21Z</time></trkpt><trkpt lat="44.24867956822397" lon="11.037035079716913"><ele>527.0</ele><time>2026-05-02T07:43:22Z</time></trkpt><trkpt lat="44.248777551257675" lon="11.037143274321066"><ele>527.0</ele><time>2026-05-02T07:43:23Z</time></trkpt><trkpt lat="44.248873290692224" lon="11.037191232237879"><ele>527.0</ele><time>2026-05-02T07:43:24Z</time></trkpt><trkpt lat="44.24898594685328" lon="11.037195762732933"><ele>527.0</ele><time>2026-05-02T07:43:25Z</time></trkpt><trkpt lat="44.24911699410852" lon="11.037181463080492"><ele>532.75</ele><time>2026-05-02T07:43:26Z</time></trkpt><trkpt lat="44.249243739486985" lon="11.03717785335979"><ele>538.5</ele><time>2026-05-02T07:43:27Z</time></trkpt><trkpt lat="44.249353235187264" lon="11.03722130153282"><ele>544.25</ele><time>2026-05-02T07:43:28Z</time></trkpt><trkpt lat="44.24944577771908" lon="11.037315364025906"><ele>550.0</ele><time>2026-05-02T07:43:29Z</time></trkpt><trkpt lat="44.24953821608117" lon="11.03742979839192"><ele>547.0</ele><time>2026-05-02T07:43:30Z</time></trkpt><trkpt lat="44.24964363645051" lon="11.037537102871319"><ele>544.0</ele><time>2026-05-02T07:43:31Z</time></trkpt><trkpt lat="44.249751466545625" lon="11.03763148238603"><ele>541.0</ele><time>2026-05-02T07:43:32Z</time></trkpt><trkpt lat="44.24985345310165" lon="11.037742770377585"><ele>538.0</ele><time>2026-05-02T07:43:33Z</time></trkpt><trkpt lat="44.24994089615551" lon="11.037881464499272"><ele>544.75</ele><time>2026-05-02T07:43:34Z</time></trkpt><trkpt lat="44.249997198920454" lon="11.038038979722856"><ele>551.5</ele><time>2026-05-02T07:43:35Z</time></trkpt><trkpt lat="44.250037500995425" lon="11.03819786686181"><ele>558.25</ele><time>2026-05-02T07:43:36Z</time></trkpt><trkpt lat="44.25004843002216" lon="11.038340468946261"><ele>565.0</ele><time>2026-05-02T07:43:37Z</time></trkpt><trkpt lat="44.25000016267195" lon="11.03847950878469"><ele>565.0</ele><time>2026-05-02T07:43:38Z</time></trkpt><trkpt lat="44.24998199711948" lon="11.038604808154846"><ele>565.0</ele><time>2026-05-02T07:43:39Z</time></trkpt><trkpt lat="44.250013012952195" lon="11.038722129088749"><ele>565.0</ele><time>2026-05-02T07:43:40Z</time></trkpt><trkpt lat="44.25005908627175" lon="11.038832813116711"><ele>565.0</ele><time>2026-05-02T07:43:41Z</time></trkpt><trkpt lat="44.25009972495791" lon="11.038961205717985"><ele>565.0</ele><time>2026-05-02T07:43:42Z</time></trkpt><trkpt lat="44.250075812700175" lon="11.039099642072367"><ele>565.0</ele><time>2026-05-02T07:43:43Z</time></trkpt><trkpt lat="44.25003222544271" lon="11.039228114180245"><ele>565.0</ele><time>2026-05-02T07:43:44Z</time></trkpt><trkpt lat="44.250047226521104" lon="11.039320182183976"><ele>565.0</ele><time>2026-05-02T07:43:45Z</time></trkpt><trkpt lat="44.25015935843284" lon="11.039345370058017"><ele>565.0</ele><time>2026-05-02T07:43:47Z</time></trkpt><trkpt lat="44.25023144962365" lon="11.03928282954931"><ele>565.0</ele><time>2026-05-02T07:43:48Z</time></trkpt><trkpt lat="44.250255039303944" lon="11.039133825807605"><ele>565.0</ele><time>2026-05-02T07:43:49Z</time></trkpt><trkpt lat="44.25027553449389" lon="11.03904938296029"><ele>565.0</ele><time>2026-05-02T07:43:50Z</time></trkpt><trkpt lat="44.250299358134846" lon="11.03895553488347"><ele>565.0</ele><time>2026-05-02T07:43:51Z</time></trkpt><trkpt lat="44.25033365411508" lon="11.03882043333013"><ele>565.0</ele><time>2026-05-02T07:43:52Z</time></trkpt><trkpt lat="44.250377147667606" lon="11.038660774785539"><ele>565.0</ele><time>2026-05-02T07:43:53Z</time></trkpt><trkpt lat="44.25041990712992" lon="11.038546382324625"><ele>565.0</ele><time>2026-05-02T07:43:54Z</time></trkpt><trkpt lat="44.25049127761837" lon="11.038482076454065"><ele>565.0</ele><time>2026-05-02T07:43:55Z</time></trkpt><trkpt lat="44.250592649421" lon="11.038396267812708"><ele>565.0</ele><time>2026-05-02T07:43:56Z</time></trkpt><trkpt lat="44.25065980052781" lon="11.038287665495744"><ele>565.0</ele><time>2026-05-02T07:43:57Z</time></trkpt><trkpt lat="44.2506938515263" lon="11.038165646853999"><ele>565.0</ele><time>2026-05-02T07:43:58Z</time></trkpt><trkpt lat="44.25065236468811" lon="11.037992665377246"><ele>577.0</ele><time>2026-05-02T07:43:59Z</time></trkpt><trkpt lat="44.250637569731836" lon="11.037837599868478"><ele>589.0</ele><time>2026-05-02T07:44:00Z</time></trkpt><trkpt lat="44.25063591774089" lon="11.03765500059559"><ele>601.0</ele><time>2026-05-02T07:44:01Z</time></trkpt><trkpt lat="44.25063939558997" lon="11.03746568908814"><ele>613.0</ele><time>2026-05-02T07:44:02Z</time></trkpt><trkpt lat="44.25062807369044" lon="11.037264956802451"><ele>606.5</ele><time>2026-05-02T07:44:03Z</time></trkpt><trkpt lat="44.25059619214615" lon="11.037068047322077"><ele>600.0</ele><time>2026-05-02T07:44:04Z</time></trkpt><trkpt lat="44.25055721942619" lon="11.036873280549722"><ele>593.5</ele><time>2026-05-02T07:44:05Z</time></trkpt><trkpt lat="44.25050333894962" lon="11.036701032786095"><ele>587.0</ele><time>2026-05-02T07:44:06Z</time></trkpt><trkpt lat="44.2504799728239" lon="11.036560331181898"><ele>587.0</ele><time>2026-05-02T07:44:07Z</time></trkpt><trkpt lat="44.25049892934734" lon="11.036424833712369"><ele>587.0</ele><time>2026-05-02T07:44:08Z</time></trkpt><trkpt lat="44.25053269299506" lon="11.036259721753991"><ele>587.0</ele><time>2026-05-02T07:44:09Z</time></trkpt><trkpt lat="44.2505621636941" lon="11.036098981075776"><ele>587.0</ele><time>2026-05-02T07:44:10Z</time></trkpt><trkpt lat="44.250577248232474" lon="11.035978838478291"><ele>587.0</ele><time>2026-05-02T07:44:11Z</time></trkpt><trkpt lat="44.250672467706714" lon="11.036012114580005"><ele>593.8000000000001</ele><time>2026-05-02T07:44:14Z</time></trkpt><trkpt lat="44.25068853325827" lon="11.036128268740477"><ele>600.6</ele><time>2026-05-02T07:44:15Z</time></trkpt><trkpt lat="44.250658658904946" lon="11.036267852051012"><ele>607.4000000000001</ele><time>2026-05-02T07:44:16Z</time></trkpt><trkpt lat="44.25065680872342" lon="11.03643043086575"><ele>614.2</ele><time>2026-05-02T07:44:17Z</time></trkpt><trkpt lat="44.25064409188516" lon="11.036627348922552"><ele>621.0</ele><time>2026-05-02T07:44:18Z</time></trkpt><trkpt lat="44.25064947540668" lon="11.0368316712698"><ele>621.6666666666666</ele><time>2026-05-02T07:44:19Z</time></trkpt><trkpt lat="44.2506758693171" lon="11.037030605744011"><ele>622.3333333333333</ele><time>2026-05-02T07:44:20Z</time></trkpt><trkpt lat="44.25072811413587" lon="11.037228806692852"><ele>623.0</ele><time>2026-05-02T07:44:21Z</time></trkpt><trkpt lat="44.25079216914145" lon="11.03742482051475"><ele>619.6666666666666</ele><time>2026-05-02T07:44:22Z</time></trkpt><trkpt lat="44.250858657711184" lon="11.037630775364367"><ele>616.3333333333334</ele><time>2026-05-02T07:44:23Z</time></trkpt><trkpt lat="44.25093359797695" lon="11.037830871873616"><ele>613.0</ele><time>2026-05-02T07:44:24Z</time></trkpt><trkpt lat="44.25101344624299" lon="11.038006117203334"><ele>613.0</ele><time>2026-05-02T07:44:25Z</time></trkpt><trkpt lat="44.25109347900851" lon="11.038177855861758"><ele>613.0</ele><time>2026-05-02T07:44:26Z</time></trkpt><trkpt lat="44.25108480721907" lon="11.038337609241783"><ele>613.0</ele><time>2026-05-02T07:44:27Z</time></trkpt><trkpt lat="44.25106356408711" lon="11.038455352911413"><ele>613.0</ele><time>2026-05-02T07:44:28Z</time></trkpt><trkpt lat="44.25098722081368" lon="11.03857149650933"><ele>612.8</ele><time>2026-05-02T07:44:29Z</time></trkpt><trkpt lat="44.25092964792034" lon="11.038709029689397"><ele>612.5999999999999</ele><time>2026-05-02T07:44:30Z</time></trkpt><trkpt lat="44.2508834377848" lon="11.038834785113323"><ele>612.4000000000001</ele><time>2026-05-02T07:44:31Z</time></trkpt><trkpt lat="44.250879011254526" lon="11.038962345721766"><ele>612.2</ele><time>2026-05-02T07:44:32Z</time></trkpt><trkpt lat="44.250916868305985" lon="11.03911248763485"><ele>612.0</ele><time>2026-05-02T07:44:33Z</time></trkpt><trkpt lat="44.25098761145982" lon="11.039247385542707"><ele>612.0</ele><time>2026-05-02T07:44:34Z</time></trkpt><trkpt lat="44.2510328557229" lon="11.039403599602124"><ele>612.0</ele><time>2026-05-02T07:44:35Z</time></trkpt><trkpt lat="44.2510607307912" lon="11.039583506813104"><ele>612.0</ele><time>2026-05-02T07:44:36Z</time></trkpt><trkpt lat="44.25106710212326" lon="11.039760709455718"><ele>612.0</ele><time>2026-05-02T07:44:37Z</time></trkpt><trkpt lat="44.25104433269181" lon="11.039922713867966"><ele>612.0</ele><time>2026-05-02T07:44:38Z</time></trkpt><trkpt lat="44.250991227159446" lon="11.040065097117603"><ele>612.0</ele><time>2026-05-02T07:44:39Z</time></trkpt><trkpt lat="44.25095029606867" lon="11.040211130614763"><ele>612.0</ele><time>2026-05-02T07:44:40Z</time></trkpt><trkpt lat="44.250951770240654" lon="11.04037352078779"><ele>612.0</ele><time>2026-05-02T07:44:41Z</time></trkpt><trkpt lat="44.25096727110602" lon="11.04054930888628"><ele>612.0</ele><time>2026-05-02T07:44:42Z</time></trkpt><trkpt lat="44.25096328479602" lon="11.04073023168137"><ele>612.0</ele><time>2026-05-02T07:44:43Z</time></trkpt><trkpt lat="44.25090711022662" lon="11.04088179970858"><ele>612.0</ele><time>2026-05-02T07:44:44Z</time></trkpt><trkpt lat="44.25086286797118" lon="11.041039979924848"><ele>612.0</ele><time>2026-05-02T07:44:45Z</time></trkpt><trkpt lat="44.25080996328975" lon="11.041190306353213"><ele>615.5</ele><time>2026-05-02T07:44:46Z</time></trkpt><trkpt lat="44.25079356622964" lon="11.041349707790522"><ele>619.0</ele><time>2026-05-02T07:44:47Z</time></trkpt><trkpt lat="44.25080552269349" lon="11.041525092234279"><ele>622.5</ele><time>2026-05-02T07:44:48Z</time></trkpt><trkpt lat="44.2508216507701" lon="11.041692402204115"><ele>626.0</ele><time>2026-05-02T07:44:49Z</time></trkpt><trkpt lat="44.25078322616979" lon="11.041853157101379"><ele>627.4</ele><time>2026-05-02T07:44:50Z</time></trkpt><trkpt lat="44.25076923707965" lon="11.041968991411117"><ele>628.8</ele><time>2026-05-02T07:44:51Z</time></trkpt><trkpt lat="44.2508253251741" lon="11.042055028348022"><ele>630.1999999999999</ele><time>2026-05-02T07:44:53Z</time></trkpt><trkpt lat="44.25092928342813" lon="11.041982281591919"><ele>631.6</ele><time>2026-05-02T07:44:54Z</time></trkpt><trkpt lat="44.25099166777084" lon="11.041950335991439"><ele>633.0</ele><time>2026-05-02T07:44:55Z</time></trkpt><trkpt lat="44.2510627780255" lon="11.042088631843404"><ele>633.0</ele><time>2026-05-02T07:44:57Z</time></trkpt><trkpt lat="44.25107460109382" lon="11.04222026331097"><ele>633.0</ele><time>2026-05-02T07:44:58Z</time></trkpt><trkpt lat="44.251127520480594" lon="11.041914827781925"><ele>633.0</ele><time>2026-05-02T07:44:59Z</time></trkpt><trkpt lat="44.25109637517317" lon="11.04180264093298"><ele>633.0</ele><time>2026-05-02T07:45:00Z</time></trkpt><trkpt lat="44.25105961709834" lon="11.041697885763678"><ele>633.0</ele><time>2026-05-02T07:45:02Z</time></trkpt><trkpt lat="44.25112810298748" lon="11.04165615616514"><ele>633.0</ele><time>2026-05-02T07:45:04Z</time></trkpt><trkpt lat="44.251023620053076" lon="11.041755201519262"><ele>633.0</ele><time>2026-05-02T07:45:05Z</time></trkpt><trkpt lat="44.25136322568523" lon="11.041735854827941"><ele>633.0</ele><time>2026-05-02T07:45:11Z</time></trkpt><trkpt lat="44.25140200375496" lon="11.041659403135547"><ele>633.0</ele><time>2026-05-02T07:45:12Z</time></trkpt><trkpt lat="44.25146256596575" lon="11.041592236343412"><ele>633.0</ele><time>2026-05-02T07:45:14Z</time></trkpt><trkpt lat="44.251610946828855" lon="11.041782341493958"><ele>633.0</ele><time>2026-05-02T07:45:34Z</time></trkpt><trkpt lat="44.2516961144074" lon="11.041819559425607"><ele>633.0</ele><time>2026-05-02T07:45:46Z</time></trkpt><trkpt lat="44.25177177581133" lon="11.041817953327609"><ele>635.1666666666666</ele><time>2026-05-02T07:45:47Z</time></trkpt><trkpt lat="44.25185453983604" lon="11.041803682783048"><ele>637.3333333333334</ele><time>2026-05-02T07:45:48Z</time></trkpt><trkpt lat="44.25193414889832" lon="11.041791122139625"><ele>639.5</ele><time>2026-05-02T07:45:49Z</time></trkpt><trkpt lat="44.252014564299216" lon="11.041761231963152"><ele>641.6666666666667</ele><time>2026-05-02T07:45:50Z</time></trkpt><trkpt lat="44.25208124429537" lon="11.041687894514878"><ele>643.8333333333334</ele><time>2026-05-02T07:45:51Z</time></trkpt><trkpt lat="44.25213480239356" lon="11.041590266131989"><ele>646.0</ele><time>2026-05-02T07:45:52Z</time></trkpt><trkpt lat="44.252169429775265" lon="11.041473031164449"><ele>647.8333333333334</ele><time>2026-05-02T07:45:53Z</time></trkpt><trkpt lat="44.252179537715165" lon="11.041358328981138"><ele>649.6666666666667</ele><time>2026-05-02T07:45:54Z</time></trkpt><trkpt lat="44.25217017541542" lon="11.041254692508282"><ele>651.5</ele><time>2026-05-02T07:45:55Z</time></trkpt><trkpt lat="44.25215276103863" lon="11.041129945429297"><ele>653.3333333333334</ele><time>2026-05-02T07:45:56Z</time></trkpt><trkpt lat="44.25216386867977" lon="11.041024553561282"><ele>655.1666666666666</ele><time>2026-05-02T07:45:57Z</time></trkpt><trkpt lat="44.25222224783818" lon="11.04095444536834"><ele>657.0</ele><time>2026-05-02T07:45:58Z</time></trkpt><trkpt lat="44.252275547394994" lon="11.04089784639082"><ele>658.0</ele><time>2026-05-02T07:45:59Z</time></trkpt><trkpt lat="44.25234724238909" lon="11.040872781697535"><ele>659.0</ele><time>2026-05-02T07:46:00Z</time></trkpt><trkpt lat="44.25241393819332" lon="11.040710017747449"><ele>660.0</ele><time>2026-05-02T07:46:02Z</time></trkpt><trkpt lat="44.252477734512645" lon="11.04065683650579"><ele>661.0</ele><time>2026-05-02T07:46:03Z</time></trkpt><trkpt lat="44.252556014727645" lon="11.040628666744032"><ele>662.0</ele><time>2026-05-02T07:46:04Z</time></trkpt><trkpt lat="44.25262625663846" lon="11.040589104841274"><ele>663.0</ele><time>2026-05-02T07:46:05Z</time></trkpt><trkpt lat="44.252851280744636" lon="11.04053610432038"><ele>663.0</ele><time>2026-05-02T07:46:06Z</time></trkpt><trkpt lat="44.25295310289231" lon="11.040539581202692"><ele>663.0</ele><time>2026-05-02T07:46:07Z</time></trkpt><trkpt lat="44.25304940061034" lon="11.040552518759643"><ele>663.0</ele><time>2026-05-02T07:46:08Z</time></trkpt><trkpt lat="44.253130612906546" lon="11.04054167371771"><ele>663.0</ele><time>2026-05-02T07:46:09Z</time></trkpt><trkpt lat="44.25319118078731" lon="11.040493802232893"><ele>663.0</ele><time>2026-05-02T07:46:10Z</time></trkpt><trkpt lat="44.253289770998755" lon="11.040423895382427"><ele>658.5999999999999</ele><time>2026-05-02T07:46:11Z</time></trkpt><trkpt lat="44.253384559629914" lon="11.04036393872124"><ele>654.1999999999999</ele><time>2026-05-02T07:46:12Z</time></trkpt><trkpt lat="44.25349620121663" lon="11.040301377041652"><ele>649.8</ele><time>2026-05-02T07:46:13Z</time></trkpt><trkpt lat="44.253586426536096" lon="11.04023956466591"><ele>645.4</ele><time>2026-05-02T07:46:14Z</time></trkpt><trkpt lat="44.253588843241694" lon="11.04011273943035"><ele>641.0</ele><time>2026-05-02T07:46:16Z</time></trkpt><trkpt lat="44.253557147760645" lon="11.039958100188244"><ele>641.0</ele><time>2026-05-02T07:46:18Z</time></trkpt><trkpt lat="44.253536306170595" lon="11.03983029743559"><ele>641.0</ele><time>2026-05-02T07:46:19Z</time></trkpt><trkpt lat="44.253546555640284" lon="11.039705575492501"><ele>641.0</ele><time>2026-05-02T07:46:20Z</time></trkpt><trkpt lat="44.25359666465829" lon="11.039611084686095"><ele>641.0</ele><time>2026-05-02T07:46:21Z</time></trkpt><trkpt lat="44.25365807919936" lon="11.03954522567592"><ele>641.0</ele><time>2026-05-02T07:46:22Z</time></trkpt><trkpt lat="44.25373464581315" lon="11.039513996056293"><ele>641.0</ele><time>2026-05-02T07:46:23Z</time></trkpt><trkpt lat="44.25383534252043" lon="11.039497873676321"><ele>641.0</ele><time>2026-05-02T07:46:24Z</time></trkpt><trkpt lat="44.25394025653586" lon="11.03945028565726"><ele>641.0</ele><time>2026-05-02T07:46:25Z</time></trkpt><trkpt lat="44.254027992207746" lon="11.039369498179877"><ele>641.0</ele><time>2026-05-02T07:46:26Z</time></trkpt><trkpt lat="44.25410192665072" lon="11.03927605303634"><ele>641.0</ele><time>2026-05-02T07:46:27Z</time></trkpt><trkpt lat="44.254190718712415" lon="11.03916967228005"><ele>641.0</ele><time>2026-05-02T07:46:28Z</time></trkpt><trkpt lat="44.25427982457458" lon="11.03907665827186"><ele>639.3333333333333</ele><time>2026-05-02T07:46:29Z</time></trkpt><trkpt lat="44.25434158124699" lon="11.039016005395668"><ele>637.6666666666666</ele><time>2026-05-02T07:46:30Z</time></trkpt><trkpt lat="44.254421668358084" lon="11.039022015301873"><ele>636.0</ele><time>2026-05-02T07:46:31Z</time></trkpt><trkpt lat="44.25450018641255" lon="11.039038684929317"><ele>634.3333333333334</ele><time>2026-05-02T07:46:32Z</time></trkpt><trkpt lat="44.25459649683993" lon="11.039045204877143"><ele>632.6666666666667</ele><time>2026-05-02T07:46:33Z</time></trkpt><trkpt lat="44.25471315071426" lon="11.039056837807413"><ele>631.0</ele><time>2026-05-02T07:46:34Z</time></trkpt><trkpt lat="44.25478837911796" lon="11.039035760042706"><ele>624.2</ele><time>2026-05-02T07:46:35Z</time></trkpt><trkpt lat="44.254839702760286" lon="11.03897872339789"><ele>617.4000000000001</ele><time>2026-05-02T07:46:36Z</time></trkpt><trkpt lat="44.254879552614554" lon="11.038871261544651"><ele>610.6</ele><time>2026-05-02T07:46:38Z</time></trkpt><trkpt lat="44.25488076806117" lon="11.038759908692418"><ele>603.8000000000001</ele><time>2026-05-02T07:46:40Z</time></trkpt><trkpt lat="44.254868420894844" lon="11.038528364370064"><ele>597.0</ele><time>2026-05-02T07:46:42Z</time></trkpt><trkpt lat="44.254861758609565" lon="11.038322865670894"><ele>596.5</ele><time>2026-05-02T07:46:43Z</time></trkpt><trkpt lat="44.25485649216417" lon="11.038130669970943"><ele>596.0</ele><time>2026-05-02T07:46:44Z</time></trkpt><trkpt lat="44.25483972201118" lon="11.0379662699536"><ele>595.5</ele><time>2026-05-02T07:46:45Z</time></trkpt><trkpt lat="44.254825642781356" lon="11.037816531098246"><ele>595.0</ele><time>2026-05-02T07:46:46Z</time></trkpt><trkpt lat="44.25482297059107" lon="11.03766750473859"><ele>595.0</ele><time>2026-05-02T07:46:47Z</time></trkpt><trkpt lat="44.254853999465944" lon="11.03754467539858"><ele>595.0</ele><time>2026-05-02T07:46:48Z</time></trkpt><trkpt lat="44.25486620892797" lon="11.037413087030048"><ele>595.0</ele><time>2026-05-02T07:46:49Z</time></trkpt><trkpt lat="44.254858472779546" lon="11.037283867109302"><ele>595.0</ele><time>2026-05-02T07:46:50Z</time></trkpt><trkpt lat="44.254835966246986" lon="11.037155134577873"><ele>595.0</ele><time>2026-05-02T07:46:51Z</time></trkpt><trkpt lat="44.25478838105526" lon="11.037093261754107"><ele>595.0</ele><time>2026-05-02T07:46:52Z</time></trkpt><trkpt lat="44.254814489818145" lon="11.036968543705331"><ele>594.2</ele><time>2026-05-02T07:46:53Z</time></trkpt><trkpt lat="44.254838973602425" lon="11.036871809539557"><ele>593.4</ele><time>2026-05-02T07:46:54Z</time></trkpt><trkpt lat="44.254834153842616" lon="11.036780282577853"><ele>592.6</ele><time>2026-05-02T07:46:55Z</time></trkpt><trkpt lat="44.25480945221961" lon="11.036686328841402"><ele>591.8</ele><time>2026-05-02T07:46:56Z</time></trkpt><trkpt lat="44.254787269078136" lon="11.036526093894597"><ele>591.0</ele><time>2026-05-02T07:46:57Z</time></trkpt><trkpt lat="44.25477404884478" lon="11.036350801966888"><ele>591.1666666666666</ele><time>2026-05-02T07:46:58Z</time></trkpt><trkpt lat="44.254792750944766" lon="11.036238783144482"><ele>591.3333333333334</ele><time>2026-05-02T07:46:59Z</time></trkpt><trkpt lat="44.254807479735476" lon="11.036136270228544"><ele>591.5</ele><time>2026-05-02T07:47:00Z</time></trkpt><trkpt lat="44.25483982929646" lon="11.036018078977447"><ele>591.6666666666667</ele><time>2026-05-02T07:47:01Z</time></trkpt><trkpt lat="44.25488093282526" lon="11.035919424867975"><ele>591.8333333333334</ele><time>2026-05-02T07:47:03Z</time></trkpt><trkpt lat="44.254964838003154" lon="11.036002598445593"><ele>592.0</ele><time>2026-05-02T07:47:05Z</time></trkpt><trkpt lat="44.25507428707079" lon="11.036064443238912"><ele>592.0</ele><time>2026-05-02T07:47:07Z</time></trkpt><trkpt lat="44.25513318806666" lon="11.036031435905574"><ele>592.0</ele><time>2026-05-02T07:47:08Z</time></trkpt><trkpt lat="44.25521031348388" lon="11.035967777529953"><ele>592.0</ele><time>2026-05-02T07:47:09Z</time></trkpt><trkpt lat="44.25531520248634" lon="11.03590892163328"><ele>592.0</ele><time>2026-05-02T07:47:10Z</time></trkpt><trkpt lat="44.255387318191616" lon="11.035855857960472"><ele>592.0</ele><time>2026-05-02T07:47:11Z</time></trkpt><trkpt lat="44.25548432457325" lon="11.035766437492565"><ele>592.5</ele><time>2026-05-02T07:47:13Z</time></trkpt><trkpt lat="44.255545738498235" lon="11.03572826311271"><ele>593.0</ele><time>2026-05-02T07:47:14Z</time></trkpt><trkpt lat="44.25561429961254" lon="11.035711736349054"><ele>593.5</ele><time>2026-05-02T07:47:15Z</time></trkpt><trkpt lat="44.25567885970776" lon="11.035673090688153"><ele>594.0</ele><time>2026-05-02T07:47:16Z</time></trkpt><trkpt lat="44.24804518722669" lon="11.036472707594484"><ele>577.25</ele><time>2026-05-02T07:43:16Z</time></trkpt><trkpt lat="44.24812698176919" lon="11.036465362289185"><ele>560.5</ele><time>2026-05-02T07:43:17Z</time></trkpt><trkpt lat="44.248223118129175" lon="11.036517226856216"><ele>543.75</ele><time>2026-05-02T07:43:18Z</time></trkpt><trkpt lat="44.24833635526033" lon="11.036608072507068"><ele>527.0</ele><time>2026-05-02T07:43:19Z</time></trkpt><trkpt lat="44.24843736291998" lon="11.036741035035055"><ele>527.0</ele><time>2026-05-02T07:43:20Z</time></trkpt><trkpt lat="44.24856140283047" lon="11.036901550999028"><ele>527.0</ele><time>2026-05-02T07:43:21Z</time></trkpt><trkpt lat="44.24867956822397" lon="11.037035079716913"><ele>527.0</ele><time>2026-05-02T07:43:22Z</time></trkpt><trkpt lat="44.248777551257675" lon="11.037143274321066"><ele>527.0</ele><time>2026-05-02T07:43:23Z</time></trkpt><trkpt lat="44.248873290692224" lon="11.037191232237879"><ele>532.75</ele><time>2026-05-02T07:43:24Z</time></trkpt><trkpt lat="44.24898594685328" lon="11.037195762732933"><ele>538.5</ele><time>2026-05-02T07:43:25Z</time></trkpt><trkpt lat="44.24911699410852" lon="11.037181463080492"><ele>544.25</ele><time>2026-05-02T07:43:26Z</time></trkpt><trkpt lat="44.249243739486985" lon="11.03717785335979"><ele>550.0</ele><time>2026-05-02T07:43:27Z</time></trkpt><trkpt lat="44.249353235187264" lon="11.03722130153282"><ele>550.0</ele><time>2026-05-02T07:43:28Z</time></trkpt><trkpt lat="44.24944577771908" lon="11.037315364025906"><ele>550.0</ele><time>2026-05-02T07:43:29Z</time></trkpt><trkpt lat="44.24953821608117" lon="11.03742979839192"><ele>550.0</ele><time>2026-05-02T07:43:30Z</time></trkpt><trkpt lat="44.24964363645051" lon="11.037537102871319"><ele>550.0</ele><time>2026-05-02T07:43:31Z</time></trkpt><trkpt lat="44.249751466545625" lon="11.03763148238603"><ele>554.25</ele><time>2026-05-02T07:43:32Z</time></trkpt><trkpt lat="44.24985345310165" lon="11.037742770377585"><ele>558.5</ele><time>2026-05-02T07:43:33Z</time></trkpt><trkpt lat="44.24994089615551" lon="11.037881464499272"><ele>562.75</ele><time>2026-05-02T07:43:34Z</time></trkpt><trkpt lat="44.249997198920454" lon="11.038038979722856"><ele>567.0</ele><time>2026-05-02T07:43:35Z</time></trkpt><trkpt lat="44.250037500995425" lon="11.03819786686181"><ele>566.6</ele><time>2026-05-02T07:43:36Z</time></trkpt><trkpt lat="44.25004843002216" lon="11.038340468946261"><ele>566.2</ele><time>2026-05-02T07:43:37Z</time></trkpt><trkpt lat="44.25000016267195" lon="11.03847950878469"><ele>565.8</ele><time>2026-05-02T07:43:38Z</time></trkpt><trkpt lat="44.24998199711948" lon="11.038604808154846"><ele>565.4</ele><time>2026-05-02T07:43:39Z</time></trkpt><trkpt lat="44.250013012952195" lon="11.038722129088749"><ele>565.0</ele><time>2026-05-02T07:43:40Z</time></trkpt><trkpt lat="44.25005908627175" lon="11.038832813116711"><ele>565.0</ele><time>2026-05-02T07:43:41Z</time></trkpt><trkpt lat="44.25009972495791" lon="11.038961205717985"><ele>565.0</ele><time>2026-05-02T07:43:42Z</time></trkpt><trkpt lat="44.250075812700175" lon="11.039099642072367"><ele>565.0</ele><time>2026-05-02T07:43:43Z</time></trkpt><trkpt lat="44.25003222544271" lon="11.039228114180245"><ele>565.0</ele><time>2026-05-02T07:43:44Z</time></trkpt><trkpt lat="44.250047226521104" lon="11.039320182183976"><ele>565.0</ele><time>2026-05-02T07:43:45Z</time></trkpt><trkpt lat="44.25015935843284" lon="11.039345370058017"><ele>565.0</ele><time>2026-05-02T07:43:47Z</time></trkpt><trkpt lat="44.25023144962365" lon="11.03928282954931"><ele>565.0</ele><time>2026-05-02T07:43:48Z</time></trkpt><trkpt lat="44.250255039303944" lon="11.039133825807605"><ele>565.0</ele><time>2026-05-02T07:43:49Z</time></trkpt><trkpt lat="44.25027553449389" lon="11.03904938296029"><ele>565.0</ele><time>2026-05-02T07:43:50Z</time></trkpt><trkpt lat="44.250299358134846" lon="11.03895553488347"><ele>565.0</ele><time>2026-05-02T07:43:51Z</time></trkpt><trkpt lat="44.25033365411508" lon="11.03882043333013"><ele>565.0</ele><time>2026-05-02T07:43:52Z</time></trkpt><trkpt lat="44.250377147667606" lon="11.038660774785539"><ele>565.0</ele><time>2026-05-02T07:43:53Z</time></trkpt><trkpt lat="44.25041990712992" lon="11.038546382324625"><ele>565.0</ele><time>2026-05-02T07:43:54Z</time></trkpt><trkpt lat="44.25049127761837" lon="11.038482076454065"><ele>565.0</ele><time>2026-05-02T07:43:55Z</time></trkpt><trkpt lat="44.250592649421" lon="11.038396267812708"><ele>565.0</ele><time>2026-05-02T07:43:56Z</time></trkpt><trkpt lat="44.25065980052781" lon="11.038287665495744"><ele>565.0</ele><time>2026-05-02T07:43:57Z</time></trkpt><trkpt lat="44.2506938515263" lon="11.038165646853999"><ele>577.0</ele><time>2026-05-02T07:43:58Z</time></trkpt><trkpt lat="44.25065236468811" lon="11.037992665377246"><ele>589.0</ele><time>2026-05-02T07:43:59Z</time></trkpt><trkpt lat="44.250637569731836" lon="11.037837599868478"><ele>601.0</ele><time>2026-05-02T07:44:00Z</time></trkpt><trkpt lat="44.25063591774089" lon="11.03765500059559"><ele>613.0</ele><time>2026-05-02T07:44:01Z</time></trkpt><trkpt lat="44.25063939558997" lon="11.03746568908814"><ele>615.5</ele><time>2026-05-02T07:44:02Z</time></trkpt><trkpt lat="44.25062807369044" lon="11.037264956802451"><ele>618.0</ele><time>2026-05-02T07:44:03Z</time></trkpt><trkpt lat="44.25059619214615" lon="11.037068047322077"><ele>620.5</ele><time>2026-05-02T07:44:04Z</time></trkpt><trkpt lat="44.25055721942619" lon="11.036873280549722"><ele>623.0</ele><time>2026-05-02T07:44:05Z</time></trkpt><trkpt lat="44.25050333894962" lon="11.036701032786095"><ele>615.8</ele><time>2026-05-02T07:44:06Z</time></trkpt><trkpt lat="44.2504799728239" lon="11.036560331181898"><ele>608.5999999999999</ele><time>2026-05-02T07:44:07Z</time></trkpt><trkpt lat="44.25049892934734" lon="11.036424833712369"><ele>601.4000000000001</ele><time>2026-05-02T07:44:08Z</time></trkpt><trkpt lat="44.25053269299506" lon="11.036259721753991"><ele>594.2</ele><time>2026-05-02T07:44:09Z</time></trkpt><trkpt lat="44.2505621636941" lon="11.036098981075776"><ele>587.0</ele><time>2026-05-02T07:44:10Z</time></trkpt><trkpt lat="44.250577248232474" lon="11.035978838478291"><ele>593.8000000000001</ele><time>2026-05-02T07:44:11Z</time></trkpt><trkpt lat="44.250672467706714" lon="11.036012114580005"><ele>600.6</ele><time>2026-05-02T07:44:14Z</time></trkpt><trkpt lat="44.25068853325827" lon="11.036128268740477"><ele>607.4000000000001</ele><time>2026-05-02T07:44:15Z</time></trkpt><trkpt lat="44.250658658904946" lon="11.036267852051012"><ele>614.2</ele><time>2026-05-02T07:44:16Z</time></trkpt><trkpt lat="44.25065680872342" lon="11.03643043086575"><ele>621.0</ele><time>2026-05-02T07:44:17Z</time></trkpt><trkpt lat="44.25064409188516" lon="11.036627348922552"><ele>621.5</ele><time>2026-05-02T07:44:18Z</time></trkpt><trkpt lat="44.25064947540668" lon="11.0368316712698"><ele>622.0</ele><time>2026-05-02T07:44:19Z</time></trkpt><trkpt lat="44.2506758693171" lon="11.037030605744011"><ele>622.5</ele><time>2026-05-02T07:44:20Z</time></trkpt><trkpt lat="44.25072811413587" lon="11.037228806692852"><ele>623.0</ele><time>2026-05-02T07:44:21Z</time></trkpt><trkpt lat="44.25079216914145" lon="11.03742482051475"><ele>619.6666666666666</ele><time>2026-05-02T07:44:22Z</time></trkpt><trkpt lat="44.250858657711184" lon="11.037630775364367"><ele>616.3333333333334</ele><time>2026-05-02T07:44:23Z</time></trkpt><trkpt lat="44.25093359797695" lon="11.037830871873616"><ele>613.0</ele><time>2026-05-02T07:44:24Z</time></trkpt><trkpt lat="44.25101344624299" lon="11.038006117203334"><ele>613.0</ele><time>2026-05-02T07:44:25Z</time></trkpt><trkpt lat="44.25109347900851" lon="11.038177855861758"><ele>613.0</ele><time>2026-05-02T07:44:26Z</time></trkpt><trkpt lat="44.25108480721907" lon="11.038337609241783"><ele>613.0</ele><time>2026-05-02T07:44:27Z</time></trkpt><trkpt lat="44.25106356408711" lon="11.038455352911413"><ele>613.0</ele><time>2026-05-02T07:44:28Z</time></trkpt><trkpt lat="44.25098722081368" lon="11.03857149650933"><ele>612.8</ele><time>2026-05-02T07:44:29Z</time></trkpt><trkpt lat="44.25092964792034" lon="11.038709029689397"><ele>612.5999999999999</ele><time>2026-05-02T07:44:30Z</time></trkpt><trkpt lat="44.2508834377848" lon="11.038834785113323"><ele>612.4000000000001</ele><time>2026-05-02T07:44:31Z</time></trkpt><trkpt lat="44.250879011254526" lon="11.038962345721766"><ele>612.2</ele><time>2026-05-02T07:44:32Z</time></trkpt><trkpt lat="44.250916868305985" lon="11.03911248763485"><ele>612.0</ele><time>2026-05-02T07:44:33Z</time></trkpt><trkpt lat="44.25098761145982" lon="11.039247385542707"><ele>612.0</ele><time>2026-05-02T07:44:34Z</time></trkpt><trkpt lat="44.2510328557229" lon="11.039403599602124"><ele>612.0</ele><time>2026-05-02T07:44:35Z</time></trkpt><trkpt lat="44.2510607307912" lon="11.039583506813104"><ele>612.0</ele><time>2026-05-02T07:44:36Z</time></trkpt><trkpt lat="44.25106710212326" lon="11.039760709455718"><ele>612.0</ele><time>2026-05-02T07:44:37Z</time></trkpt><trkpt lat="44.25104433269181" lon="11.039922713867966"><ele>612.0</ele><time>2026-05-02T07:44:38Z</time></trkpt><trkpt lat="44.250991227159446" lon="11.040065097117603"><ele>612.0</ele><time>2026-05-02T07:44:39Z</time></trkpt><trkpt lat="44.25095029606867" lon="11.040211130614763"><ele>612.0</ele><time>2026-05-02T07:44:40Z</time></trkpt><trkpt lat="44.250951770240654" lon="11.04037352078779"><ele>612.0</ele><time>2026-05-02T07:44:41Z</time></trkpt><trkpt lat="44.25096727110602" lon="11.04054930888628"><ele>612.0</ele><time>2026-05-02T07:44:42Z</time></trkpt><trkpt lat="44.25096328479602" lon="11.04073023168137"><ele>612.0</ele><time>2026-05-02T07:44:43Z</time></trkpt><trkpt lat="44.25090711022662" lon="11.04088179970858"><ele>612.0</ele><time>2026-05-02T07:44:44Z</time></trkpt><trkpt lat="44.25086286797118" lon="11.041039979924848"><ele>612.0</ele><time>2026-05-02T07:44:45Z</time></trkpt><trkpt lat="44.25080996328975" lon="11.041190306353213"><ele>615.5</ele><time>2026-05-02T07:44:46Z</time></trkpt><trkpt lat="44.25079356622964" lon="11.041349707790522"><ele>619.0</ele><time>2026-05-02T07:44:47Z</time></trkpt><trkpt lat="44.25080552269349" lon="11.041525092234279"><ele>622.5</ele><time>2026-05-02T07:44:48Z</time></trkpt><trkpt lat="44.2508216507701" lon="11.041692402204115"><ele>626.0</ele><time>2026-05-02T07:44:49Z</time></trkpt><trkpt lat="44.25078322616979" lon="11.041853157101379"><ele>627.4</ele><time>2026-05-02T07:44:50Z</time></trkpt><trkpt lat="44.25076923707965" lon="11.041968991411117"><ele>628.8</ele><time>2026-05-02T07:44:51Z</time></trkpt><trkpt lat="44.2508253251741" lon="11.042055028348022"><ele>630.1999999999999</ele><time>2026-05-02T07:44:53Z</time></trkpt><trkpt lat="44.25092928342813" lon="11.041982281591919"><ele>631.6</ele><time>2026-05-02T07:44:54Z</time></trkpt><trkpt lat="44.25099166777084" lon="11.041950335991439"><ele>633.0</ele><time>2026-05-02T07:44:55Z</time></trkpt><trkpt lat="44.2510627780255" lon="11.042088631843404"><ele>633.0</ele><time>2026-05-02T07:44:57Z</time></trkpt><trkpt lat="44.25107460109382" lon="11.04222026331097"><ele>633.0</ele><time>2026-05-02T07:44:58Z</time></trkpt><trkpt lat="44.251127520480594" lon="11.041914827781925"><ele>633.0</ele><time>2026-05-02T07:44:59Z</time></trkpt><trkpt lat="44.25109637517317" lon="11.04180264093298"><ele>633.0</ele><time>2026-05-02T07:45:00Z</time></trkpt><trkpt lat="44.25105961709834" lon="11.041697885763678"><ele>633.0</ele><time>2026-05-02T07:45:02Z</time></trkpt><trkpt lat="44.25112810298748" lon="11.04165615616514"><ele>633.0</ele><time>2026-05-02T07:45:04Z</time></trkpt><trkpt lat="44.251023620053076" lon="11.041755201519262"><ele>633.0</ele><time>2026-05-02T07:45:05Z</time></trkpt><trkpt lat="44.25136322568523" lon="11.041735854827941"><ele>633.0</ele><time>2026-05-02T07:45:11Z</time></trkpt><trkpt lat="44.25140200375496" lon="11.041659403135547"><ele>633.0</ele><time>2026-05-02T07:45:12Z</time></trkpt><trkpt lat="44.25146256596575" lon="11.041592236343412"><ele>633.0</ele><time>2026-05-02T07:45:14Z</time></trkpt><trkpt lat="44.251610946828855" lon="11.041782341493958"><ele>633.0</ele><time>2026-05-02T07:45:34Z</time></trkpt><trkpt lat="44.2516961144074" lon="11.041819559425607"><ele>633.0</ele><time>2026-05-02T07:45:46Z</time></trkpt><trkpt lat="44.25177177581133" lon="11.041817953327609"><ele>635.1666666666666</ele><time>2026-05-02T07:45:47Z</time></trkpt><trkpt lat="44.25185453983604" lon="11.041803682783048"><ele>637.3333333333334</ele><time>2026-05-02T07:45:48Z</time></trkpt><trkpt lat="44.25193414889832" lon="11.041791122139625"><ele>639.5</ele><time>2026-05-02T07:45:49Z</time></trkpt><trkpt lat="44.252014564299216" lon="11.041761231963152"><ele>641.6666666666667</ele><time>2026-05-02T07:45:50Z</time></trkpt><trkpt lat="44.25208124429537" lon="11.041687894514878"><ele>643.8333333333334</ele><time>2026-05-02T07:45:51Z</time></trkpt><trkpt lat="44.25213480239356" lon="11.041590266131989"><ele>646.0</ele><time>2026-05-02T07:45:52Z</time></trkpt><trkpt lat="44.252169429775265" lon="11.041473031164449"><ele>647.8333333333334</ele><time>2026-05-02T07:45:53Z</time></trkpt><trkpt lat="44.252179537715165" lon="11.041358328981138"><ele>649.6666666666667</ele><time>2026-05-02T07:45:54Z</time></trkpt><trkpt lat="44.25217017541542" lon="11.041254692508282"><ele>651.5</ele><time>2026-05-02T07:45:55Z</time></trkpt><trkpt lat="44.25215276103863" lon="11.041129945429297"><ele>653.3333333333334</ele><time>2026-05-02T07:45:56Z</time></trkpt><trkpt lat="44.25216386867977" lon="11.041024553561282"><ele>655.1666666666666</ele><time>2026-05-02T07:45:57Z</time></trkpt><trkpt lat="44.25222224783818" lon="11.04095444536834"><ele>657.0</ele><time>2026-05-02T07:45:58Z</time></trkpt><trkpt lat="44.252275547394994" lon="11.04089784639082"><ele>658.0</ele><time>2026-05-02T07:45:59Z</time></trkpt><trkpt lat="44.25234724238909" lon="11.040872781697535"><ele>659.0</ele><time>2026-05-02T07:46:00Z</time></trkpt><trkpt lat="44.25241393819332" lon="11.040710017747449"><ele>660.0</ele><time>2026-05-02T07:46:02Z</time></trkpt><trkpt lat="44.252477734512645" lon="11.04065683650579"><ele>661.0</ele><time>2026-05-02T07:46:03Z</time></trkpt><trkpt lat="44.252556014727645" lon="11.040628666744032"><ele>662.0</ele><time>2026-05-02T07:46:04Z</time></trkpt><trkpt lat="44.25262625663846" lon="11.040589104841274"><ele>663.0</ele><time>2026-05-02T07:46:05Z</time></trkpt><trkpt lat="44.252851280744636" lon="11.04053610432038"><ele>663.0</ele><time>2026-05-02T07:46:06Z</time></trkpt><trkpt lat="44.25295310289231" lon="11.040539581202692"><ele>663.0</ele><time>2026-05-02T07:46:07Z</time></trkpt><trkpt lat="44.25304940061034" lon="11.040552518759643"><ele>663.0</ele><time>2026-05-02T07:46:08Z</time></trkpt><trkpt lat="44.253130612906546" lon="11.04054167371771"><ele>663.0</ele><time>2026-05-02T07:46:09Z</time></trkpt><trkpt lat="44.25319118078731" lon="11.040493802232893"><ele>663.0</ele><time>2026-05-02T07:46:10Z</time></trkpt><trkpt lat="44.253289770998755" lon="11.040423895382427"><ele>658.5999999999999</ele><time>2026-05-02T07:46:11Z</time></trkpt><trkpt lat="44.253384559629914" lon="11.04036393872124"><ele>654.1999999999999</ele><time>2026-05-02T07:46:12Z</time></trkpt><trkpt lat="44.25349620121663" lon="11.040301377041652"><ele>649.8</ele><time>2026-05-02T07:46:13Z</time></trkpt><trkpt lat="44.253586426536096" lon="11.04023956466591"><ele>645.4</ele><time>2026-05-02T07:46:14Z</time></trkpt><trkpt lat="44.253588843241694" lon="11.04011273943035"><ele>641.0</ele><time>2026-05-02T07:46:16Z</time></trkpt><trkpt lat="44.253557147760645" lon="11.039958100188244"><ele>641.0</ele><time>2026-05-02T07:46:18Z</time></trkpt><trkpt lat="44.253536306170595" lon="11.03983029743559"><ele>641.0</ele><time>2026-05-02T07:46:19Z</time></trkpt><trkpt lat="44.253546555640284" lon="11.039705575492501"><ele>641.0</ele><time>2026-05-02T07:46:20Z</time></trkpt><trkpt lat="44.25359666465829" lon="11.039611084686095"><ele>641.0</ele><time>2026-05-02T07:46:21Z</time></trkpt><trkpt lat="44.25365807919936" lon="11.03954522567592"><ele>641.0</ele><time>2026-05-02T07:46:22Z</time></trkpt><trkpt lat="44.25373464581315" lon="11.039513996056293"><ele>641.0</ele><time>2026-05-02T07:46:23Z</time></trkpt><trkpt lat="44.25383534252043" lon="11.039497873676321"><ele>641.0</ele><time>2026-05-02T07:46:24Z</time></trkpt><trkpt lat="44.25394025653586" lon="11.03945028565726"><ele>641.0</ele><time>2026-05-02T07:46:25Z</time></trkpt><trkpt lat="44.254027992207746" lon="11.039369498179877"><ele>641.0</ele><time>2026-05-02T07:46:26Z</time></trkpt><trkpt lat="44.25410192665072" lon="11.03927605303634"><ele>641.0</ele><time>2026-05-02T07:46:27Z</time></trkpt><trkpt lat="44.254190718712415" lon="11.03916967228005"><ele>641.0</ele><time>2026-05-02T07:46:28Z</time></trkpt><trkpt lat="44.25427982457458" lon="11.03907665827186"><ele>639.3333333333333</ele><time>2026-05-02T07:46:29Z</time></trkpt><trkpt lat="44.25434158124699" lon="11.039016005395668"><ele>637.6666666666666</ele><time>2026-05-02T07:46:30Z</time></trkpt><trkpt lat="44.254421668358084" lon="11.039022015301873"><ele>636.0</ele><time>2026-05-02T07:46:31Z</time></trkpt><trkpt lat="44.25450018641255" lon="11.039038684929317"><ele>634.3333333333334</ele><time>2026-05-02T07:46:32Z</time></trkpt><trkpt lat="44.25459649683993" lon="11.039045204877143"><ele>632.6666666666667</ele><time>2026-05-02T07:46:33Z</time></trkpt><trkpt lat="44.25471315071426" lon="11.039056837807413"><ele>631.0</ele><time>2026-05-02T07:46:34Z</time></trkpt><trkpt lat="44.25478837911796" lon="11.039035760042706"><ele>624.2</ele><time>2026-05-02T07:46:35Z</time></trkpt><trkpt lat="44.254839702760286" lon="11.03897872339789"><ele>617.4000000000001</ele><time>2026-05-02T07:46:36Z</time></trkpt><trkpt lat="44.254879552614554" lon="11.038871261544651"><ele>610.6</ele><time>2026-05-02T07:46:38Z</time></trkpt><trkpt lat="44.25488076806117" lon="11.038759908692418"><ele>603.8000000000001</ele><time>2026-05-02T07:46:40Z</time></trkpt><trkpt lat="44.254868420894844" lon="11.038528364370064"><ele>597.0</ele><time>2026-05-02T07:46:42Z</time></trkpt><trkpt lat="44.254861758609565" lon="11.038322865670894"><ele>596.5</ele><time>2026-05-02T07:46:43Z</time></trkpt><trkpt lat="44.25485649216417" lon="11.038130669970943"><ele>596.0</ele><time>2026-05-02T07:46:44Z</time></trkpt><trkpt lat="44.25483972201118" lon="11.0379662699536"><ele>595.5</ele><time>2026-05-02T07:46:45Z</time></trkpt><trkpt lat="44.254825642781356" lon="11.037816531098246"><ele>595.0</ele><time>2026-05-02T07:46:46Z</time></trkpt><trkpt lat="44.25482297059107" lon="11.03766750473859"><ele>595.0</ele><time>2026-05-02T07:46:47Z</time></trkpt><trkpt lat="44.254853999465944" lon="11.03754467539858"><ele>595.0</ele><time>2026-05-02T07:46:48Z</time></trkpt><trkpt lat="44.25486620892797" lon="11.037413087030048"><ele>595.0</ele><time>2026-05-02T07:46:49Z</time></trkpt><trkpt lat="44.254858472779546" lon="11.037283867109302"><ele>595.0</ele><time>2026-05-02T07:46:50Z</time></trkpt><trkpt lat="44.254835966246986" lon="11.037155134577873"><ele>595.0</ele><time>2026-05-02T07:46:51Z</time></trkpt><trkpt lat="44.25478838105526" lon="11.037093261754107"><ele>595.0</ele><time>2026-05-02T07:46:52Z</time></trkpt><trkpt lat="44.254814489818145" lon="11.036968543705331"><ele>594.2</ele><time>2026-05-02T07:46:53Z</time></trkpt><trkpt lat="44.254838973602425" lon="11.036871809539557"><ele>593.4</ele><time>2026-05-02T07:46:54Z</time></trkpt><trkpt lat="44.254834153842616" lon="11.036780282577853"><ele>592.6</ele><time>2026-05-02T07:46:55Z</time></trkpt><trkpt lat="44.25480945221961" lon="11.036686328841402"><ele>591.8</ele><time>2026-05-02T07:46:56Z</time></trkpt><trkpt lat="44.254787269078136" lon="11.036526093894597"><ele>591.0</ele><time>2026-05-02T07:46:57Z</time></trkpt><trkpt lat="44.25477404884478" lon="11.036350801966888"><ele>591.1666666666666</ele><time>2026-05-02T07:46:58Z</time></trkpt><trkpt lat="44.254792750944766" lon="11.036238783144482"><ele>591.3333333333334</ele><time>2026-05-02T07:46:59Z</time></trkpt><trkpt lat="44.254807479735476" lon="11.036136270228544"><ele>591.5</ele><time>2026-05-02T07:47:00Z</time></trkpt><trkpt lat="44.25483982929646" lon="11.036018078977447"><ele>591.6666666666667</ele><time>2026-05-02T07:47:01Z</time></trkpt><trkpt lat="44.25488093282526" lon="11.035919424867975"><ele>591.8333333333334</ele><time>2026-05-02T07:47:03Z</time></trkpt><trkpt lat="44.254964838003154" lon="11.036002598445593"><ele>592.0</ele><time>2026-05-02T07:47:05Z</time></trkpt><trkpt lat="44.25507428707079" lon="11.036064443238912"><ele>592.0</ele><time>2026-05-02T07:47:07Z</time></trkpt><trkpt lat="44.25513318806666" lon="11.036031435905574"><ele>592.0</ele><time>2026-05-02T07:47:08Z</time></trkpt><trkpt lat="44.25521031348388" lon="11.035967777529953"><ele>592.0</ele><time>2026-05-02T07:47:09Z</time></trkpt><trkpt lat="44.25531520248634" lon="11.03590892163328"><ele>592.0</ele><time>2026-05-02T07:47:10Z</time></trkpt><trkpt lat="44.255387318191616" lon="11.035855857960472"><ele>592.0</ele><time>2026-05-02T07:47:11Z</time></trkpt><trkpt lat="44.25548432457325" lon="11.035766437492565"><ele>592.2857142857143</ele><time>2026-05-02T07:47:13Z</time></trkpt><trkpt lat="44.255545738498235" lon="11.03572826311271"><ele>592.5714285714286</ele><time>2026-05-02T07:47:14Z</time></trkpt><trkpt lat="44.25561429961254" lon="11.035711736349054"><ele>592.8571428571429</ele><time>2026-05-02T07:47:15Z</time></trkpt><trkpt lat="44.25567885970776" lon="11.035673090688153"><ele>593.1428571428571</ele><time>2026-05-02T07:47:16Z</time></trkpt><trkpt lat="44.25564892840783" lon="11.035583462366018"><ele>593.4285714285714</ele><time>2026-05-02T07:47:20Z</time></trkpt><trkpt lat="44.25559045953011" lon="11.035515301265665"><ele>593.7142857142858</ele><time>2026-05-02T07:47:22Z</time></trkpt><trkpt lat="44.25559416662868" lon="11.035398813485763"><ele>594.0</ele><time>2026-05-02T07:47:23Z</time></trkpt><trkpt lat="44.25563890849762" lon="11.035269632395908"><ele>590.2</ele><time>2026-05-02T07:47:24Z</time></trkpt><trkpt lat="44.25566324927808" lon="11.035126574338191"><ele>586.4</ele><time>2026-05-02T07:47:25Z</time></trkpt><trkpt lat="44.255679711972746" lon="11.034991277033866"><ele>582.6</ele><time>2026-05-02T07:47:26Z</time></trkpt><trkpt lat="44.255708741357225" lon="11.034839141781452"><ele>578.8</ele><time>2026-05-02T07:47:27Z</time></trkpt><trkpt lat="44.25579852383283" lon="11.034747345591562"><ele>575.0</ele><time>2026-05-02T07:47:28Z</time></trkpt><trkpt lat="44.25586188385246" lon="11.03461643091992"><ele>575.0</ele><time>2026-05-02T07:47:29Z</time></trkpt><trkpt lat="44.25591395667665" lon="11.034509310471902"><ele>575.0</ele><time>2026-05-02T07:47:30Z</time></trkpt><trkpt lat="44.255963491485446" lon="11.034445828302921"><ele>575.0</ele><time>2026-05-02T07:47:31Z</time></trkpt><trkpt lat="44.25599273938445" lon="11.034365329826207"><ele>575.0</ele><time>2026-05-02T07:47:32Z</time></trkpt><trkpt lat="44.25593713482848" lon="11.034284039183751"><ele>575.0</ele><time>2026-05-02T07:47:34Z</time></trkpt><trkpt lat="44.255838764150795" lon="11.034235786155213"><ele>575.0</ele><time>2026-05-02T07:47:36Z</time></trkpt><trkpt lat="44.255748648362385" lon="11.034220006658979"><ele>575.0</ele><time>2026-05-02T07:47:38Z</time></trkpt><trkpt lat="44.255706772893646" lon="11.03414854375815"><ele>575.0</ele><time>2026-05-02T07:47:39Z</time></trkpt><trkpt lat="44.255669588504226" lon="11.034058433651474"><ele>575.0</ele><time>2026-05-02T07:47:40Z</time></trkpt><trkpt lat="44.255666025625715" lon="11.033850529198796"><ele>575.0</ele><time>2026-05-02T07:47:42Z</time></trkpt><trkpt lat="44.255676560076346" lon="11.033717008188594"><ele>575.0</ele><time>2026-05-02T07:47:43Z</time></trkpt><trkpt lat="44.25564518479963" lon="11.033582623683543"><ele>573.2</ele><time>2026-05-02T07:47:44Z</time></trkpt><trkpt lat="44.255625093738885" lon="11.033416334257971"><ele>571.4</ele><time>2026-05-02T07:47:45Z</time></trkpt><trkpt lat="44.25560639912677" lon="11.033275428918495"><ele>569.6</ele><time>2026-05-02T07:47:46Z</time></trkpt><trkpt lat="44.25556257090615" lon="11.033184622288246"><ele>567.8</ele><time>2026-05-02T07:47:47Z</time></trkpt><trkpt lat="44.25550141822023" lon="11.03309263658142"><ele>566.0</ele><time>2026-05-02T07:47:48Z</time></trkpt><trkpt lat="44.25537857711437" lon="11.033059171708759"><ele>570.0</ele><time>2026-05-02T07:47:50Z</time></trkpt><trkpt lat="44.25532036549542" lon="11.032938254314333"><ele>574.0</ele><time>2026-05-02T07:47:52Z</time></trkpt><trkpt lat="44.25528620122146" lon="11.032819839861553"><ele>578.0</ele><time>2026-05-02T07:47:54Z</time></trkpt><trkpt lat="44.255343569843596" lon="11.03276192003629"><ele>582.0</ele><time>2026-05-02T07:47:56Z</time></trkpt><trkpt lat="44.25545509468127" lon="11.032725069739135"><ele>586.0</ele><time>2026-05-02T07:47:58Z</time></trkpt><trkpt lat="44.25550415700987" lon="11.032570950053318"><ele>585.9999999999999</ele><time>2026-05-02T07:48:00Z</time></trkpt><trkpt lat="44.25552349410157" lon="11.032485413093841"><ele>586.0</ele><time>2026-05-02T07:48:01Z</time></trkpt><trkpt lat="44.25554318741233" lon="11.032400400376638"><ele>586.0</ele><time>2026-05-02T07:48:02Z</time></trkpt><trkpt lat="44.25554961248482" lon="11.032275022477558"><ele>586.0</ele><time>2026-05-02T07:48:04Z</time></trkpt><trkpt lat="44.25553949467049" lon="11.032181036059248"><ele>586.0</ele><time>2026-05-02T07:48:05Z</time></trkpt><trkpt lat="44.25556887721749" lon="11.032075291060188"><ele>585.9999999999999</ele><time>2026-05-02T07:48:06Z</time></trkpt><trkpt lat="44.2555817161026" lon="11.031980862606416"><ele>586.0</ele><time>2026-05-02T07:48:07Z</time></trkpt><trkpt lat="44.255586810541914" lon="11.031867628757128"><ele>585.0</ele><time>2026-05-02T07:48:11Z</time></trkpt><trkpt lat="44.2556053235148" lon="11.031780695599666"><ele>584.0</ele><time>2026-05-02T07:48:13Z</time></trkpt><trkpt lat="44.25560579389319" lon="11.031678539596683"><ele>583.0</ele><time>2026-05-02T07:48:16Z</time></trkpt><trkpt lat="44.25566773964376" lon="11.031755932344469"><ele>582.0</ele><time>2026-05-02T07:48:21Z</time></trkpt><trkpt lat="44.255710900116746" lon="11.031863285447026"><ele>581.0</ele><time>2026-05-02T07:48:23Z</time></trkpt><trkpt lat="44.255758340075495" lon="11.031959832175678"><ele>580.0</ele><time>2026-05-02T07:48:25Z</time></trkpt><trkpt lat="44.25584156760854" lon="11.032003160008903"><ele>574.7142857142858</ele><time>2026-05-02T07:48:28Z</time></trkpt><trkpt lat="44.25588306624663" lon="11.032113810801322"><ele>569.4285714285714</ele><time>2026-05-02T07:48:31Z</time></trkpt><trkpt lat="44.2558711381916" lon="11.03222077813529"><ele>564.1428571428571</ele><time>2026-05-02T07:48:34Z</time></trkpt><trkpt lat="44.25592583005213" lon="11.032284556837483"><ele>558.8571428571429</ele><time>2026-05-02T07:48:42Z</time></trkpt><trkpt lat="44.25595786184673" lon="11.03236316607721"><ele>553.5714285714286</ele><time>2026-05-02T07:48:46Z</time></trkpt><trkpt lat="44.25600634999379" lon="11.03230280427359"><ele>548.2857142857143</ele><time>2026-05-02T07:48:52Z</time></trkpt><trkpt lat="44.25605698251814" lon="11.0322472248263"><ele>543.0</ele><time>2026-05-02T07:49:34Z</time></trkpt><trkpt lat="44.256065643004206" lon="11.03215345651275"><ele>543.0</ele><time>2026-05-02T07:49:37Z</time></trkpt><trkpt lat="44.25615313325909" lon="11.032038052406659"><ele>543.0</ele><time>2026-05-02T07:50:42Z</time></trkpt><trkpt lat="44.2562025121895" lon="11.032105615493164"><ele>543.0</ele><time>2026-05-02T07:52:39Z</time></trkpt><trkpt lat="44.25623669501229" lon="11.03217958364792"><ele>543.0</ele><time>2026-05-02T07:53:00Z</time></trkpt><trkpt lat="44.256277346860884" lon="11.032265868666604"><ele>543.0</ele><time>2026-05-02T07:53:03Z</time></trkpt><trkpt lat="44.25633611288157" lon="11.032311649032252"><ele>543.0</ele><time>2026-05-02T07:53:04Z</time></trkpt><trkpt lat="44.25642885479133" lon="11.03236279722646"><ele>542.8333333333334</ele><time>2026-05-02T07:53:07Z</time></trkpt><trkpt lat="44.25651641007362" lon="11.03233922146929"><ele>542.6666666666666</ele><time>2026-05-02T07:53:09Z</time></trkpt><trkpt lat="44.25660076458937" lon="11.032324889538915"><ele>542.5</ele><time>2026-05-02T07:53:11Z</time></trkpt><trkpt lat="44.2566713651037" lon="11.032303371753821"><ele>542.3333333333333</ele><time>2026-05-02T07:53:24Z</time></trkpt><trkpt lat="44.25674586941946" lon="11.032252150977241"><ele>542.1666666666666</ele><time>2026-05-02T07:53:26Z</time></trkpt><trkpt lat="44.25682447526919" lon="11.032251762113804"><ele>542.0</ele><time>2026-05-02T07:53:28Z</time></trkpt><trkpt lat="44.25690491431487" lon="11.03227447147102"><ele>542.0</ele><time>2026-05-02T07:53:29Z</time></trkpt><trkpt lat="44.256981077928394" lon="11.032330567650241"><ele>542.0</ele><time>2026-05-02T07:53:30Z</time></trkpt><trkpt lat="44.25706716901048" lon="11.03240857373302"><ele>542.0</ele><time>2026-05-02T07:53:31Z</time></trkpt><trkpt lat="44.257147289143646" lon="11.032486691384923"><ele>542.0</ele><time>2026-05-02T07:53:32Z</time></trkpt><trkpt lat="44.257225837648875" lon="11.032614147152422"><ele>542.0</ele><time>2026-05-02T07:53:34Z</time></trkpt><trkpt lat="44.25725936637987" lon="11.032693484431084"><ele>545.6</ele><time>2026-05-02T07:53:35Z</time></trkpt><trkpt lat="44.257303846888206" lon="11.032800734145574"><ele>549.2</ele><time>2026-05-02T07:53:36Z</time></trkpt><trkpt lat="44.25734032748181" lon="11.032901272147564"><ele>552.8</ele><time>2026-05-02T07:53:37Z</time></trkpt><trkpt lat="44.25738483741159" lon="11.033016130568717"><ele>556.4</ele><time>2026-05-02T07:53:38Z</time></trkpt><trkpt lat="44.257417189143624" lon="11.033126655396348"><ele>560.0</ele><time>2026-05-02T07:53:39Z</time></trkpt><trkpt lat="44.25742701037147" lon="11.033277947893922"><ele>557.1666666666666</ele><time>2026-05-02T07:53:40Z</time></trkpt><trkpt lat="44.25744454338913" lon="11.033406469929494"><ele>554.3333333333333</ele><time>2026-05-02T07:53:41Z</time></trkpt><trkpt lat="44.25746908321696" lon="11.033504908947378"><ele>551.5</ele><time>2026-05-02T07:53:42Z</time></trkpt><trkpt lat="44.25754303783408" lon="11.033533382373781"><ele>548.6666666666666</ele><time>2026-05-02T07:53:44Z</time></trkpt><trkpt lat="44.25759108917373" lon="11.033619285624335"><ele>545.8333333333334</ele><time>2026-05-02T07:53:45Z</time></trkpt><trkpt lat="44.257639864451114" lon="11.033734859532542"><ele>543.0</ele><time>2026-05-02T07:53:46Z</time></trkpt><trkpt lat="44.25769068568419" lon="11.03383997985237"><ele>543.0</ele><time>2026-05-02T07:53:47Z</time></trkpt><trkpt lat="44.25778190069989" lon="11.03394781331042"><ele>543.0</ele><time>2026-05-02T07:53:48Z</time></trkpt><trkpt lat="44.257863122003506" lon="11.034028352320771"><ele>543.0</ele><time>2026-05-02T07:53:49Z</time></trkpt><trkpt lat="44.25795787385407" lon="11.034134345920545"><ele>543.0</ele><time>2026-05-02T07:53:50Z</time></trkpt><trkpt lat="44.258043561766655" lon="11.0342191553596"><ele>543.0</ele><time>2026-05-02T07:53:51Z</time></trkpt><trkpt lat="44.25813253765084" lon="11.034297213582406"><ele>547.1428571428571</ele><time>2026-05-02T07:53:52Z</time></trkpt><trkpt lat="44.2582044560789" lon="11.03435428788749"><ele>551.2857142857142</ele><time>2026-05-02T07:53:53Z</time></trkpt><trkpt lat="44.258272890890005" lon="11.034376053438057"><ele>555.4285714285713</ele><time>2026-05-02T07:53:54Z</time></trkpt><trkpt lat="44.25835506431551" lon="11.034391636886948"><ele>559.5714285714286</ele><time>2026-05-02T07:53:55Z</time></trkpt><trkpt lat="44.25842683574454" lon="11.034408724151934"><ele>563.7142857142857</ele><time>2026-05-02T07:53:56Z</time></trkpt><trkpt lat="44.25847609601118" lon="11.034463887508528"><ele>567.8571428571428</ele><time>2026-05-02T07:53:57Z</time></trkpt><trkpt lat="44.258519226978414" lon="11.034534600055451"><ele>572.0</ele><time>2026-05-02T07:53:58Z</time></trkpt><trkpt lat="44.258568507779884" lon="11.034630686763975"><ele>572.0</ele><time>2026-05-02T07:53:59Z</time></trkpt><trkpt lat="44.2586041109706" lon="11.034703700294315"><ele>572.0</ele><time>2026-05-02T07:54:00Z</time></trkpt><trkpt lat="44.25863252006884" lon="11.034804331054103"><ele>572.0</ele><time>2026-05-02T07:54:02Z</time></trkpt><trkpt lat="44.258623422832216" lon="11.035007564797642"><ele>572.0</ele><time>2026-05-02T07:54:04Z</time></trkpt><trkpt lat="44.258620882744765" lon="11.035137644819205"><ele>572.0</ele><time>2026-05-02T07:54:05Z</time></trkpt><trkpt lat="44.25862017777539" lon="11.035270793740173"><ele>568.8333333333333</ele><time>2026-05-02T07:54:06Z</time></trkpt><trkpt lat="44.258623519669655" lon="11.035399887100974"><ele>565.6666666666666</ele><time>2026-05-02T07:54:07Z</time></trkpt><trkpt lat="44.25863487735483" lon="11.035492945914216"><ele>562.5</ele><time>2026-05-02T07:54:08Z</time></trkpt><trkpt lat="44.25867277025716" lon="11.035594855698415"><ele>559.3333333333334</ele><time>2026-05-02T07:54:09Z</time></trkpt><trkpt lat="44.25873763509335" lon="11.035661814693036"><ele>556.1666666666667</ele><time>2026-05-02T07:54:10Z</time></trkpt><trkpt lat="44.258804647032136" lon="11.035730153125924"><ele>553.0</ele><time>2026-05-02T07:54:11Z</time></trkpt><trkpt lat="44.25888537831092" lon="11.035793274022854"><ele>557.0</ele><time>2026-05-02T07:54:12Z</time></trkpt><trkpt lat="44.258968741201954" lon="11.035810095253263"><ele>561.0</ele><time>2026-05-02T07:54:13Z</time></trkpt><trkpt lat="44.25905174889367" lon="11.035818828354182"><ele>565.0</ele><time>2026-05-02T07:54:14Z</time></trkpt><trkpt lat="44.25912561840843" lon="11.035847325950305"><ele>569.0</ele><time>2026-05-02T07:54:15Z</time></trkpt><trkpt lat="44.2591913492486" lon="11.03592445274998"><ele>573.0</ele><time>2026-05-02T07:54:16Z</time></trkpt><trkpt lat="44.25923862043669" lon="11.036017121243463"><ele>577.0</ele><time>2026-05-02T07:54:17Z</time></trkpt><trkpt lat="44.25928803020376" lon="11.036145012614828"><ele>577.0</ele><time>2026-05-02T07:54:18Z</time></trkpt><trkpt lat="44.259360644046026" lon="11.036269708621846"><ele>577.0</ele><time>2026-05-02T07:54:19Z</time></trkpt><trkpt lat="44.259417603767254" lon="11.036351531631816"><ele>577.0</ele><time>2026-05-02T07:54:20Z</time></trkpt><trkpt lat="44.25951422854207" lon="11.036432779741508"><ele>577.0</ele><time>2026-05-02T07:54:22Z</time></trkpt><trkpt lat="44.25953750845247" lon="11.036522122247458"><ele>577.0</ele><time>2026-05-02T07:54:26Z</time></trkpt><trkpt lat="44.25958988587488" lon="11.036643453716119"><ele>576.0</ele><time>2026-05-02T07:54:28Z</time></trkpt><trkpt lat="44.2595938674053" lon="11.036804684063657"><ele>575.0</ele><time>2026-05-02T07:54:30Z</time></trkpt><trkpt lat="44.25959825272623" lon="11.03689988421756"><ele>574.0</ele><time>2026-05-02T07:54:31Z</time></trkpt><trkpt lat="44.25959287554014" lon="11.037021986413732"><ele>573.0</ele><time>2026-05-02T07:54:34Z</time></trkpt><trkpt lat="44.25955347308054" lon="11.037096711215442"><ele>572.0</ele><time>2026-05-02T07:54:35Z</time></trkpt><trkpt lat="44.259493594294334" lon="11.037156225881544"><ele>571.0</ele><time>2026-05-02T07:54:37Z</time></trkpt><trkpt lat="44.25943227553259" lon="11.03720774544051"><ele>571.0</ele><time>2026-05-02T07:54:38Z</time></trkpt><trkpt lat="44.25933961878392" lon="11.037285369030055"><ele>571.0</ele><time>2026-05-02T07:54:39Z</time></trkpt><trkpt lat="44.25926336122119" lon="11.037381164015663"><ele>571.0</ele><time>2026-05-02T07:54:40Z</time></trkpt><trkpt lat="44.25917542685181" lon="11.037468226402451"><ele>571.0</ele><time>2026-05-02T07:54:42Z</time></trkpt><trkpt lat="44.25909919268914" lon="11.037577592581549"><ele>571.0</ele><time>2026-05-02T07:54:44Z</time></trkpt><trkpt lat="44.259081756713584" lon="11.037705137083305"><ele>573.4</ele><time>2026-05-02T07:54:46Z</time></trkpt><trkpt lat="44.2590346290973" lon="11.037876528645906"><ele>575.8</ele><time>2026-05-02T07:54:48Z</time></trkpt><trkpt lat="44.25897550179806" lon="11.037979845935608"><ele>578.1999999999999</ele><time>2026-05-02T07:54:49Z</time></trkpt><trkpt lat="44.258932796006434" lon="11.038062274067752"><ele>580.6</ele><time>2026-05-02T07:54:50Z</time></trkpt><trkpt lat="44.25888515464655" lon="11.038164758554284"><ele>583.0</ele><time>2026-05-02T07:54:52Z</time></trkpt><trkpt lat="44.25885653645705" lon="11.03827031541231"><ele>577.3333333333334</ele><time>2026-05-02T07:54:54Z</time></trkpt><trkpt lat="44.25882875772263" lon="11.038349730116005"><ele>571.6666666666667</ele><time>2026-05-02T07:54:55Z</time></trkpt><trkpt lat="44.25880540819854" lon="11.038475107930473"><ele>566.0</ele><time>2026-05-02T07:54:56Z</time></trkpt><trkpt lat="44.258781108202406" lon="11.038560600929467"><ele>560.3333333333334</ele><time>2026-05-02T07:54:57Z</time></trkpt><trkpt lat="44.2587454056456" lon="11.038696433752579"><ele>554.6666666666666</ele><time>2026-05-02T07:54:59Z</time></trkpt><trkpt lat="44.25873358340172" lon="11.038792632427363"><ele>549.0</ele><time>2026-05-02T07:55:01Z</time></trkpt><trkpt lat="44.25868864719067" lon="11.03896266683858"><ele>551.0</ele><time>2026-05-02T07:55:03Z</time></trkpt><trkpt lat="44.258827621168166" lon="11.039173366564034"><ele>553.0</ele><time>2026-05-02T07:55:04Z</time></trkpt><trkpt lat="44.25878967671174" lon="11.039316497203902"><ele>555.0</ele><time>2026-05-02T07:55:06Z</time></trkpt><trkpt lat="44.25877746552955" lon="11.039424987199661"><ele>557.0</ele><time>2026-05-02T07:55:08Z</time></trkpt><trkpt lat="44.2587679739583" lon="11.039541909805957"><ele>557.0</ele><time>2026-05-02T07:55:10Z</time></trkpt><trkpt lat="44.258763013106716" lon="11.039655240761814"><ele>557.0</ele><time>2026-05-02T07:55:11Z</time></trkpt><trkpt lat="44.25875979915863" lon="11.039809627515238"><ele>557.0</ele><time>2026-05-02T07:55:12Z</time></trkpt><trkpt lat="44.25875878294217" lon="11.039903602005289"><ele>557.0</ele><time>2026-05-02T07:55:13Z</time></trkpt><trkpt lat="44.258760884985925" lon="11.040065842470488"><ele>557.0</ele><time>2026-05-02T07:55:15Z</time></trkpt><trkpt lat="44.25876622303919" lon="11.040168011013792"><ele>557.0</ele><time>2026-05-02T07:55:16Z</time></trkpt><trkpt lat="44.25877100144518" lon="11.040258661706934"><ele>558.6666666666666</ele><time>2026-05-02T07:55:17Z</time></trkpt><trkpt lat="44.2587894606373" lon="11.040373393842664"><ele>560.3333333333333</ele><time>2026-05-02T07:55:18Z</time></trkpt><trkpt lat="44.258817003551044" lon="11.040489992199982"><ele>562.0</ele><time>2026-05-02T07:55:19Z</time></trkpt><trkpt lat="44.25884408482104" lon="11.04060463627535"><ele>563.6666666666666</ele><time>2026-05-02T07:55:20Z</time></trkpt><trkpt lat="44.258863653575375" lon="11.040703398184158"><ele>565.3333333333334</ele><time>2026-05-02T07:55:21Z</time></trkpt><trkpt lat="44.25887508053049" lon="11.040802720794042"><ele>567.0</ele><time>2026-05-02T07:55:22Z</time></trkpt><trkpt lat="44.25892225232776" lon="11.040873855343218"><ele>567.0</ele><time>2026-05-02T07:55:24Z</time></trkpt><trkpt lat="44.25895452798653" lon="11.040960986051543"><ele>567.0</ele><time>2026-05-02T07:55:28Z</time></trkpt><trkpt lat="44.258944229737644" lon="11.040872600563969"><ele>567.0</ele><time>2026-05-02T07:55:34Z</time></trkpt><trkpt lat="44.25886549176872" lon="11.040807960414588"><ele>567.0</ele><time>2026-05-02T07:55:36Z</time></trkpt><trkpt lat="44.25880867285693" lon="11.040703934012647"><ele>567.0</ele><time>2026-05-02T07:55:38Z</time></trkpt><trkpt lat="44.25876410790957" lon="11.040582045005621"><ele>567.0</ele><time>2026-05-02T07:55:40Z</time></trkpt><trkpt lat="44.25873251022337" lon="11.040476693286912"><ele>567.0</ele><time>2026-05-02T07:55:41Z</time></trkpt><trkpt lat="44.25870795157444" lon="11.040387800404796"><ele>567.0</ele><time>2026-05-02T07:55:42Z</time></trkpt><trkpt lat="44.258845366478006" lon="11.040243683154655"><ele>567.0</ele><time>2026-05-02T07:55:43Z</time></trkpt><trkpt lat="44.25883698369542" lon="11.040132387988027"><ele>567.0</ele><time>2026-05-02T07:55:45Z</time></trkpt><trkpt lat="44.25883368638433" lon="11.040044171020675"><ele>567.0</ele><time>2026-05-02T07:55:48Z</time></trkpt><trkpt lat="44.258832047466235" lon="11.039944403660622"><ele>565.0</ele><time>2026-05-02T07:55:51Z</time></trkpt><trkpt lat="44.25883525484294" lon="11.039760307546407"><ele>563.0</ele><time>2026-05-02T07:55:53Z</time></trkpt><trkpt lat="44.25883818797921" lon="11.03964484218051"><ele>561.0</ele><time>2026-05-02T07:55:54Z</time></trkpt><trkpt lat="44.25884637767093" lon="11.03948126182121"><ele>559.0</ele><time>2026-05-02T07:55:56Z</time></trkpt><trkpt lat="44.25885575770545" lon="11.039392898640743"><ele>557.0</ele><time>2026-05-02T07:55:59Z</time></trkpt><trkpt lat="44.25887405954516" lon="11.039297472644856"><ele>557.0</ele><time>2026-05-02T07:56:01Z</time></trkpt><trkpt lat="44.25891604074594" lon="11.039153093859309"><ele>557.0</ele><time>2026-05-02T07:56:03Z</time></trkpt><trkpt lat="44.25896516330314" lon="11.039018906826016"><ele>557.0</ele><time>2026-05-02T07:56:05Z</time></trkpt><trkpt lat="44.25901339846443" lon="11.038908549825868"><ele>557.0</ele><time>2026-05-02T07:56:10Z</time></trkpt><trkpt lat="44.259064072295345" lon="11.038804846192336"><ele>557.0</ele><time>2026-05-02T07:56:12Z</time></trkpt><trkpt lat="44.259128352718825" lon="11.03867692811504"><ele>561.3333333333333</ele><time>2026-05-02T07:56:14Z</time></trkpt><trkpt lat="44.259185504801074" lon="11.038571002243161"><ele>565.6666666666666</ele><time>2026-05-02T07:56:16Z</time></trkpt><trkpt lat="44.2592416276912" lon="11.038480752388567"><ele>570.0</ele><time>2026-05-02T07:56:18Z</time></trkpt><trkpt lat="44.25929040053061" lon="11.038401994193594"><ele>574.3333333333334</ele><time>2026-05-02T07:56:20Z</time></trkpt><trkpt lat="44.259354811013715" lon="11.038297984414722"><ele>578.6666666666667</ele><time>2026-05-02T07:56:22Z</time></trkpt><trkpt lat="44.25939970048404" lon="11.03822360884872"><ele>583.0</ele><time>2026-05-02T07:56:23Z</time></trkpt><trkpt lat="44.259459336232226" lon="11.038116064074385"><ele>583.0</ele><time>2026-05-02T07:56:25Z</time></trkpt><trkpt lat="44.25950315593746" lon="11.038028807761524"><ele>583.0</ele><time>2026-05-02T07:56:27Z</time></trkpt><trkpt lat="44.25955833482489" lon="11.037912592023858"><ele>583.0</ele><time>2026-05-02T07:56:30Z</time></trkpt><trkpt lat="44.25960543050618" lon="11.037811342477404"><ele>583.0</ele><time>2026-05-02T07:56:33Z</time></trkpt><trkpt lat="44.25966648440476" lon="11.037678165573233"><ele>583.0</ele><time>2026-05-02T07:56:35Z</time></trkpt><trkpt lat="44.259718193523554" lon="11.03756713223212"><ele>579.0</ele><time>2026-05-02T07:56:37Z</time></trkpt><trkpt lat="44.259784485903246" lon="11.03743778163866"><ele>575.0</ele><time>2026-05-02T07:56:40Z</time></trkpt><trkpt lat="44.25982742772099" lon="11.037372398912584"><ele>571.0</ele><time>2026-05-02T07:56:42Z</time></trkpt><trkpt lat="44.25961579191066" lon="11.036690317936147"><ele>571.0</ele><time>2026-05-02T07:56:49Z</time></trkpt><trkpt lat="44.259583500650244" lon="11.036572312520887"><ele>571.0</ele><time>2026-05-02T07:56:51Z</time></trkpt><trkpt lat="44.259583127338196" lon="11.036474123994864"><ele>571.0</ele><time>2026-05-02T07:56:53Z</time></trkpt><trkpt lat="44.25965239118994" lon="11.036432681897443"><ele>571.0</ele><time>2026-05-02T07:57:00Z</time></trkpt><trkpt lat="44.259586893843164" lon="11.036468716300277"><ele>571.0</ele><time>2026-05-02T08:00:19Z</time></trkpt><trkpt lat="44.25959506259511" lon="11.03682308765544"><ele>571.0</ele><time>2026-05-02T08:00:28Z</time></trkpt><trkpt lat="44.25960395238911" lon="11.036921794477575"><ele>571.0</ele><time>2026-05-02T08:00:31Z</time></trkpt><trkpt lat="44.25958222872802" lon="11.037034374910089"><ele>571.0</ele><time>2026-05-02T08:00:34Z</time></trkpt><trkpt lat="44.25953266515611" lon="11.037152138993228"><ele>571.0</ele><time>2026-05-02T08:00:36Z</time></trkpt><trkpt lat="44.25945851145771" lon="11.037180239713866"><ele>571.0</ele><time>2026-05-02T08:00:38Z</time></trkpt><trkpt lat="44.25938735754503" lon="11.037234632509888"><ele>571.0</ele><time>2026-05-02T08:00:39Z</time></trkpt><trkpt lat="44.2592860215487" lon="11.037342686542795"><ele>571.0</ele><time>2026-05-02T08:00:41Z</time></trkpt><trkpt lat="44.25921635922677" lon="11.03740946130043"><ele>571.0</ele><time>2026-05-02T08:00:43Z</time></trkpt><trkpt lat="44.25914645660049" lon="11.037494319975865"><ele>571.0</ele><time>2026-05-02T08:00:45Z</time></trkpt><trkpt lat="44.259104753310105" lon="11.037590925480252"><ele>571.0</ele><time>2026-05-02T08:00:47Z</time></trkpt><trkpt lat="44.2590741551363" lon="11.037714940009572"><ele>571.0</ele><time>2026-05-02T08:00:49Z</time></trkpt><trkpt lat="44.25905959610391" lon="11.037804150025618"><ele>571.0</ele><time>2026-05-02T08:00:50Z</time></trkpt><trkpt lat="44.25898653626674" lon="11.037964681906377"><ele>567.3333333333334</ele><time>2026-05-02T08:00:52Z</time></trkpt><trkpt lat="44.25893053066516" lon="11.038085902276443"><ele>563.6666666666667</ele><time>2026-05-02T08:00:54Z</time></trkpt><trkpt lat="44.25888845315695" lon="11.038176627645296"><ele>560.0</ele><time>2026-05-02T08:00:57Z</time></trkpt><trkpt lat="44.25886401319284" lon="11.038273620457119"><ele>556.3333333333334</ele><time>2026-05-02T08:01:03Z</time></trkpt><trkpt lat="44.25884684126536" lon="11.03835949336783"><ele>552.6666666666666</ele><time>2026-05-02T08:01:05Z</time></trkpt><trkpt lat="44.258825528668275" lon="11.038443136982016"><ele>549.0</ele><time>2026-05-02T08:01:06Z</time></trkpt><trkpt lat="44.25880150624585" lon="11.038538545619986"><ele>549.0</ele><time>2026-05-02T08:01:07Z</time></trkpt><trkpt lat="44.25876532050761" lon="11.038716119460217"><ele>549.0</ele><time>2026-05-02T08:01:09Z</time></trkpt><trkpt lat="44.25872000614835" lon="11.038931179462148"><ele>549.0</ele><time>2026-05-02T08:01:13Z</time></trkpt><trkpt lat="44.258813103345084" lon="11.039219129721577"><ele>550.3333333333334</ele><time>2026-05-02T08:01:14Z</time></trkpt><trkpt lat="44.25879281101257" lon="11.039304243324292"><ele>551.6666666666666</ele><time>2026-05-02T08:01:15Z</time></trkpt><trkpt lat="44.2587811559879" lon="11.039397869648475"><ele>553.0</ele><time>2026-05-02T08:01:17Z</time></trkpt><trkpt lat="44.258770487186986" lon="11.039495413443486"><ele>554.3333333333333</ele><time>2026-05-02T08:01:19Z</time></trkpt><trkpt lat="44.25876417678634" lon="11.039612156042617"><ele>555.6666666666666</ele><time>2026-05-02T08:01:20Z</time></trkpt><trkpt lat="44.25876015091164" lon="11.039777093195044"><ele>557.0</ele><time>2026-05-02T08:01:21Z</time></trkpt><trkpt lat="44.25875865499483" lon="11.03991542598636"><ele>559.5</ele><time>2026-05-02T08:01:22Z</time></trkpt><trkpt lat="44.258759531850195" lon="11.040022864883008"><ele>562.0</ele><time>2026-05-02T08:01:23Z</time></trkpt><trkpt lat="44.25876633856328" lon="11.040169862512927"><ele>564.5</ele><time>2026-05-02T08:01:25Z</time></trkpt><trkpt lat="44.258789370583024" lon="11.040373012892719"><ele>567.0</ele><time>2026-05-02T08:01:27Z</time></trkpt><trkpt lat="44.25883047937335" lon="11.040547040190823"><ele>567.0</ele><time>2026-05-02T08:01:28Z</time></trkpt><trkpt lat="44.2588618715622" lon="11.040694588303834"><ele>567.0</ele><time>2026-05-02T08:01:29Z</time></trkpt><trkpt lat="44.25890917966541" lon="11.040845278592032"><ele>567.0</ele><time>2026-05-02T08:01:31Z</time></trkpt><trkpt lat="44.25897098726928" lon="11.040946318693027"><ele>567.0</ele><time>2026-05-02T08:01:33Z</time></trkpt><trkpt lat="44.25898036960218" lon="11.041067939013987"><ele>567.0</ele><time>2026-05-02T08:01:34Z</time></trkpt><trkpt lat="44.25903721252052" lon="11.041271925914682"><ele>574.25</ele><time>2026-05-02T08:01:35Z</time></trkpt><trkpt lat="44.25908398637656" lon="11.041446966522818"><ele>581.5</ele><time>2026-05-02T08:01:36Z</time></trkpt><trkpt lat="44.25914466825122" lon="11.041620205123928"><ele>588.75</ele><time>2026-05-02T08:01:37Z</time></trkpt><trkpt lat="44.25923150301996" lon="11.04180600537596"><ele>596.0</ele><time>2026-05-02T08:01:38Z</time></trkpt><trkpt lat="44.25933423869564" lon="11.041986245423956"><ele>596.0</ele><time>2026-05-02T08:01:39Z</time></trkpt><trkpt lat="44.25944260759649" lon="11.042156437511615"><ele>596.0</ele><time>2026-05-02T08:01:40Z</time></trkpt><trkpt lat="44.2595422402904" lon="11.042311246628795"><ele>596.0</ele><time>2026-05-02T08:01:41Z</time></trkpt><trkpt lat="44.25964514981162" lon="11.042410714801536"><ele>596.0</ele><time>2026-05-02T08:01:42Z</time></trkpt><trkpt lat="44.25974360657319" lon="11.042439962935493"><ele>598.0</ele><time>2026-05-02T08:01:43Z</time></trkpt><trkpt lat="44.259837085391304" lon="11.042383037596549"><ele>600.0</ele><time>2026-05-02T08:01:44Z</time></trkpt><trkpt lat="44.25993715273285" lon="11.04226678473856"><ele>602.0</ele><time>2026-05-02T08:01:45Z</time></trkpt><trkpt lat="44.260048451708975" lon="11.042145256457808"><ele>604.0</ele><time>2026-05-02T08:01:46Z</time></trkpt><trkpt lat="44.26018140622277" lon="11.04211919104338"><ele>604.0</ele><time>2026-05-02T08:01:47Z</time></trkpt><trkpt lat="44.26031749706211" lon="11.042115798054649"><ele>604.0</ele><time>2026-05-02T08:01:48Z</time></trkpt><trkpt lat="44.260437776881524" lon="11.042157179197012"><ele>604.0</ele><time>2026-05-02T08:01:49Z</time></trkpt><trkpt lat="44.2605186352317" lon="11.042306659477862"><ele>604.0</ele><time>2026-05-02T08:01:50Z</time></trkpt><trkpt lat="44.260611799582406" lon="11.042465591162193"><ele>600.0</ele><time>2026-05-02T08:01:51Z</time></trkpt><trkpt lat="44.26064076202667" lon="11.042643194761023"><ele>596.0</ele><time>2026-05-02T08:01:52Z</time></trkpt><trkpt lat="44.26065559719673" lon="11.042841650713113"><ele>592.0</ele><time>2026-05-02T08:01:53Z</time></trkpt><trkpt lat="44.26068727584785" lon="11.04306203623579"><ele>588.0</ele><time>2026-05-02T08:01:54Z</time></trkpt><trkpt lat="44.26070431045691" lon="11.043322005244622"><ele>585.6666666666666</ele><time>2026-05-02T08:01:55Z</time></trkpt><trkpt lat="44.260673931041" lon="11.043564081428093"><ele>583.3333333333333</ele><time>2026-05-02T08:01:56Z</time></trkpt><trkpt lat="44.260667186692096" lon="11.043794558073477"><ele>581.0</ele><time>2026-05-02T08:01:57Z</time></trkpt><trkpt lat="44.260641364419584" lon="11.0439951160579"><ele>574.75</ele><time>2026-05-02T08:01:58Z</time></trkpt><trkpt lat="44.26058937428736" lon="11.044185009838522"><ele>568.5</ele><time>2026-05-02T08:01:59Z</time></trkpt><trkpt lat="44.26054502515422" lon="11.044352642255552"><ele>562.25</ele><time>2026-05-02T08:02:00Z</time></trkpt><trkpt lat="44.260538498392805" lon="11.044497121462499"><ele>556.0</ele><time>2026-05-02T08:02:01Z</time></trkpt><trkpt lat="44.26058511788653" lon="11.044643389426371"><ele>557.0</ele><time>2026-05-02T08:02:02Z</time></trkpt><trkpt lat="44.26065908898135" lon="11.044777939841982"><ele>558.0</ele><time>2026-05-02T08:02:03Z</time></trkpt><trkpt lat="44.26075693769684" lon="11.04492073279288"><ele>559.0</ele><time>2026-05-02T08:02:04Z</time></trkpt><trkpt lat="44.260853519755315" lon="11.045054607469268"><ele>560.0</ele><time>2026-05-02T08:02:05Z</time></trkpt><trkpt lat="44.26093557497998" lon="11.045195822505342"><ele>560.0</ele><time>2026-05-02T08:02:06Z</time></trkpt><trkpt lat="44.26102388724658" lon="11.045315296854254"><ele>560.0</ele><time>2026-05-02T08:02:07Z</time></trkpt><trkpt lat="44.261151630392945" lon="11.045378147696907"><ele>560.0</ele><time>2026-05-02T08:02:08Z</time></trkpt><trkpt lat="44.261284098609956" lon="11.045402494310997"><ele>560.0</ele><time>2026-05-02T08:02:09Z</time></trkpt><trkpt lat="44.261418592336156" lon="11.045380032483067"><ele>561.2</ele><time>2026-05-02T08:02:10Z</time></trkpt><trkpt lat="44.26154234547317" lon="11.045321671472179"><ele>562.4</ele><time>2026-05-02T08:02:11Z</time></trkpt><trkpt lat="44.261643189626085" lon="11.045273528935612"><ele>563.6</ele><time>2026-05-02T08:02:12Z</time></trkpt><trkpt lat="44.26172146510085" lon="11.045292116085514"><ele>564.8</ele><time>2026-05-02T08:02:13Z</time></trkpt><trkpt lat="44.261765546753075" lon="11.045396325133918"><ele>566.0</ele><time>2026-05-02T08:02:14Z</time></trkpt><trkpt lat="44.261769143914265" lon="11.045535315159581"><ele>566.0</ele><time>2026-05-02T08:02:15Z</time></trkpt><trkpt lat="44.26170618236428" lon="11.045650240589334"><ele>566.0</ele><time>2026-05-02T08:02:16Z</time></trkpt><trkpt lat="44.261595882784" lon="11.045678503770262"><ele>566.0</ele><time>2026-05-02T08:02:17Z</time></trkpt><trkpt lat="44.26147045662787" lon="11.045742974438335"><ele>566.0</ele><time>2026-05-02T08:02:18Z</time></trkpt><trkpt lat="44.26134514688117" lon="11.045821002731932"><ele>563.25</ele><time>2026-05-02T08:02:19Z</time></trkpt><trkpt lat="44.261216819406386" lon="11.045927795682507"><ele>560.5</ele><time>2026-05-02T08:02:20Z</time></trkpt><trkpt lat="44.26108697393371" lon="11.046033741334057"><ele>557.75</ele><time>2026-05-02T08:02:21Z</time></trkpt><trkpt lat="44.260950074535316" lon="11.046104540447004"><ele>555.0</ele><time>2026-05-02T08:02:22Z</time></trkpt><trkpt lat="44.260783074816395" lon="11.046134809793298"><ele>555.0</ele><time>2026-05-02T08:02:23Z</time></trkpt><trkpt lat="44.2606401219173" lon="11.046196565652245"><ele>555.0</ele><time>2026-05-02T08:02:24Z</time></trkpt><trkpt lat="44.260509072021065" lon="11.046228944430213"><ele>555.0</ele><time>2026-05-02T08:02:25Z</time></trkpt><trkpt lat="44.26040089605461" lon="11.046292654403684"><ele>555.0</ele><time>2026-05-02T08:02:26Z</time></trkpt><trkpt lat="44.26029235125188" lon="11.046391917384893"><ele>554.25</ele><time>2026-05-02T08:02:27Z</time></trkpt><trkpt lat="44.26017291469604" lon="11.046517442674245"><ele>553.5</ele><time>2026-05-02T08:02:28Z</time></trkpt><trkpt lat="44.26005485800917" lon="11.046671674129978"><ele>552.75</ele><time>2026-05-02T08:02:29Z</time></trkpt><trkpt lat="44.25994673171945" lon="11.046790544207537"><ele>552.0</ele><time>2026-05-02T08:02:30Z</time></trkpt><trkpt lat="44.25983863099643" lon="11.046897795498523"><ele>539.3333333333334</ele><time>2026-05-02T08:02:31Z</time></trkpt><trkpt lat="44.25971446332757" lon="11.047033890508319"><ele>526.6666666666667</ele><time>2026-05-02T08:02:32Z</time></trkpt><trkpt lat="44.25958684457237" lon="11.047177307012015"><ele>514.0</ele><time>2026-05-02T08:02:33Z</time></trkpt><trkpt lat="44.25945512273073" lon="11.047324914582266"><ele>514.0</ele><time>2026-05-02T08:02:34Z</time></trkpt><trkpt lat="44.259335180192195" lon="11.047454919702012"><ele>514.0</ele><time>2026-05-02T08:02:35Z</time></trkpt><trkpt lat="44.25921123322103" lon="11.047589505427757"><ele>514.0</ele><time>2026-05-02T08:02:36Z</time></trkpt><trkpt lat="44.25909180369312" lon="11.04772364871839"><ele>511.25</ele><time>2026-05-02T08:02:37Z</time></trkpt><trkpt lat="44.258978411029624" lon="11.04785699088356"><ele>508.5</ele><time>2026-05-02T08:02:38Z</time></trkpt><trkpt lat="44.25887571963477" lon="11.048004332142527"><ele>505.75</ele><time>2026-05-02T08:02:39Z</time></trkpt><trkpt lat="44.25878566111899" lon="11.04813098780622"><ele>503.0</ele><time>2026-05-02T08:02:40Z</time></trkpt><trkpt lat="44.25872287262957" lon="11.048281992223016"><ele>505.5</ele><time>2026-05-02T08:02:41Z</time></trkpt><trkpt lat="44.25867638954938" lon="11.04846246468801"><ele>508.0</ele><time>2026-05-02T08:02:42Z</time></trkpt><trkpt lat="44.25864515704537" lon="11.04866574642709"><ele>510.5</ele><time>2026-05-02T08:02:43Z</time></trkpt><trkpt lat="44.258606400941375" lon="11.048865816071759"><ele>513.0</ele><time>2026-05-02T08:02:44Z</time></trkpt><trkpt lat="44.25856051320555" lon="11.049065266935925"><ele>514.5</ele><time>2026-05-02T08:02:45Z</time></trkpt><trkpt lat="44.25854324610165" lon="11.049280230639118"><ele>516.0</ele><time>2026-05-02T08:02:46Z</time></trkpt><trkpt lat="44.25854759051768" lon="11.049476386454366"><ele>517.5</ele><time>2026-05-02T08:02:47Z</time></trkpt><trkpt lat="44.258532701226265" lon="11.049666251286052"><ele>519.0</ele><time>2026-05-02T08:02:48Z</time></trkpt><trkpt lat="44.25847454766244" lon="11.049842549860587"><ele>519.0</ele><time>2026-05-02T08:02:49Z</time></trkpt><trkpt lat="44.25841390873463" lon="11.04996521746887"><ele>519.0</ele><time>2026-05-02T08:02:50Z</time></trkpt><trkpt lat="44.25840204175983" lon="11.050085725710296"><ele>519.0</ele><time>2026-05-02T08:02:51Z</time></trkpt><trkpt lat="44.258448978613956" lon="11.050214872635408"><ele>519.0</ele><time>2026-05-02T08:02:52Z</time></trkpt><trkpt lat="44.25850816466371" lon="11.050325717672658"><ele>519.0</ele><time>2026-05-02T08:02:53Z</time></trkpt><trkpt lat="44.258510416059615" lon="11.050449644259583"><ele>519.0</ele><time>2026-05-02T08:02:54Z</time></trkpt><trkpt lat="44.258447143542035" lon="11.050601393709824"><ele>519.0</ele><time>2026-05-02T08:02:55Z</time></trkpt><trkpt lat="44.25840480617491" lon="11.05072662124049"><ele>519.0</ele><time>2026-05-02T08:02:56Z</time></trkpt><trkpt lat="44.25845179336836" lon="11.050643795555054"><ele>519.0</ele><time>2026-05-02T08:03:02Z</time></trkpt><trkpt lat="44.25845634771268" lon="11.050528061888306"><ele>519.0</ele><time>2026-05-02T08:03:03Z</time></trkpt><trkpt lat="44.25845311906327" lon="11.05039774351344"><ele>519.0</ele><time>2026-05-02T08:03:04Z</time></trkpt><trkpt lat="44.25843030396737" lon="11.050253687004608"><ele>519.0</ele><time>2026-05-02T08:03:05Z</time></trkpt><trkpt lat="44.25840016569363" lon="11.050120459568925"><ele>519.0</ele><time>2026-05-02T08:03:06Z</time></trkpt><trkpt lat="44.25836705389814" lon="11.049973703820495"><ele>519.0</ele><time>2026-05-02T08:03:07Z</time></trkpt><trkpt lat="44.25833672638445" lon="11.049808579464353"><ele>519.0</ele><time>2026-05-02T08:03:08Z</time></trkpt><trkpt lat="44.2583088978851" lon="11.049651388472236"><ele>519.0</ele><time>2026-05-02T08:03:09Z</time></trkpt><trkpt lat="44.258252959459526" lon="11.04948820864186"><ele>519.0</ele><time>2026-05-02T08:03:10Z</time></trkpt><trkpt lat="44.25817436765399" lon="11.049340476200967"><ele>519.0</ele><time>2026-05-02T08:03:11Z</time></trkpt><trkpt lat="44.25808082603928" lon="11.049225781562296"><ele>519.0</ele><time>2026-05-02T08:03:12Z</time></trkpt><trkpt lat="44.25800420576555" lon="11.04911533402498"><ele>513.1666666666666</ele><time>2026-05-02T08:03:13Z</time></trkpt><trkpt lat="44.25793639136307" lon="11.049010943996636"><ele>507.33333333333337</ele><time>2026-05-02T08:03:14Z</time></trkpt><trkpt lat="44.25788941114531" lon="11.048923341818588"><ele>501.5</ele><time>2026-05-02T08:03:15Z</time></trkpt><trkpt lat="44.25787573575804" lon="11.048812571632078"><ele>495.6666666666667</ele><time>2026-05-02T08:03:16Z</time></trkpt><trkpt lat="44.257900964273325" lon="11.048722866732016"><ele>489.83333333333337</ele><time>2026-05-02T08:03:17Z</time></trkpt><trkpt lat="44.25794689904388" lon="11.04858858244327"><ele>484.0</ele><time>2026-05-02T08:03:18Z</time></trkpt><trkpt lat="44.25802869639038" lon="11.048410260627485"><ele>484.0</ele><time>2026-05-02T08:03:19Z</time></trkpt><trkpt lat="44.25804045023615" lon="11.04827787774879"><ele>484.0</ele><time>2026-05-02T08:03:20Z</time></trkpt><trkpt lat="44.25801099846799" lon="11.04815919417748"><ele>484.0</ele><time>2026-05-02T08:03:21Z</time></trkpt><trkpt lat="44.258020637857435" lon="11.047959318221304"><ele>484.0</ele><time>2026-05-02T08:03:23Z</time></trkpt><trkpt lat="44.25804370452102" lon="11.04780823947028"><ele>484.0</ele><time>2026-05-02T08:03:24Z</time></trkpt><trkpt lat="44.258065035331555" lon="11.047627972433812"><ele>484.0</ele><time>2026-05-02T08:03:25Z</time></trkpt><trkpt lat="44.25808004253271" lon="11.04746464630122"><ele>484.0</ele><time>2026-05-02T08:03:26Z</time></trkpt><trkpt lat="44.25808735078265" lon="11.04727621624768"><ele>484.0</ele><time>2026-05-02T08:03:27Z</time></trkpt><trkpt lat="44.25811588265782" lon="11.047112545239154"><ele>484.0</ele><time>2026-05-02T08:03:28Z</time></trkpt><trkpt lat="44.2581342677221" lon="11.046994116198908"><ele>485.0</ele><time>2026-05-02T08:03:29Z</time></trkpt><trkpt lat="44.25810685724989" lon="11.046872279019544"><ele>486.0</ele><time>2026-05-02T08:03:30Z</time></trkpt><trkpt lat="44.25799217950846" lon="11.046843058464674"><ele>487.0</ele><time>2026-05-02T08:03:32Z</time></trkpt><trkpt lat="44.257919976014065" lon="11.046905259131167"><ele>488.0</ele><time>2026-05-02T08:03:33Z</time></trkpt><trkpt lat="44.25784632252624" lon="11.0469890571713"><ele>489.0</ele><time>2026-05-02T08:03:34Z</time></trkpt><trkpt lat="44.257782265449734" lon="11.047043073261"><ele>489.0</ele><time>2026-05-02T08:03:35Z</time></trkpt><trkpt lat="44.25767176549716" lon="11.047074150942404"><ele>489.0</ele><time>2026-05-02T08:03:36Z</time></trkpt><trkpt lat="44.25758574700135" lon="11.04707822759897"><ele>489.0</ele><time>2026-05-02T08:03:37Z</time></trkpt><trkpt lat="44.25750917283473" lon="11.04707736653984"><ele>489.0</ele><time>2026-05-02T08:03:38Z</time></trkpt><trkpt lat="44.25741770584397" lon="11.047078836237418"><ele>489.0</ele><time>2026-05-02T08:03:39Z</time></trkpt><trkpt lat="44.257309798532866" lon="11.047102001471705"><ele>487.66666666666663</ele><time>2026-05-02T08:03:42Z</time></trkpt><trkpt lat="44.25723512669837" lon="11.04711962858594"><ele>486.3333333333333</ele><time>2026-05-02T08:03:44Z</time></trkpt><trkpt lat="44.25725914763285" lon="11.047617364262457"><ele>485.0</ele><time>2026-05-02T08:03:47Z</time></trkpt><trkpt lat="44.257248311248084" lon="11.047749058687911"><ele>483.8333333333333</ele><time>2026-05-02T08:03:49Z</time></trkpt><trkpt lat="44.25726136267803" lon="11.047846909986314"><ele>482.66666666666663</ele><time>2026-05-02T08:03:50Z</time></trkpt><trkpt lat="44.25727215047192" lon="11.047963656432625"><ele>481.5</ele><time>2026-05-02T08:03:51Z</time></trkpt><trkpt lat="44.25725793925099" lon="11.048056077090719"><ele>480.33333333333337</ele><time>2026-05-02T08:03:52Z</time></trkpt><trkpt lat="44.257166802411604" lon="11.048191535331927"><ele>479.1666666666667</ele><time>2026-05-02T08:03:54Z</time></trkpt><trkpt lat="44.25711157664645" lon="11.04828235855521"><ele>478.0</ele><time>2026-05-02T08:03:55Z</time></trkpt><trkpt lat="44.25705374428173" lon="11.048409646597039"><ele>476.59999999999997</ele><time>2026-05-02T08:03:56Z</time></trkpt><trkpt lat="44.25699698261734" lon="11.04855985919961"><ele>475.19999999999993</ele><time>2026-05-02T08:03:57Z</time></trkpt><trkpt lat="44.25693183854224" lon="11.048671211772207"><ele>473.8</ele><time>2026-05-02T08:03:58Z</time></trkpt><trkpt lat="44.25688662091178" lon="11.048760519818737"><ele>472.4</ele><time>2026-05-02T08:03:59Z</time></trkpt><trkpt lat="44.25687870859557" lon="11.048850838744384"><ele>471.0</ele><time>2026-05-02T08:04:00Z</time></trkpt><trkpt lat="44.256878447010614" lon="11.048965699736874"><ele>471.0</ele><time>2026-05-02T08:04:01Z</time></trkpt><trkpt lat="44.25685259829884" lon="11.049077996637422"><ele>471.0</ele><time>2026-05-02T08:04:02Z</time></trkpt><trkpt lat="44.25682164286834" lon="11.04924065474241"><ele>471.0</ele><time>2026-05-02T08:04:04Z</time></trkpt><trkpt lat="44.25680283029563" lon="11.049433331600271"><ele>471.0</ele><time>2026-05-02T08:04:06Z</time></trkpt><trkpt lat="44.25679448081234" lon="11.049545470116138"><ele>471.0</ele><time>2026-05-02T08:04:07Z</time></trkpt><trkpt lat="44.25678241879835" lon="11.049641767514496"><ele>470.0</ele><time>2026-05-02T08:04:08Z</time></trkpt><trkpt lat="44.25672928103997" lon="11.049755376320048"><ele>469.0</ele><time>2026-05-02T08:04:09Z</time></trkpt><trkpt lat="44.25668471792795" lon="11.049847443581028"><ele>468.0</ele><time>2026-05-02T08:04:10Z</time></trkpt><trkpt lat="44.256640078782084" lon="11.049969950860827"><ele>467.0</ele><time>2026-05-02T08:04:11Z</time></trkpt><trkpt lat="44.25660152777097" lon="11.050105887548279"><ele>466.0</ele><time>2026-05-02T08:04:12Z</time></trkpt><trkpt lat="44.25655578677719" lon="11.050215997281764"><ele>466.0</ele><time>2026-05-02T08:04:13Z</time></trkpt><trkpt lat="44.25650932347393" lon="11.050356212265287"><ele>466.0</ele><time>2026-05-02T08:04:14Z</time></trkpt><trkpt lat="44.25646741912659" lon="11.050467619704536"><ele>466.0</ele><time>2026-05-02T08:04:15Z</time></trkpt><trkpt lat="44.256443823941396" lon="11.050616294706051"><ele>466.0</ele><time>2026-05-02T08:04:17Z</time></trkpt><trkpt lat="44.256583140010434" lon="11.050763106407427"><ele>465.75</ele><time>2026-05-02T08:04:19Z</time></trkpt><trkpt lat="44.256653974008096" lon="11.050902663733378"><ele>465.5</ele><time>2026-05-02T08:04:20Z</time></trkpt><trkpt lat="44.25670942790879" lon="11.051054122168663"><ele>465.25</ele><time>2026-05-02T08:04:21Z</time></trkpt><trkpt lat="44.256777200429795" lon="11.051187100836371"><ele>465.0</ele><time>2026-05-02T08:04:22Z</time></trkpt><trkpt lat="44.25685880503219" lon="11.051349110549895"><ele>465.0</ele><time>2026-05-02T08:04:23Z</time></trkpt><trkpt lat="44.25696261003753" lon="11.05150672941169"><ele>465.0</ele><time>2026-05-02T08:04:24Z</time></trkpt><trkpt lat="44.25707580915064" lon="11.05167432941536"><ele>465.0</ele><time>2026-05-02T08:04:25Z</time></trkpt><trkpt lat="44.2572149498705" lon="11.051860329151319"><ele>468.25</ele><time>2026-05-02T08:04:26Z</time></trkpt><trkpt lat="44.2572946174773" lon="11.051985680392452"><ele>471.5</ele><time>2026-05-02T08:04:27Z</time></trkpt><trkpt lat="44.25736117754427" lon="11.052122914423235"><ele>474.75</ele><time>2026-05-02T08:04:28Z</time></trkpt><trkpt lat="44.257412409896546" lon="11.052299168390896"><ele>478.0</ele><time>2026-05-02T08:04:29Z</time></trkpt><trkpt lat="44.257470490448135" lon="11.05246406667443"><ele>478.0</ele><time>2026-05-02T08:04:30Z</time></trkpt><trkpt lat="44.25752908970169" lon="11.052612645124354"><ele>477.99999999999994</ele><time>2026-05-02T08:04:31Z</time></trkpt><trkpt lat="44.25754554458943" lon="11.052778537267043"><ele>477.99999999999994</ele><time>2026-05-02T08:04:32Z</time></trkpt><trkpt lat="44.257562328758176" lon="11.052898811543125"><ele>478.0</ele><time>2026-05-02T08:04:33Z</time></trkpt><trkpt lat="44.25762661835062" lon="11.052984494339892"><ele>478.0</ele><time>2026-05-02T08:04:34Z</time></trkpt><trkpt lat="44.25769347727492" lon="11.053089950439507"><ele>478.0</ele><time>2026-05-02T08:04:35Z</time></trkpt><trkpt lat="44.25777496326652" lon="11.05323244358187"><ele>478.0</ele><time>2026-05-02T08:04:36Z</time></trkpt><trkpt lat="44.257843048706526" lon="11.05339918859069"><ele>478.0</ele><time>2026-05-02T08:04:37Z</time></trkpt><trkpt lat="44.25784766220292" lon="11.053525086144075"><ele>478.0</ele><time>2026-05-02T08:04:38Z</time></trkpt><trkpt lat="44.25786992347054" lon="11.053651907652105"><ele>475.6666666666667</ele><time>2026-05-02T08:04:39Z</time></trkpt><trkpt lat="44.25792413464401" lon="11.053701856482107"><ele>473.33333333333337</ele><time>2026-05-02T08:04:40Z</time></trkpt><trkpt lat="44.257987291701" lon="11.053740538146526"><ele>471.0</ele><time>2026-05-02T08:04:42Z</time></trkpt><trkpt lat="44.257912372648754" lon="11.053764769284939"><ele>468.66666666666663</ele><time>2026-05-02T08:04:44Z</time></trkpt><trkpt lat="44.257822022331304" lon="11.053703778921633"><ele>466.3333333333333</ele><time>2026-05-02T08:04:46Z</time></trkpt><trkpt lat="44.25771892264532" lon="11.053694085494405"><ele>464.0</ele><time>2026-05-02T08:04:47Z</time></trkpt><trkpt lat="44.25761945371736" lon="11.053702997930234"><ele>463.99999999999994</ele><time>2026-05-02T08:04:48Z</time></trkpt><trkpt lat="44.25755089106345" lon="11.053787544524987"><ele>464.0</ele><time>2026-05-02T08:04:49Z</time></trkpt><trkpt lat="44.25753025994158" lon="11.053905238835851"><ele>464.0</ele><time>2026-05-02T08:04:50Z</time></trkpt><trkpt lat="44.25754879431861" lon="11.054007546805293"><ele>464.0</ele><time>2026-05-02T08:04:51Z</time></trkpt><trkpt lat="44.25754572002827" lon="11.054135139312145"><ele>463.99999999999994</ele><time>2026-05-02T08:04:52Z</time></trkpt><trkpt lat="44.25760274180324" lon="11.05425401819012"><ele>464.0</ele><time>2026-05-02T08:04:54Z</time></trkpt><trkpt lat="44.25765016242392" lon="11.054316389134684"><ele>462.2</ele><time>2026-05-02T08:04:55Z</time></trkpt><trkpt lat="44.2577267168558" lon="11.0543930353399"><ele>460.4</ele><time>2026-05-02T08:04:56Z</time></trkpt><trkpt lat="44.25779145624332" lon="11.054483988316042"><ele>458.6</ele><time>2026-05-02T08:04:57Z</time></trkpt><trkpt lat="44.25779242229646" lon="11.054657947961125"><ele>456.8</ele><time>2026-05-02T08:04:58Z</time></trkpt><trkpt lat="44.25779407255664" lon="11.054820068516792"><ele>455.0</ele><time>2026-05-02T08:04:59Z</time></trkpt><trkpt lat="44.25776373476236" lon="11.055002603415327"><ele>452.75</ele><time>2026-05-02T08:05:00Z</time></trkpt><trkpt lat="44.25770775971677" lon="11.055189942031216"><ele>450.5</ele><time>2026-05-02T08:05:01Z</time></trkpt><trkpt lat="44.257648947357254" lon="11.055352572427482"><ele>448.25</ele><time>2026-05-02T08:05:02Z</time></trkpt><trkpt lat="44.257594086477205" lon="11.055507292004018"><ele>446.0</ele><time>2026-05-02T08:05:03Z</time></trkpt><trkpt lat="44.25753954434784" lon="11.055661037514144"><ele>445.0</ele><time>2026-05-02T08:05:04Z</time></trkpt><trkpt lat="44.25749145689053" lon="11.055801400911525"><ele>444.0</ele><time>2026-05-02T08:05:05Z</time></trkpt><trkpt lat="44.25745874155862" lon="11.055897748879044"><ele>443.0</ele><time>2026-05-02T08:05:06Z</time></trkpt><trkpt lat="44.25742939486327" lon="11.056024088535652"><ele>442.0</ele><time>2026-05-02T08:05:07Z</time></trkpt><trkpt lat="44.257405945393366" lon="11.056136613716061"><ele>441.0</ele><time>2026-05-02T08:05:08Z</time></trkpt><trkpt lat="44.257381231334904" lon="11.056285640012199"><ele>441.0</ele><time>2026-05-02T08:05:09Z</time></trkpt><trkpt lat="44.257380598428426" lon="11.056426711826363"><ele>441.0</ele><time>2026-05-02T08:05:10Z</time></trkpt><trkpt lat="44.25736911188851" lon="11.05656392258829"><ele>441.0</ele><time>2026-05-02T08:05:11Z</time></trkpt><trkpt lat="44.257341215710284" lon="11.056697812532592"><ele>441.0</ele><time>2026-05-02T08:05:12Z</time></trkpt><trkpt lat="44.257315361396195" lon="11.056802351159575"><ele>441.0</ele><time>2026-05-02T08:05:13Z</time></trkpt><trkpt lat="44.25724749410717" lon="11.05688620316543"><ele>441.3333333333333</ele><time>2026-05-02T08:05:14Z</time></trkpt><trkpt lat="44.257187591141" lon="11.056981926752101"><ele>441.66666666666663</ele><time>2026-05-02T08:05:15Z</time></trkpt><trkpt lat="44.257130044203656" lon="11.057071306633324"><ele>442.0</ele><time>2026-05-02T08:05:16Z</time></trkpt><trkpt lat="44.25706584059952" lon="11.05714365942725"><ele>442.3333333333333</ele><time>2026-05-02T08:05:17Z</time></trkpt><trkpt lat="44.2569991583044" lon="11.057225816347861"><ele>442.66666666666663</ele><time>2026-05-02T08:05:18Z</time></trkpt><trkpt lat="44.256946278979115" lon="11.05731191256474"><ele>443.0</ele><time>2026-05-02T08:05:19Z</time></trkpt><trkpt lat="44.256902992234764" lon="11.057407282163924"><ele>443.2</ele><time>2026-05-02T08:05:20Z</time></trkpt><trkpt lat="44.25686167623217" lon="11.057496997742604"><ele>443.4</ele><time>2026-05-02T08:05:21Z</time></trkpt><trkpt lat="44.25686756609018" lon="11.057618191029333"><ele>443.59999999999997</ele><time>2026-05-02T08:05:22Z</time></trkpt><trkpt lat="44.25689551883823" lon="11.057746253275248"><ele>443.79999999999995</ele><time>2026-05-02T08:05:23Z</time></trkpt><trkpt lat="44.25689802193493" lon="11.057906207144496"><ele>444.0</ele><time>2026-05-02T08:05:24Z</time></trkpt><trkpt lat="44.25690456824331" lon="11.058077877809831"><ele>444.0</ele><time>2026-05-02T08:05:25Z</time></trkpt><trkpt lat="44.25691270073072" lon="11.05825378392068"><ele>444.0</ele><time>2026-05-02T08:05:26Z</time></trkpt><trkpt lat="44.25693006329341" lon="11.058461313673792"><ele>444.0</ele><time>2026-05-02T08:05:27Z</time></trkpt><trkpt lat="44.256925193629534" lon="11.058663233970469"><ele>444.0</ele><time>2026-05-02T08:05:28Z</time></trkpt><trkpt lat="44.25693946142405" lon="11.05884309215759"><ele>445.0</ele><time>2026-05-02T08:05:29Z</time></trkpt><trkpt lat="44.25697997649799" lon="11.058998004700333"><ele>446.0</ele><time>2026-05-02T08:05:30Z</time></trkpt><trkpt lat="44.257005548416736" lon="11.0591702544244"><ele>447.0</ele><time>2026-05-02T08:05:31Z</time></trkpt><trkpt lat="44.25706079451838" lon="11.059303415105381"><ele>448.0</ele><time>2026-05-02T08:05:32Z</time></trkpt><trkpt lat="44.2570876041014" lon="11.059456633185562"><ele>448.25</ele><time>2026-05-02T08:05:33Z</time></trkpt><trkpt lat="44.25716920024507" lon="11.059570884135466"><ele>448.5</ele><time>2026-05-02T08:05:34Z</time></trkpt><trkpt lat="44.25724310342629" lon="11.059706075777475"><ele>448.75</ele><time>2026-05-02T08:05:35Z</time></trkpt><trkpt lat="44.257341044919514" lon="11.05984748722494"><ele>449.0</ele><time>2026-05-02T08:05:36Z</time></trkpt><trkpt lat="44.257404590974836" lon="11.059996187376072"><ele>449.0</ele><time>2026-05-02T08:05:37Z</time></trkpt><trkpt lat="44.257409363470316" lon="11.0601438611869"><ele>449.0</ele><time>2026-05-02T08:05:38Z</time></trkpt><trkpt lat="44.257377061951885" lon="11.060276056543406"><ele>449.0</ele><time>2026-05-02T08:05:39Z</time></trkpt><trkpt lat="44.25738546629736" lon="11.060370904223861"><ele>449.0</ele><time>2026-05-02T08:05:40Z</time></trkpt><trkpt lat="44.257416278325245" lon="11.060503809517732"><ele>449.0</ele><time>2026-05-02T08:05:41Z</time></trkpt><trkpt lat="44.25745979934889" lon="11.060640570981958"><ele>449.0</ele><time>2026-05-02T08:05:42Z</time></trkpt><trkpt lat="44.2575443895015" lon="11.060773459367308"><ele>449.0</ele><time>2026-05-02T08:05:43Z</time></trkpt><trkpt lat="44.25761523529218" lon="11.060889812562127"><ele>449.0</ele><time>2026-05-02T08:05:44Z</time></trkpt><trkpt lat="44.2576553779862" lon="11.061024136024034"><ele>449.0</ele><time>2026-05-02T08:05:45Z</time></trkpt><trkpt lat="44.25764444165597" lon="11.061178971214435"><ele>452.0</ele><time>2026-05-02T08:05:46Z</time></trkpt><trkpt lat="44.25762717924057" lon="11.061337127635856"><ele>455.0</ele><time>2026-05-02T08:05:47Z</time></trkpt><trkpt lat="44.2575961109504" lon="11.061526560163191"><ele>458.0</ele><time>2026-05-02T08:05:48Z</time></trkpt><trkpt lat="44.25757970000474" lon="11.061741523707898"><ele>461.0</ele><time>2026-05-02T08:05:49Z</time></trkpt><trkpt lat="44.25761223049785" lon="11.061897965480327"><ele>463.25</ele><time>2026-05-02T08:05:50Z</time></trkpt><trkpt lat="44.257662906603834" lon="11.06207588481022"><ele>465.5</ele><time>2026-05-02T08:05:51Z</time></trkpt><trkpt lat="44.257745144943655" lon="11.062188851747198"><ele>467.75</ele><time>2026-05-02T08:05:52Z</time></trkpt><trkpt lat="44.257845160343294" lon="11.062277144030219"><ele>470.0</ele><time>2026-05-02T08:05:53Z</time></trkpt><trkpt lat="44.25797349684846" lon="11.062333154207192"><ele>470.0</ele><time>2026-05-02T08:05:54Z</time></trkpt><trkpt lat="44.25811442764878" lon="11.062417595049943"><ele>470.0</ele><time>2026-05-02T08:05:55Z</time></trkpt><trkpt lat="44.258234714363724" lon="11.062518011332722"><ele>470.0</ele><time>2026-05-02T08:05:56Z</time></trkpt><trkpt lat="44.25833748241228" lon="11.062604745399025"><ele>470.0</ele><time>2026-05-02T08:05:57Z</time></trkpt><trkpt lat="44.258435818215" lon="11.062701399056953"><ele>469.2</ele><time>2026-05-02T08:05:58Z</time></trkpt><trkpt lat="44.25849302444454" lon="11.062842178908017"><ele>468.4</ele><time>2026-05-02T08:05:59Z</time></trkpt><trkpt lat="44.25855245945105" lon="11.062994068136442"><ele>467.6</ele><time>2026-05-02T08:06:00Z</time></trkpt><trkpt lat="44.258626503080755" lon="11.063109000434974"><ele>466.8</ele><time>2026-05-02T08:06:01Z</time></trkpt><trkpt lat="44.258719632288255" lon="11.06315100685368"><ele>466.0</ele><time>2026-05-02T08:06:02Z</time></trkpt><trkpt lat="44.258802162568" lon="11.063207644535826"><ele>466.0</ele><time>2026-05-02T08:06:03Z</time></trkpt><trkpt lat="44.258903902979256" lon="11.063266911487345"><ele>466.0</ele><time>2026-05-02T08:06:04Z</time></trkpt><trkpt lat="44.25902278210959" lon="11.06332173329952"><ele>466.0</ele><time>2026-05-02T08:06:05Z</time></trkpt><trkpt lat="44.25912613959519" lon="11.063349874030806"><ele>466.0</ele><time>2026-05-02T08:06:06Z</time></trkpt><trkpt lat="44.25921903232812" lon="11.063411934520254"><ele>466.0</ele><time>2026-05-02T08:06:07Z</time></trkpt><trkpt lat="44.259302988354285" lon="11.063485933040154"><ele>468.0</ele><time>2026-05-02T08:06:08Z</time></trkpt><trkpt lat="44.25933753452264" lon="11.063606546638697"><ele>470.0</ele><time>2026-05-02T08:06:09Z</time></trkpt><trkpt lat="44.25940752127151" lon="11.06369638075391"><ele>472.0</ele><time>2026-05-02T08:06:10Z</time></trkpt><trkpt lat="44.25951086129187" lon="11.06380043673802"><ele>474.0</ele><time>2026-05-02T08:06:11Z</time></trkpt><trkpt lat="44.25959289119479" lon="11.063942265996989"><ele>476.0</ele><time>2026-05-02T08:06:12Z</time></trkpt><trkpt lat="44.25968913849046" lon="11.064103410369784"><ele>475.25</ele><time>2026-05-02T08:06:13Z</time></trkpt><trkpt lat="44.2597589851492" lon="11.064258323609913"><ele>474.5</ele><time>2026-05-02T08:06:14Z</time></trkpt><trkpt lat="44.25983167147243" lon="11.064409301466421"><ele>473.75</ele><time>2026-05-02T08:06:15Z</time></trkpt><trkpt lat="44.25992165432774" lon="11.064565050724758"><ele>473.0</ele><time>2026-05-02T08:06:16Z</time></trkpt><trkpt lat="44.26002454154302" lon="11.064704987110165"><ele>473.0</ele><time>2026-05-02T08:06:17Z</time></trkpt><trkpt lat="44.26013154381195" lon="11.064830798163905"><ele>473.0</ele><time>2026-05-02T08:06:18Z</time></trkpt><trkpt lat="44.260254435246964" lon="11.064933362638415"><ele>473.0</ele><time>2026-05-02T08:06:19Z</time></trkpt><trkpt lat="44.260397661783536" lon="11.065051118507006"><ele>473.0</ele><time>2026-05-02T08:06:20Z</time></trkpt><trkpt lat="44.26051986767149" lon="11.065169083069925"><ele>473.0</ele><time>2026-05-02T08:06:21Z</time></trkpt><trkpt lat="44.260585695448306" lon="11.065300051686158"><ele>473.0</ele><time>2026-05-02T08:06:22Z</time></trkpt><trkpt lat="44.26063085702178" lon="11.06540738915227"><ele>473.0</ele><time>2026-05-02T08:06:23Z</time></trkpt><trkpt lat="44.26070549216802" lon="11.065553989675152"><ele>473.0</ele><time>2026-05-02T08:06:24Z</time></trkpt><trkpt lat="44.26082692532096" lon="11.065687706729888"><ele>477.4</ele><time>2026-05-02T08:06:25Z</time></trkpt><trkpt lat="44.26092398742969" lon="11.065827932151109"><ele>481.79999999999995</ele><time>2026-05-02T08:06:26Z</time></trkpt><trkpt lat="44.26101794709123" lon="11.065966675914758"><ele>486.2</ele><time>2026-05-02T08:06:27Z</time></trkpt><trkpt lat="44.26108505397031" lon="11.066084563131707"><ele>490.6</ele><time>2026-05-02T08:06:28Z</time></trkpt><trkpt lat="44.26108231730962" lon="11.066173672115934"><ele>495.0</ele><time>2026-05-02T08:06:29Z</time></trkpt><trkpt lat="44.26098951520777" lon="11.066195502098443"><ele>495.0</ele><time>2026-05-02T08:06:31Z</time></trkpt><trkpt lat="44.260925821199095" lon="11.066203282393504"><ele>495.0</ele><time>2026-05-02T08:06:32Z</time></trkpt><trkpt lat="44.26084808147334" lon="11.066253792053997"><ele>495.0</ele><time>2026-05-02T08:06:33Z</time></trkpt><trkpt lat="44.2607470889449" lon="11.066323122982817"><ele>495.0</ele><time>2026-05-02T08:06:34Z</time></trkpt><trkpt lat="44.260630855182306" lon="11.066434061763728"><ele>495.0</ele><time>2026-05-02T08:06:35Z</time></trkpt><trkpt lat="44.26057374477046" lon="11.06659016853109"><ele>506.0</ele><time>2026-05-02T08:06:36Z</time></trkpt><trkpt lat="44.260538508090654" lon="11.066770637572283"><ele>517.0</ele><time>2026-05-02T08:06:37Z</time></trkpt><trkpt lat="44.26047489907177" lon="11.06698591511052"><ele>528.0</ele><time>2026-05-02T08:06:38Z</time></trkpt><trkpt lat="44.26041719301342" lon="11.067185750146415"><ele>528.0</ele><time>2026-05-02T08:06:39Z</time></trkpt><trkpt lat="44.26039351355649" lon="11.067345571062797"><ele>528.0</ele><time>2026-05-02T08:06:40Z</time></trkpt><trkpt lat="44.260379839967555" lon="11.067519019153334"><ele>528.0</ele><time>2026-05-02T08:06:41Z</time></trkpt><trkpt lat="44.2603066315506" lon="11.067604794100216"><ele>528.0</ele><time>2026-05-02T08:06:42Z</time></trkpt><trkpt lat="44.26024125791877" lon="11.067727616283385"><ele>528.0</ele><time>2026-05-02T08:06:43Z</time></trkpt><trkpt lat="44.26017374081575" lon="11.067866403841464"><ele>528.25</ele><time>2026-05-02T08:06:44Z</time></trkpt><trkpt lat="44.26008767384066" lon="11.068026160897627"><ele>528.5</ele><time>2026-05-02T08:06:45Z</time></trkpt><trkpt lat="44.260069006473934" lon="11.068208693411105"><ele>528.75</ele><time>2026-05-02T08:06:46Z</time></trkpt><trkpt lat="44.260038509572844" lon="11.068371339764822"><ele>529.0</ele><time>2026-05-02T08:06:47Z</time></trkpt><trkpt lat="44.259978263321095" lon="11.068504918656663"><ele>526.2</ele><time>2026-05-02T08:06:48Z</time></trkpt><trkpt lat="44.259927190353025" lon="11.06862734147018"><ele>523.4</ele><time>2026-05-02T08:06:49Z</time></trkpt><trkpt lat="44.25987743559532" lon="11.068751330567917"><ele>520.6</ele><time>2026-05-02T08:06:50Z</time></trkpt><trkpt lat="44.25985891587401" lon="11.068903029121788"><ele>517.8</ele><time>2026-05-02T08:06:51Z</time></trkpt><trkpt lat="44.25988335326261" lon="11.069043442316614"><ele>515.0</ele><time>2026-05-02T08:06:52Z</time></trkpt><trkpt lat="44.259920482217964" lon="11.06914874942813"><ele>514.5</ele><time>2026-05-02T08:06:53Z</time></trkpt><trkpt lat="44.26001122806591" lon="11.069212060922998"><ele>514.0</ele><time>2026-05-02T08:06:54Z</time></trkpt><trkpt lat="44.260129454194235" lon="11.069275398310165"><ele>513.5</ele><time>2026-05-02T08:06:55Z</time></trkpt><trkpt lat="44.260275445366084" lon="11.069326471351417"><ele>513.0</ele><time>2026-05-02T08:06:56Z</time></trkpt><trkpt lat="44.26040056331987" lon="11.069349950749787"><ele>513.0</ele><time>2026-05-02T08:06:57Z</time></trkpt><trkpt lat="44.26051871408727" lon="11.069374087794099"><ele>513.0</ele><time>2026-05-02T08:06:58Z</time></trkpt><trkpt lat="44.26051678997215" lon="11.069468118625496"><ele>513.0</ele><time>2026-05-02T08:06:59Z</time></trkpt><trkpt lat="44.260453601496856" lon="11.069557329419444"><ele>513.0</ele><time>2026-05-02T08:07:00Z</time></trkpt><trkpt lat="44.2604879554127" lon="11.06968645443469"><ele>513.0</ele><time>2026-05-02T08:07:01Z</time></trkpt><trkpt lat="44.26054730473624" lon="11.06986845200566"><ele>511.25</ele><time>2026-05-02T08:07:02Z</time></trkpt><trkpt lat="44.26061973641389" lon="11.069994994354198"><ele>509.5</ele><time>2026-05-02T08:07:03Z</time></trkpt><trkpt lat="44.26068766305276" lon="11.070085051232658"><ele>507.75</ele><time>2026-05-02T08:07:04Z</time></trkpt><trkpt lat="44.26082823027011" lon="11.070202999911574"><ele>506.0</ele><time>2026-05-02T08:07:05Z</time></trkpt><trkpt lat="44.2609555248125" lon="11.070289264854038"><ele>506.0</ele><time>2026-05-02T08:07:06Z</time></trkpt><trkpt lat="44.26109190731649" lon="11.070355895857475"><ele>506.0</ele><time>2026-05-02T08:07:07Z</time></trkpt><trkpt lat="44.26123101157585" lon="11.070423461125928"><ele>506.0</ele><time>2026-05-02T08:07:08Z</time></trkpt><trkpt lat="44.261367607562065" lon="11.070431849345841"><ele>506.0</ele><time>2026-05-02T08:07:09Z</time></trkpt><trkpt lat="44.26145555760615" lon="11.070463787613384"><ele>506.8</ele><time>2026-05-02T08:07:10Z</time></trkpt><trkpt lat="44.26154328445777" lon="11.07053820045948"><ele>507.6</ele><time>2026-05-02T08:07:11Z</time></trkpt><trkpt lat="44.261563120581975" lon="11.070636036866835"><ele>508.4</ele><time>2026-05-02T08:07:12Z</time></trkpt><trkpt lat="44.261598328508114" lon="11.070726820902758"><ele>509.2</ele><time>2026-05-02T08:07:13Z</time></trkpt><trkpt lat="44.26163707832929" lon="11.070858806529499"><ele>510.0</ele><time>2026-05-02T08:07:14Z</time></trkpt><trkpt lat="44.261712692395285" lon="11.071022609456973"><ele>510.0</ele><time>2026-05-02T08:07:15Z</time></trkpt><trkpt lat="44.26179051977649" lon="11.071130014660357"><ele>510.0</ele><time>2026-05-02T08:07:16Z</time></trkpt><trkpt lat="44.261855921722855" lon="11.07117566979801"><ele>510.0</ele><time>2026-05-02T08:07:17Z</time></trkpt><trkpt lat="44.261984863552215" lon="11.071226378224061"><ele>510.0</ele><time>2026-05-02T08:07:19Z</time></trkpt><trkpt lat="44.262069559188234" lon="11.071357681556314"><ele>510.0</ele><time>2026-05-02T08:07:20Z</time></trkpt><trkpt lat="44.262158362174056" lon="11.071501755496017"><ele>508.0</ele><time>2026-05-02T08:07:21Z</time></trkpt><trkpt lat="44.262257015295454" lon="11.071622033403894"><ele>506.0</ele><time>2026-05-02T08:07:22Z</time></trkpt><trkpt lat="44.26235234316798" lon="11.071769471267636"><ele>504.0</ele><time>2026-05-02T08:07:23Z</time></trkpt><trkpt lat="44.2624745841943" lon="11.07184798124705"><ele>502.0</ele><time>2026-05-02T08:07:24Z</time></trkpt><trkpt lat="44.262586961219164" lon="11.071912240106824"><ele>502.0</ele><time>2026-05-02T08:07:25Z</time></trkpt><trkpt lat="44.26271964130016" lon="11.07193585239546"><ele>502.0</ele><time>2026-05-02T08:07:26Z</time></trkpt><trkpt lat="44.26285818970605" lon="11.071919224804258"><ele>502.0</ele><time>2026-05-02T08:07:27Z</time></trkpt><trkpt lat="44.26300379823102" lon="11.071902972928328"><ele>502.0</ele><time>2026-05-02T08:07:28Z</time></trkpt><trkpt lat="44.26314124334392" lon="11.071876834995946"><ele>500.75</ele><time>2026-05-02T08:07:29Z</time></trkpt><trkpt lat="44.26328836920529" lon="11.071853543891985"><ele>499.5</ele><time>2026-05-02T08:07:30Z</time></trkpt><trkpt lat="44.26342942114249" lon="11.071829988225987"><ele>498.25</ele><time>2026-05-02T08:07:31Z</time></trkpt><trkpt lat="44.263566674503885" lon="11.07181295078714"><ele>497.0</ele><time>2026-05-02T08:07:32Z</time></trkpt><trkpt lat="44.263678034556044" lon="11.071835975799164"><ele>497.0</ele><time>2026-05-02T08:07:33Z</time></trkpt><trkpt lat="44.26379969901977" lon="11.071957249310161"><ele>497.0</ele><time>2026-05-02T08:07:35Z</time></trkpt><trkpt lat="44.26389230185326" lon="11.072020445158802"><ele>497.0</ele><time>2026-05-02T08:07:36Z</time></trkpt><trkpt lat="44.26399696079101" lon="11.072118448558308"><ele>497.0</ele><time>2026-05-02T08:07:37Z</time></trkpt><trkpt lat="44.26407842225451" lon="11.072239787709222"><ele>496.25</ele><time>2026-05-02T08:07:38Z</time></trkpt><trkpt lat="44.26418714359098" lon="11.072338263908117"><ele>495.5</ele><time>2026-05-02T08:07:39Z</time></trkpt><trkpt lat="44.264315083022204" lon="11.072407465072608"><ele>494.75</ele><time>2026-05-02T08:07:40Z</time></trkpt><trkpt lat="44.26445111372556" lon="11.072494710356116"><ele>494.0</ele><time>2026-05-02T08:07:41Z</time></trkpt><trkpt lat="44.264591519821835" lon="11.072493355296904"><ele>495.25</ele><time>2026-05-02T08:07:42Z</time></trkpt><trkpt lat="44.26469863899083" lon="11.072532388869883"><ele>496.5</ele><time>2026-05-02T08:07:43Z</time></trkpt><trkpt lat="44.264777973861904" lon="11.072631654424821"><ele>497.75</ele><time>2026-05-02T08:07:44Z</time></trkpt><trkpt lat="44.26488103379141" lon="11.07271009575493"><ele>499.0</ele><time>2026-05-02T08:07:45Z</time></trkpt><trkpt lat="44.264979562934485" lon="11.072825414482518"><ele>499.0</ele><time>2026-05-02T08:07:46Z</time></trkpt><trkpt lat="44.26510046455856" lon="11.07294351147749"><ele>499.0</ele><time>2026-05-02T08:07:47Z</time></trkpt><trkpt lat="44.26522672594064" lon="11.073044938174347"><ele>499.0</ele><time>2026-05-02T08:07:48Z</time></trkpt><trkpt lat="44.265359452090415" lon="11.073147629763154"><ele>499.0</ele><time>2026-05-02T08:07:49Z</time></trkpt><trkpt lat="44.26548733486747" lon="11.073204869435322"><ele>496.5</ele><time>2026-05-02T08:07:50Z</time></trkpt><trkpt lat="44.26561263171473" lon="11.07324756485224"><ele>494.0</ele><time>2026-05-02T08:07:51Z</time></trkpt><trkpt lat="44.26572662585209" lon="11.073337985954753"><ele>491.5</ele><time>2026-05-02T08:07:52Z</time></trkpt><trkpt lat="44.26582537906453" lon="11.073468264331222"><ele>489.0</ele><time>2026-05-02T08:07:53Z</time></trkpt><trkpt lat="44.26589852378453" lon="11.07363585995226"><ele>489.0</ele><time>2026-05-02T08:07:54Z</time></trkpt><trkpt lat="44.265932346641115" lon="11.07377536358946"><ele>489.0</ele><time>2026-05-02T08:07:55Z</time></trkpt><trkpt lat="44.265931537609895" lon="11.073917473155662"><ele>489.0</ele><time>2026-05-02T08:07:56Z</time></trkpt><trkpt lat="44.265863584454465" lon="11.074045737013376"><ele>489.0</ele><time>2026-05-02T08:07:57Z</time></trkpt><trkpt lat="44.26584165509449" lon="11.074241821815507"><ele>487.66666666666663</ele><time>2026-05-02T08:07:58Z</time></trkpt><trkpt lat="44.265818472035185" lon="11.07446236956032"><ele>486.3333333333333</ele><time>2026-05-02T08:07:59Z</time></trkpt><trkpt lat="44.26579762217777" lon="11.074695974916821"><ele>485.0</ele><time>2026-05-02T08:08:00Z</time></trkpt><trkpt lat="44.26580552030997" lon="11.074912246942043"><ele>483.75</ele><time>2026-05-02T08:08:01Z</time></trkpt><trkpt lat="44.26584745979372" lon="11.075104142643927"><ele>482.5</ele><time>2026-05-02T08:08:02Z</time></trkpt><trkpt lat="44.26591397761043" lon="11.075251123948025"><ele>481.25</ele><time>2026-05-02T08:08:03Z</time></trkpt><trkpt lat="44.26601170816028" lon="11.07539724816715"><ele>480.0</ele><time>2026-05-02T08:08:04Z</time></trkpt><trkpt lat="44.26612972423395" lon="11.07556185631241"><ele>480.0</ele><time>2026-05-02T08:08:05Z</time></trkpt><trkpt lat="44.266228808004044" lon="11.075689277366388"><ele>480.0</ele><time>2026-05-02T08:08:06Z</time></trkpt><trkpt lat="44.26629171224095" lon="11.07582068048145"><ele>480.0</ele><time>2026-05-02T08:08:07Z</time></trkpt><trkpt lat="44.26631898721923" lon="11.075915381591136"><ele>480.0</ele><time>2026-05-02T08:08:08Z</time></trkpt><trkpt lat="44.266213516284985" lon="11.0758887527834"><ele>480.0</ele><time>2026-05-02T08:08:10Z</time></trkpt><trkpt lat="44.26615150017343" lon="11.075981835217117"><ele>482.25</ele><time>2026-05-02T08:08:12Z</time></trkpt><trkpt lat="44.26606382222922" lon="11.076166554792955"><ele>484.5</ele><time>2026-05-02T08:08:14Z</time></trkpt><trkpt lat="44.266045380295104" lon="11.076306707105907"><ele>486.75</ele><time>2026-05-02T08:08:15Z</time></trkpt><trkpt lat="44.26600758910278" lon="11.076475121731152"><ele>489.0</ele><time>2026-05-02T08:08:16Z</time></trkpt><trkpt lat="44.26595139021506" lon="11.076627830530226"><ele>489.5</ele><time>2026-05-02T08:08:17Z</time></trkpt><trkpt lat="44.26591489113343" lon="11.076766223049916"><ele>490.0</ele><time>2026-05-02T08:08:18Z</time></trkpt><trkpt lat="44.265853972707205" lon="11.07690626448885"><ele>490.5</ele><time>2026-05-02T08:08:19Z</time></trkpt><trkpt lat="44.265744276955424" lon="11.076957541655155"><ele>491.0</ele><time>2026-05-02T08:08:20Z</time></trkpt><trkpt lat="44.26562383816269" lon="11.077058882319944"><ele>491.0</ele><time>2026-05-02T08:08:21Z</time></trkpt><trkpt lat="44.265519799581455" lon="11.077161031150252"><ele>491.0</ele><time>2026-05-02T08:08:22Z</time></trkpt><trkpt lat="44.26541922204265" lon="11.077286122113243"><ele>491.0</ele><time>2026-05-02T08:08:23Z</time></trkpt><trkpt lat="44.2653305218283" lon="11.07744312180021"><ele>491.0</ele><time>2026-05-02T08:08:24Z</time></trkpt><trkpt lat="44.265267363237015" lon="11.077615208382513"><ele>491.0</ele><time>2026-05-02T08:08:25Z</time></trkpt><trkpt lat="44.265198664241076" lon="11.077818190644232"><ele>491.0</ele><time>2026-05-02T08:08:26Z</time></trkpt><trkpt lat="44.26512179669325" lon="11.077990024545592"><ele>491.0</ele><time>2026-05-02T08:08:27Z</time></trkpt><trkpt lat="44.26506330114099" lon="11.07815880426095"><ele>491.0</ele><time>2026-05-02T08:08:28Z</time></trkpt><trkpt lat="44.26500614395404" lon="11.078319533792238"><ele>492.75</ele><time>2026-05-02T08:08:29Z</time></trkpt><trkpt lat="44.26492421409679" lon="11.078479384239623"><ele>494.5</ele><time>2026-05-02T08:08:30Z</time></trkpt><trkpt lat="44.26483363944501" lon="11.078559148551054"><ele>496.25</ele><time>2026-05-02T08:08:31Z</time></trkpt><trkpt lat="44.26472783101564" lon="11.078681021271553"><ele>498.0</ele><time>2026-05-02T08:08:32Z</time></trkpt><trkpt lat="44.26468017908209" lon="11.078794822755393"><ele>498.0</ele><time>2026-05-02T08:08:33Z</time></trkpt><trkpt lat="44.264655980242445" lon="11.078997899861214"><ele>498.0</ele><time>2026-05-02T08:08:34Z</time></trkpt><trkpt lat="44.264674182236305" lon="11.079180254902928"><ele>498.0</ele><time>2026-05-02T08:08:35Z</time></trkpt><trkpt lat="44.264707566313696" lon="11.07936233936348"><ele>498.0</ele><time>2026-05-02T08:08:36Z</time></trkpt><trkpt lat="44.264769146732554" lon="11.079535578231019"><ele>494.0</ele><time>2026-05-02T08:08:37Z</time></trkpt><trkpt lat="44.264852606512584" lon="11.079697260906869"><ele>490.0</ele><time>2026-05-02T08:08:38Z</time></trkpt><trkpt lat="44.26492667063377" lon="11.079870556684108"><ele>486.0</ele><time>2026-05-02T08:08:39Z</time></trkpt><trkpt lat="44.2649382568952" lon="11.080078705233017"><ele>482.0</ele><time>2026-05-02T08:08:40Z</time></trkpt><trkpt lat="44.26500859039967" lon="11.080278680117246"><ele>482.0</ele><time>2026-05-02T08:08:41Z</time></trkpt><trkpt lat="44.26506782811603" lon="11.080464883688244"><ele>482.0</ele><time>2026-05-02T08:08:42Z</time></trkpt><trkpt lat="44.26510756951552" lon="11.080659223746078"><ele>482.0</ele><time>2026-05-02T08:08:43Z</time></trkpt><trkpt lat="44.26510906066512" lon="11.0808694202067"><ele>482.0</ele><time>2026-05-02T08:08:44Z</time></trkpt><trkpt lat="44.26516397193987" lon="11.081069861594726"><ele>484.25</ele><time>2026-05-02T08:08:45Z</time></trkpt><trkpt lat="44.26519214946793" lon="11.081250482087755"><ele>486.5</ele><time>2026-05-02T08:08:46Z</time></trkpt><trkpt lat="44.26523421551036" lon="11.081443831793363"><ele>488.75</ele><time>2026-05-02T08:08:47Z</time></trkpt><trkpt lat="44.26528029729581" lon="11.081629792946316"><ele>491.0</ele><time>2026-05-02T08:08:48Z</time></trkpt><trkpt lat="44.26535094770514" lon="11.081826412974587"><ele>493.66666666666663</ele><time>2026-05-02T08:08:49Z</time></trkpt><trkpt lat="44.26540758325291" lon="11.082040107392501"><ele>496.33333333333337</ele><time>2026-05-02T08:08:50Z</time></trkpt><trkpt lat="44.26546532181199" lon="11.082251813834638"><ele>499.0</ele><time>2026-05-02T08:08:51Z</time></trkpt><trkpt lat="44.26548473412442" lon="11.082472992465402"><ele>499.75</ele><time>2026-05-02T08:08:52Z</time></trkpt><trkpt lat="44.26554036548927" lon="11.082678557065469"><ele>500.5</ele><time>2026-05-02T08:08:53Z</time></trkpt><trkpt lat="44.265618393818485" lon="11.082819564828874"><ele>501.25</ele><time>2026-05-02T08:08:54Z</time></trkpt><trkpt lat="44.26569804167445" lon="11.082939145661229"><ele>502.0</ele><time>2026-05-02T08:08:55Z</time></trkpt><trkpt lat="44.26573849515033" lon="11.083139105201683"><ele>498.5</ele><time>2026-05-02T08:08:56Z</time></trkpt><trkpt lat="44.26578042199021" lon="11.083328411236316"><ele>495.0</ele><time>2026-05-02T08:08:57Z</time></trkpt><trkpt lat="44.26582335250767" lon="11.083518553553118"><ele>491.5</ele><time>2026-05-02T08:08:58Z</time></trkpt><trkpt lat="44.26586715135405" lon="11.083704392129158"><ele>488.0</ele><time>2026-05-02T08:08:59Z</time></trkpt><trkpt lat="44.265913701211396" lon="11.08387751719795"><ele>488.0</ele><time>2026-05-02T08:09:00Z</time></trkpt><trkpt lat="44.26599154069312" lon="11.084026631814751"><ele>487.99999999999994</ele><time>2026-05-02T08:09:01Z</time></trkpt><trkpt lat="44.26605066178993" lon="11.084177233701405"><ele>487.99999999999994</ele><time>2026-05-02T08:09:02Z</time></trkpt><trkpt lat="44.26605101396713" lon="11.08431691246307"><ele>488.0</ele><time>2026-05-02T08:09:03Z</time></trkpt><trkpt lat="44.26606754831006" lon="11.084422800989765"><ele>488.0</ele><time>2026-05-02T08:09:04Z</time></trkpt><trkpt lat="44.265958544297085" lon="11.084492288772438"><ele>491.25</ele><time>2026-05-02T08:09:06Z</time></trkpt><trkpt lat="44.265823790204706" lon="11.084575391188006"><ele>494.5</ele><time>2026-05-02T08:09:08Z</time></trkpt><trkpt lat="44.26573877860008" lon="11.084638371690325"><ele>497.75</ele><time>2026-05-02T08:09:09Z</time></trkpt><trkpt lat="44.265635653507466" lon="11.084716089601358"><ele>501.0</ele><time>2026-05-02T08:09:10Z</time></trkpt><trkpt lat="44.26553358173877" lon="11.084809560464098"><ele>502.0</ele><time>2026-05-02T08:09:11Z</time></trkpt><trkpt lat="44.26545244477353" lon="11.084942549277894"><ele>503.0</ele><time>2026-05-02T08:09:12Z</time></trkpt><trkpt lat="44.2654107065729" lon="11.085103928207296"><ele>504.0</ele><time>2026-05-02T08:09:13Z</time></trkpt><trkpt lat="44.26538846106778" lon="11.085274857650262"><ele>505.0</ele><time>2026-05-02T08:09:14Z</time></trkpt><trkpt lat="44.2653682530713" lon="11.085454498293332"><ele>505.0</ele><time>2026-05-02T08:09:15Z</time></trkpt><trkpt lat="44.26533309461314" lon="11.08564294963024"><ele>505.0</ele><time>2026-05-02T08:09:16Z</time></trkpt><trkpt lat="44.26529674634779" lon="11.0858239328277"><ele>505.0</ele><time>2026-05-02T08:09:17Z</time></trkpt><trkpt lat="44.26526433041246" lon="11.086003425447537"><ele>505.0</ele><time>2026-05-02T08:09:18Z</time></trkpt><trkpt lat="44.265238185193624" lon="11.086175476190572"><ele>504.75</ele><time>2026-05-02T08:09:19Z</time></trkpt><trkpt lat="44.26527124631024" lon="11.086334449275892"><ele>504.5</ele><time>2026-05-02T08:09:20Z</time></trkpt><trkpt lat="44.26531751892689" lon="11.086501624642711"><ele>504.25</ele><time>2026-05-02T08:09:21Z</time></trkpt><trkpt lat="44.26536459329003" lon="11.086670410146917"><ele>504.0</ele><time>2026-05-02T08:09:22Z</time></trkpt><trkpt lat="44.26540944591584" lon="11.086841121118834"><ele>504.0</ele><time>2026-05-02T08:09:23Z</time></trkpt><trkpt lat="44.26543685774679" lon="11.087007390161645"><ele>504.0</ele><time>2026-05-02T08:09:24Z</time></trkpt><trkpt lat="44.265454935831805" lon="11.087194112864687"><ele>504.0</ele><time>2026-05-02T08:09:25Z</time></trkpt><trkpt lat="44.265466292588826" lon="11.087369607398982"><ele>504.0</ele><time>2026-05-02T08:09:26Z</time></trkpt><trkpt lat="44.26546583854593" lon="11.087546879517902"><ele>504.25</ele><time>2026-05-02T08:09:27Z</time></trkpt><trkpt lat="44.265444533871246" lon="11.087717369856836"><ele>504.5</ele><time>2026-05-02T08:09:28Z</time></trkpt><trkpt lat="44.26540215828464" lon="11.087915908058031"><ele>504.75</ele><time>2026-05-02T08:09:29Z</time></trkpt><trkpt lat="44.26536962031553" lon="11.088107083508953"><ele>505.0</ele><time>2026-05-02T08:09:30Z</time></trkpt><trkpt lat="44.26533863780443" lon="11.088307543157093"><ele>503.25</ele><time>2026-05-02T08:09:31Z</time></trkpt><trkpt lat="44.265300437159965" lon="11.08850623285347"><ele>501.5</ele><time>2026-05-02T08:09:32Z</time></trkpt><trkpt lat="44.26526659923307" lon="11.088693374437675"><ele>499.75</ele><time>2026-05-02T08:09:33Z</time></trkpt><trkpt lat="44.26524201799179" lon="11.088848828844599"><ele>498.0</ele><time>2026-05-02T08:09:34Z</time></trkpt><trkpt lat="44.26522290909375" lon="11.08893703678698"><ele>498.0</ele><time>2026-05-02T08:09:35Z</time></trkpt><trkpt lat="44.26516469012239" lon="11.088830992211443"><ele>498.0</ele><time>2026-05-02T08:09:38Z</time></trkpt><trkpt lat="44.26509684105522" lon="11.08872132915793"><ele>498.0</ele><time>2026-05-02T08:09:40Z</time></trkpt><trkpt lat="44.26504260313168" lon="11.08855720621901"><ele>498.0</ele><time>2026-05-02T08:09:42Z</time></trkpt><trkpt lat="44.26500437528881" lon="11.08837861599185"><ele>499.4</ele><time>2026-05-02T08:09:43Z</time></trkpt><trkpt lat="44.264985199548555" lon="11.088254397210285"><ele>500.79999999999995</ele><time>2026-05-02T08:09:44Z</time></trkpt><trkpt lat="44.264963941744334" lon="11.088123948137126"><ele>502.2</ele><time>2026-05-02T08:09:45Z</time></trkpt><trkpt lat="44.26494125049425" lon="11.087984702694214"><ele>503.6</ele><time>2026-05-02T08:09:46Z</time></trkpt><trkpt lat="44.26491680309214" lon="11.08783268450611"><ele>505.0</ele><time>2026-05-02T08:09:47Z</time></trkpt><trkpt lat="44.26489113076615" lon="11.08766977723893"><ele>505.0</ele><time>2026-05-02T08:09:48Z</time></trkpt><trkpt lat="44.26486441775038" lon="11.087501512262126"><ele>505.0</ele><time>2026-05-02T08:09:49Z</time></trkpt><trkpt lat="44.2648299397363" lon="11.087328300890775"><ele>505.0</ele><time>2026-05-02T08:09:50Z</time></trkpt><trkpt lat="44.26478404661424" lon="11.08717192823113"><ele>505.0</ele><time>2026-05-02T08:09:51Z</time></trkpt><trkpt lat="44.26469461715276" lon="11.087027600533306"><ele>508.0</ele><time>2026-05-02T08:09:52Z</time></trkpt><trkpt lat="44.264598050053365" lon="11.086909460056729"><ele>511.0</ele><time>2026-05-02T08:09:53Z</time></trkpt><trkpt lat="44.26448786089144" lon="11.086784833678358"><ele>514.0</ele><time>2026-05-02T08:09:54Z</time></trkpt><trkpt lat="44.26437281501429" lon="11.08668611118902"><ele>517.0</ele><time>2026-05-02T08:09:55Z</time></trkpt><trkpt lat="44.264250832883384" lon="11.08665802130627"><ele>517.0</ele><time>2026-05-02T08:09:56Z</time></trkpt><trkpt lat="44.26412855808397" lon="11.086624183673072"><ele>517.0</ele><time>2026-05-02T08:09:57Z</time></trkpt><trkpt lat="44.263999925660485" lon="11.08661652149097"><ele>517.0</ele><time>2026-05-02T08:09:58Z</time></trkpt><trkpt lat="44.263868605277736" lon="11.086614017312291"><ele>517.0</ele><time>2026-05-02T08:09:59Z</time></trkpt><trkpt lat="44.26376305470934" lon="11.086576946478825"><ele>520.2</ele><time>2026-05-02T08:10:00Z</time></trkpt><trkpt lat="44.26368195126489" lon="11.086529638327447"><ele>523.4000000000001</ele><time>2026-05-02T08:10:01Z</time></trkpt><trkpt lat="44.263617573925984" lon="11.08645865063731"><ele>526.5999999999999</ele><time>2026-05-02T08:10:02Z</time></trkpt><trkpt lat="44.26361516011095" lon="11.086334058222658"><ele>529.8</ele><time>2026-05-02T08:10:03Z</time></trkpt><trkpt lat="44.2636482476755" lon="11.086203546824276"><ele>533.0</ele><time>2026-05-02T08:10:04Z</time></trkpt><trkpt lat="44.26364582718152" lon="11.086025773554217"><ele>533.0</ele><time>2026-05-02T08:10:05Z</time></trkpt><trkpt lat="44.26362915908951" lon="11.085859882296555"><ele>533.0</ele><time>2026-05-02T08:10:06Z</time></trkpt><trkpt lat="44.263590906492446" lon="11.08569657927384"><ele>533.0</ele><time>2026-05-02T08:10:07Z</time></trkpt><trkpt lat="44.263555881316904" lon="11.085591236498553"><ele>533.0</ele><time>2026-05-02T08:10:08Z</time></trkpt><trkpt lat="44.263496191914626" lon="11.08553915279666"><ele>533.0</ele><time>2026-05-02T08:10:09Z</time></trkpt><trkpt lat="44.26340787724437" lon="11.085580069009287"><ele>533.0</ele><time>2026-05-02T08:10:10Z</time></trkpt><trkpt lat="44.263339255641235" lon="11.08569656086198"><ele>533.0</ele><time>2026-05-02T08:10:11Z</time></trkpt><trkpt lat="44.2632946787531" lon="11.085819928508947"><ele>533.0</ele><time>2026-05-02T08:10:12Z</time></trkpt><trkpt lat="44.26323439643357" lon="11.085928697092875"><ele>533.0</ele><time>2026-05-02T08:10:13Z</time></trkpt><trkpt lat="44.26313057353773" lon="11.085940756295521"><ele>533.0</ele><time>2026-05-02T08:10:14Z</time></trkpt><trkpt lat="44.26302824268816" lon="11.085879694196045"><ele>534.6666666666666</ele><time>2026-05-02T08:10:15Z</time></trkpt><trkpt lat="44.262916175373284" lon="11.085817890821568"><ele>536.3333333333333</ele><time>2026-05-02T08:10:16Z</time></trkpt><trkpt lat="44.262877412207516" lon="11.085736563072391"><ele>538.0</ele><time>2026-05-02T08:10:17Z</time></trkpt><trkpt lat="44.26288517335088" lon="11.08563691621664"><ele>539.6666666666666</ele><time>2026-05-02T08:10:18Z</time></trkpt><trkpt lat="44.262898666691314" lon="11.085510314801223"><ele>541.3333333333334</ele><time>2026-05-02T08:10:19Z</time></trkpt><trkpt lat="44.26286135650229" lon="11.085404414973643"><ele>543.0</ele><time>2026-05-02T08:10:20Z</time></trkpt><trkpt lat="44.26272860571517" lon="11.085342610596571"><ele>546.75</ele><time>2026-05-02T08:10:21Z</time></trkpt><trkpt lat="44.26259584984037" lon="11.085403481353993"><ele>550.5</ele><time>2026-05-02T08:10:22Z</time></trkpt><trkpt lat="44.26248026085558" lon="11.085478113983388"><ele>554.25</ele><time>2026-05-02T08:10:23Z</time></trkpt><trkpt lat="44.26236639088806" lon="11.085479371470784"><ele>558.0</ele><time>2026-05-02T08:10:24Z</time></trkpt><trkpt lat="44.26230867095311" lon="11.085420437093736"><ele>558.0</ele><time>2026-05-02T08:10:25Z</time></trkpt><trkpt lat="44.26231855564301" lon="11.085254473342795"><ele>558.0</ele><time>2026-05-02T08:10:27Z</time></trkpt><trkpt lat="44.262354802992526" lon="11.085173614546507"><ele>558.0</ele><time>2026-05-02T08:10:28Z</time></trkpt><trkpt lat="44.26242987156137" lon="11.085094756332978"><ele>558.0</ele><time>2026-05-02T08:10:29Z</time></trkpt><trkpt lat="44.26253120856476" lon="11.085010057232127"><ele>558.0</ele><time>2026-05-02T08:10:30Z</time></trkpt><trkpt lat="44.26261840232599" lon="11.084913010567934"><ele>558.6</ele><time>2026-05-02T08:10:31Z</time></trkpt><trkpt lat="44.26271448178528" lon="11.08480454819425"><ele>559.1999999999999</ele><time>2026-05-02T08:10:32Z</time></trkpt><trkpt lat="44.26279002695089" lon="11.084701407134883"><ele>559.8</ele><time>2026-05-02T08:10:33Z</time></trkpt><trkpt lat="44.26282030685855" lon="11.084590365564965"><ele>560.4</ele><time>2026-05-02T08:10:34Z</time></trkpt><trkpt lat="44.262826284433736" lon="11.084456191405867"><ele>561.0</ele><time>2026-05-02T08:10:35Z</time></trkpt><trkpt lat="44.26275021271386" lon="11.084332504119907"><ele>561.0</ele><time>2026-05-02T08:10:36Z</time></trkpt><trkpt lat="44.26265043931048" lon="11.084282035432551"><ele>561.0</ele><time>2026-05-02T08:10:37Z</time></trkpt><trkpt lat="44.262530841060496" lon="11.08431272518417"><ele>561.0</ele><time>2026-05-02T08:10:38Z</time></trkpt><trkpt lat="44.26242183622596" lon="11.08437264491941"><ele>561.0</ele><time>2026-05-02T08:10:39Z</time></trkpt><trkpt lat="44.26230006760665" lon="11.084417942964148"><ele>563.5</ele><time>2026-05-02T08:10:40Z</time></trkpt><trkpt lat="44.262178790113566" lon="11.08446491174569"><ele>566.0</ele><time>2026-05-02T08:10:41Z</time></trkpt><trkpt lat="44.262047824418396" lon="11.084504850170761"><ele>568.5</ele><time>2026-05-02T08:10:42Z</time></trkpt><trkpt lat="44.261910436727256" lon="11.084526419241739"><ele>571.0</ele><time>2026-05-02T08:10:43Z</time></trkpt><trkpt lat="44.26177013711375" lon="11.084543342800998"><ele>571.0</ele><time>2026-05-02T08:10:44Z</time></trkpt><trkpt lat="44.26162967085141" lon="11.084562679164335"><ele>571.0</ele><time>2026-05-02T08:10:45Z</time></trkpt><trkpt lat="44.26151513798154" lon="11.084566570982732"><ele>571.0</ele><time>2026-05-02T08:10:46Z</time></trkpt><trkpt lat="44.26141413092521" lon="11.084545913912871"><ele>571.0</ele><time>2026-05-02T08:10:47Z</time></trkpt><trkpt lat="44.26131987363685" lon="11.084488105904844"><ele>570.25</ele><time>2026-05-02T08:10:48Z</time></trkpt><trkpt lat="44.26121119487379" lon="11.084399137537662"><ele>569.5</ele><time>2026-05-02T08:10:49Z</time></trkpt><trkpt lat="44.261101119285165" lon="11.084293641308237"><ele>568.75</ele><time>2026-05-02T08:10:50Z</time></trkpt><trkpt lat="44.260983964305574" lon="11.084152504090474"><ele>568.0</ele><time>2026-05-02T08:10:51Z</time></trkpt><trkpt lat="44.260853587061995" lon="11.0840122546213"><ele>567.6666666666667</ele><time>2026-05-02T08:10:52Z</time></trkpt><trkpt lat="44.26070379823601" lon="11.083963182336907"><ele>567.3333333333334</ele><time>2026-05-02T08:10:53Z</time></trkpt><trkpt lat="44.26054857605525" lon="11.083930878270195"><ele>567.0</ele><time>2026-05-02T08:10:54Z</time></trkpt><trkpt lat="44.260381844330794" lon="11.083929286531216"><ele>567.0</ele><time>2026-05-02T08:10:55Z</time></trkpt><trkpt lat="44.260256720041774" lon="11.083891304589548"><ele>567.0</ele><time>2026-05-02T08:10:56Z</time></trkpt><trkpt lat="44.260160597867575" lon="11.08383116284947"><ele>567.0</ele><time>2026-05-02T08:10:57Z</time></trkpt><trkpt lat="44.260109758817435" lon="11.083701301006288"><ele>567.0</ele><time>2026-05-02T08:10:58Z</time></trkpt><trkpt lat="44.26003067653942" lon="11.08360323089849"><ele>567.0</ele><time>2026-05-02T08:10:59Z</time></trkpt><trkpt lat="44.25995827049062" lon="11.0835602417708"><ele>567.0</ele><time>2026-05-02T08:11:00Z</time></trkpt><trkpt lat="44.25987214703401" lon="11.083497324712576"><ele>567.0</ele><time>2026-05-02T08:11:02Z</time></trkpt><trkpt lat="44.25977020485277" lon="11.083445379943184"><ele>567.0</ele><time>2026-05-02T08:11:04Z</time></trkpt><trkpt lat="44.25954701658827" lon="11.083816157812393"><ele>563.4</ele><time>2026-05-02T08:11:05Z</time></trkpt><trkpt lat="44.25944254555972" lon="11.083840790502245"><ele>559.8000000000001</ele><time>2026-05-02T08:11:06Z</time></trkpt><trkpt lat="44.2593408567436" lon="11.083885264555542"><ele>556.2</ele><time>2026-05-02T08:11:07Z</time></trkpt><trkpt lat="44.259240076396765" lon="11.083931157517311"><ele>552.6</ele><time>2026-05-02T08:11:08Z</time></trkpt><trkpt lat="44.25912449703851" lon="11.084009378775432"><ele>549.0</ele><time>2026-05-02T08:11:09Z</time></trkpt><trkpt lat="44.259021791052746" lon="11.08409543992688"><ele>544.6666666666666</ele><time>2026-05-02T08:11:10Z</time></trkpt><trkpt lat="44.258879844993935" lon="11.08419308164035"><ele>540.3333333333333</ele><time>2026-05-02T08:11:11Z</time></trkpt><trkpt lat="44.25873392654421" lon="11.08427745322497"><ele>536.0</ele><time>2026-05-02T08:11:12Z</time></trkpt><trkpt lat="44.258571288805264" lon="11.084355074174141"><ele>536.0</ele><time>2026-05-02T08:11:14Z</time></trkpt><trkpt lat="44.258467169142065" lon="11.084440175553672"><ele>536.0</ele><time>2026-05-02T08:11:15Z</time></trkpt><trkpt lat="44.25837377562793" lon="11.084494184551144"><ele>536.0</ele><time>2026-05-02T08:11:16Z</time></trkpt><trkpt lat="44.25827112836108" lon="11.084525225514827"><ele>536.0</ele><time>2026-05-02T08:11:17Z</time></trkpt><trkpt lat="44.25815870036464" lon="11.084516883079734"><ele>536.0</ele><time>2026-05-02T08:11:18Z</time></trkpt><trkpt lat="44.25805402058554" lon="11.084512836891133"><ele>533.6</ele><time>2026-05-02T08:11:19Z</time></trkpt><trkpt lat="44.25795085899782" lon="11.08455224145715"><ele>531.2</ele><time>2026-05-02T08:11:20Z</time></trkpt><trkpt lat="44.25784930932655" lon="11.084604333404487"><ele>528.8</ele><time>2026-05-02T08:11:21Z</time></trkpt><trkpt lat="44.25775685370377" lon="11.084655813059605"><ele>526.4</ele><time>2026-05-02T08:11:22Z</time></trkpt><trkpt lat="44.2576649426271" lon="11.084669042159513"><ele>524.0</ele><time>2026-05-02T08:11:23Z</time></trkpt><trkpt lat="44.25756341333722" lon="11.08468025388513"><ele>524.0</ele><time>2026-05-02T08:11:24Z</time></trkpt><trkpt lat="44.25746933363802" lon="11.084702015053063"><ele>524.0</ele><time>2026-05-02T08:11:25Z</time></trkpt><trkpt lat="44.25740785720272" lon="11.084655626510703"><ele>524.0</ele><time>2026-05-02T08:11:27Z</time></trkpt><trkpt lat="44.25726914559989" lon="11.084670091576102"><ele>524.0</ele><time>2026-05-02T08:11:30Z</time></trkpt><trkpt lat="44.25718762698555" lon="11.084680250590704"><ele>524.0</ele><time>2026-05-02T08:11:31Z</time></trkpt><trkpt lat="44.25709196495525" lon="11.084724150170373"><ele>520.8</ele><time>2026-05-02T08:11:32Z</time></trkpt><trkpt lat="44.2570007907904" lon="11.084769824487639"><ele>517.5999999999999</ele><time>2026-05-02T08:11:33Z</time></trkpt><trkpt lat="44.25693601235988" lon="11.08470971795048"><ele>514.4</ele><time>2026-05-02T08:11:35Z</time></trkpt><trkpt lat="44.256940628948335" lon="11.084583035716577"><ele>511.2</ele><time>2026-05-02T08:11:37Z</time></trkpt><trkpt lat="44.25692235425848" lon="11.084406762205614"><ele>508.0</ele><time>2026-05-02T08:11:38Z</time></trkpt><trkpt lat="44.256876486404266" lon="11.084198864246126"><ele>505.33333333333337</ele><time>2026-05-02T08:11:39Z</time></trkpt><trkpt lat="44.2568637983303" lon="11.083968851436822"><ele>502.66666666666663</ele><time>2026-05-02T08:11:40Z</time></trkpt><trkpt lat="44.256856135034596" lon="11.083756636516595"><ele>500.0</ele><time>2026-05-02T08:11:41Z</time></trkpt><trkpt lat="44.25685466207616" lon="11.083555664590024"><ele>500.0</ele><time>2026-05-02T08:11:42Z</time></trkpt><trkpt lat="44.256849254403065" lon="11.08338482941057"><ele>500.0</ele><time>2026-05-02T08:11:43Z</time></trkpt><trkpt lat="44.256847121049525" lon="11.083228274815253"><ele>500.0</ele><time>2026-05-02T08:11:44Z</time></trkpt><trkpt lat="44.25684470223015" lon="11.083119455122752"><ele>500.0</ele><time>2026-05-02T08:11:45Z</time></trkpt><trkpt lat="44.25680030841326" lon="11.083018904872429"><ele>500.0</ele><time>2026-05-02T08:11:47Z</time></trkpt><trkpt lat="44.256720076850364" lon="11.08301939505583"><ele>497.75</ele><time>2026-05-02T08:11:49Z</time></trkpt><trkpt lat="44.25664690637401" lon="11.083071600923086"><ele>495.5</ele><time>2026-05-02T08:11:50Z</time></trkpt><trkpt lat="44.25655101360254" lon="11.083156143214344"><ele>493.25</ele><time>2026-05-02T08:11:51Z</time></trkpt><trkpt lat="44.25644562650445" lon="11.083232852146425"><ele>491.0</ele><time>2026-05-02T08:11:52Z</time></trkpt><trkpt lat="44.25631328711508" lon="11.08331225062423"><ele>489.5</ele><time>2026-05-02T08:11:53Z</time></trkpt><trkpt lat="44.25621143079394" lon="11.08335677675029"><ele>488.0</ele><time>2026-05-02T08:11:54Z</time></trkpt><trkpt lat="44.256095066294016" lon="11.083411804669238"><ele>486.5</ele><time>2026-05-02T08:11:55Z</time></trkpt><trkpt lat="44.25597695593888" lon="11.083393475473116"><ele>485.0</ele><time>2026-05-02T08:11:56Z</time></trkpt><trkpt lat="44.25586149503812" lon="11.083443729503747"><ele>485.0</ele><time>2026-05-02T08:11:57Z</time></trkpt><trkpt lat="44.25577699050794" lon="11.083502994178003"><ele>485.0</ele><time>2026-05-02T08:11:58Z</time></trkpt><trkpt lat="44.2557112116779" lon="11.083616570730271"><ele>485.0</ele><time>2026-05-02T08:11:59Z</time></trkpt><trkpt lat="44.255625679958484" lon="11.08377312589784"><ele>485.0</ele><time>2026-05-02T08:12:00Z</time></trkpt><trkpt lat="44.25552430689931" lon="11.083961419805798"><ele>481.0</ele><time>2026-05-02T08:12:01Z</time></trkpt><trkpt lat="44.25543590094675" lon="11.084125365460915"><ele>477.0</ele><time>2026-05-02T08:12:02Z</time></trkpt><trkpt lat="44.2553702453429" lon="11.084253233610202"><ele>473.0</ele><time>2026-05-02T08:12:03Z</time></trkpt><trkpt lat="44.25531355790465" lon="11.084338891798623"><ele>469.0</ele><time>2026-05-02T08:12:04Z</time></trkpt><trkpt lat="44.255190497984685" lon="11.084342637069236"><ele>469.0</ele><time>2026-05-02T08:12:06Z</time></trkpt><trkpt lat="44.255093776135446" lon="11.08431545899526"><ele>469.0</ele><time>2026-05-02T08:12:07Z</time></trkpt><trkpt lat="44.25498189930561" lon="11.084281846812665"><ele>469.0</ele><time>2026-05-02T08:12:08Z</time></trkpt><trkpt lat="44.254848031230395" lon="11.084241190568054"><ele>469.0</ele><time>2026-05-02T08:12:09Z</time></trkpt><trkpt lat="44.25472196060533" lon="11.084202663116663"><ele>464.0</ele><time>2026-05-02T08:12:10Z</time></trkpt><trkpt lat="44.254594313282304" lon="11.084160162378312"><ele>459.0</ele><time>2026-05-02T08:12:11Z</time></trkpt><trkpt lat="44.254481931191805" lon="11.084108416684721"><ele>454.0</ele><time>2026-05-02T08:12:12Z</time></trkpt><trkpt lat="44.254355406552094" lon="11.084036914108792"><ele>449.0</ele><time>2026-05-02T08:12:13Z</time></trkpt><trkpt lat="44.254237211894676" lon="11.083969705375502"><ele>448.0</ele><time>2026-05-02T08:12:14Z</time></trkpt><trkpt lat="44.25409771223681" lon="11.083890175451579"><ele>447.0</ele><time>2026-05-02T08:12:15Z</time></trkpt><trkpt lat="44.253976690856575" lon="11.083820556046893"><ele>446.0</ele><time>2026-05-02T08:12:16Z</time></trkpt><trkpt lat="44.25384061806246" lon="11.083742278047131"><ele>445.0</ele><time>2026-05-02T08:12:17Z</time></trkpt><trkpt lat="44.253721510848614" lon="11.08367375976066"><ele>441.0</ele><time>2026-05-02T08:12:18Z</time></trkpt><trkpt lat="44.253587258164885" lon="11.08359859442121"><ele>437.0</ele><time>2026-05-02T08:12:19Z</time></trkpt><trkpt lat="44.25346466716947" lon="11.083532213687288"><ele>433.0</ele><time>2026-05-02T08:12:20Z</time></trkpt><trkpt lat="44.2533330374636" lon="11.083460185492369"><ele>429.0</ele><time>2026-05-02T08:12:21Z</time></trkpt><trkpt lat="44.25320741402583" lon="11.083384581742555"><ele>424.5</ele><time>2026-05-02T08:12:22Z</time></trkpt><trkpt lat="44.253090410400574" lon="11.083303096564313"><ele>420.0</ele><time>2026-05-02T08:12:23Z</time></trkpt><trkpt lat="44.2529956431519" lon="11.083190021619592"><ele>415.5</ele><time>2026-05-02T08:12:24Z</time></trkpt><trkpt lat="44.252915575253915" lon="11.083064522759303"><ele>411.0</ele><time>2026-05-02T08:12:25Z</time></trkpt><trkpt lat="44.25282307008732" lon="11.082913829949607"><ele>410.6</ele><time>2026-05-02T08:12:26Z</time></trkpt><trkpt lat="44.25274142671583" lon="11.082783004622913"><ele>410.20000000000005</ele><time>2026-05-02T08:12:27Z</time></trkpt><trkpt lat="44.25266652676704" lon="11.082671418968328"><ele>409.79999999999995</ele><time>2026-05-02T08:12:28Z</time></trkpt><trkpt lat="44.252566626732346" lon="11.082598504532886"><ele>409.4</ele><time>2026-05-02T08:12:29Z</time></trkpt><trkpt lat="44.252477961137444" lon="11.082548743024706"><ele>409.0</ele><time>2026-05-02T08:12:30Z</time></trkpt><trkpt lat="44.252400350288404" lon="11.082485193322137"><ele>407.5</ele><time>2026-05-02T08:12:31Z</time></trkpt><trkpt lat="44.252322652857515" lon="11.08239819506424"><ele>406.0</ele><time>2026-05-02T08:12:32Z</time></trkpt><trkpt lat="44.252249511768945" lon="11.082282611434406"><ele>404.5</ele><time>2026-05-02T08:12:33Z</time></trkpt><trkpt lat="44.25216555800842" lon="11.082161736868505"><ele>403.0</ele><time>2026-05-02T08:12:34Z</time></trkpt><trkpt lat="44.252089565402095" lon="11.082032983340634"><ele>399.25</ele><time>2026-05-02T08:12:35Z</time></trkpt><trkpt lat="44.25201348225903" lon="11.081899556764919"><ele>395.5</ele><time>2026-05-02T08:12:36Z</time></trkpt><trkpt lat="44.251933036270174" lon="11.081777208892948"><ele>391.75</ele><time>2026-05-02T08:12:37Z</time></trkpt><trkpt lat="44.25184859963582" lon="11.081661990932192"><ele>388.0</ele><time>2026-05-02T08:12:38Z</time></trkpt><trkpt lat="44.25175663999739" lon="11.081550964954541"><ele>386.5</ele><time>2026-05-02T08:12:39Z</time></trkpt><trkpt lat="44.25162865729643" lon="11.081473803225894"><ele>385.0</ele><time>2026-05-02T08:12:40Z</time></trkpt><trkpt lat="44.251539345197536" lon="11.081368567539664"><ele>383.5</ele><time>2026-05-02T08:12:41Z</time></trkpt><trkpt lat="44.251446556945425" lon="11.081252460627756"><ele>382.0</ele><time>2026-05-02T08:12:42Z</time></trkpt><trkpt lat="44.251380818616404" lon="11.081184895779575"><ele>379.20000000000005</ele><time>2026-05-02T08:12:43Z</time></trkpt><trkpt lat="44.25129365372658" lon="11.081179641573314"><ele>376.4</ele><time>2026-05-02T08:12:44Z</time></trkpt><trkpt lat="44.251190734895204" lon="11.081158476501937"><ele>373.6</ele><time>2026-05-02T08:12:45Z</time></trkpt><trkpt lat="44.25108925131702" lon="11.08110343618373"><ele>370.79999999999995</ele><time>2026-05-02T08:12:46Z</time></trkpt><trkpt lat="44.25100872730781" lon="11.081032869625393"><ele>368.0</ele><time>2026-05-02T08:12:47Z</time></trkpt><trkpt lat="44.250959279273566" lon="11.080942639322439"><ele>368.0</ele><time>2026-05-02T08:12:48Z</time></trkpt><trkpt lat="44.250948270973694" lon="11.080819584780984"><ele>368.0</ele><time>2026-05-02T08:12:49Z</time></trkpt><trkpt lat="44.25092773402636" lon="11.080658444930018"><ele>368.0</ele><time>2026-05-02T08:12:50Z</time></trkpt><trkpt lat="44.25090490950195" lon="11.080486488130266"><ele>368.0</ele><time>2026-05-02T08:12:51Z</time></trkpt><trkpt lat="44.25086450594159" lon="11.080367051413573"><ele>368.0</ele><time>2026-05-02T08:12:52Z</time></trkpt><trkpt lat="44.25079708472204" lon="11.080308234674701"><ele>368.2</ele><time>2026-05-02T08:12:53Z</time></trkpt><trkpt lat="44.25070210546089" lon="11.080324519157854"><ele>368.4</ele><time>2026-05-02T08:12:54Z</time></trkpt><trkpt lat="44.2506120861273" lon="11.080422793687497"><ele>368.59999999999997</ele><time>2026-05-02T08:12:55Z</time></trkpt><trkpt lat="44.25049743373589" lon="11.080479072015992"><ele>368.79999999999995</ele><time>2026-05-02T08:12:56Z</time></trkpt><trkpt lat="44.250387662168386" lon="11.080537867522466"><ele>369.0</ele><time>2026-05-02T08:12:57Z</time></trkpt><trkpt lat="44.2502887569983" lon="11.080563564671305"><ele>366.25</ele><time>2026-05-02T08:12:58Z</time></trkpt><trkpt lat="44.25018807449829" lon="11.080555949917255"><ele>363.5</ele><time>2026-05-02T08:12:59Z</time></trkpt><trkpt lat="44.25007809593931" lon="11.080514462661233"><ele>360.75</ele><time>2026-05-02T08:13:00Z</time></trkpt><trkpt lat="44.24996094837981" lon="11.080458177120958"><ele>358.0</ele><time>2026-05-02T08:13:01Z</time></trkpt><trkpt lat="44.24985325257171" lon="11.080388707538473"><ele>355.0</ele><time>2026-05-02T08:13:02Z</time></trkpt><trkpt lat="44.2497732407162" lon="11.08029859620068"><ele>352.0</ele><time>2026-05-02T08:13:03Z</time></trkpt><trkpt lat="44.24969591300406" lon="11.080177627690688"><ele>349.0</ele><time>2026-05-02T08:13:04Z</time></trkpt><trkpt lat="44.2495904177166" lon="11.080056074611003"><ele>346.0</ele><time>2026-05-02T08:13:05Z</time></trkpt><trkpt lat="44.24950076567082" lon="11.079950037812651"><ele>346.8</ele><time>2026-05-02T08:13:06Z</time></trkpt><trkpt lat="44.24946044036388" lon="11.079835835916462"><ele>347.6</ele><time>2026-05-02T08:13:07Z</time></trkpt><trkpt lat="44.24947599860506" lon="11.079698988794114"><ele>348.4</ele><time>2026-05-02T08:13:08Z</time></trkpt><trkpt lat="44.24944215858063" lon="11.079563627438203"><ele>349.2</ele><time>2026-05-02T08:13:09Z</time></trkpt><trkpt lat="44.24935302261924" lon="11.079454490085693"><ele>350.0</ele><time>2026-05-02T08:13:10Z</time></trkpt><trkpt lat="44.249291604759364" lon="11.079369947443722"><ele>350.0</ele><time>2026-05-02T08:13:11Z</time></trkpt><trkpt lat="44.24923025411743" lon="11.079329762597323"><ele>350.0</ele><time>2026-05-02T08:13:12Z</time></trkpt><trkpt lat="44.24915590186597" lon="11.079312506366037"><ele>350.0</ele><time>2026-05-02T08:13:13Z</time></trkpt><trkpt lat="44.24904130671877" lon="11.079401269324515"><ele>350.0</ele><time>2026-05-02T08:13:14Z</time></trkpt><trkpt lat="44.24893714138999" lon="11.079419288611003"><ele>350.0</ele><time>2026-05-02T08:13:15Z</time></trkpt><trkpt lat="44.24882293507562" lon="11.07944317579389"><ele>346.75</ele><time>2026-05-02T08:13:16Z</time></trkpt><trkpt lat="44.24869382422444" lon="11.079455352941835"><ele>343.5</ele><time>2026-05-02T08:13:17Z</time></trkpt><trkpt lat="44.248564004628314" lon="11.079487076160303"><ele>340.25</ele><time>2026-05-02T08:13:18Z</time></trkpt><trkpt lat="44.2484425987667" lon="11.079532838307257"><ele>337.0</ele><time>2026-05-02T08:13:19Z</time></trkpt><trkpt lat="44.24832721123045" lon="11.079579359243294"><ele>337.0</ele><time>2026-05-02T08:13:20Z</time></trkpt><trkpt lat="44.24820439231767" lon="11.07963499662155"><ele>337.0</ele><time>2026-05-02T08:13:21Z</time></trkpt><trkpt lat="44.24809483830258" lon="11.079690064180612"><ele>337.0</ele><time>2026-05-02T08:13:22Z</time></trkpt><trkpt lat="44.24799075523974" lon="11.079750607315427"><ele>337.0</ele><time>2026-05-02T08:13:23Z</time></trkpt><trkpt lat="44.24787424652268" lon="11.079816068017918"><ele>333.25</ele><time>2026-05-02T08:13:24Z</time></trkpt><trkpt lat="44.24776593200185" lon="11.079890838360285"><ele>329.5</ele><time>2026-05-02T08:13:25Z</time></trkpt><trkpt lat="44.24763879114875" lon="11.07991477810323"><ele>325.75</ele><time>2026-05-02T08:13:26Z</time></trkpt><trkpt lat="44.24751709973351" lon="11.07996464229722"><ele>322.0</ele><time>2026-05-02T08:13:27Z</time></trkpt><trkpt lat="44.24740576434681" lon="11.080012735610032"><ele>318.75</ele><time>2026-05-02T08:13:28Z</time></trkpt><trkpt lat="44.24728020505147" lon="11.080104693956118"><ele>315.5</ele><time>2026-05-02T08:13:29Z</time></trkpt><trkpt lat="44.24717507762515" lon="11.080154032095598"><ele>312.25</ele><time>2026-05-02T08:13:30Z</time></trkpt><trkpt lat="44.247060198113395" lon="11.080158297219976"><ele>309.0</ele><time>2026-05-02T08:13:31Z</time></trkpt><trkpt lat="44.24695004832512" lon="11.080148932089864"><ele>309.0</ele><time>2026-05-02T08:13:32Z</time></trkpt><trkpt lat="44.24684663437018" lon="11.080154997464678"><ele>309.0</ele><time>2026-05-02T08:13:33Z</time></trkpt><trkpt lat="44.24672535410251" lon="11.080169201474115"><ele>309.0</ele><time>2026-05-02T08:13:34Z</time></trkpt><trkpt lat="44.24660070907378" lon="11.080181124399102"><ele>309.0</ele><time>2026-05-02T08:13:35Z</time></trkpt><trkpt lat="44.246479158051464" lon="11.080196955441782"><ele>306.25</ele><time>2026-05-02T08:13:36Z</time></trkpt><trkpt lat="44.246352935961845" lon="11.080196714145401"><ele>303.5</ele><time>2026-05-02T08:13:37Z</time></trkpt><trkpt lat="44.24623277537357" lon="11.080178202266685"><ele>300.75</ele><time>2026-05-02T08:13:38Z</time></trkpt><trkpt lat="44.246110942718744" lon="11.080166198806468"><ele>298.0</ele><time>2026-05-02T08:13:39Z</time></trkpt><trkpt lat="44.245988402083476" lon="11.080164033864245"><ele>298.0</ele><time>2026-05-02T08:13:40Z</time></trkpt><trkpt lat="44.24586643464153" lon="11.080179888084224"><ele>298.0</ele><time>2026-05-02T08:13:41Z</time></trkpt><trkpt lat="44.24574418078302" lon="11.080215726740876"><ele>298.0</ele><time>2026-05-02T08:13:42Z</time></trkpt><trkpt lat="44.24563759490903" lon="11.080284925224209"><ele>298.0</ele><time>2026-05-02T08:13:43Z</time></trkpt><trkpt lat="44.24553278022029" lon="11.080369610402553"><ele>296.25</ele><time>2026-05-02T08:13:44Z</time></trkpt><trkpt lat="44.24542395450736" lon="11.080453160179271"><ele>294.5</ele><time>2026-05-02T08:13:45Z</time></trkpt><trkpt lat="44.24531564834396" lon="11.080483280186307"><ele>292.75</ele><time>2026-05-02T08:13:46Z</time></trkpt><trkpt lat="44.24521629330447" lon="11.080490505263393"><ele>291.0</ele><time>2026-05-02T08:13:47Z</time></trkpt><trkpt lat="44.24509514094451" lon="11.080497610879846"><ele>291.0</ele><time>2026-05-02T08:13:48Z</time></trkpt><trkpt lat="44.24496539357812" lon="11.080518088927766"><ele>291.0</ele><time>2026-05-02T08:13:49Z</time></trkpt><trkpt lat="44.24484146847815" lon="11.080583601115224"><ele>291.0</ele><time>2026-05-02T08:13:50Z</time></trkpt><trkpt lat="44.24472789418351" lon="11.080648028845776"><ele>291.0</ele><time>2026-05-02T08:13:51Z</time></trkpt><trkpt lat="44.24459387640648" lon="11.08072774653642"><ele>287.5</ele><time>2026-05-02T08:13:52Z</time></trkpt><trkpt lat="44.24447225529691" lon="11.080807160278548"><ele>284.0</ele><time>2026-05-02T08:13:53Z</time></trkpt><trkpt lat="44.24435541847547" lon="11.080892142987624"><ele>280.5</ele><time>2026-05-02T08:13:54Z</time></trkpt><trkpt lat="44.24423201241055" lon="11.080992834991022"><ele>277.0</ele><time>2026-05-02T08:13:55Z</time></trkpt><trkpt lat="44.244114148299985" lon="11.081117508745045"><ele>277.0</ele><time>2026-05-02T08:13:56Z</time></trkpt><trkpt lat="44.24399315244035" lon="11.08122368484563"><ele>277.0</ele><time>2026-05-02T08:13:57Z</time></trkpt><trkpt lat="44.24390502600266" lon="11.081312278849154"><ele>277.0</ele><time>2026-05-02T08:13:58Z</time></trkpt><trkpt lat="44.24381686699945" lon="11.081400879976261"><ele>277.0</ele><time>2026-05-02T08:13:59Z</time></trkpt><trkpt lat="44.243719976813466" lon="11.081503386821518"><ele>273.0</ele><time>2026-05-02T08:14:00Z</time></trkpt><trkpt lat="44.24361625226151" lon="11.081626089976126"><ele>269.0</ele><time>2026-05-02T08:14:01Z</time></trkpt><trkpt lat="44.243502931331406" lon="11.081743935264482"><ele>265.0</ele><time>2026-05-02T08:14:02Z</time></trkpt><trkpt lat="44.243395151449235" lon="11.081861273696381"><ele>261.0</ele><time>2026-05-02T08:14:03Z</time></trkpt><trkpt lat="44.24329704423602" lon="11.081967784981147"><ele>261.0</ele><time>2026-05-02T08:14:04Z</time></trkpt><trkpt lat="44.24318796229297" lon="11.082083134311425"><ele>261.0</ele><time>2026-05-02T08:14:05Z</time></trkpt><trkpt lat="44.24308355717328" lon="11.082200239106863"><ele>261.0</ele><time>2026-05-02T08:14:06Z</time></trkpt><trkpt lat="44.24297257562464" lon="11.08233214901862"><ele>261.0</ele><time>2026-05-02T08:14:07Z</time></trkpt><trkpt lat="44.242855577759016" lon="11.082464423853628"><ele>256.75</ele><time>2026-05-02T08:14:08Z</time></trkpt><trkpt lat="44.24274136709003" lon="11.082604856598508"><ele>252.5</ele><time>2026-05-02T08:14:09Z</time></trkpt><trkpt lat="44.24262741522929" lon="11.082709279375743"><ele>248.25</ele><time>2026-05-02T08:14:10Z</time></trkpt><trkpt lat="44.242549273853434" lon="11.082765521051801"><ele>244.0</ele><time>2026-05-02T08:14:11Z</time></trkpt><trkpt lat="44.24244929652145" lon="11.082698070773441"><ele>244.0</ele><time>2026-05-02T08:14:13Z</time></trkpt><trkpt lat="44.24245416647613" lon="11.082591332252424"><ele>243.99999999999997</ele><time>2026-05-02T08:14:14Z</time></trkpt><trkpt lat="44.24244238606058" lon="11.082482085740486"><ele>243.99999999999997</ele><time>2026-05-02T08:14:15Z</time></trkpt><trkpt lat="44.24242666995416" lon="11.082328190323484"><ele>244.0</ele><time>2026-05-02T08:14:16Z</time></trkpt><trkpt lat="44.24241549355329" lon="11.08215730036646"><ele>244.0</ele><time>2026-05-02T08:14:17Z</time></trkpt><trkpt lat="44.24239700094607" lon="11.081996069838247"><ele>243.2</ele><time>2026-05-02T08:14:18Z</time></trkpt><trkpt lat="44.24237915051713" lon="11.081876335992929"><ele>242.39999999999998</ele><time>2026-05-02T08:14:19Z</time></trkpt><trkpt lat="44.2423625248919" lon="11.08176932901248"><ele>241.6</ele><time>2026-05-02T08:14:20Z</time></trkpt><trkpt lat="44.24234317944813" lon="11.081642813988477"><ele>240.8</ele><time>2026-05-02T08:14:21Z</time></trkpt><trkpt lat="44.242391428344646" lon="11.0815044974551"><ele>240.0</ele><time>2026-05-02T08:14:22Z</time></trkpt><trkpt lat="44.24243008540593" lon="11.081328880675732"><ele>238.0</ele><time>2026-05-02T08:14:23Z</time></trkpt><trkpt lat="44.242487041690076" lon="11.081126592544875"><ele>236.0</ele><time>2026-05-02T08:14:24Z</time></trkpt><trkpt lat="44.242548801920364" lon="11.080918696994011"><ele>234.0</ele><time>2026-05-02T08:14:25Z</time></trkpt><trkpt lat="44.24261497758278" lon="11.080695938425993"><ele>232.0</ele><time>2026-05-02T08:14:26Z</time></trkpt><trkpt lat="44.24266199292561" lon="11.080472355320563"><ele>230.0</ele><time>2026-05-02T08:14:27Z</time></trkpt><trkpt lat="44.2426823140641" lon="11.080218793060737"><ele>228.0</ele><time>2026-05-02T08:14:28Z</time></trkpt><trkpt lat="44.24270145596383" lon="11.07996574823153"><ele>227.33333333333331</ele><time>2026-05-02T08:14:29Z</time></trkpt><trkpt lat="44.24272956947885" lon="11.079727725315943"><ele>226.66666666666666</ele><time>2026-05-02T08:14:30Z</time></trkpt><trkpt lat="44.24277094548448" lon="11.079502229717018"><ele>226.0</ele><time>2026-05-02T08:14:31Z</time></trkpt><trkpt lat="44.242839931640106" lon="11.079317042467254"><ele>226.0</ele><time>2026-05-02T08:14:32Z</time></trkpt><trkpt lat="44.242937664436774" lon="11.07910987791249"><ele>226.0</ele><time>2026-05-02T08:14:33Z</time></trkpt><trkpt lat="44.24301964515906" lon="11.078921241016415"><ele>226.0</ele><time>2026-05-02T08:14:34Z</time></trkpt><trkpt lat="44.24308161356797" lon="11.078757651673687"><ele>226.0</ele><time>2026-05-02T08:14:35Z</time></trkpt><trkpt lat="44.243133852870116" lon="11.07859559039708"><ele>226.0</ele><time>2026-05-02T08:14:36Z</time></trkpt><trkpt lat="44.243123054071155" lon="11.078396506006838"><ele>226.0</ele><time>2026-05-02T08:14:37Z</time></trkpt><trkpt lat="44.24311567069332" lon="11.078205873291385"><ele>226.0</ele><time>2026-05-02T08:14:38Z</time></trkpt><trkpt lat="44.243103798746525" lon="11.077985974082265"><ele>226.66666666666666</ele><time>2026-05-02T08:14:39Z</time></trkpt><trkpt lat="44.24308274798132" lon="11.077768518395914"><ele>227.33333333333331</ele><time>2026-05-02T08:14:40Z</time></trkpt><trkpt lat="44.243056421473426" lon="11.077557961745725"><ele>228.0</ele><time>2026-05-02T08:14:41Z</time></trkpt><trkpt lat="44.24302734237099" lon="11.077334601489449"><ele>229.33333333333331</ele><time>2026-05-02T08:14:42Z</time></trkpt><trkpt lat="44.24297538200643" lon="11.07712617982498"><ele>230.66666666666666</ele><time>2026-05-02T08:14:43Z</time></trkpt><trkpt lat="44.24290728249085" lon="11.076950404051956"><ele>232.0</ele><time>2026-05-02T08:14:44Z</time></trkpt><trkpt lat="44.24283257695144" lon="11.076757611761723"><ele>233.0</ele><time>2026-05-02T08:14:45Z</time></trkpt><trkpt lat="44.2427510596157" lon="11.076580552987393"><ele>234.0</ele><time>2026-05-02T08:14:46Z</time></trkpt><trkpt lat="44.24266863533116" lon="11.07639684172012"><ele>235.0</ele><time>2026-05-02T08:14:47Z</time></trkpt><trkpt lat="44.242607891522546" lon="11.076214762146929"><ele>235.0</ele><time>2026-05-02T08:14:48Z</time></trkpt><trkpt lat="44.24258774091062" lon="11.076022033195088"><ele>235.0</ele><time>2026-05-02T08:14:49Z</time></trkpt><trkpt lat="44.242599083083945" lon="11.075838728402642"><ele>235.0</ele><time>2026-05-02T08:14:50Z</time></trkpt><trkpt lat="44.24262168539549" lon="11.075645221234574"><ele>235.0</ele><time>2026-05-02T08:14:51Z</time></trkpt><trkpt lat="44.24264620210449" lon="11.07543490014001"><ele>235.66666666666666</ele><time>2026-05-02T08:14:52Z</time></trkpt><trkpt lat="44.242658681138415" lon="11.075217979656076"><ele>236.33333333333331</ele><time>2026-05-02T08:14:53Z</time></trkpt><trkpt lat="44.24262912938813" lon="11.074987327312364"><ele>237.0</ele><time>2026-05-02T08:14:54Z</time></trkpt><trkpt lat="44.24256598021462" lon="11.074787032161677"><ele>235.33333333333331</ele><time>2026-05-02T08:14:55Z</time></trkpt><trkpt lat="44.24245124421244" lon="11.074612705024462"><ele>233.66666666666666</ele><time>2026-05-02T08:14:56Z</time></trkpt><trkpt lat="44.2423264386301" lon="11.074451125447595"><ele>232.0</ele><time>2026-05-02T08:14:57Z</time></trkpt><trkpt lat="44.24219472796854" lon="11.074284373927036"><ele>232.0</ele><time>2026-05-02T08:14:58Z</time></trkpt><trkpt lat="44.24206531800243" lon="11.074124189144076"><ele>232.0</ele><time>2026-05-02T08:14:59Z</time></trkpt><trkpt lat="44.24193342334189" lon="11.073962649166008"><ele>232.0</ele><time>2026-05-02T08:15:00Z</time></trkpt><trkpt lat="44.24180579538007" lon="11.073793642132458"><ele>231.66666666666666</ele><time>2026-05-02T08:15:01Z</time></trkpt><trkpt lat="44.24165254066443" lon="11.073639473822077"><ele>231.33333333333331</ele><time>2026-05-02T08:15:02Z</time></trkpt><trkpt lat="44.24152144345647" lon="11.07348199031988"><ele>231.0</ele><time>2026-05-02T08:15:03Z</time></trkpt><trkpt lat="44.24138421625481" lon="11.073329169426543"><ele>232.0</ele><time>2026-05-02T08:15:04Z</time></trkpt><trkpt lat="44.24122590990078" lon="11.073202188671338"><ele>233.0</ele><time>2026-05-02T08:15:05Z</time></trkpt><trkpt lat="44.24109290270791" lon="11.073047762524062"><ele>234.0</ele><time>2026-05-02T08:15:06Z</time></trkpt><trkpt lat="44.24094682047886" lon="11.072903558775835"><ele>234.0</ele><time>2026-05-02T08:15:07Z</time></trkpt><trkpt lat="44.24082890230024" lon="11.072736563262579"><ele>234.0</ele><time>2026-05-02T08:15:08Z</time></trkpt><trkpt lat="44.240739938018955" lon="11.072542743483526"><ele>234.0</ele><time>2026-05-02T08:15:09Z</time></trkpt><trkpt lat="44.24066803962438" lon="11.072359357377103"><ele>234.5</ele><time>2026-05-02T08:15:10Z</time></trkpt><trkpt lat="44.240597375161116" lon="11.072172214607457"><ele>235.0</ele><time>2026-05-02T08:15:11Z</time></trkpt><trkpt lat="44.2405148981561" lon="11.071989809880991"><ele>235.5</ele><time>2026-05-02T08:15:12Z</time></trkpt><trkpt lat="44.2404219570673" lon="11.071853908930624"><ele>236.0</ele><time>2026-05-02T08:15:13Z</time></trkpt><trkpt lat="44.240301801369725" lon="11.0717230219264"><ele>236.0</ele><time>2026-05-02T08:15:14Z</time></trkpt><trkpt lat="44.24016163037956" lon="11.071628115018347"><ele>236.0</ele><time>2026-05-02T08:15:15Z</time></trkpt><trkpt lat="44.24000275504003" lon="11.071573408225825"><ele>236.0</ele><time>2026-05-02T08:15:16Z</time></trkpt><trkpt lat="44.2398309656953" lon="11.071583051133885"><ele>236.0</ele><time>2026-05-02T08:15:17Z</time></trkpt><trkpt lat="44.2396615665188" lon="11.071625709656953"><ele>236.0</ele><time>2026-05-02T08:15:18Z</time></trkpt><trkpt lat="44.23949854012357" lon="11.071676596001737"><ele>236.0</ele><time>2026-05-02T08:15:19Z</time></trkpt><trkpt lat="44.23933761046286" lon="11.071730526326261"><ele>236.0</ele><time>2026-05-02T08:15:20Z</time></trkpt><trkpt lat="44.23917991129326" lon="11.071779539123641"><ele>236.0</ele><time>2026-05-02T08:15:21Z</time></trkpt><trkpt lat="44.23902859663158" lon="11.07182877851319"><ele>236.0</ele><time>2026-05-02T08:15:22Z</time></trkpt><trkpt lat="44.23888783271254" lon="11.071779328929663"><ele>236.25</ele><time>2026-05-02T08:15:23Z</time></trkpt><trkpt lat="44.2387529697563" lon="11.071689919837578"><ele>236.5</ele><time>2026-05-02T08:15:24Z</time></trkpt><trkpt lat="44.238656404301516" lon="11.07157335467367"><ele>236.75</ele><time>2026-05-02T08:15:25Z</time></trkpt><trkpt lat="44.23856663621464" lon="11.071406213146568"><ele>237.0</ele><time>2026-05-02T08:15:26Z</time></trkpt><trkpt lat="44.23849149742559" lon="11.071225433577428"><ele>238.66666666666669</ele><time>2026-05-02T08:15:27Z</time></trkpt><trkpt lat="44.238416624712016" lon="11.07104827608362"><ele>240.33333333333334</ele><time>2026-05-02T08:15:28Z</time></trkpt><trkpt lat="44.23832929650719" lon="11.070874276461778"><ele>242.0</ele><time>2026-05-02T08:15:29Z</time></trkpt><trkpt lat="44.23826344317018" lon="11.070684476485173"><ele>243.0</ele><time>2026-05-02T08:15:30Z</time></trkpt><trkpt lat="44.23818958991026" lon="11.0705090781757"><ele>244.0</ele><time>2026-05-02T08:15:31Z</time></trkpt><trkpt lat="44.23811229368094" lon="11.070324462363029"><ele>245.0</ele><time>2026-05-02T08:15:32Z</time></trkpt><trkpt lat="44.23803763104798" lon="11.070171398596491"><ele>246.0</ele><time>2026-05-02T08:15:33Z</time></trkpt><trkpt lat="44.237933331215324" lon="11.070087158727125"><ele>247.0</ele><time>2026-05-02T08:15:34Z</time></trkpt><trkpt lat="44.23781590207388" lon="11.07003895235573"><ele>248.0</ele><time>2026-05-02T08:15:35Z</time></trkpt><trkpt lat="44.23768550501281" lon="11.070060632484232"><ele>249.0</ele><time>2026-05-02T08:15:36Z</time></trkpt><trkpt lat="44.237554845223315" lon="11.070126643269528"><ele>250.0</ele><time>2026-05-02T08:15:37Z</time></trkpt><trkpt lat="44.23741607114733" lon="11.070173657829377"><ele>250.75</ele><time>2026-05-02T08:15:38Z</time></trkpt><trkpt lat="44.23727279081869" lon="11.070166952490851"><ele>251.5</ele><time>2026-05-02T08:15:39Z</time></trkpt><trkpt lat="44.23713574130383" lon="11.07008542494954"><ele>252.25</ele><time>2026-05-02T08:15:40Z</time></trkpt><trkpt lat="44.2369903576662" lon="11.070016536305717"><ele>253.0</ele><time>2026-05-02T08:15:41Z</time></trkpt><trkpt lat="44.23684604782389" lon="11.069944341189784"><ele>259.3333333333333</ele><time>2026-05-02T08:15:42Z</time></trkpt><trkpt lat="44.23669770257715" lon="11.069865966704334"><ele>265.6666666666667</ele><time>2026-05-02T08:15:43Z</time></trkpt><trkpt lat="44.23655255091456" lon="11.069789279493275"><ele>272.0</ele><time>2026-05-02T08:15:44Z</time></trkpt><trkpt lat="44.23640760061767" lon="11.06971398497153"><ele>272.0</ele><time>2026-05-02T08:15:45Z</time></trkpt><trkpt lat="44.236249293734865" lon="11.069668282828292"><ele>272.0</ele><time>2026-05-02T08:15:46Z</time></trkpt><trkpt lat="44.23609767064922" lon="11.069651282559652"><ele>272.0</ele><time>2026-05-02T08:15:47Z</time></trkpt><trkpt lat="44.235951219000015" lon="11.069638784740063"><ele>272.0</ele><time>2026-05-02T08:15:48Z</time></trkpt><trkpt lat="44.23581776655701" lon="11.069623477760022"><ele>272.0</ele><time>2026-05-02T08:15:49Z</time></trkpt><trkpt lat="44.23570440334556" lon="11.069607204034575"><ele>272.0</ele><time>2026-05-02T08:15:50Z</time></trkpt><trkpt lat="44.23559342058349" lon="11.069589526613612"><ele>272.0</ele><time>2026-05-02T08:15:51Z</time></trkpt><trkpt lat="44.23550527975614" lon="11.06959296437255"><ele>272.0</ele><time>2026-05-02T08:15:52Z</time></trkpt><trkpt lat="44.2354373645743" lon="11.069557438168253"><ele>271.5</ele><time>2026-05-02T08:15:54Z</time></trkpt><trkpt lat="44.23536567380565" lon="11.069553251752154"><ele>271.0</ele><time>2026-05-02T08:16:21Z</time></trkpt><trkpt lat="44.235302384357404" lon="11.069542241965953"><ele>270.5</ele><time>2026-05-02T08:16:22Z</time></trkpt><trkpt lat="44.235220381878904" lon="11.06952864245846"><ele>270.0</ele><time>2026-05-02T08:16:23Z</time></trkpt><trkpt lat="44.23512874445966" lon="11.069513445068466"><ele>269.5</ele><time>2026-05-02T08:16:24Z</time></trkpt><trkpt lat="44.23501808030315" lon="11.069494861714604"><ele>269.0</ele><time>2026-05-02T08:16:25Z</time></trkpt><trkpt lat="44.23488898454583" lon="11.069522951177056"><ele>267.5</ele><time>2026-05-02T08:16:26Z</time></trkpt><trkpt lat="44.23476924952712" lon="11.0695041765767"><ele>266.0</ele><time>2026-05-02T08:16:27Z</time></trkpt><trkpt lat="44.23464484016226" lon="11.06947616121594"><ele>264.5</ele><time>2026-05-02T08:16:28Z</time></trkpt><trkpt lat="44.23452722306004" lon="11.069438654604193"><ele>263.0</ele><time>2026-05-02T08:16:29Z</time></trkpt><trkpt lat="44.23443048845168" lon="11.069340702735678"><ele>263.0</ele><time>2026-05-02T08:16:30Z</time></trkpt><trkpt lat="44.234321169361436" lon="11.069300592838479"><ele>263.0</ele><time>2026-05-02T08:16:31Z</time></trkpt><trkpt lat="44.234203311326425" lon="11.069255888100981"><ele>263.0</ele><time>2026-05-02T08:16:32Z</time></trkpt><trkpt lat="44.23409345743156" lon="11.069205915230262"><ele>263.0</ele><time>2026-05-02T08:16:33Z</time></trkpt><trkpt lat="44.23399363699658" lon="11.06912571839805"><ele>264.5</ele><time>2026-05-02T08:16:34Z</time></trkpt><trkpt lat="44.23390515200807" lon="11.069007657848113"><ele>266.0</ele><time>2026-05-02T08:16:35Z</time></trkpt><trkpt lat="44.23385812589085" lon="11.068867757860811"><ele>267.5</ele><time>2026-05-02T08:16:36Z</time></trkpt><trkpt lat="44.23385150686581" lon="11.0686970880724"><ele>269.0</ele><time>2026-05-02T08:16:37Z</time></trkpt><trkpt lat="44.233835448663434" lon="11.068520451324448"><ele>269.0</ele><time>2026-05-02T08:16:38Z</time></trkpt><trkpt lat="44.23376928112814" lon="11.068346694474375"><ele>269.0</ele><time>2026-05-02T08:16:39Z</time></trkpt><trkpt lat="44.23365358988705" lon="11.06822297289056"><ele>269.0</ele><time>2026-05-02T08:16:40Z</time></trkpt><trkpt lat="44.233515748007044" lon="11.068160338012113"><ele>269.0</ele><time>2026-05-02T08:16:41Z</time></trkpt><trkpt lat="44.23339074991033" lon="11.068110950397822"><ele>268.0</ele><time>2026-05-02T08:16:42Z</time></trkpt><trkpt lat="44.23328042186383" lon="11.068103765878263"><ele>267.0</ele><time>2026-05-02T08:16:43Z</time></trkpt><trkpt lat="44.23316872339984" lon="11.06810285030671"><ele>266.0</ele><time>2026-05-02T08:16:44Z</time></trkpt><trkpt lat="44.23305214950775" lon="11.068082737580005"><ele>265.0</ele><time>2026-05-02T08:16:45Z</time></trkpt><trkpt lat="44.232937722979024" lon="11.067999132069"><ele>265.0</ele><time>2026-05-02T08:16:46Z</time></trkpt><trkpt lat="44.23284808417408" lon="11.06784792976469"><ele>265.0</ele><time>2026-05-02T08:16:47Z</time></trkpt><trkpt lat="44.23277324656522" lon="11.06766729050321"><ele>265.0</ele><time>2026-05-02T08:16:48Z</time></trkpt><trkpt lat="44.232700645019335" lon="11.06749134766643"><ele>265.0</ele><time>2026-05-02T08:16:49Z</time></trkpt><trkpt lat="44.2326070340138" lon="11.067301535967932"><ele>263.0</ele><time>2026-05-02T08:16:50Z</time></trkpt><trkpt lat="44.23251070620044" lon="11.067114475078101"><ele>261.0</ele><time>2026-05-02T08:16:51Z</time></trkpt><trkpt lat="44.23240251206834" lon="11.066896771457797"><ele>259.0</ele><time>2026-05-02T08:16:52Z</time></trkpt><trkpt lat="44.232292136292685" lon="11.066667717590418"><ele>259.66666666666663</ele><time>2026-05-02T08:16:53Z</time></trkpt><trkpt lat="44.23218645762073" lon="11.066444452370371"><ele>260.3333333333333</ele><time>2026-05-02T08:16:54Z</time></trkpt><trkpt lat="44.23207381582501" lon="11.066209398821734"><ele>261.0</ele><time>2026-05-02T08:16:55Z</time></trkpt><trkpt lat="44.23198221081782" lon="11.065960033156069"><ele>262.6666666666667</ele><time>2026-05-02T08:16:56Z</time></trkpt><trkpt lat="44.231874208005465" lon="11.065709384027453"><ele>264.33333333333337</ele><time>2026-05-02T08:16:57Z</time></trkpt><trkpt lat="44.231711595624915" lon="11.06551084779703"><ele>266.0</ele><time>2026-05-02T08:16:58Z</time></trkpt><trkpt lat="44.23159794430425" lon="11.065246253327148"><ele>266.0</ele><time>2026-05-02T08:16:59Z</time></trkpt><trkpt lat="44.231482058628416" lon="11.064988362188902"><ele>266.0</ele><time>2026-05-02T08:17:00Z</time></trkpt><trkpt lat="44.23137170951529" lon="11.064746803808955"><ele>266.0</ele><time>2026-05-02T08:17:01Z</time></trkpt><trkpt lat="44.231318080811214" lon="11.064468396838672"><ele>265.33333333333337</ele><time>2026-05-02T08:17:02Z</time></trkpt><trkpt lat="44.23119420649001" lon="11.064280780891206"><ele>264.6666666666667</ele><time>2026-05-02T08:17:03Z</time></trkpt><trkpt lat="44.23106977190772" lon="11.064140715328506"><ele>264.0</ele><time>2026-05-02T08:17:04Z</time></trkpt><trkpt lat="44.230950057895704" lon="11.064038918615475"><ele>264.1666666666667</ele><time>2026-05-02T08:17:05Z</time></trkpt><trkpt lat="44.23083338512749" lon="11.063953351055313"><ele>264.3333333333333</ele><time>2026-05-02T08:17:06Z</time></trkpt><trkpt lat="44.23075365535465" lon="11.063901672284018"><ele>264.5</ele><time>2026-05-02T08:17:07Z</time></trkpt><trkpt lat="44.23069611241258" lon="11.063865166762186"><ele>264.66666666666663</ele><time>2026-05-02T08:17:08Z</time></trkpt><trkpt lat="44.23065646262693" lon="11.063935184339108"><ele>264.8333333333333</ele><time>2026-05-02T08:17:46Z</time></trkpt><trkpt lat="44.230595933101995" lon="11.063883600134124"><ele>265.0</ele><time>2026-05-02T08:17:48Z</time></trkpt><trkpt lat="44.23053166415727" lon="11.063848384000536"><ele>265.0</ele><time>2026-05-02T08:17:50Z</time></trkpt><trkpt lat="44.2304585038725" lon="11.06379840072893"><ele>265.0</ele><time>2026-05-02T08:17:53Z</time></trkpt><trkpt lat="44.230382869483954" lon="11.06375437121304"><ele>265.0</ele><time>2026-05-02T08:17:56Z</time></trkpt><trkpt lat="44.23030659345237" lon="11.06370787282478"><ele>265.0</ele><time>2026-05-02T08:17:59Z</time></trkpt><trkpt lat="44.23021728562843" lon="11.063642206511288"><ele>265.0</ele><time>2026-05-02T08:18:02Z</time></trkpt><trkpt lat="44.23015771518601" lon="11.063594577723956"><ele>265.0</ele><time>2026-05-02T08:18:05Z</time></trkpt><trkpt lat="44.2300940845071" lon="11.063476406942184"><ele>265.0</ele><time>2026-05-02T08:18:13Z</time></trkpt><trkpt lat="44.230038133178134" lon="11.063332355880538"><ele>265.0</ele><time>2026-05-02T08:18:15Z</time></trkpt><trkpt lat="44.230011392746654" lon="11.063242080374177"><ele>265.0</ele><time>2026-05-02T08:18:17Z</time></trkpt><trkpt lat="44.22998320593298" lon="11.063148771867844"><ele>265.0</ele><time>2026-05-02T08:18:19Z</time></trkpt><trkpt lat="44.23003391569488" lon="11.063065632511698"><ele>265.0</ele><time>2026-05-02T08:18:20Z</time></trkpt><trkpt lat="44.22999269905957" lon="11.062980720259752"><ele>265.0</ele><time>2026-05-02T08:18:22Z</time></trkpt><trkpt lat="44.22995082293499" lon="11.062908219002678"><ele>267.6</ele><time>2026-05-02T08:18:24Z</time></trkpt><trkpt lat="44.22989612919539" lon="11.062828698221283"><ele>270.2</ele><time>2026-05-02T08:18:26Z</time></trkpt><trkpt lat="44.22982369642412" lon="11.062725772584258"><ele>272.8</ele><time>2026-05-02T08:18:28Z</time></trkpt><trkpt lat="44.22976202307938" lon="11.062613481590796"><ele>275.4</ele><time>2026-05-02T08:18:30Z</time></trkpt><trkpt lat="44.22971021922382" lon="11.062505773124085"><ele>278.0</ele><time>2026-05-02T08:18:32Z</time></trkpt><trkpt lat="44.229660156484385" lon="11.062370035370854"><ele>272.8</ele><time>2026-05-02T08:18:34Z</time></trkpt><trkpt lat="44.229623380599406" lon="11.062259576606927"><ele>267.6</ele><time>2026-05-02T08:18:35Z</time></trkpt><trkpt lat="44.22958509658104" lon="11.062134940194122"><ele>262.4</ele><time>2026-05-02T08:18:36Z</time></trkpt><trkpt lat="44.2295468587762" lon="11.06199851026682"><ele>257.2</ele><time>2026-05-02T08:18:37Z</time></trkpt><trkpt lat="44.22951613322399" lon="11.061863988582365"><ele>252.0</ele><time>2026-05-02T08:18:38Z</time></trkpt><trkpt lat="44.229508246515344" lon="11.0617478076783"><ele>252.0</ele><time>2026-05-02T08:18:39Z</time></trkpt><trkpt lat="44.22953453495267" lon="11.061627831087224"><ele>252.0</ele><time>2026-05-02T08:18:40Z</time></trkpt><trkpt lat="44.2295939883969" lon="11.061520819053092"><ele>252.0</ele><time>2026-05-02T08:18:41Z</time></trkpt><trkpt lat="44.229676847592" lon="11.061411784268142"><ele>252.0</ele><time>2026-05-02T08:18:42Z</time></trkpt><trkpt lat="44.22978406139964" lon="11.061273858912545"><ele>252.0</ele><time>2026-05-02T08:18:43Z</time></trkpt><trkpt lat="44.2298855291798" lon="11.061141073030662"><ele>253.75</ele><time>2026-05-02T08:18:44Z</time></trkpt><trkpt lat="44.22998946099131" lon="11.06097764736148"><ele>255.5</ele><time>2026-05-02T08:18:45Z</time></trkpt><trkpt lat="44.23005939547585" lon="11.060818607397007"><ele>257.25</ele><time>2026-05-02T08:18:46Z</time></trkpt><trkpt lat="44.23009992657238" lon="11.060641623400587"><ele>259.0</ele><time>2026-05-02T08:18:47Z</time></trkpt><trkpt lat="44.230097299642196" lon="11.060446202298905"><ele>259.0</ele><time>2026-05-02T08:18:48Z</time></trkpt><trkpt lat="44.230090013896714" lon="11.060258094295044"><ele>259.0</ele><time>2026-05-02T08:18:49Z</time></trkpt><trkpt lat="44.2300893896216" lon="11.060063094180173"><ele>259.0</ele><time>2026-05-02T08:18:50Z</time></trkpt><trkpt lat="44.230077916732874" lon="11.059860162262828"><ele>259.0</ele><time>2026-05-02T08:18:51Z</time></trkpt><trkpt lat="44.23005796316578" lon="11.059673778179539"><ele>257.75</ele><time>2026-05-02T08:18:52Z</time></trkpt><trkpt lat="44.2300573590731" lon="11.059483354265545"><ele>256.5</ele><time>2026-05-02T08:18:53Z</time></trkpt><trkpt lat="44.2300495191572" lon="11.05929607030583"><ele>255.25</ele><time>2026-05-02T08:18:54Z</time></trkpt><trkpt lat="44.23004935457762" lon="11.059101841626477"><ele>254.0</ele><time>2026-05-02T08:18:55Z</time></trkpt><trkpt lat="44.2300418859634" lon="11.05889753187658"><ele>254.0</ele><time>2026-05-02T08:18:56Z</time></trkpt><trkpt lat="44.23002035001298" lon="11.058687502163938"><ele>254.0</ele><time>2026-05-02T08:18:57Z</time></trkpt><trkpt lat="44.23000114944634" lon="11.058464317554625"><ele>254.0</ele><time>2026-05-02T08:18:58Z</time></trkpt><trkpt lat="44.229980976173216" lon="11.05826215361606"><ele>253.0</ele><time>2026-05-02T08:18:59Z</time></trkpt><trkpt lat="44.23000790538468" lon="11.058062235407526"><ele>252.0</ele><time>2026-05-02T08:19:00Z</time></trkpt><trkpt lat="44.23003150581273" lon="11.057862155371872"><ele>251.0</ele><time>2026-05-02T08:19:01Z</time></trkpt><trkpt lat="44.2300568830219" lon="11.057671128374665"><ele>250.0</ele><time>2026-05-02T08:19:02Z</time></trkpt><trkpt lat="44.2300834283473" lon="11.05748271191332"><ele>249.25</ele><time>2026-05-02T08:19:03Z</time></trkpt><trkpt lat="44.230111549272955" lon="11.057291830526456"><ele>248.5</ele><time>2026-05-02T08:19:04Z</time></trkpt><trkpt lat="44.23013788354643" lon="11.05712251930671"><ele>247.75</ele><time>2026-05-02T08:19:05Z</time></trkpt><trkpt lat="44.230169190525444" lon="11.056956318437686"><ele>247.0</ele><time>2026-05-02T08:19:06Z</time></trkpt><trkpt lat="44.23021998637623" lon="11.05679049661843"><ele>247.0</ele><time>2026-05-02T08:19:07Z</time></trkpt><trkpt lat="44.230282637842386" lon="11.056657224108779"><ele>247.0</ele><time>2026-05-02T08:19:08Z</time></trkpt><trkpt lat="44.230367309761334" lon="11.056528507591707"><ele>247.0</ele><time>2026-05-02T08:19:09Z</time></trkpt><trkpt lat="44.23045027782192" lon="11.056417689197602"><ele>247.0</ele><time>2026-05-02T08:19:10Z</time></trkpt><trkpt lat="44.2305306298745" lon="11.05631316679533"><ele>246.39999999999998</ele><time>2026-05-02T08:19:11Z</time></trkpt><trkpt lat="44.23058905524569" lon="11.056223094231811"><ele>245.79999999999998</ele><time>2026-05-02T08:19:12Z</time></trkpt><trkpt lat="44.23063509420158" lon="11.056128421427902"><ele>245.2</ele><time>2026-05-02T08:19:13Z</time></trkpt><trkpt lat="44.230663910721" lon="11.05604338745623"><ele>244.6</ele><time>2026-05-02T08:19:14Z</time></trkpt><trkpt lat="44.23068138155484" lon="11.055942528123568"><ele>244.0</ele><time>2026-05-02T08:19:16Z</time></trkpt><trkpt lat="44.230488121925525" lon="11.055835272072342"><ele>244.0</ele><time>2026-05-02T08:19:17Z</time></trkpt><trkpt lat="44.23039695869229" lon="11.055839911456157"><ele>243.99999999999997</ele><time>2026-05-02T08:19:18Z</time></trkpt><trkpt lat="44.23030661674142" lon="11.055850327638332"><ele>243.99999999999997</ele><time>2026-05-02T08:19:19Z</time></trkpt><trkpt lat="44.230210230230945" lon="11.055836824924802"><ele>244.0</ele><time>2026-05-02T08:19:20Z</time></trkpt><trkpt lat="44.230106933077536" lon="11.055816927618388"><ele>244.0</ele><time>2026-05-02T08:19:21Z</time></trkpt><trkpt lat="44.23001222614384" lon="11.055797293088832"><ele>247.66666666666666</ele><time>2026-05-02T08:19:22Z</time></trkpt><trkpt lat="44.229771868746994" lon="11.05573344459792"><ele>251.33333333333331</ele><time>2026-05-02T08:19:23Z</time></trkpt><trkpt lat="44.22964946036726" lon="11.055708988360903"><ele>255.0</ele><time>2026-05-02T08:19:24Z</time></trkpt><trkpt lat="44.22954974649571" lon="11.055688371578565"><ele>255.0</ele><time>2026-05-02T08:19:25Z</time></trkpt><trkpt lat="44.22948017165233" lon="11.055673435884072"><ele>255.0</ele><time>2026-05-02T08:19:26Z</time></trkpt><trkpt lat="44.229359300474776" lon="11.055658160841821"><ele>255.0</ele><time>2026-05-02T08:19:28Z</time></trkpt><trkpt lat="44.22929257024285" lon="11.05562900772636"><ele>255.0</ele><time>2026-05-02T08:19:30Z</time></trkpt><trkpt lat="44.22939220248497" lon="11.05577401275934"><ele>255.0</ele><time>2026-05-02T08:21:13Z</time></trkpt><trkpt lat="44.22953813378791" lon="11.0557790058134"><ele>255.0</ele><time>2026-05-02T08:21:14Z</time></trkpt><trkpt lat="44.229721767773334" lon="11.055818969566504"><ele>255.0</ele><time>2026-05-02T08:21:15Z</time></trkpt><trkpt lat="44.229913350818585" lon="11.055863125357565"><ele>255.0</ele><time>2026-05-02T08:21:16Z</time></trkpt><trkpt lat="44.23007019824358" lon="11.055891753726742"><ele>252.8</ele><time>2026-05-02T08:21:17Z</time></trkpt><trkpt lat="44.230202729162954" lon="11.05591530875992"><ele>250.6</ele><time>2026-05-02T08:21:18Z</time></trkpt><trkpt lat="44.23030321405153" lon="11.055933247134528"><ele>248.39999999999998</ele><time>2026-05-02T08:21:19Z</time></trkpt><trkpt lat="44.23037973953198" lon="11.055948040429259"><ele>246.2</ele><time>2026-05-02T08:21:20Z</time></trkpt><trkpt lat="44.23046425459879" lon="11.055964691814488"><ele>244.0</ele><time>2026-05-02T08:21:22Z</time></trkpt><trkpt lat="44.230524972550846" lon="11.055939301202732"><ele>244.0</ele><time>2026-05-02T08:21:24Z</time></trkpt><trkpt lat="44.23057450690814" lon="11.05599766761836"><ele>244.0</ele><time>2026-05-02T08:21:29Z</time></trkpt><trkpt lat="44.23062263297064" lon="11.056159284201357"><ele>244.0</ele><time>2026-05-02T08:21:36Z</time></trkpt><trkpt lat="44.23048954510518" lon="11.05630973660707"><ele>244.0</ele><time>2026-05-02T08:21:37Z</time></trkpt><trkpt lat="44.2303846489007" lon="11.056440185375767"><ele>245.0</ele><time>2026-05-02T08:21:38Z</time></trkpt><trkpt lat="44.23025558895707" lon="11.056629368323552"><ele>246.0</ele><time>2026-05-02T08:21:39Z</time></trkpt><trkpt lat="44.23017421849389" lon="11.056852941084271"><ele>247.0</ele><time>2026-05-02T08:21:40Z</time></trkpt><trkpt lat="44.23009838104962" lon="11.05706246170986"><ele>247.0</ele><time>2026-05-02T08:21:41Z</time></trkpt><trkpt lat="44.230039505109154" lon="11.057286320396651"><ele>247.0</ele><time>2026-05-02T08:21:42Z</time></trkpt><trkpt lat="44.230011405138676" lon="11.057508996105001"><ele>247.0</ele><time>2026-05-02T08:21:43Z</time></trkpt><trkpt lat="44.22998904188033" lon="11.057735960492339"><ele>248.0</ele><time>2026-05-02T08:21:44Z</time></trkpt><trkpt lat="44.22997490025994" lon="11.05796966366417"><ele>249.0</ele><time>2026-05-02T08:21:45Z</time></trkpt><trkpt lat="44.22995202845392" lon="11.058277448084226"><ele>250.0</ele><time>2026-05-02T08:21:46Z</time></trkpt><trkpt lat="44.22995908197845" lon="11.058541905134435"><ele>250.8</ele><time>2026-05-02T08:21:47Z</time></trkpt><trkpt lat="44.22996377609715" lon="11.058792512667187"><ele>251.6</ele><time>2026-05-02T08:21:48Z</time></trkpt><trkpt lat="44.2299749083263" lon="11.058917439078622"><ele>252.39999999999998</ele><time>2026-05-02T08:21:49Z</time></trkpt><trkpt lat="44.22998112294405" lon="11.059053253180844"><ele>253.2</ele><time>2026-05-02T08:21:50Z</time></trkpt><trkpt lat="44.22999803471318" lon="11.059141227756283"><ele>254.0</ele><time>2026-05-02T08:21:51Z</time></trkpt><trkpt lat="44.23012596253266" lon="11.05905089759133"><ele>254.0</ele><time>2026-05-02T08:21:54Z</time></trkpt><trkpt lat="44.23017422069333" lon="11.05897275968619"><ele>254.0</ele><time>2026-05-02T08:21:55Z</time></trkpt><trkpt lat="44.23017373925457" lon="11.058757772675364"><ele>254.0</ele><time>2026-05-02T08:21:56Z</time></trkpt><trkpt lat="44.23019030987758" lon="11.058602281118578"><ele>254.0</ele><time>2026-05-02T08:21:57Z</time></trkpt><trkpt lat="44.23021897698129" lon="11.058428300366359"><ele>252.66666666666669</ele><time>2026-05-02T08:21:58Z</time></trkpt><trkpt lat="44.230257223779375" lon="11.058243687005016"><ele>251.33333333333331</ele><time>2026-05-02T08:21:59Z</time></trkpt><trkpt lat="44.23030834891723" lon="11.058021984681638"><ele>250.0</ele><time>2026-05-02T08:22:00Z</time></trkpt><trkpt lat="44.23036497059186" lon="11.057790051970137"><ele>250.0</ele><time>2026-05-02T08:22:01Z</time></trkpt><trkpt lat="44.23042683728919" lon="11.057553163141437"><ele>250.0</ele><time>2026-05-02T08:22:02Z</time></trkpt><trkpt lat="44.230477984476295" lon="11.057362785374073"><ele>250.0</ele><time>2026-05-02T08:22:03Z</time></trkpt><trkpt lat="44.23052721484686" lon="11.057185474023733"><ele>249.4</ele><time>2026-05-02T08:22:04Z</time></trkpt><trkpt lat="44.23057996259012" lon="11.05705335653749"><ele>248.8</ele><time>2026-05-02T08:22:05Z</time></trkpt><trkpt lat="44.230645793177054" lon="11.056956954729927"><ele>248.2</ele><time>2026-05-02T08:22:06Z</time></trkpt><trkpt lat="44.23070662934893" lon="11.056814508368511"><ele>247.6</ele><time>2026-05-02T08:22:07Z</time></trkpt><trkpt lat="44.2307933823769" lon="11.0567635429777"><ele>247.0</ele><time>2026-05-02T08:22:08Z</time></trkpt><trkpt lat="44.230910146530654" lon="11.056742147519635"><ele>249.49999999999997</ele><time>2026-05-02T08:22:09Z</time></trkpt><trkpt lat="44.23099076021131" lon="11.056752351649946"><ele>252.0</ele><time>2026-05-02T08:22:10Z</time></trkpt><trkpt lat="44.23103027621009" lon="11.056890745328074"><ele>254.5</ele><time>2026-05-02T08:22:12Z</time></trkpt><trkpt lat="44.231013253822965" lon="11.056986880521768"><ele>257.0</ele><time>2026-05-02T08:22:13Z</time></trkpt><trkpt lat="44.23096997457942" lon="11.05707846703476"><ele>259.5</ele><time>2026-05-02T08:22:14Z</time></trkpt><trkpt lat="44.23092610508912" lon="11.057182796633434"><ele>262.0</ele><time>2026-05-02T08:22:15Z</time></trkpt><trkpt lat="44.23088904001434" lon="11.057328233160336"><ele>265.0</ele><time>2026-05-02T08:22:16Z</time></trkpt><trkpt lat="44.23088223264239" lon="11.057483125979322"><ele>268.0</ele><time>2026-05-02T08:22:17Z</time></trkpt><trkpt lat="44.230898598425306" lon="11.057659276457576"><ele>271.0</ele><time>2026-05-02T08:22:18Z</time></trkpt><trkpt lat="44.23092918659993" lon="11.057860421554741"><ele>274.0</ele><time>2026-05-02T08:22:19Z</time></trkpt><trkpt lat="44.23094626795665" lon="11.058064015105671"><ele>274.0</ele><time>2026-05-02T08:22:20Z</time></trkpt><trkpt lat="44.23096200967848" lon="11.058268702822708"><ele>274.0</ele><time>2026-05-02T08:22:21Z</time></trkpt><trkpt lat="44.2309695784402" lon="11.058483149572362"><ele>274.0</ele><time>2026-05-02T08:22:22Z</time></trkpt><trkpt lat="44.2309545379474" lon="11.05871375474467"><ele>275.25</ele><time>2026-05-02T08:22:23Z</time></trkpt><trkpt lat="44.23094555887948" lon="11.058912571360768"><ele>276.5</ele><time>2026-05-02T08:22:24Z</time></trkpt><trkpt lat="44.23091543577275" lon="11.059136310538738"><ele>277.75</ele><time>2026-05-02T08:22:25Z</time></trkpt><trkpt lat="44.23087324124087" lon="11.059312106868534"><ele>279.0</ele><time>2026-05-02T08:22:26Z</time></trkpt><trkpt lat="44.23082476383287" lon="11.059493766715516"><ele>279.75</ele><time>2026-05-02T08:22:27Z</time></trkpt><trkpt lat="44.23076049266681" lon="11.059657453572333"><ele>280.5</ele><time>2026-05-02T08:22:28Z</time></trkpt><trkpt lat="44.230728216112354" lon="11.05982837251966"><ele>281.25</ele><time>2026-05-02T08:22:29Z</time></trkpt><trkpt lat="44.23070352227376" lon="11.059985687743168"><ele>282.0</ele><time>2026-05-02T08:22:30Z</time></trkpt><trkpt lat="44.23065395969589" lon="11.060197358149775"><ele>279.0</ele><time>2026-05-02T08:22:31Z</time></trkpt><trkpt lat="44.23059574476074" lon="11.060400742869456"><ele>276.0</ele><time>2026-05-02T08:22:32Z</time></trkpt><trkpt lat="44.230501154188964" lon="11.06054762922165"><ele>273.0</ele><time>2026-05-02T08:22:33Z</time></trkpt><trkpt lat="44.23040994843384" lon="11.06070257724126"><ele>270.0</ele><time>2026-05-02T08:22:34Z</time></trkpt><trkpt lat="44.23031400962498" lon="11.06084650745103"><ele>270.0</ele><time>2026-05-02T08:22:35Z</time></trkpt><trkpt lat="44.23022171392016" lon="11.060974378083975"><ele>270.0</ele><time>2026-05-02T08:22:36Z</time></trkpt><trkpt lat="44.23014702531516" lon="11.06108765290712"><ele>270.0</ele><time>2026-05-02T08:22:37Z</time></trkpt><trkpt lat="44.230094291932595" lon="11.061225379912718"><ele>270.0</ele><time>2026-05-02T08:22:38Z</time></trkpt><trkpt lat="44.23005017950503" lon="11.061357621720044"><ele>270.0</ele><time>2026-05-02T08:22:39Z</time></trkpt><trkpt lat="44.230017375603715" lon="11.06151073156604"><ele>270.0</ele><time>2026-05-02T08:22:40Z</time></trkpt><trkpt lat="44.229997477984675" lon="11.061656567316861"><ele>270.0</ele><time>2026-05-02T08:22:41Z</time></trkpt><trkpt lat="44.230005608883616" lon="11.061810980232622"><ele>270.0</ele><time>2026-05-02T08:22:42Z</time></trkpt><trkpt lat="44.23002309602654" lon="11.061982082056595"><ele>271.6</ele><time>2026-05-02T08:22:43Z</time></trkpt><trkpt lat="44.23004542079563" lon="11.062143867370018"><ele>273.2</ele><time>2026-05-02T08:22:44Z</time></trkpt><trkpt lat="44.230070587485194" lon="11.062297038359729"><ele>274.8</ele><time>2026-05-02T08:22:45Z</time></trkpt><trkpt lat="44.23010654735521" lon="11.062436397822205"><ele>276.4</ele><time>2026-05-02T08:22:46Z</time></trkpt><trkpt lat="44.230152989089184" lon="11.062558877290046"><ele>278.0</ele><time>2026-05-02T08:22:47Z</time></trkpt><trkpt lat="44.230208945707766" lon="11.062674229956292"><ele>278.0</ele><time>2026-05-02T08:22:48Z</time></trkpt><trkpt lat="44.230255409557806" lon="11.062775534730932"><ele>278.0</ele><time>2026-05-02T08:22:49Z</time></trkpt><trkpt lat="44.23033435504424" lon="11.062853735861394"><ele>278.0</ele><time>2026-05-02T08:22:50Z</time></trkpt><trkpt lat="44.23041640608953" lon="11.062913615172812"><ele>278.0</ele><time>2026-05-02T08:22:51Z</time></trkpt><trkpt lat="44.23055654933472" lon="11.063000381283933"><ele>278.0</ele><time>2026-05-02T08:22:52Z</time></trkpt><trkpt lat="44.23066016742081" lon="11.06309197490007"><ele>278.0</ele><time>2026-05-02T08:22:53Z</time></trkpt><trkpt lat="44.23077235486024" lon="11.063202993735299"><ele>278.0</ele><time>2026-05-02T08:22:54Z</time></trkpt><trkpt lat="44.230888595447546" lon="11.063286315523172"><ele>278.0</ele><time>2026-05-02T08:22:55Z</time></trkpt><trkpt lat="44.23099047747118" lon="11.063313232262384"><ele>278.0</ele><time>2026-05-02T08:22:56Z</time></trkpt><trkpt lat="44.23109428698002" lon="11.063273095566908"><ele>282.75</ele><time>2026-05-02T08:22:57Z</time></trkpt><trkpt lat="44.23118109586397" lon="11.06320658041353"><ele>287.5</ele><time>2026-05-02T08:22:58Z</time></trkpt><trkpt lat="44.23127556586051" lon="11.063148140311615"><ele>292.25</ele><time>2026-05-02T08:22:59Z</time></trkpt><trkpt lat="44.23139894383282" lon="11.063076835265614"><ele>297.0</ele><time>2026-05-02T08:23:00Z</time></trkpt><trkpt lat="44.2315161543453" lon="11.063020452415403"><ele>297.3333333333333</ele><time>2026-05-02T08:23:01Z</time></trkpt><trkpt lat="44.23164777149943" lon="11.062981566451827"><ele>297.66666666666663</ele><time>2026-05-02T08:23:03Z</time></trkpt><trkpt lat="44.231854565852" lon="11.063018338063799"><ele>298.0</ele><time>2026-05-02T08:23:04Z</time></trkpt><trkpt lat="44.231981757245514" lon="11.06307056754818"><ele>298.0</ele><time>2026-05-02T08:23:05Z</time></trkpt><trkpt lat="44.23213507469009" lon="11.063115596984092"><ele>298.0</ele><time>2026-05-02T08:23:06Z</time></trkpt><trkpt lat="44.23228158406179" lon="11.063170660715112"><ele>298.0</ele><time>2026-05-02T08:23:07Z</time></trkpt><trkpt lat="44.23242535505203" lon="11.06323004835525"><ele>295.5</ele><time>2026-05-02T08:23:08Z</time></trkpt><trkpt lat="44.232566940850525" lon="11.063308893800464"><ele>293.0</ele><time>2026-05-02T08:23:09Z</time></trkpt><trkpt lat="44.23270478663577" lon="11.063389853441775"><ele>290.5</ele><time>2026-05-02T08:23:10Z</time></trkpt><trkpt lat="44.23284001060687" lon="11.063457712786166"><ele>288.0</ele><time>2026-05-02T08:23:11Z</time></trkpt><trkpt lat="44.232975195053314" lon="11.06351297027652"><ele>288.0</ele><time>2026-05-02T08:23:12Z</time></trkpt><trkpt lat="44.233096726696004" lon="11.063566744663309"><ele>288.0</ele><time>2026-05-02T08:23:13Z</time></trkpt><trkpt lat="44.233196134965816" lon="11.063608840610817"><ele>288.0</ele><time>2026-05-02T08:23:14Z</time></trkpt><trkpt lat="44.233291447566515" lon="11.063648055743284"><ele>288.0</ele><time>2026-05-02T08:23:15Z</time></trkpt><trkpt lat="44.233376084491816" lon="11.06373973943194"><ele>288.0</ele><time>2026-05-02T08:23:16Z</time></trkpt><trkpt lat="44.23344387203255" lon="11.06385047557364"><ele>290.2</ele><time>2026-05-02T08:23:17Z</time></trkpt><trkpt lat="44.23341830567449" lon="11.063998928169314"><ele>292.4</ele><time>2026-05-02T08:23:18Z</time></trkpt><trkpt lat="44.23348771636645" lon="11.064181971540302"><ele>294.59999999999997</ele><time>2026-05-02T08:23:20Z</time></trkpt><trkpt lat="44.233569159087786" lon="11.064229376664159"><ele>296.8</ele><time>2026-05-02T08:23:21Z</time></trkpt><trkpt lat="44.23366270087209" lon="11.06428432998494"><ele>299.0</ele><time>2026-05-02T08:23:22Z</time></trkpt><trkpt lat="44.23369390506986" lon="11.064365770705187"><ele>299.0</ele><time>2026-05-02T08:23:23Z</time></trkpt><trkpt lat="44.23375663692798" lon="11.064484992713576"><ele>299.0</ele><time>2026-05-02T08:23:24Z</time></trkpt><trkpt lat="44.23381952343846" lon="11.064612519246788"><ele>299.0</ele><time>2026-05-02T08:23:25Z</time></trkpt><trkpt lat="44.233894330970735" lon="11.064766446871523"><ele>299.0</ele><time>2026-05-02T08:23:26Z</time></trkpt><trkpt lat="44.23397084213869" lon="11.064897373522275"><ele>301.5</ele><time>2026-05-02T08:23:27Z</time></trkpt><trkpt lat="44.23403506879698" lon="11.065003832516092"><ele>304.0</ele><time>2026-05-02T08:23:28Z</time></trkpt><trkpt lat="44.23408677019313" lon="11.065084939558007"><ele>306.5</ele><time>2026-05-02T08:23:29Z</time></trkpt><trkpt lat="44.23416268641321" lon="11.065102102895278"><ele>309.0</ele><time>2026-05-02T08:23:31Z</time></trkpt><trkpt lat="44.23422736710699" lon="11.065050269274725"><ele>311.5</ele><time>2026-05-02T08:23:32Z</time></trkpt><trkpt lat="44.234271686234116" lon="11.064936876742996"><ele>314.0</ele><time>2026-05-02T08:23:33Z</time></trkpt><trkpt lat="44.234244298549314" lon="11.064770964382374"><ele>315.25</ele><time>2026-05-02T08:23:34Z</time></trkpt><trkpt lat="44.23415408299248" lon="11.064640654562288"><ele>316.5</ele><time>2026-05-02T08:23:35Z</time></trkpt><trkpt lat="44.23411268307722" lon="11.06450090940007"><ele>317.75</ele><time>2026-05-02T08:23:36Z</time></trkpt><trkpt lat="44.23416353879225" lon="11.06439767209342"><ele>319.0</ele><time>2026-05-02T08:23:38Z</time></trkpt><trkpt lat="44.2342469218315" lon="11.064226141836103"><ele>319.0</ele><time>2026-05-02T08:23:40Z</time></trkpt><trkpt lat="44.234226548313984" lon="11.06407885748494"><ele>319.0</ele><time>2026-05-02T08:23:41Z</time></trkpt><trkpt lat="44.23425403074277" lon="11.063929813721586"><ele>319.0</ele><time>2026-05-02T08:23:43Z</time></trkpt><trkpt lat="44.23435630131028" lon="11.06394485347562"><ele>319.0</ele><time>2026-05-02T08:23:45Z</time></trkpt><trkpt lat="44.23436982797519" lon="11.064099633930441"><ele>319.0</ele><time>2026-05-02T08:23:46Z</time></trkpt><trkpt lat="44.234373368715005" lon="11.064266507454752"><ele>319.0</ele><time>2026-05-02T08:23:47Z</time></trkpt><trkpt lat="44.234433007168484" lon="11.06443947964084"><ele>319.0</ele><time>2026-05-02T08:23:48Z</time></trkpt><trkpt lat="44.234493130055014" lon="11.06459153019414"><ele>319.0</ele><time>2026-05-02T08:23:49Z</time></trkpt><trkpt lat="44.2345518502325" lon="11.064707098122309"><ele>319.0</ele><time>2026-05-02T08:23:50Z</time></trkpt><trkpt lat="44.23463921910519" lon="11.064798930701707"><ele>319.0</ele><time>2026-05-02T08:23:51Z</time></trkpt><trkpt lat="44.234753744098896" lon="11.064855554161422"><ele>319.0</ele><time>2026-05-02T08:23:52Z</time></trkpt><trkpt lat="44.23482988791938" lon="11.064888436971229"><ele>319.0</ele><time>2026-05-02T08:23:53Z</time></trkpt><trkpt lat="44.23487996032342" lon="11.064952478018734"><ele>319.0</ele><time>2026-05-02T08:23:54Z</time></trkpt><trkpt lat="44.23494270394267" lon="11.065265296449839"><ele>322.79999999999995</ele><time>2026-05-02T08:23:56Z</time></trkpt><trkpt lat="44.234979898149646" lon="11.065419049112533"><ele>326.59999999999997</ele><time>2026-05-02T08:23:57Z</time></trkpt><trkpt lat="44.23499285356243" lon="11.065574826705042"><ele>330.4</ele><time>2026-05-02T08:23:58Z</time></trkpt><trkpt lat="44.23499105471502" lon="11.065726178851843"><ele>334.2</ele><time>2026-05-02T08:23:59Z</time></trkpt><trkpt lat="44.23498272009404" lon="11.065862359747525"><ele>338.0</ele><time>2026-05-02T08:24:00Z</time></trkpt><trkpt lat="44.23499265325076" lon="11.065983681886275"><ele>338.0</ele><time>2026-05-02T08:24:01Z</time></trkpt><trkpt lat="44.23504642606932" lon="11.066075859019602"><ele>338.0</ele><time>2026-05-02T08:24:02Z</time></trkpt><trkpt lat="44.235108523311084" lon="11.066144473119744"><ele>338.0</ele><time>2026-05-02T08:24:03Z</time></trkpt><trkpt lat="44.235186422096824" lon="11.066196249743385"><ele>338.0</ele><time>2026-05-02T08:24:04Z</time></trkpt><trkpt lat="44.235282356604536" lon="11.066231088530603"><ele>338.0</ele><time>2026-05-02T08:24:05Z</time></trkpt><trkpt lat="44.23538738766545" lon="11.066236212155156"><ele>338.0</ele><time>2026-05-02T08:24:06Z</time></trkpt><trkpt lat="44.23550824859444" lon="11.066233862707705"><ele>338.0</ele><time>2026-05-02T08:24:07Z</time></trkpt><trkpt lat="44.23563523359279" lon="11.066198735680155"><ele>338.0</ele><time>2026-05-02T08:24:08Z</time></trkpt><trkpt lat="44.23579800149102" lon="11.066194522035099"><ele>338.0</ele><time>2026-05-02T08:24:09Z</time></trkpt><trkpt lat="44.2359583809242" lon="11.066219646545873"><ele>343.0</ele><time>2026-05-02T08:24:10Z</time></trkpt><trkpt lat="44.236102801922044" lon="11.066237449404142"><ele>348.0</ele><time>2026-05-02T08:24:11Z</time></trkpt><trkpt lat="44.23622185324329" lon="11.066211618244681"><ele>353.0</ele><time>2026-05-02T08:24:12Z</time></trkpt><trkpt lat="44.23632310153524" lon="11.066150305812123"><ele>358.0</ele><time>2026-05-02T08:24:13Z</time></trkpt><trkpt lat="44.23645285227733" lon="11.066073689158898"><ele>359.75</ele><time>2026-05-02T08:24:14Z</time></trkpt><trkpt lat="44.23658260439527" lon="11.066033102357864"><ele>361.5</ele><time>2026-05-02T08:24:15Z</time></trkpt><trkpt lat="44.23672231675861" lon="11.065995849271832"><ele>363.25</ele><time>2026-05-02T08:24:16Z</time></trkpt><trkpt lat="44.23684206848637" lon="11.065966006395572"><ele>365.0</ele><time>2026-05-02T08:24:17Z</time></trkpt><trkpt lat="44.23695654589419" lon="11.065962146591932"><ele>365.0</ele><time>2026-05-02T08:24:18Z</time></trkpt><trkpt lat="44.2370711476679" lon="11.065966038745154"><ele>365.0</ele><time>2026-05-02T08:24:19Z</time></trkpt><trkpt lat="44.23720415890656" lon="11.06599171898982"><ele>365.0</ele><time>2026-05-02T08:24:20Z</time></trkpt><trkpt lat="44.23734349636005" lon="11.06602998156802"><ele>365.0</ele><time>2026-05-02T08:24:21Z</time></trkpt><trkpt lat="44.237464917041535" lon="11.066088906627144"><ele>367.5</ele><time>2026-05-02T08:24:22Z</time></trkpt><trkpt lat="44.23758353321606" lon="11.0661819364826"><ele>370.0</ele><time>2026-05-02T08:24:23Z</time></trkpt><trkpt lat="44.23768897506104" lon="11.066265824181205"><ele>372.5</ele><time>2026-05-02T08:24:24Z</time></trkpt><trkpt lat="44.23780007115595" lon="11.06631269902241"><ele>375.0</ele><time>2026-05-02T08:24:25Z</time></trkpt><trkpt lat="44.23788880227524" lon="11.066357064734449"><ele>375.0</ele><time>2026-05-02T08:24:26Z</time></trkpt><trkpt lat="44.237954664413486" lon="11.066380499444346"><ele>375.0</ele><time>2026-05-02T08:24:27Z</time></trkpt><trkpt lat="44.238025647262916" lon="11.066406242597475"><ele>375.0</ele><time>2026-05-02T08:24:28Z</time></trkpt><trkpt lat="44.23811130177247" lon="11.066391162181056"><ele>375.0</ele><time>2026-05-02T08:24:29Z</time></trkpt><trkpt lat="44.238185922784496" lon="11.066384054233565"><ele>375.0</ele><time>2026-05-02T08:24:30Z</time></trkpt><trkpt lat="44.2382663790806" lon="11.066323479983655"><ele>375.0</ele><time>2026-05-02T08:24:32Z</time></trkpt><trkpt lat="44.238407092297145" lon="11.066272660998314"><ele>374.4</ele><time>2026-05-02T08:24:34Z</time></trkpt><trkpt lat="44.23844737770585" lon="11.066186923276893"><ele>373.8</ele><time>2026-05-02T08:24:35Z</time></trkpt><trkpt lat="44.23852529794932" lon="11.066110999026622"><ele>373.20000000000005</ele><time>2026-05-02T08:24:36Z</time></trkpt><trkpt lat="44.238647048067094" lon="11.066021763435575"><ele>372.6</ele><time>2026-05-02T08:24:37Z</time></trkpt><trkpt lat="44.23873334496695" lon="11.065955898934492"><ele>372.0</ele><time>2026-05-02T08:24:38Z</time></trkpt><trkpt lat="44.238810077667246" lon="11.065945988622012"><ele>372.0</ele><time>2026-05-02T08:24:39Z</time></trkpt><trkpt lat="44.238926637007566" lon="11.066005072092906"><ele>372.0</ele><time>2026-05-02T08:24:41Z</time></trkpt><trkpt lat="44.23901302285635" lon="11.065998550924368"><ele>372.0</ele><time>2026-05-02T08:24:42Z</time></trkpt><trkpt lat="44.23913325232636" lon="11.065982730203835"><ele>372.0</ele><time>2026-05-02T08:24:44Z</time></trkpt><trkpt lat="44.23918248596204" lon="11.0660489874264"><ele>372.0</ele><time>2026-05-02T08:24:45Z</time></trkpt><trkpt lat="44.23928195128668" lon="11.066155120511429"><ele>369.25</ele><time>2026-05-02T08:24:47Z</time></trkpt><trkpt lat="44.23938626375533" lon="11.066087322210395"><ele>366.5</ele><time>2026-05-02T08:24:49Z</time></trkpt><trkpt lat="44.23942995972603" lon="11.06597261706001"><ele>363.75</ele><time>2026-05-02T08:24:50Z</time></trkpt><trkpt lat="44.23954079079062" lon="11.065932237462691"><ele>361.0</ele><time>2026-05-02T08:24:51Z</time></trkpt><trkpt lat="44.23968432633841" lon="11.065885707902016"><ele>361.0</ele><time>2026-05-02T08:24:52Z</time></trkpt><trkpt lat="44.239822917069986" lon="11.06595266265941"><ele>361.0</ele><time>2026-05-02T08:24:53Z</time></trkpt><trkpt lat="44.23992465712594" lon="11.065970441896406"><ele>361.0</ele><time>2026-05-02T08:24:54Z</time></trkpt><trkpt lat="44.23998760507008" lon="11.065917170104523"><ele>361.0</ele><time>2026-05-02T08:24:56Z</time></trkpt><trkpt lat="44.240043693969255" lon="11.065828991215454"><ele>361.0</ele><time>2026-05-02T08:24:57Z</time></trkpt><trkpt lat="44.2400498574135" lon="11.065684070185194"><ele>361.0</ele><time>2026-05-02T08:24:58Z</time></trkpt><trkpt lat="44.240047008009704" lon="11.065591856177948"><ele>361.0</ele><time>2026-05-02T08:24:59Z</time></trkpt><trkpt lat="44.240046301990276" lon="11.065432989637914"><ele>361.0</ele><time>2026-05-02T08:25:01Z</time></trkpt><trkpt lat="44.24016505233863" lon="11.065365532951049"><ele>361.0</ele><time>2026-05-02T08:25:03Z</time></trkpt><trkpt lat="44.24027330691548" lon="11.065372814373546"><ele>361.0</ele><time>2026-05-02T08:25:04Z</time></trkpt><trkpt lat="44.24041280946248" lon="11.065397943130828"><ele>361.0</ele><time>2026-05-02T08:25:05Z</time></trkpt><trkpt lat="44.240545556894816" lon="11.065395103521086"><ele>361.0</ele><time>2026-05-02T08:25:06Z</time></trkpt><trkpt lat="44.24070825980242" lon="11.065402656664283"><ele>361.0</ele><time>2026-05-02T08:25:07Z</time></trkpt><trkpt lat="44.24084869150861" lon="11.06539078463145"><ele>361.0</ele><time>2026-05-02T08:25:08Z</time></trkpt><trkpt lat="44.24096127358862" lon="11.065349829787731"><ele>359.5</ele><time>2026-05-02T08:25:09Z</time></trkpt><trkpt lat="44.241078032270195" lon="11.065307565171137"><ele>358.0</ele><time>2026-05-02T08:25:10Z</time></trkpt><trkpt lat="44.24119853239458" lon="11.065288693752978"><ele>356.5</ele><time>2026-05-02T08:25:11Z</time></trkpt><trkpt lat="44.241324203218404" lon="11.065268727159456"><ele>355.0</ele><time>2026-05-02T08:25:12Z</time></trkpt><trkpt lat="44.24146786388501" lon="11.065251008170224"><ele>355.0</ele><time>2026-05-02T08:25:13Z</time></trkpt><trkpt lat="44.24160915494299" lon="11.065229608426915"><ele>355.0</ele><time>2026-05-02T08:25:14Z</time></trkpt><trkpt lat="44.24174287875798" lon="11.065201652704511"><ele>355.0</ele><time>2026-05-02T08:25:15Z</time></trkpt><trkpt lat="44.241867019490115" lon="11.065219421085805"><ele>355.0</ele><time>2026-05-02T08:25:16Z</time></trkpt><trkpt lat="44.24198285699948" lon="11.065200882587973"><ele>355.0</ele><time>2026-05-02T08:25:17Z</time></trkpt><trkpt lat="44.2420935673325" lon="11.06518830248231"><ele>355.0</ele><time>2026-05-02T08:25:18Z</time></trkpt><trkpt lat="44.242192497156935" lon="11.065150350260792"><ele>355.0</ele><time>2026-05-02T08:25:19Z</time></trkpt><trkpt lat="44.24228630376741" lon="11.065089705288944"><ele>355.0</ele><time>2026-05-02T08:25:20Z</time></trkpt><trkpt lat="44.24233068279296" lon="11.065014379687577"><ele>355.0</ele><time>2026-05-02T08:25:22Z</time></trkpt><trkpt lat="44.24239416327896" lon="11.064889738487627"><ele>359.25</ele><time>2026-05-02T08:25:23Z</time></trkpt><trkpt lat="44.242483563230856" lon="11.06464533426672"><ele>363.5</ele><time>2026-05-02T08:25:24Z</time></trkpt><trkpt lat="44.24252316067472" lon="11.064497459242425"><ele>367.75</ele><time>2026-05-02T08:25:25Z</time></trkpt><trkpt lat="44.24256524186003" lon="11.06440805588307"><ele>372.0</ele><time>2026-05-02T08:25:26Z</time></trkpt><trkpt lat="44.24267965024204" lon="11.064395581759847"><ele>372.0</ele><time>2026-05-02T08:25:28Z</time></trkpt><trkpt lat="44.24275694182227" lon="11.064412220719394"><ele>372.0</ele><time>2026-05-02T08:25:29Z</time></trkpt><trkpt lat="44.24284458695868" lon="11.064493306272553"><ele>372.0</ele><time>2026-05-02T08:25:30Z</time></trkpt><trkpt lat="44.24292589367429" lon="11.064571500938584"><ele>372.0</ele><time>2026-05-02T08:25:31Z</time></trkpt><trkpt lat="44.243027967591765" lon="11.064661925297166"><ele>372.0</ele><time>2026-05-02T08:25:32Z</time></trkpt><trkpt lat="44.24316369789723" lon="11.064777587050237"><ele>374.75</ele><time>2026-05-02T08:25:33Z</time></trkpt><trkpt lat="44.24327980886604" lon="11.064877455803066"><ele>377.5</ele><time>2026-05-02T08:25:34Z</time></trkpt><trkpt lat="44.24338813778115" lon="11.064970208725546"><ele>380.25</ele><time>2026-05-02T08:25:35Z</time></trkpt><trkpt lat="44.24349376594467" lon="11.065087726128688"><ele>383.0</ele><time>2026-05-02T08:25:36Z</time></trkpt><trkpt lat="44.243628598898994" lon="11.065184549009386"><ele>383.0</ele><time>2026-05-02T08:25:37Z</time></trkpt><trkpt lat="44.24377112608764" lon="11.06530718329256"><ele>383.0</ele><time>2026-05-02T08:25:38Z</time></trkpt><trkpt lat="44.24389164085719" lon="11.065414695667489"><ele>383.0</ele><time>2026-05-02T08:25:39Z</time></trkpt><trkpt lat="44.244028969978395" lon="11.065514996947545"><ele>383.75</ele><time>2026-05-02T08:25:40Z</time></trkpt><trkpt lat="44.2441722355887" lon="11.065601744047175"><ele>384.5</ele><time>2026-05-02T08:25:41Z</time></trkpt><trkpt lat="44.244319679654765" lon="11.065650158157093"><ele>385.25</ele><time>2026-05-02T08:25:42Z</time></trkpt><trkpt lat="44.24442363938047" lon="11.065697660607354"><ele>386.0</ele><time>2026-05-02T08:25:43Z</time></trkpt><trkpt lat="44.24439726340999" lon="11.0658584572152"><ele>386.0</ele><time>2026-05-02T08:25:45Z</time></trkpt><trkpt lat="44.244483512257425" lon="11.066052072543885"><ele>386.0</ele><time>2026-05-02T08:25:47Z</time></trkpt><trkpt lat="44.24455846273912" lon="11.066172770894028"><ele>386.0</ele><time>2026-05-02T08:25:48Z</time></trkpt><trkpt lat="44.24466190064995" lon="11.066295466547244"><ele>386.0</ele><time>2026-05-02T08:25:49Z</time></trkpt><trkpt lat="44.24474676686567" lon="11.066383376005385"><ele>389.0</ele><time>2026-05-02T08:25:50Z</time></trkpt><trkpt lat="44.244829994168185" lon="11.066397305845063"><ele>392.0</ele><time>2026-05-02T08:25:51Z</time></trkpt><trkpt lat="44.244958105287765" lon="11.06645624105759"><ele>395.0</ele><time>2026-05-02T08:25:52Z</time></trkpt><trkpt lat="44.24511823193691" lon="11.066508766679602"><ele>398.0</ele><time>2026-05-02T08:25:53Z</time></trkpt><trkpt lat="44.24523416297789" lon="11.066542405831227"><ele>398.0</ele><time>2026-05-02T08:25:54Z</time></trkpt><trkpt lat="44.24534766759522" lon="11.066546669641172"><ele>398.0</ele><time>2026-05-02T08:25:55Z</time></trkpt><trkpt lat="44.24546456299249" lon="11.066512832008025"><ele>398.0</ele><time>2026-05-02T08:25:56Z</time></trkpt><trkpt lat="44.2455662051039" lon="11.066520453294599"><ele>398.0</ele><time>2026-05-02T08:25:57Z</time></trkpt><trkpt lat="44.24562703801404" lon="11.066488972447646"><ele>398.0</ele><time>2026-05-02T08:25:58Z</time></trkpt><trkpt lat="44.24581755963681" lon="11.066472988594066"><ele>401.4</ele><time>2026-05-02T08:26:00Z</time></trkpt><trkpt lat="44.24593278470996" lon="11.066454472841775"><ele>404.79999999999995</ele><time>2026-05-02T08:26:01Z</time></trkpt><trkpt lat="44.246033507372324" lon="11.066412974763924"><ele>408.2</ele><time>2026-05-02T08:26:02Z</time></trkpt><trkpt lat="44.24606544387788" lon="11.066315142531568"><ele>411.6</ele><time>2026-05-02T08:26:03Z</time></trkpt><trkpt lat="44.24606760157387" lon="11.066217307721962"><ele>415.0</ele><time>2026-05-02T08:26:04Z</time></trkpt><trkpt lat="44.24607525386316" lon="11.066089128782064"><ele>415.0</ele><time>2026-05-02T08:26:05Z</time></trkpt><trkpt lat="44.246117590993656" lon="11.06598020563629"><ele>415.0</ele><time>2026-05-02T08:26:06Z</time></trkpt><trkpt lat="44.24617333200319" lon="11.065897242725919"><ele>415.0</ele><time>2026-05-02T08:26:07Z</time></trkpt><trkpt lat="44.24626215146875" lon="11.065857493395582"><ele>415.0</ele><time>2026-05-02T08:26:08Z</time></trkpt><trkpt lat="44.24632447451651" lon="11.065799737562456"><ele>415.0</ele><time>2026-05-02T08:26:09Z</time></trkpt><trkpt lat="44.24627727003178" lon="11.065612981349439"><ele>420.25</ele><time>2026-05-02T08:26:13Z</time></trkpt><trkpt lat="44.2461854150182" lon="11.065515237984979"><ele>425.5</ele><time>2026-05-02T08:26:14Z</time></trkpt><trkpt lat="44.24609867576008" lon="11.065432913718912"><ele>430.75</ele><time>2026-05-02T08:26:15Z</time></trkpt><trkpt lat="44.24600759032814" lon="11.065333674965883"><ele>436.0</ele><time>2026-05-02T08:26:16Z</time></trkpt><trkpt lat="44.24592414036054" lon="11.06515133547168"><ele>436.0</ele><time>2026-05-02T08:26:17Z</time></trkpt><trkpt lat="44.24583862292137" lon="11.0649890038381"><ele>436.0</ele><time>2026-05-02T08:26:18Z</time></trkpt><trkpt lat="44.245721665103545" lon="11.064871916854743"><ele>436.0</ele><time>2026-05-02T08:26:19Z</time></trkpt><trkpt lat="44.24558112198736" lon="11.06478292832916"><ele>436.0</ele><time>2026-05-02T08:26:20Z</time></trkpt><trkpt lat="44.24545429920568" lon="11.064668967429775"><ele>436.6666666666667</ele><time>2026-05-02T08:26:21Z</time></trkpt><trkpt lat="44.245317584819894" lon="11.064538685289298"><ele>437.33333333333337</ele><time>2026-05-02T08:26:22Z</time></trkpt><trkpt lat="44.24519407493094" lon="11.064417747510332"><ele>438.0</ele><time>2026-05-02T08:26:23Z</time></trkpt><trkpt lat="44.245091851633546" lon="11.064297370688038"><ele>438.0</ele><time>2026-05-02T08:26:24Z</time></trkpt><trkpt lat="44.245008293255495" lon="11.064147919217163"><ele>438.0</ele><time>2026-05-02T08:26:25Z</time></trkpt><trkpt lat="44.24493387677434" lon="11.063990053130862"><ele>438.0</ele><time>2026-05-02T08:26:26Z</time></trkpt><trkpt lat="44.24485270789091" lon="11.063824291063296"><ele>438.0</ele><time>2026-05-02T08:26:27Z</time></trkpt><trkpt lat="44.24475691379672" lon="11.06364969437168"><ele>438.0</ele><time>2026-05-02T08:26:28Z</time></trkpt><trkpt lat="44.244649637580586" lon="11.063494693117764"><ele>438.0</ele><time>2026-05-02T08:26:29Z</time></trkpt><trkpt lat="44.244575814412656" lon="11.06330797749666"><ele>438.0</ele><time>2026-05-02T08:26:30Z</time></trkpt><trkpt lat="44.24452962577697" lon="11.063098508505256"><ele>438.0</ele><time>2026-05-02T08:26:31Z</time></trkpt><trkpt lat="44.244476630719625" lon="11.062912501319706"><ele>438.0</ele><time>2026-05-02T08:26:32Z</time></trkpt><trkpt lat="44.2443980595709" lon="11.06272076065015"><ele>438.0</ele><time>2026-05-02T08:26:33Z</time></trkpt><trkpt lat="44.244259432548" lon="11.062590175867262"><ele>438.0</ele><time>2026-05-02T08:26:34Z</time></trkpt><trkpt lat="44.24413491766077" lon="11.062546084668718"><ele>437.99999999999994</ele><time>2026-05-02T08:26:35Z</time></trkpt><trkpt lat="44.2440549645956" lon="11.062478429899057"><ele>437.99999999999994</ele><time>2026-05-02T08:26:36Z</time></trkpt><trkpt lat="44.243999286732006" lon="11.062403255693033"><ele>438.0</ele><time>2026-05-02T08:26:37Z</time></trkpt><trkpt lat="44.24397655176745" lon="11.06226974232455"><ele>438.0</ele><time>2026-05-02T08:26:38Z</time></trkpt><trkpt lat="44.24400228720503" lon="11.062182726649244"><ele>439.0</ele><time>2026-05-02T08:26:39Z</time></trkpt><trkpt lat="44.244029231527605" lon="11.062031501085885"><ele>440.0</ele><time>2026-05-02T08:26:40Z</time></trkpt><trkpt lat="44.24405154067984" lon="11.061840950996718"><ele>441.0</ele><time>2026-05-02T08:26:41Z</time></trkpt><trkpt lat="44.24403892355036" lon="11.061617227533285"><ele>442.0</ele><time>2026-05-02T08:26:42Z</time></trkpt><trkpt lat="44.24401647847404" lon="11.061437925798119"><ele>439.8</ele><time>2026-05-02T08:26:43Z</time></trkpt><trkpt lat="44.24397290431394" lon="11.061279584490478"><ele>437.6</ele><time>2026-05-02T08:26:44Z</time></trkpt><trkpt lat="44.243981877037875" lon="11.061136727706423"><ele>435.40000000000003</ele><time>2026-05-02T08:26:45Z</time></trkpt><trkpt lat="44.24404960484804" lon="11.061060763089255"><ele>433.20000000000005</ele><time>2026-05-02T08:26:46Z</time></trkpt><trkpt lat="44.24409681721656" lon="11.060947474811803"><ele>431.0</ele><time>2026-05-02T08:26:47Z</time></trkpt><trkpt lat="44.244188495174846" lon="11.060789968144137"><ele>431.66666666666663</ele><time>2026-05-02T08:26:48Z</time></trkpt><trkpt lat="44.244265260972895" lon="11.060604506382274"><ele>432.33333333333337</ele><time>2026-05-02T08:26:49Z</time></trkpt><trkpt lat="44.244343240274" lon="11.060429819192406"><ele>433.0</ele><time>2026-05-02T08:26:50Z</time></trkpt><trkpt lat="44.24442910030307" lon="11.0602514602046"><ele>433.0</ele><time>2026-05-02T08:26:51Z</time></trkpt><trkpt lat="44.24449779662874" lon="11.06009110705138"><ele>433.0</ele><time>2026-05-02T08:26:52Z</time></trkpt><trkpt lat="44.24456081502741" lon="11.059923252168563"><ele>433.0</ele><time>2026-05-02T08:26:53Z</time></trkpt><trkpt lat="44.24459833696465" lon="11.05976747288372"><ele>433.0</ele><time>2026-05-02T08:26:54Z</time></trkpt><trkpt lat="44.244596011273615" lon="11.059644502057479"><ele>438.0</ele><time>2026-05-02T08:26:55Z</time></trkpt><trkpt lat="44.244503442465835" lon="11.059531826573606"><ele>442.99999999999994</ele><time>2026-05-02T08:26:57Z</time></trkpt><trkpt lat="44.244439716648735" lon="11.05952097504208"><ele>447.99999999999994</ele><time>2026-05-02T08:26:58Z</time></trkpt><trkpt lat="44.24436538860812" lon="11.059524973716995"><ele>453.0</ele><time>2026-05-02T08:26:59Z</time></trkpt><trkpt lat="44.244253605061324" lon="11.059586568830163"><ele>458.0</ele><time>2026-05-02T08:27:00Z</time></trkpt><trkpt lat="44.24415636340079" lon="11.059713864098534"><ele>458.0</ele><time>2026-05-02T08:27:01Z</time></trkpt><trkpt lat="44.2440806702592" lon="11.059783791811785"><ele>458.0</ele><time>2026-05-02T08:27:02Z</time></trkpt><trkpt lat="44.2439566017066" lon="11.059902005904972"><ele>458.0</ele><time>2026-05-02T08:27:03Z</time></trkpt><trkpt lat="44.243859781318264" lon="11.060082223212445"><ele>458.0</ele><time>2026-05-02T08:27:04Z</time></trkpt><trkpt lat="44.24374493996962" lon="11.060176183772743"><ele>454.5</ele><time>2026-05-02T08:27:05Z</time></trkpt><trkpt lat="44.243620525814535" lon="11.060258039948822"><ele>451.0</ele><time>2026-05-02T08:27:06Z</time></trkpt><trkpt lat="44.24349945462316" lon="11.060349206712004"><ele>447.5</ele><time>2026-05-02T08:27:07Z</time></trkpt><trkpt lat="44.243383672954714" lon="11.06048023932542"><ele>444.0</ele><time>2026-05-02T08:27:08Z</time></trkpt><trkpt lat="44.24325869471755" lon="11.060567783832028"><ele>444.0</ele><time>2026-05-02T08:27:09Z</time></trkpt><trkpt lat="44.243145659484796" lon="11.060643612193955"><ele>444.0</ele><time>2026-05-02T08:27:10Z</time></trkpt><trkpt lat="44.24301918364518" lon="11.060650381189982"><ele>444.0</ele><time>2026-05-02T08:27:11Z</time></trkpt><trkpt lat="44.24297073438468" lon="11.060585993817437"><ele>444.0</ele><time>2026-05-02T08:27:12Z</time></trkpt><trkpt lat="44.24286109895799" lon="11.060565436977715"><ele>444.0</ele><time>2026-05-02T08:27:13Z</time></trkpt><trkpt lat="44.24273603613522" lon="11.06061328070887"><ele>442.75</ele><time>2026-05-02T08:27:14Z</time></trkpt><trkpt lat="44.24260715669268" lon="11.060556767197793"><ele>441.5</ele><time>2026-05-02T08:27:15Z</time></trkpt><trkpt lat="44.24246424174406" lon="11.060525001482233"><ele>440.25</ele><time>2026-05-02T08:27:16Z</time></trkpt><trkpt lat="44.242344030627955" lon="11.06044486209931"><ele>439.0</ele><time>2026-05-02T08:27:17Z</time></trkpt><trkpt lat="44.24223610779273" lon="11.060343274674475"><ele>435.0</ele><time>2026-05-02T08:27:18Z</time></trkpt><trkpt lat="44.242124020566784" lon="11.060258198314385"><ele>431.0</ele><time>2026-05-02T08:27:19Z</time></trkpt><trkpt lat="44.242038707479175" lon="11.060195286221544"><ele>427.0</ele><time>2026-05-02T08:27:20Z</time></trkpt><trkpt lat="44.241950192305026" lon="11.060133060436577"><ele>423.0</ele><time>2026-05-02T08:27:21Z</time></trkpt><trkpt lat="44.24187449392497" lon="11.060084519964178"><ele>419.0</ele><time>2026-05-02T08:27:22Z</time></trkpt><trkpt lat="44.24179893643117" lon="11.060042031223169"><ele>418.99999999999994</ele><time>2026-05-02T08:27:23Z</time></trkpt><trkpt lat="44.24173394339906" lon="11.06000948163914"><ele>419.0</ele><time>2026-05-02T08:27:24Z</time></trkpt><trkpt lat="44.24170153856359" lon="11.059883267248862"><ele>419.0</ele><time>2026-05-02T08:27:26Z</time></trkpt><trkpt lat="44.241721860969065" lon="11.059787468817685"><ele>419.0</ele><time>2026-05-02T08:27:27Z</time></trkpt><trkpt lat="44.241744156494114" lon="11.059675522092066"><ele>418.99999999999994</ele><time>2026-05-02T08:27:28Z</time></trkpt><trkpt lat="44.24175573561952" lon="11.059535350873071"><ele>419.0</ele><time>2026-05-02T08:27:29Z</time></trkpt><trkpt lat="44.24175612460891" lon="11.059338284279699"><ele>421.2</ele><time>2026-05-02T08:27:30Z</time></trkpt><trkpt lat="44.24173721654017" lon="11.059175973066766"><ele>423.4</ele><time>2026-05-02T08:27:31Z</time></trkpt><trkpt lat="44.241726124914464" lon="11.059017099434941"><ele>425.6</ele><time>2026-05-02T08:27:32Z</time></trkpt><trkpt lat="44.241712793395095" lon="11.058860144559612"><ele>427.8</ele><time>2026-05-02T08:27:33Z</time></trkpt><trkpt lat="44.241672443283456" lon="11.058729291210234"><ele>430.0</ele><time>2026-05-02T08:27:34Z</time></trkpt><trkpt lat="44.241518166068175" lon="11.058647703445288"><ele>430.0</ele><time>2026-05-02T08:27:36Z</time></trkpt><trkpt lat="44.24141023600891" lon="11.058754008609277"><ele>430.0</ele><time>2026-05-02T08:27:37Z</time></trkpt><trkpt lat="44.241325169251255" lon="11.058773192696274"><ele>430.0</ele><time>2026-05-02T08:27:38Z</time></trkpt><trkpt lat="44.24125729920239" lon="11.058770011670182"><ele>430.0</ele><time>2026-05-02T08:27:39Z</time></trkpt><trkpt lat="44.24115734291296" lon="11.058690007088686"><ele>430.0</ele><time>2026-05-02T08:27:41Z</time></trkpt><trkpt lat="44.241187703141684" lon="11.058486314862098"><ele>430.0</ele><time>2026-05-02T08:27:42Z</time></trkpt><trkpt lat="44.24117646210443" lon="11.05835837620927"><ele>430.0</ele><time>2026-05-02T08:27:43Z</time></trkpt><trkpt lat="44.2411366865559" lon="11.058205227414831"><ele>430.0</ele><time>2026-05-02T08:27:44Z</time></trkpt><trkpt lat="44.24108817168253" lon="11.058026893472721"><ele>430.0</ele><time>2026-05-02T08:27:45Z</time></trkpt><trkpt lat="44.24104930058544" lon="11.057837708575258"><ele>436.33333333333337</ele><time>2026-05-02T08:27:46Z</time></trkpt><trkpt lat="44.241029866786114" lon="11.057639356688737"><ele>442.66666666666663</ele><time>2026-05-02T08:27:47Z</time></trkpt><trkpt lat="44.24100389378578" lon="11.057407847299318"><ele>449.0</ele><time>2026-05-02T08:27:48Z</time></trkpt><trkpt lat="44.24097402440329" lon="11.05721387385683"><ele>449.75</ele><time>2026-05-02T08:27:49Z</time></trkpt><trkpt lat="44.24092915752487" lon="11.057106679039489"><ele>450.5</ele><time>2026-05-02T08:27:50Z</time></trkpt><trkpt lat="44.24082421124626" lon="11.057049815480193"><ele>451.25</ele><time>2026-05-02T08:27:51Z</time></trkpt><trkpt lat="44.2407168607798" lon="11.05695367520935"><ele>452.0</ele><time>2026-05-02T08:27:52Z</time></trkpt><trkpt lat="44.240592541217524" lon="11.056865057226656"><ele>452.0</ele><time>2026-05-02T08:27:53Z</time></trkpt><trkpt lat="44.24048368461388" lon="11.056757584118925"><ele>452.0</ele><time>2026-05-02T08:27:54Z</time></trkpt><trkpt lat="44.24036807501357" lon="11.056641958778853"><ele>452.0</ele><time>2026-05-02T08:27:55Z</time></trkpt><trkpt lat="44.24024803886436" lon="11.056552490243533"><ele>452.0</ele><time>2026-05-02T08:27:56Z</time></trkpt><trkpt lat="44.240118090608114" lon="11.05649277663911"><ele>451.5</ele><time>2026-05-02T08:27:57Z</time></trkpt><trkpt lat="44.239984168752706" lon="11.056466734253657"><ele>451.0</ele><time>2026-05-02T08:27:58Z</time></trkpt><trkpt lat="44.23985627556008" lon="11.05644859036749"><ele>450.5</ele><time>2026-05-02T08:27:59Z</time></trkpt><trkpt lat="44.239729638298286" lon="11.056437826370967"><ele>450.0</ele><time>2026-05-02T08:28:00Z</time></trkpt><trkpt lat="44.239600866093085" lon="11.056413556648392"><ele>450.0</ele><time>2026-05-02T08:28:01Z</time></trkpt><trkpt lat="44.23947005133819" lon="11.056410380426613"><ele>450.0</ele><time>2026-05-02T08:28:02Z</time></trkpt><trkpt lat="44.23934057718708" lon="11.05640700493296"><ele>450.0</ele><time>2026-05-02T08:28:03Z</time></trkpt><trkpt lat="44.23921133257537" lon="11.056385930738521"><ele>450.0</ele><time>2026-05-02T08:28:04Z</time></trkpt><trkpt lat="44.239094108218836" lon="11.05632013486881"><ele>450.0</ele><time>2026-05-02T08:28:05Z</time></trkpt><trkpt lat="44.238970013518475" lon="11.056237978156432"><ele>450.0</ele><time>2026-05-02T08:28:06Z</time></trkpt><trkpt lat="44.238857547918094" lon="11.056177724065462"><ele>450.0</ele><time>2026-05-02T08:28:07Z</time></trkpt><trkpt lat="44.23879665455497" lon="11.05605804390572"><ele>450.0</ele><time>2026-05-02T08:28:08Z</time></trkpt><trkpt lat="44.23872563430668" lon="11.05592853819239"><ele>446.66666666666663</ele><time>2026-05-02T08:28:09Z</time></trkpt><trkpt lat="44.23862727706992" lon="11.055764491040522"><ele>443.3333333333333</ele><time>2026-05-02T08:28:10Z</time></trkpt><trkpt lat="44.2385603275227" lon="11.055571470351973"><ele>440.0</ele><time>2026-05-02T08:28:11Z</time></trkpt><trkpt lat="44.238499971835104" lon="11.055390649030102"><ele>440.0</ele><time>2026-05-02T08:28:12Z</time></trkpt><trkpt lat="44.23844749571768" lon="11.055210516590057"><ele>440.0</ele><time>2026-05-02T08:28:13Z</time></trkpt><trkpt lat="44.238398305744035" lon="11.05503814841113"><ele>440.0</ele><time>2026-05-02T08:28:14Z</time></trkpt><trkpt lat="44.23835496417756" lon="11.054853331534902"><ele>440.0</ele><time>2026-05-02T08:28:15Z</time></trkpt><trkpt lat="44.23830695303474" lon="11.054690737444883"><ele>439.4</ele><time>2026-05-02T08:28:16Z</time></trkpt><trkpt lat="44.23827610515818" lon="11.054586268629583"><ele>438.8</ele><time>2026-05-02T08:28:17Z</time></trkpt><trkpt lat="44.238243725247095" lon="11.054475454199755"><ele>438.20000000000005</ele><time>2026-05-02T08:28:19Z</time></trkpt><trkpt lat="44.23820965479024" lon="11.054358059693826"><ele>437.6</ele><time>2026-05-02T08:28:22Z</time></trkpt><trkpt lat="44.238173567396714" lon="11.054233715542544"><ele>437.0</ele><time>2026-05-02T08:28:24Z</time></trkpt><trkpt lat="44.23813002479645" lon="11.054083683339403"><ele>434.66666666666663</ele><time>2026-05-02T08:28:26Z</time></trkpt><trkpt lat="44.23810298498283" lon="11.053990513813197"><ele>432.3333333333333</ele><time>2026-05-02T08:28:27Z</time></trkpt><trkpt lat="44.23807141426092" lon="11.053881732441324"><ele>430.0</ele><time>2026-05-02T08:28:28Z</time></trkpt><trkpt lat="44.23803065000697" lon="11.053786466931035"><ele>427.66666666666663</ele><time>2026-05-02T08:28:29Z</time></trkpt><trkpt lat="44.23799132764871" lon="11.053670427165212"><ele>425.3333333333333</ele><time>2026-05-02T08:28:30Z</time></trkpt><trkpt lat="44.237969065681796" lon="11.05354216426448"><ele>423.0</ele><time>2026-05-02T08:28:31Z</time></trkpt><trkpt lat="44.23793761792235" lon="11.053437954008878"><ele>423.0</ele><time>2026-05-02T08:28:32Z</time></trkpt><trkpt lat="44.237910103528606" lon="11.053339075477501"><ele>423.0</ele><time>2026-05-02T08:28:33Z</time></trkpt><trkpt lat="44.237872264310745" lon="11.053220459536517"><ele>423.0</ele><time>2026-05-02T08:28:35Z</time></trkpt><trkpt lat="44.23804626637723" lon="11.053203252458623"><ele>423.0</ele><time>2026-05-02T08:28:38Z</time></trkpt><trkpt lat="44.23812587087249" lon="11.05324209939574"><ele>423.0</ele><time>2026-05-02T08:28:39Z</time></trkpt><trkpt lat="44.23823008851213" lon="11.05329920732622"><ele>425.0</ele><time>2026-05-02T08:28:40Z</time></trkpt><trkpt lat="44.238342659387925" lon="11.053321010726874"><ele>427.0</ele><time>2026-05-02T08:28:41Z</time></trkpt><trkpt lat="44.23843568103695" lon="11.053329372548118"><ele>428.99999999999994</ele><time>2026-05-02T08:28:42Z</time></trkpt><trkpt lat="44.23853635445516" lon="11.053332648162034"><ele>431.0</ele><time>2026-05-02T08:28:44Z</time></trkpt><trkpt lat="44.23862731167289" lon="11.053334206436613"><ele>433.0</ele><time>2026-05-02T08:28:46Z</time></trkpt><trkpt lat="44.238732763145286" lon="11.053336459908575"><ele>433.0</ele><time>2026-05-02T08:28:48Z</time></trkpt><trkpt lat="44.23882934370088" lon="11.053351821207954"><ele>433.0</ele><time>2026-05-02T08:28:50Z</time></trkpt><trkpt lat="44.23889353432765" lon="11.053317423625034"><ele>433.0</ele><time>2026-05-02T08:28:52Z</time></trkpt><trkpt lat="44.238961763266275" lon="11.052866623492887"><ele>431.59999999999997</ele><time>2026-05-02T08:28:53Z</time></trkpt><trkpt lat="44.239009165299585" lon="11.052732346385987"><ele>430.19999999999993</ele><time>2026-05-02T08:28:54Z</time></trkpt><trkpt lat="44.23905195471697" lon="11.052606569026011"><ele>428.8</ele><time>2026-05-02T08:28:55Z</time></trkpt><trkpt lat="44.2391018022535" lon="11.05243884641746"><ele>427.4</ele><time>2026-05-02T08:28:56Z</time></trkpt><trkpt lat="44.2391456853386" lon="11.052318488858031"><ele>426.0</ele><time>2026-05-02T08:28:57Z</time></trkpt><trkpt lat="44.239209889962886" lon="11.052255610083282"><ele>426.0</ele><time>2026-05-02T08:28:59Z</time></trkpt><trkpt lat="44.239285238195514" lon="11.0522167409264"><ele>426.0</ele><time>2026-05-02T08:29:01Z</time></trkpt><trkpt lat="44.23935410496835" lon="11.052189266353857"><ele>426.0</ele><time>2026-05-02T08:29:04Z</time></trkpt><trkpt lat="44.239413150099914" lon="11.052228486795286"><ele>426.0</ele><time>2026-05-02T08:29:06Z</time></trkpt><trkpt lat="44.23948655616249" lon="11.052345752427435"><ele>426.0</ele><time>2026-05-02T08:29:08Z</time></trkpt><trkpt lat="44.23953001413651" lon="11.05241024633627"><ele>426.0</ele><time>2026-05-02T08:29:09Z</time></trkpt><trkpt lat="44.23957474921049" lon="11.052475138250868"><ele>430.4</ele><time>2026-05-02T08:29:10Z</time></trkpt><trkpt lat="44.23964516920767" lon="11.05255235381834"><ele>434.8</ele><time>2026-05-02T08:29:12Z</time></trkpt><trkpt lat="44.23973160930688" lon="11.052682543132105"><ele>439.19999999999993</ele><time>2026-05-02T08:29:14Z</time></trkpt><trkpt lat="44.23983050173335" lon="11.052660362496198"><ele>443.59999999999997</ele><time>2026-05-02T08:29:16Z</time></trkpt><trkpt lat="44.23991637630503" lon="11.052660449792175"><ele>448.0</ele><time>2026-05-02T08:29:17Z</time></trkpt><trkpt lat="44.239993340690894" lon="11.05264300271371"><ele>449.2</ele><time>2026-05-02T08:29:18Z</time></trkpt><trkpt lat="44.24006199319285" lon="11.052614424351434"><ele>450.4</ele><time>2026-05-02T08:29:19Z</time></trkpt><trkpt lat="44.240221147679016" lon="11.052617781732549"><ele>451.59999999999997</ele><time>2026-05-02T08:29:21Z</time></trkpt><trkpt lat="44.240297223117395" lon="11.052609389009596"><ele>452.79999999999995</ele><time>2026-05-02T08:29:22Z</time></trkpt><trkpt lat="44.24041348505028" lon="11.05256771044289"><ele>454.0</ele><time>2026-05-02T08:29:24Z</time></trkpt><trkpt lat="44.240466989088965" lon="11.052390455476557"><ele>452.2</ele><time>2026-05-02T08:29:26Z</time></trkpt><trkpt lat="44.24046054156681" lon="11.052275293899827"><ele>450.4</ele><time>2026-05-02T08:29:27Z</time></trkpt><trkpt lat="44.2405093407218" lon="11.052165612251162"><ele>448.6</ele><time>2026-05-02T08:29:29Z</time></trkpt><trkpt lat="44.240620981009485" lon="11.052108059673262"><ele>446.8</ele><time>2026-05-02T08:29:31Z</time></trkpt><trkpt lat="44.24069602998595" lon="11.05207239042731"><ele>445.0</ele><time>2026-05-02T08:29:32Z</time></trkpt><trkpt lat="44.24077735690842" lon="11.052017320171725"><ele>445.0</ele><time>2026-05-02T08:29:33Z</time></trkpt><trkpt lat="44.24082892868527" lon="11.051925002869309"><ele>445.0</ele><time>2026-05-02T08:29:34Z</time></trkpt><trkpt lat="44.2408817951596" lon="11.051838812427478"><ele>445.0</ele><time>2026-05-02T08:29:35Z</time></trkpt><trkpt lat="44.24093926429855" lon="11.05163877143896"><ele>445.0</ele><time>2026-05-02T08:29:36Z</time></trkpt><trkpt lat="44.240972851827735" lon="11.051468074587888"><ele>445.0</ele><time>2026-05-02T08:29:37Z</time></trkpt><trkpt lat="44.24099484082859" lon="11.051385002476383"><ele>442.2</ele><time>2026-05-02T08:29:38Z</time></trkpt><trkpt lat="44.24106193284857" lon="11.051266335754624"><ele>439.4</ele><time>2026-05-02T08:29:39Z</time></trkpt><trkpt lat="44.24108736199204" lon="11.051169255466915"><ele>436.6</ele><time>2026-05-02T08:29:40Z</time></trkpt><trkpt lat="44.24111444741998" lon="11.051058318705007"><ele>433.8</ele><time>2026-05-02T08:29:41Z</time></trkpt><trkpt lat="44.24114475095203" lon="11.05090195000171"><ele>431.0</ele><time>2026-05-02T08:29:42Z</time></trkpt><trkpt lat="44.24117028052527" lon="11.050746175628175"><ele>429.8333333333333</ele><time>2026-05-02T08:29:43Z</time></trkpt><trkpt lat="44.241168456732865" lon="11.050621581099836"><ele>428.66666666666663</ele><time>2026-05-02T08:29:44Z</time></trkpt><trkpt lat="44.24114763686267" lon="11.050528699118994"><ele>427.5</ele><time>2026-05-02T08:29:45Z</time></trkpt><trkpt lat="44.24120929736491" lon="11.05043271372459"><ele>426.33333333333337</ele><time>2026-05-02T08:29:48Z</time></trkpt><trkpt lat="44.24128195433978" lon="11.05050568618409"><ele>425.1666666666667</ele><time>2026-05-02T08:29:51Z</time></trkpt><trkpt lat="44.24129030706143" lon="11.050617106915618"><ele>424.0</ele><time>2026-05-02T08:29:54Z</time></trkpt><trkpt lat="44.24128123382761" lon="11.050734854975541"><ele>425.1666666666667</ele><time>2026-05-02T08:29:56Z</time></trkpt><trkpt lat="44.24127469962358" lon="11.050851348527626"><ele>426.33333333333337</ele><time>2026-05-02T08:29:57Z</time></trkpt><trkpt lat="44.24127418262221" lon="11.050977174177017"><ele>427.5</ele><time>2026-05-02T08:29:58Z</time></trkpt><trkpt lat="44.24125117450932" lon="11.051086735331578"><ele>428.66666666666663</ele><time>2026-05-02T08:29:59Z</time></trkpt><trkpt lat="44.24125461398558" lon="11.05119125774423"><ele>429.8333333333333</ele><time>2026-05-02T08:30:00Z</time></trkpt><trkpt lat="44.2412825923623" lon="11.051345650811982"><ele>431.0</ele><time>2026-05-02T08:30:02Z</time></trkpt><trkpt lat="44.241298681061274" lon="11.051446570734612"><ele>431.0</ele><time>2026-05-02T08:30:03Z</time></trkpt><trkpt lat="44.241316177057364" lon="11.051547476490644"><ele>431.0</ele><time>2026-05-02T08:30:04Z</time></trkpt><trkpt lat="44.241342384706144" lon="11.051644612331591"><ele>431.0</ele><time>2026-05-02T08:30:05Z</time></trkpt><trkpt lat="44.24141380057638" lon="11.051785531114824"><ele>431.0</ele><time>2026-05-02T08:30:07Z</time></trkpt><trkpt lat="44.241466394189224" lon="11.05183765935247"><ele>431.0</ele><time>2026-05-02T08:30:08Z</time></trkpt><trkpt lat="44.24158084892593" lon="11.051919231354528"><ele>436.4</ele><time>2026-05-02T08:30:10Z</time></trkpt><trkpt lat="44.241656343683424" lon="11.051927495329217"><ele>441.8</ele><time>2026-05-02T08:30:11Z</time></trkpt><trkpt lat="44.24179209337552" lon="11.05193345061556"><ele>447.19999999999993</ele><time>2026-05-02T08:30:13Z</time></trkpt><trkpt lat="44.24187578825638" lon="11.051929427523591"><ele>452.59999999999997</ele><time>2026-05-02T08:30:14Z</time></trkpt><trkpt lat="44.2419575312473" lon="11.051934690899472"><ele>458.0</ele><time>2026-05-02T08:30:15Z</time></trkpt><trkpt lat="44.242042303396026" lon="11.051940318073406"><ele>458.0</ele><time>2026-05-02T08:30:16Z</time></trkpt><trkpt lat="44.242128855872345" lon="11.051954915660573"><ele>457.99999999999994</ele><time>2026-05-02T08:30:17Z</time></trkpt><trkpt lat="44.24224327521422" lon="11.051898818119426"><ele>457.99999999999994</ele><time>2026-05-02T08:30:19Z</time></trkpt><trkpt lat="44.24231302718121" lon="11.051833704350976"><ele>458.0</ele><time>2026-05-02T08:30:20Z</time></trkpt><trkpt lat="44.24241027874831" lon="11.05174389546172"><ele>458.0</ele><time>2026-05-02T08:30:21Z</time></trkpt><trkpt lat="44.24251406101078" lon="11.05165246226884"><ele>453.2</ele><time>2026-05-02T08:30:22Z</time></trkpt><trkpt lat="44.242604450285754" lon="11.051589621697431"><ele>448.4</ele><time>2026-05-02T08:30:23Z</time></trkpt><trkpt lat="44.24268527775829" lon="11.051507752970494"><ele>443.59999999999997</ele><time>2026-05-02T08:30:24Z</time></trkpt><trkpt lat="44.24277109600415" lon="11.051392027543312"><ele>438.79999999999995</ele><time>2026-05-02T08:30:25Z</time></trkpt><trkpt lat="44.2428496166252" lon="11.051289402953232"><ele>434.0</ele><time>2026-05-02T08:30:26Z</time></trkpt><trkpt lat="44.24291080290854" lon="11.051230483180477"><ele>434.0</ele><time>2026-05-02T08:30:27Z</time></trkpt><trkpt lat="44.24301517406218" lon="11.051184047114786"><ele>434.0</ele><time>2026-05-02T08:30:28Z</time></trkpt><trkpt lat="44.24310390082048" lon="11.051138537614488"><ele>434.0</ele><time>2026-05-02T08:30:29Z</time></trkpt><trkpt lat="44.24316776504152" lon="11.051111253894078"><ele>434.0</ele><time>2026-05-02T08:30:30Z</time></trkpt><trkpt lat="44.24322117315833" lon="11.05103402276793"><ele>434.0</ele><time>2026-05-02T08:30:32Z</time></trkpt><trkpt lat="44.243293036436555" lon="11.050926291525847"><ele>435.2</ele><time>2026-05-02T08:30:33Z</time></trkpt><trkpt lat="44.24333051650283" lon="11.050835069087901"><ele>436.4</ele><time>2026-05-02T08:30:34Z</time></trkpt><trkpt lat="44.2433671772783" lon="11.050722102451967"><ele>437.6</ele><time>2026-05-02T08:30:35Z</time></trkpt><trkpt lat="44.24339879965526" lon="11.050592390648712"><ele>438.8</ele><time>2026-05-02T08:30:36Z</time></trkpt><trkpt lat="44.24341976628553" lon="11.05047372842911"><ele>440.0</ele><time>2026-05-02T08:30:37Z</time></trkpt><trkpt lat="44.24345382554166" lon="11.050326978637782"><ele>440.0</ele><time>2026-05-02T08:30:38Z</time></trkpt><trkpt lat="44.243479716349135" lon="11.05022348315148"><ele>440.0</ele><time>2026-05-02T08:30:39Z</time></trkpt><trkpt lat="44.24367330277805" lon="11.050132751594878"><ele>440.0</ele><time>2026-05-02T08:30:44Z</time></trkpt><trkpt lat="44.2437570303278" lon="11.050118038329131"><ele>440.0</ele><time>2026-05-02T08:30:45Z</time></trkpt><trkpt lat="44.24383399142764" lon="11.05010938571214"><ele>440.0</ele><time>2026-05-02T08:30:46Z</time></trkpt><trkpt lat="44.24394278318833" lon="11.050112187126967"><ele>443.16666666666663</ele><time>2026-05-02T08:30:48Z</time></trkpt><trkpt lat="44.24402184297058" lon="11.05014899370615"><ele>446.3333333333333</ele><time>2026-05-02T08:30:49Z</time></trkpt><trkpt lat="44.24409482265957" lon="11.050192414570699"><ele>449.5</ele><time>2026-05-02T08:30:50Z</time></trkpt><trkpt lat="44.244169207224616" lon="11.050237719517169"><ele>452.66666666666663</ele><time>2026-05-02T08:30:51Z</time></trkpt><trkpt lat="44.244235401268426" lon="11.050284593594593"><ele>455.8333333333333</ele><time>2026-05-02T08:30:52Z</time></trkpt><trkpt lat="44.244343804744105" lon="11.050310417456032"><ele>459.0</ele><time>2026-05-02T08:30:54Z</time></trkpt><trkpt lat="44.244407573055845" lon="11.050309176308426"><ele>459.0</ele><time>2026-05-02T08:30:55Z</time></trkpt><trkpt lat="44.244507573121034" lon="11.050203909713028"><ele>459.0</ele><time>2026-05-02T08:30:57Z</time></trkpt><trkpt lat="44.244600616713825" lon="11.050148558236467"><ele>459.0</ele><time>2026-05-02T08:30:59Z</time></trkpt><trkpt lat="44.24473639268395" lon="11.050102254129278"><ele>459.0</ele><time>2026-05-02T08:31:01Z</time></trkpt><trkpt lat="44.24481367225297" lon="11.050090681200999"><ele>459.0</ele><time>2026-05-02T08:31:02Z</time></trkpt><trkpt lat="44.24491830745343" lon="11.050115429242316"><ele>460.0</ele><time>2026-05-02T08:31:04Z</time></trkpt><trkpt lat="44.24503302862413" lon="11.050083582902648"><ele>461.0</ele><time>2026-05-02T08:31:06Z</time></trkpt><trkpt lat="44.24510948820687" lon="11.049964633874668"><ele>462.0</ele><time>2026-05-02T08:31:08Z</time></trkpt><trkpt lat="44.245142427240744" lon="11.049874161886768"><ele>463.0</ele><time>2026-05-02T08:31:09Z</time></trkpt><trkpt lat="44.24517543903184" lon="11.049780496136533"><ele>464.0</ele><time>2026-05-02T08:31:10Z</time></trkpt><trkpt lat="44.24520868139626" lon="11.049702314867279"><ele>465.0</ele><time>2026-05-02T08:31:11Z</time></trkpt><trkpt lat="44.245250830739344" lon="11.049626400864387"><ele>462.0</ele><time>2026-05-02T08:31:12Z</time></trkpt><trkpt lat="44.245316466810706" lon="11.04953457019502"><ele>459.0</ele><time>2026-05-02T08:31:14Z</time></trkpt><trkpt lat="44.24526368649756" lon="11.049438200082673"><ele>456.0</ele><time>2026-05-02T08:31:17Z</time></trkpt><trkpt lat="44.245166786083914" lon="11.049398796521523"><ele>453.0</ele><time>2026-05-02T08:31:19Z</time></trkpt><trkpt lat="44.245091771062214" lon="11.04933697394063"><ele>450.0</ele><time>2026-05-02T08:31:21Z</time></trkpt><trkpt lat="44.24506496479254" lon="11.049194808863492"><ele>449.5</ele><time>2026-05-02T08:31:23Z</time></trkpt><trkpt lat="44.245026462148765" lon="11.049078193583522"><ele>449.0</ele><time>2026-05-02T08:31:25Z</time></trkpt><trkpt lat="44.245065795168024" lon="11.048987198445577"><ele>448.5</ele><time>2026-05-02T08:31:27Z</time></trkpt><trkpt lat="44.24509578401347" lon="11.048895120331437"><ele>448.0</ele><time>2026-05-02T08:31:28Z</time></trkpt><trkpt lat="44.245134495556954" lon="11.048799055997133"><ele>447.5</ele><time>2026-05-02T08:31:29Z</time></trkpt><trkpt lat="44.24513482454564" lon="11.048706637840512"><ele>447.0</ele><time>2026-05-02T08:31:30Z</time></trkpt><trkpt lat="44.24511285834548" lon="11.048589211400088"><ele>447.0</ele><time>2026-05-02T08:31:32Z</time></trkpt><trkpt lat="44.24514018521403" lon="11.048471817376607"><ele>447.0</ele><time>2026-05-02T08:31:34Z</time></trkpt><trkpt lat="44.24511942944457" lon="11.048373652822761"><ele>447.0</ele><time>2026-05-02T08:31:36Z</time></trkpt><trkpt lat="44.24513151724241" lon="11.048255839419964"><ele>447.0</ele><time>2026-05-02T08:31:38Z</time></trkpt><trkpt lat="44.2451394015871" lon="11.048155697890417"><ele>447.0</ele><time>2026-05-02T08:31:40Z</time></trkpt><trkpt lat="44.245153124859" lon="11.048031481995219"><ele>447.0</ele><time>2026-05-02T08:31:43Z</time></trkpt><trkpt lat="44.245164411787435" lon="11.047924997371055"><ele>447.0</ele><time>2026-05-02T08:31:45Z</time></trkpt><trkpt lat="44.245156109079545" lon="11.047801548611446"><ele>447.00000000000006</ele><time>2026-05-02T08:31:48Z</time></trkpt><trkpt lat="44.245156608249026" lon="11.047657659619794"><ele>447.00000000000006</ele><time>2026-05-02T08:31:50Z</time></trkpt><trkpt lat="44.24515657243797" lon="11.04756580690028"><ele>447.0</ele><time>2026-05-02T08:31:51Z</time></trkpt><trkpt lat="44.245135732127245" lon="11.04740873029756"><ele>447.0</ele><time>2026-05-02T08:31:53Z</time></trkpt><trkpt lat="44.24522076324823" lon="11.04729166326007"><ele>451.0</ele><time>2026-05-02T08:31:54Z</time></trkpt><trkpt lat="44.24518087363047" lon="11.04710112850561"><ele>455.00000000000006</ele><time>2026-05-02T08:31:56Z</time></trkpt><trkpt lat="44.245157440162195" lon="11.046971989091885"><ele>459.00000000000006</ele><time>2026-05-02T08:31:57Z</time></trkpt><trkpt lat="44.24512252542248" lon="11.046833360232053"><ele>463.0</ele><time>2026-05-02T08:31:58Z</time></trkpt><trkpt lat="44.245073747481555" lon="11.046701359296998"><ele>467.0</ele><time>2026-05-02T08:31:59Z</time></trkpt><trkpt lat="44.24502161077397" lon="11.046578589383286"><ele>464.6</ele><time>2026-05-02T08:32:00Z</time></trkpt><trkpt lat="44.24496990165132" lon="11.046470715275081"><ele>462.20000000000005</ele><time>2026-05-02T08:32:01Z</time></trkpt><trkpt lat="44.24490989358846" lon="11.046371359867644"><ele>459.8</ele><time>2026-05-02T08:32:02Z</time></trkpt><trkpt lat="44.2448447931568" lon="11.046284055503937"><ele>457.4</ele><time>2026-05-02T08:32:03Z</time></trkpt><trkpt lat="44.244804932324804" lon="11.046185349879657"><ele>455.0</ele><time>2026-05-02T08:32:05Z</time></trkpt><trkpt lat="44.24477960396597" lon="11.046033358607549"><ele>455.0</ele><time>2026-05-02T08:32:07Z</time></trkpt><trkpt lat="44.244785247889666" lon="11.045843849691062"><ele>455.0</ele><time>2026-05-02T08:32:09Z</time></trkpt><trkpt lat="44.24477153690883" lon="11.045693140826188"><ele>455.0</ele><time>2026-05-02T08:32:10Z</time></trkpt><trkpt lat="44.244679008341265" lon="11.045556238287762"><ele>455.0</ele><time>2026-05-02T08:32:11Z</time></trkpt><trkpt lat="44.244619312324744" lon="11.045481153907984"><ele>455.8333333333333</ele><time>2026-05-02T08:32:12Z</time></trkpt><trkpt lat="44.24456912684076" lon="11.045406907573671"><ele>456.66666666666663</ele><time>2026-05-02T08:32:13Z</time></trkpt><trkpt lat="44.244547173714714" lon="11.045317783623569"><ele>457.5</ele><time>2026-05-02T08:32:16Z</time></trkpt><trkpt lat="44.244583731798286" lon="11.045191688602994"><ele>458.33333333333337</ele><time>2026-05-02T08:32:18Z</time></trkpt><trkpt lat="44.24464082373301" lon="11.045109096307558"><ele>459.1666666666667</ele><time>2026-05-02T08:32:19Z</time></trkpt><trkpt lat="44.24471275912783" lon="11.04500625444655"><ele>460.0</ele><time>2026-05-02T08:32:20Z</time></trkpt><trkpt lat="44.24477680182513" lon="11.044887273074254"><ele>460.8</ele><time>2026-05-02T08:32:21Z</time></trkpt><trkpt lat="44.24485129946601" lon="11.04480211952087"><ele>461.6</ele><time>2026-05-02T08:32:22Z</time></trkpt><trkpt lat="44.24493310129336" lon="11.044710971449968"><ele>462.4</ele><time>2026-05-02T08:32:23Z</time></trkpt><trkpt lat="44.24501452949037" lon="11.044626973469493"><ele>463.2</ele><time>2026-05-02T08:32:24Z</time></trkpt><trkpt lat="44.2451001070546" lon="11.04455404532758"><ele>464.0</ele><time>2026-05-02T08:32:25Z</time></trkpt><trkpt lat="44.24518421625448" lon="11.044487651313464"><ele>464.0</ele><time>2026-05-02T08:32:26Z</time></trkpt><trkpt lat="44.24525740595359" lon="11.044432373336365"><ele>464.0</ele><time>2026-05-02T08:32:27Z</time></trkpt><trkpt lat="44.24533496759882" lon="11.044390039182854"><ele>464.0</ele><time>2026-05-02T08:32:28Z</time></trkpt><trkpt lat="44.24540940019826" lon="11.044357277412745"><ele>464.0</ele><time>2026-05-02T08:32:29Z</time></trkpt><trkpt lat="44.24551603039609" lon="11.044355113331294"><ele>464.0</ele><time>2026-05-02T08:32:30Z</time></trkpt><trkpt lat="44.24562738185876" lon="11.044365376002181"><ele>465.2</ele><time>2026-05-02T08:32:31Z</time></trkpt><trkpt lat="44.24577165387773" lon="11.044367687430102"><ele>466.4</ele><time>2026-05-02T08:32:32Z</time></trkpt><trkpt lat="44.24586904351161" lon="11.044351664556233"><ele>467.6</ele><time>2026-05-02T08:32:33Z</time></trkpt><trkpt lat="44.245963417005626" lon="11.04431074734236"><ele>468.8</ele><time>2026-05-02T08:32:35Z</time></trkpt><trkpt lat="44.24602256600983" lon="11.044199329580154"><ele>470.0</ele><time>2026-05-02T08:32:37Z</time></trkpt><trkpt lat="44.2459412782142" lon="11.044072253212155"><ele>470.0</ele><time>2026-05-02T08:32:38Z</time></trkpt><trkpt lat="44.24583577380481" lon="11.044029373547808"><ele>470.0</ele><time>2026-05-02T08:32:39Z</time></trkpt><trkpt lat="44.245746749817194" lon="11.043962620246614"><ele>470.0</ele><time>2026-05-02T08:32:40Z</time></trkpt><trkpt lat="44.245677668676194" lon="11.04388938258842"><ele>470.0</ele><time>2026-05-02T08:32:41Z</time></trkpt><trkpt lat="44.24559188863345" lon="11.043783639479319"><ele>470.0</ele><time>2026-05-02T08:32:42Z</time></trkpt><trkpt lat="44.245502497707825" lon="11.043725236918224"><ele>467.16666666666663</ele><time>2026-05-02T08:32:43Z</time></trkpt><trkpt lat="44.245434490865364" lon="11.043696389882397"><ele>464.3333333333333</ele><time>2026-05-02T08:32:44Z</time></trkpt><trkpt lat="44.245349597880846" lon="11.043648999483505"><ele>461.5</ele><time>2026-05-02T08:32:46Z</time></trkpt><trkpt lat="44.24537732342322" lon="11.043494327806007"><ele>458.66666666666663</ele><time>2026-05-02T08:32:49Z</time></trkpt><trkpt lat="44.24543008257622" lon="11.043430898747788"><ele>455.8333333333333</ele><time>2026-05-02T08:32:50Z</time></trkpt><trkpt lat="44.24548953849691" lon="11.043390308959765"><ele>453.0</ele><time>2026-05-02T08:32:51Z</time></trkpt><trkpt lat="44.24557058441378" lon="11.043373648849665"><ele>454.59999999999997</ele><time>2026-05-02T08:32:52Z</time></trkpt><trkpt lat="44.245659541557956" lon="11.043365500750658"><ele>456.19999999999993</ele><time>2026-05-02T08:32:53Z</time></trkpt><trkpt lat="44.24576722851702" lon="11.04335218824605"><ele>457.8</ele><time>2026-05-02T08:32:54Z</time></trkpt><trkpt lat="44.24585123897953" lon="11.043333747074678"><ele>459.4</ele><time>2026-05-02T08:32:55Z</time></trkpt><trkpt lat="44.24593860249947" lon="11.043302163463139"><ele>461.0</ele><time>2026-05-02T08:32:56Z</time></trkpt><trkpt lat="44.24601139020419" lon="11.043262132134833"><ele>460.99999999999994</ele><time>2026-05-02T08:32:57Z</time></trkpt><trkpt lat="44.24609454704783" lon="11.043206055009897"><ele>461.0</ele><time>2026-05-02T08:32:58Z</time></trkpt><trkpt lat="44.24616600154923" lon="11.04313946392933"><ele>461.0</ele><time>2026-05-02T08:32:59Z</time></trkpt><trkpt lat="44.24621874198073" lon="11.043065964080972"><ele>461.0</ele><time>2026-05-02T08:33:00Z</time></trkpt><trkpt lat="44.246269469000524" lon="11.042914765954265"><ele>460.99999999999994</ele><time>2026-05-02T08:33:02Z</time></trkpt><trkpt lat="44.246251064390954" lon="11.042825185822576"><ele>461.0</ele><time>2026-05-02T08:33:03Z</time></trkpt><trkpt lat="44.246335299169644" lon="11.042909608359865"><ele>466.0</ele><time>2026-05-02T08:33:17Z</time></trkpt><trkpt lat="44.24649541789018" lon="11.042852878245021"><ele>471.0</ele><time>2026-05-02T08:33:21Z</time></trkpt><trkpt lat="44.246553528839904" lon="11.04277843562041"><ele>476.0</ele><time>2026-05-02T08:33:22Z</time></trkpt><trkpt lat="44.24663998429015" lon="11.042677128556525"><ele>481.0</ele><time>2026-05-02T08:33:23Z</time></trkpt><trkpt lat="44.24672609949876" lon="11.042579317888089"><ele>481.00000000000006</ele><time>2026-05-02T08:33:24Z</time></trkpt><trkpt lat="44.246790936782745" lon="11.042511362234217"><ele>481.0</ele><time>2026-05-02T08:33:25Z</time></trkpt><trkpt lat="44.24684939836038" lon="11.042445743331418"><ele>481.0</ele><time>2026-05-02T08:33:26Z</time></trkpt><trkpt lat="44.24690738867457" lon="11.042377402501668"><ele>481.0</ele><time>2026-05-02T08:33:27Z</time></trkpt><trkpt lat="44.24697156360329" lon="11.042296522019383"><ele>481.00000000000006</ele><time>2026-05-02T08:33:28Z</time></trkpt><trkpt lat="44.247038524111844" lon="11.042198451932068"><ele>481.0</ele><time>2026-05-02T08:33:29Z</time></trkpt><trkpt lat="44.247125725289" lon="11.042070680342855"><ele>482.6</ele><time>2026-05-02T08:33:30Z</time></trkpt><trkpt lat="44.2472242809039" lon="11.041924224259219"><ele>484.20000000000005</ele><time>2026-05-02T08:33:31Z</time></trkpt><trkpt lat="44.247279289187375" lon="11.041836266423202"><ele>485.79999999999995</ele><time>2026-05-02T08:33:32Z</time></trkpt><trkpt lat="44.24734351769438" lon="11.04172997040085"><ele>487.4</ele><time>2026-05-02T08:33:33Z</time></trkpt><trkpt lat="44.24740586128761" lon="11.041636336067025"><ele>489.0</ele><time>2026-05-02T08:33:34Z</time></trkpt><trkpt lat="44.24746564229583" lon="11.04154905196801"><ele>489.0</ele><time>2026-05-02T08:33:35Z</time></trkpt><trkpt lat="44.24751710948272" lon="11.041488946694106"><ele>489.0</ele><time>2026-05-02T08:33:36Z</time></trkpt><trkpt lat="44.24757576330257" lon="11.041433389240801"><ele>489.0</ele><time>2026-05-02T08:33:37Z</time></trkpt><trkpt lat="44.24765878225824" lon="11.04136857772591"><ele>489.0</ele><time>2026-05-02T08:33:38Z</time></trkpt><trkpt lat="44.247734601021506" lon="11.041329796441547"><ele>489.0</ele><time>2026-05-02T08:33:39Z</time></trkpt><trkpt lat="44.247824321311796" lon="11.041292535650715"><ele>489.0</ele><time>2026-05-02T08:33:40Z</time></trkpt><trkpt lat="44.24787846997177" lon="11.041235405183809"><ele>489.0</ele><time>2026-05-02T08:33:41Z</time></trkpt><trkpt lat="44.247926833948924" lon="11.041159869872956"><ele>489.00000000000006</ele><time>2026-05-02T08:33:42Z</time></trkpt><trkpt lat="44.24796583698737" lon="11.041079972378052"><ele>489.0</ele><time>2026-05-02T08:33:43Z</time></trkpt><trkpt lat="44.24800512517287" lon="11.040993611138415"><ele>489.0</ele><time>2026-05-02T08:33:44Z</time></trkpt><trkpt lat="44.24804896187048" lon="11.0409111974576"><ele>489.00000000000006</ele><time>2026-05-02T08:33:45Z</time></trkpt><trkpt lat="44.24809206103427" lon="11.040816647241476"><ele>489.0</ele><time>2026-05-02T08:33:46Z</time></trkpt><trkpt lat="44.2481418417143" lon="11.040735144645577"><ele>489.0</ele><time>2026-05-02T08:33:47Z</time></trkpt><trkpt lat="44.24820336099109" lon="11.04068829056935"><ele>493.0</ele><time>2026-05-02T08:33:48Z</time></trkpt><trkpt lat="44.248302264969055" lon="11.040608488512326"><ele>497.0</ele><time>2026-05-02T08:33:50Z</time></trkpt><trkpt lat="44.24843597210009" lon="11.04056692799022"><ele>501.0</ele><time>2026-05-02T08:33:52Z</time></trkpt><trkpt lat="44.24852627642591" lon="11.040487749650122"><ele>505.0</ele><time>2026-05-02T08:33:54Z</time></trkpt><trkpt lat="44.248557941482034" lon="11.040365597248071"><ele>505.00000000000006</ele><time>2026-05-02T08:33:56Z</time></trkpt><trkpt lat="44.2485774567248" lon="11.040269790921704"><ele>505.0</ele><time>2026-05-02T08:33:57Z</time></trkpt><trkpt lat="44.24858050457515" lon="11.040170842360354"><ele>505.0</ele><time>2026-05-02T08:33:58Z</time></trkpt><trkpt lat="44.248555043591836" lon="11.040060581423887"><ele>505.0</ele><time>2026-05-02T08:33:59Z</time></trkpt><trkpt lat="44.248503953270784" lon="11.039914158352198"><ele>505.00000000000006</ele><time>2026-05-02T08:34:00Z</time></trkpt><trkpt lat="44.24846880744759" lon="11.039783273591459"><ele>505.0</ele><time>2026-05-02T08:34:01Z</time></trkpt><trkpt lat="44.24843664009249" lon="11.039631936114555"><ele>506.0</ele><time>2026-05-02T08:34:02Z</time></trkpt><trkpt lat="44.248397034614946" lon="11.039469989199374"><ele>507.0</ele><time>2026-05-02T08:34:03Z</time></trkpt><trkpt lat="44.248366962001576" lon="11.039326180785944"><ele>508.0</ele><time>2026-05-02T08:34:04Z</time></trkpt><trkpt lat="44.24833950027726" lon="11.039184331217344"><ele>509.0</ele><time>2026-05-02T08:34:05Z</time></trkpt><trkpt lat="44.248300818521244" lon="11.03904687851102"><ele>510.0</ele><time>2026-05-02T08:34:06Z</time></trkpt><trkpt lat="44.24825954448727" lon="11.038906085305351"><ele>510.8333333333333</ele><time>2026-05-02T08:34:07Z</time></trkpt><trkpt lat="44.24822734392107" lon="11.038798388936256"><ele>511.66666666666663</ele><time>2026-05-02T08:34:08Z</time></trkpt><trkpt lat="44.24820473267013" lon="11.038702161114367"><ele>512.5</ele><time>2026-05-02T08:34:09Z</time></trkpt><trkpt lat="44.24818847776371" lon="11.038612702058632"><ele>513.3333333333333</ele><time>2026-05-02T08:34:10Z</time></trkpt><trkpt lat="44.24817023114465" lon="11.038494629448145"><ele>514.1666666666666</ele><time>2026-05-02T08:34:11Z</time></trkpt><trkpt lat="44.24818671180932" lon="11.038376460742683"><ele>515.0</ele><time>2026-05-02T08:34:12Z</time></trkpt><trkpt lat="44.2481845477642" lon="11.038244390663891"><ele>516.0</ele><time>2026-05-02T08:34:13Z</time></trkpt><trkpt lat="44.2481846340003" lon="11.038094830975114"><ele>517.0</ele><time>2026-05-02T08:34:14Z</time></trkpt><trkpt lat="44.24818508028453" lon="11.037930196673653"><ele>518.0</ele><time>2026-05-02T08:34:15Z</time></trkpt><trkpt lat="44.24818554670717" lon="11.037758133345742"><ele>519.0</ele><time>2026-05-02T08:34:16Z</time></trkpt><trkpt lat="44.248186725771795" lon="11.037575294093068"><ele>520.6</ele><time>2026-05-02T08:34:17Z</time></trkpt><trkpt lat="44.24818778165535" lon="11.037411704954115"><ele>522.2</ele><time>2026-05-02T08:34:18Z</time></trkpt><trkpt lat="44.24817302276102" lon="11.03725721716998"><ele>523.8000000000001</ele><time>2026-05-02T08:34:19Z</time></trkpt><trkpt lat="44.24815654991754" lon="11.037130181500281"><ele>525.4</ele><time>2026-05-02T08:34:20Z</time></trkpt><trkpt lat="44.24814806574105" lon="11.037022582767394"><ele>527.0</ele><time>2026-05-02T08:34:21Z</time></trkpt><trkpt lat="44.24810587802097" lon="11.036917519374617"><ele>524.1666666666666</ele><time>2026-05-02T08:34:22Z</time></trkpt><trkpt lat="44.24806366968849" lon="11.036845333297183"><ele>521.3333333333333</ele><time>2026-05-02T08:34:23Z</time></trkpt><trkpt lat="44.247978359030384" lon="11.03678139395842"><ele>518.5</ele><time>2026-05-02T08:34:25Z</time></trkpt><trkpt lat="44.24793452148103" lon="11.03668983730648"><ele>515.6666666666666</ele><time>2026-05-02T08:34:27Z</time></trkpt><trkpt lat="44.24791303426848" lon="11.036595188992292"><ele>512.8333333333334</ele><time>2026-05-02T08:34:29Z</time></trkpt><trkpt lat="44.247939588056624" lon="11.036511069807444"><ele>510.0</ele><time>2026-05-02T08:34:31Z</time></trkpt><trkpt lat="44.248067509787404" lon="11.036472448601963"><ele>512.6</ele><time>2026-05-02T08:34:33Z</time></trkpt><trkpt lat="44.24816238541377" lon="11.036485145918517"><ele>515.2</ele><time>2026-05-02T08:34:34Z</time></trkpt><trkpt lat="44.24825881017112" lon="11.036543333153448"><ele>517.8</ele><time>2026-05-02T08:34:35Z</time></trkpt><trkpt lat="44.24835458419613" lon="11.036639017246518"><ele>520.4</ele><time>2026-05-02T08:34:36Z</time></trkpt><trkpt lat="44.24845361449212" lon="11.036755724287183"><ele>523.0</ele><time>2026-05-02T08:34:37Z</time></trkpt><trkpt lat="44.24853892875977" lon="11.036860032754369"><ele>523.8</ele><time>2026-05-02T08:34:38Z</time></trkpt><trkpt lat="44.24863878683089" lon="11.036971340748757"><ele>524.5999999999999</ele><time>2026-05-02T08:34:39Z</time></trkpt><trkpt lat="44.24874096526558" lon="11.037052701215012"><ele>525.4000000000001</ele><time>2026-05-02T08:34:40Z</time></trkpt><trkpt lat="44.2488294443545" lon="11.037142589131328"><ele>526.2</ele><time>2026-05-02T08:34:41Z</time></trkpt><trkpt lat="44.24890641608036" lon="11.037170694983734"><ele>527.0</ele><time>2026-05-02T08:34:42Z</time></trkpt><trkpt lat="44.248999146648686" lon="11.037173796352883"><ele>532.75</ele><time>2026-05-02T08:34:43Z</time></trkpt><trkpt lat="44.24910999018486" lon="11.037157565149823"><ele>538.5</ele><time>2026-05-02T08:34:44Z</time></trkpt><trkpt lat="44.24922598276871" lon="11.037162352490315"><ele>544.25</ele><time>2026-05-02T08:34:45Z</time></trkpt><trkpt lat="44.24933618964962" lon="11.03719882470727"><ele>550.0</ele><time>2026-05-02T08:34:46Z</time></trkpt><trkpt lat="44.24944183189148" lon="11.037274957231284"><ele>550.0</ele><time>2026-05-02T08:34:47Z</time></trkpt><trkpt lat="44.249538995443785" lon="11.037391060825364"><ele>550.0</ele><time>2026-05-02T08:34:48Z</time></trkpt><trkpt lat="44.24963061721146" lon="11.037491202977963"><ele>550.0</ele><time>2026-05-02T08:34:49Z</time></trkpt><trkpt lat="44.24973335689418" lon="11.037585363861213"><ele>550.0</ele><time>2026-05-02T08:34:50Z</time></trkpt><trkpt lat="44.24983346745878" lon="11.037693798355237"><ele>554.25</ele><time>2026-05-02T08:34:51Z</time></trkpt><trkpt lat="44.24991015527258" lon="11.037812704829106"><ele>558.5</ele><time>2026-05-02T08:34:52Z</time></trkpt><trkpt lat="44.24998149594518" lon="11.03794705602685"><ele>562.75</ele><time>2026-05-02T08:34:53Z</time></trkpt><trkpt lat="44.25003195607893" lon="11.038116402639972"><ele>567.0</ele><time>2026-05-02T08:34:54Z</time></trkpt><trkpt lat="44.25006058127678" lon="11.038281948718343"><ele>566.6</ele><time>2026-05-02T08:34:55Z</time></trkpt><trkpt lat="44.249987258336766" lon="11.038438809534409"><ele>566.2</ele><time>2026-05-02T08:34:56Z</time></trkpt><trkpt lat="44.24999294004591" lon="11.0385514488239"><ele>565.8</ele><time>2026-05-02T08:34:57Z</time></trkpt><trkpt lat="44.24999609609106" lon="11.038686421529711"><ele>565.4</ele><time>2026-05-02T08:34:58Z</time></trkpt><trkpt lat="44.250042615827844" lon="11.038784376615277"><ele>565.0</ele><time>2026-05-02T08:34:59Z</time></trkpt><trkpt lat="44.25009993853622" lon="11.038902429670959"><ele>565.0</ele><time>2026-05-02T08:35:00Z</time></trkpt><trkpt lat="44.250106825821874" lon="11.039028481956057"><ele>565.0</ele><time>2026-05-02T08:35:01Z</time></trkpt><trkpt lat="44.250063540040486" lon="11.039156581616474"><ele>565.0</ele><time>2026-05-02T08:35:02Z</time></trkpt><trkpt lat="44.250036780128774" lon="11.03927376153746"><ele>565.0</ele><time>2026-05-02T08:35:03Z</time></trkpt><trkpt lat="44.25008368870414" lon="11.039343775226907"><ele>565.0</ele><time>2026-05-02T08:35:04Z</time></trkpt><trkpt lat="44.250149080086764" lon="11.039356590647465"><ele>565.0</ele><time>2026-05-02T08:35:05Z</time></trkpt><trkpt lat="44.25019990122427" lon="11.039293160077946"><ele>565.0</ele><time>2026-05-02T08:35:06Z</time></trkpt><trkpt lat="44.25024496245474" lon="11.039179457864844"><ele>565.0</ele><time>2026-05-02T08:35:08Z</time></trkpt><trkpt lat="44.250287112217286" lon="11.039003775219932"><ele>565.0</ele><time>2026-05-02T08:35:10Z</time></trkpt><trkpt lat="44.25031059081479" lon="11.038911286401458"><ele>565.0</ele><time>2026-05-02T08:35:11Z</time></trkpt><trkpt lat="44.25033712071638" lon="11.038806777640733"><ele>565.0</ele><time>2026-05-02T08:35:12Z</time></trkpt><trkpt lat="44.25036122473932" lon="11.038716892534456"><ele>565.0</ele><time>2026-05-02T08:35:13Z</time></trkpt><trkpt lat="44.25037077167253" lon="11.038624506983165"><ele>565.0</ele><time>2026-05-02T08:35:14Z</time></trkpt><trkpt lat="44.25040707445851" lon="11.038552072268391"><ele>565.0</ele><time>2026-05-02T08:35:15Z</time></trkpt><trkpt lat="44.25046503019656" lon="11.03850261815761"><ele>565.0</ele><time>2026-05-02T08:35:16Z</time></trkpt><trkpt lat="44.25053456497455" lon="11.038446705594852"><ele>565.0</ele><time>2026-05-02T08:35:17Z</time></trkpt><trkpt lat="44.25060032222448" lon="11.038374303310052"><ele>565.0</ele><time>2026-05-02T08:35:18Z</time></trkpt><trkpt lat="44.2506549742547" lon="11.038267195910844"><ele>565.0</ele><time>2026-05-02T08:35:19Z</time></trkpt><trkpt lat="44.25066145819544" lon="11.038148985324781"><ele>574.6</ele><time>2026-05-02T08:35:20Z</time></trkpt><trkpt lat="44.2506444730625" lon="11.03801842598526"><ele>584.2</ele><time>2026-05-02T08:35:21Z</time></trkpt><trkpt lat="44.250627764501566" lon="11.037897336723294"><ele>593.8</ele><time>2026-05-02T08:35:22Z</time></trkpt><trkpt lat="44.250634947055126" lon="11.037766454133248"><ele>603.4</ele><time>2026-05-02T08:35:23Z</time></trkpt><trkpt lat="44.25063634956606" lon="11.037630989503393"><ele>613.0</ele><time>2026-05-02T08:35:24Z</time></trkpt><trkpt lat="44.250638916133525" lon="11.037488277443863"><ele>615.0</ele><time>2026-05-02T08:35:25Z</time></trkpt><trkpt lat="44.25063389936226" lon="11.037389764600485"><ele>617.0</ele><time>2026-05-02T08:35:26Z</time></trkpt><trkpt lat="44.250630506990696" lon="11.037259700543988"><ele>619.0</ele><time>2026-05-02T08:35:27Z</time></trkpt><trkpt lat="44.25062457067265" lon="11.037162028007645"><ele>621.0</ele><time>2026-05-02T08:35:28Z</time></trkpt><trkpt lat="44.25059998683973" lon="11.037035503236659"><ele>623.0</ele><time>2026-05-02T08:35:29Z</time></trkpt><trkpt lat="44.25054970383496" lon="11.03685931214591"><ele>615.8</ele><time>2026-05-02T08:35:30Z</time></trkpt><trkpt lat="44.25051962610491" lon="11.036710156124345"><ele>608.5999999999999</ele><time>2026-05-02T08:35:31Z</time></trkpt><trkpt lat="44.25050487111572" lon="11.036584497625073"><ele>601.4000000000001</ele><time>2026-05-02T08:35:32Z</time></trkpt><trkpt lat="44.25052440511453" lon="11.036445886086687"><ele>594.2</ele><time>2026-05-02T08:35:33Z</time></trkpt><trkpt lat="44.250540366511785" lon="11.036307821222842"><ele>587.0</ele><time>2026-05-02T08:35:34Z</time></trkpt><trkpt lat="44.25058148870975" lon="11.036180584941105"><ele>587.0</ele><time>2026-05-02T08:35:35Z</time></trkpt><trkpt lat="44.250588753388065" lon="11.036057532885215"><ele>587.0</ele><time>2026-05-02T08:35:36Z</time></trkpt><trkpt lat="44.25060562113638" lon="11.03595761326968"><ele>587.0</ele><time>2026-05-02T08:35:37Z</time></trkpt><trkpt lat="44.25067599797907" lon="11.036007314859322"><ele>587.0</ele><time>2026-05-02T08:35:40Z</time></trkpt><trkpt lat="44.2506700620138" lon="11.036111947094932"><ele>587.0</ele><time>2026-05-02T08:35:42Z</time></trkpt><trkpt lat="44.2506560783191" lon="11.03630174170422"><ele>593.8000000000001</ele><time>2026-05-02T08:35:44Z</time></trkpt><trkpt lat="44.25064914887962" lon="11.03642463548045"><ele>600.6</ele><time>2026-05-02T08:35:45Z</time></trkpt><trkpt lat="44.2506639273781" lon="11.036554241961484"><ele>607.4000000000001</ele><time>2026-05-02T08:35:46Z</time></trkpt><trkpt lat="44.25066420622066" lon="11.036693173947317"><ele>614.2</ele><time>2026-05-02T08:35:47Z</time></trkpt><trkpt lat="44.250674490886766" lon="11.03684150073704"><ele>621.0</ele><time>2026-05-02T08:35:48Z</time></trkpt><trkpt lat="44.250698746333676" lon="11.037090917344484"><ele>621.5</ele><time>2026-05-02T08:35:49Z</time></trkpt><trkpt lat="44.25074316977823" lon="11.037274446311221"><ele>622.0</ele><time>2026-05-02T08:35:50Z</time></trkpt><trkpt lat="44.250796995722105" lon="11.037446483169306"><ele>622.5</ele><time>2026-05-02T08:35:51Z</time></trkpt><trkpt lat="44.25085581506738" lon="11.037617768029726"><ele>623.0</ele><time>2026-05-02T08:35:52Z</time></trkpt><trkpt lat="44.250929910067995" lon="11.037762025636003"><ele>620.5</ele><time>2026-05-02T08:35:53Z</time></trkpt><trkpt lat="44.25098833387576" lon="11.037907307736562"><ele>618.0</ele><time>2026-05-02T08:35:54Z</time></trkpt><trkpt lat="44.25106663289769" lon="11.038061671621003"><ele>615.5</ele><time>2026-05-02T08:35:55Z</time></trkpt><trkpt lat="44.25109476781863" lon="11.038224714206597"><ele>613.0</ele><time>2026-05-02T08:35:56Z</time></trkpt><trkpt lat="44.251085060579705" lon="11.03835696692822"><ele>612.1999999999999</ele><time>2026-05-02T08:35:57Z</time></trkpt><trkpt lat="44.25105065408104" lon="11.038447046050639"><ele>611.4</ele><time>2026-05-02T08:35:58Z</time></trkpt><trkpt lat="44.2509870534503" lon="11.038571866649553"><ele>610.5999999999999</ele><time>2026-05-02T08:35:59Z</time></trkpt><trkpt lat="44.25092691443569" lon="11.03869559048179"><ele>609.8</ele><time>2026-05-02T08:36:00Z</time></trkpt><trkpt lat="44.250888354857665" lon="11.038806891773504"><ele>609.0</ele><time>2026-05-02T08:36:01Z</time></trkpt><trkpt lat="44.25087940299595" lon="11.038936418535888"><ele>609.0</ele><time>2026-05-02T08:36:02Z</time></trkpt><trkpt lat="44.25093754605065" lon="11.03906719983171"><ele>609.0</ele><time>2026-05-02T08:36:03Z</time></trkpt><trkpt lat="44.25098831127159" lon="11.03918385906662"><ele>609.0</ele><time>2026-05-02T08:36:04Z</time></trkpt><trkpt lat="44.251019573889934" lon="11.039330271166596"><ele>609.0</ele><time>2026-05-02T08:36:05Z</time></trkpt><trkpt lat="44.251063888487394" lon="11.039472114336558"><ele>609.0</ele><time>2026-05-02T08:36:06Z</time></trkpt><trkpt lat="44.251082435772055" lon="11.039636028383168"><ele>609.6</ele><time>2026-05-02T08:36:07Z</time></trkpt><trkpt lat="44.25107773539844" lon="11.039791150185637"><ele>610.2</ele><time>2026-05-02T08:36:08Z</time></trkpt><trkpt lat="44.251025296408244" lon="11.039928458617549"><ele>610.8000000000001</ele><time>2026-05-02T08:36:09Z</time></trkpt><trkpt lat="44.25099077091949" lon="11.040074472605797"><ele>611.4</ele><time>2026-05-02T08:36:10Z</time></trkpt><trkpt lat="44.250964841515675" lon="11.040226735652853"><ele>612.0</ele><time>2026-05-02T08:36:11Z</time></trkpt><trkpt lat="44.250980215191255" lon="11.04038750371602"><ele>612.0</ele><time>2026-05-02T08:36:12Z</time></trkpt><trkpt lat="44.25096865586116" lon="11.040539178119195"><ele>612.0</ele><time>2026-05-02T08:36:13Z</time></trkpt><trkpt lat="44.250968284674876" lon="11.040691586155168"><ele>612.0</ele><time>2026-05-02T08:36:14Z</time></trkpt><trkpt lat="44.25095792815415" lon="11.04083660141446"><ele>612.0</ele><time>2026-05-02T08:36:15Z</time></trkpt><trkpt lat="44.25088179630203" lon="11.040955312857397"><ele>612.0</ele><time>2026-05-02T08:36:16Z</time></trkpt><trkpt lat="44.25085231742181" lon="11.041097590177241"><ele>614.8000000000001</ele><time>2026-05-02T08:36:17Z</time></trkpt><trkpt lat="44.25082514134138" lon="11.04123205743637"><ele>617.6</ele><time>2026-05-02T08:36:18Z</time></trkpt><trkpt lat="44.2508210308389" lon="11.041393768693107"><ele>620.4000000000001</ele><time>2026-05-02T08:36:19Z</time></trkpt><trkpt lat="44.25083615777562" lon="11.0415484370959"><ele>623.2</ele><time>2026-05-02T08:36:20Z</time></trkpt><trkpt lat="44.25082239055805" lon="11.041697456569574"><ele>626.0</ele><time>2026-05-02T08:36:21Z</time></trkpt><trkpt lat="44.250787175477434" lon="11.04181688471603"><ele>627.1666666666666</ele><time>2026-05-02T08:36:22Z</time></trkpt><trkpt lat="44.25077678299222" lon="11.04191233152239"><ele>628.3333333333333</ele><time>2026-05-02T08:36:23Z</time></trkpt><trkpt lat="44.25079229737296" lon="11.04201949116095"><ele>629.5</ele><time>2026-05-02T08:36:25Z</time></trkpt><trkpt lat="44.250882076106315" lon="11.042038438942665"><ele>630.6666666666666</ele><time>2026-05-02T08:36:27Z</time></trkpt><trkpt lat="44.250933654262965" lon="11.041987011947558"><ele>631.8333333333334</ele><time>2026-05-02T08:36:28Z</time></trkpt><trkpt lat="44.251008982937385" lon="11.041951752677708"><ele>633.0</ele><time>2026-05-02T08:36:30Z</time></trkpt><trkpt lat="44.25110398284355" lon="11.04199284004067"><ele>633.0</ele><time>2026-05-02T08:36:32Z</time></trkpt><trkpt lat="44.25116991719728" lon="11.041892706036368"><ele>633.0</ele><time>2026-05-02T08:36:35Z</time></trkpt><trkpt lat="44.25110680828877" lon="11.04178908887826"><ele>633.0</ele><time>2026-05-02T08:36:36Z</time></trkpt><trkpt lat="44.2510866070248" lon="11.041644642862188"><ele>633.0</ele><time>2026-05-02T08:36:38Z</time></trkpt><trkpt lat="44.25160886030451" lon="11.041758156908914"><ele>635.1666666666666</ele><time>2026-05-02T08:36:41Z</time></trkpt><trkpt lat="44.2516736456953" lon="11.041742525611562"><ele>637.3333333333334</ele><time>2026-05-02T08:36:42Z</time></trkpt><trkpt lat="44.251741528372285" lon="11.041774821678642"><ele>639.5</ele><time>2026-05-02T08:36:43Z</time></trkpt><trkpt lat="44.25180392843231" lon="11.041786579881745"><ele>641.6666666666667</ele><time>2026-05-02T08:36:44Z</time></trkpt><trkpt lat="44.25189093838057" lon="11.041753890393375"><ele>643.8333333333334</ele><time>2026-05-02T08:36:45Z</time></trkpt><trkpt lat="44.25199189261452" lon="11.041729319881041"><ele>646.0</ele><time>2026-05-02T08:36:46Z</time></trkpt><trkpt lat="44.25206841958222" lon="11.041680695583322"><ele>647.8333333333334</ele><time>2026-05-02T08:36:47Z</time></trkpt><trkpt lat="44.25213279161984" lon="11.041594797284052"><ele>649.6666666666667</ele><time>2026-05-02T08:36:48Z</time></trkpt><trkpt lat="44.25217156993011" lon="11.041508450192987"><ele>651.5</ele><time>2026-05-02T08:36:49Z</time></trkpt><trkpt lat="44.25219260384039" lon="11.041415467751536"><ele>653.3333333333334</ele><time>2026-05-02T08:36:50Z</time></trkpt><trkpt lat="44.25220402761518" lon="11.04130492077887"><ele>655.1666666666666</ele><time>2026-05-02T08:36:51Z</time></trkpt><trkpt lat="44.25219309995454" lon="11.041201393052802"><ele>657.0</ele><time>2026-05-02T08:36:52Z</time></trkpt><trkpt lat="44.25218934609406" lon="11.041043383390047"><ele>657.0</ele><time>2026-05-02T08:36:54Z</time></trkpt><trkpt lat="44.25222469444867" lon="11.04095878359313"><ele>657.0</ele><time>2026-05-02T08:36:55Z</time></trkpt><trkpt lat="44.25233271960092" lon="11.04089020852772"><ele>657.0</ele><time>2026-05-02T08:36:57Z</time></trkpt><trkpt lat="44.25241105435331" lon="11.040851679038452"><ele>657.0</ele><time>2026-05-02T08:36:58Z</time></trkpt><trkpt lat="44.25245297148964" lon="11.040771391251454"><ele>657.0</ele><time>2026-05-02T08:36:59Z</time></trkpt><trkpt lat="44.252490470320815" lon="11.040697255141797"><ele>657.0</ele><time>2026-05-02T08:37:00Z</time></trkpt><trkpt lat="44.25255512090974" lon="11.040642652957708"><ele>657.8571428571428</ele><time>2026-05-02T08:37:01Z</time></trkpt><trkpt lat="44.25262145697563" lon="11.040636591413591"><ele>658.7142857142858</ele><time>2026-05-02T08:37:02Z</time></trkpt><trkpt lat="44.252689658333324" lon="11.040597465297681"><ele>659.5714285714286</ele><time>2026-05-02T08:37:03Z</time></trkpt><trkpt lat="44.25276655458145" lon="11.04057169761195"><ele>660.4285714285713</ele><time>2026-05-02T08:37:04Z</time></trkpt><trkpt lat="44.25284695943564" lon="11.040557113033117"><ele>661.2857142857142</ele><time>2026-05-02T08:37:05Z</time></trkpt><trkpt lat="44.25292760245571" lon="11.040548995617208"><ele>662.1428571428571</ele><time>2026-05-02T08:37:06Z</time></trkpt><trkpt lat="44.252994296797944" lon="11.040559309980473"><ele>663.0</ele><time>2026-05-02T08:37:07Z</time></trkpt><trkpt lat="44.25306285500872" lon="11.040559328256945"><ele>656.8</ele><time>2026-05-02T08:37:08Z</time></trkpt><trkpt lat="44.25314164085801" lon="11.040525213721645"><ele>650.5999999999999</ele><time>2026-05-02T08:37:10Z</time></trkpt><trkpt lat="44.25323683484367" lon="11.040473498061933"><ele>644.4000000000001</ele><time>2026-05-02T08:37:12Z</time></trkpt><trkpt lat="44.25337003841164" lon="11.040377854024431"><ele>638.2</ele><time>2026-05-02T08:37:14Z</time></trkpt><trkpt lat="44.253441016392095" lon="11.040335666628696"><ele>632.0</ele><time>2026-05-02T08:37:15Z</time></trkpt><trkpt lat="44.25353552177011" lon="11.04030419887952"><ele>632.0</ele><time>2026-05-02T08:37:17Z</time></trkpt><trkpt lat="44.253571498329215" lon="11.040213416936686"><ele>632.0</ele><time>2026-05-02T08:37:19Z</time></trkpt><trkpt lat="44.253573835252645" lon="11.040097012110413"><ele>632.0</ele><time>2026-05-02T08:37:21Z</time></trkpt><trkpt lat="44.25354355841292" lon="11.039953565163803"><ele>632.0</ele><time>2026-05-02T08:37:23Z</time></trkpt><trkpt lat="44.253519500114976" lon="11.039793536319085"><ele>632.0</ele><time>2026-05-02T08:37:25Z</time></trkpt><trkpt lat="44.25356478368031" lon="11.039676759975983"><ele>633.8</ele><time>2026-05-02T08:37:26Z</time></trkpt><trkpt lat="44.25367638106941" lon="11.039586771749478"><ele>635.6</ele><time>2026-05-02T08:37:28Z</time></trkpt><trkpt lat="44.253767019683075" lon="11.039546976861846"><ele>637.4</ele><time>2026-05-02T08:37:29Z</time></trkpt><trkpt lat="44.253858215361944" lon="11.039509160942531"><ele>639.1999999999999</ele><time>2026-05-02T08:37:30Z</time></trkpt><trkpt lat="44.253957710356886" lon="11.039473966763515"><ele>641.0</ele><time>2026-05-02T08:37:31Z</time></trkpt><trkpt lat="44.25403020670935" lon="11.039430003897625"><ele>639.3333333333333</ele><time>2026-05-02T08:37:32Z</time></trkpt><trkpt lat="44.25406799873546" lon="11.039353852091052"><ele>637.6666666666666</ele><time>2026-05-02T08:37:33Z</time></trkpt><trkpt lat="44.25415332518099" lon="11.039226627518781"><ele>636.0</ele><time>2026-05-02T08:37:35Z</time></trkpt><trkpt lat="44.25421689536757" lon="11.03915018328544"><ele>634.3333333333334</ele><time>2026-05-02T08:37:36Z</time></trkpt><trkpt lat="44.25427911755779" lon="11.039085094666252"><ele>632.6666666666667</ele><time>2026-05-02T08:37:37Z</time></trkpt><trkpt lat="44.254353063914216" lon="11.03904835417351"><ele>631.0</ele><time>2026-05-02T08:37:38Z</time></trkpt><trkpt lat="44.25442886671116" lon="11.039042164540044"><ele>631.0</ele><time>2026-05-02T08:37:39Z</time></trkpt><trkpt lat="44.254496631648976" lon="11.039048184443173"><ele>631.0</ele><time>2026-05-02T08:37:40Z</time></trkpt><trkpt lat="44.254564912858676" lon="11.039056594940341"><ele>631.0</ele><time>2026-05-02T08:37:41Z</time></trkpt><trkpt lat="44.25462987089253" lon="11.039062592879695"><ele>631.0</ele><time>2026-05-02T08:37:42Z</time></trkpt><trkpt lat="44.25470679612323" lon="11.039069121517105"><ele>631.0</ele><time>2026-05-02T08:37:43Z</time></trkpt><trkpt lat="44.25479489105221" lon="11.0390634153694"><ele>631.0</ele><time>2026-05-02T08:37:44Z</time></trkpt><trkpt lat="44.254881356258515" lon="11.038960117481684"><ele>624.2</ele><time>2026-05-02T08:37:46Z</time></trkpt><trkpt lat="44.25491988905723" lon="11.038814513819405"><ele>617.4000000000001</ele><time>2026-05-02T08:37:48Z</time></trkpt><trkpt lat="44.254888391749226" lon="11.038698544761854"><ele>610.6</ele><time>2026-05-02T08:37:50Z</time></trkpt><trkpt lat="44.25485159678539" lon="11.038516944958772"><ele>603.8000000000001</ele><time>2026-05-02T08:37:52Z</time></trkpt><trkpt lat="44.25484557603066" lon="11.038375491338096"><ele>597.0</ele><time>2026-05-02T08:37:53Z</time></trkpt><trkpt lat="44.25485056060031" lon="11.038235485109842"><ele>596.6666666666666</ele><time>2026-05-02T08:37:54Z</time></trkpt><trkpt lat="44.25484657118478" lon="11.038107556626793"><ele>596.3333333333334</ele><time>2026-05-02T08:37:55Z</time></trkpt><trkpt lat="44.254837772289214" lon="11.037977544071225"><ele>596.0</ele><time>2026-05-02T08:37:56Z</time></trkpt><trkpt lat="44.25483220301819" lon="11.037855496349492"><ele>595.6666666666667</ele><time>2026-05-02T08:37:57Z</time></trkpt><trkpt lat="44.254836716020726" lon="11.037734693559107"><ele>595.3333333333334</ele><time>2026-05-02T08:37:58Z</time></trkpt><trkpt lat="44.25486310230722" lon="11.037650191413242"><ele>595.0</ele><time>2026-05-02T08:37:59Z</time></trkpt><trkpt lat="44.25489294339322" lon="11.037497457932883"><ele>594.2</ele><time>2026-05-02T08:38:01Z</time></trkpt><trkpt lat="44.25487753929856" lon="11.037319223601198"><ele>593.4</ele><time>2026-05-02T08:38:03Z</time></trkpt><trkpt lat="44.254858172990176" lon="11.037230550576167"><ele>592.6</ele><time>2026-05-02T08:38:04Z</time></trkpt><trkpt lat="44.25485224032163" lon="11.037051691957172"><ele>591.8</ele><time>2026-05-02T08:38:06Z</time></trkpt><trkpt lat="44.254883018247895" lon="11.036884673894253"><ele>591.0</ele><time>2026-05-02T08:38:08Z</time></trkpt><trkpt lat="44.25490130928166" lon="11.036770432970819"><ele>591.0</ele><time>2026-05-02T08:38:10Z</time></trkpt><trkpt lat="44.25487891168535" lon="11.036638290129073"><ele>591.0</ele><time>2026-05-02T08:38:12Z</time></trkpt><trkpt lat="44.25488826045443" lon="11.036486105181506"><ele>591.0</ele><time>2026-05-02T08:38:14Z</time></trkpt><trkpt lat="44.25488304382674" lon="11.036339108608216"><ele>591.0</ele><time>2026-05-02T08:38:16Z</time></trkpt><trkpt lat="44.25490387603088" lon="11.0361798663805"><ele>591.0</ele><time>2026-05-02T08:38:18Z</time></trkpt><trkpt lat="44.25486481560483" lon="11.03609533093492"><ele>591.1666666666666</ele><time>2026-05-02T08:38:19Z</time></trkpt><trkpt lat="44.25488482662078" lon="11.035978971569433"><ele>591.3333333333334</ele><time>2026-05-02T08:38:21Z</time></trkpt><trkpt lat="44.25491444873903" lon="11.035883954743364"><ele>591.5</ele><time>2026-05-02T08:38:23Z</time></trkpt><trkpt lat="44.254981497272134" lon="11.035867163087591"><ele>591.6666666666667</ele><time>2026-05-02T08:38:25Z</time></trkpt><trkpt lat="44.25505290040453" lon="11.035914516517046"><ele>591.8333333333334</ele><time>2026-05-02T08:38:27Z</time></trkpt><trkpt lat="44.25514308894769" lon="11.035992565576857"><ele>592.0</ele><time>2026-05-02T08:38:29Z</time></trkpt><trkpt lat="44.25525003714165" lon="11.035973694326108"><ele>592.0</ele><time>2026-05-02T08:38:31Z</time></trkpt><trkpt lat="44.2553361206016" lon="11.035916807187387"><ele>592.0</ele><time>2026-05-02T08:38:33Z</time></trkpt><trkpt lat="44.25545920309968" lon="11.035821646516256"><ele>592.0</ele><time>2026-05-02T08:38:35Z</time></trkpt><trkpt lat="44.255514792709235" lon="11.035773647014711"><ele>592.0</ele><time>2026-05-02T08:38:36Z</time></trkpt><trkpt lat="44.25560202094661" lon="11.035681609150853"><ele>592.0</ele><time>2026-05-02T08:38:38Z</time></trkpt><trkpt lat="44.255709051105235" lon="11.035673181133905"><ele>589.1666666666667</ele><time>2026-05-02T08:38:40Z</time></trkpt><trkpt lat="44.255768843117366" lon="11.035633963708873"><ele>586.3333333333334</ele><time>2026-05-02T08:38:42Z</time></trkpt><trkpt lat="44.25585863866562" lon="11.035665112934886"><ele>583.5</ele><time>2026-05-02T08:39:03Z</time></trkpt><trkpt lat="44.2559136632662" lon="11.035710898567615"><ele>580.6666666666666</ele><time>2026-05-02T08:39:05Z</time></trkpt><trkpt lat="44.25595927516991" lon="11.03580489619762"><ele>577.8333333333333</ele><time>2026-05-02T08:39:16Z</time></trkpt><trkpt lat="44.255976835524834" lon="11.035953410279753"><ele>575.0</ele><time>2026-05-02T08:39:19Z</time></trkpt><trkpt lat="44.2559618117875" lon="11.036114358680285"><ele>574.5</ele><time>2026-05-02T08:39:21Z</time></trkpt><trkpt lat="44.2559534640908" lon="11.036204711206523"><ele>574.0</ele><time>2026-05-02T08:39:22Z</time></trkpt><trkpt lat="44.25595311883809" lon="11.03630306940422"><ele>573.5</ele><time>2026-05-02T08:39:23Z</time></trkpt><trkpt lat="44.25593314694122" lon="11.03644965925406"><ele>573.0</ele><time>2026-05-02T08:39:25Z</time></trkpt><trkpt lat="44.25591357404437" lon="11.036584908950475"><ele>572.5</ele><time>2026-05-02T08:39:27Z</time></trkpt><trkpt lat="44.25588350909024" lon="11.036700865683379"><ele>572.0</ele><time>2026-05-02T08:39:29Z</time></trkpt><trkpt lat="44.25588833695227" lon="11.036802511768782"><ele>571.8333333333333</ele><time>2026-05-02T08:39:30Z</time></trkpt><trkpt lat="44.25592153754135" lon="11.036912364405497"><ele>571.6666666666666</ele><time>2026-05-02T08:39:31Z</time></trkpt><trkpt lat="44.25594183876497" lon="11.037027164646815"><ele>571.5</ele><time>2026-05-02T08:39:32Z</time></trkpt><trkpt lat="44.25596345520701" lon="11.037165472090962"><ele>571.3333333333334</ele><time>2026-05-02T08:39:34Z</time></trkpt><trkpt lat="44.25600055549085" lon="11.037281552124925"><ele>571.1666666666667</ele><time>2026-05-02T08:39:36Z</time></trkpt><trkpt lat="44.25606027750851" lon="11.037317207913352"><ele>571.0</ele><time>2026-05-02T08:39:37Z</time></trkpt><trkpt lat="44.25611848124325" lon="11.03735994734849"><ele>571.0</ele><time>2026-05-02T08:39:38Z</time></trkpt><trkpt lat="44.25618664216879" lon="11.037401654849958"><ele>571.0</ele><time>2026-05-02T08:39:39Z</time></trkpt><trkpt lat="44.256236673556536" lon="11.037457954306571"><ele>571.0</ele><time>2026-05-02T08:39:40Z</time></trkpt><trkpt lat="44.2563241737889" lon="11.037602212172144"><ele>571.0</ele><time>2026-05-02T08:39:42Z</time></trkpt><trkpt lat="44.25634683868656" lon="11.037793956841867"><ele>571.0</ele><time>2026-05-02T08:39:44Z</time></trkpt><trkpt lat="44.25636226327809" lon="11.037943170612973"><ele>570.8</ele><time>2026-05-02T08:39:46Z</time></trkpt><trkpt lat="44.25633322582448" lon="11.038089482816844"><ele>570.6</ele><time>2026-05-02T08:39:48Z</time></trkpt><trkpt lat="44.25626958520813" lon="11.038250755141819"><ele>570.4</ele><time>2026-05-02T08:39:50Z</time></trkpt><trkpt lat="44.25621666853683" lon="11.038369740986537"><ele>570.2</ele><time>2026-05-02T08:39:51Z</time></trkpt><trkpt lat="44.25618443711989" lon="11.038456686489539"><ele>570.0</ele><time>2026-05-02T08:39:52Z</time></trkpt><trkpt lat="44.25616646472275" lon="11.038652647164502"><ele>569.3333333333334</ele><time>2026-05-02T08:39:54Z</time></trkpt><trkpt lat="44.256157978579246" lon="11.03877853249906"><ele>568.6666666666666</ele><time>2026-05-02T08:39:55Z</time></trkpt><trkpt lat="44.25611671231904" lon="11.038854885203818"><ele>568.0</ele><time>2026-05-02T08:39:56Z</time></trkpt><trkpt lat="44.25606416000176" lon="11.038952120463529"><ele>567.3333333333333</ele><time>2026-05-02T08:39:57Z</time></trkpt><trkpt lat="44.25604083578055" lon="11.039064212660193"><ele>566.6666666666666</ele><time>2026-05-02T08:39:58Z</time></trkpt><trkpt lat="44.25604045565159" lon="11.039156336420223"><ele>566.0</ele><time>2026-05-02T08:39:59Z</time></trkpt><trkpt lat="44.256037022058194" lon="11.039281763908294"><ele>563.3333333333333</ele><time>2026-05-02T08:40:00Z</time></trkpt><trkpt lat="44.25603101798039" lon="11.039391143161932"><ele>560.6666666666666</ele><time>2026-05-02T08:40:01Z</time></trkpt><trkpt lat="44.25605045353195" lon="11.03950439312881"><ele>558.0</ele><time>2026-05-02T08:40:02Z</time></trkpt><trkpt lat="44.256073879557924" lon="11.039621865234283"><ele>555.3333333333334</ele><time>2026-05-02T08:40:03Z</time></trkpt><trkpt lat="44.2560687437992" lon="11.039722481772078"><ele>552.6666666666667</ele><time>2026-05-02T08:40:04Z</time></trkpt><trkpt lat="44.25608359795273" lon="11.03983281052323"><ele>550.0</ele><time>2026-05-02T08:40:06Z</time></trkpt><trkpt lat="44.25610716429302" lon="11.03993939669611"><ele>548.5</ele><time>2026-05-02T08:40:08Z</time></trkpt><trkpt lat="44.25619191372508" lon="11.040051497561056"><ele>547.0</ele><time>2026-05-02T08:40:10Z</time></trkpt><trkpt lat="44.25617124203163" lon="11.040199478417575"><ele>545.5</ele><time>2026-05-02T08:40:12Z</time></trkpt><trkpt lat="44.256180419642995" lon="11.04035116445085"><ele>544.0</ele><time>2026-05-02T08:40:14Z</time></trkpt><trkpt lat="44.25619119370534" lon="11.040533997855109"><ele>544.0</ele><time>2026-05-02T08:40:16Z</time></trkpt><trkpt lat="44.25621001887742" lon="11.040633389904732"><ele>544.0</ele><time>2026-05-02T08:40:17Z</time></trkpt><trkpt lat="44.256213822969436" lon="11.04073712940226"><ele>544.0</ele><time>2026-05-02T08:40:18Z</time></trkpt><trkpt lat="44.25620060833245" lon="11.040892343829793"><ele>544.0</ele><time>2026-05-02T08:40:20Z</time></trkpt><trkpt lat="44.25618845334942" lon="11.040990684726477"><ele>544.0</ele><time>2026-05-02T08:40:21Z</time></trkpt><trkpt lat="44.25614838997966" lon="11.041144943545227"><ele>544.0</ele><time>2026-05-02T08:40:23Z</time></trkpt><trkpt lat="44.25609401185987" lon="11.041243161442921"><ele>541.4</ele><time>2026-05-02T08:40:25Z</time></trkpt><trkpt lat="44.25601450790033" lon="11.041359816872028"><ele>538.8</ele><time>2026-05-02T08:40:27Z</time></trkpt><trkpt lat="44.25596550076808" lon="11.041438844757582"><ele>536.2</ele><time>2026-05-02T08:40:28Z</time></trkpt><trkpt lat="44.25591612785685" lon="11.041525989952074"><ele>533.6</ele><time>2026-05-02T08:40:30Z</time></trkpt><trkpt lat="44.25588507490731" lon="11.041679110400834"><ele>531.0</ele><time>2026-05-02T08:40:32Z</time></trkpt><trkpt lat="44.25584697400471" lon="11.041755449584903"><ele>526.4</ele><time>2026-05-02T08:40:33Z</time></trkpt><trkpt lat="44.25577519517195" lon="11.04187941304706"><ele>521.8</ele><time>2026-05-02T08:40:35Z</time></trkpt><trkpt lat="44.255736419718325" lon="11.041972582613388"><ele>517.1999999999999</ele><time>2026-05-02T08:40:37Z</time></trkpt><trkpt lat="44.25569940395408" lon="11.042059776911714"><ele>512.6</ele><time>2026-05-02T08:40:40Z</time></trkpt><trkpt lat="44.2556747885829" lon="11.04216943197579"><ele>508.0</ele><time>2026-05-02T08:41:27Z</time></trkpt><trkpt lat="44.255620904317865" lon="11.04230045026126"><ele>510.0</ele><time>2026-05-02T08:41:32Z</time></trkpt><trkpt lat="44.255521030128385" lon="11.042432777342942"><ele>512.0</ele><time>2026-05-02T08:41:34Z</time></trkpt><trkpt lat="44.25540957687731" lon="11.042470327106443"><ele>514.0</ele><time>2026-05-02T08:41:35Z</time></trkpt><trkpt lat="44.25535204302152" lon="11.04257981751504"><ele>516.0</ele><time>2026-05-02T08:41:36Z</time></trkpt><trkpt lat="44.255285713157285" lon="11.042707940313658"><ele>510.25</ele><time>2026-05-02T08:41:37Z</time></trkpt><trkpt lat="44.25521373887116" lon="11.042853428787947"><ele>504.5</ele><time>2026-05-02T08:41:38Z</time></trkpt><trkpt lat="44.25515619285876" lon="11.042980444651109"><ele>498.75</ele><time>2026-05-02T08:41:39Z</time></trkpt><trkpt lat="44.25510210281207" lon="11.043104447596578"><ele>493.0</ele><time>2026-05-02T08:41:40Z</time></trkpt><trkpt lat="44.255042925486606" lon="11.043239538751452"><ele>492.1666666666667</ele><time>2026-05-02T08:41:41Z</time></trkpt><trkpt lat="44.25499148542164" lon="11.04334813299968"><ele>491.33333333333337</ele><time>2026-05-02T08:41:42Z</time></trkpt><trkpt lat="44.254938154504345" lon="11.043445087939553"><ele>490.5</ele><time>2026-05-02T08:41:43Z</time></trkpt><trkpt lat="44.25489479703011" lon="11.043528516949745"><ele>489.66666666666663</ele><time>2026-05-02T08:41:44Z</time></trkpt><trkpt lat="44.25486042208454" lon="11.04363609683752"><ele>488.8333333333333</ele><time>2026-05-02T08:41:45Z</time></trkpt><trkpt lat="44.254843785243935" lon="11.043731531809616"><ele>488.0</ele><time>2026-05-02T08:41:46Z</time></trkpt><trkpt lat="44.254837866000585" lon="11.04385255531731"><ele>488.0</ele><time>2026-05-02T08:41:47Z</time></trkpt><trkpt lat="44.2548529373649" lon="11.043956328682892"><ele>487.99999999999994</ele><time>2026-05-02T08:41:48Z</time></trkpt><trkpt lat="44.254883639496974" lon="11.044041548944596"><ele>487.99999999999994</ele><time>2026-05-02T08:41:49Z</time></trkpt><trkpt lat="44.25495330409025" lon="11.044170177556628"><ele>488.0</ele><time>2026-05-02T08:41:51Z</time></trkpt><trkpt lat="44.25502565181582" lon="11.044215822520172"><ele>488.0</ele><time>2026-05-02T08:41:52Z</time></trkpt><trkpt lat="44.255138454382674" lon="11.044313886899358"><ele>488.59999999999997</ele><time>2026-05-02T08:41:54Z</time></trkpt><trkpt lat="44.255208333821564" lon="11.044338038025314"><ele>489.19999999999993</ele><time>2026-05-02T08:41:55Z</time></trkpt><trkpt lat="44.2552934563239" lon="11.044344521459637"><ele>489.8</ele><time>2026-05-02T08:41:56Z</time></trkpt><trkpt lat="44.25538972286687" lon="11.04434834477271"><ele>490.4</ele><time>2026-05-02T08:41:57Z</time></trkpt><trkpt lat="44.25550072108402" lon="11.044357129113948"><ele>491.0</ele><time>2026-05-02T08:41:58Z</time></trkpt><trkpt lat="44.25560797559611" lon="11.044388738349205"><ele>488.8</ele><time>2026-05-02T08:41:59Z</time></trkpt><trkpt lat="44.255703880730465" lon="11.044435918185068"><ele>486.6</ele><time>2026-05-02T08:42:00Z</time></trkpt><trkpt lat="44.255801705857294" lon="11.044497321744531"><ele>484.4</ele><time>2026-05-02T08:42:01Z</time></trkpt><trkpt lat="44.255889029011065" lon="11.044570594248352"><ele>482.2</ele><time>2026-05-02T08:42:02Z</time></trkpt><trkpt lat="44.255952679282515" lon="11.04466214688042"><ele>480.0</ele><time>2026-05-02T08:42:03Z</time></trkpt><trkpt lat="44.25600045823097" lon="11.04475142539336"><ele>480.0</ele><time>2026-05-02T08:42:04Z</time></trkpt><trkpt lat="44.256024821758345" lon="11.044848100741913"><ele>480.0</ele><time>2026-05-02T08:42:05Z</time></trkpt><trkpt lat="44.256042296593975" lon="11.044946155207327"><ele>480.0</ele><time>2026-05-02T08:42:06Z</time></trkpt><trkpt lat="44.256048719468296" lon="11.045169000044808"><ele>480.0</ele><time>2026-05-02T08:42:08Z</time></trkpt><trkpt lat="44.25604423964089" lon="11.045294312155772"><ele>480.0</ele><time>2026-05-02T08:42:09Z</time></trkpt><trkpt lat="44.256032434469645" lon="11.045435913448317"><ele>480.1666666666667</ele><time>2026-05-02T08:42:10Z</time></trkpt><trkpt lat="44.256011990878996" lon="11.04558051509718"><ele>480.33333333333337</ele><time>2026-05-02T08:42:11Z</time></trkpt><trkpt lat="44.25599119316294" lon="11.045698997511089"><ele>480.5</ele><time>2026-05-02T08:42:12Z</time></trkpt><trkpt lat="44.25597387384351" lon="11.045784979992678"><ele>480.6666666666667</ele><time>2026-05-02T08:42:13Z</time></trkpt><trkpt lat="44.2559474696404" lon="11.045880449557202"><ele>480.83333333333337</ele><time>2026-05-02T08:42:14Z</time></trkpt><trkpt lat="44.25591102865587" lon="11.045963458975445"><ele>481.0</ele><time>2026-05-02T08:42:15Z</time></trkpt><trkpt lat="44.25587311424322" lon="11.046071212044131"><ele>481.0</ele><time>2026-05-02T08:42:16Z</time></trkpt><trkpt lat="44.255827581895524" lon="11.046203510481714"><ele>481.0</ele><time>2026-05-02T08:42:17Z</time></trkpt><trkpt lat="44.25577838096705" lon="11.046350879676186"><ele>481.0</ele><time>2026-05-02T08:42:18Z</time></trkpt><trkpt lat="44.255746781273906" lon="11.046493283159991"><ele>481.0</ele><time>2026-05-02T08:42:19Z</time></trkpt><trkpt lat="44.255732101762895" lon="11.046609738348485"><ele>481.0</ele><time>2026-05-02T08:42:20Z</time></trkpt><trkpt lat="44.255753160030494" lon="11.04679697340067"><ele>480.00000000000006</ele><time>2026-05-02T08:42:22Z</time></trkpt><trkpt lat="44.25582100693543" lon="11.046877761563366"><ele>479.0</ele><time>2026-05-02T08:42:23Z</time></trkpt><trkpt lat="44.255930825513985" lon="11.046870799803916"><ele>478.0</ele><time>2026-05-02T08:42:24Z</time></trkpt><trkpt lat="44.256001474796655" lon="11.046884769803812"><ele>477.0</ele><time>2026-05-02T08:42:25Z</time></trkpt><trkpt lat="44.25606896385585" lon="11.046896967346541"><ele>476.00000000000006</ele><time>2026-05-02T08:42:26Z</time></trkpt><trkpt lat="44.256137266471946" lon="11.046932915911864"><ele>475.0</ele><time>2026-05-02T08:42:27Z</time></trkpt><trkpt lat="44.25618417891274" lon="11.047031888629084"><ele>475.0</ele><time>2026-05-02T08:42:28Z</time></trkpt><trkpt lat="44.256246925652995" lon="11.047209051831524"><ele>475.0</ele><time>2026-05-02T08:42:30Z</time></trkpt><trkpt lat="44.2562954973857" lon="11.047315194257328"><ele>475.0</ele><time>2026-05-02T08:42:32Z</time></trkpt><trkpt lat="44.256401326748424" lon="11.047368776719283"><ele>475.0</ele><time>2026-05-02T08:42:35Z</time></trkpt><trkpt lat="44.25650881003344" lon="11.0473689959932"><ele>476.6666666666667</ele><time>2026-05-02T08:42:37Z</time></trkpt><trkpt lat="44.256573115976266" lon="11.047331329212502"><ele>478.33333333333337</ele><time>2026-05-02T08:42:38Z</time></trkpt><trkpt lat="44.25664749024574" lon="11.047308765781862"><ele>480.0</ele><time>2026-05-02T08:42:39Z</time></trkpt><trkpt lat="44.2567315767911" lon="11.047285688886399"><ele>481.66666666666663</ele><time>2026-05-02T08:42:40Z</time></trkpt><trkpt lat="44.25679888266381" lon="11.047258104362353"><ele>483.3333333333333</ele><time>2026-05-02T08:42:41Z</time></trkpt><trkpt lat="44.25687104374862" lon="11.04722043666731"><ele>485.0</ele><time>2026-05-02T08:42:42Z</time></trkpt><trkpt lat="44.25694934235928" lon="11.04721911447924"><ele>484.99999999999994</ele><time>2026-05-02T08:42:44Z</time></trkpt><trkpt lat="44.25701212506342" lon="11.047206443470715"><ele>485.0</ele><time>2026-05-02T08:42:47Z</time></trkpt><trkpt lat="44.2571244304705" lon="11.04719012836763"><ele>485.0</ele><time>2026-05-02T08:43:19Z</time></trkpt><trkpt lat="44.25720302526327" lon="11.04718155357926"><ele>485.0</ele><time>2026-05-02T08:43:20Z</time></trkpt><trkpt lat="44.25728711872115" lon="11.047163103615338"><ele>484.99999999999994</ele><time>2026-05-02T08:43:21Z</time></trkpt><trkpt lat="44.25738898383428" lon="11.047138214947662"><ele>485.0</ele><time>2026-05-02T08:43:22Z</time></trkpt><trkpt lat="44.25748388483332" lon="11.047130758798993"><ele>485.8</ele><time>2026-05-02T08:43:23Z</time></trkpt><trkpt lat="44.257588542677915" lon="11.047131468316762"><ele>486.6</ele><time>2026-05-02T08:43:24Z</time></trkpt><trkpt lat="44.25769404998898" lon="11.047136153871804"><ele>487.4</ele><time>2026-05-02T08:43:25Z</time></trkpt><trkpt lat="44.25778890782312" lon="11.047114665425497"><ele>488.2</ele><time>2026-05-02T08:43:26Z</time></trkpt><trkpt lat="44.257866757402375" lon="11.047070780278126"><ele>489.0</ele><time>2026-05-02T08:43:27Z</time></trkpt><trkpt lat="44.25792813285947" lon="11.047002290576192"><ele>489.0</ele><time>2026-05-02T08:43:28Z</time></trkpt><trkpt lat="44.257979765985056" lon="11.04693800790379"><ele>489.0</ele><time>2026-05-02T08:43:29Z</time></trkpt><trkpt lat="44.258083428392446" lon="11.046912296058084"><ele>489.0</ele><time>2026-05-02T08:43:31Z</time></trkpt><trkpt lat="44.25811172487076" lon="11.047057041316293"><ele>489.0</ele><time>2026-05-02T08:43:33Z</time></trkpt><trkpt lat="44.258053592458374" lon="11.047252473791001"><ele>489.0</ele><time>2026-05-02T08:43:35Z</time></trkpt><trkpt lat="44.25805534887049" lon="11.047361711666529"><ele>488.0</ele><time>2026-05-02T08:43:36Z</time></trkpt><trkpt lat="44.25804407934397" lon="11.047492955046652"><ele>487.0</ele><time>2026-05-02T08:43:37Z</time></trkpt><trkpt lat="44.258030779189085" lon="11.04763351370824"><ele>486.0</ele><time>2026-05-02T08:43:38Z</time></trkpt><trkpt lat="44.2580135100263" lon="11.047794829155162"><ele>485.0</ele><time>2026-05-02T08:43:39Z</time></trkpt><trkpt lat="44.257989012600184" lon="11.047941452785695"><ele>484.0</ele><time>2026-05-02T08:43:40Z</time></trkpt><trkpt lat="44.25799167229795" lon="11.048074930290538"><ele>484.0</ele><time>2026-05-02T08:43:41Z</time></trkpt><trkpt lat="44.25797651050654" lon="11.048209718458905"><ele>484.0</ele><time>2026-05-02T08:43:42Z</time></trkpt><trkpt lat="44.25800374626689" lon="11.048352901321442"><ele>484.0</ele><time>2026-05-02T08:43:43Z</time></trkpt><trkpt lat="44.25799677900995" lon="11.048492201429669"><ele>484.0</ele><time>2026-05-02T08:43:44Z</time></trkpt><trkpt lat="44.25790807418328" lon="11.048573217369073"><ele>484.0</ele><time>2026-05-02T08:43:45Z</time></trkpt><trkpt lat="44.25787975798887" lon="11.048671697863915"><ele>484.00000000000006</ele><time>2026-05-02T08:43:46Z</time></trkpt><trkpt lat="44.25785341820701" lon="11.04876475177653"><ele>484.0</ele><time>2026-05-02T08:43:47Z</time></trkpt><trkpt lat="44.257844345865344" lon="11.048873670665394"><ele>484.0</ele><time>2026-05-02T08:43:48Z</time></trkpt><trkpt lat="44.25784865222485" lon="11.048970880045195"><ele>484.0</ele><time>2026-05-02T08:43:49Z</time></trkpt><trkpt lat="44.25791044737665" lon="11.049070018261212"><ele>484.00000000000006</ele><time>2026-05-02T08:43:51Z</time></trkpt><trkpt lat="44.25799074848387" lon="11.049166174288596"><ele>484.0</ele><time>2026-05-02T08:43:53Z</time></trkpt><trkpt lat="44.25805110352474" lon="11.049219726391565"><ele>484.33333333333337</ele><time>2026-05-02T08:43:54Z</time></trkpt><trkpt lat="44.258100590216024" lon="11.04931085736558"><ele>484.6666666666667</ele><time>2026-05-02T08:43:55Z</time></trkpt><trkpt lat="44.25816466987537" lon="11.049367831267903"><ele>485.0</ele><time>2026-05-02T08:43:56Z</time></trkpt><trkpt lat="44.25821241262483" lon="11.049449447647268"><ele>485.33333333333337</ele><time>2026-05-02T08:43:57Z</time></trkpt><trkpt lat="44.25825289603977" lon="11.049546793472336"><ele>485.6666666666667</ele><time>2026-05-02T08:43:58Z</time></trkpt><trkpt lat="44.258281905215455" lon="11.0496780247781"><ele>486.0</ele><time>2026-05-02T08:43:59Z</time></trkpt><trkpt lat="44.2582948636795" lon="11.049794286681745"><ele>491.5</ele><time>2026-05-02T08:44:00Z</time></trkpt><trkpt lat="44.25831352156279" lon="11.04989785583936"><ele>497.0</ele><time>2026-05-02T08:44:01Z</time></trkpt><trkpt lat="44.2583460968912" lon="11.050012385824845"><ele>502.5</ele><time>2026-05-02T08:44:02Z</time></trkpt><trkpt lat="44.25837909310949" lon="11.0501158094266"><ele>508.0</ele><time>2026-05-02T08:44:03Z</time></trkpt><trkpt lat="44.258392007166" lon="11.050239112087102"><ele>513.5</ele><time>2026-05-02T08:44:04Z</time></trkpt><trkpt lat="44.25841024791713" lon="11.05033422408668"><ele>519.0</ele><time>2026-05-02T08:44:05Z</time></trkpt><trkpt lat="44.25843153512189" lon="11.05045692341106"><ele>519.0</ele><time>2026-05-02T08:44:07Z</time></trkpt><trkpt lat="44.258536521694204" lon="11.050455717932714"><ele>519.0</ele><time>2026-05-02T08:44:14Z</time></trkpt><trkpt lat="44.25855144772635" lon="11.050290960465487"><ele>519.0</ele><time>2026-05-02T08:44:15Z</time></trkpt><trkpt lat="44.25852068631636" lon="11.050173275805863"><ele>519.0</ele><time>2026-05-02T08:44:16Z</time></trkpt><trkpt lat="44.258478053705076" lon="11.050056645137758"><ele>519.0</ele><time>2026-05-02T08:44:17Z</time></trkpt><trkpt lat="44.25845109183053" lon="11.049923189111782"><ele>519.0</ele><time>2026-05-02T08:44:18Z</time></trkpt><trkpt lat="44.258481534833464" lon="11.049800393902611"><ele>519.0</ele><time>2026-05-02T08:44:19Z</time></trkpt><trkpt lat="44.258539408698546" lon="11.049704071001191"><ele>519.0</ele><time>2026-05-02T08:44:20Z</time></trkpt><trkpt lat="44.25859707468304" lon="11.049537421096526"><ele>519.0</ele><time>2026-05-02T08:44:21Z</time></trkpt><trkpt lat="44.25859983541509" lon="11.0493642466667"><ele>519.0</ele><time>2026-05-02T08:44:22Z</time></trkpt><trkpt lat="44.258597392330394" lon="11.049180705121953"><ele>517.0</ele><time>2026-05-02T08:44:23Z</time></trkpt><trkpt lat="44.25860639342038" lon="11.04898800794403"><ele>515.0</ele><time>2026-05-02T08:44:24Z</time></trkpt><trkpt lat="44.258655978285425" lon="11.048797290956063"><ele>513.0</ele><time>2026-05-02T08:44:25Z</time></trkpt><trkpt lat="44.258704465093935" lon="11.048557006690357"><ele>513.0</ele><time>2026-05-02T08:44:27Z</time></trkpt><trkpt lat="44.25875005191085" lon="11.048387445322197"><ele>513.0</ele><time>2026-05-02T08:44:28Z</time></trkpt><trkpt lat="44.25879800224672" lon="11.048228277367064"><ele>513.0</ele><time>2026-05-02T08:44:29Z</time></trkpt><trkpt lat="44.258851351330044" lon="11.048099178938712"><ele>513.0</ele><time>2026-05-02T08:44:30Z</time></trkpt><trkpt lat="44.25890315553959" lon="11.047996686698978"><ele>519.0</ele><time>2026-05-02T08:44:31Z</time></trkpt><trkpt lat="44.25898515129331" lon="11.047897935940684"><ele>525.0</ele><time>2026-05-02T08:44:32Z</time></trkpt><trkpt lat="44.25906514585906" lon="11.047802207431141"><ele>531.0</ele><time>2026-05-02T08:44:33Z</time></trkpt><trkpt lat="44.25915836851537" lon="11.047700991961547"><ele>537.0</ele><time>2026-05-02T08:44:34Z</time></trkpt><trkpt lat="44.259252182890215" lon="11.04759486981473"><ele>537.0</ele><time>2026-05-02T08:44:35Z</time></trkpt><trkpt lat="44.25934546788159" lon="11.047496628313407"><ele>537.0</ele><time>2026-05-02T08:44:36Z</time></trkpt><trkpt lat="44.25943671960834" lon="11.047402208982852"><ele>537.0</ele><time>2026-05-02T08:44:37Z</time></trkpt><trkpt lat="44.25952477629578" lon="11.047301693045819"><ele>537.0</ele><time>2026-05-02T08:44:38Z</time></trkpt><trkpt lat="44.259610725390914" lon="11.04720537405901"><ele>540.0</ele><time>2026-05-02T08:44:39Z</time></trkpt><trkpt lat="44.25969264429889" lon="11.047117966181359"><ele>543.0</ele><time>2026-05-02T08:44:40Z</time></trkpt><trkpt lat="44.25976966135401" lon="11.04703140720387"><ele>546.0</ele><time>2026-05-02T08:44:41Z</time></trkpt><trkpt lat="44.25985026738759" lon="11.046943726340057"><ele>549.0</ele><time>2026-05-02T08:44:42Z</time></trkpt><trkpt lat="44.25993065815009" lon="11.046858274563558"><ele>552.0</ele><time>2026-05-02T08:44:43Z</time></trkpt><trkpt lat="44.26001338941806" lon="11.046770334954557"><ele>552.0</ele><time>2026-05-02T08:44:44Z</time></trkpt><trkpt lat="44.26009954223556" lon="11.046676295451684"><ele>552.0</ele><time>2026-05-02T08:44:45Z</time></trkpt><trkpt lat="44.26017579619323" lon="11.046592288953477"><ele>552.0</ele><time>2026-05-02T08:44:46Z</time></trkpt><trkpt lat="44.260252487839864" lon="11.046507800264004"><ele>552.0</ele><time>2026-05-02T08:44:47Z</time></trkpt><trkpt lat="44.26032517598469" lon="11.046428106494902"><ele>552.0</ele><time>2026-05-02T08:44:48Z</time></trkpt><trkpt lat="44.26040577777972" lon="11.046341913427023"><ele>552.6</ele><time>2026-05-02T08:44:49Z</time></trkpt><trkpt lat="44.26049268917695" lon="11.046272272844076"><ele>553.2</ele><time>2026-05-02T08:44:50Z</time></trkpt><trkpt lat="44.26055482422281" lon="11.04624097572185"><ele>553.8</ele><time>2026-05-02T08:44:51Z</time></trkpt><trkpt lat="44.26065143366901" lon="11.046217991244514"><ele>554.4</ele><time>2026-05-02T08:44:52Z</time></trkpt><trkpt lat="44.260782078107844" lon="11.04618228213525"><ele>555.0</ele><time>2026-05-02T08:44:53Z</time></trkpt><trkpt lat="44.26090273489395" lon="11.046147592624674"><ele>555.0</ele><time>2026-05-02T08:44:54Z</time></trkpt><trkpt lat="44.26101697879562" lon="11.046108479618423"><ele>555.0</ele><time>2026-05-02T08:44:55Z</time></trkpt><trkpt lat="44.261117327108835" lon="11.046060377802037"><ele>555.0</ele><time>2026-05-02T08:44:56Z</time></trkpt><trkpt lat="44.26122562539833" lon="11.045982826064256"><ele>555.0</ele><time>2026-05-02T08:44:57Z</time></trkpt><trkpt lat="44.26132700377311" lon="11.045907778143443"><ele>555.0</ele><time>2026-05-02T08:44:58Z</time></trkpt><trkpt lat="44.26142425113342" lon="11.04583053232447"><ele>555.0</ele><time>2026-05-02T08:44:59Z</time></trkpt><trkpt lat="44.26151417598885" lon="11.045720065252125"><ele>555.0</ele><time>2026-05-02T08:45:00Z</time></trkpt><trkpt lat="44.26162558498198" lon="11.045648060405695"><ele>555.0</ele><time>2026-05-02T08:45:01Z</time></trkpt><trkpt lat="44.26173020863983" lon="11.045596361966245"><ele>556.8333333333334</ele><time>2026-05-02T08:45:02Z</time></trkpt><trkpt lat="44.26179829580851" lon="11.045543610551203"><ele>558.6666666666666</ele><time>2026-05-02T08:45:03Z</time></trkpt><trkpt lat="44.26185367970497" lon="11.045482987509775"><ele>560.5</ele><time>2026-05-02T08:45:04Z</time></trkpt><trkpt lat="44.26182627471282" lon="11.04536033133499"><ele>562.3333333333333</ele><time>2026-05-02T08:45:05Z</time></trkpt><trkpt lat="44.261781162056046" lon="11.045263514654785"><ele>564.1666666666666</ele><time>2026-05-02T08:45:06Z</time></trkpt><trkpt lat="44.26170407435832" lon="11.045197120977072"><ele>566.0</ele><time>2026-05-02T08:45:07Z</time></trkpt><trkpt lat="44.261606790042336" lon="11.045183946496607"><ele>566.0</ele><time>2026-05-02T08:45:08Z</time></trkpt><trkpt lat="44.261514598379456" lon="11.045222453058638"><ele>566.0</ele><time>2026-05-02T08:45:09Z</time></trkpt><trkpt lat="44.26141066102913" lon="11.04528331375266"><ele>566.0</ele><time>2026-05-02T08:45:10Z</time></trkpt><trkpt lat="44.261296964885645" lon="11.045306580213353"><ele>566.0</ele><time>2026-05-02T08:45:11Z</time></trkpt><trkpt lat="44.26118284267238" lon="11.045309970564531"><ele>566.0</ele><time>2026-05-02T08:45:12Z</time></trkpt><trkpt lat="44.261076606384194" lon="11.045246080111378"><ele>564.5</ele><time>2026-05-02T08:45:13Z</time></trkpt><trkpt lat="44.260951227856296" lon="11.045159384182005"><ele>563.0</ele><time>2026-05-02T08:45:14Z</time></trkpt><trkpt lat="44.260907719809076" lon="11.045012379323014"><ele>561.5</ele><time>2026-05-02T08:45:15Z</time></trkpt><trkpt lat="44.26083677102369" lon="11.044896856801863"><ele>560.0</ele><time>2026-05-02T08:45:16Z</time></trkpt><trkpt lat="44.26075242351007" lon="11.044801509204785"><ele>559.2</ele><time>2026-05-02T08:45:17Z</time></trkpt><trkpt lat="44.26069282401917" lon="11.04467026077668"><ele>558.4</ele><time>2026-05-02T08:45:18Z</time></trkpt><trkpt lat="44.260623851309454" lon="11.044568152452383"><ele>557.6</ele><time>2026-05-02T08:45:19Z</time></trkpt><trkpt lat="44.26059944610697" lon="11.044454942901464"><ele>556.8</ele><time>2026-05-02T08:45:20Z</time></trkpt><trkpt lat="44.260597244142865" lon="11.044324968406213"><ele>556.0</ele><time>2026-05-02T08:45:21Z</time></trkpt><trkpt lat="44.260627916372634" lon="11.044208142830454"><ele>562.25</ele><time>2026-05-02T08:45:22Z</time></trkpt><trkpt lat="44.26065588316754" lon="11.044030141630367"><ele>568.5</ele><time>2026-05-02T08:45:23Z</time></trkpt><trkpt lat="44.26069763167757" lon="11.043869841653265"><ele>574.75</ele><time>2026-05-02T08:45:24Z</time></trkpt><trkpt lat="44.2607215679785" lon="11.043703068990338"><ele>581.0</ele><time>2026-05-02T08:45:25Z</time></trkpt><trkpt lat="44.260722324497884" lon="11.04352817461062"><ele>581.0</ele><time>2026-05-02T08:45:26Z</time></trkpt><trkpt lat="44.260711751172686" lon="11.043326484406853"><ele>581.0</ele><time>2026-05-02T08:45:27Z</time></trkpt><trkpt lat="44.26070307764202" lon="11.043133187623438"><ele>581.0</ele><time>2026-05-02T08:45:28Z</time></trkpt><trkpt lat="44.2606914858771" lon="11.042963343181885"><ele>581.0</ele><time>2026-05-02T08:45:29Z</time></trkpt><trkpt lat="44.260677288183174" lon="11.042777658267037"><ele>582.75</ele><time>2026-05-02T08:45:30Z</time></trkpt><trkpt lat="44.260664126842606" lon="11.042592858411096"><ele>584.5</ele><time>2026-05-02T08:45:31Z</time></trkpt><trkpt lat="44.26063250982456" lon="11.042429061367601"><ele>586.25</ele><time>2026-05-02T08:45:32Z</time></trkpt><trkpt lat="44.26056246531466" lon="11.042294046722757"><ele>588.0</ele><time>2026-05-02T08:45:33Z</time></trkpt><trkpt lat="44.260465266037116" lon="11.042179324701626"><ele>592.0</ele><time>2026-05-02T08:45:34Z</time></trkpt><trkpt lat="44.26036751993297" lon="11.042090388010548"><ele>596.0</ele><time>2026-05-02T08:45:35Z</time></trkpt><trkpt lat="44.260250586060174" lon="11.04207705978585"><ele>600.0</ele><time>2026-05-02T08:45:36Z</time></trkpt><trkpt lat="44.260130347679215" lon="11.042100582592902"><ele>604.0</ele><time>2026-05-02T08:45:37Z</time></trkpt><trkpt lat="44.26000361874427" lon="11.042131469855759"><ele>604.0</ele><time>2026-05-02T08:45:38Z</time></trkpt><trkpt lat="44.259895772270625" lon="11.042211937196356"><ele>604.0</ele><time>2026-05-02T08:45:39Z</time></trkpt><trkpt lat="44.2598178431062" lon="11.042312372860104"><ele>604.0</ele><time>2026-05-02T08:45:40Z</time></trkpt><trkpt lat="44.259708957948575" lon="11.042357669822898"><ele>604.0</ele><time>2026-05-02T08:45:41Z</time></trkpt><trkpt lat="44.25962819322849" lon="11.042345834777315"><ele>604.0</ele><time>2026-05-02T08:45:42Z</time></trkpt><trkpt lat="44.2595569871252" lon="11.042295544173903"><ele>602.4</ele><time>2026-05-02T08:45:43Z</time></trkpt><trkpt lat="44.25950825153773" lon="11.042209953524805"><ele>600.8</ele><time>2026-05-02T08:45:44Z</time></trkpt><trkpt lat="44.25943661954569" lon="11.04210618180435"><ele>599.2</ele><time>2026-05-02T08:45:45Z</time></trkpt><trkpt lat="44.25937179565724" lon="11.04199853860797"><ele>597.6</ele><time>2026-05-02T08:45:46Z</time></trkpt><trkpt lat="44.259308533981525" lon="11.041884811343904"><ele>596.0</ele><time>2026-05-02T08:45:47Z</time></trkpt><trkpt lat="44.259250450042494" lon="11.041771233291666"><ele>596.0</ele><time>2026-05-02T08:45:48Z</time></trkpt><trkpt lat="44.25920595099401" lon="11.041680498420382"><ele>596.0</ele><time>2026-05-02T08:45:49Z</time></trkpt><trkpt lat="44.25916883401694" lon="11.041597612239158"><ele>596.0</ele><time>2026-05-02T08:45:50Z</time></trkpt><trkpt lat="44.25913071438456" lon="11.041504116717991"><ele>596.0</ele><time>2026-05-02T08:45:51Z</time></trkpt><trkpt lat="44.25907539063743" lon="11.041397709521465"><ele>596.0</ele><time>2026-05-02T08:45:52Z</time></trkpt><trkpt lat="44.259057391467415" lon="11.041266912218347"><ele>596.0</ele><time>2026-05-02T08:45:53Z</time></trkpt><trkpt lat="44.25902955838143" lon="11.041140231966187"><ele>597.8</ele><time>2026-05-02T08:45:54Z</time></trkpt><trkpt lat="44.258989091143064" lon="11.04100975768565"><ele>599.6</ele><time>2026-05-02T08:45:55Z</time></trkpt><trkpt lat="44.25896114801308" lon="11.040860992286108"><ele>601.4</ele><time>2026-05-02T08:45:56Z</time></trkpt><trkpt lat="44.25892844099954" lon="11.04070762043025"><ele>603.2</ele><time>2026-05-02T08:45:57Z</time></trkpt><trkpt lat="44.258894798124274" lon="11.040558015685992"><ele>605.0</ele><time>2026-05-02T08:45:58Z</time></trkpt><trkpt lat="44.258858563473275" lon="11.040398679540091"><ele>597.4</ele><time>2026-05-02T08:45:59Z</time></trkpt><trkpt lat="44.25884567543783" lon="11.04022325718394"><ele>589.8</ele><time>2026-05-02T08:46:00Z</time></trkpt><trkpt lat="44.25883491550149" lon="11.040063856270596"><ele>582.2</ele><time>2026-05-02T08:46:01Z</time></trkpt><trkpt lat="44.258817063905546" lon="11.039912763670925"><ele>574.6</ele><time>2026-05-02T08:46:02Z</time></trkpt><trkpt lat="44.258828419851405" lon="11.039786675143418"><ele>567.0</ele><time>2026-05-02T08:46:03Z</time></trkpt><trkpt lat="44.25882893390687" lon="11.039612917675665"><ele>565.0</ele><time>2026-05-02T08:46:04Z</time></trkpt><trkpt lat="44.25885138039141" lon="11.03944395995545"><ele>563.0</ele><time>2026-05-02T08:46:05Z</time></trkpt><trkpt lat="44.258874608568526" lon="11.039297387115992"><ele>561.0</ele><time>2026-05-02T08:46:06Z</time></trkpt><trkpt lat="44.2589152111185" lon="11.03915539379243"><ele>559.0</ele><time>2026-05-02T08:46:07Z</time></trkpt><trkpt lat="44.25895580294499" lon="11.039043506347934"><ele>557.0</ele><time>2026-05-02T08:46:08Z</time></trkpt><trkpt lat="44.25899554123382" lon="11.038908953673207"><ele>562.2</ele><time>2026-05-02T08:46:09Z</time></trkpt><trkpt lat="44.25905269659456" lon="11.038788571629155"><ele>567.4000000000001</ele><time>2026-05-02T08:46:10Z</time></trkpt><trkpt lat="44.25911672193048" lon="11.038668258146522"><ele>572.5999999999999</ele><time>2026-05-02T08:46:11Z</time></trkpt><trkpt lat="44.25918757613595" lon="11.038551530194416"><ele>577.8</ele><time>2026-05-02T08:46:12Z</time></trkpt><trkpt lat="44.25926429796064" lon="11.038421799828582"><ele>583.0</ele><time>2026-05-02T08:46:13Z</time></trkpt><trkpt lat="44.25934215002783" lon="11.038288100218095"><ele>583.0</ele><time>2026-05-02T08:46:14Z</time></trkpt><trkpt lat="44.25941768387999" lon="11.038154930064168"><ele>583.0</ele><time>2026-05-02T08:46:15Z</time></trkpt><trkpt lat="44.25949442890604" lon="11.038012763509569"><ele>583.0</ele><time>2026-05-02T08:46:16Z</time></trkpt><trkpt lat="44.259572681501105" lon="11.037857790483917"><ele>583.0</ele><time>2026-05-02T08:46:17Z</time></trkpt><trkpt lat="44.25964722338846" lon="11.037700332314682"><ele>583.0</ele><time>2026-05-02T08:46:18Z</time></trkpt><trkpt lat="44.259716545494186" lon="11.037551114894459"><ele>583.0</ele><time>2026-05-02T08:46:19Z</time></trkpt><trkpt lat="44.25979580213643" lon="11.037404952787561"><ele>583.0</ele><time>2026-05-02T08:46:20Z</time></trkpt><trkpt lat="44.25988522577956" lon="11.037301462649525"><ele>583.0</ele><time>2026-05-02T08:46:21Z</time></trkpt><trkpt lat="44.25997364411677" lon="11.037199042288984"><ele>586.75</ele><time>2026-05-02T08:46:22Z</time></trkpt><trkpt lat="44.260072178184075" lon="11.037082071540144"><ele>590.5</ele><time>2026-05-02T08:46:23Z</time></trkpt><trkpt lat="44.26015668580861" lon="11.036957923033619"><ele>594.25</ele><time>2026-05-02T08:46:24Z</time></trkpt><trkpt lat="44.260244131293966" lon="11.036862165466452"><ele>598.0</ele><time>2026-05-02T08:46:25Z</time></trkpt><trkpt lat="44.260340136311996" lon="11.036769940556237"><ele>598.0</ele><time>2026-05-02T08:46:26Z</time></trkpt><trkpt lat="44.26044833860238" lon="11.036718474661113"><ele>598.0</ele><time>2026-05-02T08:46:27Z</time></trkpt><trkpt lat="44.26055800258151" lon="11.036714543178137"><ele>598.0</ele><time>2026-05-02T08:46:28Z</time></trkpt><trkpt lat="44.26065172488115" lon="11.03677359284225"><ele>598.0</ele><time>2026-05-02T08:46:29Z</time></trkpt><trkpt lat="44.26074884583176" lon="11.03677528349343"><ele>598.0</ele><time>2026-05-02T08:46:30Z</time></trkpt><trkpt lat="44.260823122349464" lon="11.036788555341158"><ele>601.1428571428571</ele><time>2026-05-02T08:46:31Z</time></trkpt><trkpt lat="44.260890503318066" lon="11.036775274118407"><ele>604.2857142857143</ele><time>2026-05-02T08:46:32Z</time></trkpt><trkpt lat="44.260961712905605" lon="11.036773682206414"><ele>607.4285714285714</ele><time>2026-05-02T08:46:33Z</time></trkpt><trkpt lat="44.26102479191482" lon="11.036749696078171"><ele>610.5714285714286</ele><time>2026-05-02T08:46:34Z</time></trkpt><trkpt lat="44.26109130670023" lon="11.03671996007577"><ele>613.7142857142857</ele><time>2026-05-02T08:46:35Z</time></trkpt><trkpt lat="44.26114985490742" lon="11.036684396190104"><ele>616.8571428571429</ele><time>2026-05-02T08:46:36Z</time></trkpt><trkpt lat="44.261244591115556" lon="11.036605563859819"><ele>620.0</ele><time>2026-05-02T08:46:38Z</time></trkpt><trkpt lat="44.26132322553105" lon="11.036520738979629"><ele>620.25</ele><time>2026-05-02T08:46:40Z</time></trkpt><trkpt lat="44.261396977082" lon="11.036390161263197"><ele>620.5</ele><time>2026-05-02T08:46:42Z</time></trkpt><trkpt lat="44.26142465980387" lon="11.036295781505327"><ele>620.75</ele><time>2026-05-02T08:46:44Z</time></trkpt><trkpt lat="44.26130887863496" lon="11.036540231456142"><ele>621.0</ele><time>2026-05-02T08:47:05Z</time></trkpt><trkpt lat="44.26125036227746" lon="11.036585387917226"><ele>621.0</ele><time>2026-05-02T08:47:06Z</time></trkpt><trkpt lat="44.2611790140058" lon="11.036597634749683"><ele>621.0</ele><time>2026-05-02T08:47:08Z</time></trkpt><trkpt lat="44.26110127876093" lon="11.036607627413375"><ele>621.0</ele><time>2026-05-02T08:47:10Z</time></trkpt><trkpt lat="44.26100044980189" lon="11.036650567680105"><ele>621.0</ele><time>2026-05-02T08:47:12Z</time></trkpt><trkpt lat="44.2608911937811" lon="11.036642163854095"><ele>621.0</ele><time>2026-05-02T08:47:14Z</time></trkpt><trkpt lat="44.260801679623" lon="11.036615482940814"><ele>621.0</ele><time>2026-05-02T08:47:16Z</time></trkpt><trkpt lat="44.26072263915511" lon="11.036571798661479"><ele>621.0</ele><time>2026-05-02T08:47:18Z</time></trkpt><trkpt lat="44.26063579861086" lon="11.036529660260333"><ele>621.0</ele><time>2026-05-02T08:47:20Z</time></trkpt><trkpt lat="44.26053639979868" lon="11.036475096518435"><ele>621.0</ele><time>2026-05-02T08:47:21.999Z</time></trkpt><trkpt lat="44.260456627374424" lon="11.036418707769585"><ele>621.0</ele><time>2026-05-02T08:47:23.999Z</time></trkpt><trkpt lat="44.26036997510787" lon="11.036387338928783"><ele>618.4285714285713</ele><time>2026-05-02T08:47:25.999Z</time></trkpt><trkpt lat="44.26028673080958" lon="11.036374209962055"><ele>615.8571428571429</ele><time>2026-05-02T08:47:27.999Z</time></trkpt><trkpt lat="44.260222663732364" lon="11.036371906144751"><ele>613.2857142857142</ele><time>2026-05-02T08:47:29.999Z</time></trkpt><trkpt lat="44.260154010168584" lon="11.036344153413278"><ele>610.7142857142857</ele><time>2026-05-02T08:47:35.999Z</time></trkpt><trkpt lat="44.26021767488798" lon="11.036275787329277"><ele>608.1428571428571</ele><time>2026-05-02T08:56:12.999Z</time></trkpt><trkpt lat="44.26017736303061" lon="11.036203021640636"><ele>605.5714285714286</ele><time>2026-05-02T08:57:46Z</time></trkpt><trkpt lat="44.260128897132006" lon="11.036289946630408"><ele>603.0</ele><time>2026-05-02T08:58:45Z</time></trkpt><trkpt lat="44.260133143970755" lon="11.036387819662556"><ele>603.0</ele><time>2026-05-02T09:03:41.001Z</time></trkpt><trkpt lat="44.26010245181419" lon="11.036250191379883"><ele>603.0</ele><time>2026-05-02T09:20:13Z</time></trkpt><trkpt lat="44.260125656669864" lon="11.03636205012664"><ele>603.0</ele><time>2026-05-02T09:23:35Z</time></trkpt><trkpt lat="44.26019267914667" lon="11.036352058708086"><ele>603.0</ele><time>2026-05-02T09:27:13Z</time></trkpt><trkpt lat="44.26011572215143" lon="11.036389174199282"><ele>603.0</ele><time>2026-05-02T09:28:27Z</time></trkpt><trkpt lat="44.26004693413763" lon="11.036396578533747"><ele>603.0</ele><time>2026-05-02T09:28:30Z</time></trkpt><trkpt lat="44.25997615255445" lon="11.036384119623257"><ele>603.0</ele><time>2026-05-02T09:28:46Z</time></trkpt><trkpt lat="44.25990209721073" lon="11.036401902650512"><ele>603.0</ele><time>2026-05-02T09:28:56Z</time></trkpt><trkpt lat="44.25983550169187" lon="11.036433029914658"><ele>603.0</ele><time>2026-05-02T09:28:59Z</time></trkpt><trkpt lat="44.25975058419815" lon="11.036425605159087"><ele>603.0</ele><time>2026-05-02T09:29:03Z</time></trkpt><trkpt lat="44.25967809828967" lon="11.036429519081567"><ele>603.0</ele><time>2026-05-02T09:29:05Z</time></trkpt><trkpt lat="44.25961547994627" lon="11.036468397272525"><ele>603.0</ele><time>2026-05-02T09:29:07Z</time></trkpt><trkpt lat="44.259623294647376" lon="11.036575309480279"><ele>603.0</ele><time>2026-05-02T09:29:10Z</time></trkpt><trkpt lat="44.25965259626164" lon="11.036682963455572"><ele>597.6666666666666</ele><time>2026-05-02T09:29:12Z</time></trkpt><trkpt lat="44.259649042205595" lon="11.036828493738582"><ele>592.3333333333334</ele><time>2026-05-02T09:29:14Z</time></trkpt><trkpt lat="44.2596377251379" lon="11.036961902161172"><ele>587.0</ele><time>2026-05-02T09:29:17.999Z</time></trkpt><trkpt lat="44.25960760147914" lon="11.037054850387243"><ele>581.6666666666667</ele><time>2026-05-02T09:29:19.999Z</time></trkpt><trkpt lat="44.2595343734675" lon="11.037109425654082"><ele>576.3333333333334</ele><time>2026-05-02T09:29:21.999Z</time></trkpt><trkpt lat="44.25945315845203" lon="11.037164669020605"><ele>571.0</ele><time>2026-05-02T09:29:22.999Z</time></trkpt><trkpt lat="44.259376909544216" lon="11.03723464512417"><ele>571.0</ele><time>2026-05-02T09:29:23.999Z</time></trkpt><trkpt lat="44.25930419622923" lon="11.037322286640915"><ele>571.0</ele><time>2026-05-02T09:29:24.999Z</time></trkpt><trkpt lat="44.2592109196983" lon="11.037418615826061"><ele>571.0</ele><time>2026-05-02T09:29:26.999Z</time></trkpt><trkpt lat="44.2591365952334" lon="11.037513258791458"><ele>571.0</ele><time>2026-05-02T09:29:29Z</time></trkpt><trkpt lat="44.25910495081083" lon="11.03762641109533"><ele>571.0</ele><time>2026-05-02T09:29:31Z</time></trkpt><trkpt lat="44.259078132311885" lon="11.037708501869623"><ele>573.0</ele><time>2026-05-02T09:29:32Z</time></trkpt><trkpt lat="44.259049249514426" lon="11.037791939457003"><ele>575.0</ele><time>2026-05-02T09:29:34Z</time></trkpt><trkpt lat="44.25901403749045" lon="11.03788176985044"><ele>577.0</ele><time>2026-05-02T09:29:38Z</time></trkpt><trkpt lat="44.25896242706923" lon="11.037980110179834"><ele>579.0</ele><time>2026-05-02T09:29:42Z</time></trkpt><trkpt lat="44.258928171720854" lon="11.038073174031648"><ele>581.0</ele><time>2026-05-02T09:29:44Z</time></trkpt><trkpt lat="44.2589045503839" lon="11.038173665953945"><ele>583.0</ele><time>2026-05-02T09:29:46Z</time></trkpt><trkpt lat="44.25886342069558" lon="11.038256229855499"><ele>577.3333333333334</ele><time>2026-05-02T09:29:47Z</time></trkpt><trkpt lat="44.2588421534583" lon="11.038406775142745"><ele>571.6666666666667</ele><time>2026-05-02T09:29:48Z</time></trkpt><trkpt lat="44.258811381329664" lon="11.038498397508919"><ele>566.0</ele><time>2026-05-02T09:29:49Z</time></trkpt><trkpt lat="44.25877423859362" lon="11.038643931613521"><ele>560.3333333333334</ele><time>2026-05-02T09:29:51Z</time></trkpt><trkpt lat="44.258754171966046" lon="11.038763635487193"><ele>554.6666666666666</ele><time>2026-05-02T09:29:54Z</time></trkpt><trkpt lat="44.258744145046975" lon="11.038853852119992"><ele>549.0</ele><time>2026-05-02T09:30:00Z</time></trkpt><trkpt lat="44.25868765526183" lon="11.039031162414377"><ele>549.0</ele><time>2026-05-02T09:30:02Z</time></trkpt><trkpt lat="44.258657790305136" lon="11.039116595567002"><ele>549.0</ele><time>2026-05-02T09:30:03Z</time></trkpt><trkpt lat="44.258797714344055" lon="11.039285071136781"><ele>549.0</ele><time>2026-05-02T09:30:04Z</time></trkpt><trkpt lat="44.25877870436462" lon="11.039415883975218"><ele>549.0</ele><time>2026-05-02T09:30:06Z</time></trkpt><trkpt lat="44.258764846419446" lon="11.039571100462622"><ele>551.0</ele><time>2026-05-02T09:30:08Z</time></trkpt><trkpt lat="44.258761568406406" lon="11.039721543858379"><ele>553.0</ele><time>2026-05-02T09:30:09Z</time></trkpt><trkpt lat="44.25875907738693" lon="11.039876371228425"><ele>555.0</ele><time>2026-05-02T09:30:10Z</time></trkpt><trkpt lat="44.25875957081481" lon="11.040024100484363"><ele>557.0</ele><time>2026-05-02T09:30:12Z</time></trkpt><trkpt lat="44.25876943435317" lon="11.040216288675337"><ele>559.0</ele><time>2026-05-02T09:30:14Z</time></trkpt><trkpt lat="44.25878705531938" lon="11.040363212107657"><ele>561.0</ele><time>2026-05-02T09:30:15Z</time></trkpt><trkpt lat="44.25882692455094" lon="11.04053199177392"><ele>563.0</ele><time>2026-05-02T09:30:16Z</time></trkpt><trkpt lat="44.25885128131997" lon="11.040642229256802"><ele>565.0</ele><time>2026-05-02T09:30:17Z</time></trkpt><trkpt lat="44.258870081532805" lon="11.040735179497508"><ele>567.0</ele><time>2026-05-02T09:30:18Z</time></trkpt><trkpt lat="44.258915957298626" lon="11.040852989504414"><ele>573.3333333333334</ele><time>2026-05-02T09:30:20Z</time></trkpt><trkpt lat="44.25895468657475" lon="11.040939995673027"><ele>579.6666666666666</ele><time>2026-05-02T09:30:23Z</time></trkpt><trkpt lat="44.25898465282528" lon="11.041089276507881"><ele>586.0</ele><time>2026-05-02T09:30:25Z</time></trkpt><trkpt lat="44.25900769279368" lon="11.041199584642447"><ele>592.3333333333333</ele><time>2026-05-02T09:30:26Z</time></trkpt><trkpt lat="44.25903293668547" lon="11.041311866729826"><ele>598.6666666666666</ele><time>2026-05-02T09:30:27Z</time></trkpt><trkpt lat="44.25905983942811" lon="11.041408648242903"><ele>605.0</ele><time>2026-05-02T09:30:28Z</time></trkpt><trkpt lat="44.25909060153046" lon="11.041503609409702"><ele>605.0</ele><time>2026-05-02T09:30:29Z</time></trkpt><trkpt lat="44.25913870380789" lon="11.04161796614179"><ele>605.0</ele><time>2026-05-02T09:30:30Z</time></trkpt><trkpt lat="44.25919154676375" lon="11.041733753755024"><ele>605.0</ele><time>2026-05-02T09:30:31Z</time></trkpt><trkpt lat="44.25924777151083" lon="11.041846860648235"><ele>605.0</ele><time>2026-05-02T09:30:32Z</time></trkpt><trkpt lat="44.25930935999509" lon="11.041964725058419"><ele>605.0</ele><time>2026-05-02T09:30:33Z</time></trkpt><trkpt lat="44.25937079359707" lon="11.042068771968262"><ele>604.8</ele><time>2026-05-02T09:30:34Z</time></trkpt><trkpt lat="44.259431338711835" lon="11.042166312598505"><ele>604.6</ele><time>2026-05-02T09:30:35Z</time></trkpt><trkpt lat="44.25950477375212" lon="11.042267499606531"><ele>604.4</ele><time>2026-05-02T09:30:36Z</time></trkpt><trkpt lat="44.25960013725939" lon="11.04236423575853"><ele>604.2</ele><time>2026-05-02T09:30:37Z</time></trkpt><trkpt lat="44.25969039759342" lon="11.04242885447513"><ele>604.0</ele><time>2026-05-02T09:30:38Z</time></trkpt><trkpt lat="44.259806611558496" lon="11.04238036763104"><ele>604.0</ele><time>2026-05-02T09:30:39Z</time></trkpt><trkpt lat="44.25989493671679" lon="11.042304621125702"><ele>604.0</ele><time>2026-05-02T09:30:40Z</time></trkpt><trkpt lat="44.259985867631016" lon="11.042199623857847"><ele>604.0</ele><time>2026-05-02T09:30:41Z</time></trkpt><trkpt lat="44.26008482376069" lon="11.042148866509036"><ele>604.0</ele><time>2026-05-02T09:30:42Z</time></trkpt><trkpt lat="44.26018385231471" lon="11.042102388381137"><ele>604.0</ele><time>2026-05-02T09:30:43Z</time></trkpt><trkpt lat="44.26029541104891" lon="11.042103333625526"><ele>604.0</ele><time>2026-05-02T09:30:44Z</time></trkpt><trkpt lat="44.2603903212716" lon="11.04214244750469"><ele>604.0</ele><time>2026-05-02T09:30:45Z</time></trkpt><trkpt lat="44.26047086772469" lon="11.042247258493013"><ele>604.0</ele><time>2026-05-02T09:30:46Z</time></trkpt><trkpt lat="44.260544474683094" lon="11.042346805854956"><ele>604.0</ele><time>2026-05-02T09:30:47Z</time></trkpt><trkpt lat="44.260607709872794" lon="11.04248217957578"><ele>604.0</ele><time>2026-05-02T09:30:48Z</time></trkpt><trkpt lat="44.26064018856663" lon="11.042639908963075"><ele>600.8</ele><time>2026-05-02T09:30:49Z</time></trkpt><trkpt lat="44.260651617399624" lon="11.042784378729063"><ele>597.5999999999999</ele><time>2026-05-02T09:30:50Z</time></trkpt><trkpt lat="44.26066231598605" lon="11.042938338114391"><ele>594.4</ele><time>2026-05-02T09:30:51Z</time></trkpt><trkpt lat="44.26067509516685" lon="11.043082527277909"><ele>591.1999999999999</ele><time>2026-05-02T09:30:52Z</time></trkpt><trkpt lat="44.260690247620055" lon="11.043255307438557"><ele>588.0</ele><time>2026-05-02T09:30:53Z</time></trkpt><trkpt lat="44.260694852430106" lon="11.04345182343896"><ele>586.25</ele><time>2026-05-02T09:30:54Z</time></trkpt><trkpt lat="44.26070441039312" lon="11.043654378700658"><ele>584.5</ele><time>2026-05-02T09:30:55Z</time></trkpt><trkpt lat="44.26069327456032" lon="11.043863931922509"><ele>582.75</ele><time>2026-05-02T09:30:56Z</time></trkpt><trkpt lat="44.26066551297577" lon="11.044053304918444"><ele>581.0</ele><time>2026-05-02T09:30:57Z</time></trkpt><trkpt lat="44.260621056685736" lon="11.044215181619931"><ele>580.0</ele><time>2026-05-02T09:30:58Z</time></trkpt><trkpt lat="44.26059153327321" lon="11.044363736519056"><ele>579.0</ele><time>2026-05-02T09:30:59Z</time></trkpt><trkpt lat="44.260575752420166" lon="11.044504275487743"><ele>578.0</ele><time>2026-05-02T09:31:00Z</time></trkpt><trkpt lat="44.26063969087082" lon="11.044638238682872"><ele>577.0</ele><time>2026-05-02T09:31:01Z</time></trkpt><trkpt lat="44.26071516220289" lon="11.044759235473158"><ele>576.0</ele><time>2026-05-02T09:31:02Z</time></trkpt><trkpt lat="44.260808399374746" lon="11.04488655132217"><ele>572.0</ele><time>2026-05-02T09:31:03Z</time></trkpt><trkpt lat="44.260879277028245" lon="11.04503738050812"><ele>568.0</ele><time>2026-05-02T09:31:04Z</time></trkpt><trkpt lat="44.26094913863839" lon="11.045165289811576"><ele>564.0</ele><time>2026-05-02T09:31:05Z</time></trkpt><trkpt lat="44.26105372074432" lon="11.045257329486352"><ele>560.0</ele><time>2026-05-02T09:31:06Z</time></trkpt><trkpt lat="44.26117990468865" lon="11.045335646280527"><ele>560.0</ele><time>2026-05-02T09:31:07Z</time></trkpt><trkpt lat="44.26134762165106" lon="11.045351846408606"><ele>560.0</ele><time>2026-05-02T09:31:08Z</time></trkpt><trkpt lat="44.26149312500092" lon="11.045321480882299"><ele>560.0</ele><time>2026-05-02T09:31:09Z</time></trkpt><trkpt lat="44.26161356646746" lon="11.045295452430537"><ele>560.0</ele><time>2026-05-02T09:31:10Z</time></trkpt><trkpt lat="44.26170894364269" lon="11.045287969115106"><ele>561.2</ele><time>2026-05-02T09:31:11Z</time></trkpt><trkpt lat="44.26178519792091" lon="11.045300282803447"><ele>562.4</ele><time>2026-05-02T09:31:12Z</time></trkpt><trkpt lat="44.26181722327792" lon="11.045411860284474"><ele>563.6</ele><time>2026-05-02T09:31:13Z</time></trkpt><trkpt lat="44.26180759245233" lon="11.045545288035278"><ele>564.8</ele><time>2026-05-02T09:31:14Z</time></trkpt><trkpt lat="44.26176332516476" lon="11.045639760231406"><ele>566.0</ele><time>2026-05-02T09:31:15Z</time></trkpt><trkpt lat="44.261637347536144" lon="11.045654893043832"><ele>566.0</ele><time>2026-05-02T09:31:16Z</time></trkpt><trkpt lat="44.26151310705765" lon="11.04572653272486"><ele>566.0</ele><time>2026-05-02T09:31:17Z</time></trkpt><trkpt lat="44.261381545493435" lon="11.045806505085135"><ele>566.0</ele><time>2026-05-02T09:31:18Z</time></trkpt><trkpt lat="44.261264092967394" lon="11.045898395352964"><ele>566.0</ele><time>2026-05-02T09:31:19Z</time></trkpt><trkpt lat="44.26115745115105" lon="11.045988108077545"><ele>563.25</ele><time>2026-05-02T09:31:20Z</time></trkpt><trkpt lat="44.26103940054075" lon="11.046049220612314"><ele>560.5</ele><time>2026-05-02T09:31:21Z</time></trkpt><trkpt lat="44.26090586900516" lon="11.046098976829414"><ele>557.75</ele><time>2026-05-02T09:31:22Z</time></trkpt><trkpt lat="44.26078752713667" lon="11.04614936416408"><ele>555.0</ele><time>2026-05-02T09:31:23Z</time></trkpt><trkpt lat="44.26066886489506" lon="11.046172295743748"><ele>551.6</ele><time>2026-05-02T09:31:24Z</time></trkpt><trkpt lat="44.260562457859145" lon="11.04621247865884"><ele>548.2</ele><time>2026-05-02T09:31:25Z</time></trkpt><trkpt lat="44.26045955295667" lon="11.046259617905068"><ele>544.8</ele><time>2026-05-02T09:31:26Z</time></trkpt><trkpt lat="44.260362201063074" lon="11.04633257055491"><ele>541.4</ele><time>2026-05-02T09:31:27Z</time></trkpt><trkpt lat="44.260276413193886" lon="11.0464450803763"><ele>538.0</ele><time>2026-05-02T09:31:28Z</time></trkpt><trkpt lat="44.260175928817354" lon="11.046533051308382"><ele>538.0</ele><time>2026-05-02T09:31:29Z</time></trkpt><trkpt lat="44.26009065678693" lon="11.046626992717112"><ele>538.0</ele><time>2026-05-02T09:31:30Z</time></trkpt><trkpt lat="44.26001034601718" lon="11.046715269732731"><ele>538.0</ele><time>2026-05-02T09:31:31Z</time></trkpt><trkpt lat="44.25992816884271" lon="11.046802620375026"><ele>538.0</ele><time>2026-05-02T09:31:32Z</time></trkpt><trkpt lat="44.25985595412609" lon="11.046879381368784"><ele>538.0</ele><time>2026-05-02T09:31:33Z</time></trkpt><trkpt lat="44.25978173090655" lon="11.046958288544305"><ele>532.0</ele><time>2026-05-02T09:31:34Z</time></trkpt><trkpt lat="44.259712859684" lon="11.047035692478847"><ele>526.0</ele><time>2026-05-02T09:31:35Z</time></trkpt><trkpt lat="44.25965304846107" lon="11.047102913938895"><ele>520.0</ele><time>2026-05-02T09:31:36Z</time></trkpt><trkpt lat="44.25949870264913" lon="11.04727594765385"><ele>514.0</ele><time>2026-05-02T09:31:37Z</time></trkpt><trkpt lat="44.2593962383113" lon="11.047388738760025"><ele>519.75</ele><time>2026-05-02T09:31:38Z</time></trkpt><trkpt lat="44.25929904165168" lon="11.047494089666253"><ele>525.5</ele><time>2026-05-02T09:31:39Z</time></trkpt><trkpt lat="44.2592063389915" lon="11.047594835837174"><ele>531.25</ele><time>2026-05-02T09:31:40Z</time></trkpt><trkpt lat="44.25912551707617" lon="11.047712751123095"><ele>537.0</ele><time>2026-05-02T09:31:41Z</time></trkpt><trkpt lat="44.259026846552345" lon="11.047817039896708"><ele>532.2</ele><time>2026-05-02T09:31:42Z</time></trkpt><trkpt lat="44.25894070256832" lon="11.04792064625605"><ele>527.4000000000001</ele><time>2026-05-02T09:31:43Z</time></trkpt><trkpt lat="44.25886204477394" lon="11.048007952645326"><ele>522.5999999999999</ele><time>2026-05-02T09:31:44Z</time></trkpt><trkpt lat="44.25878983528424" lon="11.048110244830319"><ele>517.8</ele><time>2026-05-02T09:31:45Z</time></trkpt><trkpt lat="44.258732900174344" lon="11.048229880896612"><ele>513.0</ele><time>2026-05-02T09:31:46Z</time></trkpt><trkpt lat="44.25869548480199" lon="11.048371273792098"><ele>513.0</ele><time>2026-05-02T09:31:47Z</time></trkpt><trkpt lat="44.258673224191234" lon="11.048526313019735"><ele>513.0</ele><time>2026-05-02T09:31:48Z</time></trkpt><trkpt lat="44.258653561432226" lon="11.048676783261199"><ele>513.0</ele><time>2026-05-02T09:31:49Z</time></trkpt><trkpt lat="44.25862098629257" lon="11.048836020392452"><ele>513.0</ele><time>2026-05-02T09:31:50Z</time></trkpt><trkpt lat="44.25859454342445" lon="11.049011768960634"><ele>514.5</ele><time>2026-05-02T09:31:51Z</time></trkpt><trkpt lat="44.258581735757964" lon="11.04918042275055"><ele>516.0</ele><time>2026-05-02T09:31:52Z</time></trkpt><trkpt lat="44.25858109418774" lon="11.049356142905612"><ele>517.5</ele><time>2026-05-02T09:31:53Z</time></trkpt><trkpt lat="44.25856757847684" lon="11.04951910416952"><ele>519.0</ele><time>2026-05-02T09:31:54Z</time></trkpt><trkpt lat="44.25852611316277" lon="11.049647930932856"><ele>519.0</ele><time>2026-05-02T09:31:55Z</time></trkpt><trkpt lat="44.258470620127" lon="11.049788921284161"><ele>519.0</ele><time>2026-05-02T09:31:56Z</time></trkpt><trkpt lat="44.25842771028373" lon="11.049911490366787"><ele>519.0</ele><time>2026-05-02T09:31:57Z</time></trkpt><trkpt lat="44.25844164900959" lon="11.050058503854185"><ele>519.0</ele><time>2026-05-02T09:31:58Z</time></trkpt><trkpt lat="44.25848944907089" lon="11.050198068900714"><ele>519.0</ele><time>2026-05-02T09:31:59Z</time></trkpt><trkpt lat="44.25853430609784" lon="11.050314918823236"><ele>519.0</ele><time>2026-05-02T09:32:00Z</time></trkpt><trkpt lat="44.2585181522953" lon="11.050433272428268"><ele>519.0</ele><time>2026-05-02T09:32:01Z</time></trkpt><trkpt lat="44.25847945356856" lon="11.050523180495022"><ele>519.0</ele><time>2026-05-02T09:32:02Z</time></trkpt><trkpt lat="44.2584549303937" lon="11.050438779719817"><ele>519.0</ele><time>2026-05-02T09:32:06Z</time></trkpt><trkpt lat="44.25842733464735" lon="11.050326584910461"><ele>519.0</ele><time>2026-05-02T09:32:07Z</time></trkpt><trkpt lat="44.25841878057879" lon="11.050203070452897"><ele>519.0</ele><time>2026-05-02T09:32:08Z</time></trkpt><trkpt lat="44.25836885894526" lon="11.049981703903923"><ele>519.0</ele><time>2026-05-02T09:32:09Z</time></trkpt><trkpt lat="44.258341120908206" lon="11.049844285357466"><ele>519.0</ele><time>2026-05-02T09:32:10Z</time></trkpt><trkpt lat="44.25832223293445" lon="11.049716358011315"><ele>519.0</ele><time>2026-05-02T09:32:11Z</time></trkpt><trkpt lat="44.258287352848306" lon="11.049597842238086"><ele>519.0</ele><time>2026-05-02T09:32:12Z</time></trkpt><trkpt lat="44.25824021110264" lon="11.049472601046483"><ele>519.0</ele><time>2026-05-02T09:32:13Z</time></trkpt><trkpt lat="44.258186140247055" lon="11.049351461645298"><ele>513.5</ele><time>2026-05-02T09:32:14Z</time></trkpt><trkpt lat="44.25810600856059" lon="11.049258686726054"><ele>508.0</ele><time>2026-05-02T09:32:15Z</time></trkpt><trkpt lat="44.258030260782334" lon="11.049189356441387"><ele>502.5</ele><time>2026-05-02T09:32:16Z</time></trkpt><trkpt lat="44.257985695223866" lon="11.049088029292772"><ele>497.0</ele><time>2026-05-02T09:32:17Z</time></trkpt><trkpt lat="44.25793227615461" lon="11.049004560862185"><ele>491.5</ele><time>2026-05-02T09:32:18Z</time></trkpt><trkpt lat="44.257889304047254" lon="11.048923126719437"><ele>486.0</ele><time>2026-05-02T09:32:19Z</time></trkpt><trkpt lat="44.25789203147392" lon="11.048816822831846"><ele>485.6</ele><time>2026-05-02T09:32:20Z</time></trkpt><trkpt lat="44.25792048734151" lon="11.048700060820495"><ele>485.20000000000005</ele><time>2026-05-02T09:32:21Z</time></trkpt><trkpt lat="44.25796340989927" lon="11.048570510490498"><ele>484.79999999999995</ele><time>2026-05-02T09:32:22Z</time></trkpt><trkpt lat="44.258010481929986" lon="11.04844629783913"><ele>484.4</ele><time>2026-05-02T09:32:23Z</time></trkpt><trkpt lat="44.25802569909248" lon="11.048336397991383"><ele>484.0</ele><time>2026-05-02T09:32:24Z</time></trkpt><trkpt lat="44.25800896914331" lon="11.048227012697785"><ele>484.0</ele><time>2026-05-02T09:32:25Z</time></trkpt><trkpt lat="44.257998767816815" lon="11.04807460190734"><ele>484.0</ele><time>2026-05-02T09:32:26Z</time></trkpt><trkpt lat="44.25800660925979" lon="11.047939580025622"><ele>484.0</ele><time>2026-05-02T09:32:27Z</time></trkpt><trkpt lat="44.258034610374224" lon="11.047812899815346"><ele>484.0</ele><time>2026-05-02T09:32:28Z</time></trkpt><trkpt lat="44.25805503203192" lon="11.047664730902913"><ele>484.0</ele><time>2026-05-02T09:32:29Z</time></trkpt><trkpt lat="44.25806901832775" lon="11.047522739183252"><ele>485.0</ele><time>2026-05-02T09:32:30Z</time></trkpt><trkpt lat="44.258085368391725" lon="11.047381361044355"><ele>486.0</ele><time>2026-05-02T09:32:31Z</time></trkpt><trkpt lat="44.2580911543499" lon="11.047250448107278"><ele>487.0</ele><time>2026-05-02T09:32:32Z</time></trkpt><trkpt lat="44.258110535557606" lon="11.047131015125471"><ele>488.0</ele><time>2026-05-02T09:32:33Z</time></trkpt><trkpt lat="44.258127105611" lon="11.047040188321292"><ele>489.0</ele><time>2026-05-02T09:32:34Z</time></trkpt><trkpt lat="44.25811252480668" lon="11.0469000642153"><ele>489.0</ele><time>2026-05-02T09:32:36Z</time></trkpt><trkpt lat="44.25804932939908" lon="11.046841621854732"><ele>489.0</ele><time>2026-05-02T09:32:37Z</time></trkpt><trkpt lat="44.25795328062079" lon="11.04686802108883"><ele>489.0</ele><time>2026-05-02T09:32:38Z</time></trkpt><trkpt lat="44.25787166185663" lon="11.046961994372024"><ele>489.0</ele><time>2026-05-02T09:32:39Z</time></trkpt><trkpt lat="44.257806121091825" lon="11.047027108324261"><ele>489.0</ele><time>2026-05-02T09:32:40Z</time></trkpt><trkpt lat="44.257739857524754" lon="11.047064005538807"><ele>489.0</ele><time>2026-05-02T09:32:41Z</time></trkpt><trkpt lat="44.25767370081116" lon="11.047070087683053"><ele>489.0</ele><time>2026-05-02T09:32:42Z</time></trkpt><trkpt lat="44.257602663790585" lon="11.047076642973654"><ele>489.0</ele><time>2026-05-02T09:32:43Z</time></trkpt><trkpt lat="44.25753660035705" lon="11.047079383080039"><ele>489.0</ele><time>2026-05-02T09:32:44Z</time></trkpt><trkpt lat="44.257463541519584" lon="11.047071620868238"><ele>489.0</ele><time>2026-05-02T09:32:46Z</time></trkpt><trkpt lat="44.2573941912098" lon="11.047082079286263"><ele>489.0</ele><time>2026-05-02T09:32:48Z</time></trkpt><trkpt lat="44.257310895730754" lon="11.047101741978041"><ele>489.0</ele><time>2026-05-02T09:32:50Z</time></trkpt><trkpt lat="44.25731454263702" lon="11.047533911992762"><ele>488.1666666666667</ele><time>2026-05-02T09:32:53Z</time></trkpt><trkpt lat="44.25731114638324" lon="11.047636954108343"><ele>487.33333333333337</ele><time>2026-05-02T09:32:55Z</time></trkpt><trkpt lat="44.25732134599627" lon="11.04780088493469"><ele>486.5</ele><time>2026-05-02T09:33:10Z</time></trkpt><trkpt lat="44.25732534125259" lon="11.04789470605032"><ele>485.6666666666667</ele><time>2026-05-02T09:33:11Z</time></trkpt><trkpt lat="44.257307283280156" lon="11.048018679937288"><ele>484.83333333333337</ele><time>2026-05-02T09:33:12Z</time></trkpt><trkpt lat="44.257269496948624" lon="11.048099551822087"><ele>484.0</ele><time>2026-05-02T09:33:13Z</time></trkpt><trkpt lat="44.257202494626966" lon="11.048191095582014"><ele>481.4</ele><time>2026-05-02T09:33:14Z</time></trkpt><trkpt lat="44.25715429749569" lon="11.048294863307822"><ele>478.79999999999995</ele><time>2026-05-02T09:33:15Z</time></trkpt><trkpt lat="44.25710849345256" lon="11.048426885535399"><ele>476.20000000000005</ele><time>2026-05-02T09:33:16Z</time></trkpt><trkpt lat="44.25704679091421" lon="11.0485523391586"><ele>473.6</ele><time>2026-05-02T09:33:17Z</time></trkpt><trkpt lat="44.25698022313641" lon="11.048650230571617"><ele>471.0</ele><time>2026-05-02T09:33:18Z</time></trkpt><trkpt lat="44.25694571416495" lon="11.048728042145262"><ele>471.0</ele><time>2026-05-02T09:33:19Z</time></trkpt><trkpt lat="44.25693789557592" lon="11.048822942317484"><ele>471.0</ele><time>2026-05-02T09:33:20Z</time></trkpt><trkpt lat="44.25692406333518" lon="11.049007705099491"><ele>471.0</ele><time>2026-05-02T09:33:22Z</time></trkpt><trkpt lat="44.256876148157374" lon="11.049158957954686"><ele>471.0</ele><time>2026-05-02T09:33:24Z</time></trkpt><trkpt lat="44.25686875748219" lon="11.049369091603758"><ele>470.0</ele><time>2026-05-02T09:33:26Z</time></trkpt><trkpt lat="44.256850023634804" lon="11.049516255801862"><ele>469.0</ele><time>2026-05-02T09:33:27Z</time></trkpt><trkpt lat="44.25683305847615" lon="11.049643288139029"><ele>468.0</ele><time>2026-05-02T09:33:28Z</time></trkpt><trkpt lat="44.256784549137485" lon="11.049735790725904"><ele>467.0</ele><time>2026-05-02T09:33:29Z</time></trkpt><trkpt lat="44.25672544816265" lon="11.049834444085109"><ele>466.0</ele><time>2026-05-02T09:33:30Z</time></trkpt><trkpt lat="44.256677793962865" lon="11.049993780534074"><ele>466.00000000000006</ele><time>2026-05-02T09:33:31Z</time></trkpt><trkpt lat="44.256642757009345" lon="11.050089366418113"><ele>466.0</ele><time>2026-05-02T09:33:32Z</time></trkpt><trkpt lat="44.256596829566675" lon="11.050184903649061"><ele>466.0</ele><time>2026-05-02T09:33:33Z</time></trkpt><trkpt lat="44.256567202713484" lon="11.050304500884844"><ele>466.0</ele><time>2026-05-02T09:33:34Z</time></trkpt><trkpt lat="44.256541312058744" lon="11.050388814805785"><ele>466.00000000000006</ele><time>2026-05-02T09:33:35Z</time></trkpt><trkpt lat="44.25651354083656" lon="11.050471119455485"><ele>466.0</ele><time>2026-05-02T09:33:36Z</time></trkpt><trkpt lat="44.25650884808809" lon="11.050580966643807"><ele>466.0</ele><time>2026-05-02T09:33:38Z</time></trkpt><trkpt lat="44.25661473232328" lon="11.050708862739507"><ele>466.0</ele><time>2026-05-02T09:33:40Z</time></trkpt><trkpt lat="44.256681221326694" lon="11.05082476836235"><ele>466.0</ele><time>2026-05-02T09:33:41Z</time></trkpt><trkpt lat="44.25674902708438" lon="11.050994431131317"><ele>466.0</ele><time>2026-05-02T09:33:42Z</time></trkpt><trkpt lat="44.25682127416173" lon="11.051149853698734"><ele>465.6666666666667</ele><time>2026-05-02T09:33:43Z</time></trkpt><trkpt lat="44.25691353539069" lon="11.051326306489889"><ele>465.33333333333337</ele><time>2026-05-02T09:33:44Z</time></trkpt><trkpt lat="44.25702544740187" lon="11.05149535953366"><ele>465.0</ele><time>2026-05-02T09:33:45Z</time></trkpt><trkpt lat="44.25714451922573" lon="11.051654893591719"><ele>463.5</ele><time>2026-05-02T09:33:46Z</time></trkpt><trkpt lat="44.25725432510277" lon="11.051812715179695"><ele>462.0</ele><time>2026-05-02T09:33:47Z</time></trkpt><trkpt lat="44.257319504779055" lon="11.051933226964456"><ele>460.5</ele><time>2026-05-02T09:33:48Z</time></trkpt><trkpt lat="44.25734960769326" lon="11.052075299204226"><ele>459.0</ele><time>2026-05-02T09:33:49Z</time></trkpt><trkpt lat="44.25739085709254" lon="11.052251015557138"><ele>463.75</ele><time>2026-05-02T09:33:50Z</time></trkpt><trkpt lat="44.2574606156172" lon="11.052424954430162"><ele>468.5</ele><time>2026-05-02T09:33:51Z</time></trkpt><trkpt lat="44.25751208081603" lon="11.052561010989114"><ele>473.25</ele><time>2026-05-02T09:33:52Z</time></trkpt><trkpt lat="44.257545139533555" lon="11.052737284468305"><ele>478.0</ele><time>2026-05-02T09:33:53Z</time></trkpt><trkpt lat="44.25757233204186" lon="11.05286961836094"><ele>478.00000000000006</ele><time>2026-05-02T09:33:54Z</time></trkpt><trkpt lat="44.257615947615285" lon="11.052954635741163"><ele>478.0</ele><time>2026-05-02T09:33:55Z</time></trkpt><trkpt lat="44.257672126396365" lon="11.053026908305123"><ele>478.0</ele><time>2026-05-02T09:33:56Z</time></trkpt><trkpt lat="44.25773598468961" lon="11.05312675233307"><ele>478.0</ele><time>2026-05-02T09:33:57Z</time></trkpt><trkpt lat="44.25779044534333" lon="11.053238251525253"><ele>478.00000000000006</ele><time>2026-05-02T09:33:58Z</time></trkpt><trkpt lat="44.25782610138611" lon="11.053364090658697"><ele>478.0</ele><time>2026-05-02T09:33:59Z</time></trkpt><trkpt lat="44.25783852610578" lon="11.053473783320996"><ele>475.6666666666667</ele><time>2026-05-02T09:34:00Z</time></trkpt><trkpt lat="44.2578468216874" lon="11.053568462378712"><ele>473.33333333333337</ele><time>2026-05-02T09:34:01Z</time></trkpt><trkpt lat="44.25792060519797" lon="11.053661854222325"><ele>471.0</ele><time>2026-05-02T09:34:03Z</time></trkpt><trkpt lat="44.257974867396314" lon="11.053727715452533"><ele>468.66666666666663</ele><time>2026-05-02T09:34:05Z</time></trkpt><trkpt lat="44.25790547348092" lon="11.053758563301683"><ele>466.3333333333333</ele><time>2026-05-02T09:34:07Z</time></trkpt><trkpt lat="44.257829802360156" lon="11.053694592712834"><ele>464.0</ele><time>2026-05-02T09:34:09Z</time></trkpt><trkpt lat="44.2577406302949" lon="11.053685856649057"><ele>464.0</ele><time>2026-05-02T09:34:11Z</time></trkpt><trkpt lat="44.257656670859326" lon="11.053721248424182"><ele>464.0</ele><time>2026-05-02T09:34:13Z</time></trkpt><trkpt lat="44.2575767756766" lon="11.05380782219572"><ele>464.0</ele><time>2026-05-02T09:34:15Z</time></trkpt><trkpt lat="44.25755540296533" lon="11.053959614094401"><ele>464.0</ele><time>2026-05-02T09:34:17Z</time></trkpt><trkpt lat="44.25756033141369" lon="11.054109474487003"><ele>464.0</ele><time>2026-05-02T09:34:19Z</time></trkpt><trkpt lat="44.257621719583916" lon="11.0542517016572"><ele>462.2</ele><time>2026-05-02T09:34:21Z</time></trkpt><trkpt lat="44.25772422597964" lon="11.054362021327973"><ele>460.4</ele><time>2026-05-02T09:34:23Z</time></trkpt><trkpt lat="44.25780737921335" lon="11.054463355494935"><ele>458.6</ele><time>2026-05-02T09:34:25Z</time></trkpt><trkpt lat="44.257818939980034" lon="11.054562425024686"><ele>456.8</ele><time>2026-05-02T09:34:26Z</time></trkpt><trkpt lat="44.2578050313165" lon="11.054649058404417"><ele>455.0</ele><time>2026-05-02T09:34:27Z</time></trkpt><trkpt lat="44.25780318962685" lon="11.054754384276157"><ele>455.0</ele><time>2026-05-02T09:34:28Z</time></trkpt><trkpt lat="44.25779221694393" lon="11.05487126655199"><ele>455.0</ele><time>2026-05-02T09:34:29Z</time></trkpt><trkpt lat="44.25777719506545" lon="11.054965591884347"><ele>455.0</ele><time>2026-05-02T09:34:30Z</time></trkpt><trkpt lat="44.257749605079454" lon="11.055068286619836"><ele>455.0</ele><time>2026-05-02T09:34:31Z</time></trkpt><trkpt lat="44.257722369458875" lon="11.055151466317165"><ele>455.0</ele><time>2026-05-02T09:34:32Z</time></trkpt><trkpt lat="44.25768818420163" lon="11.05524407335296"><ele>455.0</ele><time>2026-05-02T09:34:33Z</time></trkpt><trkpt lat="44.25765608268644" lon="11.055332841958165"><ele>455.0</ele><time>2026-05-02T09:34:34Z</time></trkpt><trkpt lat="44.25761785013505" lon="11.055440667426915"><ele>453.49999999999994</ele><time>2026-05-02T09:34:35Z</time></trkpt><trkpt lat="44.2575837313117" lon="11.055536324860816"><ele>452.0</ele><time>2026-05-02T09:34:36Z</time></trkpt><trkpt lat="44.25754861022393" lon="11.055634792326908"><ele>450.5</ele><time>2026-05-02T09:34:37Z</time></trkpt><trkpt lat="44.257518984472455" lon="11.055721050664465"><ele>449.0</ele><time>2026-05-02T09:34:38Z</time></trkpt><trkpt lat="44.25748658080283" lon="11.05581563433505"><ele>447.49999999999994</ele><time>2026-05-02T09:34:39Z</time></trkpt><trkpt lat="44.25745567782967" lon="11.05590688058976"><ele>446.0</ele><time>2026-05-02T09:34:40Z</time></trkpt><trkpt lat="44.25743059732867" lon="11.056018318688892"><ele>445.16666666666663</ele><time>2026-05-02T09:34:41Z</time></trkpt><trkpt lat="44.25740798205575" lon="11.056126840765632"><ele>444.3333333333333</ele><time>2026-05-02T09:34:42Z</time></trkpt><trkpt lat="44.25739332157258" lon="11.05621570542078"><ele>443.5</ele><time>2026-05-02T09:34:43Z</time></trkpt><trkpt lat="44.25737478397962" lon="11.056316563643367"><ele>442.66666666666663</ele><time>2026-05-02T09:34:44Z</time></trkpt><trkpt lat="44.25736653763869" lon="11.056461699665054"><ele>441.8333333333333</ele><time>2026-05-02T09:34:45Z</time></trkpt><trkpt lat="44.25736026503921" lon="11.056572097460835"><ele>441.0</ele><time>2026-05-02T09:34:46Z</time></trkpt><trkpt lat="44.25734464007873" lon="11.056676167994869"><ele>440.6666666666667</ele><time>2026-05-02T09:34:47Z</time></trkpt><trkpt lat="44.257314207544084" lon="11.056765880763399"><ele>440.33333333333337</ele><time>2026-05-02T09:34:48Z</time></trkpt><trkpt lat="44.25726422172317" lon="11.056853619144173"><ele>440.0</ele><time>2026-05-02T09:34:49Z</time></trkpt><trkpt lat="44.257213240809996" lon="11.056938812592076"><ele>439.6666666666667</ele><time>2026-05-02T09:34:50Z</time></trkpt><trkpt lat="44.25716005014099" lon="11.057024191480537"><ele>439.33333333333337</ele><time>2026-05-02T09:34:51Z</time></trkpt><trkpt lat="44.257098719390065" lon="11.057105677718262"><ele>439.0</ele><time>2026-05-02T09:34:52Z</time></trkpt><trkpt lat="44.25703248582015" lon="11.057181801011053"><ele>439.79999999999995</ele><time>2026-05-02T09:34:53Z</time></trkpt><trkpt lat="44.256967338988794" lon="11.057276927613705"><ele>440.59999999999997</ele><time>2026-05-02T09:34:54Z</time></trkpt><trkpt lat="44.25691878207966" lon="11.05737299605172"><ele>441.4</ele><time>2026-05-02T09:34:55Z</time></trkpt><trkpt lat="44.25689003752154" lon="11.057500741868964"><ele>442.2</ele><time>2026-05-02T09:34:56Z</time></trkpt><trkpt lat="44.25689522038945" lon="11.057637249037446"><ele>443.0</ele><time>2026-05-02T09:34:57Z</time></trkpt><trkpt lat="44.25689576860304" lon="11.057771203494127"><ele>443.2</ele><time>2026-05-02T09:34:58Z</time></trkpt><trkpt lat="44.25689802034581" lon="11.057906152779477"><ele>443.4</ele><time>2026-05-02T09:34:59Z</time></trkpt><trkpt lat="44.256903279476404" lon="11.058050001288342"><ele>443.59999999999997</ele><time>2026-05-02T09:35:00Z</time></trkpt><trkpt lat="44.25691088212586" lon="11.058214446919067"><ele>443.79999999999995</ele><time>2026-05-02T09:35:01Z</time></trkpt><trkpt lat="44.256918969720914" lon="11.058389382178838"><ele>444.0</ele><time>2026-05-02T09:35:02Z</time></trkpt><trkpt lat="44.25690299648883" lon="11.058517060620046"><ele>445.0</ele><time>2026-05-02T09:35:03Z</time></trkpt><trkpt lat="44.2569034852077" lon="11.058690764699927"><ele>446.0</ele><time>2026-05-02T09:35:04Z</time></trkpt><trkpt lat="44.25693444798026" lon="11.058865384946172"><ele>447.0</ele><time>2026-05-02T09:35:05Z</time></trkpt><trkpt lat="44.25697094269613" lon="11.059028147734452"><ele>448.0</ele><time>2026-05-02T09:35:06Z</time></trkpt><trkpt lat="44.257006298092" lon="11.059172984600922"><ele>445.79999999999995</ele><time>2026-05-02T09:35:07Z</time></trkpt><trkpt lat="44.25705281752275" lon="11.059290256195814"><ele>443.59999999999997</ele><time>2026-05-02T09:35:08Z</time></trkpt><trkpt lat="44.25707817235868" lon="11.059410806738075"><ele>441.40000000000003</ele><time>2026-05-02T09:35:09Z</time></trkpt><trkpt lat="44.25712727166707" lon="11.05950370450849"><ele>439.20000000000005</ele><time>2026-05-02T09:35:10Z</time></trkpt><trkpt lat="44.25722611186678" lon="11.059704276074147"><ele>437.0</ele><time>2026-05-02T09:35:11Z</time></trkpt><trkpt lat="44.2573164848695" lon="11.059843882082415"><ele>439.40000000000003</ele><time>2026-05-02T09:35:12Z</time></trkpt><trkpt lat="44.25738705123477" lon="11.05998663617225"><ele>441.80000000000007</ele><time>2026-05-02T09:35:13Z</time></trkpt><trkpt lat="44.257406865466045" lon="11.060127293627396"><ele>444.2</ele><time>2026-05-02T09:35:14Z</time></trkpt><trkpt lat="44.25737635885199" lon="11.060271183064717"><ele>446.6</ele><time>2026-05-02T09:35:15Z</time></trkpt><trkpt lat="44.25738531106128" lon="11.060367725921859"><ele>449.0</ele><time>2026-05-02T09:35:16Z</time></trkpt><trkpt lat="44.25740756431277" lon="11.060487470803071"><ele>449.0</ele><time>2026-05-02T09:35:17Z</time></trkpt><trkpt lat="44.25746025941212" lon="11.060609637677564"><ele>449.0</ele><time>2026-05-02T09:35:18Z</time></trkpt><trkpt lat="44.25755928040862" lon="11.060726240954969"><ele>449.0</ele><time>2026-05-02T09:35:19Z</time></trkpt><trkpt lat="44.257598457966935" lon="11.060839676010175"><ele>449.0</ele><time>2026-05-02T09:35:20Z</time></trkpt><trkpt lat="44.257638639953434" lon="11.060950657033711"><ele>449.0</ele><time>2026-05-02T09:35:21Z</time></trkpt><trkpt lat="44.25765891352365" lon="11.061077144290488"><ele>451.4</ele><time>2026-05-02T09:35:22Z</time></trkpt><trkpt lat="44.25764322185584" lon="11.061197590864795"><ele>453.79999999999995</ele><time>2026-05-02T09:35:23Z</time></trkpt><trkpt lat="44.25763175347272" lon="11.061316598498001"><ele>456.20000000000005</ele><time>2026-05-02T09:35:24Z</time></trkpt><trkpt lat="44.25760932313343" lon="11.061446089880317"><ele>458.6</ele><time>2026-05-02T09:35:25Z</time></trkpt><trkpt lat="44.25758621395161" lon="11.06159890514841"><ele>461.0</ele><time>2026-05-02T09:35:26Z</time></trkpt><trkpt lat="44.25757900140141" lon="11.061775266588747"><ele>463.25</ele><time>2026-05-02T09:35:27Z</time></trkpt><trkpt lat="44.25762559661848" lon="11.061942754158363"><ele>465.5</ele><time>2026-05-02T09:35:28Z</time></trkpt><trkpt lat="44.25767589979221" lon="11.06209149488646"><ele>467.75</ele><time>2026-05-02T09:35:29Z</time></trkpt><trkpt lat="44.25776153937025" lon="11.062194312945188"><ele>470.0</ele><time>2026-05-02T09:35:30Z</time></trkpt><trkpt lat="44.25786122909633" lon="11.062274613240405"><ele>470.0</ele><time>2026-05-02T09:35:31Z</time></trkpt><trkpt lat="44.257976594503624" lon="11.06232836177907"><ele>470.0</ele><time>2026-05-02T09:35:32Z</time></trkpt><trkpt lat="44.25808108301698" lon="11.06238664310496"><ele>470.0</ele><time>2026-05-02T09:35:33Z</time></trkpt><trkpt lat="44.25817377375964" lon="11.062469107815742"><ele>470.0</ele><time>2026-05-02T09:35:34Z</time></trkpt><trkpt lat="44.25827595831399" lon="11.062539588440012"><ele>469.0</ele><time>2026-05-02T09:35:35Z</time></trkpt><trkpt lat="44.258377038015986" lon="11.06261988829427"><ele>468.0</ele><time>2026-05-02T09:35:36Z</time></trkpt><trkpt lat="44.258461158882106" lon="11.062744134837489"><ele>467.0</ele><time>2026-05-02T09:35:37Z</time></trkpt><trkpt lat="44.25850407492241" lon="11.06287916864229"><ele>466.0</ele><time>2026-05-02T09:35:38Z</time></trkpt><trkpt lat="44.2585829046072" lon="11.063042464737759"><ele>466.0</ele><time>2026-05-02T09:35:39Z</time></trkpt><trkpt lat="44.25864380945533" lon="11.063135410472109"><ele>466.0</ele><time>2026-05-02T09:35:40Z</time></trkpt><trkpt lat="44.25875475463804" lon="11.063175560269215"><ele>466.0</ele><time>2026-05-02T09:35:41Z</time></trkpt><trkpt lat="44.25889414577073" lon="11.063255954478818"><ele>466.0</ele><time>2026-05-02T09:35:42Z</time></trkpt><trkpt lat="44.25902652291233" lon="11.063327342365753"><ele>468.5</ele><time>2026-05-02T09:35:43Z</time></trkpt><trkpt lat="44.25915959490766" lon="11.06336431964865"><ele>471.0</ele><time>2026-05-02T09:35:44Z</time></trkpt><trkpt lat="44.259240220462544" lon="11.063435466043655"><ele>473.5</ele><time>2026-05-02T09:35:45Z</time></trkpt><trkpt lat="44.25932820594375" lon="11.063592475137602"><ele>476.0</ele><time>2026-05-02T09:35:47Z</time></trkpt><trkpt lat="44.25939421508694" lon="11.063681446207976"><ele>476.0</ele><time>2026-05-02T09:35:48Z</time></trkpt><trkpt lat="44.25946980207443" lon="11.063746644352817"><ele>476.0</ele><time>2026-05-02T09:35:49Z</time></trkpt><trkpt lat="44.25954253259896" lon="11.06384002593497"><ele>476.0</ele><time>2026-05-02T09:35:50Z</time></trkpt><trkpt lat="44.25960798006986" lon="11.063965510775706"><ele>476.0</ele><time>2026-05-02T09:35:51Z</time></trkpt><trkpt lat="44.25967655522221" lon="11.064079990691788"><ele>476.0</ele><time>2026-05-02T09:35:52Z</time></trkpt><trkpt lat="44.25973459752898" lon="11.064202425874296"><ele>475.4</ele><time>2026-05-02T09:35:53Z</time></trkpt><trkpt lat="44.25979240958206" lon="11.064332475735645"><ele>474.8</ele><time>2026-05-02T09:35:54Z</time></trkpt><trkpt lat="44.25985379190367" lon="11.064452584565895"><ele>474.19999999999993</ele><time>2026-05-02T09:35:55Z</time></trkpt><trkpt lat="44.259924841889344" lon="11.0645701195078"><ele>473.59999999999997</ele><time>2026-05-02T09:35:56Z</time></trkpt><trkpt lat="44.26000487709607" lon="11.064681805669533"><ele>473.0</ele><time>2026-05-02T09:35:57Z</time></trkpt><trkpt lat="44.260119363504856" lon="11.064793456983748"><ele>473.0</ele><time>2026-05-02T09:35:58Z</time></trkpt><trkpt lat="44.26022231874369" lon="11.064908856638915"><ele>473.0</ele><time>2026-05-02T09:35:59Z</time></trkpt><trkpt lat="44.26033406556201" lon="11.065016010528248"><ele>473.0</ele><time>2026-05-02T09:36:00Z</time></trkpt><trkpt lat="44.26045894469155" lon="11.065118670479908"><ele>473.0</ele><time>2026-05-02T09:36:01Z</time></trkpt><trkpt lat="44.2605460108137" lon="11.065234990902724"><ele>473.0</ele><time>2026-05-02T09:36:02Z</time></trkpt><trkpt lat="44.26060182483696" lon="11.065318932067584"><ele>472.99999999999994</ele><time>2026-05-02T09:36:03Z</time></trkpt><trkpt lat="44.260667874115846" lon="11.065449428744865"><ele>472.99999999999994</ele><time>2026-05-02T09:36:04Z</time></trkpt><trkpt lat="44.26074215053487" lon="11.065578621540281"><ele>473.0</ele><time>2026-05-02T09:36:05Z</time></trkpt><trkpt lat="44.2608349914494" lon="11.065701380256943"><ele>473.0</ele><time>2026-05-02T09:36:06Z</time></trkpt><trkpt lat="44.26092470572992" lon="11.065820531659861"><ele>477.4</ele><time>2026-05-02T09:36:07Z</time></trkpt><trkpt lat="44.261001839404585" lon="11.06594509905086"><ele>481.79999999999995</ele><time>2026-05-02T09:36:08Z</time></trkpt><trkpt lat="44.26105536602633" lon="11.066049130955134"><ele>486.2</ele><time>2026-05-02T09:36:09Z</time></trkpt><trkpt lat="44.261032602396064" lon="11.066133162110306"><ele>490.6</ele><time>2026-05-02T09:36:11Z</time></trkpt><trkpt lat="44.26091334965715" lon="11.06620536084052"><ele>495.0</ele><time>2026-05-02T09:36:13Z</time></trkpt><trkpt lat="44.2608229931561" lon="11.066276977065307"><ele>495.0</ele><time>2026-05-02T09:36:14Z</time></trkpt><trkpt lat="44.26071778740676" lon="11.066339358656087"><ele>495.0</ele><time>2026-05-02T09:36:15Z</time></trkpt><trkpt lat="44.260628628882" lon="11.066416160921502"><ele>495.0</ele><time>2026-05-02T09:36:16Z</time></trkpt><trkpt lat="44.260605978875894" lon="11.066566479187921"><ele>495.0</ele><time>2026-05-02T09:36:18Z</time></trkpt><trkpt lat="44.2605779872291" lon="11.066666199776698"><ele>495.0</ele><time>2026-05-02T09:36:19Z</time></trkpt><trkpt lat="44.26054641683915" lon="11.066780436670532"><ele>501.6</ele><time>2026-05-02T09:36:20Z</time></trkpt><trkpt lat="44.26050595987971" lon="11.066904417768022"><ele>508.2</ele><time>2026-05-02T09:36:21Z</time></trkpt><trkpt lat="44.26046219655295" lon="11.06703233326065"><ele>514.8</ele><time>2026-05-02T09:36:22Z</time></trkpt><trkpt lat="44.26042665946144" lon="11.06714562595655"><ele>521.4</ele><time>2026-05-02T09:36:23Z</time></trkpt><trkpt lat="44.26040246447715" lon="11.067266897208896"><ele>528.0</ele><time>2026-05-02T09:36:24Z</time></trkpt><trkpt lat="44.26039963494085" lon="11.067399673282429"><ele>528.1999999999999</ele><time>2026-05-02T09:36:25Z</time></trkpt><trkpt lat="44.26037469379517" lon="11.067512030346517"><ele>528.4</ele><time>2026-05-02T09:36:26Z</time></trkpt><trkpt lat="44.260311042768" lon="11.067595888437893"><ele>528.5999999999999</ele><time>2026-05-02T09:36:27Z</time></trkpt><trkpt lat="44.26025579077253" lon="11.067699999789506"><ele>528.8</ele><time>2026-05-02T09:36:28Z</time></trkpt><trkpt lat="44.26019134933673" lon="11.067806109789101"><ele>529.0</ele><time>2026-05-02T09:36:29Z</time></trkpt><trkpt lat="44.26012058708907" lon="11.067935585255865"><ele>529.0</ele><time>2026-05-02T09:36:30Z</time></trkpt><trkpt lat="44.26007277999383" lon="11.068067499811328"><ele>529.0</ele><time>2026-05-02T09:36:31Z</time></trkpt><trkpt lat="44.26007541589425" lon="11.06822570739742"><ele>529.0</ele><time>2026-05-02T09:36:32Z</time></trkpt><trkpt lat="44.26003539677869" lon="11.068345645054674"><ele>529.0</ele><time>2026-05-02T09:36:33Z</time></trkpt><trkpt lat="44.260008135792425" lon="11.068430967503843"><ele>529.0</ele><time>2026-05-02T09:36:34Z</time></trkpt><trkpt lat="44.2599706812601" lon="11.068524311056093"><ele>526.2</ele><time>2026-05-02T09:36:35Z</time></trkpt><trkpt lat="44.25993336382182" lon="11.068597427164095"><ele>523.4</ele><time>2026-05-02T09:36:36Z</time></trkpt><trkpt lat="44.25987732859525" lon="11.068730565850698"><ele>520.6</ele><time>2026-05-02T09:36:38Z</time></trkpt><trkpt lat="44.259852840003184" lon="11.06886076525029"><ele>517.8</ele><time>2026-05-02T09:36:40Z</time></trkpt><trkpt lat="44.25986292488248" lon="11.068994158453217"><ele>515.0</ele><time>2026-05-02T09:36:42Z</time></trkpt><trkpt lat="44.25991827500057" lon="11.069117441581202"><ele>514.6</ele><time>2026-05-02T09:36:44Z</time></trkpt><trkpt lat="44.26003901725673" lon="11.069225693348036"><ele>514.2</ele><time>2026-05-02T09:36:46Z</time></trkpt><trkpt lat="44.260107546529504" lon="11.069262024275604"><ele>513.8</ele><time>2026-05-02T09:36:47Z</time></trkpt><trkpt lat="44.260187018478256" lon="11.06929043376379"><ele>513.4</ele><time>2026-05-02T09:36:48Z</time></trkpt><trkpt lat="44.260262418022236" lon="11.06931179157921"><ele>513.0</ele><time>2026-05-02T09:36:49Z</time></trkpt><trkpt lat="44.26037370384745" lon="11.069302070934478"><ele>513.0</ele><time>2026-05-02T09:36:51Z</time></trkpt><trkpt lat="44.26045172201377" lon="11.06935618740802"><ele>513.0</ele><time>2026-05-02T09:36:53Z</time></trkpt><trkpt lat="44.26045233196126" lon="11.069493891485802"><ele>513.0</ele><time>2026-05-02T09:36:55Z</time></trkpt><trkpt lat="44.26046442916713" lon="11.06961568492214"><ele>513.0</ele><time>2026-05-02T09:36:57Z</time></trkpt><trkpt lat="44.26050020198223" lon="11.069723859091509"><ele>513.0</ele><time>2026-05-02T09:37:00Z</time></trkpt><trkpt lat="44.26053380139456" lon="11.069798985077062"><ele>513.0</ele><time>2026-05-02T09:37:02Z</time></trkpt><trkpt lat="44.260588213217" lon="11.069900614780867"><ele>511.8333333333333</ele><time>2026-05-02T09:37:04Z</time></trkpt><trkpt lat="44.26063216582145" lon="11.069973905347856"><ele>510.66666666666663</ele><time>2026-05-02T09:37:06Z</time></trkpt><trkpt lat="44.26067861935135" lon="11.07003783691143"><ele>509.5</ele><time>2026-05-02T09:37:08Z</time></trkpt><trkpt lat="44.26075793044527" lon="11.070119642940417"><ele>508.3333333333333</ele><time>2026-05-02T09:37:11Z</time></trkpt><trkpt lat="44.26086924249136" lon="11.070195126856499"><ele>507.16666666666663</ele><time>2026-05-02T09:37:13Z</time></trkpt><trkpt lat="44.26092870605756" lon="11.070240666032502"><ele>506.0</ele><time>2026-05-02T09:37:14Z</time></trkpt><trkpt lat="44.260998600701896" lon="11.070279332865054"><ele>505.99999999999994</ele><time>2026-05-02T09:37:15Z</time></trkpt><trkpt lat="44.26106684761472" lon="11.070317878594558"><ele>506.0</ele><time>2026-05-02T09:37:16Z</time></trkpt><trkpt lat="44.26113671567339" lon="11.070357907374827"><ele>506.0</ele><time>2026-05-02T09:37:17Z</time></trkpt><trkpt lat="44.26120891530527" lon="11.070388663486924"><ele>506.0</ele><time>2026-05-02T09:37:18Z</time></trkpt><trkpt lat="44.26128930635945" lon="11.070397223972725"><ele>505.99999999999994</ele><time>2026-05-02T09:37:19Z</time></trkpt><trkpt lat="44.261371893309104" lon="11.070443050712132"><ele>506.0</ele><time>2026-05-02T09:37:20Z</time></trkpt><trkpt lat="44.26145418671478" lon="11.07046344825261"><ele>506.8</ele><time>2026-05-02T09:37:21Z</time></trkpt><trkpt lat="44.26152353355727" lon="11.07054502769175"><ele>507.6</ele><time>2026-05-02T09:37:23Z</time></trkpt><trkpt lat="44.26157761683017" lon="11.070677670678732"><ele>508.4</ele><time>2026-05-02T09:37:25Z</time></trkpt><trkpt lat="44.26163417721531" lon="11.070816507768248"><ele>509.2</ele><time>2026-05-02T09:37:27Z</time></trkpt><trkpt lat="44.261651345644744" lon="11.070919798169788"><ele>510.0</ele><time>2026-05-02T09:37:29Z</time></trkpt><trkpt lat="44.26170228036935" lon="11.071027076156833"><ele>510.0</ele><time>2026-05-02T09:37:31Z</time></trkpt><trkpt lat="44.26175972997891" lon="11.071097830627656"><ele>510.0</ele><time>2026-05-02T09:37:33Z</time></trkpt><trkpt lat="44.26184708494144" lon="11.071154296815399"><ele>510.0</ele><time>2026-05-02T09:37:36Z</time></trkpt><trkpt lat="44.26192944976398" lon="11.071192626667917"><ele>510.0</ele><time>2026-05-02T09:37:38Z</time></trkpt><trkpt lat="44.262025031593865" lon="11.07124436250482"><ele>510.0</ele><time>2026-05-02T09:37:40Z</time></trkpt><trkpt lat="44.26205247690367" lon="11.07132880658124"><ele>510.0</ele><time>2026-05-02T09:37:41Z</time></trkpt><trkpt lat="44.2621053038332" lon="11.071415674024552"><ele>510.0</ele><time>2026-05-02T09:37:42Z</time></trkpt><trkpt lat="44.262167271115345" lon="11.071516209657174"><ele>510.0</ele><time>2026-05-02T09:37:43Z</time></trkpt><trkpt lat="44.26223193953418" lon="11.071616856173703"><ele>510.0</ele><time>2026-05-02T09:37:44Z</time></trkpt><trkpt lat="44.2623148710219" lon="11.071730303632672"><ele>510.0</ele><time>2026-05-02T09:37:45Z</time></trkpt><trkpt lat="44.26242868212289" lon="11.0718368112522"><ele>510.0</ele><time>2026-05-02T09:37:46Z</time></trkpt><trkpt lat="44.262571270931964" lon="11.07189480767825"><ele>508.0</ele><time>2026-05-02T09:37:47Z</time></trkpt><trkpt lat="44.2626858859168" lon="11.071923316879998"><ele>506.0</ele><time>2026-05-02T09:37:48Z</time></trkpt><trkpt lat="44.262801753542355" lon="11.071932474031808"><ele>504.0</ele><time>2026-05-02T09:37:49Z</time></trkpt><trkpt lat="44.26292207712695" lon="11.071914557005043"><ele>502.0</ele><time>2026-05-02T09:37:50Z</time></trkpt><trkpt lat="44.26305659886221" lon="11.07189334298005"><ele>501.0</ele><time>2026-05-02T09:37:51Z</time></trkpt><trkpt lat="44.26317158970579" lon="11.07187521090307"><ele>500.00000000000006</ele><time>2026-05-02T09:37:52Z</time></trkpt><trkpt lat="44.26328245777574" lon="11.071858344347588"><ele>499.00000000000006</ele><time>2026-05-02T09:37:53Z</time></trkpt><trkpt lat="44.26338693015773" lon="11.071825360218378"><ele>498.0</ele><time>2026-05-02T09:37:54Z</time></trkpt><trkpt lat="44.263489017751304" lon="11.071818049198853"><ele>497.0</ele><time>2026-05-02T09:37:55Z</time></trkpt><trkpt lat="44.263596180642764" lon="11.071804249294878"><ele>497.0</ele><time>2026-05-02T09:37:56Z</time></trkpt><trkpt lat="44.263681101833136" lon="11.07181476788469"><ele>497.00000000000006</ele><time>2026-05-02T09:37:57Z</time></trkpt><trkpt lat="44.26374811930011" lon="11.071885283914137"><ele>497.00000000000006</ele><time>2026-05-02T09:37:58Z</time></trkpt><trkpt lat="44.26381090137879" lon="11.071968629054409"><ele>497.0</ele><time>2026-05-02T09:37:59Z</time></trkpt><trkpt lat="44.263896422986654" lon="11.072051367829443"><ele>497.0</ele><time>2026-05-02T09:38:00Z</time></trkpt><trkpt lat="44.26398528578091" lon="11.072112152035789"><ele>496.40000000000003</ele><time>2026-05-02T09:38:01Z</time></trkpt><trkpt lat="44.26407930814453" lon="11.072198948931167"><ele>495.80000000000007</ele><time>2026-05-02T09:38:02Z</time></trkpt><trkpt lat="44.264161162079354" lon="11.072273798206878"><ele>495.2</ele><time>2026-05-02T09:38:03Z</time></trkpt><trkpt lat="44.26426737745184" lon="11.072348987442457"><ele>494.6</ele><time>2026-05-02T09:38:04Z</time></trkpt><trkpt lat="44.26436999259279" lon="11.072402810819444"><ele>494.0</ele><time>2026-05-02T09:38:05Z</time></trkpt><trkpt lat="44.26447109315283" lon="11.072454935033935"><ele>495.0</ele><time>2026-05-02T09:38:06Z</time></trkpt><trkpt lat="44.26457620046988" lon="11.072456644021461"><ele>496.0</ele><time>2026-05-02T09:38:07Z</time></trkpt><trkpt lat="44.26466978699334" lon="11.072491480321979"><ele>497.0</ele><time>2026-05-02T09:38:08Z</time></trkpt><trkpt lat="44.264756632866096" lon="11.072536215039984"><ele>498.0</ele><time>2026-05-02T09:38:09Z</time></trkpt><trkpt lat="44.264836712449515" lon="11.07263627151197"><ele>499.0</ele><time>2026-05-02T09:38:10Z</time></trkpt><trkpt lat="44.2649468714809" lon="11.072723200371431"><ele>499.0</ele><time>2026-05-02T09:38:11Z</time></trkpt><trkpt lat="44.265030527185736" lon="11.07282531466235"><ele>499.0</ele><time>2026-05-02T09:38:12Z</time></trkpt><trkpt lat="44.265133209644965" lon="11.072943476570975"><ele>499.0</ele><time>2026-05-02T09:38:13Z</time></trkpt><trkpt lat="44.26523245841277" lon="11.0730279030998"><ele>499.0</ele><time>2026-05-02T09:38:14Z</time></trkpt><trkpt lat="44.26531680303745" lon="11.073088145015033"><ele>499.0</ele><time>2026-05-02T09:38:15Z</time></trkpt><trkpt lat="44.26540541725118" lon="11.07314161757001"><ele>499.0</ele><time>2026-05-02T09:38:16Z</time></trkpt><trkpt lat="44.26549087402411" lon="11.073177802172452"><ele>499.0</ele><time>2026-05-02T09:38:17Z</time></trkpt><trkpt lat="44.265580087035865" lon="11.073209040661185"><ele>499.0</ele><time>2026-05-02T09:38:18Z</time></trkpt><trkpt lat="44.265669866327514" lon="11.073247871996582"><ele>499.0</ele><time>2026-05-02T09:38:19Z</time></trkpt><trkpt lat="44.26573799479211" lon="11.073325696814985"><ele>497.33333333333337</ele><time>2026-05-02T09:38:20Z</time></trkpt><trkpt lat="44.26579940458696" lon="11.073405925966126"><ele>495.6666666666667</ele><time>2026-05-02T09:38:21Z</time></trkpt><trkpt lat="44.265855420352" lon="11.073505834218933"><ele>494.0</ele><time>2026-05-02T09:38:22Z</time></trkpt><trkpt lat="44.26589313201388" lon="11.073626702935924"><ele>492.33333333333337</ele><time>2026-05-02T09:38:23Z</time></trkpt><trkpt lat="44.2659046098826" lon="11.073733876490868"><ele>490.6666666666667</ele><time>2026-05-02T09:38:24Z</time></trkpt><trkpt lat="44.26589644671371" lon="11.07384789142332"><ele>489.0</ele><time>2026-05-02T09:38:25Z</time></trkpt><trkpt lat="44.265880206344605" lon="11.073971158282887"><ele>489.0</ele><time>2026-05-02T09:38:26Z</time></trkpt><trkpt lat="44.26585841256637" lon="11.074089767326909"><ele>489.0</ele><time>2026-05-02T09:38:27Z</time></trkpt><trkpt lat="44.265844430098625" lon="11.074180599430903"><ele>489.0</ele><time>2026-05-02T09:38:28Z</time></trkpt><trkpt lat="44.265834097496885" lon="11.07428235764045"><ele>489.0</ele><time>2026-05-02T09:38:29Z</time></trkpt><trkpt lat="44.26582856861248" lon="11.074376085030135"><ele>489.0</ele><time>2026-05-02T09:38:30Z</time></trkpt><trkpt lat="44.26582248628536" lon="11.074475056577208"><ele>489.0</ele><time>2026-05-02T09:38:31Z</time></trkpt><trkpt lat="44.265813763331955" lon="11.074601690564034"><ele>488.3333333333333</ele><time>2026-05-02T09:38:33Z</time></trkpt><trkpt lat="44.26580062013971" lon="11.074698258125474"><ele>487.66666666666663</ele><time>2026-05-02T09:38:36Z</time></trkpt><trkpt lat="44.26579752719871" lon="11.074793631087795"><ele>487.0</ele><time>2026-05-02T09:39:02Z</time></trkpt><trkpt lat="44.26582215119436" lon="11.074893964476233"><ele>486.3333333333333</ele><time>2026-05-02T09:39:07Z</time></trkpt><trkpt lat="44.26584751527706" lon="11.074988957216743"><ele>485.66666666666663</ele><time>2026-05-02T09:39:27Z</time></trkpt><trkpt lat="44.26591553914989" lon="11.075148668734851"><ele>485.0</ele><time>2026-05-02T09:39:29Z</time></trkpt><trkpt lat="44.26598129572538" lon="11.075264848011717"><ele>485.8</ele><time>2026-05-02T09:39:30Z</time></trkpt><trkpt lat="44.26604097456969" lon="11.075403553499092"><ele>486.6</ele><time>2026-05-02T09:39:31Z</time></trkpt><trkpt lat="44.266129877413135" lon="11.075535711557869"><ele>487.4</ele><time>2026-05-02T09:39:32Z</time></trkpt><trkpt lat="44.266213386205" lon="11.075661183486657"><ele>488.2</ele><time>2026-05-02T09:39:33Z</time></trkpt><trkpt lat="44.266260641240855" lon="11.075749043195048"><ele>489.0</ele><time>2026-05-02T09:39:34Z</time></trkpt><trkpt lat="44.26626690171727" lon="11.075854650792063"><ele>489.0</ele><time>2026-05-02T09:39:36Z</time></trkpt><trkpt lat="44.26620640724291" lon="11.07590336551414"><ele>489.0</ele><time>2026-05-02T09:39:38Z</time></trkpt><trkpt lat="44.26615795799276" lon="11.075972100060014"><ele>489.0</ele><time>2026-05-02T09:39:40Z</time></trkpt><trkpt lat="44.26608705317061" lon="11.076109371933393"><ele>489.0</ele><time>2026-05-02T09:39:42Z</time></trkpt><trkpt lat="44.26605315040722" lon="11.076199664383072"><ele>489.0</ele><time>2026-05-02T09:39:43Z</time></trkpt><trkpt lat="44.2660349246263" lon="11.07630832970175"><ele>489.0</ele><time>2026-05-02T09:39:44Z</time></trkpt><trkpt lat="44.26601571609669" lon="11.076424422244258"><ele>489.0</ele><time>2026-05-02T09:39:45Z</time></trkpt><trkpt lat="44.26597442524521" lon="11.0765391285734"><ele>489.0</ele><time>2026-05-02T09:39:46Z</time></trkpt><trkpt lat="44.26594270119395" lon="11.076660776296976"><ele>489.0</ele><time>2026-05-02T09:39:47Z</time></trkpt><trkpt lat="44.26591611832414" lon="11.076776693864213"><ele>489.0</ele><time>2026-05-02T09:39:48Z</time></trkpt><trkpt lat="44.265857172851405" lon="11.076872855344734"><ele>489.0</ele><time>2026-05-02T09:39:49Z</time></trkpt><trkpt lat="44.265780449217296" lon="11.076945112365124"><ele>489.4</ele><time>2026-05-02T09:39:50Z</time></trkpt><trkpt lat="44.265694944331756" lon="11.07701720701207"><ele>489.79999999999995</ele><time>2026-05-02T09:39:51Z</time></trkpt><trkpt lat="44.26559979266395" lon="11.077104595128693"><ele>490.20000000000005</ele><time>2026-05-02T09:39:52Z</time></trkpt><trkpt lat="44.265504510183625" lon="11.077197003719606"><ele>490.6</ele><time>2026-05-02T09:39:53Z</time></trkpt><trkpt lat="44.2654276193353" lon="11.077284208202453"><ele>491.0</ele><time>2026-05-02T09:39:54Z</time></trkpt><trkpt lat="44.26536621574248" lon="11.077397919902255"><ele>491.0</ele><time>2026-05-02T09:39:55Z</time></trkpt><trkpt lat="44.26531277942579" lon="11.077530801981858"><ele>491.0</ele><time>2026-05-02T09:39:56Z</time></trkpt><trkpt lat="44.26524589545471" lon="11.077660530227687"><ele>491.0</ele><time>2026-05-02T09:39:57Z</time></trkpt><trkpt lat="44.265191125610606" lon="11.077803821120604"><ele>491.0</ele><time>2026-05-02T09:39:58Z</time></trkpt><trkpt lat="44.26513138215987" lon="11.077963565494514"><ele>491.0</ele><time>2026-05-02T09:39:59Z</time></trkpt><trkpt lat="44.26507814480547" lon="11.078115974988993"><ele>491.0</ele><time>2026-05-02T09:40:00Z</time></trkpt><trkpt lat="44.26502200906481" lon="11.078275660128298"><ele>491.0</ele><time>2026-05-02T09:40:01Z</time></trkpt><trkpt lat="44.264983186963065" lon="11.078422514228317"><ele>491.0</ele><time>2026-05-02T09:40:02Z</time></trkpt><trkpt lat="44.264890347462284" lon="11.07849922431906"><ele>491.6</ele><time>2026-05-02T09:40:03Z</time></trkpt><trkpt lat="44.264804997758034" lon="11.078589973704924"><ele>492.20000000000005</ele><time>2026-05-02T09:40:04Z</time></trkpt><trkpt lat="44.26473174257862" lon="11.078713407600226"><ele>492.79999999999995</ele><time>2026-05-02T09:40:05Z</time></trkpt><trkpt lat="44.26468703760986" lon="11.078837329602225"><ele>493.4</ele><time>2026-05-02T09:40:06Z</time></trkpt><trkpt lat="44.26468162026928" lon="11.078998253545778"><ele>494.0</ele><time>2026-05-02T09:40:07Z</time></trkpt><trkpt lat="44.26468324175947" lon="11.079159301367557"><ele>494.0</ele><time>2026-05-02T09:40:08Z</time></trkpt><trkpt lat="44.264714501973614" lon="11.0793085762169"><ele>494.0</ele><time>2026-05-02T09:40:09Z</time></trkpt><trkpt lat="44.264766230451336" lon="11.07946284971541"><ele>494.0</ele><time>2026-05-02T09:40:10Z</time></trkpt><trkpt lat="44.26482919085728" lon="11.079581580459987"><ele>494.0</ele><time>2026-05-02T09:40:11Z</time></trkpt><trkpt lat="44.2648789564982" lon="11.079756733375287"><ele>491.0</ele><time>2026-05-02T09:40:12Z</time></trkpt><trkpt lat="44.26491877432317" lon="11.079894941600033"><ele>488.0</ele><time>2026-05-02T09:40:13Z</time></trkpt><trkpt lat="44.264933798944895" lon="11.080047505288288"><ele>485.0</ele><time>2026-05-02T09:40:14Z</time></trkpt><trkpt lat="44.26497394606848" lon="11.080206347230117"><ele>482.0</ele><time>2026-05-02T09:40:15Z</time></trkpt><trkpt lat="44.265022246302784" lon="11.080353518439523"><ele>482.0</ele><time>2026-05-02T09:40:16Z</time></trkpt><trkpt lat="44.265077051218995" lon="11.080506446140815"><ele>482.00000000000006</ele><time>2026-05-02T09:40:17Z</time></trkpt><trkpt lat="44.265094223093655" lon="11.08064021767682"><ele>482.00000000000006</ele><time>2026-05-02T09:40:18Z</time></trkpt><trkpt lat="44.26510084238805" lon="11.080791533191695"><ele>482.0</ele><time>2026-05-02T09:40:19Z</time></trkpt><trkpt lat="44.265118972601336" lon="11.080941737644904"><ele>482.0</ele><time>2026-05-02T09:40:20Z</time></trkpt><trkpt lat="44.26514968012907" lon="11.081083259779659"><ele>484.25</ele><time>2026-05-02T09:40:21Z</time></trkpt><trkpt lat="44.26518357402013" lon="11.081233285181318"><ele>486.5</ele><time>2026-05-02T09:40:22Z</time></trkpt><trkpt lat="44.26522336752805" lon="11.081398887717256"><ele>488.75</ele><time>2026-05-02T09:40:23Z</time></trkpt><trkpt lat="44.26525956254052" lon="11.081547046732828"><ele>491.0</ele><time>2026-05-02T09:40:24Z</time></trkpt><trkpt lat="44.26530133959616" lon="11.081713930069576"><ele>492.6</ele><time>2026-05-02T09:40:25Z</time></trkpt><trkpt lat="44.26533859957161" lon="11.08184531078582"><ele>494.20000000000005</ele><time>2026-05-02T09:40:26Z</time></trkpt><trkpt lat="44.265389212588154" lon="11.082005700560885"><ele>495.79999999999995</ele><time>2026-05-02T09:40:27Z</time></trkpt><trkpt lat="44.2654406681465" lon="11.082141781490174"><ele>497.4</ele><time>2026-05-02T09:40:28Z</time></trkpt><trkpt lat="44.2654716325383" lon="11.08227994621366"><ele>499.0</ele><time>2026-05-02T09:40:29Z</time></trkpt><trkpt lat="44.26548235580291" lon="11.082417040738024"><ele>499.6</ele><time>2026-05-02T09:40:30Z</time></trkpt><trkpt lat="44.26549759712919" lon="11.082557843226544"><ele>500.2</ele><time>2026-05-02T09:40:31Z</time></trkpt><trkpt lat="44.26553938654229" lon="11.082675937485456"><ele>500.80000000000007</ele><time>2026-05-02T09:40:32Z</time></trkpt><trkpt lat="44.265596075523845" lon="11.082768396625971"><ele>501.40000000000003</ele><time>2026-05-02T09:40:33Z</time></trkpt><trkpt lat="44.26566227460352" lon="11.082871552280738"><ele>502.0</ele><time>2026-05-02T09:40:34Z</time></trkpt><trkpt lat="44.26570857419802" lon="11.08300372192381"><ele>498.5</ele><time>2026-05-02T09:40:35Z</time></trkpt><trkpt lat="44.26574496108106" lon="11.083167752189665"><ele>495.0</ele><time>2026-05-02T09:40:36Z</time></trkpt><trkpt lat="44.26578140374371" lon="11.083332840269536"><ele>491.5</ele><time>2026-05-02T09:40:37Z</time></trkpt><trkpt lat="44.26582130676629" lon="11.08350967637812"><ele>488.0</ele><time>2026-05-02T09:40:38Z</time></trkpt><trkpt lat="44.265863402113645" lon="11.083688911461039"><ele>488.0</ele><time>2026-05-02T09:40:39Z</time></trkpt><trkpt lat="44.265909153309636" lon="11.083862062665238"><ele>487.99999999999994</ele><time>2026-05-02T09:40:40Z</time></trkpt><trkpt lat="44.26596466704543" lon="11.084004794692047"><ele>487.99999999999994</ele><time>2026-05-02T09:40:41Z</time></trkpt><trkpt lat="44.266010866152776" lon="11.084113482843977"><ele>488.0</ele><time>2026-05-02T09:40:42Z</time></trkpt><trkpt lat="44.26606478078952" lon="11.084244455640162"><ele>488.0</ele><time>2026-05-02T09:40:44Z</time></trkpt><trkpt lat="44.2660539960828" lon="11.084384175892058"><ele>490.59999999999997</ele><time>2026-05-02T09:40:46Z</time></trkpt><trkpt lat="44.26600289669533" lon="11.084443754059688"><ele>493.19999999999993</ele><time>2026-05-02T09:40:47Z</time></trkpt><trkpt lat="44.26594857134725" lon="11.084491244968014"><ele>495.8</ele><time>2026-05-02T09:40:48Z</time></trkpt><trkpt lat="44.26579792493329" lon="11.084594374017554"><ele>498.4</ele><time>2026-05-02T09:40:50Z</time></trkpt><trkpt lat="44.26571062379592" lon="11.084659260201715"><ele>501.0</ele><time>2026-05-02T09:40:51Z</time></trkpt><trkpt lat="44.26562224713601" lon="11.08472654152167"><ele>501.8</ele><time>2026-05-02T09:40:52Z</time></trkpt><trkpt lat="44.26554299403331" lon="11.084800800713193"><ele>502.6</ele><time>2026-05-02T09:40:53Z</time></trkpt><trkpt lat="44.26546979970223" lon="11.08490528720136"><ele>503.4</ele><time>2026-05-02T09:40:54Z</time></trkpt><trkpt lat="44.265425527015545" lon="11.085055080597861"><ele>504.2</ele><time>2026-05-02T09:40:55Z</time></trkpt><trkpt lat="44.265403825436756" lon="11.085213838484934"><ele>505.0</ele><time>2026-05-02T09:40:56Z</time></trkpt><trkpt lat="44.26537953749178" lon="11.085414757145722"><ele>505.0</ele><time>2026-05-02T09:40:57Z</time></trkpt><trkpt lat="44.26533830784027" lon="11.085624238724133"><ele>505.0</ele><time>2026-05-02T09:40:58Z</time></trkpt><trkpt lat="44.265286510877765" lon="11.085825363283602"><ele>505.0</ele><time>2026-05-02T09:40:59Z</time></trkpt><trkpt lat="44.26524655143142" lon="11.086037827002107"><ele>504.75</ele><time>2026-05-02T09:41:00Z</time></trkpt><trkpt lat="44.26523562258452" lon="11.086218283567762"><ele>504.5</ele><time>2026-05-02T09:41:01Z</time></trkpt><trkpt lat="44.26525935219833" lon="11.08634895598164"><ele>504.25</ele><time>2026-05-02T09:41:02Z</time></trkpt><trkpt lat="44.26531139958227" lon="11.08647972267554"><ele>504.0</ele><time>2026-05-02T09:41:03Z</time></trkpt><trkpt lat="44.265387527234104" lon="11.0866064497655"><ele>504.0</ele><time>2026-05-02T09:41:04Z</time></trkpt><trkpt lat="44.26540355410196" lon="11.086708933446268"><ele>504.0</ele><time>2026-05-02T09:41:05Z</time></trkpt><trkpt lat="44.265435907373096" lon="11.086822522664635"><ele>504.0</ele><time>2026-05-02T09:41:06Z</time></trkpt><trkpt lat="44.26545354581101" lon="11.086976422639276"><ele>504.0</ele><time>2026-05-02T09:41:07Z</time></trkpt><trkpt lat="44.26546772342496" lon="11.087132923255826"><ele>504.0</ele><time>2026-05-02T09:41:08Z</time></trkpt><trkpt lat="44.265472433518205" lon="11.08730519798584"><ele>504.25</ele><time>2026-05-02T09:41:09Z</time></trkpt><trkpt lat="44.26546291625132" lon="11.087466184069314"><ele>504.5</ele><time>2026-05-02T09:41:10Z</time></trkpt><trkpt lat="44.26543915386099" lon="11.087666359035122"><ele>504.75</ele><time>2026-05-02T09:41:11Z</time></trkpt><trkpt lat="44.26541008255209" lon="11.087845941460555"><ele>505.0</ele><time>2026-05-02T09:41:12Z</time></trkpt><trkpt lat="44.26537900744021" lon="11.088021582308821"><ele>505.0</ele><time>2026-05-02T09:41:13Z</time></trkpt><trkpt lat="44.265347384749845" lon="11.08819524694289"><ele>505.0</ele><time>2026-05-02T09:41:14Z</time></trkpt><trkpt lat="44.26531277346226" lon="11.088391488549012"><ele>505.0</ele><time>2026-05-02T09:41:15Z</time></trkpt><trkpt lat="44.26528160887904" lon="11.088567733546716"><ele>505.0</ele><time>2026-05-02T09:41:16Z</time></trkpt><trkpt lat="44.26525250938858" lon="11.088727528029477"><ele>503.6</ele><time>2026-05-02T09:41:17Z</time></trkpt><trkpt lat="44.26523458554775" lon="11.08882595350357"><ele>502.2</ele><time>2026-05-02T09:41:18Z</time></trkpt><trkpt lat="44.26521627871977" lon="11.088926482080458"><ele>500.79999999999995</ele><time>2026-05-02T09:41:19Z</time></trkpt><trkpt lat="44.26515226666355" lon="11.088811617286982"><ele>499.4</ele><time>2026-05-02T09:41:22Z</time></trkpt><trkpt lat="44.26506830599041" lon="11.088657781401295"><ele>498.0</ele><time>2026-05-02T09:41:24Z</time></trkpt><trkpt lat="44.265035393349336" lon="11.088526985105922"><ele>498.0</ele><time>2026-05-02T09:41:25Z</time></trkpt><trkpt lat="44.2650064422832" lon="11.088388776938388"><ele>498.0</ele><time>2026-05-02T09:41:26Z</time></trkpt><trkpt lat="44.26498143936231" lon="11.088231322702578"><ele>498.0</ele><time>2026-05-02T09:41:27Z</time></trkpt><trkpt lat="44.264940332656096" lon="11.088073397971739"><ele>498.0</ele><time>2026-05-02T09:41:28Z</time></trkpt><trkpt lat="44.264914919316844" lon="11.08790732552644"><ele>499.5</ele><time>2026-05-02T09:41:29Z</time></trkpt><trkpt lat="44.26488986914307" lon="11.087744473219278"><ele>501.0</ele><time>2026-05-02T09:41:30Z</time></trkpt><trkpt lat="44.26486583687293" lon="11.087559768517645"><ele>502.5</ele><time>2026-05-02T09:41:31Z</time></trkpt><trkpt lat="44.26483280070807" lon="11.087374973925877"><ele>504.0</ele><time>2026-05-02T09:41:32Z</time></trkpt><trkpt lat="44.264788828027214" lon="11.087208029104634"><ele>506.6</ele><time>2026-05-02T09:41:33Z</time></trkpt><trkpt lat="44.264694199632956" lon="11.087023687023798"><ele>509.2</ele><time>2026-05-02T09:41:34Z</time></trkpt><trkpt lat="44.26461051938827" lon="11.086925502299515"><ele>511.80000000000007</ele><time>2026-05-02T09:41:35Z</time></trkpt><trkpt lat="44.26453666255125" lon="11.086859121330843"><ele>514.4</ele><time>2026-05-02T09:41:36Z</time></trkpt><trkpt lat="44.264478962154406" lon="11.086804277135101"><ele>517.0</ele><time>2026-05-02T09:41:37Z</time></trkpt><trkpt lat="44.26442256569854" lon="11.08672322642744"><ele>517.0</ele><time>2026-05-02T09:41:38Z</time></trkpt><trkpt lat="44.264351490246156" lon="11.086700386874956"><ele>517.0</ele><time>2026-05-02T09:41:39Z</time></trkpt><trkpt lat="44.26428386875566" lon="11.086668926561435"><ele>517.0</ele><time>2026-05-02T09:41:40Z</time></trkpt><trkpt lat="44.26421691683251" lon="11.0866260218833"><ele>517.0</ele><time>2026-05-02T09:41:41Z</time></trkpt><trkpt lat="44.26414150612853" lon="11.08660583720683"><ele>517.0</ele><time>2026-05-02T09:41:42Z</time></trkpt><trkpt lat="44.264054331130055" lon="11.086598781344447"><ele>517.0</ele><time>2026-05-02T09:41:43Z</time></trkpt><trkpt lat="44.26397031941498" lon="11.086596222807529"><ele>520.2</ele><time>2026-05-02T09:41:44Z</time></trkpt><trkpt lat="44.26386704504108" lon="11.08659329136716"><ele>523.4000000000001</ele><time>2026-05-02T09:41:45Z</time></trkpt><trkpt lat="44.263760553699626" lon="11.086576447132469"><ele>526.5999999999999</ele><time>2026-05-02T09:41:46Z</time></trkpt><trkpt lat="44.263678083525676" lon="11.086518007075854"><ele>529.8</ele><time>2026-05-02T09:41:47Z</time></trkpt><trkpt lat="44.26360938226366" lon="11.086436387948279"><ele>533.0</ele><time>2026-05-02T09:41:48Z</time></trkpt><trkpt lat="44.263625728910874" lon="11.086300405598143"><ele>533.0</ele><time>2026-05-02T09:41:49Z</time></trkpt><trkpt lat="44.263648247657486" lon="11.086180942451739"><ele>533.0</ele><time>2026-05-02T09:41:50Z</time></trkpt><trkpt lat="44.2636574127642" lon="11.086072582474888"><ele>533.0</ele><time>2026-05-02T09:41:51Z</time></trkpt><trkpt lat="44.26365599803992" lon="11.085961405801749"><ele>533.0</ele><time>2026-05-02T09:41:52Z</time></trkpt><trkpt lat="44.263628867439344" lon="11.085843547013459"><ele>533.0</ele><time>2026-05-02T09:41:53Z</time></trkpt><trkpt lat="44.26360063471873" lon="11.085734576488592"><ele>533.0</ele><time>2026-05-02T09:41:54Z</time></trkpt><trkpt lat="44.26356625257934" lon="11.085634272491534"><ele>533.0</ele><time>2026-05-02T09:41:55Z</time></trkpt><trkpt lat="44.26351481334614" lon="11.085566784869439"><ele>533.0</ele><time>2026-05-02T09:41:56Z</time></trkpt><trkpt lat="44.26344470266578" lon="11.085590785384396"><ele>533.0</ele><time>2026-05-02T09:41:57Z</time></trkpt><trkpt lat="44.26336963602026" lon="11.085633888948163"><ele>533.0</ele><time>2026-05-02T09:41:58Z</time></trkpt><trkpt lat="44.263330180277045" lon="11.085777169566471"><ele>533.0</ele><time>2026-05-02T09:41:59Z</time></trkpt><trkpt lat="44.263263217127665" lon="11.08587269780035"><ele>533.0</ele><time>2026-05-02T09:42:00Z</time></trkpt><trkpt lat="44.26320613138343" lon="11.085940046629183"><ele>533.0</ele><time>2026-05-02T09:42:01Z</time></trkpt><trkpt lat="44.26311866730258" lon="11.085933205584514"><ele>533.0</ele><time>2026-05-02T09:42:02Z</time></trkpt><trkpt lat="44.26302514910092" lon="11.085875817920957"><ele>533.0</ele><time>2026-05-02T09:42:03Z</time></trkpt><trkpt lat="44.262929179931085" lon="11.085836882575084"><ele>533.0</ele><time>2026-05-02T09:42:04Z</time></trkpt><trkpt lat="44.26288564067626" lon="11.085726737106567"><ele>533.0</ele><time>2026-05-02T09:42:05Z</time></trkpt><trkpt lat="44.26290754472114" lon="11.085598160740576"><ele>538.0</ele><time>2026-05-02T09:42:06Z</time></trkpt><trkpt lat="44.26289631870783" lon="11.085487082291076"><ele>543.0</ele><time>2026-05-02T09:42:07Z</time></trkpt><trkpt lat="44.26281142236307" lon="11.085374746051404"><ele>548.0</ele><time>2026-05-02T09:42:08Z</time></trkpt><trkpt lat="44.2627042693939" lon="11.085344534657485"><ele>553.0</ele><time>2026-05-02T09:42:09Z</time></trkpt><trkpt lat="44.26259050288297" lon="11.085409774003733"><ele>558.0</ele><time>2026-05-02T09:42:10Z</time></trkpt><trkpt lat="44.262500494932276" lon="11.085471563659606"><ele>558.0</ele><time>2026-05-02T09:42:11Z</time></trkpt><trkpt lat="44.26240002009113" lon="11.08550949403474"><ele>558.0</ele><time>2026-05-02T09:42:12Z</time></trkpt><trkpt lat="44.262327020551666" lon="11.085429403719269"><ele>558.0</ele><time>2026-05-02T09:42:13Z</time></trkpt><trkpt lat="44.26227625905561" lon="11.085349954503599"><ele>558.0</ele><time>2026-05-02T09:42:14Z</time></trkpt><trkpt lat="44.262317943412" lon="11.085238861848831"><ele>558.0</ele><time>2026-05-02T09:42:15Z</time></trkpt><trkpt lat="44.26237875434772" lon="11.085165286888248"><ele>558.0</ele><time>2026-05-02T09:42:16Z</time></trkpt><trkpt lat="44.26245390320831" lon="11.08509753375867"><ele>558.0</ele><time>2026-05-02T09:42:17Z</time></trkpt><trkpt lat="44.26253008546797" lon="11.084989758684587"><ele>558.0</ele><time>2026-05-02T09:42:18Z</time></trkpt><trkpt lat="44.26263169845261" lon="11.084896515411197"><ele>558.0</ele><time>2026-05-02T09:42:19Z</time></trkpt><trkpt lat="44.262716052224974" lon="11.084799680211276"><ele>558.0</ele><time>2026-05-02T09:42:20Z</time></trkpt><trkpt lat="44.26279425193127" lon="11.084695937075391"><ele>558.0</ele><time>2026-05-02T09:42:21Z</time></trkpt><trkpt lat="44.26283340630337" lon="11.084585969320447"><ele>558.6</ele><time>2026-05-02T09:42:22Z</time></trkpt><trkpt lat="44.26282442687748" lon="11.084477505361813"><ele>559.1999999999999</ele><time>2026-05-02T09:42:23Z</time></trkpt><trkpt lat="44.26277708853757" lon="11.08436973089374"><ele>559.8</ele><time>2026-05-02T09:42:24Z</time></trkpt><trkpt lat="44.26269537281694" lon="11.08430163608266"><ele>560.4</ele><time>2026-05-02T09:42:25Z</time></trkpt><trkpt lat="44.262595139366844" lon="11.084302893279604"><ele>561.0</ele><time>2026-05-02T09:42:26Z</time></trkpt><trkpt lat="44.26249967911322" lon="11.08434361902631"><ele>561.0</ele><time>2026-05-02T09:42:27Z</time></trkpt><trkpt lat="44.26238492558583" lon="11.084382165502786"><ele>561.0</ele><time>2026-05-02T09:42:28Z</time></trkpt><trkpt lat="44.26226964765756" lon="11.084429723489858"><ele>561.0</ele><time>2026-05-02T09:42:29Z</time></trkpt><trkpt lat="44.262150073406225" lon="11.084475008203988"><ele>561.0</ele><time>2026-05-02T09:42:30Z</time></trkpt><trkpt lat="44.26202078591473" lon="11.084511750008941"><ele>563.5</ele><time>2026-05-02T09:42:31Z</time></trkpt><trkpt lat="44.261893190763566" lon="11.084528498892599"><ele>566.0</ele><time>2026-05-02T09:42:32Z</time></trkpt><trkpt lat="44.261772207424954" lon="11.084543092438244"><ele>568.5</ele><time>2026-05-02T09:42:33Z</time></trkpt><trkpt lat="44.26164640252105" lon="11.084576716695423"><ele>571.0</ele><time>2026-05-02T09:42:34Z</time></trkpt><trkpt lat="44.26153270396192" lon="11.084586148972438"><ele>570.25</ele><time>2026-05-02T09:42:35Z</time></trkpt><trkpt lat="44.261418190352146" lon="11.084573968952848"><ele>569.5</ele><time>2026-05-02T09:42:36Z</time></trkpt><trkpt lat="44.26132557923735" lon="11.08449149931474"><ele>568.75</ele><time>2026-05-02T09:42:37Z</time></trkpt><trkpt lat="44.261229304442125" lon="11.084412858713879"><ele>568.0</ele><time>2026-05-02T09:42:38Z</time></trkpt><trkpt lat="44.26111684548361" lon="11.084339437706923"><ele>568.0</ele><time>2026-05-02T09:42:39Z</time></trkpt><trkpt lat="44.261033029785075" lon="11.084211928818354"><ele>568.0</ele><time>2026-05-02T09:42:40Z</time></trkpt><trkpt lat="44.26093475636813" lon="11.08412357769441"><ele>568.0</ele><time>2026-05-02T09:42:41Z</time></trkpt><trkpt lat="44.26082899678636" lon="11.084024424835096"><ele>568.0</ele><time>2026-05-02T09:42:42Z</time></trkpt><trkpt lat="44.26070472292458" lon="11.083960320657138"><ele>567.75</ele><time>2026-05-02T09:42:43Z</time></trkpt><trkpt lat="44.260568790273744" lon="11.083914059929214"><ele>567.5</ele><time>2026-05-02T09:42:44Z</time></trkpt><trkpt lat="44.26044443673115" lon="11.08391443468173"><ele>567.25</ele><time>2026-05-02T09:42:45Z</time></trkpt><trkpt lat="44.2603323748458" lon="11.083907216004324"><ele>567.0</ele><time>2026-05-02T09:42:46Z</time></trkpt><trkpt lat="44.26023160276845" lon="11.083872639730762"><ele>567.0</ele><time>2026-05-02T09:42:47Z</time></trkpt><trkpt lat="44.26015766427331" lon="11.083777130098888"><ele>567.0</ele><time>2026-05-02T09:42:48Z</time></trkpt><trkpt lat="44.26009070262524" lon="11.083668337255252"><ele>567.0</ele><time>2026-05-02T09:42:49Z</time></trkpt><trkpt lat="44.26002257211469" lon="11.083594441623438"><ele>567.0</ele><time>2026-05-02T09:42:50Z</time></trkpt><trkpt lat="44.25995194434454" lon="11.083576337040913"><ele>567.0</ele><time>2026-05-02T09:42:51Z</time></trkpt><trkpt lat="44.259888169170246" lon="11.083619032718648"><ele>567.0</ele><time>2026-05-02T09:43:42Z</time></trkpt><trkpt lat="44.25983047947408" lon="11.083539149274149"><ele>567.0</ele><time>2026-05-02T09:43:47Z</time></trkpt><trkpt lat="44.2598970181699" lon="11.083559573859302"><ele>567.0</ele><time>2026-05-02T09:44:38Z</time></trkpt><trkpt lat="44.25985655509814" lon="11.083671552710031"><ele>567.0</ele><time>2026-05-02T09:44:40Z</time></trkpt><trkpt lat="44.259794072369615" lon="11.083722998654327"><ele>567.0</ele><time>2026-05-02T09:44:41Z</time></trkpt><trkpt lat="44.25973061172137" lon="11.083755072599796"><ele>567.0</ele><time>2026-05-02T09:44:42Z</time></trkpt><trkpt lat="44.25965086504061" lon="11.083788015358907"><ele>567.0</ele><time>2026-05-02T09:44:43Z</time></trkpt><trkpt lat="44.25956567721038" lon="11.08381999320692"><ele>564.0</ele><time>2026-05-02T09:44:44Z</time></trkpt><trkpt lat="44.25949834310914" lon="11.083840834953934"><ele>561.0</ele><time>2026-05-02T09:44:45Z</time></trkpt><trkpt lat="44.25938587620007" lon="11.083879820902068"><ele>558.0</ele><time>2026-05-02T09:44:47Z</time></trkpt><trkpt lat="44.25932121479419" lon="11.083921531894008"><ele>555.0</ele><time>2026-05-02T09:44:48Z</time></trkpt><trkpt lat="44.259253605313916" lon="11.083966933656315"><ele>552.0</ele><time>2026-05-02T09:44:49Z</time></trkpt><trkpt lat="44.25917651061081" lon="11.084014799539593"><ele>549.0</ele><time>2026-05-02T09:44:50Z</time></trkpt><trkpt lat="44.259086625339485" lon="11.084067283190441"><ele>548.8</ele><time>2026-05-02T09:44:51Z</time></trkpt><trkpt lat="44.25898192123461" lon="11.084145733526247"><ele>548.5999999999999</ele><time>2026-05-02T09:44:52Z</time></trkpt><trkpt lat="44.258873393509255" lon="11.084221988322367"><ele>548.4</ele><time>2026-05-02T09:44:53Z</time></trkpt><trkpt lat="44.25878671298728" lon="11.084263607459567"><ele>548.1999999999999</ele><time>2026-05-02T09:44:54Z</time></trkpt><trkpt lat="44.25868145259701" lon="11.084306377404111"><ele>548.0</ele><time>2026-05-02T09:44:55Z</time></trkpt><trkpt lat="44.258560448059036" lon="11.084370081953558"><ele>545.6</ele><time>2026-05-02T09:44:56Z</time></trkpt><trkpt lat="44.258466162456415" lon="11.08444172071481"><ele>543.1999999999999</ele><time>2026-05-02T09:44:57Z</time></trkpt><trkpt lat="44.25839299433598" lon="11.08447803131094"><ele>540.8</ele><time>2026-05-02T09:44:58Z</time></trkpt><trkpt lat="44.25829315821482" lon="11.084519890239697"><ele>538.4</ele><time>2026-05-02T09:44:59Z</time></trkpt><trkpt lat="44.25820295915319" lon="11.08454229186242"><ele>536.0</ele><time>2026-05-02T09:45:00Z</time></trkpt><trkpt lat="44.258106666305295" lon="11.084515189638404"><ele>533.6</ele><time>2026-05-02T09:45:03Z</time></trkpt><trkpt lat="44.25798708927749" lon="11.084549508225747"><ele>531.2</ele><time>2026-05-02T09:45:05Z</time></trkpt><trkpt lat="44.25788757065182" lon="11.084583065228884"><ele>528.8</ele><time>2026-05-02T09:45:06Z</time></trkpt><trkpt lat="44.25779086648727" lon="11.084613369353933"><ele>526.4</ele><time>2026-05-02T09:45:07Z</time></trkpt><trkpt lat="44.25770175460792" lon="11.084642252937149"><ele>524.0</ele><time>2026-05-02T09:45:08Z</time></trkpt><trkpt lat="44.25759696800749" lon="11.08466960962208"><ele>524.0</ele><time>2026-05-02T09:45:09Z</time></trkpt><trkpt lat="44.25748672514421" lon="11.084676723948988"><ele>524.0</ele><time>2026-05-02T09:45:10Z</time></trkpt><trkpt lat="44.257383382234224" lon="11.08465651573711"><ele>524.0</ele><time>2026-05-02T09:45:11Z</time></trkpt><trkpt lat="44.25729103080461" lon="11.084655101160674"><ele>524.0</ele><time>2026-05-02T09:45:12Z</time></trkpt><trkpt lat="44.2571930500816" lon="11.08467911571098"><ele>524.0</ele><time>2026-05-02T09:45:13Z</time></trkpt><trkpt lat="44.25709313134968" lon="11.08472350861504"><ele>520.8</ele><time>2026-05-02T09:45:14Z</time></trkpt><trkpt lat="44.25701207799943" lon="11.084786616844484"><ele>517.5999999999999</ele><time>2026-05-02T09:45:15Z</time></trkpt><trkpt lat="44.25695353000605" lon="11.084704636157337"><ele>514.4</ele><time>2026-05-02T09:45:19Z</time></trkpt><trkpt lat="44.25693918243354" lon="11.084609719981403"><ele>511.2</ele><time>2026-05-02T09:45:20Z</time></trkpt><trkpt lat="44.25693057748402" lon="11.084451496200648"><ele>508.0</ele><time>2026-05-02T09:45:21Z</time></trkpt><trkpt lat="44.25692086319577" lon="11.084266093482292"><ele>508.0</ele><time>2026-05-02T09:45:22Z</time></trkpt><trkpt lat="44.2569191953414" lon="11.084109591964863"><ele>508.0</ele><time>2026-05-02T09:45:23Z</time></trkpt><trkpt lat="44.25687108472731" lon="11.083943814500103"><ele>508.0</ele><time>2026-05-02T09:45:24Z</time></trkpt><trkpt lat="44.25687154384408" lon="11.083784616975668"><ele>508.0</ele><time>2026-05-02T09:45:25Z</time></trkpt><trkpt lat="44.2568601459776" lon="11.083603733196925"><ele>506.4</ele><time>2026-05-02T09:45:26Z</time></trkpt><trkpt lat="44.25685541136012" lon="11.083438279998903"><ele>504.79999999999995</ele><time>2026-05-02T09:45:27Z</time></trkpt><trkpt lat="44.25685256244999" lon="11.083296764494422"><ele>503.2</ele><time>2026-05-02T09:45:28Z</time></trkpt><trkpt lat="44.25685377210361" lon="11.083190785123028"><ele>501.6</ele><time>2026-05-02T09:45:29Z</time></trkpt><trkpt lat="44.256837079931046" lon="11.083050083103254"><ele>500.0</ele><time>2026-05-02T09:45:31Z</time></trkpt><trkpt lat="44.25674585339451" lon="11.083022825111982"><ele>497.0</ele><time>2026-05-02T09:45:33Z</time></trkpt><trkpt lat="44.25667311130884" lon="11.083060544494975"><ele>494.0</ele><time>2026-05-02T09:45:34Z</time></trkpt><trkpt lat="44.25641321710748" lon="11.083249277740176"><ele>491.0</ele><time>2026-05-02T09:45:36Z</time></trkpt><trkpt lat="44.25625325839395" lon="11.083324555999273"><ele>489.0</ele><time>2026-05-02T09:45:37Z</time></trkpt><trkpt lat="44.256097916789145" lon="11.083388453335651"><ele>487.0</ele><time>2026-05-02T09:45:38Z</time></trkpt><trkpt lat="44.25593784023155" lon="11.083409231213487"><ele>485.0</ele><time>2026-05-02T09:45:39Z</time></trkpt><trkpt lat="44.25580345209078" lon="11.083480057855073"><ele>485.0</ele><time>2026-05-02T09:45:40Z</time></trkpt><trkpt lat="44.25574397731408" lon="11.083539006071222"><ele>485.0</ele><time>2026-05-02T09:45:41Z</time></trkpt><trkpt lat="44.2556797034844" lon="11.083668897222697"><ele>485.0</ele><time>2026-05-02T09:45:42Z</time></trkpt><trkpt lat="44.25559906995028" lon="11.083822552802074"><ele>485.0</ele><time>2026-05-02T09:45:43Z</time></trkpt><trkpt lat="44.25547755631189" lon="11.084048256617702"><ele>481.8</ele><time>2026-05-02T09:45:44Z</time></trkpt><trkpt lat="44.25538669292333" lon="11.084219849148816"><ele>478.6</ele><time>2026-05-02T09:45:45Z</time></trkpt><trkpt lat="44.255315255231615" lon="11.084336381148443"><ele>475.4</ele><time>2026-05-02T09:45:46Z</time></trkpt><trkpt lat="44.255244739803416" lon="11.084341173582802"><ele>472.2</ele><time>2026-05-02T09:45:48Z</time></trkpt><trkpt lat="44.255157952307066" lon="11.084335375999729"><ele>469.0</ele><time>2026-05-02T09:45:50Z</time></trkpt><trkpt lat="44.25509432199624" lon="11.084315623845557"><ele>469.00000000000006</ele><time>2026-05-02T09:45:51Z</time></trkpt><trkpt lat="44.25501468630188" lon="11.084291701687114"><ele>469.0</ele><time>2026-05-02T09:45:52Z</time></trkpt><trkpt lat="44.25493229370135" lon="11.084266780476543"><ele>469.0</ele><time>2026-05-02T09:45:53Z</time></trkpt><trkpt lat="44.254846340839464" lon="11.08424067627163"><ele>469.0</ele><time>2026-05-02T09:45:54Z</time></trkpt><trkpt lat="44.25477114762626" lon="11.084217839817967"><ele>469.00000000000006</ele><time>2026-05-02T09:45:55Z</time></trkpt><trkpt lat="44.25468021516094" lon="11.084189459781106"><ele>469.0</ele><time>2026-05-02T09:45:56Z</time></trkpt><trkpt lat="44.2545853243818" lon="11.084156528937136"><ele>464.0</ele><time>2026-05-02T09:45:57Z</time></trkpt><trkpt lat="44.254484462529376" lon="11.084109686745691"><ele>459.0</ele><time>2026-05-02T09:45:58Z</time></trkpt><trkpt lat="44.254378724978196" lon="11.084050172753996"><ele>454.0</ele><time>2026-05-02T09:45:59Z</time></trkpt><trkpt lat="44.254273539905" lon="11.083990361615212"><ele>449.0</ele><time>2026-05-02T09:46:00Z</time></trkpt><trkpt lat="44.2541650934682" lon="11.083928695915018"><ele>448.0</ele><time>2026-05-02T09:46:01Z</time></trkpt><trkpt lat="44.254059159126925" lon="11.083867996343567"><ele>447.0</ele><time>2026-05-02T09:46:02Z</time></trkpt><trkpt lat="44.253949794100095" lon="11.083805082410953"><ele>446.0</ele><time>2026-05-02T09:46:03Z</time></trkpt><trkpt lat="44.253842115539435" lon="11.083743138677493"><ele>445.0</ele><time>2026-05-02T09:46:04Z</time></trkpt><trkpt lat="44.25372751954086" lon="11.083677215572923"><ele>439.6666666666667</ele><time>2026-05-02T09:46:05Z</time></trkpt><trkpt lat="44.253593035723014" lon="11.083601722001161"><ele>434.33333333333337</ele><time>2026-05-02T09:46:06Z</time></trkpt><trkpt lat="44.25343733154876" lon="11.083517411038175"><ele>429.0</ele><time>2026-05-02T09:46:07Z</time></trkpt><trkpt lat="44.25329833045691" lon="11.083440814152866"><ele>429.0</ele><time>2026-05-02T09:46:08Z</time></trkpt><trkpt lat="44.25317410489127" lon="11.083362760450452"><ele>429.0</ele><time>2026-05-02T09:46:09Z</time></trkpt><trkpt lat="44.253072495988675" lon="11.083281502510633"><ele>429.0</ele><time>2026-05-02T09:46:10Z</time></trkpt><trkpt lat="44.25299125960426" lon="11.083184712154903"><ele>429.0</ele><time>2026-05-02T09:46:11Z</time></trkpt><trkpt lat="44.25292800241026" lon="11.08308401494925"><ele>424.0</ele><time>2026-05-02T09:46:12Z</time></trkpt><trkpt lat="44.2528619244669" lon="11.082977089393236"><ele>419.0</ele><time>2026-05-02T09:46:13Z</time></trkpt><trkpt lat="44.25278453540272" lon="11.082851929061723"><ele>414.0</ele><time>2026-05-02T09:46:14Z</time></trkpt><trkpt lat="44.25269735224204" lon="11.0827125344579"><ele>409.0</ele><time>2026-05-02T09:46:15Z</time></trkpt><trkpt lat="44.252602555794084" lon="11.08262478370173"><ele>409.0</ele><time>2026-05-02T09:46:16Z</time></trkpt><trkpt lat="44.25250980407799" lon="11.082562257170519"><ele>409.0</ele><time>2026-05-02T09:46:17Z</time></trkpt><trkpt lat="44.25241953936255" lon="11.082525712780143"><ele>409.0</ele><time>2026-05-02T09:46:18Z</time></trkpt><trkpt lat="44.25236270275248" lon="11.082440764699161"><ele>409.0</ele><time>2026-05-02T09:46:19Z</time></trkpt><trkpt lat="44.25229445494883" lon="11.082346415981235"><ele>409.0</ele><time>2026-05-02T09:46:20Z</time></trkpt><trkpt lat="44.25222910684219" lon="11.082253588870369"><ele>404.79999999999995</ele><time>2026-05-02T09:46:21Z</time></trkpt><trkpt lat="44.252160415055805" lon="11.082153487287686"><ele>400.59999999999997</ele><time>2026-05-02T09:46:22Z</time></trkpt><trkpt lat="44.25209381764362" lon="11.082040283861746"><ele>396.4</ele><time>2026-05-02T09:46:23Z</time></trkpt><trkpt lat="44.25203344037927" lon="11.081932717680845"><ele>392.2</ele><time>2026-05-02T09:46:24Z</time></trkpt><trkpt lat="44.25198409058923" lon="11.081850723480647"><ele>388.0</ele><time>2026-05-02T09:46:25Z</time></trkpt><trkpt lat="44.2519348597255" lon="11.081779550890095"><ele>388.0</ele><time>2026-05-02T09:46:26Z</time></trkpt><trkpt lat="44.25185241287795" lon="11.081694136766597"><ele>388.0</ele><time>2026-05-02T09:46:28Z</time></trkpt><trkpt lat="44.25174566932162" lon="11.08154368746273"><ele>388.0</ele><time>2026-05-02T09:46:38Z</time></trkpt><trkpt lat="44.25164781594932" lon="11.081483734325827"><ele>388.0</ele><time>2026-05-02T09:46:39Z</time></trkpt><trkpt lat="44.25156276193338" lon="11.081403912541488"><ele>387.00000000000006</ele><time>2026-05-02T09:46:40Z</time></trkpt><trkpt lat="44.251510441797144" lon="11.081327086003068"><ele>386.0</ele><time>2026-05-02T09:46:41Z</time></trkpt><trkpt lat="44.25144587594158" lon="11.081346699183397"><ele>385.0</ele><time>2026-05-02T09:47:25Z</time></trkpt><trkpt lat="44.25139672869225" lon="11.0812693214944"><ele>384.0</ele><time>2026-05-02T09:47:56Z</time></trkpt><trkpt lat="44.25131036950839" lon="11.081251605639915"><ele>383.0</ele><time>2026-05-02T09:48:00Z</time></trkpt><trkpt lat="44.251221190327094" lon="11.08122759901768"><ele>382.0</ele><time>2026-05-02T09:48:02Z</time></trkpt><trkpt lat="44.251109993318664" lon="11.081175036009729"><ele>379.8333333333333</ele><time>2026-05-02T09:48:04Z</time></trkpt><trkpt lat="44.25107293358295" lon="11.081091407451847"><ele>377.66666666666663</ele><time>2026-05-02T09:48:05Z</time></trkpt><trkpt lat="44.2509878212821" lon="11.080999001062125"><ele>375.5</ele><time>2026-05-02T09:48:07Z</time></trkpt><trkpt lat="44.250950125290174" lon="11.0808456320873"><ele>373.3333333333333</ele><time>2026-05-02T09:48:09Z</time></trkpt><trkpt lat="44.25092667797051" lon="11.080758044611825"><ele>371.1666666666667</ele><time>2026-05-02T09:48:10Z</time></trkpt><trkpt lat="44.25091778158786" lon="11.080667521514235"><ele>369.0</ele><time>2026-05-02T09:48:11Z</time></trkpt><trkpt lat="44.25090337770531" lon="11.08048626549316"><ele>369.0</ele><time>2026-05-02T09:48:13Z</time></trkpt><trkpt lat="44.250876420183836" lon="11.080403572853262"><ele>369.0</ele><time>2026-05-02T09:48:14Z</time></trkpt><trkpt lat="44.250816141128325" lon="11.080332324978377"><ele>369.0</ele><time>2026-05-02T09:48:15Z</time></trkpt><trkpt lat="44.250742917751765" lon="11.080317740877273"><ele>369.0</ele><time>2026-05-02T09:48:16Z</time></trkpt><trkpt lat="44.25066989483536" lon="11.080359474688375"><ele>369.0</ele><time>2026-05-02T09:48:17Z</time></trkpt><trkpt lat="44.250611513532505" lon="11.08040498950418"><ele>369.0</ele><time>2026-05-02T09:48:18Z</time></trkpt><trkpt lat="44.2505039740297" lon="11.080474789087964"><ele>367.1666666666667</ele><time>2026-05-02T09:48:20Z</time></trkpt><trkpt lat="44.25043687983975" lon="11.080515011472343"><ele>365.3333333333333</ele><time>2026-05-02T09:48:21Z</time></trkpt><trkpt lat="44.25036837143482" lon="11.080546641187363"><ele>363.5</ele><time>2026-05-02T09:48:22Z</time></trkpt><trkpt lat="44.250297416655464" lon="11.080561521690163"><ele>361.66666666666663</ele><time>2026-05-02T09:48:23Z</time></trkpt><trkpt lat="44.25022021592396" lon="11.080556786566797"><ele>359.8333333333333</ele><time>2026-05-02T09:48:24Z</time></trkpt><trkpt lat="44.250143458254605" lon="11.080537327386955"><ele>358.0</ele><time>2026-05-02T09:48:25Z</time></trkpt><trkpt lat="44.25006435798589" lon="11.080509366410384"><ele>358.0</ele><time>2026-05-02T09:48:26Z</time></trkpt><trkpt lat="44.249980646490954" lon="11.080468435587147"><ele>358.0</ele><time>2026-05-02T09:48:27Z</time></trkpt><trkpt lat="44.24989372113942" lon="11.080419968246364"><ele>358.0</ele><time>2026-05-02T09:48:28Z</time></trkpt><trkpt lat="44.24981578514936" lon="11.080352920571217"><ele>358.0</ele><time>2026-05-02T09:48:29Z</time></trkpt><trkpt lat="44.24975862914826" lon="11.080273502737635"><ele>358.0</ele><time>2026-05-02T09:48:30Z</time></trkpt><trkpt lat="44.2496979696881" lon="11.080180398959753"><ele>358.0</ele><time>2026-05-02T09:48:31Z</time></trkpt><trkpt lat="44.249631389421495" lon="11.080095875790672"><ele>356.4</ele><time>2026-05-02T09:48:32Z</time></trkpt><trkpt lat="44.249549963909054" lon="11.080011791569524"><ele>354.79999999999995</ele><time>2026-05-02T09:48:33Z</time></trkpt><trkpt lat="44.249483633423765" lon="11.079933124110806"><ele>353.2</ele><time>2026-05-02T09:48:34Z</time></trkpt><trkpt lat="44.2494833914374" lon="11.079805366805664"><ele>351.6</ele><time>2026-05-02T09:48:35Z</time></trkpt><trkpt lat="44.249470584888854" lon="11.079677333538768"><ele>350.0</ele><time>2026-05-02T09:48:36Z</time></trkpt><trkpt lat="44.249417277832855" lon="11.0795691572416"><ele>350.0</ele><time>2026-05-02T09:48:37Z</time></trkpt><trkpt lat="44.249358493966206" lon="11.079487113518532"><ele>350.0</ele><time>2026-05-02T09:48:38Z</time></trkpt><trkpt lat="44.24931683001391" lon="11.079405889193033"><ele>350.0</ele><time>2026-05-02T09:48:39Z</time></trkpt><trkpt lat="44.24926345219208" lon="11.07934897802755"><ele>350.0</ele><time>2026-05-02T09:48:40Z</time></trkpt><trkpt lat="44.24918099419081" lon="11.079320827965084"><ele>350.0</ele><time>2026-05-02T09:48:41Z</time></trkpt><trkpt lat="44.24911695663787" lon="11.079299587209078"><ele>350.0</ele><time>2026-05-02T09:48:42Z</time></trkpt><trkpt lat="44.24901872622923" lon="11.079410992070503"><ele>346.75</ele><time>2026-05-02T09:48:43Z</time></trkpt><trkpt lat="44.24889440832967" lon="11.079428225609579"><ele>343.5</ele><time>2026-05-02T09:48:45Z</time></trkpt><trkpt lat="44.24876319377166" lon="11.079455670723084"><ele>340.25</ele><time>2026-05-02T09:48:47Z</time></trkpt><trkpt lat="44.248675098750645" lon="11.07945903303184"><ele>337.0</ele><time>2026-05-02T09:48:48Z</time></trkpt><trkpt lat="44.248570732775626" lon="11.079485227846869"><ele>337.0</ele><time>2026-05-02T09:48:49Z</time></trkpt><trkpt lat="44.248462614465815" lon="11.079525349670277"><ele>337.0</ele><time>2026-05-02T09:48:50Z</time></trkpt><trkpt lat="44.248347289458536" lon="11.079570155798917"><ele>337.0</ele><time>2026-05-02T09:48:51Z</time></trkpt><trkpt lat="44.248246231797324" lon="11.079614933211817"><ele>337.0</ele><time>2026-05-02T09:48:52Z</time></trkpt><trkpt lat="44.24813455755947" lon="11.079669285302957"><ele>334.0</ele><time>2026-05-02T09:48:53Z</time></trkpt><trkpt lat="44.24803348917648" lon="11.079725565686502"><ele>331.0</ele><time>2026-05-02T09:48:54Z</time></trkpt><trkpt lat="44.24793395090518" lon="11.079783892034605"><ele>328.0</ele><time>2026-05-02T09:48:55Z</time></trkpt><trkpt lat="44.247835047872975" lon="11.079835800674028"><ele>325.0</ele><time>2026-05-02T09:48:56Z</time></trkpt><trkpt lat="44.24772045855886" lon="11.079883608690816"><ele>322.0</ele><time>2026-05-02T09:48:57Z</time></trkpt><trkpt lat="44.24761037741632" lon="11.079926420020165"><ele>321.5</ele><time>2026-05-02T09:48:58Z</time></trkpt><trkpt lat="44.24749433515479" lon="11.079973971166524"><ele>321.0</ele><time>2026-05-02T09:48:59Z</time></trkpt><trkpt lat="44.24737605735232" lon="11.080026272258978"><ele>320.5</ele><time>2026-05-02T09:49:00Z</time></trkpt><trkpt lat="44.247256627279015" lon="11.080097732639333"><ele>320.0</ele><time>2026-05-02T09:49:01Z</time></trkpt><trkpt lat="44.24715623321734" lon="11.080168282038033"><ele>317.25</ele><time>2026-05-02T09:49:02Z</time></trkpt><trkpt lat="44.247049389268255" lon="11.080159742349267"><ele>314.5</ele><time>2026-05-02T09:49:03Z</time></trkpt><trkpt lat="44.24694379441663" lon="11.080149299834408"><ele>311.75</ele><time>2026-05-02T09:49:04Z</time></trkpt><trkpt lat="44.24682641001744" lon="11.080159535968987"><ele>309.0</ele><time>2026-05-02T09:49:05Z</time></trkpt><trkpt lat="44.24669768703406" lon="11.080171848938544"><ele>309.0</ele><time>2026-05-02T09:49:06Z</time></trkpt><trkpt lat="44.24657686455762" lon="11.080184541987984"><ele>309.0</ele><time>2026-05-02T09:49:07Z</time></trkpt><trkpt lat="44.2464556990034" lon="11.0801984822082"><ele>309.0</ele><time>2026-05-02T09:49:08Z</time></trkpt><trkpt lat="44.24634518143987" lon="11.08019607486128"><ele>309.0</ele><time>2026-05-02T09:49:09Z</time></trkpt><trkpt lat="44.2462266726818" lon="11.080177254132474"><ele>306.25</ele><time>2026-05-02T09:49:10Z</time></trkpt><trkpt lat="44.24610123519518" lon="11.080165493390368"><ele>303.5</ele><time>2026-05-02T09:49:11Z</time></trkpt><trkpt lat="44.24597398604939" lon="11.08016448862443"><ele>300.75</ele><time>2026-05-02T09:49:12Z</time></trkpt><trkpt lat="44.24585261370321" lon="11.080182303922431"><ele>298.0</ele><time>2026-05-02T09:49:13Z</time></trkpt><trkpt lat="44.245726192112656" lon="11.080226012204909"><ele>296.6</ele><time>2026-05-02T09:49:14Z</time></trkpt><trkpt lat="44.245610711483586" lon="11.080306283975988"><ele>295.20000000000005</ele><time>2026-05-02T09:49:15Z</time></trkpt><trkpt lat="44.24550713663775" lon="11.080392088643142"><ele>293.8</ele><time>2026-05-02T09:49:16Z</time></trkpt><trkpt lat="44.245411654715035" lon="11.080460284567899"><ele>292.40000000000003</ele><time>2026-05-02T09:49:17Z</time></trkpt><trkpt lat="44.245320476100055" lon="11.080482159223445"><ele>291.0</ele><time>2026-05-02T09:49:18Z</time></trkpt><trkpt lat="44.245223222478096" lon="11.080490097818537"><ele>291.0</ele><time>2026-05-02T09:49:19Z</time></trkpt><trkpt lat="44.245100880048795" lon="11.080497273368024"><ele>291.0</ele><time>2026-05-02T09:49:20Z</time></trkpt><trkpt lat="44.24498937485347" lon="11.080508202104847"><ele>291.0</ele><time>2026-05-02T09:49:21Z</time></trkpt><trkpt lat="44.24487559801955" lon="11.080563934305836"><ele>291.0</ele><time>2026-05-02T09:49:22Z</time></trkpt><trkpt lat="44.24476475808826" lon="11.080627115997471"><ele>287.5</ele><time>2026-05-02T09:49:23Z</time></trkpt><trkpt lat="44.244654913265855" lon="11.080689428071313"><ele>284.0</ele><time>2026-05-02T09:49:24Z</time></trkpt><trkpt lat="44.24454147353806" lon="11.08076088980917"><ele>280.5</ele><time>2026-05-02T09:49:25Z</time></trkpt><trkpt lat="44.24442253494298" lon="11.080842258185635"><ele>277.0</ele><time>2026-05-02T09:49:26Z</time></trkpt><trkpt lat="44.24429959602281" lon="11.080937007323927"><ele>277.0</ele><time>2026-05-02T09:49:27Z</time></trkpt><trkpt lat="44.244172602297276" lon="11.081045490683035"><ele>277.0</ele><time>2026-05-02T09:49:28Z</time></trkpt><trkpt lat="44.244062305933035" lon="11.081148930646956"><ele>277.0</ele><time>2026-05-02T09:49:29Z</time></trkpt><trkpt lat="44.243981081129725" lon="11.081226141803644"><ele>277.0</ele><time>2026-05-02T09:49:30Z</time></trkpt><trkpt lat="44.24388563311648" lon="11.081320873243579"><ele>273.0</ele><time>2026-05-02T09:49:31Z</time></trkpt><trkpt lat="44.243784993614156" lon="11.081422667786807"><ele>269.0</ele><time>2026-05-02T09:49:32Z</time></trkpt><trkpt lat="44.24368027258194" lon="11.081535731220416"><ele>265.0</ele><time>2026-05-02T09:49:33Z</time></trkpt><trkpt lat="44.243576830011584" lon="11.081655451633422"><ele>261.0</ele><time>2026-05-02T09:49:34Z</time></trkpt><trkpt lat="44.24346543267323" lon="11.081769078171556"><ele>261.0</ele><time>2026-05-02T09:49:35Z</time></trkpt><trkpt lat="44.243360278095935" lon="11.081882417587963"><ele>261.0</ele><time>2026-05-02T09:49:36Z</time></trkpt><trkpt lat="44.243262279641854" lon="11.08198872153417"><ele>261.0</ele><time>2026-05-02T09:49:37Z</time></trkpt><trkpt lat="44.24317450274467" lon="11.082084166976724"><ele>261.0</ele><time>2026-05-02T09:49:38Z</time></trkpt><trkpt lat="44.24311432024114" lon="11.082152577114721"><ele>261.0</ele><time>2026-05-02T09:49:39Z</time></trkpt><trkpt lat="44.243036862954064" lon="11.082243509066721"><ele>257.6</ele><time>2026-05-02T09:49:41Z</time></trkpt><trkpt lat="44.24293226575245" lon="11.082364668767296"><ele>254.20000000000002</ele><time>2026-05-02T09:49:43Z</time></trkpt><trkpt lat="44.24286677396381" lon="11.082438702165735"><ele>250.79999999999998</ele><time>2026-05-02T09:49:44Z</time></trkpt><trkpt lat="44.24279677952394" lon="11.082517825320156"><ele>247.39999999999998</ele><time>2026-05-02T09:49:45Z</time></trkpt><trkpt lat="44.2427241044073" lon="11.082599978756988"><ele>244.0</ele><time>2026-05-02T09:49:46Z</time></trkpt><trkpt lat="44.24264635725948" lon="11.08268786584101"><ele>244.0</ele><time>2026-05-02T09:49:47Z</time></trkpt><trkpt lat="44.2425829453137" lon="11.082746609463541"><ele>243.99999999999997</ele><time>2026-05-02T09:49:48Z</time></trkpt><trkpt lat="44.2424810306099" lon="11.082709201141766"><ele>243.99999999999997</ele><time>2026-05-02T09:49:50Z</time></trkpt><trkpt lat="44.242462779814474" lon="11.082606497575329"><ele>244.0</ele><time>2026-05-02T09:49:51Z</time></trkpt><trkpt lat="44.242421643915854" lon="11.08239538302621"><ele>244.0</ele><time>2026-05-02T09:49:53Z</time></trkpt><trkpt lat="44.242415017021976" lon="11.082271263068307"><ele>243.33333333333331</ele><time>2026-05-02T09:49:54Z</time></trkpt><trkpt lat="44.24240435539962" lon="11.082143852043169"><ele>242.66666666666666</ele><time>2026-05-02T09:49:55Z</time></trkpt><trkpt lat="44.24239333762329" lon="11.082032337569375"><ele>242.0</ele><time>2026-05-02T09:49:56Z</time></trkpt><trkpt lat="44.24238325765986" lon="11.081927910086769"><ele>241.33333333333331</ele><time>2026-05-02T09:49:57Z</time></trkpt><trkpt lat="44.24237068560253" lon="11.08180965276677"><ele>240.66666666666666</ele><time>2026-05-02T09:49:59Z</time></trkpt><trkpt lat="44.24236369699982" lon="11.081678646390836"><ele>240.0</ele><time>2026-05-02T09:50:01Z</time></trkpt><trkpt lat="44.24237897605122" lon="11.081572203669973"><ele>238.5</ele><time>2026-05-02T09:50:02Z</time></trkpt><trkpt lat="44.24240863570885" lon="11.081445708267715"><ele>237.0</ele><time>2026-05-02T09:50:03Z</time></trkpt><trkpt lat="44.24244048558395" lon="11.081286893416669"><ele>235.5</ele><time>2026-05-02T09:50:04Z</time></trkpt><trkpt lat="44.24247866216615" lon="11.081129182769116"><ele>234.0</ele><time>2026-05-02T09:50:05Z</time></trkpt><trkpt lat="44.24252847293904" lon="11.080972184722508"><ele>234.0</ele><time>2026-05-02T09:50:06Z</time></trkpt><trkpt lat="44.2425862870312" lon="11.080812422919646"><ele>234.0</ele><time>2026-05-02T09:50:07Z</time></trkpt><trkpt lat="44.242631250841214" lon="11.080635041994078"><ele>234.0</ele><time>2026-05-02T09:50:08Z</time></trkpt><trkpt lat="44.24265912149533" lon="11.080442830026856"><ele>234.0</ele><time>2026-05-02T09:50:09Z</time></trkpt><trkpt lat="44.24267537740395" lon="11.08024477918656"><ele>232.5</ele><time>2026-05-02T09:50:10Z</time></trkpt><trkpt lat="44.242681643901726" lon="11.080038310745065"><ele>231.0</ele><time>2026-05-02T09:50:11Z</time></trkpt><trkpt lat="44.24270028320164" lon="11.079833106133206"><ele>229.5</ele><time>2026-05-02T09:50:12Z</time></trkpt><trkpt lat="44.242732992365326" lon="11.079646197756077"><ele>228.0</ele><time>2026-05-02T09:50:13Z</time></trkpt><trkpt lat="44.24277928713924" lon="11.079455639052487"><ele>227.5</ele><time>2026-05-02T09:50:14Z</time></trkpt><trkpt lat="44.24284213416567" lon="11.079279644743279"><ele>227.0</ele><time>2026-05-02T09:50:15Z</time></trkpt><trkpt lat="44.24291908587958" lon="11.079115588797801"><ele>226.5</ele><time>2026-05-02T09:50:16Z</time></trkpt><trkpt lat="44.243002018321725" lon="11.078963651138837"><ele>226.0</ele><time>2026-05-02T09:50:17Z</time></trkpt><trkpt lat="44.24307474777869" lon="11.078816977582568"><ele>226.0</ele><time>2026-05-02T09:50:18Z</time></trkpt><trkpt lat="44.24312556537262" lon="11.078672845494047"><ele>226.0</ele><time>2026-05-02T09:50:19Z</time></trkpt><trkpt lat="44.243139771180424" lon="11.07851717287989"><ele>226.0</ele><time>2026-05-02T09:50:20Z</time></trkpt><trkpt lat="44.24313128614598" lon="11.07833969618179"><ele>226.0</ele><time>2026-05-02T09:50:21Z</time></trkpt><trkpt lat="44.24310791447247" lon="11.078156071955206"><ele>226.5</ele><time>2026-05-02T09:50:22Z</time></trkpt><trkpt lat="44.24309378951165" lon="11.077976101745813"><ele>227.0</ele><time>2026-05-02T09:50:23Z</time></trkpt><trkpt lat="44.243083198274554" lon="11.077792818455972"><ele>227.5</ele><time>2026-05-02T09:50:24Z</time></trkpt><trkpt lat="44.24307251126073" lon="11.077606959216897"><ele>228.0</ele><time>2026-05-02T09:50:25Z</time></trkpt><trkpt lat="44.2430562540954" lon="11.07741722688103"><ele>229.0</ele><time>2026-05-02T09:50:26Z</time></trkpt><trkpt lat="44.243024175211666" lon="11.077223173334213"><ele>230.0</ele><time>2026-05-02T09:50:27Z</time></trkpt><trkpt lat="44.24297070500503" lon="11.077037674684528"><ele>231.0</ele><time>2026-05-02T09:50:28Z</time></trkpt><trkpt lat="44.242889394440056" lon="11.076862619129885"><ele>232.0</ele><time>2026-05-02T09:50:29Z</time></trkpt><trkpt lat="44.24279873550429" lon="11.076692145097939"><ele>232.75</ele><time>2026-05-02T09:50:30Z</time></trkpt><trkpt lat="44.24271705492039" lon="11.076515538768488"><ele>233.5</ele><time>2026-05-02T09:50:31Z</time></trkpt><trkpt lat="44.24265044849145" lon="11.076335885036306"><ele>234.25</ele><time>2026-05-02T09:50:32Z</time></trkpt><trkpt lat="44.24259876901117" lon="11.076140522012416"><ele>235.0</ele><time>2026-05-02T09:50:33Z</time></trkpt><trkpt lat="44.2425833199985" lon="11.075950644976762"><ele>235.5</ele><time>2026-05-02T09:50:34Z</time></trkpt><trkpt lat="44.24260578826618" lon="11.07576505460716"><ele>236.0</ele><time>2026-05-02T09:50:35Z</time></trkpt><trkpt lat="44.24264256282295" lon="11.075567436168356"><ele>236.5</ele><time>2026-05-02T09:50:36Z</time></trkpt><trkpt lat="44.242665365357844" lon="11.075363365117282"><ele>237.0</ele><time>2026-05-02T09:50:37Z</time></trkpt><trkpt lat="44.24265394776297" lon="11.075153044303566"><ele>237.0</ele><time>2026-05-02T09:50:38Z</time></trkpt><trkpt lat="44.24261320523466" lon="11.074949973536105"><ele>237.0</ele><time>2026-05-02T09:50:39Z</time></trkpt><trkpt lat="44.24253353799648" lon="11.07477357117113"><ele>237.0</ele><time>2026-05-02T09:50:40Z</time></trkpt><trkpt lat="44.24242825088159" lon="11.074617032435759"><ele>235.33333333333331</ele><time>2026-05-02T09:50:41Z</time></trkpt><trkpt lat="44.2423254518936" lon="11.074449859466375"><ele>233.66666666666666</ele><time>2026-05-02T09:50:42Z</time></trkpt><trkpt lat="44.24220685685364" lon="11.07429956799028"><ele>232.0</ele><time>2026-05-02T09:50:43Z</time></trkpt><trkpt lat="44.242091510876485" lon="11.074156205035155"><ele>233.0</ele><time>2026-05-02T09:50:44Z</time></trkpt><trkpt lat="44.24196491359014" lon="11.074024279401485"><ele>234.0</ele><time>2026-05-02T09:50:45Z</time></trkpt><trkpt lat="44.241844893717015" lon="11.07386729597157"><ele>235.0</ele><time>2026-05-02T09:50:46Z</time></trkpt><trkpt lat="44.24173020785076" lon="11.073693552648738"><ele>235.0</ele><time>2026-05-02T09:50:47Z</time></trkpt><trkpt lat="44.24159456544434" lon="11.073563301456838"><ele>235.0</ele><time>2026-05-02T09:50:48Z</time></trkpt><trkpt lat="44.24146389865476" lon="11.073418199121177"><ele>235.0</ele><time>2026-05-02T09:50:49Z</time></trkpt><trkpt lat="44.24132479533387" lon="11.073286034059512"><ele>234.66666666666666</ele><time>2026-05-02T09:50:50Z</time></trkpt><trkpt lat="44.241189410150966" lon="11.073168308822602"><ele>234.33333333333331</ele><time>2026-05-02T09:50:51Z</time></trkpt><trkpt lat="44.24106476486075" lon="11.073023128367407"><ele>234.0</ele><time>2026-05-02T09:50:52Z</time></trkpt><trkpt lat="44.240934649551235" lon="11.072916108629752"><ele>234.0</ele><time>2026-05-02T09:50:53Z</time></trkpt><trkpt lat="44.24082835031495" lon="11.072764147905739"><ele>234.0</ele><time>2026-05-02T09:50:54Z</time></trkpt><trkpt lat="44.240757462219136" lon="11.072583999183184"><ele>234.0</ele><time>2026-05-02T09:50:55Z</time></trkpt><trkpt lat="44.24068607999569" lon="11.072406335524938"><ele>234.0</ele><time>2026-05-02T09:50:56Z</time></trkpt><trkpt lat="44.2406145463508" lon="11.072242033533072"><ele>234.5</ele><time>2026-05-02T09:50:57Z</time></trkpt><trkpt lat="44.24056153851181" lon="11.072091316799506"><ele>235.0</ele><time>2026-05-02T09:50:58Z</time></trkpt><trkpt lat="44.24050038762618" lon="11.071971854217798"><ele>235.5</ele><time>2026-05-02T09:50:59Z</time></trkpt><trkpt lat="44.24042206988039" lon="11.071864126184819"><ele>236.0</ele><time>2026-05-02T09:51:00Z</time></trkpt><trkpt lat="44.240326019257544" lon="11.071774621725975"><ele>236.0</ele><time>2026-05-02T09:51:01Z</time></trkpt><trkpt lat="44.2402271554228" lon="11.071672856902119"><ele>236.0</ele><time>2026-05-02T09:51:02Z</time></trkpt><trkpt lat="44.24009937328017" lon="11.07160733037579"><ele>236.0</ele><time>2026-05-02T09:51:03Z</time></trkpt><trkpt lat="44.239959418268896" lon="11.071572290831396"><ele>236.0</ele><time>2026-05-02T09:51:04Z</time></trkpt><trkpt lat="44.239810045409605" lon="11.071585314601517"><ele>236.0</ele><time>2026-05-02T09:51:05Z</time></trkpt><trkpt lat="44.23966353171317" lon="11.071625153772384"><ele>236.0</ele><time>2026-05-02T09:51:06Z</time></trkpt><trkpt lat="44.23953872856045" lon="11.071663827480226"><ele>236.0</ele><time>2026-05-02T09:51:07Z</time></trkpt><trkpt lat="44.23942019407845" lon="11.07170148549067"><ele>236.0</ele><time>2026-05-02T09:51:08Z</time></trkpt><trkpt lat="44.23931495620504" lon="11.071738491578861"><ele>236.0</ele><time>2026-05-02T09:51:09Z</time></trkpt><trkpt lat="44.23921175987216" lon="11.071770117752472"><ele>236.00000000000003</ele><time>2026-05-02T09:51:10Z</time></trkpt><trkpt lat="44.23911254838963" lon="11.071797103087576"><ele>236.00000000000003</ele><time>2026-05-02T09:51:11Z</time></trkpt><trkpt lat="44.23901101918366" lon="11.071810049441062"><ele>236.0</ele><time>2026-05-02T09:51:12Z</time></trkpt><trkpt lat="44.238910530651786" lon="11.071784788710314"><ele>236.0</ele><time>2026-05-02T09:51:13Z</time></trkpt><trkpt lat="44.23881233610263" lon="11.071738260882647"><ele>236.25</ele><time>2026-05-02T09:51:14Z</time></trkpt><trkpt lat="44.23871982273402" lon="11.071653142019446"><ele>236.5</ele><time>2026-05-02T09:51:15Z</time></trkpt><trkpt lat="44.238634816317166" lon="11.071537523215198"><ele>236.75</ele><time>2026-05-02T09:51:16Z</time></trkpt><trkpt lat="44.238554251557474" lon="11.071370721022737"><ele>237.0</ele><time>2026-05-02T09:51:17Z</time></trkpt><trkpt lat="44.2384646805636" lon="11.071206291395265"><ele>238.66666666666669</ele><time>2026-05-02T09:51:18Z</time></trkpt><trkpt lat="44.238400260139834" lon="11.071026995699954"><ele>240.33333333333334</ele><time>2026-05-02T09:51:19Z</time></trkpt><trkpt lat="44.238327504225424" lon="11.070850371593073"><ele>242.0</ele><time>2026-05-02T09:51:20Z</time></trkpt><trkpt lat="44.238240022766554" lon="11.070659131090236"><ele>243.0</ele><time>2026-05-02T09:51:21Z</time></trkpt><trkpt lat="44.238167372560326" lon="11.070468776620917"><ele>244.0</ele><time>2026-05-02T09:51:22Z</time></trkpt><trkpt lat="44.238094512153594" lon="11.070284025094287"><ele>245.0</ele><time>2026-05-02T09:51:23Z</time></trkpt><trkpt lat="44.23799924154493" lon="11.070135996154782"><ele>246.0</ele><time>2026-05-02T09:51:24Z</time></trkpt><trkpt lat="44.237909499370396" lon="11.070059578138904"><ele>247.0</ele><time>2026-05-02T09:51:25Z</time></trkpt><trkpt lat="44.23778973684338" lon="11.070034584895451"><ele>248.0</ele><time>2026-05-02T09:51:26Z</time></trkpt><trkpt lat="44.23766256178565" lon="11.070070001417117"><ele>249.0</ele><time>2026-05-02T09:51:27Z</time></trkpt><trkpt lat="44.23753318795297" lon="11.070141267520938"><ele>250.0</ele><time>2026-05-02T09:51:28Z</time></trkpt><trkpt lat="44.23736454821297" lon="11.070171823412428"><ele>251.0</ele><time>2026-05-02T09:51:29Z</time></trkpt><trkpt lat="44.237206961475955" lon="11.070108214709299"><ele>252.0</ele><time>2026-05-02T09:51:30Z</time></trkpt><trkpt lat="44.23705582717044" lon="11.070047995280786"><ele>253.0</ele><time>2026-05-02T09:51:31Z</time></trkpt><trkpt lat="44.23690073543137" lon="11.069972523157231"><ele>259.3333333333333</ele><time>2026-05-02T09:51:32Z</time></trkpt><trkpt lat="44.23674437017937" lon="11.069890623315008"><ele>265.6666666666667</ele><time>2026-05-02T09:51:33Z</time></trkpt><trkpt lat="44.23660210173333" lon="11.069815459523035"><ele>272.0</ele><time>2026-05-02T09:51:34Z</time></trkpt><trkpt lat="44.236456029853606" lon="11.069738293551309"><ele>272.0</ele><time>2026-05-02T09:51:35Z</time></trkpt><trkpt lat="44.23629574013944" lon="11.069675868486625"><ele>272.0</ele><time>2026-05-02T09:51:36Z</time></trkpt><trkpt lat="44.2361265631845" lon="11.069653118880977"><ele>272.0</ele><time>2026-05-02T09:51:37Z</time></trkpt><trkpt lat="44.23595712999666" lon="11.069639385795147"><ele>272.0</ele><time>2026-05-02T09:51:38Z</time></trkpt><trkpt lat="44.23579659571175" lon="11.069620707695103"><ele>272.0</ele><time>2026-05-02T09:51:39Z</time></trkpt><trkpt lat="44.23562354148621" lon="11.069594323504065"><ele>272.0</ele><time>2026-05-02T09:51:40Z</time></trkpt><trkpt lat="44.23545787797497" lon="11.069567936475005"><ele>271.0</ele><time>2026-05-02T09:51:41Z</time></trkpt><trkpt lat="44.235283696407265" lon="11.069573457705152"><ele>270.0</ele><time>2026-05-02T09:51:42Z</time></trkpt><trkpt lat="44.23511381341196" lon="11.069541381513096"><ele>269.0</ele><time>2026-05-02T09:51:43Z</time></trkpt><trkpt lat="44.23495281925196" lon="11.069501840485312"><ele>267.0</ele><time>2026-05-02T09:51:44Z</time></trkpt><trkpt lat="44.234791929709566" lon="11.069463600764642"><ele>265.0</ele><time>2026-05-02T09:51:45Z</time></trkpt><trkpt lat="44.234631754284315" lon="11.069427990248501"><ele>263.0</ele><time>2026-05-02T09:51:46Z</time></trkpt><trkpt lat="44.234481824372075" lon="11.06938036172457"><ele>263.0</ele><time>2026-05-02T09:51:47Z</time></trkpt><trkpt lat="44.23433454821935" lon="11.069305500831021"><ele>263.0</ele><time>2026-05-02T09:51:48Z</time></trkpt><trkpt lat="44.234186644124165" lon="11.069249338298627"><ele>263.0</ele><time>2026-05-02T09:51:49Z</time></trkpt><trkpt lat="44.234056179508514" lon="11.069184013347291"><ele>263.0</ele><time>2026-05-02T09:51:50Z</time></trkpt><trkpt lat="44.23395696451263" lon="11.069089362811082"><ele>264.5</ele><time>2026-05-02T09:51:51Z</time></trkpt><trkpt lat="44.23388446568434" lon="11.068959067217135"><ele>266.0</ele><time>2026-05-02T09:51:52Z</time></trkpt><trkpt lat="44.2338461423412" lon="11.068799679861435"><ele>267.5</ele><time>2026-05-02T09:51:53Z</time></trkpt><trkpt lat="44.23384704568242" lon="11.068638676814084"><ele>269.0</ele><time>2026-05-02T09:51:54Z</time></trkpt><trkpt lat="44.23382169666846" lon="11.068455398811713"><ele>269.0</ele><time>2026-05-02T09:51:55Z</time></trkpt><trkpt lat="44.23374969442559" lon="11.06831589037096"><ele>269.0</ele><time>2026-05-02T09:51:56Z</time></trkpt><trkpt lat="44.23363046208488" lon="11.06822708760924"><ele>269.0</ele><time>2026-05-02T09:51:57Z</time></trkpt><trkpt lat="44.233509454566516" lon="11.068156988351385"><ele>269.0</ele><time>2026-05-02T09:51:58Z</time></trkpt><trkpt lat="44.23337733381907" lon="11.068106457277768"><ele>268.0</ele><time>2026-05-02T09:51:59Z</time></trkpt><trkpt lat="44.23323788026294" lon="11.068086960913364"><ele>267.0</ele><time>2026-05-02T09:52:00Z</time></trkpt><trkpt lat="44.233102463024466" lon="11.068075985371538"><ele>266.0</ele><time>2026-05-02T09:52:01Z</time></trkpt><trkpt lat="44.23298378561694" lon="11.068027321494968"><ele>265.0</ele><time>2026-05-02T09:52:02Z</time></trkpt><trkpt lat="44.23290439480512" lon="11.067903842053589"><ele>265.0</ele><time>2026-05-02T09:52:03Z</time></trkpt><trkpt lat="44.2328194183944" lon="11.06774802811824"><ele>265.0</ele><time>2026-05-02T09:52:04Z</time></trkpt><trkpt lat="44.232714148714855" lon="11.067580980784815"><ele>265.0</ele><time>2026-05-02T09:52:05Z</time></trkpt><trkpt lat="44.232630145093516" lon="11.067396179864362"><ele>267.66666666666663</ele><time>2026-05-02T09:52:06Z</time></trkpt><trkpt lat="44.23253678697759" lon="11.067216356507979"><ele>270.3333333333333</ele><time>2026-05-02T09:52:07Z</time></trkpt><trkpt lat="44.23244579111096" lon="11.067038457385538"><ele>273.0</ele><time>2026-05-02T09:52:08Z</time></trkpt><trkpt lat="44.23236093511406" lon="11.066852002494231"><ele>269.0</ele><time>2026-05-02T09:52:09Z</time></trkpt><trkpt lat="44.23227238626771" lon="11.066660958470496"><ele>265.0</ele><time>2026-05-02T09:52:10Z</time></trkpt><trkpt lat="44.23219510244085" lon="11.066471201302727"><ele>261.0</ele><time>2026-05-02T09:52:11Z</time></trkpt><trkpt lat="44.232112485622835" lon="11.066282298710908"><ele>261.0</ele><time>2026-05-02T09:52:12Z</time></trkpt><trkpt lat="44.23203067670468" lon="11.066088178154637"><ele>261.0</ele><time>2026-05-02T09:52:13Z</time></trkpt><trkpt lat="44.23194690563475" lon="11.065893688244739"><ele>261.0</ele><time>2026-05-02T09:52:14Z</time></trkpt><trkpt lat="44.23186903145005" lon="11.06569697335822"><ele>262.6666666666667</ele><time>2026-05-02T09:52:15Z</time></trkpt><trkpt lat="44.23178381100355" lon="11.065499849498298"><ele>264.33333333333337</ele><time>2026-05-02T09:52:16Z</time></trkpt><trkpt lat="44.23169901839542" lon="11.065303269940056"><ele>266.0</ele><time>2026-05-02T09:52:17Z</time></trkpt><trkpt lat="44.231611647365" lon="11.065106516323894"><ele>265.33333333333337</ele><time>2026-05-02T09:52:18Z</time></trkpt><trkpt lat="44.23153373724312" lon="11.06491141254705"><ele>264.6666666666667</ele><time>2026-05-02T09:52:19Z</time></trkpt><trkpt lat="44.23144110806737" lon="11.064711875929227"><ele>264.0</ele><time>2026-05-02T09:52:20Z</time></trkpt><trkpt lat="44.231350694684274" lon="11.064530055274039"><ele>264.0</ele><time>2026-05-02T09:52:21Z</time></trkpt><trkpt lat="44.231237943108106" lon="11.064357595753364"><ele>264.0</ele><time>2026-05-02T09:52:22Z</time></trkpt><trkpt lat="44.231119492801234" lon="11.064190668778238"><ele>264.0</ele><time>2026-05-02T09:52:23Z</time></trkpt><trkpt lat="44.230985227591525" lon="11.064068241834727"><ele>264.25</ele><time>2026-05-02T09:52:24Z</time></trkpt><trkpt lat="44.230867936020466" lon="11.063977453605586"><ele>264.5</ele><time>2026-05-02T09:52:25Z</time></trkpt><trkpt lat="44.23074189463059" lon="11.063894035002182"><ele>264.75</ele><time>2026-05-02T09:52:26Z</time></trkpt><trkpt lat="44.230609149229686" lon="11.063811398390929"><ele>265.0</ele><time>2026-05-02T09:52:27Z</time></trkpt><trkpt lat="44.23045509550014" lon="11.063768266576318"><ele>265.0</ele><time>2026-05-02T09:52:28Z</time></trkpt><trkpt lat="44.23031893952695" lon="11.063676393693544"><ele>265.0</ele><time>2026-05-02T09:52:29Z</time></trkpt><trkpt lat="44.23019464098903" lon="11.063562324560813"><ele>265.0</ele><time>2026-05-02T09:52:30Z</time></trkpt><trkpt lat="44.23011088742552" lon="11.063408827513799"><ele>265.0</ele><time>2026-05-02T09:52:31Z</time></trkpt><trkpt lat="44.23005250840484" lon="11.063217261418906"><ele>269.3333333333333</ele><time>2026-05-02T09:52:32Z</time></trkpt><trkpt lat="44.22999061495446" lon="11.06302242543829"><ele>273.6666666666667</ele><time>2026-05-02T09:52:33Z</time></trkpt><trkpt lat="44.22990054506385" lon="11.062852454073106"><ele>278.0</ele><time>2026-05-02T09:52:34Z</time></trkpt><trkpt lat="44.22980123636495" lon="11.062701893950006"><ele>271.5</ele><time>2026-05-02T09:52:35Z</time></trkpt><trkpt lat="44.2297245055501" lon="11.062539508174938"><ele>265.0</ele><time>2026-05-02T09:52:36Z</time></trkpt><trkpt lat="44.22965332288585" lon="11.062390546014766"><ele>258.5</ele><time>2026-05-02T09:52:37Z</time></trkpt><trkpt lat="44.22960285396194" lon="11.062231786711648"><ele>252.0</ele><time>2026-05-02T09:52:38Z</time></trkpt><trkpt lat="44.229565395427436" lon="11.062072355236678"><ele>252.0</ele><time>2026-05-02T09:52:39Z</time></trkpt><trkpt lat="44.229529207423596" lon="11.061924244310179"><ele>252.0</ele><time>2026-05-02T09:52:40Z</time></trkpt><trkpt lat="44.22951735942892" lon="11.061769550044305"><ele>252.0</ele><time>2026-05-02T09:52:41Z</time></trkpt><trkpt lat="44.229545542124846" lon="11.061613028130983"><ele>252.0</ele><time>2026-05-02T09:52:42Z</time></trkpt><trkpt lat="44.229620014952864" lon="11.061483470590822"><ele>250.25</ele><time>2026-05-02T09:52:43Z</time></trkpt><trkpt lat="44.22972071581269" lon="11.061369678639705"><ele>248.5</ele><time>2026-05-02T09:52:44Z</time></trkpt><trkpt lat="44.229820976418324" lon="11.061268665751076"><ele>246.75</ele><time>2026-05-02T09:52:45Z</time></trkpt><trkpt lat="44.22990644363678" lon="11.061162908531003"><ele>245.0</ele><time>2026-05-02T09:52:46Z</time></trkpt><trkpt lat="44.22997880782058" lon="11.0610521693423"><ele>248.5</ele><time>2026-05-02T09:52:47Z</time></trkpt><trkpt lat="44.23004553134493" lon="11.060927313965788"><ele>252.0</ele><time>2026-05-02T09:52:48Z</time></trkpt><trkpt lat="44.23009745333664" lon="11.06077842473988"><ele>255.5</ele><time>2026-05-02T09:52:49Z</time></trkpt><trkpt lat="44.23011276177904" lon="11.060616989782693"><ele>259.0</ele><time>2026-05-02T09:52:50Z</time></trkpt><trkpt lat="44.23011546762257" lon="11.060467493283335"><ele>259.0</ele><time>2026-05-02T09:52:51Z</time></trkpt><trkpt lat="44.230108122515226" lon="11.0603330095913"><ele>259.0</ele><time>2026-05-02T09:52:52Z</time></trkpt><trkpt lat="44.23010026825291" lon="11.06020441092899"><ele>259.0</ele><time>2026-05-02T09:52:53Z</time></trkpt><trkpt lat="44.23009073852781" lon="11.060082211311038"><ele>259.0</ele><time>2026-05-02T09:52:54Z</time></trkpt><trkpt lat="44.23008781721936" lon="11.059941015156056"><ele>259.0</ele><time>2026-05-02T09:52:55Z</time></trkpt><trkpt lat="44.23008379187451" lon="11.059790313532108"><ele>258.0</ele><time>2026-05-02T09:52:56Z</time></trkpt><trkpt lat="44.23007645958197" lon="11.059621394723269"><ele>257.0</ele><time>2026-05-02T09:52:57Z</time></trkpt><trkpt lat="44.230070627002085" lon="11.059462024048415"><ele>255.99999999999997</ele><time>2026-05-02T09:52:58Z</time></trkpt><trkpt lat="44.23006614868219" lon="11.059360096130403"><ele>255.0</ele><time>2026-05-02T09:52:59Z</time></trkpt><trkpt lat="44.230055200825255" lon="11.05923489000509"><ele>254.0</ele><time>2026-05-02T09:53:01Z</time></trkpt><trkpt lat="44.23005351764887" lon="11.059127132899944"><ele>254.0</ele><time>2026-05-02T09:53:02Z</time></trkpt><trkpt lat="44.23005042892392" lon="11.058997079800273"><ele>253.99999999999997</ele><time>2026-05-02T09:53:03Z</time></trkpt><trkpt lat="44.23004599937149" lon="11.058853170257382"><ele>253.99999999999997</ele><time>2026-05-02T09:53:04Z</time></trkpt><trkpt lat="44.23003720084682" lon="11.058699692149183"><ele>254.0</ele><time>2026-05-02T09:53:05Z</time></trkpt><trkpt lat="44.230030878475944" lon="11.05855165538751"><ele>254.0</ele><time>2026-05-02T09:53:06Z</time></trkpt><trkpt lat="44.23002234739757" lon="11.058419572510559"><ele>254.0</ele><time>2026-05-02T09:53:07Z</time></trkpt><trkpt lat="44.23001459384566" lon="11.058292407498964"><ele>253.99999999999997</ele><time>2026-05-02T09:53:08Z</time></trkpt><trkpt lat="44.23001413069351" lon="11.058172851960943"><ele>253.99999999999997</ele><time>2026-05-02T09:53:09Z</time></trkpt><trkpt lat="44.23001988799512" lon="11.058046344516672"><ele>254.0</ele><time>2026-05-02T09:53:10Z</time></trkpt><trkpt lat="44.23003317636015" lon="11.057917999734192"><ele>254.0</ele><time>2026-05-02T09:53:11Z</time></trkpt><trkpt lat="44.2300440378383" lon="11.05776364046272"><ele>253.0</ele><time>2026-05-02T09:53:12Z</time></trkpt><trkpt lat="44.23006944858591" lon="11.057608136604943"><ele>252.0</ele><time>2026-05-02T09:53:13Z</time></trkpt><trkpt lat="44.23009613844744" lon="11.057452177888083"><ele>251.0</ele><time>2026-05-02T09:53:14Z</time></trkpt><trkpt lat="44.23012069893413" lon="11.057300009895325"><ele>250.0</ele><time>2026-05-02T09:53:15Z</time></trkpt><trkpt lat="44.23014505564798" lon="11.057138289732032"><ele>249.25</ele><time>2026-05-02T09:53:16Z</time></trkpt><trkpt lat="44.23017554547333" lon="11.056974474269186"><ele>248.5</ele><time>2026-05-02T09:53:17Z</time></trkpt><trkpt lat="44.23022746367423" lon="11.05682232971121"><ele>247.75</ele><time>2026-05-02T09:53:18Z</time></trkpt><trkpt lat="44.230292206984906" lon="11.056670866490222"><ele>247.0</ele><time>2026-05-02T09:53:19Z</time></trkpt><trkpt lat="44.23037099854136" lon="11.05653554244499"><ele>246.39999999999998</ele><time>2026-05-02T09:53:20Z</time></trkpt><trkpt lat="44.23045752640854" lon="11.056418131074528"><ele>245.79999999999998</ele><time>2026-05-02T09:53:21Z</time></trkpt><trkpt lat="44.230537374726005" lon="11.056321711601356"><ele>245.2</ele><time>2026-05-02T09:53:22Z</time></trkpt><trkpt lat="44.23060073815489" lon="11.056243816216105"><ele>244.6</ele><time>2026-05-02T09:53:23Z</time></trkpt><trkpt lat="44.23064248224614" lon="11.056175347390962"><ele>244.0</ele><time>2026-05-02T09:53:24Z</time></trkpt><trkpt lat="44.23065721334503" lon="11.056013454613886"><ele>244.0</ele><time>2026-05-02T09:53:26Z</time></trkpt><trkpt lat="44.230570019306" lon="11.055909120466163"><ele>243.99999999999997</ele><time>2026-05-02T09:53:28Z</time></trkpt><trkpt lat="44.230501793864" lon="11.055894625924582"><ele>243.99999999999997</ele><time>2026-05-02T09:53:29Z</time></trkpt><trkpt lat="44.23040689344406" lon="11.055880172666807"><ele>244.0</ele><time>2026-05-02T09:53:31Z</time></trkpt><trkpt lat="44.230294879851336" lon="11.055862215843995"><ele>244.0</ele><time>2026-05-02T09:53:33Z</time></trkpt><trkpt lat="44.230206238624625" lon="11.055820580024058"><ele>244.0</ele><time>2026-05-02T09:53:34Z</time></trkpt><trkpt lat="44.23009399370411" lon="11.05579780199117"><ele>243.99999999999997</ele><time>2026-05-02T09:53:36Z</time></trkpt><trkpt lat="44.23000546160474" lon="11.055780113946142"><ele>243.99999999999997</ele><time>2026-05-02T09:53:37Z</time></trkpt><trkpt lat="44.229914318105436" lon="11.055761904174064"><ele>244.0</ele><time>2026-05-02T09:53:38Z</time></trkpt><trkpt lat="44.22984070782864" lon="11.05574719739836"><ele>244.0</ele><time>2026-05-02T09:53:40Z</time></trkpt><trkpt lat="44.229761261344386" lon="11.055731324619321"><ele>245.83333333333331</ele><time>2026-05-02T09:53:42Z</time></trkpt><trkpt lat="44.22968759627667" lon="11.055716606928089"><ele>247.66666666666666</ele><time>2026-05-02T09:53:44Z</time></trkpt><trkpt lat="44.22961258792494" lon="11.055701620788211"><ele>249.5</ele><time>2026-05-02T09:53:46Z</time></trkpt><trkpt lat="44.229525779808" lon="11.055683226024348"><ele>251.33333333333331</ele><time>2026-05-02T09:53:48Z</time></trkpt><trkpt lat="44.229445067072675" lon="11.05568672041686"><ele>253.16666666666666</ele><time>2026-05-02T09:53:50Z</time></trkpt><trkpt lat="44.22938178171991" lon="11.055651884191494"><ele>255.0</ele><time>2026-05-02T09:53:52Z</time></trkpt><trkpt lat="44.2293069105216" lon="11.055640918726516"><ele>255.0</ele><time>2026-05-02T09:58:32Z</time></trkpt><trkpt lat="44.229251471737484" lon="11.055694751841742"><ele>255.0</ele><time>2026-05-02T09:58:34Z</time></trkpt><trkpt lat="44.22913588517827" lon="11.0557325753746"><ele>255.0</ele><time>2026-05-02T09:58:36Z</time></trkpt><trkpt lat="44.22906960475125" lon="11.05566046390151"><ele>255.0</ele><time>2026-05-02T09:58:38Z</time></trkpt><trkpt lat="44.229013972870455" lon="11.055555131898334"><ele>255.0</ele><time>2026-05-02T09:58:41Z</time></trkpt><trkpt lat="44.22897619794218" lon="11.05544493195163"><ele>256.14285714285717</ele><time>2026-05-02T09:58:45Z</time></trkpt><trkpt lat="44.2289546233576" lon="11.05533924738939"><ele>257.28571428571433</ele><time>2026-05-02T09:58:48Z</time></trkpt><trkpt lat="44.22892618147898" lon="11.055226345274754"><ele>258.42857142857144</ele><time>2026-05-02T09:58:52Z</time></trkpt><trkpt lat="44.22891381866625" lon="11.055138456583594"><ele>259.57142857142856</ele><time>2026-05-02T09:58:54Z</time></trkpt><trkpt lat="44.228890449874754" lon="11.055050770159946"><ele>260.71428571428567</ele><time>2026-05-02T09:58:56Z</time></trkpt><trkpt lat="44.228855542754275" lon="11.054972456893253"><ele>261.85714285714283</ele><time>2026-05-02T09:58:58Z</time></trkpt><trkpt lat="44.22883062080723" lon="11.054865599704053"><ele>263.0</ele><time>2026-05-02T09:59:00Z</time></trkpt><trkpt lat="44.228803753873144" lon="11.0547847925441"><ele>263.0</ele><time>2026-05-02T09:59:02Z</time></trkpt><trkpt lat="44.22879484140525" lon="11.054667757526378"><ele>263.0</ele><time>2026-05-02T09:59:05Z</time></trkpt><trkpt lat="44.22876375146321" lon="11.054549580491976"><ele>263.0</ele><time>2026-05-02T09:59:08Z</time></trkpt><trkpt lat="44.22874398608476" lon="11.054445580942078"><ele>263.0</ele><time>2026-05-02T09:59:10Z</time></trkpt><trkpt lat="44.22872221334379" lon="11.054333612641999"><ele>263.0</ele><time>2026-05-02T09:59:12Z</time></trkpt><trkpt lat="44.228689652912486" lon="11.05421837345621"><ele>263.0</ele><time>2026-05-02T09:59:14Z</time></trkpt><trkpt lat="44.22866677835581" lon="11.054084920082477"><ele>262.6</ele><time>2026-05-02T09:59:16Z</time></trkpt><trkpt lat="44.22864513235017" lon="11.053941824763637"><ele>262.20000000000005</ele><time>2026-05-02T09:59:18Z</time></trkpt><trkpt lat="44.228608436840666" lon="11.053800236139764"><ele>261.8</ele><time>2026-05-02T09:59:20Z</time></trkpt><trkpt lat="44.228604020830154" lon="11.053706323200965"><ele>261.40000000000003</ele><time>2026-05-02T09:59:21Z</time></trkpt><trkpt lat="44.22855578064855" lon="11.053548536249151"><ele>261.0</ele><time>2026-05-02T09:59:23Z</time></trkpt><trkpt lat="44.2285411415053" lon="11.053457497222224"><ele>261.0</ele><time>2026-05-02T09:59:24Z</time></trkpt><trkpt lat="44.228523280705865" lon="11.053293335612556"><ele>261.0</ele><time>2026-05-02T09:59:26Z</time></trkpt><trkpt lat="44.228487323073026" lon="11.05315801552657"><ele>261.0</ele><time>2026-05-02T09:59:28Z</time></trkpt><trkpt lat="44.22844847880872" lon="11.053011386575797"><ele>261.0</ele><time>2026-05-02T09:59:30Z</time></trkpt><trkpt lat="44.22840163785863" lon="11.05294476356256"><ele>261.0</ele><time>2026-05-02T09:59:31Z</time></trkpt><trkpt lat="44.228295396186155" lon="11.052870474009964"><ele>262.0</ele><time>2026-05-02T09:59:33Z</time></trkpt><trkpt lat="44.22818489359641" lon="11.052844023941253"><ele>263.0</ele><time>2026-05-02T09:59:35Z</time></trkpt><trkpt lat="44.22806826014285" lon="11.05283989905852"><ele>264.0</ele><time>2026-05-02T09:59:37Z</time></trkpt><trkpt lat="44.22795702824295" lon="11.052836716882663"><ele>265.0</ele><time>2026-05-02T09:59:39Z</time></trkpt><trkpt lat="44.227870087604984" lon="11.052835884652602"><ele>266.0</ele><time>2026-05-02T09:59:41Z</time></trkpt><trkpt lat="44.22779542888928" lon="11.052825351706378"><ele>266.0</ele><time>2026-05-02T09:59:43Z</time></trkpt><trkpt lat="44.22769504473577" lon="11.052782911642588"><ele>266.0</ele><time>2026-05-02T09:59:45Z</time></trkpt><trkpt lat="44.227605388916096" lon="11.052683464604312"><ele>266.0</ele><time>2026-05-02T09:59:47Z</time></trkpt><trkpt lat="44.22755172009291" lon="11.052554533681938"><ele>266.0</ele><time>2026-05-02T09:59:49Z</time></trkpt><trkpt lat="44.22752856945652" lon="11.052420166454139"><ele>266.0</ele><time>2026-05-02T09:59:51Z</time></trkpt><trkpt lat="44.22751099030503" lon="11.052313686940252"><ele>264.5</ele><time>2026-05-02T09:59:53Z</time></trkpt><trkpt lat="44.2274910408619" lon="11.052226232270314"><ele>263.0</ele><time>2026-05-02T09:59:55Z</time></trkpt><trkpt lat="44.22745560716645" lon="11.052118947636771"><ele>261.5</ele><time>2026-05-02T09:59:57Z</time></trkpt><trkpt lat="44.227382048201754" lon="11.051982589310299"><ele>260.0</ele><time>2026-05-02T09:59:59Z</time></trkpt><trkpt lat="44.22733531123448" lon="11.051915473387607"><ele>258.5</ele><time>2026-05-02T10:00:00Z</time></trkpt><trkpt lat="44.2272708516766" lon="11.051839071422101"><ele>257.0</ele><time>2026-05-02T10:00:01Z</time></trkpt><trkpt lat="44.227195384183055" lon="11.051772261586331"><ele>261.4</ele><time>2026-05-02T10:00:02Z</time></trkpt><trkpt lat="44.227124817999645" lon="11.051709970669126"><ele>265.79999999999995</ele><time>2026-05-02T10:00:03Z</time></trkpt><trkpt lat="44.22705288802044" lon="11.051656811717926"><ele>270.2</ele><time>2026-05-02T10:00:04Z</time></trkpt><trkpt lat="44.226979531290404" lon="11.051595640782816"><ele>274.59999999999997</ele><time>2026-05-02T10:00:05Z</time></trkpt><trkpt lat="44.226923687187615" lon="11.051474006900674"><ele>279.0</ele><time>2026-05-02T10:00:06Z</time></trkpt><trkpt lat="44.226876179450656" lon="11.051323099044492"><ele>279.0</ele><time>2026-05-02T10:00:07Z</time></trkpt><trkpt lat="44.22685380747868" lon="11.051162219093538"><ele>279.0</ele><time>2026-05-02T10:00:08Z</time></trkpt><trkpt lat="44.2268355732139" lon="11.050997262379765"><ele>279.0</ele><time>2026-05-02T10:00:09Z</time></trkpt><trkpt lat="44.22680256606852" lon="11.050832629744848"><ele>279.0</ele><time>2026-05-02T10:00:10Z</time></trkpt><trkpt lat="44.22678029093289" lon="11.050659213234557"><ele>277.8</ele><time>2026-05-02T10:00:11Z</time></trkpt><trkpt lat="44.22674534023704" lon="11.050486749990737"><ele>276.59999999999997</ele><time>2026-05-02T10:00:12Z</time></trkpt><trkpt lat="44.226706341713935" lon="11.050324419320667"><ele>275.4</ele><time>2026-05-02T10:00:13Z</time></trkpt><trkpt lat="44.226668287396876" lon="11.050192669864012"><ele>274.2</ele><time>2026-05-02T10:00:14Z</time></trkpt><trkpt lat="44.22664926172991" lon="11.050077041655207"><ele>273.0</ele><time>2026-05-02T10:00:15Z</time></trkpt><trkpt lat="44.22661861986087" lon="11.049997991970965"><ele>274.8</ele><time>2026-05-02T10:00:16Z</time></trkpt><trkpt lat="44.22657496328426" lon="11.049919296675139"><ele>276.6</ele><time>2026-05-02T10:00:17Z</time></trkpt><trkpt lat="44.22649207201056" lon="11.049832788526524"><ele>278.4</ele><time>2026-05-02T10:00:18Z</time></trkpt><trkpt lat="44.226400052364674" lon="11.049754527862673"><ele>280.2</ele><time>2026-05-02T10:00:19Z</time></trkpt><trkpt lat="44.22629731777363" lon="11.049680919425322"><ele>282.0</ele><time>2026-05-02T10:00:20Z</time></trkpt><trkpt lat="44.2262102827819" lon="11.049606276180013"><ele>286.0</ele><time>2026-05-02T10:00:21Z</time></trkpt><trkpt lat="44.22614899907732" lon="11.049509793768225"><ele>290.0</ele><time>2026-05-02T10:00:22Z</time></trkpt><trkpt lat="44.22612279736356" lon="11.04938165921051"><ele>294.0</ele><time>2026-05-02T10:00:23Z</time></trkpt><trkpt lat="44.22610061216939" lon="11.049233922627522"><ele>298.0</ele><time>2026-05-02T10:00:24Z</time></trkpt><trkpt lat="44.22607602974577" lon="11.049092604121926"><ele>302.0</ele><time>2026-05-02T10:00:25Z</time></trkpt><trkpt lat="44.22607343943574" lon="11.048941903501607"><ele>304.25</ele><time>2026-05-02T10:00:26Z</time></trkpt><trkpt lat="44.2260782725617" lon="11.048786010243365"><ele>306.5</ele><time>2026-05-02T10:00:27Z</time></trkpt><trkpt lat="44.22608279915446" lon="11.0486314301905"><ele>308.75</ele><time>2026-05-02T10:00:28Z</time></trkpt><trkpt lat="44.2260871384907" lon="11.048473517835557"><ele>311.0</ele><time>2026-05-02T10:00:29Z</time></trkpt><trkpt lat="44.22609380982827" lon="11.048306649372103"><ele>312.25</ele><time>2026-05-02T10:00:30Z</time></trkpt><trkpt lat="44.22610708690644" lon="11.048143240058707"><ele>313.5</ele><time>2026-05-02T10:00:31Z</time></trkpt><trkpt lat="44.22613270312995" lon="11.047977535674912"><ele>314.75</ele><time>2026-05-02T10:00:32Z</time></trkpt><trkpt lat="44.226168728422714" lon="11.047804048026082"><ele>316.0</ele><time>2026-05-02T10:00:33Z</time></trkpt><trkpt lat="44.2262122645722" lon="11.047638325204845"><ele>316.0</ele><time>2026-05-02T10:00:34Z</time></trkpt><trkpt lat="44.226270291435966" lon="11.04748174154045"><ele>316.0</ele><time>2026-05-02T10:00:35Z</time></trkpt><trkpt lat="44.22634118593046" lon="11.047346938747664"><ele>316.0</ele><time>2026-05-02T10:00:36Z</time></trkpt><trkpt lat="44.22640731269685" lon="11.047203325407985"><ele>316.0</ele><time>2026-05-02T10:00:37Z</time></trkpt><trkpt lat="44.22644434915272" lon="11.047058395449216"><ele>317.20000000000005</ele><time>2026-05-02T10:00:38Z</time></trkpt><trkpt lat="44.22646725185297" lon="11.046922544087657"><ele>318.40000000000003</ele><time>2026-05-02T10:00:39Z</time></trkpt><trkpt lat="44.226471682807855" lon="11.04677353581242"><ele>319.6</ele><time>2026-05-02T10:00:40Z</time></trkpt><trkpt lat="44.22646528953808" lon="11.046600236540797"><ele>320.8</ele><time>2026-05-02T10:00:41Z</time></trkpt><trkpt lat="44.22645951307251" lon="11.046446361054592"><ele>322.0</ele><time>2026-05-02T10:00:42Z</time></trkpt><trkpt lat="44.22646363862607" lon="11.046290474442383"><ele>322.0</ele><time>2026-05-02T10:00:43Z</time></trkpt><trkpt lat="44.22647282243639" lon="11.046117695482398"><ele>322.0</ele><time>2026-05-02T10:00:44Z</time></trkpt><trkpt lat="44.226481294631384" lon="11.045961421125803"><ele>322.0</ele><time>2026-05-02T10:00:45Z</time></trkpt><trkpt lat="44.226490733825926" lon="11.045821324237863"><ele>322.0</ele><time>2026-05-02T10:00:46Z</time></trkpt><trkpt lat="44.22652444970721" lon="11.045672510858328"><ele>322.0</ele><time>2026-05-02T10:00:47Z</time></trkpt><trkpt lat="44.22656628016642" lon="11.04552537436303"><ele>316.5</ele><time>2026-05-02T10:00:48Z</time></trkpt><trkpt lat="44.2266111169209" lon="11.045363032717631"><ele>311.0</ele><time>2026-05-02T10:00:49Z</time></trkpt><trkpt lat="44.2266484306836" lon="11.045202750320978"><ele>305.5</ele><time>2026-05-02T10:00:50Z</time></trkpt><trkpt lat="44.22668776668037" lon="11.045042333599666"><ele>300.0</ele><time>2026-05-02T10:00:51Z</time></trkpt><trkpt lat="44.226724445869635" lon="11.04489811534141"><ele>300.0</ele><time>2026-05-02T10:00:52Z</time></trkpt><trkpt lat="44.226765114905014" lon="11.04475587209274"><ele>300.0</ele><time>2026-05-02T10:00:53Z</time></trkpt><trkpt lat="44.22679575134894" lon="11.044637243906184"><ele>300.0</ele><time>2026-05-02T10:00:54Z</time></trkpt><trkpt lat="44.22683232602755" lon="11.044504281990577"><ele>300.0</ele><time>2026-05-02T10:00:56Z</time></trkpt><trkpt lat="44.22685722801004" lon="11.04441731206556"><ele>300.0</ele><time>2026-05-02T10:00:58Z</time></trkpt><trkpt lat="44.22680980010924" lon="11.044522687203973"><ele>300.0</ele><time>2026-05-02T10:01:07Z</time></trkpt><trkpt lat="44.226790803478515" lon="11.044670158322768"><ele>300.0</ele><time>2026-05-02T10:01:09Z</time></trkpt><trkpt lat="44.22676982361628" lon="11.044763896106037"><ele>300.0</ele><time>2026-05-02T10:01:11Z</time></trkpt><trkpt lat="44.226818773809725" lon="11.044625995206266"><ele>300.0</ele><time>2026-05-02T10:01:14Z</time></trkpt><trkpt lat="44.226854668627716" lon="11.0444684379651"><ele>300.0</ele><time>2026-05-02T10:01:16Z</time></trkpt><trkpt lat="44.226893040210896" lon="11.044288018792106"><ele>300.0</ele><time>2026-05-02T10:01:18Z</time></trkpt><trkpt lat="44.22691693666188" lon="11.044169289331757"><ele>300.0</ele><time>2026-05-02T10:01:19Z</time></trkpt><trkpt lat="44.22693285445197" lon="11.044075213464945"><ele>300.0</ele><time>2026-05-02T10:01:20Z</time></trkpt><trkpt lat="44.22694625133364" lon="11.043986567475224"><ele>300.0</ele><time>2026-05-02T10:01:21Z</time></trkpt><trkpt lat="44.22695809067111" lon="11.043890182267566"><ele>300.0</ele><time>2026-05-02T10:01:22Z</time></trkpt><trkpt lat="44.22696624755946" lon="11.043775001131328"><ele>300.0</ele><time>2026-05-02T10:01:24Z</time></trkpt><trkpt lat="44.22694311520807" lon="11.043661262570494"><ele>299.3333333333333</ele><time>2026-05-02T10:01:26Z</time></trkpt><trkpt lat="44.226917695329405" lon="11.043563363683583"><ele>298.6666666666667</ele><time>2026-05-02T10:01:29Z</time></trkpt><trkpt lat="44.22693902504992" lon="11.043461333970951"><ele>298.0</ele><time>2026-05-02T10:01:34Z</time></trkpt><trkpt lat="44.2269019119172" lon="11.043372493024945"><ele>297.33333333333337</ele><time>2026-05-02T10:01:36Z</time></trkpt><trkpt lat="44.226874584896706" lon="11.04327021511496"><ele>296.6666666666667</ele><time>2026-05-02T10:01:37Z</time></trkpt><trkpt lat="44.22686001979961" lon="11.043173327357083"><ele>296.0</ele><time>2026-05-02T10:01:38Z</time></trkpt><trkpt lat="44.22683998134155" lon="11.043032189482643"><ele>263.0</ele><time>2026-05-02T10:01:40Z</time></trkpt><trkpt lat="44.227409444062516" lon="11.042853874718574"><ele>263.0</ele><time>2026-05-02T10:01:42Z</time></trkpt><trkpt lat="44.22750283839441" lon="11.042840635881511"><ele>263.0</ele><time>2026-05-02T10:01:46Z</time></trkpt><trkpt lat="44.22755932340825" lon="11.042780792603923"><ele>263.0</ele><time>2026-05-02T10:01:49Z</time></trkpt><trkpt lat="44.22758443868406" lon="11.042646719762747"><ele>263.0</ele><time>2026-05-02T10:01:51Z</time></trkpt><trkpt lat="44.22759444111603" lon="11.042550860552655"><ele>263.0</ele><time>2026-05-02T10:01:52Z</time></trkpt><trkpt lat="44.22759588660143" lon="11.042436116950729"><ele>263.0</ele><time>2026-05-02T10:01:53Z</time></trkpt><trkpt lat="44.227621046390134" lon="11.042307318932878"><ele>262.33333333333337</ele><time>2026-05-02T10:01:54Z</time></trkpt><trkpt lat="44.22761052822329" lon="11.042177339016318"><ele>261.6666666666667</ele><time>2026-05-02T10:01:55Z</time></trkpt><trkpt lat="44.22761835673574" lon="11.042061554569557"><ele>261.0</ele><time>2026-05-02T10:01:56Z</time></trkpt><trkpt lat="44.227621929994505" lon="11.041939053083958"><ele>260.3333333333333</ele><time>2026-05-02T10:01:57Z</time></trkpt><trkpt lat="44.227625928030655" lon="11.041828179158083"><ele>259.66666666666663</ele><time>2026-05-02T10:01:58Z</time></trkpt><trkpt lat="44.22763003207989" lon="11.041735875371257"><ele>259.0</ele><time>2026-05-02T10:01:59Z</time></trkpt><trkpt lat="44.22763750511265" lon="11.04163385996531"><ele>258.4</ele><time>2026-05-02T10:02:00Z</time></trkpt><trkpt lat="44.2276416161344" lon="11.041535433978169"><ele>257.79999999999995</ele><time>2026-05-02T10:02:01Z</time></trkpt><trkpt lat="44.2276431226817" lon="11.041396370967373"><ele>257.20000000000005</ele><time>2026-05-02T10:02:03Z</time></trkpt><trkpt lat="44.22764654869216" lon="11.041303721139126"><ele>256.6</ele><time>2026-05-02T10:02:05Z</time></trkpt><trkpt lat="44.22772772849438" lon="11.041429291253861"><ele>256.0</ele><time>2026-05-02T10:02:16Z</time></trkpt><trkpt lat="44.22789826827133" lon="11.041460932169615"><ele>256.0</ele><time>2026-05-02T10:02:17Z</time></trkpt><trkpt lat="44.227961822789055" lon="11.0414963126392"><ele>256.0</ele><time>2026-05-02T10:02:18Z</time></trkpt><trkpt lat="44.22803398702134" lon="11.04163002087073"><ele>256.0</ele><time>2026-05-02T10:02:20Z</time></trkpt><trkpt lat="44.228078016247984" lon="11.0417567774311"><ele>256.0</ele><time>2026-05-02T10:02:22Z</time></trkpt><trkpt lat="44.228134561049266" lon="11.041892107757393"><ele>256.0</ele><time>2026-05-02T10:02:24Z</time></trkpt><trkpt lat="44.228180725894376" lon="11.041998464145903"><ele>255.49999999999997</ele><time>2026-05-02T10:02:25Z</time></trkpt><trkpt lat="44.22821707729046" lon="11.042091308011358"><ele>255.0</ele><time>2026-05-02T10:02:26Z</time></trkpt><trkpt lat="44.22826958597394" lon="11.042194901321583"><ele>254.5</ele><time>2026-05-02T10:02:27Z</time></trkpt><trkpt lat="44.22831503726993" lon="11.04228436171022"><ele>254.0</ele><time>2026-05-02T10:02:28Z</time></trkpt><trkpt lat="44.22836151975712" lon="11.042347623413304"><ele>253.49999999999997</ele><time>2026-05-02T10:02:29Z</time></trkpt><trkpt lat="44.22842991834042" lon="11.042395748823335"><ele>253.0</ele><time>2026-05-02T10:02:30Z</time></trkpt><trkpt lat="44.22848087176452" lon="11.042451717064"><ele>253.0</ele><time>2026-05-02T10:02:31Z</time></trkpt><trkpt lat="44.22850304430529" lon="11.042594197596015"><ele>253.0</ele><time>2026-05-02T10:02:33Z</time></trkpt><trkpt lat="44.228539068849166" lon="11.042749586650638"><ele>253.0</ele><time>2026-05-02T10:02:35Z</time></trkpt><trkpt lat="44.228593987728615" lon="11.042828767995408"><ele>253.0</ele><time>2026-05-02T10:02:36Z</time></trkpt><trkpt lat="44.228635545365876" lon="11.042906979367556"><ele>253.0</ele><time>2026-05-02T10:02:37Z</time></trkpt><trkpt lat="44.22868142412002" lon="11.043060858146015"><ele>252.99999999999997</ele><time>2026-05-02T10:02:39Z</time></trkpt><trkpt lat="44.22870104250134" lon="11.043151135265123"><ele>253.0</ele><time>2026-05-02T10:02:40Z</time></trkpt><trkpt lat="44.22872999636345" lon="11.043291472468713"><ele>253.0</ele><time>2026-05-02T10:02:42Z</time></trkpt><trkpt lat="44.22870693084352" lon="11.043380719361528"><ele>253.0</ele><time>2026-05-02T10:02:47Z</time></trkpt><trkpt lat="44.22874320788062" lon="11.043234269675688"><ele>252.99999999999997</ele><time>2026-05-02T10:02:52Z</time></trkpt><trkpt lat="44.228712709151914" lon="11.043142538242563"><ele>253.0</ele><time>2026-05-02T10:02:53Z</time></trkpt><trkpt lat="44.22868080444601" lon="11.04305253741219"><ele>253.0</ele><time>2026-05-02T10:02:54Z</time></trkpt><trkpt lat="44.228647393846536" lon="11.042960463061581"><ele>253.0</ele><time>2026-05-02T10:02:55Z</time></trkpt><trkpt lat="44.22861436798488" lon="11.042866611944264"><ele>253.0</ele><time>2026-05-02T10:02:56Z</time></trkpt><trkpt lat="44.22855720053588" lon="11.042749802190778"><ele>253.0</ele><time>2026-05-02T10:02:58Z</time></trkpt><trkpt lat="44.228485406111105" lon="11.042591727461765"><ele>253.0</ele><time>2026-05-02T10:03:00Z</time></trkpt><trkpt lat="44.22846706437694" lon="11.04248825440028"><ele>253.0</ele><time>2026-05-02T10:03:01Z</time></trkpt><trkpt lat="44.22843326006823" lon="11.042355115449972"><ele>253.0</ele><time>2026-05-02T10:03:03Z</time></trkpt><trkpt lat="44.22832356007762" lon="11.042252017791473"><ele>253.0</ele><time>2026-05-02T10:03:05Z</time></trkpt><trkpt lat="44.22826388124581" lon="11.04216403642597"><ele>253.0</ele><time>2026-05-02T10:03:06Z</time></trkpt><trkpt lat="44.22822482012295" lon="11.042063930133324"><ele>253.0</ele><time>2026-05-02T10:03:07Z</time></trkpt><trkpt lat="44.22818939448862" lon="11.041963316366228"><ele>252.99999999999997</ele><time>2026-05-02T10:03:08Z</time></trkpt><trkpt lat="44.228160386038915" lon="11.041865895497901"><ele>253.0</ele><time>2026-05-02T10:03:09Z</time></trkpt><trkpt lat="44.2281227115386" lon="11.041748101406936"><ele>253.0</ele><time>2026-05-02T10:03:10Z</time></trkpt><trkpt lat="44.22808374076321" lon="11.041628473301603"><ele>253.0</ele><time>2026-05-02T10:03:11Z</time></trkpt><trkpt lat="44.22803922116215" lon="11.041521218772848"><ele>252.99999999999997</ele><time>2026-05-02T10:03:12Z</time></trkpt><trkpt lat="44.227976229128544" lon="11.041423404953438"><ele>253.0</ele><time>2026-05-02T10:03:14Z</time></trkpt><trkpt lat="44.22788277577232" lon="11.041386311657039"><ele>253.49999999999997</ele><time>2026-05-02T10:03:17Z</time></trkpt><trkpt lat="44.22780108187218" lon="11.041335286238272"><ele>254.0</ele><time>2026-05-02T10:03:19Z</time></trkpt><trkpt lat="44.22773446972607" lon="11.041335847308616"><ele>254.5</ele><time>2026-05-02T10:03:21Z</time></trkpt><trkpt lat="44.227684847963474" lon="11.04142638453675"><ele>255.0</ele><time>2026-05-02T10:03:24Z</time></trkpt><trkpt lat="44.22769346238451" lon="11.041589909890996"><ele>255.49999999999997</ele><time>2026-05-02T10:03:26Z</time></trkpt><trkpt lat="44.22769463599895" lon="11.041702736115178"><ele>256.0</ele><time>2026-05-02T10:03:27Z</time></trkpt><trkpt lat="44.22768575052217" lon="11.041817728238728"><ele>256.6</ele><time>2026-05-02T10:03:28Z</time></trkpt><trkpt lat="44.22760023076796" lon="11.041937929588476"><ele>257.20000000000005</ele><time>2026-05-02T10:03:29Z</time></trkpt><trkpt lat="44.22759568793731" lon="11.04207197950978"><ele>257.79999999999995</ele><time>2026-05-02T10:03:30Z</time></trkpt><trkpt lat="44.227591337784084" lon="11.042200343655093"><ele>258.4</ele><time>2026-05-02T10:03:31Z</time></trkpt><trkpt lat="44.22758711662438" lon="11.042324901800878"><ele>259.0</ele><time>2026-05-02T10:03:32Z</time></trkpt><trkpt lat="44.22758277114122" lon="11.042452458387958"><ele>259.66666666666663</ele><time>2026-05-02T10:03:33Z</time></trkpt><trkpt lat="44.227579166359675" lon="11.042550791664368"><ele>260.3333333333333</ele><time>2026-05-02T10:03:34Z</time></trkpt><trkpt lat="44.22757413293344" lon="11.04268809418424"><ele>261.0</ele><time>2026-05-02T10:03:36Z</time></trkpt><trkpt lat="44.22751014003811" lon="11.042761350765185"><ele>261.6666666666667</ele><time>2026-05-02T10:03:39Z</time></trkpt><trkpt lat="44.22749308453505" lon="11.04285266419146"><ele>262.33333333333337</ele><time>2026-05-02T10:03:42Z</time></trkpt><trkpt lat="44.22748801991342" lon="11.042990820166183"><ele>263.0</ele><time>2026-05-02T10:03:44Z</time></trkpt><trkpt lat="44.22748308426551" lon="11.043125457155934"><ele>263.0</ele><time>2026-05-02T10:03:46Z</time></trkpt><trkpt lat="44.22747977916462" lon="11.043215615450752"><ele>263.0</ele><time>2026-05-02T10:03:49Z</time></trkpt><trkpt lat="44.22747396744628" lon="11.043372165037301"><ele>263.0</ele><time>2026-05-02T10:03:52Z</time></trkpt><trkpt lat="44.22746940756978" lon="11.043490858406653"><ele>263.0</ele><time>2026-05-02T10:03:53Z</time></trkpt><trkpt lat="44.227464408227384" lon="11.043622017623147"><ele>263.0</ele><time>2026-05-02T10:03:54Z</time></trkpt><trkpt lat="44.22746057299747" lon="11.04372273241569"><ele>263.0</ele><time>2026-05-02T10:03:55Z</time></trkpt><trkpt lat="44.22745600350737" lon="11.04384791120984"><ele>263.33333333333337</ele><time>2026-05-02T10:03:57Z</time></trkpt><trkpt lat="44.2274503153516" lon="11.044006351455716"><ele>263.6666666666667</ele><time>2026-05-02T10:03:59Z</time></trkpt><trkpt lat="44.22744610857237" lon="11.044123528474007"><ele>264.0</ele><time>2026-05-02T10:04:01Z</time></trkpt><trkpt lat="44.22744239611786" lon="11.044224232592324"><ele>264.3333333333333</ele><time>2026-05-02T10:04:03Z</time></trkpt><trkpt lat="44.22743748772033" lon="11.044355549207879"><ele>264.66666666666663</ele><time>2026-05-02T10:04:05Z</time></trkpt><trkpt lat="44.22742238675813" lon="11.044447062653896"><ele>265.0</ele><time>2026-05-02T10:04:06Z</time></trkpt><trkpt lat="44.226920791564815" lon="11.044491238524756"><ele>270.8333333333333</ele><time>2026-05-02T10:04:07Z</time></trkpt><trkpt lat="44.22687941527007" lon="11.044576306914411"><ele>276.66666666666663</ele><time>2026-05-02T10:04:08Z</time></trkpt><trkpt lat="44.22682034982477" lon="11.044673133817515"><ele>282.5</ele><time>2026-05-02T10:04:10Z</time></trkpt><trkpt lat="44.22675933374017" lon="11.044735347348231"><ele>288.3333333333333</ele><time>2026-05-02T10:04:14Z</time></trkpt><trkpt lat="44.2267258656055" lon="11.04487729768858"><ele>294.1666666666667</ele><time>2026-05-02T10:04:16Z</time></trkpt><trkpt lat="44.22670395312987" lon="11.044985836908547"><ele>300.0</ele><time>2026-05-02T10:04:17Z</time></trkpt><trkpt lat="44.22668143560198" lon="11.045081015768742"><ele>300.0</ele><time>2026-05-02T10:04:18Z</time></trkpt><trkpt lat="44.226654571777544" lon="11.045189828883906"><ele>300.0</ele><time>2026-05-02T10:04:19Z</time></trkpt><trkpt lat="44.226635068616126" lon="11.045292381044723"><ele>300.0</ele><time>2026-05-02T10:04:20Z</time></trkpt><trkpt lat="44.22661547822578" lon="11.045384552686391"><ele>300.0</ele><time>2026-05-02T10:04:21Z</time></trkpt><trkpt lat="44.226601890751425" lon="11.045477380311219"><ele>300.0</ele><time>2026-05-02T10:04:22Z</time></trkpt><trkpt lat="44.22655148738109" lon="11.045627077763873"><ele>300.0</ele><time>2026-05-02T10:04:23Z</time></trkpt><trkpt lat="44.22652238776625" lon="11.045758551481391"><ele>299.0</ele><time>2026-05-02T10:04:24Z</time></trkpt><trkpt lat="44.22650139268331" lon="11.045893801143535"><ele>298.0</ele><time>2026-05-02T10:04:25Z</time></trkpt><trkpt lat="44.2264968163316" lon="11.046047332285545"><ele>297.0</ele><time>2026-05-02T10:04:26Z</time></trkpt><trkpt lat="44.226500751740836" lon="11.046222987623091"><ele>296.0</ele><time>2026-05-02T10:04:27Z</time></trkpt><trkpt lat="44.226493919706435" lon="11.046396408780236"><ele>296.0</ele><time>2026-05-02T10:04:28Z</time></trkpt><trkpt lat="44.2264915529691" lon="11.046568963867331"><ele>296.0</ele><time>2026-05-02T10:04:29Z</time></trkpt><trkpt lat="44.226478408460146" lon="11.046730333048686"><ele>296.0</ele><time>2026-05-02T10:04:30Z</time></trkpt><trkpt lat="44.22646182952555" lon="11.046867840486716"><ele>296.0</ele><time>2026-05-02T10:04:31Z</time></trkpt><trkpt lat="44.22644199352958" lon="11.046998359530122"><ele>296.0</ele><time>2026-05-02T10:04:32Z</time></trkpt><trkpt lat="44.226414097247314" lon="11.04710827748804"><ele>300.0</ele><time>2026-05-02T10:04:33Z</time></trkpt><trkpt lat="44.22637347365785" lon="11.047235172055627"><ele>304.0</ele><time>2026-05-02T10:04:34Z</time></trkpt><trkpt lat="44.22630500455803" lon="11.047367733397394"><ele>308.0</ele><time>2026-05-02T10:04:35Z</time></trkpt><trkpt lat="44.22624310287795" lon="11.047500688668897"><ele>312.0</ele><time>2026-05-02T10:04:36Z</time></trkpt><trkpt lat="44.22619700874278" lon="11.047636997904851"><ele>316.0</ele><time>2026-05-02T10:04:37Z</time></trkpt><trkpt lat="44.2261687575517" lon="11.04778906690746"><ele>316.0</ele><time>2026-05-02T10:04:38Z</time></trkpt><trkpt lat="44.22614322259541" lon="11.047951623760525"><ele>316.0</ele><time>2026-05-02T10:04:39Z</time></trkpt><trkpt lat="44.226120825186726" lon="11.048113664999374"><ele>316.0</ele><time>2026-05-02T10:04:40Z</time></trkpt><trkpt lat="44.226063635083605" lon="11.048261520192417"><ele>316.0</ele><time>2026-05-02T10:04:41Z</time></trkpt><trkpt lat="44.226053261998274" lon="11.048428213404396"><ele>315.0</ele><time>2026-05-02T10:04:42Z</time></trkpt><trkpt lat="44.226047383221434" lon="11.048584117882603"><ele>314.0</ele><time>2026-05-02T10:04:43Z</time></trkpt><trkpt lat="44.22604435698658" lon="11.048735735758704"><ele>313.0</ele><time>2026-05-02T10:04:44Z</time></trkpt><trkpt lat="44.2260451776191" lon="11.048888092471346"><ele>312.0</ele><time>2026-05-02T10:04:45Z</time></trkpt><trkpt lat="44.22605063646295" lon="11.049044692311222"><ele>311.0</ele><time>2026-05-02T10:04:46Z</time></trkpt><trkpt lat="44.22607566499729" lon="11.049207639376705"><ele>309.2</ele><time>2026-05-02T10:04:47Z</time></trkpt><trkpt lat="44.226092974413135" lon="11.049371626151178"><ele>307.40000000000003</ele><time>2026-05-02T10:04:48Z</time></trkpt><trkpt lat="44.22612479799413" lon="11.049512792791191"><ele>305.6</ele><time>2026-05-02T10:04:49Z</time></trkpt><trkpt lat="44.22618084868228" lon="11.049633803268955"><ele>303.8</ele><time>2026-05-02T10:04:50Z</time></trkpt><trkpt lat="44.22626579755035" lon="11.04972549828163"><ele>302.0</ele><time>2026-05-02T10:04:51Z</time></trkpt><trkpt lat="44.22637046640697" lon="11.049783453465247"><ele>302.0</ele><time>2026-05-02T10:04:52Z</time></trkpt><trkpt lat="44.22646936351727" lon="11.04984472656707"><ele>302.0</ele><time>2026-05-02T10:04:53Z</time></trkpt><trkpt lat="44.226553974489896" lon="11.049926036201219"><ele>302.0</ele><time>2026-05-02T10:04:54Z</time></trkpt><trkpt lat="44.22660137446301" lon="11.050037719494883"><ele>302.0</ele><time>2026-05-02T10:04:55Z</time></trkpt><trkpt lat="44.22663142371401" lon="11.050142727946481"><ele>302.0</ele><time>2026-05-02T10:04:56Z</time></trkpt><trkpt lat="44.22666161549325" lon="11.05026565846459"><ele>297.4</ele><time>2026-05-02T10:04:57Z</time></trkpt><trkpt lat="44.22669316006352" lon="11.050403475752733"><ele>292.79999999999995</ele><time>2026-05-02T10:04:58Z</time></trkpt><trkpt lat="44.22672627315988" lon="11.050547501612776"><ele>288.2</ele><time>2026-05-02T10:04:59Z</time></trkpt><trkpt lat="44.22675905714631" lon="11.050690094542842"><ele>283.59999999999997</ele><time>2026-05-02T10:05:00Z</time></trkpt><trkpt lat="44.22679784996059" lon="11.050827711446196"><ele>279.0</ele><time>2026-05-02T10:05:01Z</time></trkpt><trkpt lat="44.226806194848805" lon="11.050962498662738"><ele>279.0</ele><time>2026-05-02T10:05:02Z</time></trkpt><trkpt lat="44.226817127858254" lon="11.051096757930246"><ele>279.0</ele><time>2026-05-02T10:05:03Z</time></trkpt><trkpt lat="44.226836885876274" lon="11.051227098965324"><ele>279.0</ele><time>2026-05-02T10:05:04Z</time></trkpt><trkpt lat="44.22686456652587" lon="11.051365555849033"><ele>279.0</ele><time>2026-05-02T10:05:05Z</time></trkpt><trkpt lat="44.226900008334106" lon="11.051492422883852"><ele>279.0</ele><time>2026-05-02T10:05:06Z</time></trkpt><trkpt lat="44.22694640531972" lon="11.051596043644139"><ele>280.0</ele><time>2026-05-02T10:05:07Z</time></trkpt><trkpt lat="44.22701961715565" lon="11.05170290175086"><ele>281.0</ele><time>2026-05-02T10:05:09Z</time></trkpt><trkpt lat="44.227121964345486" lon="11.051786265450458"><ele>282.0</ele><time>2026-05-02T10:05:11Z</time></trkpt><trkpt lat="44.227196899885726" lon="11.051828446468841"><ele>283.0</ele><time>2026-05-02T10:05:12Z</time></trkpt><trkpt lat="44.227275040437306" lon="11.051874808438212"><ele>284.0</ele><time>2026-05-02T10:05:13Z</time></trkpt><trkpt lat="44.227340312607055" lon="11.051966857453225"><ele>280.4</ele><time>2026-05-02T10:05:14Z</time></trkpt><trkpt lat="44.22740154748172" lon="11.052074528729198"><ele>276.79999999999995</ele><time>2026-05-02T10:05:15Z</time></trkpt><trkpt lat="44.22745857681295" lon="11.052198495879884"><ele>273.20000000000005</ele><time>2026-05-02T10:05:16Z</time></trkpt><trkpt lat="44.22748186203814" lon="11.052339477965761"><ele>269.6</ele><time>2026-05-02T10:05:17Z</time></trkpt><trkpt lat="44.22750258621752" lon="11.05247437392365"><ele>266.0</ele><time>2026-05-02T10:05:18Z</time></trkpt><trkpt lat="44.22753950374676" lon="11.05259894093621"><ele>266.0</ele><time>2026-05-02T10:05:19Z</time></trkpt><trkpt lat="44.227590740948074" lon="11.052706135404145"><ele>266.0</ele><time>2026-05-02T10:05:20Z</time></trkpt><trkpt lat="44.227640900757166" lon="11.052795962271784"><ele>266.0</ele><time>2026-05-02T10:05:21Z</time></trkpt><trkpt lat="44.227734287101136" lon="11.052834113585124"><ele>266.0</ele><time>2026-05-02T10:05:22Z</time></trkpt><trkpt lat="44.227830411075296" lon="11.052872159422737"><ele>266.0</ele><time>2026-05-02T10:05:23Z</time></trkpt><trkpt lat="44.22793803236559" lon="11.052871232817747"><ele>266.0</ele><time>2026-05-02T10:05:24Z</time></trkpt><trkpt lat="44.22804953888135" lon="11.052869952699952"><ele>266.0</ele><time>2026-05-02T10:05:25Z</time></trkpt><trkpt lat="44.22815276327592" lon="11.052877559225509"><ele>266.0</ele><time>2026-05-02T10:05:26Z</time></trkpt><trkpt lat="44.22824642486249" lon="11.052896109438986"><ele>266.0</ele><time>2026-05-02T10:05:27Z</time></trkpt><trkpt lat="44.22833290541014" lon="11.052941219030453"><ele>266.0</ele><time>2026-05-02T10:05:28Z</time></trkpt><trkpt lat="44.228414917797004" lon="11.053009446107753"><ele>265.0</ele><time>2026-05-02T10:05:29Z</time></trkpt><trkpt lat="44.228462070353544" lon="11.053124954877326"><ele>264.0</ele><time>2026-05-02T10:05:30Z</time></trkpt><trkpt lat="44.22848193221898" lon="11.053254100573655"><ele>263.0</ele><time>2026-05-02T10:05:31Z</time></trkpt><trkpt lat="44.22850264718869" lon="11.053392619164049"><ele>262.0</ele><time>2026-05-02T10:05:32Z</time></trkpt><trkpt lat="44.228540736813045" lon="11.053526578109517"><ele>261.0</ele><time>2026-05-02T10:05:33Z</time></trkpt><trkpt lat="44.22856968891232" lon="11.053672907205014"><ele>261.0</ele><time>2026-05-02T10:05:34Z</time></trkpt><trkpt lat="44.228603528516814" lon="11.053819275033653"><ele>261.0</ele><time>2026-05-02T10:05:35Z</time></trkpt><trkpt lat="44.228633018398334" lon="11.053962960009455"><ele>261.0</ele><time>2026-05-02T10:05:36Z</time></trkpt><trkpt lat="44.22866015919593" lon="11.054107421141925"><ele>261.0</ele><time>2026-05-02T10:05:37Z</time></trkpt><trkpt lat="44.22868761354436" lon="11.054250306057964"><ele>261.0</ele><time>2026-05-02T10:05:38Z</time></trkpt><trkpt lat="44.228718981057675" lon="11.054393273231241"><ele>261.40000000000003</ele><time>2026-05-02T10:05:39Z</time></trkpt><trkpt lat="44.22874518319279" lon="11.054538923535757"><ele>261.8</ele><time>2026-05-02T10:05:40Z</time></trkpt><trkpt lat="44.22877950082958" lon="11.054685789581603"><ele>262.20000000000005</ele><time>2026-05-02T10:05:41Z</time></trkpt><trkpt lat="44.22880735190647" lon="11.054816214704319"><ele>262.6</ele><time>2026-05-02T10:05:42Z</time></trkpt><trkpt lat="44.22884038059209" lon="11.054942159153871"><ele>263.0</ele><time>2026-05-02T10:05:43Z</time></trkpt><trkpt lat="44.22887075432482" lon="11.05506368714408"><ele>264.0</ele><time>2026-05-02T10:05:44Z</time></trkpt><trkpt lat="44.228901275851584" lon="11.05517289911538"><ele>265.0</ele><time>2026-05-02T10:05:45Z</time></trkpt><trkpt lat="44.22891246873119" lon="11.05528497968338"><ele>266.0</ele><time>2026-05-02T10:05:46Z</time></trkpt><trkpt lat="44.22893423043211" lon="11.055387911632684"><ele>267.0</ele><time>2026-05-02T10:05:47Z</time></trkpt><trkpt lat="44.22896854037825" lon="11.055474674921836"><ele>268.0</ele><time>2026-05-02T10:05:48Z</time></trkpt><trkpt lat="44.229019080172684" lon="11.055612280724326"><ele>269.0</ele><time>2026-05-02T10:05:50Z</time></trkpt><trkpt lat="44.22907891333652" lon="11.055688186656777"><ele>266.6666666666667</ele><time>2026-05-02T10:05:52Z</time></trkpt><trkpt lat="44.22912667971588" lon="11.055747732623"><ele>264.33333333333337</ele><time>2026-05-02T10:05:54Z</time></trkpt><trkpt lat="44.22920075275963" lon="11.055808716657126"><ele>262.0</ele><time>2026-05-02T10:05:58Z</time></trkpt><trkpt lat="44.229283837325575" lon="11.055710336785719"><ele>259.6666666666667</ele><time>2026-05-02T10:05:59Z</time></trkpt><trkpt lat="44.22937620126619" lon="11.05567997506083"><ele>257.3333333333333</ele><time>2026-05-02T10:06:01Z</time></trkpt><trkpt lat="44.22946318813936" lon="11.05571664248895"><ele>255.0</ele><time>2026-05-02T10:06:03Z</time></trkpt><trkpt lat="44.229522595895936" lon="11.055483730375144"><ele>255.0</ele><time>2026-05-02T10:06:07Z</time></trkpt><trkpt lat="44.22950329686505" lon="11.055360856860023"><ele>255.0</ele><time>2026-05-02T10:06:10Z</time></trkpt><trkpt lat="44.229417724083575" lon="11.05535944724515"><ele>255.0</ele><time>2026-05-02T10:07:28Z</time></trkpt><trkpt lat="44.229350863209156" lon="11.055381357724867"><ele>255.0</ele><time>2026-05-02T10:07:37Z</time></trkpt><trkpt lat="44.22928030654371" lon="11.055414070656"><ele>255.0</ele><time>2026-05-02T10:17:43.001Z</time></trkpt><trkpt lat="44.22932096552787" lon="11.055484635239106"><ele>255.0</ele><time>2026-05-02T10:26:01.001Z</time></trkpt><trkpt lat="44.22934444950843" lon="11.055574920379291"><ele>255.0</ele><time>2026-05-02T10:26:29.001Z</time></trkpt><trkpt lat="44.229365905381556" lon="11.055677124429968"><ele>255.0</ele><time>2026-05-02T10:26:36.001Z</time></trkpt><trkpt lat="44.22937526515361" lon="11.0557808487361"><ele>255.0</ele><time>2026-05-02T10:27:58Z</time></trkpt><trkpt lat="44.2293650438716" lon="11.055869713003533"><ele>255.0</ele><time>2026-05-02T10:28:02Z</time></trkpt><trkpt lat="44.22933634217317" lon="11.05570573275298"><ele>255.0</ele><time>2026-05-02T10:30:06Z</time></trkpt><trkpt lat="44.22932386185049" lon="11.055618841907467"><ele>255.0</ele><time>2026-05-02T10:30:16Z</time></trkpt><trkpt lat="44.22933855648675" lon="11.055526533566342"><ele>255.0</ele><time>2026-05-02T10:30:24Z</time></trkpt><trkpt lat="44.229247365656924" lon="11.055522370421441"><ele>255.00000000000003</ele><time>2026-05-02T10:36:11Z</time></trkpt><trkpt lat="44.22923873945665" lon="11.055428844300861"><ele>255.0</ele><time>2026-05-02T10:36:21Z</time></trkpt><trkpt lat="44.229296865354115" lon="11.055393064555895"><ele>255.0</ele><time>2026-05-02T11:25:29Z</time></trkpt><trkpt lat="44.22922461323383" lon="11.055388834626468"><ele>255.00000000000003</ele><time>2026-05-02T11:45:45Z</time></trkpt><trkpt lat="44.229213102371645" lon="11.055284293352422"><ele>255.0</ele><time>2026-05-02T11:46:19Z</time></trkpt><trkpt lat="44.229280659294226" lon="11.05524444232844"><ele>255.0</ele><time>2026-05-02T11:46:34Z</time></trkpt><trkpt lat="44.22933148973504" lon="11.055304036451624"><ele>255.0</ele><time>2026-05-02T11:46:40Z</time></trkpt><trkpt lat="44.22939386823623" lon="11.055330266121265"><ele>255.0</ele><time>2026-05-02T11:50:58Z</time></trkpt><trkpt lat="44.22950217767805" lon="11.055395979381128"><ele>255.0</ele><time>2026-05-02T11:53:20Z</time></trkpt><trkpt lat="44.22953057798424" lon="11.055503351097487"><ele>255.0</ele><time>2026-05-02T11:53:22Z</time></trkpt><trkpt lat="44.22951427515825" lon="11.055620464364786"><ele>255.0</ele><time>2026-05-02T11:53:25Z</time></trkpt><trkpt lat="44.22945147912935" lon="11.055648295184545"><ele>255.0</ele><time>2026-05-02T11:53:28Z</time></trkpt><trkpt lat="44.22936907293014" lon="11.055648191691775"><ele>255.0</ele><time>2026-05-02T11:53:35Z</time></trkpt><trkpt lat="44.229280126911235" lon="11.055671256286532"><ele>255.0</ele><time>2026-05-02T11:53:46Z</time></trkpt><trkpt lat="44.2292169471063" lon="11.055723834222107"><ele>255.0</ele><time>2026-05-02T11:53:47Z</time></trkpt><trkpt lat="44.229162983046024" lon="11.055816137768042"><ele>255.0</ele><time>2026-05-02T11:53:48Z</time></trkpt><trkpt lat="44.22912504879767" lon="11.055945839073797"><ele>255.0</ele><time>2026-05-02T11:53:49Z</time></trkpt><trkpt lat="44.22909313485443" lon="11.056114810948722"><ele>255.0</ele><time>2026-05-02T11:53:50Z</time></trkpt><trkpt lat="44.22905468215251" lon="11.056252050093715"><ele>255.0</ele><time>2026-05-02T11:53:51Z</time></trkpt><trkpt lat="44.228972341569474" lon="11.056302695738992"><ele>255.0</ele><time>2026-05-02T11:53:52Z</time></trkpt><trkpt lat="44.228885570887925" lon="11.056326392181719"><ele>255.0</ele><time>2026-05-02T11:53:53Z</time></trkpt><trkpt lat="44.228775741293035" lon="11.05637647398877"><ele>255.0</ele><time>2026-05-02T11:53:54Z</time></trkpt><trkpt lat="44.22865231493306" lon="11.056409334207318"><ele>255.25</ele><time>2026-05-02T11:53:55Z</time></trkpt><trkpt lat="44.22852363916392" lon="11.056461593115221"><ele>255.5</ele><time>2026-05-02T11:53:56Z</time></trkpt><trkpt lat="44.22842132490068" lon="11.056589731580845"><ele>255.75</ele><time>2026-05-02T11:53:57Z</time></trkpt><trkpt lat="44.22831529067895" lon="11.056694365998764"><ele>256.0</ele><time>2026-05-02T11:53:58Z</time></trkpt><trkpt lat="44.22821536472559" lon="11.056808799218377"><ele>262.0</ele><time>2026-05-02T11:53:59Z</time></trkpt><trkpt lat="44.22811772576177" lon="11.0569200129303"><ele>268.0</ele><time>2026-05-02T11:54:00Z</time></trkpt><trkpt lat="44.22801040122268" lon="11.057019128191289"><ele>274.0</ele><time>2026-05-02T11:54:01Z</time></trkpt><trkpt lat="44.22792817986803" lon="11.057162815726235"><ele>280.0</ele><time>2026-05-02T11:54:02Z</time></trkpt><trkpt lat="44.227841313238635" lon="11.05730543672452"><ele>277.25</ele><time>2026-05-02T11:54:03Z</time></trkpt><trkpt lat="44.227768311524734" lon="11.057470692822697"><ele>274.5</ele><time>2026-05-02T11:54:04Z</time></trkpt><trkpt lat="44.227705285222925" lon="11.057641699937808"><ele>271.75</ele><time>2026-05-02T11:54:05Z</time></trkpt><trkpt lat="44.227622441366094" lon="11.057797892375435"><ele>269.0</ele><time>2026-05-02T11:54:06Z</time></trkpt><trkpt lat="44.227552827682224" lon="11.05796450804296"><ele>269.0</ele><time>2026-05-02T11:54:07Z</time></trkpt><trkpt lat="44.22748033568214" lon="11.05813801093409"><ele>269.0</ele><time>2026-05-02T11:54:08Z</time></trkpt><trkpt lat="44.22740690119392" lon="11.058313280791516"><ele>269.0</ele><time>2026-05-02T11:54:09Z</time></trkpt><trkpt lat="44.227361818975915" lon="11.058462124379119"><ele>269.0</ele><time>2026-05-02T11:54:10Z</time></trkpt><trkpt lat="44.227306479034375" lon="11.058579874267021"><ele>271.0</ele><time>2026-05-02T11:54:11Z</time></trkpt><trkpt lat="44.227243282307974" lon="11.058691357587938"><ele>273.0</ele><time>2026-05-02T11:54:12Z</time></trkpt><trkpt lat="44.22715727665551" lon="11.058801064190217"><ele>275.0</ele><time>2026-05-02T11:54:13Z</time></trkpt><trkpt lat="44.22706335224189" lon="11.058887651200614"><ele>277.0</ele><time>2026-05-02T11:54:14Z</time></trkpt><trkpt lat="44.22696515859508" lon="11.058965377346428"><ele>279.0</ele><time>2026-05-02T11:54:15Z</time></trkpt><trkpt lat="44.22686152612703" lon="11.059036215567772"><ele>279.0</ele><time>2026-05-02T11:54:16Z</time></trkpt><trkpt lat="44.226745556946426" lon="11.059080975231314"><ele>279.0</ele><time>2026-05-02T11:54:17Z</time></trkpt><trkpt lat="44.22660884404958" lon="11.059106123254075"><ele>279.0</ele><time>2026-05-02T11:54:18Z</time></trkpt><trkpt lat="44.226467055590575" lon="11.059109893494595"><ele>279.0</ele><time>2026-05-02T11:54:19Z</time></trkpt><trkpt lat="44.22631627496144" lon="11.059091414990405"><ele>282.3333333333333</ele><time>2026-05-02T11:54:20Z</time></trkpt><trkpt lat="44.226161560030725" lon="11.059060970286623"><ele>285.66666666666663</ele><time>2026-05-02T11:54:21Z</time></trkpt><trkpt lat="44.225997358589446" lon="11.05902831736515"><ele>289.0</ele><time>2026-05-02T11:54:22Z</time></trkpt><trkpt lat="44.22583112598851" lon="11.059011284952486"><ele>289.0</ele><time>2026-05-02T11:54:23Z</time></trkpt><trkpt lat="44.22566484715411" lon="11.059004262686543"><ele>289.0</ele><time>2026-05-02T11:54:24Z</time></trkpt><trkpt lat="44.22550155302287" lon="11.059047531995796"><ele>289.0</ele><time>2026-05-02T11:54:25Z</time></trkpt><trkpt lat="44.22535700085633" lon="11.059159612712648"><ele>290.0</ele><time>2026-05-02T11:54:26Z</time></trkpt><trkpt lat="44.22522944566954" lon="11.059321154242824"><ele>291.0</ele><time>2026-05-02T11:54:27Z</time></trkpt><trkpt lat="44.22512053223198" lon="11.05950114492943"><ele>292.0</ele><time>2026-05-02T11:54:28Z</time></trkpt><trkpt lat="44.225017639991115" lon="11.059675145454653"><ele>292.0</ele><time>2026-05-02T11:54:29Z</time></trkpt><trkpt lat="44.224922935518805" lon="11.059818784184586"><ele>292.0</ele><time>2026-05-02T11:54:30Z</time></trkpt><trkpt lat="44.22483225113883" lon="11.05994775548471"><ele>292.0</ele><time>2026-05-02T11:54:31Z</time></trkpt><trkpt lat="44.224746917215064" lon="11.060062485495864"><ele>292.0</ele><time>2026-05-02T11:54:32Z</time></trkpt><trkpt lat="44.22465161304352" lon="11.060182039367152"><ele>296.25</ele><time>2026-05-02T11:54:33Z</time></trkpt><trkpt lat="44.22454830386607" lon="11.060293763490149"><ele>300.5</ele><time>2026-05-02T11:54:34Z</time></trkpt><trkpt lat="44.22442751358071" lon="11.0603973449618"><ele>304.75</ele><time>2026-05-02T11:54:35Z</time></trkpt><trkpt lat="44.22430782424909" lon="11.060498038772357"><ele>309.0</ele><time>2026-05-02T11:54:36Z</time></trkpt><trkpt lat="44.224186097958146" lon="11.060605789619972"><ele>309.0</ele><time>2026-05-02T11:54:37Z</time></trkpt><trkpt lat="44.22406324555315" lon="11.06070740833079"><ele>309.0</ele><time>2026-05-02T11:54:38Z</time></trkpt><trkpt lat="44.223938030686" lon="11.060806437246649"><ele>309.0</ele><time>2026-05-02T11:54:39Z</time></trkpt><trkpt lat="44.22382543543432" lon="11.060912178428431"><ele>309.0</ele><time>2026-05-02T11:54:40Z</time></trkpt><trkpt lat="44.22370070545678" lon="11.060953977091607"><ele>308.5</ele><time>2026-05-02T11:54:41Z</time></trkpt><trkpt lat="44.22358147495654" lon="11.060917604868633"><ele>308.0</ele><time>2026-05-02T11:54:42Z</time></trkpt><trkpt lat="44.22347560792199" lon="11.060809394402309"><ele>307.5</ele><time>2026-05-02T11:54:43Z</time></trkpt><trkpt lat="44.22338242647666" lon="11.060685714752276"><ele>307.0</ele><time>2026-05-02T11:54:44Z</time></trkpt><trkpt lat="44.22334380530591" lon="11.060502770360301"><ele>307.0</ele><time>2026-05-02T11:54:45Z</time></trkpt><trkpt lat="44.22330302050876" lon="11.060325016372266"><ele>307.0</ele><time>2026-05-02T11:54:46Z</time></trkpt><trkpt lat="44.223240808241606" lon="11.060160478186866"><ele>307.0</ele><time>2026-05-02T11:54:47Z</time></trkpt><trkpt lat="44.22315605668037" lon="11.060016784103524"><ele>307.0</ele><time>2026-05-02T11:54:48Z</time></trkpt><trkpt lat="44.22307440852491" lon="11.059870263092122"><ele>301.25</ele><time>2026-05-02T11:54:49Z</time></trkpt><trkpt lat="44.223024678779545" lon="11.059722946029027"><ele>295.5</ele><time>2026-05-02T11:54:50Z</time></trkpt><trkpt lat="44.223029312897964" lon="11.05955292608843"><ele>289.75</ele><time>2026-05-02T11:54:51Z</time></trkpt><trkpt lat="44.223066067085455" lon="11.059386868751648"><ele>284.0</ele><time>2026-05-02T11:54:52Z</time></trkpt><trkpt lat="44.22312332719967" lon="11.05922765039257"><ele>287.5</ele><time>2026-05-02T11:54:53Z</time></trkpt><trkpt lat="44.22317548924675" lon="11.059107355465859"><ele>291.0</ele><time>2026-05-02T11:54:54Z</time></trkpt><trkpt lat="44.22321734920714" lon="11.059035264213566"><ele>294.5</ele><time>2026-05-02T11:54:55Z</time></trkpt><trkpt lat="44.2232659587159" lon="11.05895982793708"><ele>298.0</ele><time>2026-05-02T11:54:57Z</time></trkpt><trkpt lat="44.22331204837795" lon="11.058828535873197"><ele>301.5</ele><time>2026-05-02T11:55:00Z</time></trkpt><trkpt lat="44.22334506681879" lon="11.058709293362513"><ele>305.0</ele><time>2026-05-02T11:55:01Z</time></trkpt><trkpt lat="44.22339000117162" lon="11.058569128109747"><ele>305.0</ele><time>2026-05-02T11:55:02Z</time></trkpt><trkpt lat="44.22341333952143" lon="11.058441489350095"><ele>305.0</ele><time>2026-05-02T11:55:03Z</time></trkpt><trkpt lat="44.22356190183904" lon="11.058350234978425"><ele>305.0</ele><time>2026-05-02T11:55:04Z</time></trkpt><trkpt lat="44.2237049296782" lon="11.058213174780457"><ele>305.0</ele><time>2026-05-02T11:55:05Z</time></trkpt><trkpt lat="44.22386948743224" lon="11.05809992983015"><ele>307.6666666666667</ele><time>2026-05-02T11:55:06Z</time></trkpt><trkpt lat="44.22402982542032" lon="11.058038916125554"><ele>310.3333333333333</ele><time>2026-05-02T11:55:07Z</time></trkpt><trkpt lat="44.224167007463784" lon="11.057955534186528"><ele>313.0</ele><time>2026-05-02T11:55:08Z</time></trkpt><trkpt lat="44.22429779415472" lon="11.0578714860219"><ele>313.0</ele><time>2026-05-02T11:55:09Z</time></trkpt><trkpt lat="44.22442020538419" lon="11.057731129124454"><ele>313.0</ele><time>2026-05-02T11:55:10Z</time></trkpt><trkpt lat="44.224517122928106" lon="11.05756175533106"><ele>313.0</ele><time>2026-05-02T11:55:11Z</time></trkpt><trkpt lat="44.224603438480976" lon="11.057444064213396"><ele>313.0</ele><time>2026-05-02T11:55:12Z</time></trkpt><trkpt lat="44.22467646172807" lon="11.057335107486727"><ele>313.8</ele><time>2026-05-02T11:55:13Z</time></trkpt><trkpt lat="44.224748331945136" lon="11.057225954138136"><ele>314.6</ele><time>2026-05-02T11:55:14Z</time></trkpt><trkpt lat="44.22481720900183" lon="11.057105787652416"><ele>315.4</ele><time>2026-05-02T11:55:15Z</time></trkpt><trkpt lat="44.22491858142661" lon="11.057038745403077"><ele>316.2</ele><time>2026-05-02T11:55:16Z</time></trkpt><trkpt lat="44.225031132176525" lon="11.057011269275018"><ele>317.0</ele><time>2026-05-02T11:55:17Z</time></trkpt><trkpt lat="44.225124104534444" lon="11.056962179185717"><ele>317.0</ele><time>2026-05-02T11:55:18Z</time></trkpt><trkpt lat="44.225203270412955" lon="11.05688501323016"><ele>317.0</ele><time>2026-05-02T11:55:19Z</time></trkpt><trkpt lat="44.2252419656786" lon="11.056742173380947"><ele>317.0</ele><time>2026-05-02T11:55:20Z</time></trkpt><trkpt lat="44.225269304148675" lon="11.056576281686054"><ele>317.0</ele><time>2026-05-02T11:55:21Z</time></trkpt><trkpt lat="44.22530407373974" lon="11.056409836791943"><ele>317.75</ele><time>2026-05-02T11:55:22Z</time></trkpt><trkpt lat="44.225366937507395" lon="11.056249852799953"><ele>318.5</ele><time>2026-05-02T11:55:23Z</time></trkpt><trkpt lat="44.22546029670924" lon="11.056133877015188"><ele>319.25</ele><time>2026-05-02T11:55:24Z</time></trkpt><trkpt lat="44.22554990839251" lon="11.056006589940377"><ele>320.0</ele><time>2026-05-02T11:55:25Z</time></trkpt><trkpt lat="44.225648246598915" lon="11.055875427729138"><ele>320.75</ele><time>2026-05-02T11:55:26Z</time></trkpt><trkpt lat="44.225744997221675" lon="11.05573935692231"><ele>321.5</ele><time>2026-05-02T11:55:27Z</time></trkpt><trkpt lat="44.22585208867606" lon="11.055631090923045"><ele>322.25</ele><time>2026-05-02T11:55:28Z</time></trkpt><trkpt lat="44.225928366055236" lon="11.055534455028345"><ele>323.0</ele><time>2026-05-02T11:55:29Z</time></trkpt><trkpt lat="44.225971922321555" lon="11.055420979128973"><ele>323.0</ele><time>2026-05-02T11:55:30Z</time></trkpt><trkpt lat="44.22595895723924" lon="11.05528433067629"><ele>323.0</ele><time>2026-05-02T11:55:31Z</time></trkpt><trkpt lat="44.22591343385725" lon="11.05513834052169"><ele>323.0</ele><time>2026-05-02T11:55:32Z</time></trkpt><trkpt lat="44.22584303154842" lon="11.055016937891127"><ele>323.0</ele><time>2026-05-02T11:55:33Z</time></trkpt><trkpt lat="44.22577109228561" lon="11.054906947589778"><ele>323.0</ele><time>2026-05-02T11:55:34Z</time></trkpt><trkpt lat="44.22568513243227" lon="11.054816812745008"><ele>324.25</ele><time>2026-05-02T11:55:35Z</time></trkpt><trkpt lat="44.22558447812449" lon="11.054770994132028"><ele>325.5</ele><time>2026-05-02T11:55:36Z</time></trkpt><trkpt lat="44.22546597435116" lon="11.054756391356422"><ele>326.75</ele><time>2026-05-02T11:55:37Z</time></trkpt><trkpt lat="44.22533915646633" lon="11.054699753315129"><ele>328.0</ele><time>2026-05-02T11:55:38Z</time></trkpt><trkpt lat="44.225210657377616" lon="11.054649239231724"><ele>328.0</ele><time>2026-05-02T11:55:39Z</time></trkpt><trkpt lat="44.22509303768848" lon="11.054595091682776"><ele>328.0</ele><time>2026-05-02T11:55:40Z</time></trkpt><trkpt lat="44.22499904625631" lon="11.054521877763396"><ele>328.0</ele><time>2026-05-02T11:55:41Z</time></trkpt><trkpt lat="44.22494378231048" lon="11.054410528539707"><ele>328.0</ele><time>2026-05-02T11:55:42Z</time></trkpt><trkpt lat="44.22490403282475" lon="11.054289910441119"><ele>328.0</ele><time>2026-05-02T11:55:43Z</time></trkpt><trkpt lat="44.22488364631746" lon="11.054169949423986"><ele>326.5</ele><time>2026-05-02T11:55:44Z</time></trkpt><trkpt lat="44.22487866836728" lon="11.054067751635115"><ele>325.0</ele><time>2026-05-02T11:55:45Z</time></trkpt><trkpt lat="44.22485473753377" lon="11.05397915701535"><ele>323.5</ele><time>2026-05-02T11:55:46Z</time></trkpt><trkpt lat="44.2247625565676" lon="11.053933402257224"><ele>322.0</ele><time>2026-05-02T11:55:48Z</time></trkpt><trkpt lat="44.2247227697949" lon="11.054020115257977"><ele>320.5</ele><time>2026-05-02T11:55:49Z</time></trkpt><trkpt lat="44.22474065394796" lon="11.054170101154096"><ele>319.0</ele><time>2026-05-02T11:55:50Z</time></trkpt><trkpt lat="44.22477251692407" lon="11.054308074049066"><ele>321.25</ele><time>2026-05-02T11:55:51Z</time></trkpt><trkpt lat="44.2248177481745" lon="11.054446373709538"><ele>323.5</ele><time>2026-05-02T11:55:52Z</time></trkpt><trkpt lat="44.22486507618737" lon="11.054595416453715"><ele>325.75</ele><time>2026-05-02T11:55:53Z</time></trkpt><trkpt lat="44.22494149296306" lon="11.054722065534866"><ele>328.0</ele><time>2026-05-02T11:55:54Z</time></trkpt><trkpt lat="44.22505162668153" lon="11.054833172391248"><ele>328.0</ele><time>2026-05-02T11:55:55Z</time></trkpt><trkpt lat="44.22517482720869" lon="11.054929683563278"><ele>328.0</ele><time>2026-05-02T11:55:56Z</time></trkpt><trkpt lat="44.22527276819847" lon="11.055017644507094"><ele>328.0</ele><time>2026-05-02T11:55:57Z</time></trkpt><trkpt lat="44.2253223896074" lon="11.055114706646659"><ele>328.0</ele><time>2026-05-02T11:55:58Z</time></trkpt><trkpt lat="44.22533527564627" lon="11.055251028241328"><ele>328.0</ele><time>2026-05-02T11:56:00Z</time></trkpt><trkpt lat="44.22527233987161" lon="11.055316787399393"><ele>330.0</ele><time>2026-05-02T11:56:02Z</time></trkpt><trkpt lat="44.2251399259569" lon="11.055222337225347"><ele>332.0</ele><time>2026-05-02T11:56:03Z</time></trkpt><trkpt lat="44.22504885357405" lon="11.05520362987768"><ele>334.0</ele><time>2026-05-02T11:56:04Z</time></trkpt><trkpt lat="44.224939576435155" lon="11.055158785253669"><ele>336.0</ele><time>2026-05-02T11:56:05Z</time></trkpt><trkpt lat="44.22482615884421" lon="11.055114839145075"><ele>339.25</ele><time>2026-05-02T11:56:06Z</time></trkpt><trkpt lat="44.22471816350103" lon="11.055055242915705"><ele>342.5</ele><time>2026-05-02T11:56:07Z</time></trkpt><trkpt lat="44.22460998890363" lon="11.054976174991971"><ele>345.75</ele><time>2026-05-02T11:56:08Z</time></trkpt><trkpt lat="44.224505836452245" lon="11.054902761596987"><ele>349.0</ele><time>2026-05-02T11:56:09Z</time></trkpt><trkpt lat="44.224404743983406" lon="11.054837309207082"><ele>349.0</ele><time>2026-05-02T11:56:10Z</time></trkpt><trkpt lat="44.22431422493315" lon="11.054775454817095"><ele>349.0</ele><time>2026-05-02T11:56:11Z</time></trkpt><trkpt lat="44.22423234836149" lon="11.054722448474566"><ele>349.0</ele><time>2026-05-02T11:56:12Z</time></trkpt><trkpt lat="44.22413755073701" lon="11.054662284749721"><ele>349.0</ele><time>2026-05-02T11:56:14Z</time></trkpt><trkpt lat="44.22400154367043" lon="11.054551070223008"><ele>352.5</ele><time>2026-05-02T11:56:16Z</time></trkpt><trkpt lat="44.22391206589945" lon="11.054490123250435"><ele>356.0</ele><time>2026-05-02T11:56:17Z</time></trkpt><trkpt lat="44.22381521174072" lon="11.054386329326677"><ele>359.5</ele><time>2026-05-02T11:56:18Z</time></trkpt><trkpt lat="44.22368481234228" lon="11.054306961753676"><ele>363.0</ele><time>2026-05-02T11:56:19Z</time></trkpt><trkpt lat="44.22359241729264" lon="11.054212495901268"><ele>363.0</ele><time>2026-05-02T11:56:20Z</time></trkpt><trkpt lat="44.223497387085814" lon="11.054147803177093"><ele>363.0</ele><time>2026-05-02T11:56:21Z</time></trkpt><trkpt lat="44.223413453771904" lon="11.054095272641309"><ele>363.0</ele><time>2026-05-02T11:56:22Z</time></trkpt><trkpt lat="44.22333801030677" lon="11.05406654445224"><ele>363.0</ele><time>2026-05-02T11:56:23Z</time></trkpt><trkpt lat="44.22326947663958" lon="11.053994116743695"><ele>363.0</ele><time>2026-05-02T11:56:24Z</time></trkpt><trkpt lat="44.22319898542187" lon="11.053961050515802"><ele>363.0</ele><time>2026-05-02T11:56:25Z</time></trkpt><trkpt lat="44.22314073377029" lon="11.053924594694843"><ele>365.0</ele><time>2026-05-02T11:56:26Z</time></trkpt><trkpt lat="44.22314348234451" lon="11.053647918073857"><ele>367.0</ele><time>2026-05-02T11:56:27Z</time></trkpt><trkpt lat="44.22310099612139" lon="11.053472329075358"><ele>369.0</ele><time>2026-05-02T11:56:28Z</time></trkpt><trkpt lat="44.223051937568854" lon="11.053358450220715"><ele>371.0</ele><time>2026-05-02T11:56:29Z</time></trkpt><trkpt lat="44.22300269871078" lon="11.053272400014436"><ele>373.6666666666667</ele><time>2026-05-02T11:56:31Z</time></trkpt><trkpt lat="44.22298767418996" lon="11.0531038858274"><ele>376.33333333333337</ele><time>2026-05-02T11:56:33Z</time></trkpt><trkpt lat="44.22296628314952" lon="11.053011585294362"><ele>379.0</ele><time>2026-05-02T11:56:34Z</time></trkpt><trkpt lat="44.22294575968233" lon="11.052913857364945"><ele>381.6666666666667</ele><time>2026-05-02T11:56:35Z</time></trkpt><trkpt lat="44.22293782969656" lon="11.052823205832965"><ele>384.3333333333333</ele><time>2026-05-02T11:56:36Z</time></trkpt><trkpt lat="44.222955455234775" lon="11.05273051841972"><ele>387.0</ele><time>2026-05-02T11:56:37Z</time></trkpt><trkpt lat="44.2229805452992" lon="11.052620800823378"><ele>387.0</ele><time>2026-05-02T11:56:38Z</time></trkpt><trkpt lat="44.22288731153637" lon="11.05262773963375"><ele>387.0</ele><time>2026-05-02T11:56:41Z</time></trkpt><trkpt lat="44.22280056571218" lon="11.05260245439536"><ele>387.0</ele><time>2026-05-02T11:56:43Z</time></trkpt><trkpt lat="44.22272815215882" lon="11.052458456071385"><ele>387.0</ele><time>2026-05-02T11:56:45Z</time></trkpt><trkpt lat="44.22267891757223" lon="11.052392054247559"><ele>387.0</ele><time>2026-05-02T11:56:46Z</time></trkpt><trkpt lat="44.222604746240066" lon="11.052335680423091"><ele>388.5</ele><time>2026-05-02T11:56:47Z</time></trkpt><trkpt lat="44.222524702019925" lon="11.052290033975243"><ele>390.0</ele><time>2026-05-02T11:56:48Z</time></trkpt><trkpt lat="44.222484663367396" lon="11.052212933292912"><ele>391.5</ele><time>2026-05-02T11:56:50Z</time></trkpt><trkpt lat="44.22248666620793" lon="11.05210074329686"><ele>393.0</ele><time>2026-05-02T11:56:51Z</time></trkpt><trkpt lat="44.222458757195454" lon="11.052015331215205"><ele>394.5</ele><time>2026-05-02T11:56:52Z</time></trkpt><trkpt lat="44.22241247582084" lon="11.051900975660473"><ele>396.0</ele><time>2026-05-02T11:56:53Z</time></trkpt><trkpt lat="44.22239368725067" lon="11.051792247183448"><ele>396.0</ele><time>2026-05-02T11:56:54Z</time></trkpt><trkpt lat="44.22238778728739" lon="11.051676636445109"><ele>396.0</ele><time>2026-05-02T11:56:55Z</time></trkpt><trkpt lat="44.22237264292622" lon="11.051443878339514"><ele>396.0</ele><time>2026-05-02T11:56:56Z</time></trkpt><trkpt lat="44.22237800408411" lon="11.051324208778272"><ele>396.0</ele><time>2026-05-02T11:56:57Z</time></trkpt><trkpt lat="44.22237641883699" lon="11.051190111914234"><ele>396.0</ele><time>2026-05-02T11:56:58Z</time></trkpt><trkpt lat="44.222386612328194" lon="11.051078364965518"><ele>397.8333333333333</ele><time>2026-05-02T11:56:59Z</time></trkpt><trkpt lat="44.222407848290615" lon="11.050993519452998"><ele>399.66666666666663</ele><time>2026-05-02T11:57:00Z</time></trkpt><trkpt lat="44.2223825618986" lon="11.050857159473791"><ele>401.5</ele><time>2026-05-02T11:57:02Z</time></trkpt><trkpt lat="44.222350478203296" lon="11.050778378864546"><ele>403.3333333333333</ele><time>2026-05-02T11:57:03Z</time></trkpt><trkpt lat="44.22230321942962" lon="11.050705197459905"><ele>405.16666666666663</ele><time>2026-05-02T11:57:04Z</time></trkpt><trkpt lat="44.222257959564594" lon="11.050525630679905"><ele>407.0</ele><time>2026-05-02T11:57:06Z</time></trkpt><trkpt lat="44.22224392835876" lon="11.05040810813231"><ele>408.16666666666663</ele><time>2026-05-02T11:57:08Z</time></trkpt><trkpt lat="44.22232400359624" lon="11.050296123070982"><ele>409.3333333333333</ele><time>2026-05-02T11:57:10Z</time></trkpt><trkpt lat="44.22231378448846" lon="11.050204247079654"><ele>410.5</ele><time>2026-05-02T11:57:11Z</time></trkpt><trkpt lat="44.22223789923858" lon="11.050263201330035"><ele>411.66666666666663</ele><time>2026-05-02T11:57:17Z</time></trkpt><trkpt lat="44.22215801308072" lon="11.050313655602103"><ele>412.8333333333333</ele><time>2026-05-02T11:57:19Z</time></trkpt><trkpt lat="44.222079860622635" lon="11.05028926651172"><ele>414.0</ele><time>2026-05-02T11:57:21Z</time></trkpt><trkpt lat="44.22203586354067" lon="11.050209672815154"><ele>415.6</ele><time>2026-05-02T11:57:23Z</time></trkpt><trkpt lat="44.22198775981566" lon="11.050117369525388"><ele>417.2</ele><time>2026-05-02T11:57:26Z</time></trkpt><trkpt lat="44.221936583344885" lon="11.050054421384614"><ele>418.8</ele><time>2026-05-02T12:05:58Z</time></trkpt><trkpt lat="44.221852088066385" lon="11.049937651087227"><ele>420.40000000000003</ele><time>2026-05-02T12:06:00Z</time></trkpt><trkpt lat="44.22181521473117" lon="11.049807154645674"><ele>422.0</ele><time>2026-05-02T12:06:01Z</time></trkpt><trkpt lat="44.221783326811774" lon="11.049635527989144"><ele>424.5</ele><time>2026-05-02T12:06:02Z</time></trkpt><trkpt lat="44.22177612937323" lon="11.049442262068684"><ele>427.0</ele><time>2026-05-02T12:06:03Z</time></trkpt><trkpt lat="44.22172411279718" lon="11.049265095262097"><ele>429.5</ele><time>2026-05-02T12:06:04Z</time></trkpt><trkpt lat="44.221638576295646" lon="11.049098706652686"><ele>432.0</ele><time>2026-05-02T12:06:05Z</time></trkpt><trkpt lat="44.22154624370531" lon="11.048956616515447"><ele>434.0</ele><time>2026-05-02T12:06:06Z</time></trkpt><trkpt lat="44.221438887250194" lon="11.048821019534468"><ele>436.0</ele><time>2026-05-02T12:06:07Z</time></trkpt><trkpt lat="44.22133169087741" lon="11.048698150770555"><ele>438.0</ele><time>2026-05-02T12:06:08Z</time></trkpt><trkpt lat="44.22123025045209" lon="11.048580900444675"><ele>440.0</ele><time>2026-05-02T12:06:09Z</time></trkpt><trkpt lat="44.221128040159606" lon="11.048460972850945"><ele>440.0</ele><time>2026-05-02T12:06:10Z</time></trkpt><trkpt lat="44.22103355273094" lon="11.048354399773274"><ele>440.0</ele><time>2026-05-02T12:06:11Z</time></trkpt><trkpt lat="44.22094585051489" lon="11.04826779004514"><ele>440.0</ele><time>2026-05-02T12:06:12Z</time></trkpt><trkpt lat="44.22085287870185" lon="11.048210991176068"><ele>440.0</ele><time>2026-05-02T12:06:13Z</time></trkpt><trkpt lat="44.22075149249166" lon="11.048204047696299"><ele>440.0</ele><time>2026-05-02T12:06:14Z</time></trkpt><trkpt lat="44.22064011293963" lon="11.048301566888155"><ele>440.6</ele><time>2026-05-02T12:06:15Z</time></trkpt><trkpt lat="44.22055103384359" lon="11.048404545806113"><ele>441.2</ele><time>2026-05-02T12:06:16Z</time></trkpt><trkpt lat="44.2204599123997" lon="11.048497993844524"><ele>441.79999999999995</ele><time>2026-05-02T12:06:17Z</time></trkpt><trkpt lat="44.220362922907185" lon="11.048583158587544"><ele>442.4</ele><time>2026-05-02T12:06:18Z</time></trkpt><trkpt lat="44.22026957832932" lon="11.048645784254358"><ele>443.0</ele><time>2026-05-02T12:06:19Z</time></trkpt><trkpt lat="44.22017732528008" lon="11.048695001430447"><ele>443.0</ele><time>2026-05-02T12:06:20Z</time></trkpt><trkpt lat="44.220099343574866" lon="11.048726918466727"><ele>442.99999999999994</ele><time>2026-05-02T12:06:21Z</time></trkpt><trkpt lat="44.22003616194139" lon="11.04866572136956"><ele>442.99999999999994</ele><time>2026-05-02T12:06:23Z</time></trkpt><trkpt lat="44.219970275141755" lon="11.048500370960497"><ele>443.0</ele><time>2026-05-02T12:06:25Z</time></trkpt><trkpt lat="44.21994213494578" lon="11.048355118766139"><ele>443.0</ele><time>2026-05-02T12:06:26Z</time></trkpt><trkpt lat="44.21990079201533" lon="11.048204094349915"><ele>443.0</ele><time>2026-05-02T12:06:27Z</time></trkpt><trkpt lat="44.21987346186165" lon="11.04804226798337"><ele>443.0</ele><time>2026-05-02T12:06:28Z</time></trkpt><trkpt lat="44.219832173259185" lon="11.04788553247338"><ele>443.0</ele><time>2026-05-02T12:06:29Z</time></trkpt><trkpt lat="44.219796983915565" lon="11.04772504544543"><ele>443.0</ele><time>2026-05-02T12:06:30Z</time></trkpt><trkpt lat="44.21976790948515" lon="11.047568558346477"><ele>445.4</ele><time>2026-05-02T12:06:31Z</time></trkpt><trkpt lat="44.21972865087411" lon="11.047422177594528"><ele>447.79999999999995</ele><time>2026-05-02T12:06:32Z</time></trkpt><trkpt lat="44.21971014608984" lon="11.047270146852854"><ele>450.2</ele><time>2026-05-02T12:06:33Z</time></trkpt><trkpt lat="44.219693721234925" lon="11.047117515457094"><ele>452.6</ele><time>2026-05-02T12:06:34Z</time></trkpt><trkpt lat="44.219669561919744" lon="11.046961748987531"><ele>455.0</ele><time>2026-05-02T12:06:35Z</time></trkpt><trkpt lat="44.21962163186774" lon="11.046820631914313"><ele>455.0</ele><time>2026-05-02T12:06:36Z</time></trkpt><trkpt lat="44.21956575217608" lon="11.046690107173754"><ele>455.0</ele><time>2026-05-02T12:06:37Z</time></trkpt><trkpt lat="44.21952551472292" lon="11.046586804470946"><ele>455.0</ele><time>2026-05-02T12:06:38Z</time></trkpt><trkpt lat="44.21953453623545" lon="11.04649298029732"><ele>455.0</ele><time>2026-05-02T12:06:39Z</time></trkpt><trkpt lat="44.21958541239202" lon="11.046394846158343"><ele>455.0</ele><time>2026-05-02T12:06:40Z</time></trkpt><trkpt lat="44.21965002948043" lon="11.046282222222219"><ele>453.25</ele><time>2026-05-02T12:06:41Z</time></trkpt><trkpt lat="44.21972687839787" lon="11.046170837228328"><ele>451.5</ele><time>2026-05-02T12:06:42Z</time></trkpt><trkpt lat="44.219753887678536" lon="11.046009977170678"><ele>449.75</ele><time>2026-05-02T12:06:43Z</time></trkpt><trkpt lat="44.219798472409025" lon="11.045858833677027"><ele>448.0</ele><time>2026-05-02T12:06:44Z</time></trkpt><trkpt lat="44.21984140671204" lon="11.045704686577322"><ele>448.00000000000006</ele><time>2026-05-02T12:06:45Z</time></trkpt><trkpt lat="44.219890806161466" lon="11.045566566402325"><ele>448.0</ele><time>2026-05-02T12:06:46Z</time></trkpt><trkpt lat="44.21993496820601" lon="11.04546329816961"><ele>448.0</ele><time>2026-05-02T12:06:47Z</time></trkpt><trkpt lat="44.219958172452856" lon="11.045373990513536"><ele>448.0</ele><time>2026-05-02T12:06:48Z</time></trkpt><trkpt lat="44.21994284963944" lon="11.045284946964033"><ele>448.00000000000006</ele><time>2026-05-02T12:06:49Z</time></trkpt><trkpt lat="44.21987252832266" lon="11.04523102087426"><ele>448.0</ele><time>2026-05-02T12:06:50Z</time></trkpt><trkpt lat="44.21976564707651" lon="11.04522721308542"><ele>448.2</ele><time>2026-05-02T12:06:51Z</time></trkpt><trkpt lat="44.2196752433896" lon="11.045216811489016"><ele>448.4</ele><time>2026-05-02T12:06:52Z</time></trkpt><trkpt lat="44.21958153224139" lon="11.045199922069466"><ele>448.59999999999997</ele><time>2026-05-02T12:06:53Z</time></trkpt><trkpt lat="44.21951508701386" lon="11.045138771141271"><ele>448.79999999999995</ele><time>2026-05-02T12:06:54Z</time></trkpt><trkpt lat="44.21942664298144" lon="11.04504961267535"><ele>449.0</ele><time>2026-05-02T12:06:55Z</time></trkpt><trkpt lat="44.21933166046867" lon="11.044958793566039"><ele>449.0</ele><time>2026-05-02T12:06:56Z</time></trkpt><trkpt lat="44.219225239727145" lon="11.044869350933388"><ele>449.0</ele><time>2026-05-02T12:06:57Z</time></trkpt><trkpt lat="44.21908238659316" lon="11.044850524284339"><ele>449.0</ele><time>2026-05-02T12:06:58Z</time></trkpt><trkpt lat="44.218951446669905" lon="11.044848340047087"><ele>449.0</ele><time>2026-05-02T12:06:59Z</time></trkpt><trkpt lat="44.218815791916526" lon="11.044833060809502"><ele>451.75</ele><time>2026-05-02T12:07:00Z</time></trkpt><trkpt lat="44.218683371702795" lon="11.044807434082779"><ele>454.5</ele><time>2026-05-02T12:07:01Z</time></trkpt><trkpt lat="44.21854163872537" lon="11.044784397631762"><ele>457.25</ele><time>2026-05-02T12:07:02Z</time></trkpt><trkpt lat="44.21840492950326" lon="11.044773475690993"><ele>460.0</ele><time>2026-05-02T12:07:03Z</time></trkpt><trkpt lat="44.218267947730794" lon="11.044765623239977"><ele>465.0</ele><time>2026-05-02T12:07:04Z</time></trkpt><trkpt lat="44.21813207771135" lon="11.044751936623538"><ele>470.0</ele><time>2026-05-02T12:07:05Z</time></trkpt><trkpt lat="44.21801229639206" lon="11.044726697568919"><ele>475.0</ele><time>2026-05-02T12:07:06Z</time></trkpt><trkpt lat="44.21790696550854" lon="11.04466556181372"><ele>480.0</ele><time>2026-05-02T12:07:07Z</time></trkpt><trkpt lat="44.21781275348788" lon="11.04458467414374"><ele>480.0</ele><time>2026-05-02T12:07:08Z</time></trkpt><trkpt lat="44.217737444099654" lon="11.044499371856551"><ele>480.0</ele><time>2026-05-02T12:07:09Z</time></trkpt><trkpt lat="44.21767802565249" lon="11.044393362946538"><ele>480.0</ele><time>2026-05-02T12:07:10Z</time></trkpt><trkpt lat="44.21764011076196" lon="11.044273457634132"><ele>480.0</ele><time>2026-05-02T12:07:11Z</time></trkpt><trkpt lat="44.21761976573163" lon="11.044161022917079"><ele>480.0</ele><time>2026-05-02T12:07:12Z</time></trkpt><trkpt lat="44.217591992492466" lon="11.044040390972759"><ele>481.14285714285717</ele><time>2026-05-02T12:07:13Z</time></trkpt><trkpt lat="44.21756571783228" lon="11.043933034546823"><ele>482.2857142857142</ele><time>2026-05-02T12:07:14Z</time></trkpt><trkpt lat="44.21753930436062" lon="11.043844670439508"><ele>483.4285714285714</ele><time>2026-05-02T12:07:15Z</time></trkpt><trkpt lat="44.21748741637333" lon="11.043776263639568"><ele>484.57142857142856</ele><time>2026-05-02T12:07:16Z</time></trkpt><trkpt lat="44.21741348300171" lon="11.043720930094867"><ele>485.71428571428567</ele><time>2026-05-02T12:07:17Z</time></trkpt><trkpt lat="44.2173518742441" lon="11.043682160265522"><ele>486.8571428571428</ele><time>2026-05-02T12:07:18Z</time></trkpt><trkpt lat="44.217288119244536" lon="11.04364370355887"><ele>487.99999999999994</ele><time>2026-05-02T12:07:19Z</time></trkpt><trkpt lat="44.21721030446275" lon="11.043600791915187"><ele>488.0</ele><time>2026-05-02T12:07:20Z</time></trkpt><trkpt lat="44.21713344065185" lon="11.043535254067171"><ele>487.99999999999994</ele><time>2026-05-02T12:07:21Z</time></trkpt><trkpt lat="44.21706576742806" lon="11.043439842079229"><ele>487.99999999999994</ele><time>2026-05-02T12:07:22Z</time></trkpt><trkpt lat="44.217001594718326" lon="11.043333762630342"><ele>488.0</ele><time>2026-05-02T12:07:23Z</time></trkpt><trkpt lat="44.21694603443594" lon="11.043221556078288"><ele>488.0</ele><time>2026-05-02T12:07:24Z</time></trkpt><trkpt lat="44.21691277199108" lon="11.04312162716197"><ele>487.59999999999997</ele><time>2026-05-02T12:07:25Z</time></trkpt><trkpt lat="44.21689964005726" lon="11.043033553810057"><ele>487.19999999999993</ele><time>2026-05-02T12:07:26Z</time></trkpt><trkpt lat="44.2168763426935" lon="11.042891671254754"><ele>486.8</ele><time>2026-05-02T12:07:28Z</time></trkpt><trkpt lat="44.21690079344678" lon="11.042734342091274"><ele>486.4</ele><time>2026-05-02T12:07:33Z</time></trkpt><trkpt lat="44.216837348064004" lon="11.042531263163085"><ele>486.0</ele><time>2026-05-02T12:07:35Z</time></trkpt><trkpt lat="44.21677068522839" lon="11.042447707763866"><ele>483.5</ele><time>2026-05-02T12:07:36Z</time></trkpt><trkpt lat="44.21669565235697" lon="11.04235760078537"><ele>481.0</ele><time>2026-05-02T12:07:37Z</time></trkpt><trkpt lat="44.216295263753345" lon="11.04267437098164"><ele>483.20000000000005</ele><time>2026-05-02T12:07:38Z</time></trkpt><trkpt lat="44.21624063471557" lon="11.042607536348385"><ele>485.40000000000003</ele><time>2026-05-02T12:07:39Z</time></trkpt><trkpt lat="44.21617652210247" lon="11.042516234117892"><ele>487.6</ele><time>2026-05-02T12:07:40Z</time></trkpt><trkpt lat="44.216109432347686" lon="11.042422511244508"><ele>489.8</ele><time>2026-05-02T12:07:41Z</time></trkpt><trkpt lat="44.21604114800453" lon="11.042371669408668"><ele>492.0</ele><time>2026-05-02T12:07:42Z</time></trkpt><trkpt lat="44.215922446753126" lon="11.042365495046784"><ele>492.0</ele><time>2026-05-02T12:07:44Z</time></trkpt><trkpt lat="44.215850696486875" lon="11.042363802861479"><ele>492.00000000000006</ele><time>2026-05-02T12:07:45Z</time></trkpt><trkpt lat="44.21577045763562" lon="11.042379489823862"><ele>492.00000000000006</ele><time>2026-05-02T12:07:46Z</time></trkpt><trkpt lat="44.215647554055614" lon="11.042358809537753"><ele>492.0</ele><time>2026-05-02T12:07:48Z</time></trkpt><trkpt lat="44.215576822136974" lon="11.042285999743623"><ele>492.0</ele><time>2026-05-02T12:07:50Z</time></trkpt><trkpt lat="44.215490098627775" lon="11.042194311447"><ele>491.20000000000005</ele><time>2026-05-02T12:07:52Z</time></trkpt><trkpt lat="44.215417115591144" lon="11.042162158820178"><ele>490.40000000000003</ele><time>2026-05-02T12:07:53Z</time></trkpt><trkpt lat="44.21531632316373" lon="11.042156319067034"><ele>489.59999999999997</ele><time>2026-05-02T12:07:54Z</time></trkpt><trkpt lat="44.21519514993402" lon="11.0421854990659"><ele>488.79999999999995</ele><time>2026-05-02T12:07:55Z</time></trkpt><trkpt lat="44.21506813738823" lon="11.042197047897252"><ele>488.0</ele><time>2026-05-02T12:07:56Z</time></trkpt><trkpt lat="44.214933372190316" lon="11.042195842658707"><ele>488.0</ele><time>2026-05-02T12:07:57Z</time></trkpt><trkpt lat="44.21483768921055" lon="11.041854186448973"><ele>488.0</ele><time>2026-05-02T12:07:58Z</time></trkpt><trkpt lat="44.214737824123894" lon="11.041826846693217"><ele>488.0</ele><time>2026-05-02T12:07:59Z</time></trkpt><trkpt lat="44.214534336650054" lon="11.041706051112863"><ele>488.0</ele><time>2026-05-02T12:08:01Z</time></trkpt><trkpt lat="44.214268417516514" lon="11.041831824209735"><ele>488.0</ele><time>2026-05-02T12:08:02Z</time></trkpt><trkpt lat="44.214215662897594" lon="11.041885340808188"><ele>488.0</ele><time>2026-05-02T12:08:03Z</time></trkpt><trkpt lat="44.214154698943574" lon="11.041941425398987"><ele>488.0</ele><time>2026-05-02T12:08:04Z</time></trkpt><trkpt lat="44.21406941765471" lon="11.042016074060859"><ele>487.99999999999994</ele><time>2026-05-02T12:08:06Z</time></trkpt><trkpt lat="44.21399748255809" lon="11.042063782929194"><ele>488.0</ele><time>2026-05-02T12:08:07Z</time></trkpt><trkpt lat="44.21392177254028" lon="11.042105383001042"><ele>488.0</ele><time>2026-05-02T12:08:08Z</time></trkpt><trkpt lat="44.21385104093869" lon="11.042141445680883"><ele>488.0</ele><time>2026-05-02T12:08:10Z</time></trkpt><trkpt lat="44.213776430069686" lon="11.042157992708377"><ele>487.99999999999994</ele><time>2026-05-02T12:08:12Z</time></trkpt><trkpt lat="44.21366764419482" lon="11.042163452906097"><ele>488.0</ele><time>2026-05-02T12:08:14Z</time></trkpt><trkpt lat="44.21359975683716" lon="11.042150547757776"><ele>487.4</ele><time>2026-05-02T12:08:15Z</time></trkpt><trkpt lat="44.21347541209272" lon="11.042135819210706"><ele>486.79999999999995</ele><time>2026-05-02T12:08:16Z</time></trkpt><trkpt lat="44.21338161451003" lon="11.04212470896557"><ele>486.2</ele><time>2026-05-02T12:08:17Z</time></trkpt><trkpt lat="44.21331028892323" lon="11.042116260612598"><ele>485.6</ele><time>2026-05-02T12:08:19Z</time></trkpt><trkpt lat="44.21324700989204" lon="11.042102969600847"><ele>485.0</ele><time>2026-05-02T12:08:21Z</time></trkpt><trkpt lat="44.21313422293718" lon="11.042080580773444"><ele>484.5</ele><time>2026-05-02T12:08:23Z</time></trkpt><trkpt lat="44.21305198320343" lon="11.042025657662016"><ele>484.0</ele><time>2026-05-02T12:08:28Z</time></trkpt><trkpt lat="44.21262399701974" lon="11.042170550387642"><ele>484.0</ele><time>2026-05-02T12:08:30Z</time></trkpt><trkpt lat="44.21253076214418" lon="11.042253256339142"><ele>484.0</ele><time>2026-05-02T12:08:33Z</time></trkpt><trkpt lat="44.21246581759233" lon="11.042310179608574"><ele>484.0</ele><time>2026-05-02T12:08:35Z</time></trkpt><trkpt lat="44.21228763892834" lon="11.042956267966737"><ele>485.2</ele><time>2026-05-02T12:08:44Z</time></trkpt><trkpt lat="44.21222186285103" lon="11.043001425579185"><ele>486.4</ele><time>2026-05-02T12:08:46Z</time></trkpt><trkpt lat="44.212117160180526" lon="11.043069767353687"><ele>487.6</ele><time>2026-05-02T12:08:48Z</time></trkpt><trkpt lat="44.2120447728073" lon="11.043107075184645"><ele>488.8</ele><time>2026-05-02T12:08:49Z</time></trkpt><trkpt lat="44.21193366882732" lon="11.043158280085336"><ele>490.0</ele><time>2026-05-02T12:08:50Z</time></trkpt><trkpt lat="44.21183958399519" lon="11.04320232339256"><ele>490.00000000000006</ele><time>2026-05-02T12:08:51Z</time></trkpt><trkpt lat="44.211762905320946" lon="11.043249732674544"><ele>490.0</ele><time>2026-05-02T12:08:52Z</time></trkpt><trkpt lat="44.211683044849" lon="11.043295910877788"><ele>490.0</ele><time>2026-05-02T12:08:53Z</time></trkpt><trkpt lat="44.211602120297364" lon="11.043314107612563"><ele>490.0</ele><time>2026-05-02T12:08:54Z</time></trkpt><trkpt lat="44.21152919594891" lon="11.043325880672931"><ele>490.00000000000006</ele><time>2026-05-02T12:08:55Z</time></trkpt><trkpt lat="44.211449231067256" lon="11.043339339431677"><ele>490.0</ele><time>2026-05-02T12:08:56Z</time></trkpt><trkpt lat="44.21137101671454" lon="11.043348127201856"><ele>493.0</ele><time>2026-05-02T12:08:57Z</time></trkpt><trkpt lat="44.21130637059408" lon="11.043369017433678"><ele>496.0</ele><time>2026-05-02T12:08:58Z</time></trkpt><trkpt lat="44.211242899213644" lon="11.043404496314231"><ele>499.0</ele><time>2026-05-02T12:08:59Z</time></trkpt><trkpt lat="44.21114983225346" lon="11.043446091792509"><ele>502.0</ele><time>2026-05-02T12:09:00Z</time></trkpt><trkpt lat="44.2110150767387" lon="11.043495842509891"><ele>505.0</ele><time>2026-05-02T12:09:01Z</time></trkpt><trkpt lat="44.210854947178014" lon="11.043554501486385"><ele>505.0</ele><time>2026-05-02T12:09:02Z</time></trkpt><trkpt lat="44.210724823366384" lon="11.043622759500023"><ele>505.0</ele><time>2026-05-02T12:09:03Z</time></trkpt><trkpt lat="44.2106312030683" lon="11.043674191478289"><ele>505.0</ele><time>2026-05-02T12:09:04Z</time></trkpt><trkpt lat="44.21052245880235" lon="11.04370635723698"><ele>505.0</ele><time>2026-05-02T12:09:05Z</time></trkpt><trkpt lat="44.21040685737214" lon="11.043704849667582"><ele>504.0</ele><time>2026-05-02T12:09:06Z</time></trkpt><trkpt lat="44.21031919179928" lon="11.043676547615943"><ele>503.0</ele><time>2026-05-02T12:09:07Z</time></trkpt><trkpt lat="44.21023177767971" lon="11.043602249533459"><ele>502.0</ele><time>2026-05-02T12:09:09Z</time></trkpt><trkpt lat="44.21014856938933" lon="11.043469004957412"><ele>501.0</ele><time>2026-05-02T12:09:11Z</time></trkpt><trkpt lat="44.21010223229606" lon="11.043379135859444"><ele>500.0</ele><time>2026-05-02T12:09:12Z</time></trkpt><trkpt lat="44.210058756809175" lon="11.043307788386016"><ele>497.8</ele><time>2026-05-02T12:09:13Z</time></trkpt><trkpt lat="44.21001756492634" lon="11.04319003826115"><ele>495.6</ele><time>2026-05-02T12:09:15Z</time></trkpt><trkpt lat="44.209950955323976" lon="11.043122163695077"><ele>493.4</ele><time>2026-05-02T12:09:17Z</time></trkpt><trkpt lat="44.20989078184979" lon="11.043067042923244"><ele>491.2</ele><time>2026-05-02T12:09:18Z</time></trkpt><trkpt lat="44.209799144263464" lon="11.043012935970031"><ele>489.0</ele><time>2026-05-02T12:09:19Z</time></trkpt><trkpt lat="44.209691334505195" lon="11.042977738761696"><ele>488.0</ele><time>2026-05-02T12:09:20Z</time></trkpt><trkpt lat="44.209572156470024" lon="11.042943868053904"><ele>487.0</ele><time>2026-05-02T12:09:21Z</time></trkpt><trkpt lat="44.209462548899474" lon="11.042911206645059"><ele>486.0</ele><time>2026-05-02T12:09:22Z</time></trkpt><trkpt lat="44.20933338880627" lon="11.042876563568344"><ele>485.0</ele><time>2026-05-02T12:09:23Z</time></trkpt><trkpt lat="44.20920860990577" lon="11.042837289024378"><ele>485.0</ele><time>2026-05-02T12:09:24Z</time></trkpt><trkpt lat="44.20911000960662" lon="11.042790399846858"><ele>485.0</ele><time>2026-05-02T12:09:25Z</time></trkpt><trkpt lat="44.20901669972909" lon="11.042732520286817"><ele>485.0</ele><time>2026-05-02T12:09:26Z</time></trkpt><trkpt lat="44.20891015468436" lon="11.042634030124807"><ele>485.0</ele><time>2026-05-02T12:09:27Z</time></trkpt><trkpt lat="44.20881932308153" lon="11.042521417166803"><ele>482.25</ele><time>2026-05-02T12:09:28Z</time></trkpt><trkpt lat="44.20871568264711" lon="11.04237872735319"><ele>479.5</ele><time>2026-05-02T12:09:29Z</time></trkpt><trkpt lat="44.20862798789662" lon="11.042258928663982"><ele>476.75</ele><time>2026-05-02T12:09:30Z</time></trkpt><trkpt lat="44.2085322040163" lon="11.04216697559351"><ele>474.0</ele><time>2026-05-02T12:09:31Z</time></trkpt><trkpt lat="44.20843599442769" lon="11.042076990556158"><ele>474.0</ele><time>2026-05-02T12:09:32Z</time></trkpt><trkpt lat="44.208348198527446" lon="11.04199409219609"><ele>474.0</ele><time>2026-05-02T12:09:33Z</time></trkpt><trkpt lat="44.20825962012536" lon="11.041913462785425"><ele>474.0</ele><time>2026-05-02T12:09:34Z</time></trkpt><trkpt lat="44.208174474935475" lon="11.041840170282041"><ele>474.0</ele><time>2026-05-02T12:09:35Z</time></trkpt><trkpt lat="44.208103870596574" lon="11.041773399235417"><ele>474.0</ele><time>2026-05-02T12:09:36Z</time></trkpt><trkpt lat="44.20803450793493" lon="11.041727025408324"><ele>472.79999999999995</ele><time>2026-05-02T12:09:37Z</time></trkpt><trkpt lat="44.20796769596479" lon="11.041690741066002"><ele>471.59999999999997</ele><time>2026-05-02T12:09:38Z</time></trkpt><trkpt lat="44.20786120837599" lon="11.04167444877325"><ele>470.4</ele><time>2026-05-02T12:09:40Z</time></trkpt><trkpt lat="44.20777405081056" lon="11.041570551026552"><ele>469.2</ele><time>2026-05-02T12:09:41Z</time></trkpt><trkpt lat="44.20768543301012" lon="11.041588402111277"><ele>468.0</ele><time>2026-05-02T12:09:42Z</time></trkpt><trkpt lat="44.207603676917806" lon="11.04160082682483"><ele>466.2</ele><time>2026-05-02T12:09:43Z</time></trkpt><trkpt lat="44.20753687090315" lon="11.041600054738032"><ele>464.4</ele><time>2026-05-02T12:09:44Z</time></trkpt><trkpt lat="44.20741370743466" lon="11.041584368329216"><ele>462.59999999999997</ele><time>2026-05-02T12:09:46Z</time></trkpt><trkpt lat="44.207329308333755" lon="11.041562957366642"><ele>460.79999999999995</ele><time>2026-05-02T12:09:47Z</time></trkpt><trkpt lat="44.20726011019487" lon="11.041541563741275"><ele>459.0</ele><time>2026-05-02T12:09:48Z</time></trkpt><trkpt lat="44.207158548081324" lon="11.041646739353256"><ele>458.6</ele><time>2026-05-02T12:09:50Z</time></trkpt><trkpt lat="44.2070480685946" lon="11.041503569900676"><ele>458.2</ele><time>2026-05-02T12:09:54Z</time></trkpt><trkpt lat="44.206978790354" lon="11.041490718407386"><ele>457.80000000000007</ele><time>2026-05-02T12:09:55Z</time></trkpt><trkpt lat="44.20688853582779" lon="11.041450623204428"><ele>457.40000000000003</ele><time>2026-05-02T12:09:56Z</time></trkpt><trkpt lat="44.20679351757731" lon="11.041366330491677"><ele>457.0</ele><time>2026-05-02T12:09:57Z</time></trkpt><trkpt lat="44.20666803160939" lon="11.041331269331614"><ele>457.0</ele><time>2026-05-02T12:09:58Z</time></trkpt><trkpt lat="44.20654240605893" lon="11.041248059000909"><ele>457.0</ele><time>2026-05-02T12:09:59Z</time></trkpt><trkpt lat="44.206427624033296" lon="11.041179589078784"><ele>457.0</ele><time>2026-05-02T12:10:00Z</time></trkpt><trkpt lat="44.206321870988226" lon="11.041108696221023"><ele>457.0</ele><time>2026-05-02T12:10:01Z</time></trkpt><trkpt lat="44.206221324394186" lon="11.04102188152686"><ele>456.25</ele><time>2026-05-02T12:10:02Z</time></trkpt><trkpt lat="44.20612467983652" lon="11.04092018653535"><ele>455.5</ele><time>2026-05-02T12:10:03Z</time></trkpt><trkpt lat="44.20601991001997" lon="11.040851256436964"><ele>454.75</ele><time>2026-05-02T12:10:04Z</time></trkpt><trkpt lat="44.205917053517176" lon="11.040789979884428"><ele>454.0</ele><time>2026-05-02T12:10:05Z</time></trkpt><trkpt lat="44.20580315891431" lon="11.040720549442874"><ele>454.5</ele><time>2026-05-02T12:10:06Z</time></trkpt><trkpt lat="44.205697401937435" lon="11.040636251849632"><ele>455.0</ele><time>2026-05-02T12:10:07Z</time></trkpt><trkpt lat="44.20557995620977" lon="11.040530273294204"><ele>455.5</ele><time>2026-05-02T12:10:08Z</time></trkpt><trkpt lat="44.205453395476134" lon="11.040457265871638"><ele>456.0</ele><time>2026-05-02T12:10:09Z</time></trkpt><trkpt lat="44.20532753492136" lon="11.040453417663548"><ele>456.0</ele><time>2026-05-02T12:10:10Z</time></trkpt><trkpt lat="44.20522419704334" lon="11.04040201415581"><ele>456.0</ele><time>2026-05-02T12:10:11Z</time></trkpt><trkpt lat="44.20512174294289" lon="11.040348186190796"><ele>456.0</ele><time>2026-05-02T12:10:12Z</time></trkpt><trkpt lat="44.205013001794754" lon="11.04028291174547"><ele>456.0</ele><time>2026-05-02T12:10:13Z</time></trkpt><trkpt lat="44.204889746496505" lon="11.040208460138167"><ele>457.25</ele><time>2026-05-02T12:10:14Z</time></trkpt><trkpt lat="44.204782851619825" lon="11.0401334083583"><ele>458.5</ele><time>2026-05-02T12:10:15Z</time></trkpt><trkpt lat="44.20469376152123" lon="11.040037840969962"><ele>459.75</ele><time>2026-05-02T12:10:16Z</time></trkpt><trkpt lat="44.2045981679991" lon="11.039963511352704"><ele>461.0</ele><time>2026-05-02T12:10:17Z</time></trkpt><trkpt lat="44.20448931567077" lon="11.039932077334917"><ele>461.0</ele><time>2026-05-02T12:10:18Z</time></trkpt><trkpt lat="44.2043628370318" lon="11.040003961890172"><ele>461.0</ele><time>2026-05-02T12:10:19Z</time></trkpt><trkpt lat="44.20423740787065" lon="11.04003582638419"><ele>461.0</ele><time>2026-05-02T12:10:20Z</time></trkpt><trkpt lat="44.204107605968595" lon="11.040017108609677"><ele>461.0</ele><time>2026-05-02T12:10:21Z</time></trkpt><trkpt lat="44.20397938523631" lon="11.040001224489325"><ele>461.75</ele><time>2026-05-02T12:10:22Z</time></trkpt><trkpt lat="44.20384811206885" lon="11.039974769578237"><ele>462.5</ele><time>2026-05-02T12:10:23Z</time></trkpt><trkpt lat="44.20371043154682" lon="11.039939639916685"><ele>463.25</ele><time>2026-05-02T12:10:24Z</time></trkpt><trkpt lat="44.20358095445409" lon="11.039893565467509"><ele>464.0</ele><time>2026-05-02T12:10:25Z</time></trkpt><trkpt lat="44.203448780562745" lon="11.039843598848666"><ele>464.25</ele><time>2026-05-02T12:10:26Z</time></trkpt><trkpt lat="44.20331314999527" lon="11.039788693565969"><ele>464.5</ele><time>2026-05-02T12:10:27Z</time></trkpt><trkpt lat="44.20317669342112" lon="11.039735906958489"><ele>464.75</ele><time>2026-05-02T12:10:28Z</time></trkpt><trkpt lat="44.20303553521278" lon="11.03968345717435"><ele>465.0</ele><time>2026-05-02T12:10:29Z</time></trkpt><trkpt lat="44.202899314507206" lon="11.039618016066592"><ele>465.0</ele><time>2026-05-02T12:10:30Z</time></trkpt><trkpt lat="44.20277198738238" lon="11.039534128846768"><ele>465.0</ele><time>2026-05-02T12:10:31Z</time></trkpt><trkpt lat="44.202653859633116" lon="11.039432653602812"><ele>465.0</ele><time>2026-05-02T12:10:32Z</time></trkpt><trkpt lat="44.20253987496457" lon="11.039330213752915"><ele>465.0</ele><time>2026-05-02T12:10:33Z</time></trkpt><trkpt lat="44.20243547525719" lon="11.039214907077932"><ele>463.5</ele><time>2026-05-02T12:10:34Z</time></trkpt><trkpt lat="44.20233163276669" lon="11.03909004496415"><ele>462.0</ele><time>2026-05-02T12:10:35Z</time></trkpt><trkpt lat="44.20223624888071" lon="11.038962685945847"><ele>460.5</ele><time>2026-05-02T12:10:36Z</time></trkpt><trkpt lat="44.20214255028035" lon="11.038826750801636"><ele>459.0</ele><time>2026-05-02T12:10:37Z</time></trkpt><trkpt lat="44.20205537618425" lon="11.03868288957327"><ele>461.0</ele><time>2026-05-02T12:10:38Z</time></trkpt><trkpt lat="44.20196797997862" lon="11.038538474340752"><ele>463.0</ele><time>2026-05-02T12:10:39Z</time></trkpt><trkpt lat="44.20187826494485" lon="11.038399937327352"><ele>465.0</ele><time>2026-05-02T12:10:40Z</time></trkpt><trkpt lat="44.20178948846219" lon="11.038280258644521"><ele>467.0</ele><time>2026-05-02T12:10:41Z</time></trkpt><trkpt lat="44.201672134492554" lon="11.038255577483143"><ele>467.0</ele><time>2026-05-02T12:10:42Z</time></trkpt><trkpt lat="44.20156816581154" lon="11.038232008760986"><ele>467.0</ele><time>2026-05-02T12:10:43Z</time></trkpt><trkpt lat="44.20145127421863" lon="11.038217916138862"><ele>467.0</ele><time>2026-05-02T12:10:44Z</time></trkpt><trkpt lat="44.20132576241317" lon="11.038214726668707"><ele>467.0</ele><time>2026-05-02T12:10:45Z</time></trkpt><trkpt lat="44.2012092902355" lon="11.038210307443041"><ele>470.20000000000005</ele><time>2026-05-02T12:10:46Z</time></trkpt><trkpt lat="44.20111354781462" lon="11.038205651268111"><ele>473.40000000000003</ele><time>2026-05-02T12:10:47Z</time></trkpt><trkpt lat="44.20104627230347" lon="11.038200237864658"><ele>476.59999999999997</ele><time>2026-05-02T12:10:48Z</time></trkpt><trkpt lat="44.20108710997443" lon="11.038414980566795"><ele>479.79999999999995</ele><time>2026-05-02T12:10:51Z</time></trkpt><trkpt lat="44.201073571361995" lon="11.038540439069221"><ele>483.0</ele><time>2026-05-02T12:10:52Z</time></trkpt><trkpt lat="44.20103383130962" lon="11.038702716058603"><ele>483.75</ele><time>2026-05-02T12:10:54Z</time></trkpt><trkpt lat="44.20099275315328" lon="11.03877413264548"><ele>484.5</ele><time>2026-05-02T12:10:55Z</time></trkpt><trkpt lat="44.20094011439821" lon="11.038854522806014"><ele>485.25</ele><time>2026-05-02T12:10:57Z</time></trkpt><trkpt lat="44.20086702934805" lon="11.038949806171377"><ele>486.0</ele><time>2026-05-02T12:10:59Z</time></trkpt><trkpt lat="44.20055562929577" lon="11.038661265454943"><ele>487.8</ele><time>2026-05-02T12:11:00Z</time></trkpt><trkpt lat="44.20046668121695" lon="11.038644831511212"><ele>489.6</ele><time>2026-05-02T12:11:01Z</time></trkpt><trkpt lat="44.20037494898813" lon="11.038615325396336"><ele>491.4</ele><time>2026-05-02T12:11:02Z</time></trkpt><trkpt lat="44.20028740468699" lon="11.038561921602476"><ele>493.2</ele><time>2026-05-02T12:11:03Z</time></trkpt><trkpt lat="44.20023100911839" lon="11.0385024089766"><ele>495.0</ele><time>2026-05-02T12:11:04Z</time></trkpt><trkpt lat="44.20018799686904" lon="11.038321707407198"><ele>496.75</ele><time>2026-05-02T12:11:06Z</time></trkpt><trkpt lat="44.20017460194418" lon="11.038210870007246"><ele>498.5</ele><time>2026-05-02T12:11:07Z</time></trkpt><trkpt lat="44.20015301409488" lon="11.03805473612443"><ele>500.25</ele><time>2026-05-02T12:11:08Z</time></trkpt><trkpt lat="44.20010014073133" lon="11.037883179096436"><ele>502.0</ele><time>2026-05-02T12:11:09Z</time></trkpt><trkpt lat="44.200031456002954" lon="11.037718868276906"><ele>502.0</ele><time>2026-05-02T12:11:10Z</time></trkpt><trkpt lat="44.19996646396742" lon="11.037615774116777"><ele>502.0</ele><time>2026-05-02T12:11:11Z</time></trkpt><trkpt lat="44.19988624447434" lon="11.037535212928626"><ele>502.0</ele><time>2026-05-02T12:11:12Z</time></trkpt><trkpt lat="44.19976850857987" lon="11.037429756586988"><ele>502.0</ele><time>2026-05-02T12:11:13Z</time></trkpt><trkpt lat="44.199676328444454" lon="11.037316867959358"><ele>505.8</ele><time>2026-05-02T12:11:14Z</time></trkpt><trkpt lat="44.19961083610919" lon="11.037206087236493"><ele>509.6</ele><time>2026-05-02T12:11:15Z</time></trkpt><trkpt lat="44.19955485364411" lon="11.037108294188085"><ele>513.4000000000001</ele><time>2026-05-02T12:11:16Z</time></trkpt><trkpt lat="44.199490141663084" lon="11.036989871593253"><ele>517.2</ele><time>2026-05-02T12:11:18Z</time></trkpt><trkpt lat="44.19942420226523" lon="11.03685313264297"><ele>521.0</ele><time>2026-05-02T12:11:20Z</time></trkpt><trkpt lat="44.19934957340787" lon="11.036738729366256"><ele>521.0</ele><time>2026-05-02T12:11:22Z</time></trkpt><trkpt lat="44.19927342188215" lon="11.036660596779782"><ele>521.0</ele><time>2026-05-02T12:11:24Z</time></trkpt><trkpt lat="44.199204585252154" lon="11.036556737509866"><ele>521.0</ele><time>2026-05-02T12:11:26Z</time></trkpt><trkpt lat="44.199098293791415" lon="11.036466437324297"><ele>521.0</ele><time>2026-05-02T12:11:28Z</time></trkpt><trkpt lat="44.19903681135695" lon="11.036432820777618"><ele>521.0</ele><time>2026-05-02T12:11:29Z</time></trkpt><trkpt lat="44.19896404627001" lon="11.036397183825237"><ele>519.8333333333333</ele><time>2026-05-02T12:11:30Z</time></trkpt><trkpt lat="44.198893600024824" lon="11.036360507726192"><ele>518.6666666666666</ele><time>2026-05-02T12:11:31Z</time></trkpt><trkpt lat="44.19882007661683" lon="11.036313229792203"><ele>517.5</ele><time>2026-05-02T12:11:32Z</time></trkpt><trkpt lat="44.19874404628377" lon="11.036257787869607"><ele>516.3333333333334</ele><time>2026-05-02T12:11:33Z</time></trkpt><trkpt lat="44.19868310382937" lon="11.036140281760753"><ele>515.1666666666667</ele><time>2026-05-02T12:11:34Z</time></trkpt><trkpt lat="44.19860024196678" lon="11.036092073190371"><ele>514.0</ele><time>2026-05-02T12:11:35Z</time></trkpt><trkpt lat="44.198521331853286" lon="11.03605451810811"><ele>514.0</ele><time>2026-05-02T12:11:36Z</time></trkpt><trkpt lat="44.198436792233245" lon="11.036018972478363"><ele>514.0</ele><time>2026-05-02T12:11:37Z</time></trkpt><trkpt lat="44.19834903014293" lon="11.035988214252457"><ele>514.0</ele><time>2026-05-02T12:11:38Z</time></trkpt><trkpt lat="44.1982491583596" lon="11.035966383639247"><ele>514.0</ele><time>2026-05-02T12:11:39Z</time></trkpt><trkpt lat="44.19815175061852" lon="11.035947383276751"><ele>514.0</ele><time>2026-05-02T12:11:40Z</time></trkpt><trkpt lat="44.198050484530384" lon="11.035917085187592"><ele>514.4</ele><time>2026-05-02T12:11:41Z</time></trkpt><trkpt lat="44.19795181408523" lon="11.035873491954476"><ele>514.8</ele><time>2026-05-02T12:11:42Z</time></trkpt><trkpt lat="44.19785174551673" lon="11.035825643071961"><ele>515.2</ele><time>2026-05-02T12:11:43Z</time></trkpt><trkpt lat="44.19775562183414" lon="11.03577775729491"><ele>515.6</ele><time>2026-05-02T12:11:44Z</time></trkpt><trkpt lat="44.19766665139098" lon="11.035730335862254"><ele>516.0</ele><time>2026-05-02T12:11:45Z</time></trkpt><trkpt lat="44.197575554460755" lon="11.035681781067932"><ele>516.75</ele><time>2026-05-02T12:11:46Z</time></trkpt><trkpt lat="44.197471953829435" lon="11.035630277323776"><ele>517.5</ele><time>2026-05-02T12:11:47Z</time></trkpt><trkpt lat="44.19736054999259" lon="11.035605795048854"><ele>518.25</ele><time>2026-05-02T12:11:48Z</time></trkpt><trkpt lat="44.19724991890549" lon="11.03559650523574"><ele>519.0</ele><time>2026-05-02T12:11:49Z</time></trkpt><trkpt lat="44.19712927687966" lon="11.035605043563272"><ele>519.0</ele><time>2026-05-02T12:11:50Z</time></trkpt><trkpt lat="44.19700464492418" lon="11.035615609892096"><ele>519.0</ele><time>2026-05-02T12:11:51Z</time></trkpt><trkpt lat="44.19690200772834" lon="11.035617209337563"><ele>519.0</ele><time>2026-05-02T12:11:52Z</time></trkpt><trkpt lat="44.19681321631334" lon="11.03559394298773"><ele>519.0</ele><time>2026-05-02T12:11:53Z</time></trkpt><trkpt lat="44.196723656404906" lon="11.035547346692793"><ele>519.0</ele><time>2026-05-02T12:11:54Z</time></trkpt><trkpt lat="44.19663162464568" lon="11.035494354519956"><ele>519.0</ele><time>2026-05-02T12:11:55Z</time></trkpt><trkpt lat="44.19655275798927" lon="11.035445824821164"><ele>519.0</ele><time>2026-05-02T12:11:56Z</time></trkpt><trkpt lat="44.196478168578025" lon="11.035399926968797"><ele>519.0</ele><time>2026-05-02T12:11:57Z</time></trkpt><trkpt lat="44.19640581160964" lon="11.035360988131908"><ele>519.0</ele><time>2026-05-02T12:11:58Z</time></trkpt><trkpt lat="44.19632657684247" lon="11.035319175495527"><ele>519.0</ele><time>2026-05-02T12:12:00Z</time></trkpt><trkpt lat="44.19620435105805" lon="11.03547336333675"><ele>523.6666666666666</ele><time>2026-05-02T12:12:03Z</time></trkpt><trkpt lat="44.19611847240942" lon="11.035581192467976"><ele>528.3333333333333</ele><time>2026-05-02T12:12:05Z</time></trkpt><trkpt lat="44.196033744020205" lon="11.03559657180907"><ele>533.0</ele><time>2026-05-02T12:12:08Z</time></trkpt><trkpt lat="44.19581824310752" lon="11.035842726023082"><ele>533.0</ele><time>2026-05-02T12:12:09Z</time></trkpt><trkpt lat="44.195734137107195" lon="11.035767788696276"><ele>533.0</ele><time>2026-05-02T12:12:11Z</time></trkpt><trkpt lat="44.19552675742035" lon="11.035714385276757"><ele>533.0</ele><time>2026-05-02T12:12:12Z</time></trkpt><trkpt lat="44.19541785369539" lon="11.035655928876336"><ele>533.0</ele><time>2026-05-02T12:12:13Z</time></trkpt><trkpt lat="44.195331783197254" lon="11.035632237744572"><ele>535.1666666666666</ele><time>2026-05-02T12:12:15Z</time></trkpt><trkpt lat="44.195230306037146" lon="11.035596420637056"><ele>537.3333333333333</ele><time>2026-05-02T12:12:17Z</time></trkpt><trkpt lat="44.195159787265446" lon="11.035573286687528"><ele>539.5</ele><time>2026-05-02T12:12:18Z</time></trkpt><trkpt lat="44.19509455097881" lon="11.035548781045666"><ele>541.6666666666666</ele><time>2026-05-02T12:12:19Z</time></trkpt><trkpt lat="44.19502753339152" lon="11.035530832463106"><ele>543.8333333333334</ele><time>2026-05-02T12:12:20Z</time></trkpt><trkpt lat="44.19494956414484" lon="11.035521211421361"><ele>546.0</ele><time>2026-05-02T12:12:21Z</time></trkpt><trkpt lat="44.19481634975655" lon="11.035512986624225"><ele>547.4</ele><time>2026-05-02T12:12:22Z</time></trkpt><trkpt lat="44.19467514407788" lon="11.035506066589779"><ele>548.8</ele><time>2026-05-02T12:12:23Z</time></trkpt><trkpt lat="44.194560743566015" lon="11.035500834070357"><ele>550.1999999999999</ele><time>2026-05-02T12:12:24Z</time></trkpt><trkpt lat="44.1944627738226" lon="11.035496356912404"><ele>551.6</ele><time>2026-05-02T12:12:25Z</time></trkpt><trkpt lat="44.1943885922444" lon="11.03549296395569"><ele>553.0</ele><time>2026-05-02T12:12:26Z</time></trkpt><trkpt lat="44.194316130693764" lon="11.035489649722129"><ele>553.0</ele><time>2026-05-02T12:12:27Z</time></trkpt><trkpt lat="44.19423565489425" lon="11.03545059851243"><ele>553.0</ele><time>2026-05-02T12:12:28Z</time></trkpt><trkpt lat="44.194150502271995" lon="11.03540728155915"><ele>553.0</ele><time>2026-05-02T12:12:29Z</time></trkpt><trkpt lat="44.19403508230755" lon="11.03532666460089"><ele>553.0</ele><time>2026-05-02T12:12:31Z</time></trkpt><trkpt lat="44.19395711299037" lon="11.035277217609515"><ele>553.0</ele><time>2026-05-02T12:12:32Z</time></trkpt><trkpt lat="44.193857752863536" lon="11.034558731529115"><ele>556.8</ele><time>2026-05-02T12:12:34Z</time></trkpt><trkpt lat="44.19378576635626" lon="11.034493451044057"><ele>560.5999999999999</ele><time>2026-05-02T12:12:36Z</time></trkpt><trkpt lat="44.19371332664036" lon="11.034521183475155"><ele>564.4000000000001</ele><time>2026-05-02T12:12:39Z</time></trkpt><trkpt lat="44.19361337254574" lon="11.03457004439724"><ele>568.2</ele><time>2026-05-02T12:12:42Z</time></trkpt><trkpt lat="44.193489411906704" lon="11.034604681280559"><ele>572.0</ele><time>2026-05-02T12:12:44Z</time></trkpt><trkpt lat="44.19341531621925" lon="11.034584350113521"><ele>572.0</ele><time>2026-05-02T12:12:45Z</time></trkpt><trkpt lat="44.1933244012446" lon="11.034537362219181"><ele>572.0</ele><time>2026-05-02T12:12:46Z</time></trkpt><trkpt lat="44.19320941007315" lon="11.034490223896805"><ele>572.0</ele><time>2026-05-02T12:12:47Z</time></trkpt><trkpt lat="44.193090139523086" lon="11.034463848079387"><ele>572.0</ele><time>2026-05-02T12:12:48Z</time></trkpt><trkpt lat="44.19302298402029" lon="11.034443385215802"><ele>572.0</ele><time>2026-05-02T12:12:53Z</time></trkpt><trkpt lat="44.19292525009932" lon="11.03446112209935"><ele>574.5</ele><time>2026-05-02T12:12:55Z</time></trkpt><trkpt lat="44.19285730123953" lon="11.03445642659652"><ele>577.0</ele><time>2026-05-02T12:12:56Z</time></trkpt><trkpt lat="44.192792928390496" lon="11.034449653088888"><ele>579.5</ele><time>2026-05-02T12:12:57Z</time></trkpt><trkpt lat="44.19267926607433" lon="11.034408024088517"><ele>582.0</ele><time>2026-05-02T12:12:59Z</time></trkpt><trkpt lat="44.192622511356866" lon="11.03434643808333"><ele>584.5</ele><time>2026-05-02T12:13:02Z</time></trkpt><trkpt lat="44.192554024814925" lon="11.034334694859968"><ele>587.0</ele><time>2026-05-02T12:13:07Z</time></trkpt><trkpt lat="44.19249677614656" lon="11.034267436069639"><ele>587.0</ele><time>2026-05-02T12:13:09Z</time></trkpt><trkpt lat="44.192413556067855" lon="11.034207698763433"><ele>587.0</ele><time>2026-05-02T12:13:11Z</time></trkpt><trkpt lat="44.19231403555952" lon="11.034164283035746"><ele>587.0</ele><time>2026-05-02T12:13:13Z</time></trkpt><trkpt lat="44.19225644084036" lon="11.034115616425112"><ele>587.0</ele><time>2026-05-02T12:13:14Z</time></trkpt><trkpt lat="44.19218054014604" lon="11.034016198579199"><ele>587.0</ele><time>2026-05-02T12:13:16Z</time></trkpt><trkpt lat="44.19209575195115" lon="11.03392027719035"><ele>589.8000000000001</ele><time>2026-05-02T12:13:18Z</time></trkpt><trkpt lat="44.192011815496386" lon="11.033825572795807"><ele>592.6</ele><time>2026-05-02T12:13:20Z</time></trkpt><trkpt lat="44.19193812433717" lon="11.033706388921448"><ele>595.4000000000001</ele><time>2026-05-02T12:13:22Z</time></trkpt><trkpt lat="44.19188110759904" lon="11.033615095555824"><ele>598.2</ele><time>2026-05-02T12:13:23Z</time></trkpt><trkpt lat="44.19182460914711" lon="11.033503893259047"><ele>601.0</ele><time>2026-05-02T12:13:24Z</time></trkpt><trkpt lat="44.19178143358147" lon="11.033390994917678"><ele>601.5</ele><time>2026-05-02T12:13:25Z</time></trkpt><trkpt lat="44.191735907494504" lon="11.033280926256289"><ele>602.0</ele><time>2026-05-02T12:13:26Z</time></trkpt><trkpt lat="44.19169577508361" lon="11.033167833215462"><ele>602.5</ele><time>2026-05-02T12:13:27Z</time></trkpt><trkpt lat="44.191682036923474" lon="11.033041579152593"><ele>603.0</ele><time>2026-05-02T12:13:29Z</time></trkpt><trkpt lat="44.19167550825996" lon="11.03293270402983"><ele>603.5</ele><time>2026-05-02T12:13:31Z</time></trkpt><trkpt lat="44.19166316674273" lon="11.03280171162637"><ele>604.0</ele><time>2026-05-02T12:13:33Z</time></trkpt><trkpt lat="44.19159993783447" lon="11.03269548053684"><ele>604.0</ele><time>2026-05-02T12:13:35Z</time></trkpt><trkpt lat="44.19150779696205" lon="11.032639977860972"><ele>604.0</ele><time>2026-05-02T12:13:37Z</time></trkpt><trkpt lat="44.19144112432899" lon="11.032608508915414"><ele>604.0</ele><time>2026-05-02T12:13:38Z</time></trkpt><trkpt lat="44.19136242507211" lon="11.03257117122949"><ele>604.0</ele><time>2026-05-02T12:13:39Z</time></trkpt><trkpt lat="44.191281648530065" lon="11.032532268302127"><ele>604.0</ele><time>2026-05-02T12:13:40Z</time></trkpt><trkpt lat="44.19121774822273" lon="11.032505883607556"><ele>604.0</ele><time>2026-05-02T12:13:41Z</time></trkpt><trkpt lat="44.19112059173016" lon="11.032513208643742"><ele>606.0</ele><time>2026-05-02T12:13:43Z</time></trkpt><trkpt lat="44.19102117852609" lon="11.03249847741531"><ele>608.0</ele><time>2026-05-02T12:13:45Z</time></trkpt><trkpt lat="44.190957251167035" lon="11.03248815490156"><ele>610.0</ele><time>2026-05-02T12:13:46Z</time></trkpt><trkpt lat="44.190870465810946" lon="11.032473853866948"><ele>612.0</ele><time>2026-05-02T12:13:47Z</time></trkpt><trkpt lat="44.19080219983729" lon="11.032459223922245"><ele>614.0</ele><time>2026-05-02T12:13:48Z</time></trkpt><trkpt lat="44.1907302058718" lon="11.032458404378545"><ele>616.0</ele><time>2026-05-02T12:13:49Z</time></trkpt><trkpt lat="44.19065919722506" lon="11.032469441448482"><ele>618.0</ele><time>2026-05-02T12:13:50Z</time></trkpt><trkpt lat="44.190565704463424" lon="11.032501031188346"><ele>620.0</ele><time>2026-05-02T12:13:51Z</time></trkpt><trkpt lat="44.19043861873975" lon="11.032541592373937"><ele>622.0</ele><time>2026-05-02T12:13:52Z</time></trkpt><trkpt lat="44.190360608103795" lon="11.032558452020337"><ele>624.0</ele><time>2026-05-02T12:13:53Z</time></trkpt><trkpt lat="44.19028582350809" lon="11.032509359751712"><ele>626.0</ele><time>2026-05-02T12:13:56Z</time></trkpt><trkpt lat="44.190163378466124" lon="11.03247318597963"><ele>626.4</ele><time>2026-05-02T12:13:58Z</time></trkpt><trkpt lat="44.190068347761965" lon="11.032420430795478"><ele>626.8</ele><time>2026-05-02T12:14:00Z</time></trkpt><trkpt lat="44.18998657706613" lon="11.032314484852943"><ele>627.1999999999999</ele><time>2026-05-02T12:14:02Z</time></trkpt><trkpt lat="44.1899242717373" lon="11.032259251521142"><ele>627.6</ele><time>2026-05-02T12:14:03Z</time></trkpt><trkpt lat="44.18979535885174" lon="11.032181853125602"><ele>628.0</ele><time>2026-05-02T12:14:05Z</time></trkpt><trkpt lat="44.18972318263414" lon="11.032138056604163"><ele>629.3333333333334</ele><time>2026-05-02T12:14:06Z</time></trkpt><trkpt lat="44.18966294039657" lon="11.032111228277488"><ele>630.6666666666667</ele><time>2026-05-02T12:14:07Z</time></trkpt><trkpt lat="44.18959229213949" lon="11.032083256689695"><ele>632.0</ele><time>2026-05-02T12:14:08Z</time></trkpt><trkpt lat="44.18947633715284" lon="11.032141185259258"><ele>633.3333333333334</ele><time>2026-05-02T12:14:10Z</time></trkpt><trkpt lat="44.18937277722887" lon="11.032167660420981"><ele>634.6666666666666</ele><time>2026-05-02T12:14:12Z</time></trkpt><trkpt lat="44.18930428608974" lon="11.032172791774922"><ele>636.0</ele><time>2026-05-02T12:14:13Z</time></trkpt><trkpt lat="44.18924112930167" lon="11.032221655841719"><ele>636.0</ele><time>2026-05-02T12:14:14Z</time></trkpt><trkpt lat="44.189184289938076" lon="11.032277272014783"><ele>636.0</ele><time>2026-05-02T12:14:15Z</time></trkpt><trkpt lat="44.18910726845207" lon="11.032310275901215"><ele>636.0</ele><time>2026-05-02T12:14:16Z</time></trkpt><trkpt lat="44.1889970690369" lon="11.032354028522015"><ele>636.0</ele><time>2026-05-02T12:14:17Z</time></trkpt><trkpt lat="44.18887051487426" lon="11.032424913104329"><ele>636.0</ele><time>2026-05-02T12:14:18Z</time></trkpt><trkpt lat="44.18876868635269" lon="11.03247351283782"><ele>639.8</ele><time>2026-05-02T12:14:19Z</time></trkpt><trkpt lat="44.18868244921683" lon="11.032495631639259"><ele>643.6</ele><time>2026-05-02T12:14:20Z</time></trkpt><trkpt lat="44.18861678836707" lon="11.03247141157049"><ele>647.4</ele><time>2026-05-02T12:14:21Z</time></trkpt><trkpt lat="44.18849422804987" lon="11.032404645544391"><ele>651.2</ele><time>2026-05-02T12:14:23Z</time></trkpt><trkpt lat="44.18841649896861" lon="11.032369937214327"><ele>655.0</ele><time>2026-05-02T12:14:24Z</time></trkpt><trkpt lat="44.18831884090725" lon="11.032311021267162"><ele>655.0</ele><time>2026-05-02T12:14:25Z</time></trkpt><trkpt lat="44.18820602811043" lon="11.032242497324381"><ele>655.0</ele><time>2026-05-02T12:14:26Z</time></trkpt><trkpt lat="44.18809814621341" lon="11.03218658070324"><ele>655.0</ele><time>2026-05-02T12:14:27Z</time></trkpt><trkpt lat="44.18802299625792" lon="11.032167263176465"><ele>655.0</ele><time>2026-05-02T12:14:28Z</time></trkpt><trkpt lat="44.187926293460244" lon="11.032187242333322"><ele>655.0</ele><time>2026-05-02T12:14:30Z</time></trkpt><trkpt lat="44.18778961103783" lon="11.032166551774392"><ele>656.6666666666667</ele><time>2026-05-02T12:14:32Z</time></trkpt><trkpt lat="44.18769799865454" lon="11.032195685844757"><ele>658.3333333333334</ele><time>2026-05-02T12:14:33Z</time></trkpt><trkpt lat="44.18761039104258" lon="11.032258808947963"><ele>660.0</ele><time>2026-05-02T12:14:34Z</time></trkpt><trkpt lat="44.18753993642964" lon="11.032306492854543"><ele>661.6666666666666</ele><time>2026-05-02T12:14:35Z</time></trkpt><trkpt lat="44.18745789197074" lon="11.03232569142373"><ele>663.3333333333333</ele><time>2026-05-02T12:14:36Z</time></trkpt><trkpt lat="44.18737716397303" lon="11.032325919132317"><ele>665.0</ele><time>2026-05-02T12:14:37Z</time></trkpt><trkpt lat="44.18729519595554" lon="11.032295686084892"><ele>666.4</ele><time>2026-05-02T12:14:38Z</time></trkpt><trkpt lat="44.18720364564869" lon="11.03223985650609"><ele>667.8</ele><time>2026-05-02T12:14:39Z</time></trkpt><trkpt lat="44.187095032190044" lon="11.032178818138455"><ele>669.2</ele><time>2026-05-02T12:14:40Z</time></trkpt><trkpt lat="44.18699614350912" lon="11.032142526642982"><ele>670.6</ele><time>2026-05-02T12:14:41Z</time></trkpt><trkpt lat="44.18689378549937" lon="11.03213546306599"><ele>672.0</ele><time>2026-05-02T12:14:42Z</time></trkpt><trkpt lat="44.18679237026623" lon="11.031854866973015"><ele>672.0</ele><time>2026-05-02T12:14:43Z</time></trkpt><trkpt lat="44.186720309317614" lon="11.03184923572628"><ele>672.0</ele><time>2026-05-02T12:14:44Z</time></trkpt><trkpt lat="44.18662317285225" lon="11.031828951644187"><ele>672.0</ele><time>2026-05-02T12:14:45Z</time></trkpt><trkpt lat="44.18648106172535" lon="11.031797143854897"><ele>672.0</ele><time>2026-05-02T12:14:46Z</time></trkpt><trkpt lat="44.186290812750556" lon="11.031825106750798"><ele>676.3333333333334</ele><time>2026-05-02T12:14:47Z</time></trkpt><trkpt lat="44.18613549112408" lon="11.031787764798326"><ele>680.6666666666667</ele><time>2026-05-02T12:14:48Z</time></trkpt><trkpt lat="44.18597583145985" lon="11.031739912288945"><ele>685.0</ele><time>2026-05-02T12:14:49Z</time></trkpt><trkpt lat="44.18583322062787" lon="11.031680659845238"><ele>685.0</ele><time>2026-05-02T12:14:50Z</time></trkpt><trkpt lat="44.185748771186745" lon="11.031654000392706"><ele>685.0</ele><time>2026-05-02T12:14:51Z</time></trkpt><trkpt lat="44.18568234836703" lon="11.031633031778757"><ele>685.0</ele><time>2026-05-02T12:14:53Z</time></trkpt><trkpt lat="44.18563072699995" lon="11.031757466650365"><ele>685.0</ele><time>2026-05-02T12:14:54Z</time></trkpt><trkpt lat="44.18552950561463" lon="11.031857759016434"><ele>685.0</ele><time>2026-05-02T12:14:56Z</time></trkpt><trkpt lat="44.18545454423175" lon="11.031875546236071"><ele>686.8333333333334</ele><time>2026-05-02T12:14:58Z</time></trkpt><trkpt lat="44.18535721821489" lon="11.031915228501997"><ele>688.6666666666667</ele><time>2026-05-02T12:15:08Z</time></trkpt><trkpt lat="44.18528870579331" lon="11.031952873095163"><ele>690.5</ele><time>2026-05-02T12:15:09Z</time></trkpt><trkpt lat="44.185215701330044" lon="11.031992261291665"><ele>692.3333333333334</ele><time>2026-05-02T12:15:11Z</time></trkpt><trkpt lat="44.18514664565496" lon="11.032061816711234"><ele>694.1666666666666</ele><time>2026-05-02T12:15:23Z</time></trkpt><trkpt lat="44.18506172746079" lon="11.032122631297499"><ele>696.0</ele><time>2026-05-02T12:15:24Z</time></trkpt><trkpt lat="44.18495569993469" lon="11.032195133510665"><ele>696.8</ele><time>2026-05-02T12:15:25Z</time></trkpt><trkpt lat="44.18481537080831" lon="11.032220855609872"><ele>697.5999999999999</ele><time>2026-05-02T12:15:26Z</time></trkpt><trkpt lat="44.18471980454134" lon="11.032222686754544"><ele>698.4</ele><time>2026-05-02T12:15:27Z</time></trkpt><trkpt lat="44.184649194514016" lon="11.032228096616967"><ele>699.2</ele><time>2026-05-02T12:15:28Z</time></trkpt><trkpt lat="44.18452059600075" lon="11.032249648382924"><ele>700.0</ele><time>2026-05-02T12:15:30Z</time></trkpt><trkpt lat="44.18445674523256" lon="11.032260349069743"><ele>700.0</ele><time>2026-05-02T12:15:31Z</time></trkpt><trkpt lat="44.18435912145322" lon="11.03232320570385"><ele>700.0</ele><time>2026-05-02T12:15:33Z</time></trkpt><trkpt lat="44.1842749691713" lon="11.032417637931443"><ele>700.0</ele><time>2026-05-02T12:15:35Z</time></trkpt><trkpt lat="44.18422618656468" lon="11.032475066386876"><ele>700.0</ele><time>2026-05-02T12:15:36Z</time></trkpt><trkpt lat="44.18414942573526" lon="11.032554327163238"><ele>700.0</ele><time>2026-05-02T12:15:38Z</time></trkpt><trkpt lat="44.18404128221098" lon="11.0325410623909"><ele>697.5</ele><time>2026-05-02T12:15:40Z</time></trkpt><trkpt lat="44.183974679759686" lon="11.032508073000708"><ele>695.0</ele><time>2026-05-02T12:15:41Z</time></trkpt><trkpt lat="44.18390900248288" lon="11.032475665517932"><ele>692.5</ele><time>2026-05-02T12:15:42Z</time></trkpt><trkpt lat="44.183840141993464" lon="11.032437545218915"><ele>690.0</ele><time>2026-05-02T12:15:43Z</time></trkpt><trkpt lat="44.183763013061935" lon="11.03237740983626"><ele>687.5</ele><time>2026-05-02T12:15:44Z</time></trkpt><trkpt lat="44.183676376986575" lon="11.032307182249328"><ele>685.0</ele><time>2026-05-02T12:15:45Z</time></trkpt><trkpt lat="44.18358451799762" lon="11.03225779832848"><ele>685.0</ele><time>2026-05-02T12:15:46Z</time></trkpt><trkpt lat="44.183491758188985" lon="11.032255772217658"><ele>685.0</ele><time>2026-05-02T12:15:47Z</time></trkpt><trkpt lat="44.183397777420815" lon="11.032251562083964"><ele>685.0</ele><time>2026-05-02T12:15:48Z</time></trkpt><trkpt lat="44.18330685312426" lon="11.03227763327175"><ele>685.0</ele><time>2026-05-02T12:15:49Z</time></trkpt><trkpt lat="44.183227338394246" lon="11.032334454379555"><ele>685.0</ele><time>2026-05-02T12:15:50Z</time></trkpt><trkpt lat="44.18317230013498" lon="11.03246989252093"><ele>679.6</ele><time>2026-05-02T12:15:51Z</time></trkpt><trkpt lat="44.18309635299216" lon="11.03255466139883"><ele>674.2</ele><time>2026-05-02T12:15:52Z</time></trkpt><trkpt lat="44.18301541163654" lon="11.032622451984636"><ele>668.8</ele><time>2026-05-02T12:15:53Z</time></trkpt><trkpt lat="44.182923308830965" lon="11.032686799181477"><ele>663.4</ele><time>2026-05-02T12:15:54Z</time></trkpt><trkpt lat="44.18282058924987" lon="11.032696144167927"><ele>658.0</ele><time>2026-05-02T12:15:55Z</time></trkpt><trkpt lat="44.18272098505322" lon="11.032712323342059"><ele>658.0</ele><time>2026-05-02T12:15:56Z</time></trkpt><trkpt lat="44.18263405564734" lon="11.03268262221515"><ele>658.0</ele><time>2026-05-02T12:15:57Z</time></trkpt><trkpt lat="44.1825559841294" lon="11.032641067300373"><ele>658.0</ele><time>2026-05-02T12:15:58Z</time></trkpt><trkpt lat="44.1825070796039" lon="11.032546453220107"><ele>658.0</ele><time>2026-05-02T12:15:59Z</time></trkpt><trkpt lat="44.182456023259796" lon="11.032477755798677"><ele>658.0</ele><time>2026-05-02T12:16:00Z</time></trkpt><trkpt lat="44.18241812366198" lon="11.032385357116608"><ele>658.0</ele><time>2026-05-02T12:16:02Z</time></trkpt><trkpt lat="44.182413399591134" lon="11.03255383630062"><ele>658.0</ele><time>2026-05-02T12:16:06Z</time></trkpt><trkpt lat="44.1824612683757" lon="11.03266534978887"><ele>658.0</ele><time>2026-05-02T12:16:07Z</time></trkpt><trkpt lat="44.182529980817" lon="11.032789406904564"><ele>658.0</ele><time>2026-05-02T12:16:08Z</time></trkpt><trkpt lat="44.18258558245685" lon="11.032865328761382"><ele>658.0</ele><time>2026-05-02T12:16:09Z</time></trkpt><trkpt lat="44.18266277533023" lon="11.032944775420141"><ele>658.0</ele><time>2026-05-02T12:16:10Z</time></trkpt><trkpt lat="44.18277558551425" lon="11.0329714481738"><ele>658.0</ele><time>2026-05-02T12:16:11Z</time></trkpt><trkpt lat="44.18288678043441" lon="11.033051528835463"><ele>658.0</ele><time>2026-05-02T12:16:12Z</time></trkpt><trkpt lat="44.18298795655648" lon="11.033169214310089"><ele>658.0</ele><time>2026-05-02T12:16:13Z</time></trkpt><trkpt lat="44.18308484727584" lon="11.033294260921421"><ele>658.0</ele><time>2026-05-02T12:16:14Z</time></trkpt><trkpt lat="44.18317646207749" lon="11.033426281589382"><ele>658.75</ele><time>2026-05-02T12:16:15Z</time></trkpt><trkpt lat="44.18327732457393" lon="11.03353165563058"><ele>659.5</ele><time>2026-05-02T12:16:16Z</time></trkpt><trkpt lat="44.18334793291493" lon="11.033677500294385"><ele>660.25</ele><time>2026-05-02T12:16:17Z</time></trkpt><trkpt lat="44.183417091861195" lon="11.03381608195544"><ele>661.0</ele><time>2026-05-02T12:16:18Z</time></trkpt><trkpt lat="44.18348690785888" lon="11.03395737743009"><ele>661.0</ele><time>2026-05-02T12:16:19Z</time></trkpt><trkpt lat="44.18355588938226" lon="11.034069669918635"><ele>661.0</ele><time>2026-05-02T12:16:20Z</time></trkpt><trkpt lat="44.18360887814358" lon="11.034170945474145"><ele>661.0</ele><time>2026-05-02T12:16:21Z</time></trkpt><trkpt lat="44.18366685882209" lon="11.034250873759659"><ele>661.0</ele><time>2026-05-02T12:16:22Z</time></trkpt><trkpt lat="44.18371510592597" lon="11.034337117877985"><ele>661.0</ele><time>2026-05-02T12:16:23Z</time></trkpt><trkpt lat="44.18377160065433" lon="11.034406505998824"><ele>661.0</ele><time>2026-05-02T12:16:24Z</time></trkpt><trkpt lat="44.18384229511569" lon="11.034505433982666"><ele>660.4</ele><time>2026-05-02T12:16:26Z</time></trkpt><trkpt lat="44.1839368209586" lon="11.034576027451772"><ele>659.8</ele><time>2026-05-02T12:16:30Z</time></trkpt><trkpt lat="44.18404365458306" lon="11.034422423786598"><ele>659.1999999999999</ele><time>2026-05-02T12:16:31Z</time></trkpt><trkpt lat="44.18410332181398" lon="11.034392059292543"><ele>658.5999999999999</ele><time>2026-05-02T12:16:33Z</time></trkpt><trkpt lat="44.184143553734074" lon="11.034475174917436"><ele>658.0</ele><time>2026-05-02T12:16:36Z</time></trkpt><trkpt lat="44.18412981006975" lon="11.0345668966919"><ele>658.0</ele><time>2026-05-02T12:16:39Z</time></trkpt><trkpt lat="44.1841655805236" lon="11.034460866930708"><ele>658.0</ele><time>2026-05-02T12:18:42Z</time></trkpt><trkpt lat="44.184089400033656" lon="11.034420723684292"><ele>658.0</ele><time>2026-05-02T12:18:45Z</time></trkpt><trkpt lat="44.18401693332051" lon="11.034464129501172"><ele>658.0</ele><time>2026-05-02T12:18:47Z</time></trkpt><trkpt lat="44.18392007457541" lon="11.034526752070985"><ele>658.0</ele><time>2026-05-02T12:18:49Z</time></trkpt><trkpt lat="44.18383577399969" lon="11.034485541629968"><ele>658.0</ele><time>2026-05-02T12:18:52Z</time></trkpt><trkpt lat="44.18376429325126" lon="11.034369680305925"><ele>658.5999999999999</ele><time>2026-05-02T12:18:54Z</time></trkpt><trkpt lat="44.183674345867914" lon="11.034219134345207"><ele>659.1999999999999</ele><time>2026-05-02T12:18:56Z</time></trkpt><trkpt lat="44.18361917655596" lon="11.034133396584005"><ele>659.8</ele><time>2026-05-02T12:18:57Z</time></trkpt><trkpt lat="44.183565517525224" lon="11.034035200028876"><ele>660.4</ele><time>2026-05-02T12:18:58Z</time></trkpt><trkpt lat="44.18351068551437" lon="11.033923759646703"><ele>661.0</ele><time>2026-05-02T12:18:59Z</time></trkpt><trkpt lat="44.18344917454161" lon="11.03379927208933"><ele>661.0</ele><time>2026-05-02T12:19:00Z</time></trkpt><trkpt lat="44.18338359122257" lon="11.033667108303542"><ele>661.0</ele><time>2026-05-02T12:19:01Z</time></trkpt><trkpt lat="44.1832970922036" lon="11.033555652305639"><ele>661.0</ele><time>2026-05-02T12:19:02Z</time></trkpt><trkpt lat="44.18322219409013" lon="11.033445937402035"><ele>661.0</ele><time>2026-05-02T12:19:03Z</time></trkpt><trkpt lat="44.18315407270766" lon="11.033326097496767"><ele>660.4</ele><time>2026-05-02T12:19:04Z</time></trkpt><trkpt lat="44.18307695641653" lon="11.033220183473228"><ele>659.8</ele><time>2026-05-02T12:19:05Z</time></trkpt><trkpt lat="44.18299452115252" lon="11.033115890643746"><ele>659.1999999999999</ele><time>2026-05-02T12:19:06Z</time></trkpt><trkpt lat="44.18290449194914" lon="11.033016491457884"><ele>658.5999999999999</ele><time>2026-05-02T12:19:07Z</time></trkpt><trkpt lat="44.182805487886704" lon="11.032945374445003"><ele>658.0</ele><time>2026-05-02T12:19:08Z</time></trkpt><trkpt lat="44.18270944738574" lon="11.032893940786826"><ele>658.0</ele><time>2026-05-02T12:19:09Z</time></trkpt><trkpt lat="44.18261788355101" lon="11.032860760412024"><ele>658.0</ele><time>2026-05-02T12:19:10Z</time></trkpt><trkpt lat="44.18255869179761" lon="11.032814801221908"><ele>658.0</ele><time>2026-05-02T12:19:11Z</time></trkpt><trkpt lat="44.182521545545264" lon="11.032726919561336"><ele>658.0</ele><time>2026-05-02T12:19:12Z</time></trkpt><trkpt lat="44.18247837925525" lon="11.032632184335611"><ele>658.0</ele><time>2026-05-02T12:19:13Z</time></trkpt><trkpt lat="44.1824457249745" lon="11.032542888555135"><ele>658.0</ele><time>2026-05-02T12:19:14Z</time></trkpt><trkpt lat="44.18240729465809" lon="11.032418771848256"><ele>658.0</ele><time>2026-05-02T12:19:16Z</time></trkpt><trkpt lat="44.18245921122494" lon="11.032528741577298"><ele>658.0</ele><time>2026-05-02T12:19:22Z</time></trkpt><trkpt lat="44.182526548705965" lon="11.032647627391318"><ele>658.0</ele><time>2026-05-02T12:19:24Z</time></trkpt><trkpt lat="44.18257983828445" lon="11.032696490616162"><ele>658.0</ele><time>2026-05-02T12:19:25Z</time></trkpt><trkpt lat="44.18264983226353" lon="11.032725067215384"><ele>658.0</ele><time>2026-05-02T12:19:26Z</time></trkpt><trkpt lat="44.182729288849956" lon="11.032725305780904"><ele>658.0</ele><time>2026-05-02T12:19:27Z</time></trkpt><trkpt lat="44.18282073398342" lon="11.03273375791346"><ele>658.0</ele><time>2026-05-02T12:19:28Z</time></trkpt><trkpt lat="44.18291590701604" lon="11.032711053841009"><ele>658.0</ele><time>2026-05-02T12:19:29Z</time></trkpt><trkpt lat="44.18300940597905" lon="11.032675411327528"><ele>658.0</ele><time>2026-05-02T12:19:30Z</time></trkpt><trkpt lat="44.183102289187325" lon="11.032610266282425"><ele>658.0</ele><time>2026-05-02T12:19:31Z</time></trkpt><trkpt lat="44.183181727073965" lon="11.032521350604668"><ele>658.0</ele><time>2026-05-02T12:19:32Z</time></trkpt><trkpt lat="44.18323927472398" lon="11.03240959858542"><ele>662.5</ele><time>2026-05-02T12:19:33Z</time></trkpt><trkpt lat="44.1832931201225" lon="11.03231724516892"><ele>667.0</ele><time>2026-05-02T12:19:34Z</time></trkpt><trkpt lat="44.18337862175566" lon="11.032288326658616"><ele>671.5</ele><time>2026-05-02T12:19:35Z</time></trkpt><trkpt lat="44.183461215110064" lon="11.032269956634602"><ele>676.0</ele><time>2026-05-02T12:19:36Z</time></trkpt><trkpt lat="44.183555978697164" lon="11.032273921730658"><ele>680.5</ele><time>2026-05-02T12:19:37Z</time></trkpt><trkpt lat="44.183646445465165" lon="11.03231077160465"><ele>685.0</ele><time>2026-05-02T12:19:38Z</time></trkpt><trkpt lat="44.18373688059951" lon="11.03237435270309"><ele>685.0</ele><time>2026-05-02T12:19:39Z</time></trkpt><trkpt lat="44.1838253402952" lon="11.032456439106014"><ele>685.0</ele><time>2026-05-02T12:19:40Z</time></trkpt><trkpt lat="44.183921492704506" lon="11.032522073906609"><ele>685.0</ele><time>2026-05-02T12:19:41Z</time></trkpt><trkpt lat="44.18401984240924" lon="11.032565950365019"><ele>685.0</ele><time>2026-05-02T12:19:42Z</time></trkpt><trkpt lat="44.18410730347174" lon="11.032621364554902"><ele>685.0</ele><time>2026-05-02T12:19:43Z</time></trkpt><trkpt lat="44.18417198368111" lon="11.032614234427562"><ele>685.0</ele><time>2026-05-02T12:19:44Z</time></trkpt><trkpt lat="44.18423618592526" lon="11.03249441820947"><ele>685.0</ele><time>2026-05-02T12:19:46Z</time></trkpt><trkpt lat="44.18432432499598" lon="11.032420175200288"><ele>685.0</ele><time>2026-05-02T12:19:48Z</time></trkpt><trkpt lat="44.1844224974254" lon="11.032355504630504"><ele>685.0</ele><time>2026-05-02T12:19:50Z</time></trkpt><trkpt lat="44.18450086390299" lon="11.032320911548323"><ele>685.0</ele><time>2026-05-02T12:19:52Z</time></trkpt><trkpt lat="44.18460786441554" lon="11.03230309018837"><ele>687.2</ele><time>2026-05-02T12:19:54Z</time></trkpt><trkpt lat="44.18470464517064" lon="11.032293726567396"><ele>689.4</ele><time>2026-05-02T12:19:56Z</time></trkpt><trkpt lat="44.1847759124806" lon="11.032287427489111"><ele>691.5999999999999</ele><time>2026-05-02T12:19:57Z</time></trkpt><trkpt lat="44.184862971076" lon="11.03223454560053"><ele>693.8</ele><time>2026-05-02T12:19:58Z</time></trkpt><trkpt lat="44.184969012596284" lon="11.032205361634253"><ele>696.0</ele><time>2026-05-02T12:19:59Z</time></trkpt><trkpt lat="44.18508566714247" lon="11.032120712331269"><ele>696.0</ele><time>2026-05-02T12:20:00Z</time></trkpt><trkpt lat="44.185190661929774" lon="11.032055197816852"><ele>696.0</ele><time>2026-05-02T12:20:01Z</time></trkpt><trkpt lat="44.185296478823844" lon="11.031998314703085"><ele>696.0</ele><time>2026-05-02T12:20:02Z</time></trkpt><trkpt lat="44.185384407336" lon="11.031929246230334"><ele>696.0</ele><time>2026-05-02T12:20:03Z</time></trkpt><trkpt lat="44.18547948086996" lon="11.031880156268075"><ele>696.0</ele><time>2026-05-02T12:20:04Z</time></trkpt><trkpt lat="44.18555802598" lon="11.031837987242703"><ele>696.0</ele><time>2026-05-02T12:20:05Z</time></trkpt><trkpt lat="44.18561977242355" lon="11.031801198483159"><ele>696.0</ele><time>2026-05-02T12:20:06Z</time></trkpt><trkpt lat="44.18571369505765" lon="11.03174878844952"><ele>696.0</ele><time>2026-05-02T12:20:08Z</time></trkpt><trkpt lat="44.18563473479849" lon="11.031806394554263"><ele>696.0</ele><time>2026-05-02T12:20:15Z</time></trkpt><trkpt lat="44.185474853051076" lon="11.031659559679643"><ele>696.0</ele><time>2026-05-02T12:20:17Z</time></trkpt><trkpt lat="44.18534776151063" lon="11.03165743391735"><ele>696.0</ele><time>2026-05-02T12:20:18Z</time></trkpt><trkpt lat="44.18524516824513" lon="11.031650064764573"><ele>696.0</ele><time>2026-05-02T12:20:19Z</time></trkpt><trkpt lat="44.18511737954342" lon="11.031608515394623"><ele>696.0</ele><time>2026-05-02T12:20:21Z</time></trkpt><trkpt lat="44.18501910769822" lon="11.031606013066947"><ele>696.0</ele><time>2026-05-02T12:20:22Z</time></trkpt><trkpt lat="44.184931963696336" lon="11.03159666828556"><ele>696.0</ele><time>2026-05-02T12:20:23Z</time></trkpt><trkpt lat="44.184845376252085" lon="11.031587383192624"><ele>700.0</ele><time>2026-05-02T12:20:24Z</time></trkpt><trkpt lat="44.18473571985904" lon="11.031614376805582"><ele>704.0</ele><time>2026-05-02T12:20:25Z</time></trkpt><trkpt lat="44.18464953671104" lon="11.031582117925014"><ele>708.0</ele><time>2026-05-02T12:20:26Z</time></trkpt><trkpt lat="44.18445387929084" lon="11.031385953446907"><ele>712.0</ele><time>2026-05-02T12:20:30Z</time></trkpt><trkpt lat="44.18450087119409" lon="11.031288760226218"><ele>712.0</ele><time>2026-05-02T12:20:31Z</time></trkpt><trkpt lat="44.184543924897866" lon="11.031193844661455"><ele>712.0</ele><time>2026-05-02T12:20:32Z</time></trkpt><trkpt lat="44.184585985939634" lon="11.031091150256016"><ele>712.0</ele><time>2026-05-02T12:20:33Z</time></trkpt><trkpt lat="44.1845723677698" lon="11.030997250869687"><ele>712.0</ele><time>2026-05-02T12:20:35Z</time></trkpt><trkpt lat="44.18490907975363" lon="11.031010104612156"><ele>710.8333333333334</ele><time>2026-05-02T12:20:37Z</time></trkpt><trkpt lat="44.185000395238895" lon="11.030994172069976"><ele>709.6666666666667</ele><time>2026-05-02T12:20:39Z</time></trkpt><trkpt lat="44.1850554357746" lon="11.030920288733153"><ele>708.5</ele><time>2026-05-02T12:20:41Z</time></trkpt><trkpt lat="44.184997142211174" lon="11.03079795313973"><ele>707.3333333333334</ele><time>2026-05-02T12:20:43Z</time></trkpt><trkpt lat="44.18493566944868" lon="11.030713287887592"><ele>706.1666666666666</ele><time>2026-05-02T12:20:44Z</time></trkpt><trkpt lat="44.18488766816728" lon="11.030635335260623"><ele>705.0</ele><time>2026-05-02T12:20:45Z</time></trkpt><trkpt lat="44.1848848723509" lon="11.030517513449038"><ele>704.9999999999999</ele><time>2026-05-02T12:20:47Z</time></trkpt><trkpt lat="44.18488499740697" lon="11.03041467966773"><ele>705.0</ele><time>2026-05-02T12:20:49Z</time></trkpt><trkpt lat="44.18487734907612" lon="11.030326892468565"><ele>705.0</ele><time>2026-05-02T12:20:50Z</time></trkpt><trkpt lat="44.18487109511048" lon="11.030211726938896"><ele>705.0</ele><time>2026-05-02T12:20:52Z</time></trkpt><trkpt lat="44.184850831899574" lon="11.03010314152917"><ele>705.0</ele><time>2026-05-02T12:20:54Z</time></trkpt><trkpt lat="44.18483114650846" lon="11.030006184436257"><ele>704.9999999999999</ele><time>2026-05-02T12:20:55Z</time></trkpt><trkpt lat="44.18483698176864" lon="11.029902429185372"><ele>705.0</ele><time>2026-05-02T12:20:57Z</time></trkpt><trkpt lat="44.18487323980773" lon="11.029807784205866"><ele>707.8</ele><time>2026-05-02T12:20:58Z</time></trkpt><trkpt lat="44.18490699207388" lon="11.029710209400342"><ele>710.6</ele><time>2026-05-02T12:20:59Z</time></trkpt><trkpt lat="44.184939914478875" lon="11.029545404042118"><ele>713.4000000000001</ele><time>2026-05-02T12:21:01Z</time></trkpt><trkpt lat="44.184954319514794" lon="11.02945199992628"><ele>716.2</ele><time>2026-05-02T12:21:02Z</time></trkpt><trkpt lat="44.184973131866215" lon="11.029325922793332"><ele>719.0</ele><time>2026-05-02T12:21:04Z</time></trkpt><trkpt lat="44.18501651734583" lon="11.02918631378754"><ele>719.8333333333333</ele><time>2026-05-02T12:21:06Z</time></trkpt><trkpt lat="44.185024568105284" lon="11.029081603305151"><ele>720.6666666666666</ele><time>2026-05-02T12:21:08Z</time></trkpt><trkpt lat="44.18504656864188" lon="11.028950492974737"><ele>721.5</ele><time>2026-05-02T12:21:10Z</time></trkpt><trkpt lat="44.185061948058824" lon="11.028838194421656"><ele>722.3333333333334</ele><time>2026-05-02T12:21:11Z</time></trkpt><trkpt lat="44.1850971461925" lon="11.02872825632605"><ele>723.1666666666667</ele><time>2026-05-02T12:21:12Z</time></trkpt><trkpt lat="44.18512970810118" lon="11.028626295698958"><ele>724.0</ele><time>2026-05-02T12:21:14Z</time></trkpt><trkpt lat="44.18516217729449" lon="11.028451777069524"><ele>724.0</ele><time>2026-05-02T12:21:16Z</time></trkpt><trkpt lat="44.18517671283755" lon="11.02836067012332"><ele>724.0</ele><time>2026-05-02T12:21:17Z</time></trkpt><trkpt lat="44.185178053166794" lon="11.028258968186645"><ele>724.0</ele><time>2026-05-02T12:21:18Z</time></trkpt><trkpt lat="44.18517486084575" lon="11.028114656579143"><ele>724.0</ele><time>2026-05-02T12:21:20Z</time></trkpt><trkpt lat="44.1851670931605" lon="11.027967187620682"><ele>724.0</ele><time>2026-05-02T12:21:22Z</time></trkpt><trkpt lat="44.18519602731678" lon="11.02781617358365"><ele>723.4000000000001</ele><time>2026-05-02T12:21:24Z</time></trkpt><trkpt lat="44.18519046098174" lon="11.027708848102192"><ele>722.8</ele><time>2026-05-02T12:21:25Z</time></trkpt><trkpt lat="44.18517137652349" lon="11.02758658381801"><ele>722.2</ele><time>2026-05-02T12:21:27Z</time></trkpt><trkpt lat="44.18523209450717" lon="11.0274861312821"><ele>721.5999999999999</ele><time>2026-05-02T12:21:29Z</time></trkpt><trkpt lat="44.18526216453456" lon="11.027381394995176"><ele>721.0</ele><time>2026-05-02T12:21:31Z</time></trkpt><trkpt lat="44.18527491287556" lon="11.027220817716842"><ele>720.0</ele><time>2026-05-02T12:21:33Z</time></trkpt><trkpt lat="44.18526501911998" lon="11.027125195543181"><ele>719.0</ele><time>2026-05-02T12:21:34Z</time></trkpt><trkpt lat="44.18521643356289" lon="11.026837128104496"><ele>718.0</ele><time>2026-05-02T12:21:36Z</time></trkpt><trkpt lat="44.18525768702914" lon="11.026738641465311"><ele>717.0</ele><time>2026-05-02T12:21:37Z</time></trkpt><trkpt lat="44.18532652843642" lon="11.026620105548005"><ele>714.6</ele><time>2026-05-02T12:21:39Z</time></trkpt><trkpt lat="44.18535015745739" lon="11.026531955455367"><ele>712.2</ele><time>2026-05-02T12:21:40Z</time></trkpt><trkpt lat="44.18536177911046" lon="11.02644242295278"><ele>709.8</ele><time>2026-05-02T12:21:41Z</time></trkpt><trkpt lat="44.18533721925815" lon="11.026280652182006"><ele>707.4</ele><time>2026-05-02T12:21:43Z</time></trkpt><trkpt lat="44.185267100512036" lon="11.026187182665868"><ele>705.0</ele><time>2026-05-02T12:21:45Z</time></trkpt><trkpt lat="44.18517091319487" lon="11.026107440632032"><ele>705.0</ele><time>2026-05-02T12:21:47Z</time></trkpt><trkpt lat="44.18509359890489" lon="11.026024904088896"><ele>705.0</ele><time>2026-05-02T12:21:49Z</time></trkpt><trkpt lat="44.185035513608376" lon="11.025967449629459"><ele>705.0</ele><time>2026-05-02T12:21:51Z</time></trkpt><trkpt lat="44.18495826436916" lon="11.02589423904889"><ele>705.0</ele><time>2026-05-02T12:21:53Z</time></trkpt><trkpt lat="44.18486334036744" lon="11.025820795604444"><ele>705.0</ele><time>2026-05-02T12:21:55Z</time></trkpt><trkpt lat="44.1847885985361" lon="11.025705123015893"><ele>705.1666666666666</ele><time>2026-05-02T12:21:57Z</time></trkpt><trkpt lat="44.18472690709877" lon="11.025650189788939"><ele>705.3333333333334</ele><time>2026-05-02T12:21:58Z</time></trkpt><trkpt lat="44.1846437499017" lon="11.025547944859635"><ele>705.5</ele><time>2026-05-02T12:22:00Z</time></trkpt><trkpt lat="44.184573986272596" lon="11.025442934276937"><ele>705.6666666666667</ele><time>2026-05-02T12:22:02Z</time></trkpt><trkpt lat="44.184529479518275" lon="11.025372301106879"><ele>705.8333333333334</ele><time>2026-05-02T12:22:03Z</time></trkpt><trkpt lat="44.18447213472054" lon="11.025293760480455"><ele>706.0</ele><time>2026-05-02T12:22:04Z</time></trkpt><trkpt lat="44.184422680769146" lon="11.025208582308958"><ele>706.0</ele><time>2026-05-02T12:22:05Z</time></trkpt><trkpt lat="44.184364855795195" lon="11.025101354481553"><ele>706.0</ele><time>2026-05-02T12:22:06Z</time></trkpt><trkpt lat="44.18430125012863" lon="11.024980636740535"><ele>706.0</ele><time>2026-05-02T12:22:08Z</time></trkpt><trkpt lat="44.18421364137544" lon="11.024808907390147"><ele>706.0</ele><time>2026-05-02T12:22:10Z</time></trkpt><trkpt lat="44.184164073823254" lon="11.024719973411953"><ele>706.0</ele><time>2026-05-02T12:22:11Z</time></trkpt><trkpt lat="44.18411848157793" lon="11.024648002374848"><ele>705.0</ele><time>2026-05-02T12:22:12Z</time></trkpt><trkpt lat="44.18406575030903" lon="11.024580016749015"><ele>704.0</ele><time>2026-05-02T12:22:13Z</time></trkpt><trkpt lat="44.1840108638901" lon="11.024479382017054"><ele>703.0</ele><time>2026-05-02T12:22:15Z</time></trkpt><trkpt lat="44.18399711250276" lon="11.024379313450847"><ele>702.0</ele><time>2026-05-02T12:22:16Z</time></trkpt><trkpt lat="44.18396815879958" lon="11.02424982939746"><ele>701.0</ele><time>2026-05-02T12:22:17Z</time></trkpt><trkpt lat="44.18390311659923" lon="11.024189916627192"><ele>700.0</ele><time>2026-05-02T12:22:19Z</time></trkpt><trkpt lat="44.183820188909216" lon="11.024127547185811"><ele>703.6</ele><time>2026-05-02T12:22:21Z</time></trkpt><trkpt lat="44.18374170975793" lon="11.024037888004555"><ele>707.2</ele><time>2026-05-02T12:22:23Z</time></trkpt><trkpt lat="44.18366136436888" lon="11.023931118788107"><ele>710.8</ele><time>2026-05-02T12:22:25Z</time></trkpt><trkpt lat="44.18359639221594" lon="11.023839736404703"><ele>714.4</ele><time>2026-05-02T12:22:27Z</time></trkpt><trkpt lat="44.18355330667345" lon="11.023742527172981"><ele>718.0</ele><time>2026-05-02T12:22:29Z</time></trkpt><trkpt lat="44.18354074196467" lon="11.023648310075295"><ele>718.0</ele><time>2026-05-02T12:22:30Z</time></trkpt><trkpt lat="44.18354940286803" lon="11.023547672706792"><ele>718.0</ele><time>2026-05-02T12:22:31Z</time></trkpt><trkpt lat="44.18359105960674" lon="11.02344471256901"><ele>718.0</ele><time>2026-05-02T12:22:32Z</time></trkpt><trkpt lat="44.18363922965338" lon="11.023359414696518"><ele>718.0</ele><time>2026-05-02T12:22:33Z</time></trkpt><trkpt lat="44.18370411554007" lon="11.023261461613542"><ele>718.0</ele><time>2026-05-02T12:22:35Z</time></trkpt><trkpt lat="44.18370836885318" lon="11.02314211068197"><ele>718.0</ele><time>2026-05-02T12:22:37Z</time></trkpt><trkpt lat="44.1836552540483" lon="11.023044785084108"><ele>716.6666666666667</ele><time>2026-05-02T12:22:38Z</time></trkpt><trkpt lat="44.183608192214365" lon="11.02290864970915"><ele>715.3333333333334</ele><time>2026-05-02T12:22:39Z</time></trkpt><trkpt lat="44.18358354028417" lon="11.022788165229635"><ele>714.0</ele><time>2026-05-02T12:22:40Z</time></trkpt><trkpt lat="44.183588641298996" lon="11.022693006360747"><ele>712.6666666666666</ele><time>2026-05-02T12:22:41Z</time></trkpt><trkpt lat="44.18358936017277" lon="11.02260273793243"><ele>711.3333333333333</ele><time>2026-05-02T12:22:42Z</time></trkpt><trkpt lat="44.18358053496988" lon="11.022447659947822"><ele>710.0</ele><time>2026-05-02T12:22:44Z</time></trkpt><trkpt lat="44.18357583357901" lon="11.022347796765974"><ele>707.8</ele><time>2026-05-02T12:22:45Z</time></trkpt><trkpt lat="44.183573552741144" lon="11.022238850025294"><ele>705.6</ele><time>2026-05-02T12:22:46Z</time></trkpt><trkpt lat="44.183549744761066" lon="11.022140089927548"><ele>703.4000000000001</ele><time>2026-05-02T12:22:47Z</time></trkpt><trkpt lat="44.18346315175314" lon="11.022055571279061"><ele>701.2</ele><time>2026-05-02T12:22:49Z</time></trkpt><trkpt lat="44.183376347372224" lon="11.021945742761524"><ele>699.0</ele><time>2026-05-02T12:22:51Z</time></trkpt><trkpt lat="44.18327519037679" lon="11.021891318197799"><ele>699.0</ele><time>2026-05-02T12:22:53Z</time></trkpt><trkpt lat="44.183198157463806" lon="11.0219024062379"><ele>699.0</ele><time>2026-05-02T12:22:54Z</time></trkpt><trkpt lat="44.183133274009116" lon="11.02189581861164"><ele>699.0</ele><time>2026-05-02T12:22:55Z</time></trkpt><trkpt lat="44.18306050227598" lon="11.021842572730696"><ele>699.0</ele><time>2026-05-02T12:22:57Z</time></trkpt><trkpt lat="44.18299731063639" lon="11.021792956048909"><ele>699.0</ele><time>2026-05-02T12:22:59Z</time></trkpt><trkpt lat="44.18293165696224" lon="11.021750433277326"><ele>699.0</ele><time>2026-05-02T12:23:00Z</time></trkpt><trkpt lat="44.18287269467553" lon="11.021698884742234"><ele>699.0</ele><time>2026-05-02T12:23:01Z</time></trkpt><trkpt lat="44.182790032097316" lon="11.02164045168461"><ele>697.3333333333334</ele><time>2026-05-02T12:23:03Z</time></trkpt><trkpt lat="44.18273377002671" lon="11.021597393775885"><ele>695.6666666666666</ele><time>2026-05-02T12:23:04Z</time></trkpt><trkpt lat="44.18267068849782" lon="11.021550856774729"><ele>694.0</ele><time>2026-05-02T12:23:05Z</time></trkpt><trkpt lat="44.18259901892882" lon="11.021492470155772"><ele>692.3333333333333</ele><time>2026-05-02T12:23:07Z</time></trkpt><trkpt lat="44.18254711730207" lon="11.021433312867046"><ele>690.6666666666666</ele><time>2026-05-02T12:23:09Z</time></trkpt><trkpt lat="44.18247248114048" lon="11.021380326268439"><ele>689.0</ele><time>2026-05-02T12:23:14Z</time></trkpt><trkpt lat="44.18238316126784" lon="11.021310453530122"><ele>689.75</ele><time>2026-05-02T12:23:16Z</time></trkpt><trkpt lat="44.18229287444779" lon="11.02121771900694"><ele>690.5</ele><time>2026-05-02T12:23:18Z</time></trkpt><trkpt lat="44.182205105628775" lon="11.021102404588495"><ele>691.25</ele><time>2026-05-02T12:23:20Z</time></trkpt><trkpt lat="44.18212600089178" lon="11.021009670148725"><ele>692.0</ele><time>2026-05-02T12:23:22Z</time></trkpt><trkpt lat="44.18202745162559" lon="11.02092582905308"><ele>692.0</ele><time>2026-05-02T12:23:24Z</time></trkpt><trkpt lat="44.181968170948934" lon="11.0208904987265"><ele>692.0</ele><time>2026-05-02T12:23:25Z</time></trkpt><trkpt lat="44.18188846144118" lon="11.020896299116862"><ele>692.0</ele><time>2026-05-02T12:23:26Z</time></trkpt><trkpt lat="44.181798322483985" lon="11.020916319727895"><ele>692.0</ele><time>2026-05-02T12:23:27Z</time></trkpt><trkpt lat="44.181688465021146" lon="11.020914695691655"><ele>692.0</ele><time>2026-05-02T12:23:29Z</time></trkpt><trkpt lat="44.18159234392182" lon="11.020938509938693"><ele>692.0</ele><time>2026-05-02T12:23:31Z</time></trkpt><trkpt lat="44.181535560107875" lon="11.020984588137773"><ele>692.4000000000001</ele><time>2026-05-02T12:23:32Z</time></trkpt><trkpt lat="44.181449964237245" lon="11.021056665198698"><ele>692.8000000000001</ele><time>2026-05-02T12:23:33Z</time></trkpt><trkpt lat="44.181329883323194" lon="11.021143910066751"><ele>693.2</ele><time>2026-05-02T12:23:34Z</time></trkpt><trkpt lat="44.18123254346477" lon="11.021202649067678"><ele>693.6</ele><time>2026-05-02T12:23:35Z</time></trkpt><trkpt lat="44.18115409756342" lon="11.021194063123941"><ele>694.0</ele><time>2026-05-02T12:23:36Z</time></trkpt><trkpt lat="44.181075300002874" lon="11.021161422607703"><ele>694.0</ele><time>2026-05-02T12:23:37Z</time></trkpt><trkpt lat="44.180968463633356" lon="11.021154071617191"><ele>694.0</ele><time>2026-05-02T12:23:38Z</time></trkpt><trkpt lat="44.18085853256633" lon="11.021177596136003"><ele>694.0</ele><time>2026-05-02T12:23:39Z</time></trkpt><trkpt lat="44.18078022154959" lon="11.021272648618663"><ele>694.0</ele><time>2026-05-02T12:23:40Z</time></trkpt><trkpt lat="44.18069564160862" lon="11.02138378533898"><ele>694.0</ele><time>2026-05-02T12:23:41Z</time></trkpt><trkpt lat="44.18060001612929" lon="11.021458185837142"><ele>694.0</ele><time>2026-05-02T12:23:42Z</time></trkpt><trkpt lat="44.180508981537" lon="11.02150587212596"><ele>694.0</ele><time>2026-05-02T12:23:43Z</time></trkpt><trkpt lat="44.18045021478098" lon="11.021567557545241"><ele>694.0</ele><time>2026-05-02T12:23:44Z</time></trkpt><trkpt lat="44.18041899496894" lon="11.021660596358338"><ele>694.0</ele><time>2026-05-02T12:23:45Z</time></trkpt><trkpt lat="44.18039517576996" lon="11.021782724564838"><ele>694.0</ele><time>2026-05-02T12:23:46Z</time></trkpt><trkpt lat="44.180363475694215" lon="11.021913152982947"><ele>694.0</ele><time>2026-05-02T12:23:47Z</time></trkpt><trkpt lat="44.180333492019614" lon="11.022056572216504"><ele>696.75</ele><time>2026-05-02T12:23:48Z</time></trkpt><trkpt lat="44.18031670010716" lon="11.022210625029398"><ele>699.5</ele><time>2026-05-02T12:23:49Z</time></trkpt><trkpt lat="44.18032258824699" lon="11.022366103899616"><ele>702.25</ele><time>2026-05-02T12:23:50Z</time></trkpt><trkpt lat="44.18034059766596" lon="11.022545383130566"><ele>705.0</ele><time>2026-05-02T12:23:51Z</time></trkpt><trkpt lat="44.18037107467657" lon="11.022717007802482"><ele>707.2</ele><time>2026-05-02T12:23:52Z</time></trkpt><trkpt lat="44.18035421139476" lon="11.022840400630043"><ele>709.4</ele><time>2026-05-02T12:23:53Z</time></trkpt><trkpt lat="44.180311920828025" lon="11.022928089964319"><ele>711.5999999999999</ele><time>2026-05-02T12:23:55Z</time></trkpt><trkpt lat="44.180166765112425" lon="11.023028859969621"><ele>713.8</ele><time>2026-05-02T12:23:57Z</time></trkpt><trkpt lat="44.18005552940179" lon="11.023063033104101"><ele>716.0</ele><time>2026-05-02T12:23:58Z</time></trkpt><trkpt lat="44.179956894944155" lon="11.023066022972614"><ele>716.0</ele><time>2026-05-02T12:23:59Z</time></trkpt><trkpt lat="44.179895104518025" lon="11.02310036859343"><ele>716.0</ele><time>2026-05-02T12:24:00Z</time></trkpt><trkpt lat="44.179819111624965" lon="11.023142772205219"><ele>716.0</ele><time>2026-05-02T12:24:01Z</time></trkpt><trkpt lat="44.17974159434384" lon="11.023275912575503"><ele>716.0</ele><time>2026-05-02T12:24:02Z</time></trkpt><trkpt lat="44.179646998599424" lon="11.023333388099594"><ele>716.0</ele><time>2026-05-02T12:24:04Z</time></trkpt><trkpt lat="44.179584941349106" lon="11.02328968308078"><ele>716.0</ele><time>2026-05-02T12:24:05Z</time></trkpt><trkpt lat="44.17949843882462" lon="11.02324395313415"><ele>715.5999999999999</ele><time>2026-05-02T12:24:06Z</time></trkpt><trkpt lat="44.17942103394429" lon="11.023180826132888"><ele>715.2</ele><time>2026-05-02T12:24:07Z</time></trkpt><trkpt lat="44.1793166364954" lon="11.023170974525485"><ele>714.8</ele><time>2026-05-02T12:24:09Z</time></trkpt><trkpt lat="44.17922170964986" lon="11.02323462709285"><ele>714.4000000000001</ele><time>2026-05-02T12:24:10Z</time></trkpt><trkpt lat="44.17913420907216" lon="11.023377229094864"><ele>714.0</ele><time>2026-05-02T12:24:11Z</time></trkpt><trkpt lat="44.17902427497438" lon="11.023469330490355"><ele>715.75</ele><time>2026-05-02T12:24:12Z</time></trkpt><trkpt lat="44.178912700812994" lon="11.023566346985138"><ele>717.5</ele><time>2026-05-02T12:24:13Z</time></trkpt><trkpt lat="44.17879746596355" lon="11.023681794780245"><ele>719.25</ele><time>2026-05-02T12:24:14Z</time></trkpt><trkpt lat="44.178659833826266" lon="11.023757100370549"><ele>721.0</ele><time>2026-05-02T12:24:15Z</time></trkpt><trkpt lat="44.178548568923205" lon="11.023833844786619"><ele>721.0</ele><time>2026-05-02T12:24:16Z</time></trkpt><trkpt lat="44.17847107103211" lon="11.023903418448983"><ele>721.0</ele><time>2026-05-02T12:24:17Z</time></trkpt><trkpt lat="44.17840976469574" lon="11.023978247403774"><ele>721.0</ele><time>2026-05-02T12:24:18Z</time></trkpt><trkpt lat="44.1783596206703" lon="11.024086423497362"><ele>721.0</ele><time>2026-05-02T12:24:19Z</time></trkpt><trkpt lat="44.178314403856156" lon="11.024201899538038"><ele>721.0</ele><time>2026-05-02T12:24:20Z</time></trkpt><trkpt lat="44.17824513638331" lon="11.02433207382984"><ele>723.5999999999999</ele><time>2026-05-02T12:24:21Z</time></trkpt><trkpt lat="44.17820544743552" lon="11.02447633252075"><ele>726.2</ele><time>2026-05-02T12:24:22Z</time></trkpt><trkpt lat="44.178158162736544" lon="11.024598667990933"><ele>728.8</ele><time>2026-05-02T12:24:23Z</time></trkpt><trkpt lat="44.17811093994498" lon="11.024731486008372"><ele>731.4000000000001</ele><time>2026-05-02T12:24:24Z</time></trkpt><trkpt lat="44.17806213438658" lon="11.024856770102293"><ele>734.0</ele><time>2026-05-02T12:24:25Z</time></trkpt><trkpt lat="44.17801001691238" lon="11.024964686661857"><ele>735.0</ele><time>2026-05-02T12:24:26Z</time></trkpt><trkpt lat="44.17795147723062" lon="11.02503617845313"><ele>736.0</ele><time>2026-05-02T12:24:27Z</time></trkpt><trkpt lat="44.17787911562069" lon="11.025146094363567"><ele>737.0</ele><time>2026-05-02T12:24:29Z</time></trkpt><trkpt lat="44.177817175630125" lon="11.025195035699205"><ele>738.0</ele><time>2026-05-02T12:24:31Z</time></trkpt><trkpt lat="44.17773736498356" lon="11.025169706927866"><ele>739.0</ele><time>2026-05-02T12:24:33Z</time></trkpt><trkpt lat="44.1776704262431" lon="11.02512821200952"><ele>740.0</ele><time>2026-05-02T12:24:35Z</time></trkpt><trkpt lat="44.177753660447266" lon="11.025527769580846"><ele>740.0</ele><time>2026-05-02T12:24:37Z</time></trkpt><trkpt lat="44.177644633068226" lon="11.025684540574403"><ele>740.0</ele><time>2026-05-02T12:24:39Z</time></trkpt><trkpt lat="44.17715521571173" lon="11.025454537290889"><ele>742.6666666666666</ele><time>2026-05-02T12:24:41Z</time></trkpt><trkpt lat="44.177081032821235" lon="11.02548757987649"><ele>745.3333333333333</ele><time>2026-05-02T12:24:42Z</time></trkpt><trkpt lat="44.17699287701923" lon="11.025519894905093"><ele>748.0</ele><time>2026-05-02T12:24:43Z</time></trkpt><trkpt lat="44.17692516752364" lon="11.025552464216211"><ele>750.6666666666666</ele><time>2026-05-02T12:24:44Z</time></trkpt><trkpt lat="44.17681588249772" lon="11.025553762176186"><ele>753.3333333333334</ele><time>2026-05-02T12:24:46Z</time></trkpt><trkpt lat="44.176742610237035" lon="11.025567081994831"><ele>756.0</ele><time>2026-05-02T12:24:47Z</time></trkpt><trkpt lat="44.17666453193591" lon="11.025621662884213"><ele>756.0</ele><time>2026-05-02T12:24:48Z</time></trkpt><trkpt lat="44.17656943254225" lon="11.025648277362107"><ele>756.0</ele><time>2026-05-02T12:24:49Z</time></trkpt><trkpt lat="44.176503349127955" lon="11.025647739519442"><ele>756.0</ele><time>2026-05-02T12:24:50Z</time></trkpt><trkpt lat="44.17641536891747" lon="11.025671297129524"><ele>756.0</ele><time>2026-05-02T12:24:51Z</time></trkpt><trkpt lat="44.17632626698512" lon="11.02570214748017"><ele>756.0</ele><time>2026-05-02T12:24:52Z</time></trkpt><trkpt lat="44.176258059094586" lon="11.025741166374193"><ele>756.0</ele><time>2026-05-02T12:24:53Z</time></trkpt><trkpt lat="44.176194194584" lon="11.025773960657892"><ele>758.0</ele><time>2026-05-02T12:24:54Z</time></trkpt><trkpt lat="44.17609387857519" lon="11.025736441394276"><ele>760.0</ele><time>2026-05-02T12:24:56Z</time></trkpt><trkpt lat="44.176028643142644" lon="11.025771461770214"><ele>762.0</ele><time>2026-05-02T12:25:08Z</time></trkpt><trkpt lat="44.1759191307968" lon="11.025833015747889"><ele>764.0</ele><time>2026-05-02T12:25:10Z</time></trkpt><trkpt lat="44.17583349342942" lon="11.025874367864184"><ele>766.0</ele><time>2026-05-02T12:25:11Z</time></trkpt><trkpt lat="44.175731847602364" lon="11.025925462914913"><ele>767.0</ele><time>2026-05-02T12:25:12Z</time></trkpt><trkpt lat="44.17565350178764" lon="11.025965253024255"><ele>768.0</ele><time>2026-05-02T12:25:13Z</time></trkpt><trkpt lat="44.17557402522814" lon="11.02596645037822"><ele>769.0</ele><time>2026-05-02T12:25:14Z</time></trkpt><trkpt lat="44.17550581249011" lon="11.02596305623568"><ele>770.0</ele><time>2026-05-02T12:25:15Z</time></trkpt><trkpt lat="44.17537472090308" lon="11.02594940833729"><ele>770.9999999999999</ele><time>2026-05-02T12:25:17Z</time></trkpt><trkpt lat="44.17530899800678" lon="11.025914089178325"><ele>772.0</ele><time>2026-05-02T12:25:18Z</time></trkpt><trkpt lat="44.17520954947304" lon="11.025741197274746"><ele>772.0</ele><time>2026-05-02T12:25:20Z</time></trkpt><trkpt lat="44.17513690277774" lon="11.025808491291674"><ele>772.0</ele><time>2026-05-02T12:25:22Z</time></trkpt><trkpt lat="44.175115401015965" lon="11.02568829942067"><ele>772.0</ele><time>2026-05-02T12:25:24Z</time></trkpt><trkpt lat="44.17505412125526" lon="11.025585615005305"><ele>772.0</ele><time>2026-05-02T12:25:26Z</time></trkpt><trkpt lat="44.174948711083815" lon="11.025503677419207"><ele>772.0</ele><time>2026-05-02T12:25:28Z</time></trkpt><trkpt lat="44.17488712701927" lon="11.025311190768054"><ele>769.6666666666666</ele><time>2026-05-02T12:25:30Z</time></trkpt><trkpt lat="44.174825925888754" lon="11.02528288801945"><ele>767.3333333333333</ele><time>2026-05-02T12:25:31Z</time></trkpt><trkpt lat="44.17473275625364" lon="11.025263086482987"><ele>765.0</ele><time>2026-05-02T12:25:33Z</time></trkpt><trkpt lat="44.1746595214712" lon="11.025228842622278"><ele>762.6666666666666</ele><time>2026-05-02T12:25:35Z</time></trkpt><trkpt lat="44.17453750417347" lon="11.025229866068036"><ele>760.3333333333333</ele><time>2026-05-02T12:25:37Z</time></trkpt><trkpt lat="44.17446444762853" lon="11.02521989027631"><ele>758.0</ele><time>2026-05-02T12:25:38Z</time></trkpt><trkpt lat="44.174355813503226" lon="11.025206322200214"><ele>758.0</ele><time>2026-05-02T12:25:40Z</time></trkpt><trkpt lat="44.17425697344658" lon="11.025205407578385"><ele>758.0</ele><time>2026-05-02T12:25:41Z</time></trkpt><trkpt lat="44.17417557536205" lon="11.02517262532154"><ele>758.0</ele><time>2026-05-02T12:25:44Z</time></trkpt><trkpt lat="44.174276174618505" lon="11.024813143554852"><ele>758.0</ele><time>2026-05-02T12:25:49Z</time></trkpt><trkpt lat="44.174378380674284" lon="11.024822562044308"><ele>758.0</ele><time>2026-05-02T12:25:51Z</time></trkpt><trkpt lat="44.17447651600379" lon="11.024884761346714"><ele>758.0</ele><time>2026-05-02T12:25:53Z</time></trkpt><trkpt lat="44.174583463635024" lon="11.024951350306882"><ele>758.0</ele><time>2026-05-02T12:25:55Z</time></trkpt><trkpt lat="44.174664317507414" lon="11.02502922382018"><ele>758.0</ele><time>2026-05-02T12:25:57Z</time></trkpt><trkpt lat="44.17472321034926" lon="11.025178144215147"><ele>758.0</ele><time>2026-05-02T12:25:59Z</time></trkpt><trkpt lat="44.17478547238842" lon="11.025325345701136"><ele>758.0</ele><time>2026-05-02T12:26:01Z</time></trkpt><trkpt lat="44.17490960270162" lon="11.025419518437532"><ele>758.0</ele><time>2026-05-02T12:26:03Z</time></trkpt><trkpt lat="44.174982667415094" lon="11.025490644182927"><ele>758.0</ele><time>2026-05-02T12:26:04Z</time></trkpt><trkpt lat="44.17506814922937" lon="11.025516695020299"><ele>758.0</ele><time>2026-05-02T12:26:05Z</time></trkpt><trkpt lat="44.17511674824205" lon="11.025579290579424"><ele>758.0</ele><time>2026-05-02T12:26:06Z</time></trkpt><trkpt lat="44.175105090339734" lon="11.025705417693823"><ele>758.0</ele><time>2026-05-02T12:26:08Z</time></trkpt><trkpt lat="44.17495666846103" lon="11.025705502026424"><ele>758.0</ele><time>2026-05-02T12:26:11Z</time></trkpt><trkpt lat="44.17486997268324" lon="11.02570327841391"><ele>758.0</ele><time>2026-05-02T12:26:12Z</time></trkpt><trkpt lat="44.17477315608076" lon="11.025686389508929"><ele>758.0</ele><time>2026-05-02T12:26:13Z</time></trkpt><trkpt lat="44.17466921461508" lon="11.025642021018998"><ele>758.0</ele><time>2026-05-02T12:26:14Z</time></trkpt><trkpt lat="44.174570490072114" lon="11.02562758472215"><ele>758.0</ele><time>2026-05-02T12:26:15Z</time></trkpt><trkpt lat="44.17447483067305" lon="11.025636169598904"><ele>758.0</ele><time>2026-05-02T12:26:16Z</time></trkpt><trkpt lat="44.174380166328355" lon="11.025607812154892"><ele>758.0</ele><time>2026-05-02T12:26:17Z</time></trkpt><trkpt lat="44.17428589569272" lon="11.025605357735653"><ele>758.0</ele><time>2026-05-02T12:26:18Z</time></trkpt><trkpt lat="44.174191846557434" lon="11.025619715038944"><ele>758.0</ele><time>2026-05-02T12:26:19Z</time></trkpt><trkpt lat="44.17410275858711" lon="11.02567322465321"><ele>758.0</ele><time>2026-05-02T12:26:20Z</time></trkpt><trkpt lat="44.17401462112717" lon="11.025701060475319"><ele>758.0</ele><time>2026-05-02T12:26:21Z</time></trkpt><trkpt lat="44.17392239958455" lon="11.025690615571014"><ele>758.0</ele><time>2026-05-02T12:26:22Z</time></trkpt><trkpt lat="44.17384563172024" lon="11.025691810865608"><ele>758.0</ele><time>2026-05-02T12:26:23Z</time></trkpt><trkpt lat="44.17376087057993" lon="11.025693130612227"><ele>758.0</ele><time>2026-05-02T12:26:24Z</time></trkpt><trkpt lat="44.17367864724862" lon="11.025710987726697"><ele>756.1666666666666</ele><time>2026-05-02T12:26:25Z</time></trkpt><trkpt lat="44.17358691989355" lon="11.025702674364245"><ele>754.3333333333333</ele><time>2026-05-02T12:26:26Z</time></trkpt><trkpt lat="44.17350005672055" lon="11.025697648527476"><ele>752.5</ele><time>2026-05-02T12:26:27Z</time></trkpt><trkpt lat="44.17342381520673" lon="11.025687220764736"><ele>750.6666666666666</ele><time>2026-05-02T12:26:28Z</time></trkpt><trkpt lat="44.1733560349692" lon="11.025681224621135"><ele>748.8333333333334</ele><time>2026-05-02T12:26:29Z</time></trkpt><trkpt lat="44.17323897175332" lon="11.025668667377698"><ele>747.0</ele><time>2026-05-02T12:26:31Z</time></trkpt><trkpt lat="44.173184018799624" lon="11.025715669856465"><ele>743.0</ele><time>2026-05-02T12:26:32Z</time></trkpt><trkpt lat="44.17317378767871" lon="11.025817589229858"><ele>739.0</ele><time>2026-05-02T12:26:33Z</time></trkpt><trkpt lat="44.173151558112814" lon="11.025961334076822"><ele>735.0</ele><time>2026-05-02T12:26:35Z</time></trkpt><trkpt lat="44.17306616362205" lon="11.026054418960554"><ele>731.0</ele><time>2026-05-02T12:26:37Z</time></trkpt><trkpt lat="44.1729662892135" lon="11.026086937162312"><ele>727.0</ele><time>2026-05-02T12:26:39Z</time></trkpt><trkpt lat="44.172907370295306" lon="11.026123317250732"><ele>727.0</ele><time>2026-05-02T12:26:40Z</time></trkpt><trkpt lat="44.17284463868613" lon="11.02616248172873"><ele>727.0</ele><time>2026-05-02T12:26:41Z</time></trkpt><trkpt lat="44.17278300223044" lon="11.026207906927647"><ele>727.0</ele><time>2026-05-02T12:26:42Z</time></trkpt><trkpt lat="44.172697244188704" lon="11.026303039912486"><ele>727.0</ele><time>2026-05-02T12:26:44Z</time></trkpt><trkpt lat="44.17262612563581" lon="11.026320490308809"><ele>727.0</ele><time>2026-05-02T12:26:46Z</time></trkpt><trkpt lat="44.172580702731935" lon="11.026245327341037"><ele>727.0</ele><time>2026-05-02T12:26:47Z</time></trkpt><trkpt lat="44.17251343075503" lon="11.02618540240929"><ele>727.0</ele><time>2026-05-02T12:26:48Z</time></trkpt><trkpt lat="44.172440895233485" lon="11.026124167751856"><ele>727.0</ele><time>2026-05-02T12:26:49Z</time></trkpt><trkpt lat="44.17235898032581" lon="11.02607895420361"><ele>727.0</ele><time>2026-05-02T12:26:50Z</time></trkpt><trkpt lat="44.17230453135106" lon="11.026008730767582"><ele>727.0</ele><time>2026-05-02T12:26:51Z</time></trkpt><trkpt lat="44.172218916412376" lon="11.02592841394078"><ele>727.0</ele><time>2026-05-02T12:26:53Z</time></trkpt><trkpt lat="44.17217094590314" lon="11.025857699715106"><ele>727.0</ele><time>2026-05-02T12:26:55Z</time></trkpt><trkpt lat="44.172216681149195" lon="11.025993367928473"><ele>727.0</ele><time>2026-05-02T12:27:01Z</time></trkpt><trkpt lat="44.17229562317128" lon="11.026070198849272"><ele>727.0</ele><time>2026-05-02T12:27:02Z</time></trkpt><trkpt lat="44.17238255612225" lon="11.026142037570725"><ele>727.0</ele><time>2026-05-02T12:27:03Z</time></trkpt><trkpt lat="44.172477493985056" lon="11.026208614629049"><ele>727.0</ele><time>2026-05-02T12:27:04Z</time></trkpt><trkpt lat="44.17257275221487" lon="11.026283619605854"><ele>727.0</ele><time>2026-05-02T12:27:05Z</time></trkpt><trkpt lat="44.172669548641984" lon="11.026360643346539"><ele>727.0</ele><time>2026-05-02T12:27:06Z</time></trkpt><trkpt lat="44.17277037018866" lon="11.026444403233056"><ele>727.0</ele><time>2026-05-02T12:27:07Z</time></trkpt><trkpt lat="44.1728692765165" lon="11.026526363097066"><ele>727.0</ele><time>2026-05-02T12:27:08Z</time></trkpt><trkpt lat="44.1729589125297" lon="11.026592868240108"><ele>727.0</ele><time>2026-05-02T12:27:09Z</time></trkpt><trkpt lat="44.17304721961886" lon="11.026659292821012"><ele>727.0</ele><time>2026-05-02T12:27:10Z</time></trkpt><trkpt lat="44.17313132699845" lon="11.026711631611533"><ele>726.3333333333334</ele><time>2026-05-02T12:27:11Z</time></trkpt><trkpt lat="44.173208545103726" lon="11.026759346390016"><ele>725.6666666666667</ele><time>2026-05-02T12:27:12Z</time></trkpt><trkpt lat="44.1732840752786" lon="11.026801570185803"><ele>725.0</ele><time>2026-05-02T12:27:13Z</time></trkpt><trkpt lat="44.173357905176644" lon="11.026837866921777"><ele>724.3333333333334</ele><time>2026-05-02T12:27:14Z</time></trkpt><trkpt lat="44.17343336014159" lon="11.026879338115762"><ele>723.6666666666666</ele><time>2026-05-02T12:27:15Z</time></trkpt><trkpt lat="44.173505022472455" lon="11.02692643244544"><ele>723.0</ele><time>2026-05-02T12:27:16Z</time></trkpt><trkpt lat="44.173577001156936" lon="11.026975025216805"><ele>723.0</ele><time>2026-05-02T12:27:17Z</time></trkpt><trkpt lat="44.173652393938276" lon="11.027017939989644"><ele>723.0</ele><time>2026-05-02T12:27:18Z</time></trkpt><trkpt lat="44.173732038276796" lon="11.02706424332852"><ele>723.0</ele><time>2026-05-02T12:27:19Z</time></trkpt><trkpt lat="44.17381011311229" lon="11.027122030194558"><ele>723.0</ele><time>2026-05-02T12:27:20Z</time></trkpt><trkpt lat="44.17387988938579" lon="11.027188487841052"><ele>723.0</ele><time>2026-05-02T12:27:21Z</time></trkpt><trkpt lat="44.17394700780446" lon="11.02728264826524"><ele>723.0</ele><time>2026-05-02T12:27:22Z</time></trkpt><trkpt lat="44.1739997557749" lon="11.02738628855611"><ele>721.5</ele><time>2026-05-02T12:27:23Z</time></trkpt><trkpt lat="44.174044692401274" lon="11.027492440785752"><ele>720.0</ele><time>2026-05-02T12:27:24Z</time></trkpt><trkpt lat="44.17409472704796" lon="11.02759131029015"><ele>718.5</ele><time>2026-05-02T12:27:25Z</time></trkpt><trkpt lat="44.17414569872577" lon="11.027688879821843"><ele>717.0</ele><time>2026-05-02T12:27:26Z</time></trkpt><trkpt lat="44.174192164133295" lon="11.027780168612558"><ele>715.5</ele><time>2026-05-02T12:27:27Z</time></trkpt><trkpt lat="44.17424211809487" lon="11.027878594908449"><ele>714.0</ele><time>2026-05-02T12:27:28Z</time></trkpt><trkpt lat="44.17429658105558" lon="11.027966889443723"><ele>714.0</ele><time>2026-05-02T12:27:29Z</time></trkpt><trkpt lat="44.17435709036066" lon="11.02805618639828"><ele>714.0</ele><time>2026-05-02T12:27:30Z</time></trkpt><trkpt lat="44.174414080581855" lon="11.028147888840982"><ele>714.0</ele><time>2026-05-02T12:27:31Z</time></trkpt><trkpt lat="44.17446536135368" lon="11.028251254789192"><ele>714.0</ele><time>2026-05-02T12:27:32Z</time></trkpt><trkpt lat="44.17451935836395" lon="11.028367205194247"><ele>714.0</ele><time>2026-05-02T12:27:33Z</time></trkpt><trkpt lat="44.17457319151452" lon="11.028474554838802"><ele>711.5</ele><time>2026-05-02T12:27:34Z</time></trkpt><trkpt lat="44.17462359230108" lon="11.02858231080379"><ele>709.0</ele><time>2026-05-02T12:27:35Z</time></trkpt><trkpt lat="44.17465353979708" lon="11.02868130881688"><ele>706.5</ele><time>2026-05-02T12:27:36Z</time></trkpt><trkpt lat="44.17466736639144" lon="11.028775564810232"><ele>704.0</ele><time>2026-05-02T12:27:37Z</time></trkpt><trkpt lat="44.17464270878177" lon="11.028858540458328"><ele>701.5</ele><time>2026-05-02T12:27:38Z</time></trkpt><trkpt lat="44.1745732594481" lon="11.02892173950326"><ele>699.0</ele><time>2026-05-02T12:27:39Z</time></trkpt><trkpt lat="44.17448133779425" lon="11.02893077262737"><ele>699.0</ele><time>2026-05-02T12:27:40Z</time></trkpt><trkpt lat="44.174385870035074" lon="11.028869019242878"><ele>699.0</ele><time>2026-05-02T12:27:41Z</time></trkpt><trkpt lat="44.17427836469581" lon="11.028845187862416"><ele>699.0</ele><time>2026-05-02T12:27:42Z</time></trkpt><trkpt lat="44.17416225614338" lon="11.028796699393482"><ele>699.0</ele><time>2026-05-02T12:27:43Z</time></trkpt><trkpt lat="44.174039372782694" lon="11.028748370203187"><ele>696.5</ele><time>2026-05-02T12:27:44Z</time></trkpt><trkpt lat="44.17391404342855" lon="11.02870673565009"><ele>694.0</ele><time>2026-05-02T12:27:45Z</time></trkpt><trkpt lat="44.1737913148006" lon="11.028669237272496"><ele>691.5</ele><time>2026-05-02T12:27:46Z</time></trkpt><trkpt lat="44.17367403824396" lon="11.028630500637577"><ele>689.0</ele><time>2026-05-02T12:27:47Z</time></trkpt><trkpt lat="44.17356400534723" lon="11.028598387571584"><ele>689.0</ele><time>2026-05-02T12:27:48Z</time></trkpt><trkpt lat="44.1734554546851" lon="11.028574717089315"><ele>689.0</ele><time>2026-05-02T12:27:49Z</time></trkpt><trkpt lat="44.17334883676731" lon="11.028571307132868"><ele>689.0</ele><time>2026-05-02T12:27:50Z</time></trkpt><trkpt lat="44.17324552145571" lon="11.028582967885656"><ele>689.0</ele><time>2026-05-02T12:27:51Z</time></trkpt><trkpt lat="44.1731458113403" lon="11.028602146324644"><ele>689.0</ele><time>2026-05-02T12:27:52Z</time></trkpt><trkpt lat="44.17304835096294" lon="11.028632366133195"><ele>688.2</ele><time>2026-05-02T12:27:53Z</time></trkpt><trkpt lat="44.172953565824855" lon="11.02867258209317"><ele>687.4000000000001</ele><time>2026-05-02T12:27:54Z</time></trkpt><trkpt lat="44.1728599114885" lon="11.028718695157632"><ele>686.6</ele><time>2026-05-02T12:27:55Z</time></trkpt><trkpt lat="44.17276863374729" lon="11.028774669200173"><ele>685.8</ele><time>2026-05-02T12:27:56Z</time></trkpt><trkpt lat="44.172674686981075" lon="11.028829939467766"><ele>685.0</ele><time>2026-05-02T12:27:57Z</time></trkpt><trkpt lat="44.172574501174786" lon="11.028852537955085"><ele>685.0</ele><time>2026-05-02T12:27:58Z</time></trkpt><trkpt lat="44.172478152440696" lon="11.028900588443056"><ele>685.0</ele><time>2026-05-02T12:27:59Z</time></trkpt><trkpt lat="44.172387716783" lon="11.028973733579395"><ele>685.0</ele><time>2026-05-02T12:28:00Z</time></trkpt><trkpt lat="44.17229306247878" lon="11.029024069760736"><ele>685.0</ele><time>2026-05-02T12:28:01Z</time></trkpt><trkpt lat="44.172197900966744" lon="11.0290868362726"><ele>685.0</ele><time>2026-05-02T12:28:02Z</time></trkpt><trkpt lat="44.17210436686599" lon="11.02915534925032"><ele>682.8</ele><time>2026-05-02T12:28:03Z</time></trkpt><trkpt lat="44.172004660828165" lon="11.02919710133856"><ele>680.6</ele><time>2026-05-02T12:28:04Z</time></trkpt><trkpt lat="44.171925841270124" lon="11.029304924806693"><ele>678.4000000000001</ele><time>2026-05-02T12:28:05Z</time></trkpt><trkpt lat="44.17185818786452" lon="11.029408740162049"><ele>676.2</ele><time>2026-05-02T12:28:06Z</time></trkpt><trkpt lat="44.171810373807666" lon="11.029540195885607"><ele>674.0</ele><time>2026-05-02T12:28:07Z</time></trkpt><trkpt lat="44.171768853028986" lon="11.02966780261412"><ele>674.0</ele><time>2026-05-02T12:28:08Z</time></trkpt><trkpt lat="44.1717230618951" lon="11.02978912500667"><ele>674.0</ele><time>2026-05-02T12:28:09Z</time></trkpt><trkpt lat="44.17166774495449" lon="11.029890636241797"><ele>674.0</ele><time>2026-05-02T12:28:10Z</time></trkpt><trkpt lat="44.17158938671573" lon="11.029960494820982"><ele>674.0</ele><time>2026-05-02T12:28:11Z</time></trkpt><trkpt lat="44.17148571941366" lon="11.029991567167345"><ele>674.0</ele><time>2026-05-02T12:28:12Z</time></trkpt><trkpt lat="44.1713750197942" lon="11.029947036481826"><ele>671.75</ele><time>2026-05-02T12:28:13Z</time></trkpt><trkpt lat="44.171249433147565" lon="11.029940806814304"><ele>669.5</ele><time>2026-05-02T12:28:14Z</time></trkpt><trkpt lat="44.17113133090885" lon="11.029899326450698"><ele>667.25</ele><time>2026-05-02T12:28:15Z</time></trkpt><trkpt lat="44.17101790499087" lon="11.029872438290012"><ele>665.0</ele><time>2026-05-02T12:28:16Z</time></trkpt><trkpt lat="44.170911913348526" lon="11.029847268218738"><ele>665.0</ele><time>2026-05-02T12:28:17Z</time></trkpt><trkpt lat="44.1708172490148" lon="11.02982588071637"><ele>665.0</ele><time>2026-05-02T12:28:18Z</time></trkpt><trkpt lat="44.17072711479946" lon="11.029806369326332"><ele>665.0</ele><time>2026-05-02T12:28:19Z</time></trkpt><trkpt lat="44.17063605972109" lon="11.02990442509131"><ele>665.0</ele><time>2026-05-02T12:28:20Z</time></trkpt><trkpt lat="44.17058183744271" lon="11.030035887815037"><ele>665.0</ele><time>2026-05-02T12:28:21Z</time></trkpt><trkpt lat="44.17052617080078" lon="11.030177335722984"><ele>662.4</ele><time>2026-05-02T12:28:22Z</time></trkpt><trkpt lat="44.170483557486385" lon="11.03030909463259"><ele>659.8</ele><time>2026-05-02T12:28:23Z</time></trkpt><trkpt lat="44.170465957986515" lon="11.030450049684713"><ele>657.2</ele><time>2026-05-02T12:28:24Z</time></trkpt><trkpt lat="44.1704748986473" lon="11.030598876778326"><ele>654.6</ele><time>2026-05-02T12:28:25Z</time></trkpt><trkpt lat="44.17051213245256" lon="11.030739401919005"><ele>652.0</ele><time>2026-05-02T12:28:26Z</time></trkpt><trkpt lat="44.17054350159021" lon="11.030878296366849"><ele>649.6</ele><time>2026-05-02T12:28:27Z</time></trkpt><trkpt lat="44.17057185644801" lon="11.031019528243187"><ele>647.2</ele><time>2026-05-02T12:28:28Z</time></trkpt><trkpt lat="44.17059402833578" lon="11.031162821556935"><ele>644.8</ele><time>2026-05-02T12:28:29Z</time></trkpt><trkpt lat="44.17060741814774" lon="11.031308683056405"><ele>642.4</ele><time>2026-05-02T12:28:30Z</time></trkpt><trkpt lat="44.17062412478248" lon="11.03143133614356"><ele>640.0</ele><time>2026-05-02T12:28:31Z</time></trkpt><trkpt lat="44.17064102086354" lon="11.031530592695576"><ele>640.0</ele><time>2026-05-02T12:28:32Z</time></trkpt><trkpt lat="44.17065534411508" lon="11.031630194234962"><ele>640.0</ele><time>2026-05-02T12:28:34Z</time></trkpt><trkpt lat="44.17074675638043" lon="11.031624417354532"><ele>640.0</ele><time>2026-05-02T12:28:35Z</time></trkpt><trkpt lat="44.17087440094798" lon="11.031558675391063"><ele>640.0</ele><time>2026-05-02T12:28:37Z</time></trkpt><trkpt lat="44.17095561803837" lon="11.03157991852688"><ele>640.0</ele><time>2026-05-02T12:28:38Z</time></trkpt><trkpt lat="44.17104557296489" lon="11.031616410783645"><ele>639.25</ele><time>2026-05-02T12:28:39Z</time></trkpt><trkpt lat="44.171144033563415" lon="11.031644149996362"><ele>638.5</ele><time>2026-05-02T12:28:40Z</time></trkpt><trkpt lat="44.17124660431123" lon="11.03171069060475"><ele>637.75</ele><time>2026-05-02T12:28:41Z</time></trkpt><trkpt lat="44.171353204727595" lon="11.031774644916359"><ele>637.0</ele><time>2026-05-02T12:28:42Z</time></trkpt><trkpt lat="44.17146366752735" lon="11.031841970885495"><ele>638.0</ele><time>2026-05-02T12:28:43Z</time></trkpt><trkpt lat="44.171573590646965" lon="11.031899834172041"><ele>639.0</ele><time>2026-05-02T12:28:44Z</time></trkpt><trkpt lat="44.171684334985486" lon="11.031928025295905"><ele>640.0</ele><time>2026-05-02T12:28:45Z</time></trkpt><trkpt lat="44.17180186898373" lon="11.031948234171868"><ele>641.0</ele><time>2026-05-02T12:28:46Z</time></trkpt><trkpt lat="44.17192098603257" lon="11.031934760162335"><ele>641.0</ele><time>2026-05-02T12:28:47Z</time></trkpt><trkpt lat="44.17203613857672" lon="11.031907762477577"><ele>641.0</ele><time>2026-05-02T12:28:48Z</time></trkpt><trkpt lat="44.172150550773296" lon="11.031880665509517"><ele>641.0</ele><time>2026-05-02T12:28:49Z</time></trkpt><trkpt lat="44.172255357484005" lon="11.031851070736709"><ele>641.0</ele><time>2026-05-02T12:28:50Z</time></trkpt><trkpt lat="44.17233394194944" lon="11.03193523183743"><ele>641.0</ele><time>2026-05-02T12:28:51Z</time></trkpt><trkpt lat="44.1724088368373" lon="11.032039018804241"><ele>642.5</ele><time>2026-05-02T12:28:52Z</time></trkpt><trkpt lat="44.17250582435239" lon="11.03215087830573"><ele>644.0</ele><time>2026-05-02T12:28:53Z</time></trkpt><trkpt lat="44.172607941976324" lon="11.032250680098027"><ele>645.5</ele><time>2026-05-02T12:28:54Z</time></trkpt><trkpt lat="44.17274694689334" lon="11.032317232912215"><ele>647.0</ele><time>2026-05-02T12:28:55Z</time></trkpt><trkpt lat="44.17289362249912" lon="11.032400197234159"><ele>646.0</ele><time>2026-05-02T12:28:56Z</time></trkpt><trkpt lat="44.173038951552876" lon="11.032502322362973"><ele>645.0</ele><time>2026-05-02T12:28:57Z</time></trkpt><trkpt lat="44.17315943681552" lon="11.032680007275804"><ele>644.0</ele><time>2026-05-02T12:28:58Z</time></trkpt><trkpt lat="44.17332401818157" lon="11.032836217630091"><ele>646.6666666666666</ele><time>2026-05-02T12:28:59Z</time></trkpt><trkpt lat="44.173498144722274" lon="11.032993350702517"><ele>649.3333333333334</ele><time>2026-05-02T12:29:00Z</time></trkpt><trkpt lat="44.17361398610435" lon="11.033171679453933"><ele>652.0</ele><time>2026-05-02T12:29:01Z</time></trkpt><trkpt lat="44.17373469506015" lon="11.033278061172663"><ele>650.75</ele><time>2026-05-02T12:29:02Z</time></trkpt><trkpt lat="44.1738525322098" lon="11.033349283782336"><ele>649.5</ele><time>2026-05-02T12:29:03Z</time></trkpt><trkpt lat="44.173988355263226" lon="11.033369464799355"><ele>648.25</ele><time>2026-05-02T12:29:04Z</time></trkpt><trkpt lat="44.17410368314675" lon="11.033409317769044"><ele>647.0</ele><time>2026-05-02T12:29:05Z</time></trkpt><trkpt lat="44.174195344391244" lon="11.033452553250358"><ele>650.0</ele><time>2026-05-02T12:29:06Z</time></trkpt><trkpt lat="44.174281312995724" lon="11.03352270869247"><ele>653.0</ele><time>2026-05-02T12:29:07Z</time></trkpt><trkpt lat="44.17433112225368" lon="11.03366258137246"><ele>656.0</ele><time>2026-05-02T12:29:08Z</time></trkpt><trkpt lat="44.174347482649104" lon="11.033812845159265"><ele>659.0</ele><time>2026-05-02T12:29:09Z</time></trkpt><trkpt lat="44.17438390664975" lon="11.033961171672518"><ele>662.0</ele><time>2026-05-02T12:29:10Z</time></trkpt><trkpt lat="44.17443831383588" lon="11.034115168779952"><ele>661.25</ele><time>2026-05-02T12:29:11Z</time></trkpt><trkpt lat="44.17449610030678" lon="11.03426945845109"><ele>660.5</ele><time>2026-05-02T12:29:12Z</time></trkpt><trkpt lat="44.174552869368036" lon="11.034431344924807"><ele>659.75</ele><time>2026-05-02T12:29:13Z</time></trkpt><trkpt lat="44.174611054752496" lon="11.034596425381883"><ele>659.0</ele><time>2026-05-02T12:29:14Z</time></trkpt><trkpt lat="44.174672166105765" lon="11.034758886930206"><ele>659.0</ele><time>2026-05-02T12:29:15Z</time></trkpt><trkpt lat="44.17473110130156" lon="11.034912032818943"><ele>659.0</ele><time>2026-05-02T12:29:16Z</time></trkpt><trkpt lat="44.17479159509673" lon="11.035052862401887"><ele>659.0</ele><time>2026-05-02T12:29:17Z</time></trkpt><trkpt lat="44.17484023742584" lon="11.035168216213627"><ele>659.0</ele><time>2026-05-02T12:29:18Z</time></trkpt><trkpt lat="44.174842428747404" lon="11.035271395751177"><ele>659.0</ele><time>2026-05-02T12:29:19Z</time></trkpt><trkpt lat="44.1750023567901" lon="11.035258023591103"><ele>659.0</ele><time>2026-05-02T12:29:33Z</time></trkpt><trkpt lat="44.17487099351981" lon="11.035260386797303"><ele>659.0</ele><time>2026-05-02T12:37:08.999Z</time></trkpt><trkpt lat="44.174810466159265" lon="11.035196429079084"><ele>659.0</ele><time>2026-05-02T12:37:10.999Z</time></trkpt><trkpt lat="44.174786554778294" lon="11.03506201167588"><ele>659.0</ele><time>2026-05-02T12:37:12.999Z</time></trkpt><trkpt lat="44.174732843520985" lon="11.034947964527275"><ele>659.0</ele><time>2026-05-02T12:37:14.999Z</time></trkpt><trkpt lat="44.174675099384984" lon="11.03481622140686"><ele>659.0</ele><time>2026-05-02T12:37:16.999Z</time></trkpt><trkpt lat="44.174644019212096" lon="11.034706665560204"><ele>659.0</ele><time>2026-05-02T12:37:17.999Z</time></trkpt><trkpt lat="44.17459401375031" lon="11.034567412504085"><ele>659.0</ele><time>2026-05-02T12:37:18.999Z</time></trkpt><trkpt lat="44.17457887189094" lon="11.034399935879902"><ele>659.0</ele><time>2026-05-02T12:37:19.999Z</time></trkpt><trkpt lat="44.174527827763235" lon="11.03425811260415"><ele>659.0</ele><time>2026-05-02T12:37:20.999Z</time></trkpt><trkpt lat="44.17447744668378" lon="11.034112394108643"><ele>659.6</ele><time>2026-05-02T12:37:21.999Z</time></trkpt><trkpt lat="44.17443190814654" lon="11.03396756205164"><ele>660.2</ele><time>2026-05-02T12:37:22.999Z</time></trkpt><trkpt lat="44.174393465516744" lon="11.03383662103888"><ele>660.8000000000001</ele><time>2026-05-02T12:37:23.999Z</time></trkpt><trkpt lat="44.17435803871557" lon="11.03371516943835"><ele>661.4000000000001</ele><time>2026-05-02T12:37:24.999Z</time></trkpt><trkpt lat="44.17432204175641" lon="11.03359924663717"><ele>662.0</ele><time>2026-05-02T12:37:25.999Z</time></trkpt><trkpt lat="44.174288839640035" lon="11.033499198175113"><ele>662.0</ele><time>2026-05-02T12:37:26.999Z</time></trkpt><trkpt lat="44.17421723435229" lon="11.03339414192993"><ele>662.0</ele><time>2026-05-02T12:37:27.999Z</time></trkpt><trkpt lat="44.1741075997678" lon="11.033374763316251"><ele>662.0</ele><time>2026-05-02T12:37:28.999Z</time></trkpt><trkpt lat="44.17400467761811" lon="11.03334959246469"><ele>662.0</ele><time>2026-05-02T12:37:29.999Z</time></trkpt><trkpt lat="44.173910550819215" lon="11.033304033914415"><ele>662.0</ele><time>2026-05-02T12:37:30.999Z</time></trkpt><trkpt lat="44.17382113178517" lon="11.03327317678806"><ele>660.0</ele><time>2026-05-02T12:37:31.999Z</time></trkpt><trkpt lat="44.173734694457906" lon="11.033226656996847"><ele>658.0</ele><time>2026-05-02T12:37:32.999Z</time></trkpt><trkpt lat="44.17365408599221" lon="11.033162686037704"><ele>656.0</ele><time>2026-05-02T12:37:33.999Z</time></trkpt><trkpt lat="44.17359388939033" lon="11.033083114653584"><ele>654.0</ele><time>2026-05-02T12:37:34.999Z</time></trkpt><trkpt lat="44.17353288804893" lon="11.032983316192086"><ele>652.0</ele><time>2026-05-02T12:37:35.999Z</time></trkpt><trkpt lat="44.17346206461453" lon="11.032884439770914"><ele>652.0</ele><time>2026-05-02T12:37:36.999Z</time></trkpt><trkpt lat="44.17335883806414" lon="11.032829653204374"><ele>652.0</ele><time>2026-05-02T12:37:37.999Z</time></trkpt><trkpt lat="44.17327852216079" lon="11.032757535781245"><ele>652.0</ele><time>2026-05-02T12:37:38.999Z</time></trkpt><trkpt lat="44.17320182533885" lon="11.032673393936125"><ele>652.0</ele><time>2026-05-02T12:37:39.999Z</time></trkpt><trkpt lat="44.17312503197914" lon="11.032570018359884"><ele>652.0</ele><time>2026-05-02T12:37:40.999Z</time></trkpt><trkpt lat="44.17305023256325" lon="11.032471181127569"><ele>651.0</ele><time>2026-05-02T12:37:41.999Z</time></trkpt><trkpt lat="44.172969858762535" lon="11.032385060127286"><ele>650.0</ele><time>2026-05-02T12:37:43Z</time></trkpt><trkpt lat="44.17286240158421" lon="11.032334808996426"><ele>649.0</ele><time>2026-05-02T12:37:44Z</time></trkpt><trkpt lat="44.17275733597897" lon="11.032292009772704"><ele>648.0</ele><time>2026-05-02T12:37:45Z</time></trkpt><trkpt lat="44.17266268762774" lon="11.03224515936642"><ele>647.0</ele><time>2026-05-02T12:37:46Z</time></trkpt><trkpt lat="44.172576881234505" lon="11.032187736094288"><ele>647.0</ele><time>2026-05-02T12:37:47Z</time></trkpt><trkpt lat="44.17250422048554" lon="11.032106137980305"><ele>647.0</ele><time>2026-05-02T12:37:48Z</time></trkpt><trkpt lat="44.172430157862195" lon="11.032003391288262"><ele>647.0</ele><time>2026-05-02T12:37:49Z</time></trkpt><trkpt lat="44.172342278950985" lon="11.031902811232923"><ele>647.0</ele><time>2026-05-02T12:37:50Z</time></trkpt><trkpt lat="44.172254286931725" lon="11.031826774503084"><ele>647.0</ele><time>2026-05-02T12:37:51Z</time></trkpt><trkpt lat="44.17214460597975" lon="11.031803242619166"><ele>645.8</ele><time>2026-05-02T12:37:52Z</time></trkpt><trkpt lat="44.17203037680965" lon="11.031863154148574"><ele>644.6</ele><time>2026-05-02T12:37:53Z</time></trkpt><trkpt lat="44.17192652735198" lon="11.031898520082777"><ele>643.4</ele><time>2026-05-02T12:37:54Z</time></trkpt><trkpt lat="44.17182508536098" lon="11.031920474021273"><ele>642.1999999999999</ele><time>2026-05-02T12:37:55Z</time></trkpt><trkpt lat="44.17171857513026" lon="11.031899147524234"><ele>641.0</ele><time>2026-05-02T12:37:56Z</time></trkpt><trkpt lat="44.171614158535895" lon="11.031883117593313"><ele>641.0</ele><time>2026-05-02T12:37:57Z</time></trkpt><trkpt lat="44.17152463361286" lon="11.031844223702967"><ele>641.0</ele><time>2026-05-02T12:37:58Z</time></trkpt><trkpt lat="44.171429831589776" lon="11.031787242334483"><ele>641.0</ele><time>2026-05-02T12:37:59Z</time></trkpt><trkpt lat="44.17132128622409" lon="11.031719675146771"><ele>641.0</ele><time>2026-05-02T12:38:00Z</time></trkpt><trkpt lat="44.17121192621458" lon="11.031651901186644"><ele>641.0</ele><time>2026-05-02T12:38:01Z</time></trkpt><trkpt lat="44.171114841538454" lon="11.031599734067958"><ele>640.3333333333333</ele><time>2026-05-02T12:38:02Z</time></trkpt><trkpt lat="44.171021707293754" lon="11.031559267477698"><ele>639.6666666666666</ele><time>2026-05-02T12:38:03Z</time></trkpt><trkpt lat="44.17093241274981" lon="11.031529479107542"><ele>639.0</ele><time>2026-05-02T12:38:04Z</time></trkpt><trkpt lat="44.17083920015594" lon="11.031529397762553"><ele>638.3333333333334</ele><time>2026-05-02T12:38:04.998Z</time></trkpt><trkpt lat="44.17075541785007" lon="11.031588006280424"><ele>637.6666666666667</ele><time>2026-05-02T12:38:05.998Z</time></trkpt><trkpt lat="44.17069435755306" lon="11.031641335110672"><ele>637.0</ele><time>2026-05-02T12:38:06.998Z</time></trkpt><trkpt lat="44.17059129518156" lon="11.031719844558191"><ele>636.2</ele><time>2026-05-02T12:38:08.998Z</time></trkpt><trkpt lat="44.17059514290448" lon="11.031915182560796"><ele>635.4000000000001</ele><time>2026-05-02T12:38:09.998Z</time></trkpt><trkpt lat="44.1705495893362" lon="11.032040495685857"><ele>634.5999999999999</ele><time>2026-05-02T12:38:10.998Z</time></trkpt><trkpt lat="44.17049416819026" lon="11.032154115547034"><ele>633.8</ele><time>2026-05-02T12:38:11.998Z</time></trkpt><trkpt lat="44.17043737416259" lon="11.032265058347726"><ele>633.0</ele><time>2026-05-02T12:38:12.998Z</time></trkpt><trkpt lat="44.17038388225399" lon="11.032376698088385"><ele>631.6</ele><time>2026-05-02T12:38:13.998Z</time></trkpt><trkpt lat="44.17032874926053" lon="11.032492105720578"><ele>630.1999999999999</ele><time>2026-05-02T12:38:14.998Z</time></trkpt><trkpt lat="44.1702564780423" lon="11.032594191090865"><ele>628.8</ele><time>2026-05-02T12:38:15.998Z</time></trkpt><trkpt lat="44.17015539756805" lon="11.032641391267644"><ele>627.4</ele><time>2026-05-02T12:38:16.998Z</time></trkpt><trkpt lat="44.17005527771572" lon="11.032692808985148"><ele>626.0</ele><time>2026-05-02T12:38:17.998Z</time></trkpt><trkpt lat="44.16997575792511" lon="11.032747144318712"><ele>626.0</ele><time>2026-05-02T12:38:18.998Z</time></trkpt><trkpt lat="44.1699186886615" lon="11.032803237854305"><ele>626.0</ele><time>2026-05-02T12:38:19.998Z</time></trkpt><trkpt lat="44.16989543616694" lon="11.032893802190463"><ele>626.0</ele><time>2026-05-02T12:38:20.998Z</time></trkpt><trkpt lat="44.169915120772295" lon="11.033002071110744"><ele>626.0</ele><time>2026-05-02T12:38:21.998Z</time></trkpt><trkpt lat="44.169975609524926" lon="11.033107746977603"><ele>626.0</ele><time>2026-05-02T12:38:22.998Z</time></trkpt><trkpt lat="44.17002908859005" lon="11.03322766734299"><ele>626.0</ele><time>2026-05-02T12:38:23.998Z</time></trkpt><trkpt lat="44.17008361034694" lon="11.03336224304409"><ele>623.5</ele><time>2026-05-02T12:38:24.999Z</time></trkpt><trkpt lat="44.170140273887796" lon="11.033503982011348"><ele>621.0</ele><time>2026-05-02T12:38:25.999Z</time></trkpt><trkpt lat="44.17020189109129" lon="11.033660342624948"><ele>618.5</ele><time>2026-05-02T12:38:26.999Z</time></trkpt><trkpt lat="44.17027249836948" lon="11.033813298262874"><ele>616.0</ele><time>2026-05-02T12:38:27.999Z</time></trkpt><trkpt lat="44.17034007455321" lon="11.033955079267862"><ele>616.0</ele><time>2026-05-02T12:38:28.999Z</time></trkpt><trkpt lat="44.17040640702793" lon="11.034092461279347"><ele>616.0</ele><time>2026-05-02T12:38:29.999Z</time></trkpt><trkpt lat="44.17046981446877" lon="11.034226613705192"><ele>616.0</ele><time>2026-05-02T12:38:30.999Z</time></trkpt><trkpt lat="44.17052872783902" lon="11.034348239432285"><ele>616.0</ele><time>2026-05-02T12:38:31.999Z</time></trkpt><trkpt lat="44.17057814706744" lon="11.034443898894084"><ele>616.0</ele><time>2026-05-02T12:38:32.999Z</time></trkpt><trkpt lat="44.17061423496201" lon="11.034526386494308"><ele>615.8333333333334</ele><time>2026-05-02T12:38:33.999Z</time></trkpt><trkpt lat="44.17061805809444" lon="11.034651293633855"><ele>615.6666666666667</ele><time>2026-05-02T12:38:35.999Z</time></trkpt><trkpt lat="44.170619877043954" lon="11.03474435286359"><ele>615.5</ele><time>2026-05-02T12:38:38.999Z</time></trkpt><trkpt lat="44.170674702729976" lon="11.03479687878639"><ele>615.3333333333334</ele><time>2026-05-02T12:38:42.999Z</time></trkpt><trkpt lat="44.17074626879381" lon="11.034803348387829"><ele>615.1666666666666</ele><time>2026-05-02T12:39:03.999Z</time></trkpt><trkpt lat="44.17069046568239" lon="11.034711280354438"><ele>615.0</ele><time>2026-05-02T12:39:05.999Z</time></trkpt><trkpt lat="44.17063137020627" lon="11.034657689234432"><ele>613.6</ele><time>2026-05-02T12:39:06.999Z</time></trkpt><trkpt lat="44.17056679298996" lon="11.034638618962308"><ele>612.2</ele><time>2026-05-02T12:39:07.999Z</time></trkpt><trkpt lat="44.17043534462803" lon="11.034586344899918"><ele>610.8</ele><time>2026-05-02T12:39:09.999Z</time></trkpt><trkpt lat="44.1703500296946" lon="11.034508754844992"><ele>609.4</ele><time>2026-05-02T12:39:10.999Z</time></trkpt><trkpt lat="44.17024694080057" lon="11.034449398496125"><ele>608.0</ele><time>2026-05-02T12:39:11.999Z</time></trkpt><trkpt lat="44.17012446356483" lon="11.034434688676368"><ele>608.0</ele><time>2026-05-02T12:39:12.999Z</time></trkpt><trkpt lat="44.17000721382147" lon="11.034402645709088"><ele>608.0</ele><time>2026-05-02T12:39:13.999Z</time></trkpt><trkpt lat="44.169891927987074" lon="11.03438302586475"><ele>608.0</ele><time>2026-05-02T12:39:14.999Z</time></trkpt><trkpt lat="44.16978415261931" lon="11.034328723022737"><ele>608.0</ele><time>2026-05-02T12:39:15.999Z</time></trkpt><trkpt lat="44.1696826526894" lon="11.03425382343565"><ele>607.25</ele><time>2026-05-02T12:39:16.999Z</time></trkpt><trkpt lat="44.16958082108989" lon="11.034150539292085"><ele>606.5</ele><time>2026-05-02T12:39:17.999Z</time></trkpt><trkpt lat="44.16947284484293" lon="11.034048326639573"><ele>605.75</ele><time>2026-05-02T12:39:18.999Z</time></trkpt><trkpt lat="44.16936208120791" lon="11.033943475555667"><ele>605.0</ele><time>2026-05-02T12:39:19.999Z</time></trkpt><trkpt lat="44.16924509478344" lon="11.033860536344879"><ele>605.0</ele><time>2026-05-02T12:39:20.999Z</time></trkpt><trkpt lat="44.16913560431995" lon="11.033749121242717"><ele>605.0</ele><time>2026-05-02T12:39:21.999Z</time></trkpt><trkpt lat="44.16902422367262" lon="11.033645173711442"><ele>605.0</ele><time>2026-05-02T12:39:22.999Z</time></trkpt><trkpt lat="44.16890941292562" lon="11.033536648006306"><ele>605.0</ele><time>2026-05-02T12:39:23.999Z</time></trkpt><trkpt lat="44.168797165842264" lon="11.033426705432714"><ele>604.75</ele><time>2026-05-02T12:39:24.999Z</time></trkpt><trkpt lat="44.16869530319259" lon="11.033323793935766"><ele>604.5</ele><time>2026-05-02T12:39:25.999Z</time></trkpt><trkpt lat="44.168591334925885" lon="11.033227293334184"><ele>604.25</ele><time>2026-05-02T12:39:26.999Z</time></trkpt><trkpt lat="44.16849531209275" lon="11.033146346693815"><ele>604.0</ele><time>2026-05-02T12:39:27.999Z</time></trkpt><trkpt lat="44.16840377490265" lon="11.033053946680482"><ele>604.0</ele><time>2026-05-02T12:39:28.999Z</time></trkpt><trkpt lat="44.16830729094561" lon="11.032980275439327"><ele>604.0</ele><time>2026-05-02T12:39:29.999Z</time></trkpt><trkpt lat="44.16821531235126" lon="11.032939017318018"><ele>604.0</ele><time>2026-05-02T12:39:30.999Z</time></trkpt><trkpt lat="44.1681288680189" lon="11.032878995746183"><ele>604.0</ele><time>2026-05-02T12:39:31.999Z</time></trkpt><trkpt lat="44.16804789368133" lon="11.032811722022162"><ele>604.0</ele><time>2026-05-02T12:39:32.999Z</time></trkpt><trkpt lat="44.1679500087896" lon="11.032784202161846"><ele>602.0</ele><time>2026-05-02T12:39:33.999Z</time></trkpt><trkpt lat="44.16785391238436" lon="11.032788166192363"><ele>600.0</ele><time>2026-05-02T12:39:34.999Z</time></trkpt><trkpt lat="44.16775607445272" lon="11.032808723920457"><ele>598.0</ele><time>2026-05-02T12:39:35.999Z</time></trkpt><trkpt lat="44.167667437910055" lon="11.032832774674668"><ele>596.0</ele><time>2026-05-02T12:39:36.999Z</time></trkpt><trkpt lat="44.167571287428956" lon="11.032856126737656"><ele>594.0</ele><time>2026-05-02T12:39:37.999Z</time></trkpt><trkpt lat="44.16746970624484" lon="11.03288412987314"><ele>592.5</ele><time>2026-05-02T12:39:38.999Z</time></trkpt><trkpt lat="44.16735510184721" lon="11.032865073187946"><ele>591.0</ele><time>2026-05-02T12:39:39.999Z</time></trkpt><trkpt lat="44.1672411687085" lon="11.032839157207436"><ele>589.5</ele><time>2026-05-02T12:39:41Z</time></trkpt><trkpt lat="44.16712180567945" lon="11.032816040589132"><ele>588.0</ele><time>2026-05-02T12:39:42Z</time></trkpt><trkpt lat="44.16700758803875" lon="11.032779037328991"><ele>588.0</ele><time>2026-05-02T12:39:43Z</time></trkpt><trkpt lat="44.16688825495252" lon="11.032792728416327"><ele>588.0</ele><time>2026-05-02T12:39:44Z</time></trkpt><trkpt lat="44.16677545514997" lon="11.03278888819394"><ele>588.0</ele><time>2026-05-02T12:39:45Z</time></trkpt><trkpt lat="44.16666591089312" lon="11.032786343454607"><ele>588.0</ele><time>2026-05-02T12:39:46Z</time></trkpt><trkpt lat="44.166560986071495" lon="11.032811771000546"><ele>588.0</ele><time>2026-05-02T12:39:47Z</time></trkpt><trkpt lat="44.16644881276024" lon="11.032788352491261"><ele>586.0</ele><time>2026-05-02T12:39:48Z</time></trkpt><trkpt lat="44.16633466212954" lon="11.032756921653085"><ele>584.0</ele><time>2026-05-02T12:39:49Z</time></trkpt><trkpt lat="44.16622977882602" lon="11.032691563641515"><ele>582.0</ele><time>2026-05-02T12:39:50Z</time></trkpt><trkpt lat="44.166140401457916" lon="11.032588581686174"><ele>580.0</ele><time>2026-05-02T12:39:51Z</time></trkpt><trkpt lat="44.16605083446251" lon="11.032472770618593"><ele>580.0</ele><time>2026-05-02T12:39:52Z</time></trkpt><trkpt lat="44.165961134798415" lon="11.032351528788672"><ele>580.0</ele><time>2026-05-02T12:39:53Z</time></trkpt><trkpt lat="44.16585997704055" lon="11.03224411689089"><ele>580.0</ele><time>2026-05-02T12:39:54Z</time></trkpt><trkpt lat="44.16577722714885" lon="11.03212568025451"><ele>580.0</ele><time>2026-05-02T12:39:55Z</time></trkpt><trkpt lat="44.16569275096102" lon="11.032019248153206"><ele>579.2</ele><time>2026-05-02T12:39:56Z</time></trkpt><trkpt lat="44.16561334222542" lon="11.031912714451211"><ele>578.4</ele><time>2026-05-02T12:39:57Z</time></trkpt><trkpt lat="44.16555089025658" lon="11.031795875994247"><ele>577.6</ele><time>2026-05-02T12:39:58Z</time></trkpt><trkpt lat="44.1654788818453" lon="11.031712066280834"><ele>576.8</ele><time>2026-05-02T12:39:59Z</time></trkpt><trkpt lat="44.165398736615074" lon="11.031673348663977"><ele>576.0</ele><time>2026-05-02T12:40:00Z</time></trkpt><trkpt lat="44.16533367756335" lon="11.031650248195326"><ele>576.0</ele><time>2026-05-02T12:40:01Z</time></trkpt><trkpt lat="44.16524797749909" lon="11.031665682385846"><ele>576.0</ele><time>2026-05-02T12:40:26.999Z</time></trkpt><trkpt lat="44.165147825661585" lon="11.031739604175216"><ele>576.0</ele><time>2026-05-02T12:40:28.999Z</time></trkpt><trkpt lat="44.165079474210295" lon="11.031805072371391"><ele>576.0</ele><time>2026-05-02T12:40:29.999Z</time></trkpt><trkpt lat="44.16500565840751" lon="11.031902830657353"><ele>576.0</ele><time>2026-05-02T12:40:30.999Z</time></trkpt><trkpt lat="44.16493961677022" lon="11.03201624411605"><ele>576.0</ele><time>2026-05-02T12:40:31.999Z</time></trkpt><trkpt lat="44.164884227843125" lon="11.032148300050444"><ele>576.0</ele><time>2026-05-02T12:40:32.999Z</time></trkpt><trkpt lat="44.16483757768102" lon="11.03228981980509"><ele>576.0</ele><time>2026-05-02T12:40:33.999Z</time></trkpt><trkpt lat="44.16481929634661" lon="11.032445167198116"><ele>576.0</ele><time>2026-05-02T12:40:34.999Z</time></trkpt><trkpt lat="44.1648347932996" lon="11.032607561110991"><ele>574.8</ele><time>2026-05-02T12:40:35.999Z</time></trkpt><trkpt lat="44.16486864232885" lon="11.032758710038012"><ele>573.6</ele><time>2026-05-02T12:40:36.999Z</time></trkpt><trkpt lat="44.1649109617155" lon="11.032900235603353"><ele>572.4</ele><time>2026-05-02T12:40:37.999Z</time></trkpt><trkpt lat="44.1649415425816" lon="11.033036797729075"><ele>571.2</ele><time>2026-05-02T12:40:38.999Z</time></trkpt><trkpt lat="44.16495375980031" lon="11.033173091770959"><ele>570.0</ele><time>2026-05-02T12:40:39.999Z</time></trkpt><trkpt lat="44.16492885223553" lon="11.033302891254783"><ele>569.2</ele><time>2026-05-02T12:40:40.999Z</time></trkpt><trkpt lat="44.16485263257302" lon="11.03339995316391"><ele>568.4</ele><time>2026-05-02T12:40:41.999Z</time></trkpt><trkpt lat="44.16475001687612" lon="11.033424874015079"><ele>567.6</ele><time>2026-05-02T12:40:42.999Z</time></trkpt><trkpt lat="44.1646413208171" lon="11.03335856617162"><ele>566.8</ele><time>2026-05-02T12:40:43.999Z</time></trkpt><trkpt lat="44.16453994876194" lon="11.03328106688584"><ele>566.0</ele><time>2026-05-02T12:40:44.999Z</time></trkpt><trkpt lat="44.16443360026847" lon="11.033210451285683"><ele>566.0</ele><time>2026-05-02T12:40:45.999Z</time></trkpt><trkpt lat="44.16431995501902" lon="11.033130750041522"><ele>566.0</ele><time>2026-05-02T12:40:46.999Z</time></trkpt><trkpt lat="44.164206517389175" lon="11.033051726032316"><ele>566.0</ele><time>2026-05-02T12:40:47.999Z</time></trkpt><trkpt lat="44.164086233160596" lon="11.032971970186473"><ele>566.0</ele><time>2026-05-02T12:40:48.999Z</time></trkpt><trkpt lat="44.16396420199275" lon="11.032904049796795"><ele>564.75</ele><time>2026-05-02T12:40:49.999Z</time></trkpt><trkpt lat="44.16384486146849" lon="11.032857565361958"><ele>563.5</ele><time>2026-05-02T12:40:50.999Z</time></trkpt><trkpt lat="44.16372648851094" lon="11.032797927252286"><ele>562.25</ele><time>2026-05-02T12:40:51.999Z</time></trkpt><trkpt lat="44.16360707782043" lon="11.032747985273279"><ele>561.0</ele><time>2026-05-02T12:40:52.999Z</time></trkpt><trkpt lat="44.163495752730825" lon="11.0327101984291"><ele>561.0</ele><time>2026-05-02T12:40:53.999Z</time></trkpt><trkpt lat="44.163387100122584" lon="11.032692819236848"><ele>561.0</ele><time>2026-05-02T12:40:54.999Z</time></trkpt><trkpt lat="44.16329442955649" lon="11.032711055527486"><ele>561.0</ele><time>2026-05-02T12:40:55.999Z</time></trkpt><trkpt lat="44.16320498737491" lon="11.032770079983063"><ele>561.0</ele><time>2026-05-02T12:40:56.999Z</time></trkpt><trkpt lat="44.16313501318754" lon="11.032872684507861"><ele>561.0</ele><time>2026-05-02T12:40:57.999Z</time></trkpt><trkpt lat="44.16308838159157" lon="11.033001311688196"><ele>561.6</ele><time>2026-05-02T12:40:58.999Z</time></trkpt><trkpt lat="44.16306104931194" lon="11.033130623764466"><ele>562.2</ele><time>2026-05-02T12:40:59.999Z</time></trkpt><trkpt lat="44.16304679896684" lon="11.033267123517836"><ele>562.8</ele><time>2026-05-02T12:41:00.999Z</time></trkpt><trkpt lat="44.16304029922472" lon="11.033402193562564"><ele>563.4</ele><time>2026-05-02T12:41:01.999Z</time></trkpt><trkpt lat="44.16303277041599" lon="11.03353788443766"><ele>564.0</ele><time>2026-05-02T12:41:02.999Z</time></trkpt><trkpt lat="44.16303220868505" lon="11.033669807724841"><ele>562.2</ele><time>2026-05-02T12:41:03.999Z</time></trkpt><trkpt lat="44.16303466146441" lon="11.033808569651438"><ele>560.4</ele><time>2026-05-02T12:41:04.999Z</time></trkpt><trkpt lat="44.16303740692504" lon="11.033943511198855"><ele>558.6</ele><time>2026-05-02T12:41:05.999Z</time></trkpt><trkpt lat="44.16303620959413" lon="11.034079680129"><ele>556.8</ele><time>2026-05-02T12:41:06.999Z</time></trkpt><trkpt lat="44.1630286275857" lon="11.034214923415506"><ele>555.0</ele><time>2026-05-02T12:41:07.999Z</time></trkpt><trkpt lat="44.163022592009014" lon="11.034345503563808"><ele>553.5</ele><time>2026-05-02T12:41:08.999Z</time></trkpt><trkpt lat="44.163024871940614" lon="11.034465346319593"><ele>552.0</ele><time>2026-05-02T12:41:09.999Z</time></trkpt><trkpt lat="44.16302495739728" lon="11.034584240590359"><ele>550.5</ele><time>2026-05-02T12:41:10.999Z</time></trkpt><trkpt lat="44.16301915145416" lon="11.034701247059521"><ele>549.0</ele><time>2026-05-02T12:41:11.999Z</time></trkpt><trkpt lat="44.163012773794804" lon="11.034820527456468"><ele>547.5</ele><time>2026-05-02T12:41:12.999Z</time></trkpt><trkpt lat="44.163010366730255" lon="11.034934510017026"><ele>546.0</ele><time>2026-05-02T12:41:13.999Z</time></trkpt><trkpt lat="44.163009816092384" lon="11.03504784408619"><ele>545.0</ele><time>2026-05-02T12:41:14.999Z</time></trkpt><trkpt lat="44.163002601320436" lon="11.035149274575852"><ele>544.0</ele><time>2026-05-02T12:41:15.999Z</time></trkpt><trkpt lat="44.16298755634093" lon="11.035239157661621"><ele>543.0</ele><time>2026-05-02T12:41:16.999Z</time></trkpt><trkpt lat="44.162940854882756" lon="11.035377051266819"><ele>542.0</ele><time>2026-05-02T12:41:19Z</time></trkpt><trkpt lat="44.162964843714995" lon="11.035515077473557"><ele>541.0</ele><time>2026-05-02T12:41:22Z</time></trkpt><trkpt lat="44.1630849390414" lon="11.03559768322753"><ele>541.0</ele><time>2026-05-02T12:41:24Z</time></trkpt><trkpt lat="44.16316045511291" lon="11.035650180233485"><ele>541.0</ele><time>2026-05-02T12:41:25Z</time></trkpt><trkpt lat="44.16324879225567" lon="11.035705581310975"><ele>541.0</ele><time>2026-05-02T12:41:26Z</time></trkpt><trkpt lat="44.163334542971015" lon="11.035758189188318"><ele>541.0</ele><time>2026-05-02T12:41:27Z</time></trkpt><trkpt lat="44.16340278863585" lon="11.03583083213127"><ele>541.0</ele><time>2026-05-02T12:41:28Z</time></trkpt><trkpt lat="44.163455219407545" lon="11.035906257254508"><ele>541.0</ele><time>2026-05-02T12:41:29Z</time></trkpt><trkpt lat="44.163423811624604" lon="11.036144137352744"><ele>540.3333333333334</ele><time>2026-05-02T12:41:31Z</time></trkpt><trkpt lat="44.16333990662601" lon="11.03627082699738"><ele>539.6666666666667</ele><time>2026-05-02T12:41:33Z</time></trkpt><trkpt lat="44.163300691283915" lon="11.03634295362887"><ele>539.0</ele><time>2026-05-02T12:41:34Z</time></trkpt><trkpt lat="44.16324241508067" lon="11.036437997117936"><ele>538.3333333333334</ele><time>2026-05-02T12:41:36Z</time></trkpt><trkpt lat="44.16321536989194" lon="11.036522554647373"><ele>537.6666666666666</ele><time>2026-05-02T12:45:38.001Z</time></trkpt><trkpt lat="44.16316370842854" lon="11.036584110421645"><ele>537.0</ele><time>2026-05-02T12:45:45.001Z</time></trkpt><trkpt lat="44.16308112357891" lon="11.036625961568726"><ele>537.0</ele><time>2026-05-02T12:45:50.001Z</time></trkpt><trkpt lat="44.16295114216052" lon="11.036649788969063"><ele>537.0</ele><time>2026-05-02T12:45:52.001Z</time></trkpt><trkpt lat="44.162874667016034" lon="11.036642774221738"><ele>537.0</ele><time>2026-05-02T12:45:53.001Z</time></trkpt><trkpt lat="44.16279530413206" lon="11.036627697654959"><ele>537.0</ele><time>2026-05-02T12:45:54.001Z</time></trkpt><trkpt lat="44.16272110808224" lon="11.036608138234696"><ele>537.0</ele><time>2026-05-02T12:45:55.001Z</time></trkpt><trkpt lat="44.16261958870229" lon="11.036570340224015"><ele>537.0</ele><time>2026-05-02T12:45:57.001Z</time></trkpt><trkpt lat="44.162559879365695" lon="11.03653048136874"><ele>537.0</ele><time>2026-05-02T12:45:59.001Z</time></trkpt><trkpt lat="44.16248452347236" lon="11.036621748252912"><ele>537.0</ele><time>2026-05-02T12:46:01.001Z</time></trkpt><trkpt lat="44.16245765313291" lon="11.036742167277197"><ele>537.0</ele><time>2026-05-02T12:46:04.001Z</time></trkpt><trkpt lat="44.16242773260287" lon="11.036887804576377"><ele>537.0</ele><time>2026-05-02T12:46:06.001Z</time></trkpt><trkpt lat="44.162410152748166" lon="11.03697337408088"><ele>537.0</ele><time>2026-05-02T12:46:07.001Z</time></trkpt><trkpt lat="44.16239239900488" lon="11.037118879719358"><ele>537.0</ele><time>2026-05-02T12:46:09.001Z</time></trkpt><trkpt lat="44.162343724332935" lon="11.03723287923312"><ele>537.0</ele><time>2026-05-02T12:46:11.001Z</time></trkpt><trkpt lat="44.162396643346334" lon="11.03733060409326"><ele>537.0</ele><time>2026-05-02T12:46:15.002Z</time></trkpt><trkpt lat="44.16296640112016" lon="11.037147425029053"><ele>537.0</ele><time>2026-05-02T12:46:17.002Z</time></trkpt><trkpt lat="44.16241003718836" lon="11.037065972235771"><ele>537.0</ele><time>2026-05-02T12:46:18.002Z</time></trkpt><trkpt lat="44.16241050174382" lon="11.037179620644393"><ele>537.0</ele><time>2026-05-02T12:47:54.001Z</time></trkpt><trkpt lat="44.16235795478529" lon="11.037123639958187"><ele>537.0</ele><time>2026-05-02T12:48:13.002Z</time></trkpt><trkpt lat="44.1623885418755" lon="11.037213972661512"><ele>537.0</ele><time>2026-05-02T12:48:47Z</time></trkpt><trkpt lat="44.16239193374158" lon="11.037094007317421"><ele>537.0</ele><time>2026-05-02T12:48:55.031Z</time></trkpt><trkpt lat="44.162216653279664" lon="11.036921951741158"><ele>537.0</ele><time>2026-05-02T12:48:58.031Z</time></trkpt><trkpt lat="44.162213844666155" lon="11.037023156226216"><ele>537.0</ele><time>2026-05-02T12:49:00.033Z</time></trkpt><trkpt lat="44.1622653470276" lon="11.037094251491835"><ele>537.0</ele><time>2026-05-02T12:49:07.032Z</time></trkpt><trkpt lat="44.16233427611614" lon="11.037174352225277"><ele>537.0</ele><time>2026-05-02T12:49:19.031Z</time></trkpt><trkpt lat="44.16227224868567" lon="11.037118256156413"><ele>537.0</ele><time>2026-05-02T12:49:38.015Z</time></trkpt><trkpt lat="44.16227653043558" lon="11.037213885801943"><ele>537.0</ele><time>2026-05-02T12:49:47.013Z</time></trkpt><trkpt lat="44.16241811470052" lon="11.037029249332049"><ele>537.0</ele><time>2026-05-02T12:50:04.021Z</time></trkpt><trkpt lat="44.162382675155754" lon="11.03711226693746"><ele>537.0</ele><time>2026-05-02T13:14:44.02Z</time></trkpt><trkpt lat="44.16244667213522" lon="11.037115126697017"><ele>537.0</ele><time>2026-05-02T13:14:49.02Z</time></trkpt><trkpt lat="44.16242997330647" lon="11.036966810213592"><ele>537.0</ele><time>2026-05-02T13:24:46.361Z</time></trkpt><trkpt lat="44.1624718783584" lon="11.036872833779567"><ele>537.0</ele><time>2026-05-02T13:24:58.427Z</time></trkpt><trkpt lat="44.162414252466654" lon="11.037039495249727"><ele>537.0</ele><time>2026-05-02T13:27:02.006Z</time></trkpt><trkpt lat="44.162412386188436" lon="11.036919358009351"><ele>537.0</ele><time>2026-05-02T13:28:17Z</time></trkpt><trkpt lat="44.16243822810925" lon="11.036809251916443"><ele>537.0</ele><time>2026-05-02T13:28:19Z</time></trkpt><trkpt lat="44.16246778785944" lon="11.036681964160026"><ele>537.0</ele><time>2026-05-02T13:28:21Z</time></trkpt><trkpt lat="44.162476762561155" lon="11.036574040524142"><ele>537.0</ele><time>2026-05-02T13:28:23Z</time></trkpt><trkpt lat="44.16254476328552" lon="11.036569193941483"><ele>537.0</ele><time>2026-05-02T13:45:32Z</time></trkpt><trkpt lat="44.16254226577187" lon="11.036480975790312"><ele>536.8000000000001</ele><time>2026-05-02T13:47:52Z</time></trkpt><trkpt lat="44.162490454660016" lon="11.036416054848965"><ele>536.6</ele><time>2026-05-02T13:47:57Z</time></trkpt><trkpt lat="44.162414279755296" lon="11.036339162869105"><ele>536.4000000000001</ele><time>2026-05-02T13:48:00Z</time></trkpt><trkpt lat="44.16232076462125" lon="11.036207440568718"><ele>536.2</ele><time>2026-05-02T13:48:02Z</time></trkpt><trkpt lat="44.16225774339256" lon="11.036098982211655"><ele>536.0</ele><time>2026-05-02T13:48:03Z</time></trkpt><trkpt lat="44.16221626221531" lon="11.036022915968962"><ele>536.1666666666666</ele><time>2026-05-02T13:48:04Z</time></trkpt><trkpt lat="44.162144403582126" lon="11.03588143072222"><ele>536.3333333333333</ele><time>2026-05-02T14:15:19.001Z</time></trkpt><trkpt lat="44.162086898666104" lon="11.035809225599905"><ele>536.5</ele><time>2026-05-02T14:15:20.001Z</time></trkpt><trkpt lat="44.162021361511236" lon="11.035799281270105"><ele>536.6666666666666</ele><time>2026-05-02T14:15:23.001Z</time></trkpt><trkpt lat="44.161962779615905" lon="11.035907274550347"><ele>536.8333333333334</ele><time>2026-05-02T14:15:28.001Z</time></trkpt><trkpt lat="44.161901130401084" lon="11.035927187715439"><ele>537.0</ele><time>2026-05-02T14:15:54.001Z</time></trkpt><trkpt lat="44.16197264739266" lon="11.035877565861503"><ele>537.0</ele><time>2026-05-02T14:27:26Z</time></trkpt><trkpt lat="44.16203653738999" lon="11.035809180469016"><ele>537.0</ele><time>2026-05-02T14:27:29Z</time></trkpt><trkpt lat="44.162019114784876" lon="11.03569823324514"><ele>537.0</ele><time>2026-05-02T14:27:32Z</time></trkpt><trkpt lat="44.161939579997835" lon="11.035680154964316"><ele>537.0</ele><time>2026-05-02T14:29:37Z</time></trkpt><trkpt lat="44.16180020371649" lon="11.035574254475739"><ele>537.0</ele><time>2026-05-02T14:29:39Z</time></trkpt><trkpt lat="44.16169463544735" lon="11.035461466157717"><ele>537.0</ele><time>2026-05-02T14:29:40Z</time></trkpt><trkpt lat="44.161592725411516" lon="11.035351282195196"><ele>537.0</ele><time>2026-05-02T14:29:41Z</time></trkpt><trkpt lat="44.161552433674835" lon="11.035228146094331"><ele>537.0</ele><time>2026-05-02T14:29:42Z</time></trkpt><trkpt lat="44.16148569450497" lon="11.035162881891774"><ele>537.0</ele><time>2026-05-02T14:29:43Z</time></trkpt><trkpt lat="44.16136349207425" lon="11.035043381368812"><ele>536.25</ele><time>2026-05-02T14:29:44Z</time></trkpt><trkpt lat="44.16121868253422" lon="11.03490427904594"><ele>535.5</ele><time>2026-05-02T14:29:45Z</time></trkpt><trkpt lat="44.16111857805811" lon="11.034807936241707"><ele>534.75</ele><time>2026-05-02T14:29:46Z</time></trkpt><trkpt lat="44.16102640816859" lon="11.034714832932037"><ele>534.0</ele><time>2026-05-02T14:29:47Z</time></trkpt><trkpt lat="44.16093623208506" lon="11.03462348997563"><ele>534.0</ele><time>2026-05-02T14:29:48Z</time></trkpt><trkpt lat="44.16083798279959" lon="11.03455498483556"><ele>534.0</ele><time>2026-05-02T14:29:49Z</time></trkpt><trkpt lat="44.16076144936703" lon="11.034448657036712"><ele>534.0</ele><time>2026-05-02T14:29:50Z</time></trkpt><trkpt lat="44.16068057167182" lon="11.034362558120028"><ele>534.0</ele><time>2026-05-02T14:29:51Z</time></trkpt><trkpt lat="44.16058730675676" lon="11.034290746225283"><ele>534.0</ele><time>2026-05-02T14:29:52Z</time></trkpt><trkpt lat="44.160506878475424" lon="11.034202491822578"><ele>532.8333333333334</ele><time>2026-05-02T14:29:53Z</time></trkpt><trkpt lat="44.160431009649464" lon="11.034124884755295"><ele>531.6666666666666</ele><time>2026-05-02T14:29:54Z</time></trkpt><trkpt lat="44.16035469876821" lon="11.034069323681912"><ele>530.5</ele><time>2026-05-02T14:29:55Z</time></trkpt><trkpt lat="44.160280127229086" lon="11.03402150279826"><ele>529.3333333333333</ele><time>2026-05-02T14:29:56Z</time></trkpt><trkpt lat="44.160189680069365" lon="11.03404911407273"><ele>528.1666666666666</ele><time>2026-05-02T14:29:57Z</time></trkpt><trkpt lat="44.160112634178184" lon="11.034039418327088"><ele>527.0</ele><time>2026-05-02T14:29:58Z</time></trkpt><trkpt lat="44.160023978473156" lon="11.034034652188128"><ele>526.6</ele><time>2026-05-02T14:30:00Z</time></trkpt><trkpt lat="44.15995082066133" lon="11.034186755511367"><ele>526.2</ele><time>2026-05-02T14:30:02Z</time></trkpt><trkpt lat="44.15991845125688" lon="11.034281075929455"><ele>525.8</ele><time>2026-05-02T14:30:04Z</time></trkpt><trkpt lat="44.15989080586126" lon="11.034394558364799"><ele>525.4</ele><time>2026-05-02T14:30:06Z</time></trkpt><trkpt lat="44.159867722305506" lon="11.034522533004564"><ele>525.0</ele><time>2026-05-02T14:30:08Z</time></trkpt><trkpt lat="44.15987171500439" lon="11.034650438861794"><ele>521.6666666666666</ele><time>2026-05-02T14:30:10Z</time></trkpt><trkpt lat="44.15981624296829" lon="11.0347739896368"><ele>518.3333333333334</ele><time>2026-05-02T14:30:12Z</time></trkpt><trkpt lat="44.15977442831446" lon="11.034850379519293"><ele>515.0</ele><time>2026-05-02T14:30:13Z</time></trkpt><trkpt lat="44.159712800626785" lon="11.034942576526145"><ele>511.6666666666667</ele><time>2026-05-02T14:30:14Z</time></trkpt><trkpt lat="44.15966821857089" lon="11.035057673090247"><ele>508.33333333333337</ele><time>2026-05-02T14:30:15Z</time></trkpt><trkpt lat="44.15965309664809" lon="11.035176349988925"><ele>505.0</ele><time>2026-05-02T14:30:16Z</time></trkpt><trkpt lat="44.15969185200501" lon="11.035292089129204"><ele>505.0</ele><time>2026-05-02T14:30:17Z</time></trkpt><trkpt lat="44.15974241656008" lon="11.035376096075591"><ele>505.0</ele><time>2026-05-02T14:30:18Z</time></trkpt><trkpt lat="44.159762874931054" lon="11.035491497928907"><ele>505.0</ele><time>2026-05-02T14:30:19Z</time></trkpt><trkpt lat="44.15978693064362" lon="11.03563243984437"><ele>505.0</ele><time>2026-05-02T14:30:20Z</time></trkpt><trkpt lat="44.15980942122459" lon="11.035786623942544"><ele>505.0</ele><time>2026-05-02T14:30:21Z</time></trkpt><trkpt lat="44.159823849669195" lon="11.03590200154455"><ele>504.1666666666667</ele><time>2026-05-02T14:30:22Z</time></trkpt><trkpt lat="44.15983981964698" lon="11.03602970596046"><ele>503.33333333333337</ele><time>2026-05-02T14:30:24Z</time></trkpt><trkpt lat="44.159856089412855" lon="11.03615980763588"><ele>502.5</ele><time>2026-05-02T14:30:26Z</time></trkpt><trkpt lat="44.15987064472258" lon="11.036276195999626"><ele>501.66666666666663</ele><time>2026-05-02T14:30:28Z</time></trkpt><trkpt lat="44.15988238326436" lon="11.03637005922939"><ele>500.8333333333333</ele><time>2026-05-02T14:30:30Z</time></trkpt><trkpt lat="44.159897075252964" lon="11.036487538713793"><ele>500.0</ele><time>2026-05-02T14:30:33Z</time></trkpt><trkpt lat="44.16005031716849" lon="11.03650152873177"><ele>499.99999999999994</ele><time>2026-05-02T14:30:42Z</time></trkpt><trkpt lat="44.16005585008028" lon="11.036606536232336"><ele>500.0</ele><time>2026-05-02T14:30:50Z</time></trkpt><trkpt lat="44.16004493279731" lon="11.036500570536276"><ele>500.0</ele><time>2026-05-02T14:30:59Z</time></trkpt><trkpt lat="44.16000385599506" lon="11.03638386301879"><ele>500.0</ele><time>2026-05-02T14:31:02Z</time></trkpt><trkpt lat="44.15994781884671" lon="11.036287706721511"><ele>499.99999999999994</ele><time>2026-05-02T14:31:04Z</time></trkpt><trkpt lat="44.15987359627855" lon="11.036287113355218"><ele>500.0</ele><time>2026-05-02T14:31:06Z</time></trkpt><trkpt lat="44.159848581891026" lon="11.036368683790519"><ele>499.99999999999994</ele><time>2026-05-02T14:31:08Z</time></trkpt><trkpt lat="44.15988070671145" lon="11.036456918591467"><ele>500.0</ele><time>2026-05-02T14:31:19Z</time></trkpt><trkpt lat="44.15981304120002" lon="11.036394548690252"><ele>500.0</ele><time>2026-05-02T14:34:08Z</time></trkpt><trkpt lat="44.15974704272533" lon="11.036424424304169"><ele>500.0</ele><time>2026-05-02T14:34:12Z</time></trkpt><trkpt lat="44.159816470294594" lon="11.036392276945186"><ele>499.99999999999994</ele><time>2026-05-02T14:34:47Z</time></trkpt><trkpt lat="44.15990750655065" lon="11.036443929409987"><ele>500.0</ele><time>2026-05-02T14:35:08Z</time></trkpt><trkpt lat="44.15986236671285" lon="11.036368481463166"><ele>501.42857142857144</ele><time>2026-05-02T14:36:00Z</time></trkpt><trkpt lat="44.15989396687338" lon="11.036277770970452"><ele>502.8571428571429</ele><time>2026-05-02T14:36:15Z</time></trkpt><trkpt lat="44.159967311972984" lon="11.036304699694766"><ele>504.28571428571433</ele><time>2026-05-02T14:36:18Z</time></trkpt><trkpt lat="44.160007958476406" lon="11.03638931575531"><ele>505.7142857142857</ele><time>2026-05-02T14:36:21Z</time></trkpt><trkpt lat="44.16004707459779" lon="11.036465838332067"><ele>507.1428571428572</ele><time>2026-05-02T14:36:24Z</time></trkpt><trkpt lat="44.160067815851214" lon="11.036558484896773"><ele>508.5714285714286</ele><time>2026-05-02T14:36:27Z</time></trkpt><trkpt lat="44.16007839627171" lon="11.036649702079362"><ele>510.0</ele><time>2026-05-02T14:36:30Z</time></trkpt><trkpt lat="44.16010969983128" lon="11.036732626301534"><ele>510.0</ele><time>2026-05-02T14:36:33Z</time></trkpt><trkpt lat="44.160143948125665" lon="11.03682295660816"><ele>510.00000000000006</ele><time>2026-05-02T14:36:37Z</time></trkpt><trkpt lat="44.160173235428616" lon="11.036908780391828"><ele>510.0</ele><time>2026-05-02T14:36:41Z</time></trkpt><trkpt lat="44.16019427962671" lon="11.037022201433636"><ele>510.0</ele><time>2026-05-02T14:36:45Z</time></trkpt><trkpt lat="44.16020152678002" lon="11.037111448599095"><ele>510.00000000000006</ele><time>2026-05-02T14:36:48Z</time></trkpt><trkpt lat="44.160215631860304" lon="11.037200432372885"><ele>510.0</ele><time>2026-05-02T14:36:52Z</time></trkpt><trkpt lat="44.16024122046847" lon="11.037315376370403"><ele>510.0</ele><time>2026-05-02T14:36:56Z</time></trkpt><trkpt lat="44.16026728858409" lon="11.03741536703832"><ele>508.7142857142857</ele><time>2026-05-02T14:37:00Z</time></trkpt><trkpt lat="44.16029510840421" lon="11.037498831379585"><ele>507.42857142857144</ele><time>2026-05-02T14:37:04Z</time></trkpt><trkpt lat="44.160326558128766" lon="11.03758770837551"><ele>506.14285714285717</ele><time>2026-05-02T14:37:09Z</time></trkpt><trkpt lat="44.16033863691464" lon="11.037681963005506"><ele>504.8571428571429</ele><time>2026-05-02T14:37:12Z</time></trkpt><trkpt lat="44.16036548201569" lon="11.037784586291314"><ele>503.57142857142856</ele><time>2026-05-02T14:37:16Z</time></trkpt><trkpt lat="44.160403200551485" lon="11.037861316781873"><ele>502.28571428571433</ele><time>2026-05-02T14:37:20Z</time></trkpt><trkpt lat="44.16041239620593" lon="11.037964210162798"><ele>501.0</ele><time>2026-05-02T14:37:24Z</time></trkpt><trkpt lat="44.16037013011444" lon="11.038050097668902"><ele>501.0</ele><time>2026-05-02T14:37:28Z</time></trkpt><trkpt lat="44.160322713926206" lon="11.038117479634467"><ele>501.0</ele><time>2026-05-02T14:37:32Z</time></trkpt><trkpt lat="44.160326987163614" lon="11.038208313239464"><ele>501.0</ele><time>2026-05-02T14:37:38Z</time></trkpt><trkpt lat="44.160276152914754" lon="11.038150527286742"><ele>501.0</ele><time>2026-05-02T14:41:16Z</time></trkpt><trkpt lat="44.16021275254403" lon="11.038189758886901"><ele>501.0</ele><time>2026-05-02T14:41:23Z</time></trkpt><trkpt lat="44.16016230330979" lon="11.038118288049985"><ele>501.0</ele><time>2026-05-02T14:47:21Z</time></trkpt><trkpt lat="44.16018253523918" lon="11.038217783041855"><ele>501.0</ele><time>2026-05-02T14:50:22.999Z</time></trkpt><trkpt lat="44.16025589399725" lon="11.03821788470088"><ele>501.0</ele><time>2026-05-02T14:51:16.999Z</time></trkpt><trkpt lat="44.16019431986879" lon="11.03818609805402"><ele>501.0</ele><time>2026-05-02T14:53:22.999Z</time></trkpt><trkpt lat="44.160263001085596" lon="11.038157919645032"><ele>501.0</ele><time>2026-05-02T14:54:21Z</time></trkpt><trkpt lat="44.16032429002735" lon="11.038192462428395"><ele>501.0</ele><time>2026-05-02T14:54:29Z</time></trkpt><trkpt lat="44.160253098355405" lon="11.038179915097777"><ele>501.0</ele><time>2026-05-02T14:57:13Z</time></trkpt><trkpt lat="44.160186435884405" lon="11.038136292571718"><ele>501.0</ele><time>2026-05-02T14:57:19Z</time></trkpt><trkpt lat="44.16028070568716" lon="11.038144947535642"><ele>501.0</ele><time>2026-05-02T14:58:34Z</time></trkpt><trkpt lat="44.1602175630103" lon="11.038162511383792"><ele>501.0</ele><time>2026-05-02T14:59:10Z</time></trkpt><trkpt lat="44.16015057167367" lon="11.038197319848793"><ele>501.0</ele><time>2026-05-02T14:59:16Z</time></trkpt><trkpt lat="44.160222209166065" lon="11.038199533891662"><ele>501.0</ele><time>2026-05-02T15:27:39Z</time></trkpt><trkpt lat="44.160199484666464" lon="11.038102305956214"><ele>501.0</ele><time>2026-05-02T15:28:23Z</time></trkpt><trkpt lat="44.16025176497003" lon="11.038023048586723"><ele>501.0</ele><time>2026-05-02T15:28:28Z</time></trkpt><trkpt lat="44.160312699954446" lon="11.037971697241831"><ele>501.0</ele><time>2026-05-02T15:28:34Z</time></trkpt><trkpt lat="44.160371214254894" lon="11.037926644295064"><ele>501.0</ele><time>2026-05-02T15:28:41Z</time></trkpt><trkpt lat="44.1603662492566" lon="11.037839020215639"><ele>501.0</ele><time>2026-05-02T15:28:58Z</time></trkpt><trkpt lat="44.16033483549638" lon="11.037754679439082"><ele>501.0</ele><time>2026-05-02T15:29:04Z</time></trkpt><trkpt lat="44.16031297753363" lon="11.037665063800125"><ele>501.0</ele><time>2026-05-02T15:29:10Z</time></trkpt><trkpt lat="44.160295939135096" lon="11.037569904881352"><ele>501.0</ele><time>2026-05-02T15:29:15Z</time></trkpt><trkpt lat="44.16027178085739" lon="11.037479689100406"><ele>501.0</ele><time>2026-05-02T15:29:21Z</time></trkpt><trkpt lat="44.16024515402048" lon="11.037380722927768"><ele>501.0</ele><time>2026-05-02T15:29:27Z</time></trkpt><trkpt lat="44.16023099393787" lon="11.037290445040398"><ele>501.0</ele><time>2026-05-02T15:29:31Z</time></trkpt><trkpt lat="44.16020508366989" lon="11.037202286176207"><ele>502.28571428571433</ele><time>2026-05-02T15:29:36Z</time></trkpt><trkpt lat="44.160193591933016" lon="11.037114097756215"><ele>503.57142857142856</ele><time>2026-05-02T15:29:41Z</time></trkpt><trkpt lat="44.16018260821137" lon="11.037026477597145"><ele>504.8571428571429</ele><time>2026-05-02T15:29:50Z</time></trkpt><trkpt lat="44.160175746885706" lon="11.036925083262888"><ele>506.14285714285717</ele><time>2026-05-02T15:29:56Z</time></trkpt><trkpt lat="44.160149603918256" lon="11.036844038077676"><ele>507.42857142857144</ele><time>2026-05-02T15:30:02Z</time></trkpt><trkpt lat="44.16011705906489" lon="11.036750486725015"><ele>508.7142857142857</ele><time>2026-05-02T15:30:10Z</time></trkpt><trkpt lat="44.16008090889869" lon="11.036669944955836"><ele>510.0</ele><time>2026-05-02T15:30:16Z</time></trkpt><trkpt lat="44.16005989421577" lon="11.036580614348651"><ele>510.8571428571429</ele><time>2026-05-02T15:30:23Z</time></trkpt><trkpt lat="44.16004776195828" lon="11.036487716550457"><ele>511.7142857142858</ele><time>2026-05-02T15:30:37Z</time></trkpt><trkpt lat="44.16001325087106" lon="11.036401473263458"><ele>512.5714285714286</ele><time>2026-05-02T15:30:44Z</time></trkpt><trkpt lat="44.159962318123775" lon="11.036322454623418"><ele>513.4285714285714</ele><time>2026-05-02T15:30:51Z</time></trkpt><trkpt lat="44.15989707259899" lon="11.036302011822714"><ele>514.2857142857142</ele><time>2026-05-02T15:30:59Z</time></trkpt><trkpt lat="44.15987310797165" lon="11.036388080540819"><ele>515.1428571428571</ele><time>2026-05-02T15:31:29Z</time></trkpt><trkpt lat="44.15986769883965" lon="11.036282235398625"><ele>516.0</ele><time>2026-05-02T15:32:03Z</time></trkpt><trkpt lat="44.15987438428626" lon="11.03618801765476"><ele>516.0</ele><time>2026-05-02T15:32:15Z</time></trkpt><trkpt lat="44.15987590455994" lon="11.036071728088743"><ele>516.0</ele><time>2026-05-02T15:32:17Z</time></trkpt><trkpt lat="44.15985516478181" lon="11.035949889783685"><ele>516.0</ele><time>2026-05-02T15:32:19Z</time></trkpt><trkpt lat="44.15983340621371" lon="11.035802947947573"><ele>516.0</ele><time>2026-05-02T15:32:21Z</time></trkpt><trkpt lat="44.15982151743092" lon="11.03571195450043"><ele>516.0</ele><time>2026-05-02T15:32:22Z</time></trkpt><trkpt lat="44.15980729957563" lon="11.035619303703893"><ele>516.0</ele><time>2026-05-02T15:32:23Z</time></trkpt><trkpt lat="44.15979025267378" lon="11.035523077444845"><ele>513.8</ele><time>2026-05-02T15:32:24Z</time></trkpt><trkpt lat="44.159773334301406" lon="11.03542764436376"><ele>511.6</ele><time>2026-05-02T15:32:25Z</time></trkpt><trkpt lat="44.15975718768978" lon="11.03533656463241"><ele>509.4</ele><time>2026-05-02T15:32:26Z</time></trkpt><trkpt lat="44.15972744586053" lon="11.035168796920345"><ele>507.2</ele><time>2026-05-02T15:32:28Z</time></trkpt><trkpt lat="44.15971739183293" lon="11.035005319047723"><ele>505.0</ele><time>2026-05-02T15:32:30Z</time></trkpt><trkpt lat="44.15977044431865" lon="11.034877183612979"><ele>504.1666666666667</ele><time>2026-05-02T15:32:32Z</time></trkpt><trkpt lat="44.159824164253095" lon="11.034777347533392"><ele>503.33333333333337</ele><time>2026-05-02T15:32:34Z</time></trkpt><trkpt lat="44.159862026641555" lon="11.034700867741451"><ele>502.5</ele><time>2026-05-02T15:32:54Z</time></trkpt><trkpt lat="44.159890854755766" lon="11.034615760268286"><ele>501.66666666666663</ele><time>2026-05-02T15:33:47Z</time></trkpt><trkpt lat="44.15989299758505" lon="11.034484147825735"><ele>500.8333333333333</ele><time>2026-05-02T15:33:49Z</time></trkpt><trkpt lat="44.15991040481487" lon="11.034387970708627"><ele>500.0</ele><time>2026-05-02T15:33:50Z</time></trkpt><trkpt lat="44.15994253068431" lon="11.034302090263392"><ele>504.16666666666663</ele><time>2026-05-02T15:33:51Z</time></trkpt><trkpt lat="44.159978172064044" lon="11.034213703863786"><ele>508.3333333333333</ele><time>2026-05-02T15:33:52Z</time></trkpt><trkpt lat="44.16005429580731" lon="11.034093046877942"><ele>512.5</ele><time>2026-05-02T15:33:54Z</time></trkpt><trkpt lat="44.16011357832935" lon="11.034050967110518"><ele>516.6666666666666</ele><time>2026-05-02T15:33:55Z</time></trkpt><trkpt lat="44.16018779048522" lon="11.03408382864235"><ele>520.8333333333334</ele><time>2026-05-02T15:33:56Z</time></trkpt><trkpt lat="44.16026574209234" lon="11.034084970805086"><ele>525.0</ele><time>2026-05-02T15:33:57Z</time></trkpt><trkpt lat="44.160341164069074" lon="11.034093541563367"><ele>525.0</ele><time>2026-05-02T15:33:58Z</time></trkpt><trkpt lat="44.16040664565943" lon="11.034133072468299"><ele>525.0</ele><time>2026-05-02T15:33:59Z</time></trkpt><trkpt lat="44.16046651813842" lon="11.03419806455899"><ele>525.0</ele><time>2026-05-02T15:34:00Z</time></trkpt><trkpt lat="44.1605325843656" lon="11.034264963007205"><ele>525.0</ele><time>2026-05-02T15:34:01Z</time></trkpt><trkpt lat="44.160599554357795" lon="11.034335004943888"><ele>525.0</ele><time>2026-05-02T15:34:02Z</time></trkpt><trkpt lat="44.160668438394595" lon="11.034407914250435"><ele>525.0</ele><time>2026-05-02T15:34:03Z</time></trkpt><trkpt lat="44.160749008737874" lon="11.034493686029458"><ele>527.25</ele><time>2026-05-02T15:34:04Z</time></trkpt><trkpt lat="44.16083885558892" lon="11.03458436119391"><ele>529.5</ele><time>2026-05-02T15:34:05Z</time></trkpt><trkpt lat="44.16093173298596" lon="11.034675742287591"><ele>531.75</ele><time>2026-05-02T15:34:06Z</time></trkpt><trkpt lat="44.16102316669324" lon="11.034769187371994"><ele>534.0</ele><time>2026-05-02T15:34:07Z</time></trkpt><trkpt lat="44.1611166170991" lon="11.034862317672118"><ele>534.0</ele><time>2026-05-02T15:34:08Z</time></trkpt><trkpt lat="44.16120932277986" lon="11.034951539936984"><ele>534.0</ele><time>2026-05-02T15:34:09Z</time></trkpt><trkpt lat="44.161301439146406" lon="11.035040195205136"><ele>534.0</ele><time>2026-05-02T15:34:10Z</time></trkpt><trkpt lat="44.16139388499585" lon="11.03512916551965"><ele>534.0</ele><time>2026-05-02T15:34:11Z</time></trkpt><trkpt lat="44.16148501552652" lon="11.035218781820221"><ele>534.0</ele><time>2026-05-02T15:34:12Z</time></trkpt><trkpt lat="44.16156938719019" lon="11.035301288776934"><ele>534.5</ele><time>2026-05-02T15:34:13Z</time></trkpt><trkpt lat="44.16164012630211" lon="11.03536933950345"><ele>535.0</ele><time>2026-05-02T15:34:14Z</time></trkpt><trkpt lat="44.161695859792545" lon="11.035418815053893"><ele>535.5</ele><time>2026-05-02T15:34:15Z</time></trkpt><trkpt lat="44.16180345144533" lon="11.035488925424925"><ele>536.0</ele><time>2026-05-02T15:34:17Z</time></trkpt><trkpt lat="44.16186136020756" lon="11.035534369922022"><ele>536.5</ele><time>2026-05-02T15:34:18Z</time></trkpt><trkpt lat="44.161928040271015" lon="11.035657243558019"><ele>537.0</ele><time>2026-05-02T15:34:20Z</time></trkpt><trkpt lat="44.161980070715884" lon="11.035731030935327"><ele>536.9999999999999</ele><time>2026-05-02T15:34:22Z</time></trkpt><trkpt lat="44.162025609315144" lon="11.035796737485942"><ele>537.0</ele><time>2026-05-02T15:34:36Z</time></trkpt><trkpt lat="44.16197075435683" lon="11.0357508679628"><ele>537.0</ele><time>2026-05-02T15:35:11Z</time></trkpt><trkpt lat="44.16190502837713" lon="11.035847660981048"><ele>537.0</ele><time>2026-05-02T15:35:14Z</time></trkpt><trkpt lat="44.16191480934108" lon="11.035942858085553"><ele>537.0</ele><time>2026-05-02T15:35:24Z</time></trkpt><trkpt lat="44.161842645998306" lon="11.035964787742593"><ele>536.9999999999999</ele><time>2026-05-02T15:35:42Z</time></trkpt><trkpt lat="44.161876386405055" lon="11.035889716124506"><ele>537.0</ele><time>2026-05-02T15:36:10Z</time></trkpt><trkpt lat="44.161876881681636" lon="11.035766408528259"><ele>537.0</ele><time>2026-05-02T15:36:21Z</time></trkpt><trkpt lat="44.16186418110248" lon="11.035666472692828"><ele>537.0</ele><time>2026-05-02T15:36:26Z</time></trkpt><trkpt lat="44.16188775637654" lon="11.035754369632233"><ele>537.0</ele><time>2026-05-02T15:37:17.031Z</time></trkpt><trkpt lat="44.16192394103428" lon="11.035830914694522"><ele>532.0</ele><time>2026-05-02T15:37:49Z</time></trkpt></trkseg></trk></gpx>